<?xml version="1.0" encoding="UTF-8"?>
<gpx xmlns="http://www.topografix.com/GPX/1/1" xmlns:gpsies="https://www.gpsies.com/GPX/1/0" creator="AllTrails https://www.alltrails.com/ - scalelle_course" version="1.1" xmlns:xsi="http://www.w3.org/2001/XMLSchema-instance" xsi:schemaLocation="http://www.topografix.com/GPX/1/1 http://www.topografix.com/GPX/1/1/gpx.xsd https://www.gpsies.com/GPX/1/0 https://www.gpsies.com/gpsies.xsd">
  <metadata>
    <name>scalelle_course</name>
    <link href="https://www.gpsies.com/">
      <text>scalelle_course on AllTrails</text>
    </link>
    <time>2024-05-14T08:56:28Z</time>
  </metadata>
  <trk>
    <name>scalelle_course on AllTrails</name>
    <trkseg>
      <trkpt lat="42.84501462" lon="13.64132344">
        <ele>106.00000</ele>
        <time>2024-03-21T11:57:38Z</time>
      </trkpt>
      <trkpt lat="42.84500816" lon="13.64123317">
        <ele>106.00000</ele>
        <time>2024-03-21T11:57:39Z</time>
      </trkpt>
      <trkpt lat="42.84499408" lon="13.64112881">
        <ele>105.00000</ele>
        <time>2024-03-21T11:57:40Z</time>
      </trkpt>
      <trkpt lat="42.84498553" lon="13.64104642">
        <ele>105.00000</ele>
        <time>2024-03-21T11:57:41Z</time>
      </trkpt>
      <trkpt lat="42.84497816" lon="13.64096344">
        <ele>105.00000</ele>
        <time>2024-03-21T11:57:42Z</time>
      </trkpt>
      <trkpt lat="42.84497212" lon="13.64088163">
        <ele>105.00000</ele>
        <time>2024-03-21T11:57:43Z</time>
      </trkpt>
      <trkpt lat="42.84496961" lon="13.64079748">
        <ele>105.00000</ele>
        <time>2024-03-21T11:57:44Z</time>
      </trkpt>
      <trkpt lat="42.84496240" lon="13.64071165">
        <ele>105.00000</ele>
        <time>2024-03-21T11:57:45Z</time>
      </trkpt>
      <trkpt lat="42.84496014" lon="13.64062523">
        <ele>105.00000</ele>
        <time>2024-03-21T11:57:46Z</time>
      </trkpt>
      <trkpt lat="42.84495712" lon="13.64053663">
        <ele>105.00000</ele>
        <time>2024-03-21T11:57:47Z</time>
      </trkpt>
      <trkpt lat="42.84495326" lon="13.64044787">
        <ele>105.00000</ele>
        <time>2024-03-21T11:57:48Z</time>
      </trkpt>
      <trkpt lat="42.84494949" lon="13.64035718">
        <ele>105.00000</ele>
        <time>2024-03-21T11:57:49Z</time>
      </trkpt>
      <trkpt lat="42.84494932" lon="13.64026648">
        <ele>105.00000</ele>
        <time>2024-03-21T11:57:50Z</time>
      </trkpt>
      <trkpt lat="42.84494966" lon="13.64017655">
        <ele>105.00000</ele>
        <time>2024-03-21T11:57:51Z</time>
      </trkpt>
      <trkpt lat="42.84494957" lon="13.64008602">
        <ele>105.00000</ele>
        <time>2024-03-21T11:57:52Z</time>
      </trkpt>
      <trkpt lat="42.84495209" lon="13.63999374">
        <ele>105.00000</ele>
        <time>2024-03-21T11:57:53Z</time>
      </trkpt>
      <trkpt lat="42.84495536" lon="13.63990304">
        <ele>105.00000</ele>
        <time>2024-03-21T11:57:54Z</time>
      </trkpt>
      <trkpt lat="42.84496315" lon="13.63981076">
        <ele>105.00000</ele>
        <time>2024-03-21T11:57:55Z</time>
      </trkpt>
      <trkpt lat="42.84497137" lon="13.63971537">
        <ele>105.00000</ele>
        <time>2024-03-21T11:57:56Z</time>
      </trkpt>
      <trkpt lat="42.84497899" lon="13.63961915">
        <ele>105.00000</ele>
        <time>2024-03-21T11:57:57Z</time>
      </trkpt>
      <trkpt lat="42.84498511" lon="13.63952284">
        <ele>104.00000</ele>
        <time>2024-03-21T11:57:58Z</time>
      </trkpt>
      <trkpt lat="42.84498880" lon="13.63942603">
        <ele>104.00000</ele>
        <time>2024-03-21T11:57:59Z</time>
      </trkpt>
      <trkpt lat="42.84499173" lon="13.63932830">
        <ele>104.00000</ele>
        <time>2024-03-21T11:58:00Z</time>
      </trkpt>
      <trkpt lat="42.84499718" lon="13.63923191">
        <ele>104.00000</ele>
        <time>2024-03-21T11:58:01Z</time>
      </trkpt>
      <trkpt lat="42.84500397" lon="13.63913308">
        <ele>104.00000</ele>
        <time>2024-03-21T11:58:02Z</time>
      </trkpt>
      <trkpt lat="42.84500950" lon="13.63902965">
        <ele>104.00000</ele>
        <time>2024-03-21T11:58:03Z</time>
      </trkpt>
      <trkpt lat="42.84501638" lon="13.63893242">
        <ele>104.00000</ele>
        <time>2024-03-21T11:58:04Z</time>
      </trkpt>
      <trkpt lat="42.84502359" lon="13.63883519">
        <ele>104.00000</ele>
        <time>2024-03-21T11:58:05Z</time>
      </trkpt>
      <trkpt lat="42.84502602" lon="13.63873519">
        <ele>104.00000</ele>
        <time>2024-03-21T11:58:06Z</time>
      </trkpt>
      <trkpt lat="42.84503004" lon="13.63863478">
        <ele>104.00000</ele>
        <time>2024-03-21T11:58:07Z</time>
      </trkpt>
      <trkpt lat="42.84503540" lon="13.63853462">
        <ele>104.00000</ele>
        <time>2024-03-21T11:58:08Z</time>
      </trkpt>
      <trkpt lat="42.84504077" lon="13.63843303">
        <ele>104.00000</ele>
        <time>2024-03-21T11:58:09Z</time>
      </trkpt>
      <trkpt lat="42.84504446" lon="13.63833320">
        <ele>104.00000</ele>
        <time>2024-03-21T11:58:10Z</time>
      </trkpt>
      <trkpt lat="42.84505091" lon="13.63823479">
        <ele>104.00000</ele>
        <time>2024-03-21T11:58:11Z</time>
      </trkpt>
      <trkpt lat="42.84505770" lon="13.63813488">
        <ele>104.00000</ele>
        <time>2024-03-21T11:58:12Z</time>
      </trkpt>
      <trkpt lat="42.84506382" lon="13.63803505">
        <ele>104.00000</ele>
        <time>2024-03-21T11:58:13Z</time>
      </trkpt>
      <trkpt lat="42.84506734" lon="13.63793590">
        <ele>104.00000</ele>
        <time>2024-03-21T11:58:14Z</time>
      </trkpt>
      <trkpt lat="42.84507228" lon="13.63783716">
        <ele>104.00000</ele>
        <time>2024-03-21T11:58:15Z</time>
      </trkpt>
      <trkpt lat="42.84507824" lon="13.63773909">
        <ele>104.00000</ele>
        <time>2024-03-21T11:58:16Z</time>
      </trkpt>
      <trkpt lat="42.84508394" lon="13.63764513">
        <ele>104.00000</ele>
        <time>2024-03-21T11:58:17Z</time>
      </trkpt>
      <trkpt lat="42.84508704" lon="13.63754614">
        <ele>104.00000</ele>
        <time>2024-03-21T11:58:18Z</time>
      </trkpt>
      <trkpt lat="42.84509399" lon="13.63744790">
        <ele>104.00000</ele>
        <time>2024-03-21T11:58:19Z</time>
      </trkpt>
      <trkpt lat="42.84510196" lon="13.63734874">
        <ele>104.00000</ele>
        <time>2024-03-21T11:58:20Z</time>
      </trkpt>
      <trkpt lat="42.84510724" lon="13.63724959">
        <ele>104.00000</ele>
        <time>2024-03-21T11:58:21Z</time>
      </trkpt>
      <trkpt lat="42.84511134" lon="13.63714825">
        <ele>104.00000</ele>
        <time>2024-03-21T11:58:22Z</time>
      </trkpt>
      <trkpt lat="42.84511243" lon="13.63704733">
        <ele>104.00000</ele>
        <time>2024-03-21T11:58:23Z</time>
      </trkpt>
      <trkpt lat="42.84511478" lon="13.63694742">
        <ele>104.00000</ele>
        <time>2024-03-21T11:58:24Z</time>
      </trkpt>
      <trkpt lat="42.84511847" lon="13.63684625">
        <ele>104.00000</ele>
        <time>2024-03-21T11:58:25Z</time>
      </trkpt>
      <trkpt lat="42.84512409" lon="13.63674600">
        <ele>104.00000</ele>
        <time>2024-03-21T11:58:26Z</time>
      </trkpt>
      <trkpt lat="42.84512937" lon="13.63664609">
        <ele>105.00000</ele>
        <time>2024-03-21T11:58:27Z</time>
      </trkpt>
      <trkpt lat="42.84513548" lon="13.63654458">
        <ele>105.00000</ele>
        <time>2024-03-21T11:58:28Z</time>
      </trkpt>
      <trkpt lat="42.84513993" lon="13.63644207">
        <ele>105.00000</ele>
        <time>2024-03-21T11:58:29Z</time>
      </trkpt>
      <trkpt lat="42.84514387" lon="13.63634107">
        <ele>105.00000</ele>
        <time>2024-03-21T11:58:30Z</time>
      </trkpt>
      <trkpt lat="42.84514898" lon="13.63624066">
        <ele>106.00000</ele>
        <time>2024-03-21T11:58:31Z</time>
      </trkpt>
      <trkpt lat="42.84515309" lon="13.63613798">
        <ele>106.00000</ele>
        <time>2024-03-21T11:58:32Z</time>
      </trkpt>
      <trkpt lat="42.84515828" lon="13.63603538">
        <ele>107.00000</ele>
        <time>2024-03-21T11:58:33Z</time>
      </trkpt>
      <trkpt lat="42.84516474" lon="13.63593103">
        <ele>107.00000</ele>
        <time>2024-03-21T11:58:34Z</time>
      </trkpt>
      <trkpt lat="42.84516960" lon="13.63582793">
        <ele>107.00000</ele>
        <time>2024-03-21T11:58:35Z</time>
      </trkpt>
      <trkpt lat="42.84517396" lon="13.63572685">
        <ele>107.00000</ele>
        <time>2024-03-21T11:58:36Z</time>
      </trkpt>
      <trkpt lat="42.84517823" lon="13.63562392">
        <ele>107.00000</ele>
        <time>2024-03-21T11:58:37Z</time>
      </trkpt>
      <trkpt lat="42.84518117" lon="13.63552208">
        <ele>107.00000</ele>
        <time>2024-03-21T11:58:38Z</time>
      </trkpt>
      <trkpt lat="42.84518343" lon="13.63542124">
        <ele>107.00000</ele>
        <time>2024-03-21T11:58:39Z</time>
      </trkpt>
      <trkpt lat="42.84518703" lon="13.63531948">
        <ele>106.00000</ele>
        <time>2024-03-21T11:58:40Z</time>
      </trkpt>
      <trkpt lat="42.84519013" lon="13.63521798">
        <ele>106.00000</ele>
        <time>2024-03-21T11:58:41Z</time>
      </trkpt>
      <trkpt lat="42.84519148" lon="13.63511664">
        <ele>106.00000</ele>
        <time>2024-03-21T11:58:42Z</time>
      </trkpt>
      <trkpt lat="42.84519022" lon="13.63501614">
        <ele>106.00000</ele>
        <time>2024-03-21T11:58:43Z</time>
      </trkpt>
      <trkpt lat="42.84518745" lon="13.63491606">
        <ele>106.00000</ele>
        <time>2024-03-21T11:58:44Z</time>
      </trkpt>
      <trkpt lat="42.84518502" lon="13.63481456">
        <ele>107.00000</ele>
        <time>2024-03-21T11:58:45Z</time>
      </trkpt>
      <trkpt lat="42.84517991" lon="13.63471339">
        <ele>107.00000</ele>
        <time>2024-03-21T11:58:46Z</time>
      </trkpt>
      <trkpt lat="42.84517396" lon="13.63461222">
        <ele>107.00000</ele>
        <time>2024-03-21T11:58:47Z</time>
      </trkpt>
      <trkpt lat="42.84516809" lon="13.63451189">
        <ele>107.00000</ele>
        <time>2024-03-21T11:58:48Z</time>
      </trkpt>
      <trkpt lat="42.84516189" lon="13.63441080">
        <ele>107.00000</ele>
        <time>2024-03-21T11:58:49Z</time>
      </trkpt>
      <trkpt lat="42.84515376" lon="13.63430863">
        <ele>107.00000</ele>
        <time>2024-03-21T11:58:50Z</time>
      </trkpt>
      <trkpt lat="42.84514697" lon="13.63420888">
        <ele>107.00000</ele>
        <time>2024-03-21T11:58:51Z</time>
      </trkpt>
      <trkpt lat="42.84513733" lon="13.63410914">
        <ele>106.00000</ele>
        <time>2024-03-21T11:58:52Z</time>
      </trkpt>
      <trkpt lat="42.84512618" lon="13.63400839">
        <ele>106.00000</ele>
        <time>2024-03-21T11:58:53Z</time>
      </trkpt>
      <trkpt lat="42.84511528" lon="13.63392759">
        <ele>106.00000</ele>
        <time>2024-03-21T11:58:54Z</time>
      </trkpt>
      <trkpt lat="42.84510212" lon="13.63382767">
        <ele>106.00000</ele>
        <time>2024-03-21T11:58:55Z</time>
      </trkpt>
      <trkpt lat="42.84508779" lon="13.63372776">
        <ele>105.00000</ele>
        <time>2024-03-21T11:58:56Z</time>
      </trkpt>
      <trkpt lat="42.84507153" lon="13.63360849">
        <ele>105.00000</ele>
        <time>2024-03-21T11:58:57Z</time>
      </trkpt>
      <trkpt lat="42.84505653" lon="13.63351151">
        <ele>105.00000</ele>
        <time>2024-03-21T11:58:58Z</time>
      </trkpt>
      <trkpt lat="42.84504110" lon="13.63341277">
        <ele>105.00000</ele>
        <time>2024-03-21T11:58:59Z</time>
      </trkpt>
      <trkpt lat="42.84502367" lon="13.63331344">
        <ele>104.00000</ele>
        <time>2024-03-21T11:59:00Z</time>
      </trkpt>
      <trkpt lat="42.84500716" lon="13.63321437">
        <ele>104.00000</ele>
        <time>2024-03-21T11:59:01Z</time>
      </trkpt>
      <trkpt lat="42.84499006" lon="13.63311613">
        <ele>105.00000</ele>
        <time>2024-03-21T11:59:02Z</time>
      </trkpt>
      <trkpt lat="42.84497162" lon="13.63301756">
        <ele>105.00000</ele>
        <time>2024-03-21T11:59:03Z</time>
      </trkpt>
      <trkpt lat="42.84495460" lon="13.63291748">
        <ele>105.00000</ele>
        <time>2024-03-21T11:59:04Z</time>
      </trkpt>
      <trkpt lat="42.84493675" lon="13.63281673">
        <ele>106.00000</ele>
        <time>2024-03-21T11:59:05Z</time>
      </trkpt>
      <trkpt lat="42.84491864" lon="13.63271531">
        <ele>106.00000</ele>
        <time>2024-03-21T11:59:06Z</time>
      </trkpt>
      <trkpt lat="42.84490255" lon="13.63261397">
        <ele>106.00000</ele>
        <time>2024-03-21T11:59:07Z</time>
      </trkpt>
      <trkpt lat="42.84488537" lon="13.63251213">
        <ele>107.00000</ele>
        <time>2024-03-21T11:59:08Z</time>
      </trkpt>
      <trkpt lat="42.84486886" lon="13.63241197">
        <ele>107.00000</ele>
        <time>2024-03-21T11:59:09Z</time>
      </trkpt>
      <trkpt lat="42.84485134" lon="13.63231399">
        <ele>107.00000</ele>
        <time>2024-03-21T11:59:10Z</time>
      </trkpt>
      <trkpt lat="42.84483105" lon="13.63221709">
        <ele>108.00000</ele>
        <time>2024-03-21T11:59:11Z</time>
      </trkpt>
      <trkpt lat="42.84481261" lon="13.63211693">
        <ele>108.00000</ele>
        <time>2024-03-21T11:59:12Z</time>
      </trkpt>
      <trkpt lat="42.84479501" lon="13.63201559">
        <ele>109.00000</ele>
        <time>2024-03-21T11:59:13Z</time>
      </trkpt>
      <trkpt lat="42.84477733" lon="13.63191425">
        <ele>109.00000</ele>
        <time>2024-03-21T11:59:14Z</time>
      </trkpt>
      <trkpt lat="42.84475989" lon="13.63181535">
        <ele>109.00000</ele>
        <time>2024-03-21T11:59:15Z</time>
      </trkpt>
      <trkpt lat="42.84474380" lon="13.63171627">
        <ele>109.00000</ele>
        <time>2024-03-21T11:59:16Z</time>
      </trkpt>
      <trkpt lat="42.84472804" lon="13.63161670">
        <ele>109.00000</ele>
        <time>2024-03-21T11:59:17Z</time>
      </trkpt>
      <trkpt lat="42.84471262" lon="13.63151536">
        <ele>109.00000</ele>
        <time>2024-03-21T11:59:18Z</time>
      </trkpt>
      <trkpt lat="42.84469602" lon="13.63141511">
        <ele>109.00000</ele>
        <time>2024-03-21T11:59:19Z</time>
      </trkpt>
      <trkpt lat="42.84468001" lon="13.63131495">
        <ele>109.00000</ele>
        <time>2024-03-21T11:59:20Z</time>
      </trkpt>
      <trkpt lat="42.84466417" lon="13.63121462">
        <ele>109.00000</ele>
        <time>2024-03-21T11:59:21Z</time>
      </trkpt>
      <trkpt lat="42.84464715" lon="13.63111412">
        <ele>109.00000</ele>
        <time>2024-03-21T11:59:22Z</time>
      </trkpt>
      <trkpt lat="42.84462947" lon="13.63101412">
        <ele>109.00000</ele>
        <time>2024-03-21T11:59:23Z</time>
      </trkpt>
      <trkpt lat="42.84460935" lon="13.63091454">
        <ele>109.00000</ele>
        <time>2024-03-21T11:59:24Z</time>
      </trkpt>
      <trkpt lat="42.84459334" lon="13.63081295">
        <ele>109.00000</ele>
        <time>2024-03-21T11:59:25Z</time>
      </trkpt>
      <trkpt lat="42.84457532" lon="13.63071262">
        <ele>109.00000</ele>
        <time>2024-03-21T11:59:26Z</time>
      </trkpt>
      <trkpt lat="42.84455864" lon="13.63061288">
        <ele>109.00000</ele>
        <time>2024-03-21T11:59:27Z</time>
      </trkpt>
      <trkpt lat="42.84453903" lon="13.63051464">
        <ele>109.00000</ele>
        <time>2024-03-21T11:59:28Z</time>
      </trkpt>
      <trkpt lat="42.84452109" lon="13.63041523">
        <ele>109.00000</ele>
        <time>2024-03-21T11:59:29Z</time>
      </trkpt>
      <trkpt lat="42.84450508" lon="13.63031499">
        <ele>109.00000</ele>
        <time>2024-03-21T11:59:30Z</time>
      </trkpt>
      <trkpt lat="42.84448983" lon="13.63021616">
        <ele>109.00000</ele>
        <time>2024-03-21T11:59:31Z</time>
      </trkpt>
      <trkpt lat="42.84447482" lon="13.63011918">
        <ele>109.00000</ele>
        <time>2024-03-21T11:59:32Z</time>
      </trkpt>
      <trkpt lat="42.84445865" lon="13.63002137">
        <ele>109.00000</ele>
        <time>2024-03-21T11:59:33Z</time>
      </trkpt>
      <trkpt lat="42.84444213" lon="13.62992271">
        <ele>108.00000</ele>
        <time>2024-03-21T11:59:34Z</time>
      </trkpt>
      <trkpt lat="42.84442512" lon="13.62982238">
        <ele>108.00000</ele>
        <time>2024-03-21T11:59:35Z</time>
      </trkpt>
      <trkpt lat="42.84440794" lon="13.62972280">
        <ele>107.00000</ele>
        <time>2024-03-21T11:59:36Z</time>
      </trkpt>
      <trkpt lat="42.84439251" lon="13.62962448">
        <ele>107.00000</ele>
        <time>2024-03-21T11:59:37Z</time>
      </trkpt>
      <trkpt lat="42.84437851" lon="13.62952491">
        <ele>107.00000</ele>
        <time>2024-03-21T11:59:38Z</time>
      </trkpt>
      <trkpt lat="42.84436561" lon="13.62942634">
        <ele>107.00000</ele>
        <time>2024-03-21T11:59:39Z</time>
      </trkpt>
      <trkpt lat="42.84435127" lon="13.62932969">
        <ele>107.00000</ele>
        <time>2024-03-21T11:59:40Z</time>
      </trkpt>
      <trkpt lat="42.84433728" lon="13.62923162">
        <ele>108.00000</ele>
        <time>2024-03-21T11:59:41Z</time>
      </trkpt>
      <trkpt lat="42.84432294" lon="13.62913448">
        <ele>109.00000</ele>
        <time>2024-03-21T11:59:42Z</time>
      </trkpt>
      <trkpt lat="42.84431146" lon="13.62903968">
        <ele>110.00000</ele>
        <time>2024-03-21T11:59:43Z</time>
      </trkpt>
      <trkpt lat="42.84429780" lon="13.62894966">
        <ele>111.00000</ele>
        <time>2024-03-21T11:59:44Z</time>
      </trkpt>
      <trkpt lat="42.84428397" lon="13.62886249">
        <ele>112.00000</ele>
        <time>2024-03-21T11:59:45Z</time>
      </trkpt>
      <trkpt lat="42.84427433" lon="13.62876794">
        <ele>112.00000</ele>
        <time>2024-03-21T11:59:46Z</time>
      </trkpt>
      <trkpt lat="42.84426368" lon="13.62867322">
        <ele>113.00000</ele>
        <time>2024-03-21T11:59:47Z</time>
      </trkpt>
      <trkpt lat="42.84425321" lon="13.62857532">
        <ele>113.00000</ele>
        <time>2024-03-21T11:59:48Z</time>
      </trkpt>
      <trkpt lat="42.84424181" lon="13.62847524">
        <ele>113.00000</ele>
        <time>2024-03-21T11:59:49Z</time>
      </trkpt>
      <trkpt lat="42.84423342" lon="13.62837541">
        <ele>112.00000</ele>
        <time>2024-03-21T11:59:50Z</time>
      </trkpt>
      <trkpt lat="42.84422479" lon="13.62827592">
        <ele>112.00000</ele>
        <time>2024-03-21T11:59:51Z</time>
      </trkpt>
      <trkpt lat="42.84421490" lon="13.62817869">
        <ele>111.00000</ele>
        <time>2024-03-21T11:59:52Z</time>
      </trkpt>
      <trkpt lat="42.84420543" lon="13.62808171">
        <ele>110.00000</ele>
        <time>2024-03-21T11:59:53Z</time>
      </trkpt>
      <trkpt lat="42.84419856" lon="13.62798482">
        <ele>111.00000</ele>
        <time>2024-03-21T11:59:54Z</time>
      </trkpt>
      <trkpt lat="42.84419093" lon="13.62788792">
        <ele>111.00000</ele>
        <time>2024-03-21T11:59:55Z</time>
      </trkpt>
      <trkpt lat="42.84418246" lon="13.62778860">
        <ele>112.00000</ele>
        <time>2024-03-21T11:59:56Z</time>
      </trkpt>
      <trkpt lat="42.84417517" lon="13.62769111">
        <ele>112.00000</ele>
        <time>2024-03-21T11:59:57Z</time>
      </trkpt>
      <trkpt lat="42.84416880" lon="13.62759204">
        <ele>112.00000</ele>
        <time>2024-03-21T11:59:58Z</time>
      </trkpt>
      <trkpt lat="42.84416293" lon="13.62749087">
        <ele>112.00000</ele>
        <time>2024-03-21T11:59:59Z</time>
      </trkpt>
      <trkpt lat="42.84415774" lon="13.62738945">
        <ele>112.00000</ele>
        <time>2024-03-21T12:00:00Z</time>
      </trkpt>
      <trkpt lat="42.84415346" lon="13.62728954">
        <ele>112.00000</ele>
        <time>2024-03-21T12:00:01Z</time>
      </trkpt>
      <trkpt lat="42.84414784" lon="13.62719222">
        <ele>111.00000</ele>
        <time>2024-03-21T12:00:02Z</time>
      </trkpt>
      <trkpt lat="42.84414231" lon="13.62709181">
        <ele>111.00000</ele>
        <time>2024-03-21T12:00:03Z</time>
      </trkpt>
      <trkpt lat="42.84413720" lon="13.62699072">
        <ele>111.00000</ele>
        <time>2024-03-21T12:00:04Z</time>
      </trkpt>
      <trkpt lat="42.84412882" lon="13.62686893">
        <ele>110.00000</ele>
        <time>2024-03-21T12:00:05Z</time>
      </trkpt>
      <trkpt lat="42.84412312" lon="13.62678352">
        <ele>110.00000</ele>
        <time>2024-03-21T12:00:06Z</time>
      </trkpt>
      <trkpt lat="42.84411977" lon="13.62667908">
        <ele>110.00000</ele>
        <time>2024-03-21T12:00:07Z</time>
      </trkpt>
      <trkpt lat="42.84411566" lon="13.62657330">
        <ele>109.00000</ele>
        <time>2024-03-21T12:00:08Z</time>
      </trkpt>
      <trkpt lat="42.84411105" lon="13.62646618">
        <ele>109.00000</ele>
        <time>2024-03-21T12:00:09Z</time>
      </trkpt>
      <trkpt lat="42.84410459" lon="13.62636149">
        <ele>109.00000</ele>
        <time>2024-03-21T12:00:10Z</time>
      </trkpt>
      <trkpt lat="42.84409940" lon="13.62625563">
        <ele>109.00000</ele>
        <time>2024-03-21T12:00:11Z</time>
      </trkpt>
      <trkpt lat="42.84409361" lon="13.62615086">
        <ele>109.00000</ele>
        <time>2024-03-21T12:00:12Z</time>
      </trkpt>
      <trkpt lat="42.84408045" lon="13.62594273">
        <ele>110.00000</ele>
        <time>2024-03-21T12:00:14Z</time>
      </trkpt>
      <trkpt lat="42.84407517" lon="13.62584098">
        <ele>110.00000</ele>
        <time>2024-03-21T12:00:15Z</time>
      </trkpt>
      <trkpt lat="42.84407056" lon="13.62574366">
        <ele>110.00000</ele>
        <time>2024-03-21T12:00:16Z</time>
      </trkpt>
      <trkpt lat="42.84406553" lon="13.62564308">
        <ele>111.00000</ele>
        <time>2024-03-21T12:00:17Z</time>
      </trkpt>
      <trkpt lat="42.84405858" lon="13.62554325">
        <ele>111.00000</ele>
        <time>2024-03-21T12:00:18Z</time>
      </trkpt>
      <trkpt lat="42.84405246" lon="13.62544585">
        <ele>111.00000</ele>
        <time>2024-03-21T12:00:19Z</time>
      </trkpt>
      <trkpt lat="42.84404743" lon="13.62525491">
        <ele>112.00000</ele>
        <time>2024-03-21T12:00:21Z</time>
      </trkpt>
      <trkpt lat="42.84405087" lon="13.62516238">
        <ele>112.00000</ele>
        <time>2024-03-21T12:00:22Z</time>
      </trkpt>
      <trkpt lat="42.84406344" lon="13.62507219">
        <ele>113.00000</ele>
        <time>2024-03-21T12:00:23Z</time>
      </trkpt>
      <trkpt lat="42.84408465" lon="13.62498435">
        <ele>113.00000</ele>
        <time>2024-03-21T12:00:24Z</time>
      </trkpt>
      <trkpt lat="42.84411306" lon="13.62490128">
        <ele>113.00000</ele>
        <time>2024-03-21T12:00:25Z</time>
      </trkpt>
      <trkpt lat="42.84414852" lon="13.62483146">
        <ele>114.00000</ele>
        <time>2024-03-21T12:00:26Z</time>
      </trkpt>
      <trkpt lat="42.84419059" lon="13.62477061">
        <ele>114.00000</ele>
        <time>2024-03-21T12:00:27Z</time>
      </trkpt>
      <trkpt lat="42.84423787" lon="13.62470875">
        <ele>114.00000</ele>
        <time>2024-03-21T12:00:28Z</time>
      </trkpt>
      <trkpt lat="42.84427944" lon="13.62464538">
        <ele>114.00000</ele>
        <time>2024-03-21T12:00:29Z</time>
      </trkpt>
      <trkpt lat="42.84430903" lon="13.62457229">
        <ele>114.00000</ele>
        <time>2024-03-21T12:00:30Z</time>
      </trkpt>
      <trkpt lat="42.84432663" lon="13.62449459">
        <ele>114.00000</ele>
        <time>2024-03-21T12:00:31Z</time>
      </trkpt>
      <trkpt lat="42.84433091" lon="13.62441153">
        <ele>114.00000</ele>
        <time>2024-03-21T12:00:32Z</time>
      </trkpt>
      <trkpt lat="42.84431649" lon="13.62433064">
        <ele>115.00000</ele>
        <time>2024-03-21T12:00:33Z</time>
      </trkpt>
      <trkpt lat="42.84428782" lon="13.62425487">
        <ele>115.00000</ele>
        <time>2024-03-21T12:00:34Z</time>
      </trkpt>
      <trkpt lat="42.84425019" lon="13.62418605">
        <ele>115.00000</ele>
        <time>2024-03-21T12:00:35Z</time>
      </trkpt>
      <trkpt lat="42.84420308" lon="13.62412361">
        <ele>115.00000</ele>
        <time>2024-03-21T12:00:36Z</time>
      </trkpt>
      <trkpt lat="42.84415706" lon="13.62406569">
        <ele>115.00000</ele>
        <time>2024-03-21T12:00:37Z</time>
      </trkpt>
      <trkpt lat="42.84411272" lon="13.62400023">
        <ele>115.00000</ele>
        <time>2024-03-21T12:00:38Z</time>
      </trkpt>
      <trkpt lat="42.84408087" lon="13.62392253">
        <ele>115.00000</ele>
        <time>2024-03-21T12:00:39Z</time>
      </trkpt>
      <trkpt lat="42.84406696" lon="13.62383678">
        <ele>115.00000</ele>
        <time>2024-03-21T12:00:40Z</time>
      </trkpt>
      <trkpt lat="42.84406512" lon="13.62375003">
        <ele>116.00000</ele>
        <time>2024-03-21T12:00:41Z</time>
      </trkpt>
      <trkpt lat="42.84407040" lon="13.62366378">
        <ele>116.00000</ele>
        <time>2024-03-21T12:00:42Z</time>
      </trkpt>
      <trkpt lat="42.84408104" lon="13.62357753">
        <ele>117.00000</ele>
        <time>2024-03-21T12:00:43Z</time>
      </trkpt>
      <trkpt lat="42.84409043" lon="13.62348868">
        <ele>117.00000</ele>
        <time>2024-03-21T12:00:44Z</time>
      </trkpt>
      <trkpt lat="42.84410040" lon="13.62339740">
        <ele>117.00000</ele>
        <time>2024-03-21T12:00:45Z</time>
      </trkpt>
      <trkpt lat="42.84411155" lon="13.62330688">
        <ele>116.00000</ele>
        <time>2024-03-21T12:00:46Z</time>
      </trkpt>
      <trkpt lat="42.84412580" lon="13.62322063">
        <ele>116.00000</ele>
        <time>2024-03-21T12:00:47Z</time>
      </trkpt>
      <trkpt lat="42.84413678" lon="13.62313035">
        <ele>116.00000</ele>
        <time>2024-03-21T12:00:48Z</time>
      </trkpt>
      <trkpt lat="42.84414927" lon="13.62303975">
        <ele>116.00000</ele>
        <time>2024-03-21T12:00:49Z</time>
      </trkpt>
      <trkpt lat="42.84415866" lon="13.62294713">
        <ele>116.00000</ele>
        <time>2024-03-21T12:00:50Z</time>
      </trkpt>
      <trkpt lat="42.84416385" lon="13.62285501">
        <ele>116.00000</ele>
        <time>2024-03-21T12:00:51Z</time>
      </trkpt>
      <trkpt lat="42.84417282" lon="13.62276323">
        <ele>117.00000</ele>
        <time>2024-03-21T12:00:52Z</time>
      </trkpt>
      <trkpt lat="42.84418514" lon="13.62267010">
        <ele>117.00000</ele>
        <time>2024-03-21T12:00:53Z</time>
      </trkpt>
      <trkpt lat="42.84419797" lon="13.62257564">
        <ele>117.00000</ele>
        <time>2024-03-21T12:00:54Z</time>
      </trkpt>
      <trkpt lat="42.84421012" lon="13.62248327">
        <ele>117.00000</ele>
        <time>2024-03-21T12:00:55Z</time>
      </trkpt>
      <trkpt lat="42.84422370" lon="13.62239241">
        <ele>117.00000</ele>
        <time>2024-03-21T12:00:56Z</time>
      </trkpt>
      <trkpt lat="42.84423619" lon="13.62229887">
        <ele>117.00000</ele>
        <time>2024-03-21T12:00:57Z</time>
      </trkpt>
      <trkpt lat="42.84424901" lon="13.62220801">
        <ele>116.00000</ele>
        <time>2024-03-21T12:00:58Z</time>
      </trkpt>
      <trkpt lat="42.84426100" lon="13.62211807">
        <ele>116.00000</ele>
        <time>2024-03-21T12:00:59Z</time>
      </trkpt>
      <trkpt lat="42.84427299" lon="13.62202562">
        <ele>116.00000</ele>
        <time>2024-03-21T12:01:00Z</time>
      </trkpt>
      <trkpt lat="42.84428606" lon="13.62193065">
        <ele>116.00000</ele>
        <time>2024-03-21T12:01:01Z</time>
      </trkpt>
      <trkpt lat="42.84430073" lon="13.62183543">
        <ele>116.00000</ele>
        <time>2024-03-21T12:01:02Z</time>
      </trkpt>
      <trkpt lat="42.84431397" lon="13.62173653">
        <ele>116.00000</ele>
        <time>2024-03-21T12:01:03Z</time>
      </trkpt>
      <trkpt lat="42.84432747" lon="13.62163661">
        <ele>116.00000</ele>
        <time>2024-03-21T12:01:04Z</time>
      </trkpt>
      <trkpt lat="42.84434323" lon="13.62153402">
        <ele>117.00000</ele>
        <time>2024-03-21T12:01:05Z</time>
      </trkpt>
      <trkpt lat="42.84436058" lon="13.62143050">
        <ele>117.00000</ele>
        <time>2024-03-21T12:01:06Z</time>
      </trkpt>
      <trkpt lat="42.84438078" lon="13.62132623">
        <ele>117.00000</ele>
        <time>2024-03-21T12:01:07Z</time>
      </trkpt>
      <trkpt lat="42.84440299" lon="13.62121987">
        <ele>117.00000</ele>
        <time>2024-03-21T12:01:08Z</time>
      </trkpt>
      <trkpt lat="42.84442587" lon="13.62111174">
        <ele>118.00000</ele>
        <time>2024-03-21T12:01:09Z</time>
      </trkpt>
      <trkpt lat="42.84444876" lon="13.62100319">
        <ele>118.00000</ele>
        <time>2024-03-21T12:01:10Z</time>
      </trkpt>
      <trkpt lat="42.84447290" lon="13.62089465">
        <ele>118.00000</ele>
        <time>2024-03-21T12:01:11Z</time>
      </trkpt>
      <trkpt lat="42.84449569" lon="13.62078451">
        <ele>118.00000</ele>
        <time>2024-03-21T12:01:12Z</time>
      </trkpt>
      <trkpt lat="42.84451724" lon="13.62067270">
        <ele>118.00000</ele>
        <time>2024-03-21T12:01:13Z</time>
      </trkpt>
      <trkpt lat="42.84454045" lon="13.62056298">
        <ele>119.00000</ele>
        <time>2024-03-21T12:01:14Z</time>
      </trkpt>
      <trkpt lat="42.84456468" lon="13.62045141">
        <ele>119.00000</ele>
        <time>2024-03-21T12:01:15Z</time>
      </trkpt>
      <trkpt lat="42.84458932" lon="13.62034102">
        <ele>119.00000</ele>
        <time>2024-03-21T12:01:16Z</time>
      </trkpt>
      <trkpt lat="42.84461723" lon="13.62023114">
        <ele>118.00000</ele>
        <time>2024-03-21T12:01:17Z</time>
      </trkpt>
      <trkpt lat="42.84464657" lon="13.62012209">
        <ele>118.00000</ele>
        <time>2024-03-21T12:01:18Z</time>
      </trkpt>
      <trkpt lat="42.84467834" lon="13.62001178">
        <ele>117.00000</ele>
        <time>2024-03-21T12:01:19Z</time>
      </trkpt>
      <trkpt lat="42.84471396" lon="13.61990139">
        <ele>117.00000</ele>
        <time>2024-03-21T12:01:20Z</time>
      </trkpt>
      <trkpt lat="42.84475302" lon="13.61979343">
        <ele>117.00000</ele>
        <time>2024-03-21T12:01:21Z</time>
      </trkpt>
      <trkpt lat="42.84479803" lon="13.61969076">
        <ele>116.00000</ele>
        <time>2024-03-21T12:01:22Z</time>
      </trkpt>
      <trkpt lat="42.84485134" lon="13.61959436">
        <ele>116.00000</ele>
        <time>2024-03-21T12:01:23Z</time>
      </trkpt>
      <trkpt lat="42.84490372" lon="13.61949923">
        <ele>115.00000</ele>
        <time>2024-03-21T12:01:24Z</time>
      </trkpt>
      <trkpt lat="42.84494874" lon="13.61939622">
        <ele>115.00000</ele>
        <time>2024-03-21T12:01:25Z</time>
      </trkpt>
      <trkpt lat="42.84498260" lon="13.61928616">
        <ele>115.00000</ele>
        <time>2024-03-21T12:01:26Z</time>
      </trkpt>
      <trkpt lat="42.84500540" lon="13.61917016">
        <ele>115.00000</ele>
        <time>2024-03-21T12:01:27Z</time>
      </trkpt>
      <trkpt lat="42.84502266" lon="13.61905138">
        <ele>114.00000</ele>
        <time>2024-03-21T12:01:28Z</time>
      </trkpt>
      <trkpt lat="42.84504446" lon="13.61893446">
        <ele>113.00000</ele>
        <time>2024-03-21T12:01:29Z</time>
      </trkpt>
      <trkpt lat="42.84507564" lon="13.61882122">
        <ele>113.00000</ele>
        <time>2024-03-21T12:01:30Z</time>
      </trkpt>
      <trkpt lat="42.84511168" lon="13.61870949">
        <ele>113.00000</ele>
        <time>2024-03-21T12:01:31Z</time>
      </trkpt>
      <trkpt lat="42.84514621" lon="13.61859926">
        <ele>113.00000</ele>
        <time>2024-03-21T12:01:32Z</time>
      </trkpt>
      <trkpt lat="42.84518318" lon="13.61849131">
        <ele>112.00000</ele>
        <time>2024-03-21T12:01:33Z</time>
      </trkpt>
      <trkpt lat="42.84522458" lon="13.61836382">
        <ele>112.00000</ele>
        <time>2024-03-21T12:01:34Z</time>
      </trkpt>
      <trkpt lat="42.84525660" lon="13.61825829">
        <ele>112.00000</ele>
        <time>2024-03-21T12:01:35Z</time>
      </trkpt>
      <trkpt lat="42.84528929" lon="13.61815645">
        <ele>111.00000</ele>
        <time>2024-03-21T12:01:36Z</time>
      </trkpt>
      <trkpt lat="42.84532357" lon="13.61805402">
        <ele>111.00000</ele>
        <time>2024-03-21T12:01:37Z</time>
      </trkpt>
      <trkpt lat="42.84535073" lon="13.61797205">
        <ele>110.00000</ele>
        <time>2024-03-21T12:01:38Z</time>
      </trkpt>
      <trkpt lat="42.84538426" lon="13.61787104">
        <ele>110.00000</ele>
        <time>2024-03-21T12:01:39Z</time>
      </trkpt>
      <trkpt lat="42.84542106" lon="13.61774959">
        <ele>110.00000</ele>
        <time>2024-03-21T12:01:40Z</time>
      </trkpt>
      <trkpt lat="42.84545131" lon="13.61764842">
        <ele>111.00000</ele>
        <time>2024-03-21T12:01:41Z</time>
      </trkpt>
      <trkpt lat="42.84547755" lon="13.61754423">
        <ele>111.00000</ele>
        <time>2024-03-21T12:01:42Z</time>
      </trkpt>
      <trkpt lat="42.84549373" lon="13.61745790">
        <ele>111.00000</ele>
        <time>2024-03-21T12:01:43Z</time>
      </trkpt>
      <trkpt lat="42.84551074" lon="13.61734726">
        <ele>112.00000</ele>
        <time>2024-03-21T12:01:44Z</time>
      </trkpt>
      <trkpt lat="42.84552189" lon="13.61721365">
        <ele>113.00000</ele>
        <time>2024-03-21T12:01:45Z</time>
      </trkpt>
      <trkpt lat="42.84552491" lon="13.61710326">
        <ele>114.00000</ele>
        <time>2024-03-21T12:01:46Z</time>
      </trkpt>
      <trkpt lat="42.84552793" lon="13.61699254">
        <ele>114.00000</ele>
        <time>2024-03-21T12:01:47Z</time>
      </trkpt>
      <trkpt lat="42.84552667" lon="13.61690252">
        <ele>115.00000</ele>
        <time>2024-03-21T12:01:48Z</time>
      </trkpt>
      <trkpt lat="42.84552566" lon="13.61678785">
        <ele>115.00000</ele>
        <time>2024-03-21T12:01:49Z</time>
      </trkpt>
      <trkpt lat="42.84552424" lon="13.61665072">
        <ele>116.00000</ele>
        <time>2024-03-21T12:01:50Z</time>
      </trkpt>
      <trkpt lat="42.84553220" lon="13.61653849">
        <ele>116.00000</ele>
        <time>2024-03-21T12:01:51Z</time>
      </trkpt>
      <trkpt lat="42.84554561" lon="13.61642617">
        <ele>116.00000</ele>
        <time>2024-03-21T12:01:52Z</time>
      </trkpt>
      <trkpt lat="42.84556405" lon="13.61631553">
        <ele>116.00000</ele>
        <time>2024-03-21T12:01:53Z</time>
      </trkpt>
      <trkpt lat="42.84558249" lon="13.61622945">
        <ele>116.00000</ele>
        <time>2024-03-21T12:01:54Z</time>
      </trkpt>
      <trkpt lat="42.84560906" lon="13.61610230">
        <ele>116.00000</ele>
        <time>2024-03-21T12:01:55Z</time>
      </trkpt>
      <trkpt lat="42.84563379" lon="13.61600079">
        <ele>116.00000</ele>
        <time>2024-03-21T12:01:56Z</time>
      </trkpt>
      <trkpt lat="42.84566237" lon="13.61590524">
        <ele>116.00000</ele>
        <time>2024-03-21T12:01:57Z</time>
      </trkpt>
      <trkpt lat="42.84572012" lon="13.61571799">
        <ele>116.00000</ele>
        <time>2024-03-21T12:01:59Z</time>
      </trkpt>
      <trkpt lat="42.84575407" lon="13.61562746">
        <ele>116.00000</ele>
        <time>2024-03-21T12:02:00Z</time>
      </trkpt>
      <trkpt lat="42.84579061" lon="13.61553518">
        <ele>116.00000</ele>
        <time>2024-03-21T12:02:01Z</time>
      </trkpt>
      <trkpt lat="42.84582657" lon="13.61544314">
        <ele>116.00000</ele>
        <time>2024-03-21T12:02:02Z</time>
      </trkpt>
      <trkpt lat="42.84586044" lon="13.61535396">
        <ele>116.00000</ele>
        <time>2024-03-21T12:02:03Z</time>
      </trkpt>
      <trkpt lat="42.84588550" lon="13.61528347">
        <ele>116.00000</ele>
        <time>2024-03-21T12:02:04Z</time>
      </trkpt>
      <trkpt lat="42.84592900" lon="13.61517601">
        <ele>117.00000</ele>
        <time>2024-03-21T12:02:05Z</time>
      </trkpt>
      <trkpt lat="42.84596906" lon="13.61508314">
        <ele>117.00000</ele>
        <time>2024-03-21T12:02:06Z</time>
      </trkpt>
      <trkpt lat="42.84600804" lon="13.61498935">
        <ele>116.00000</ele>
        <time>2024-03-21T12:02:07Z</time>
      </trkpt>
      <trkpt lat="42.84604408" lon="13.61489471">
        <ele>116.00000</ele>
        <time>2024-03-21T12:02:08Z</time>
      </trkpt>
      <trkpt lat="42.84607510" lon="13.61481894">
        <ele>116.00000</ele>
        <time>2024-03-21T12:02:09Z</time>
      </trkpt>
      <trkpt lat="42.84611566" lon="13.61472381">
        <ele>116.00000</ele>
        <time>2024-03-21T12:02:10Z</time>
      </trkpt>
      <trkpt lat="42.84616193" lon="13.61461149">
        <ele>116.00000</ele>
        <time>2024-03-21T12:02:11Z</time>
      </trkpt>
      <trkpt lat="42.84619898" lon="13.61451845">
        <ele>116.00000</ele>
        <time>2024-03-21T12:02:12Z</time>
      </trkpt>
      <trkpt lat="42.84623636" lon="13.61442675">
        <ele>116.00000</ele>
        <time>2024-03-21T12:02:13Z</time>
      </trkpt>
      <trkpt lat="42.84626713" lon="13.61435157">
        <ele>117.00000</ele>
        <time>2024-03-21T12:02:14Z</time>
      </trkpt>
      <trkpt lat="42.84630501" lon="13.61425844">
        <ele>117.00000</ele>
        <time>2024-03-21T12:02:15Z</time>
      </trkpt>
      <trkpt lat="42.84635002" lon="13.61414479">
        <ele>117.00000</ele>
        <time>2024-03-21T12:02:16Z</time>
      </trkpt>
      <trkpt lat="42.84639017" lon="13.61404479">
        <ele>118.00000</ele>
        <time>2024-03-21T12:02:17Z</time>
      </trkpt>
      <trkpt lat="42.84642932" lon="13.61394261">
        <ele>118.00000</ele>
        <time>2024-03-21T12:02:18Z</time>
      </trkpt>
      <trkpt lat="42.84646226" lon="13.61386114">
        <ele>118.00000</ele>
        <time>2024-03-21T12:02:19Z</time>
      </trkpt>
      <trkpt lat="42.84650207" lon="13.61375662">
        <ele>118.00000</ele>
        <time>2024-03-21T12:02:20Z</time>
      </trkpt>
      <trkpt lat="42.84654976" lon="13.61363047">
        <ele>118.00000</ele>
        <time>2024-03-21T12:02:21Z</time>
      </trkpt>
      <trkpt lat="42.84658706" lon="13.61352461">
        <ele>119.00000</ele>
        <time>2024-03-21T12:02:22Z</time>
      </trkpt>
      <trkpt lat="42.84662688" lon="13.61341841">
        <ele>119.00000</ele>
        <time>2024-03-21T12:02:23Z</time>
      </trkpt>
      <trkpt lat="42.84666552" lon="13.61331112">
        <ele>119.00000</ele>
        <time>2024-03-21T12:02:24Z</time>
      </trkpt>
      <trkpt lat="42.84669494" lon="13.61322638">
        <ele>119.00000</ele>
        <time>2024-03-21T12:02:25Z</time>
      </trkpt>
      <trkpt lat="42.84673919" lon="13.61310166">
        <ele>119.00000</ele>
        <time>2024-03-21T12:02:26Z</time>
      </trkpt>
      <trkpt lat="42.84677566" lon="13.61299538">
        <ele>119.00000</ele>
        <time>2024-03-21T12:02:27Z</time>
      </trkpt>
      <trkpt lat="42.84680960" lon="13.61288993">
        <ele>118.00000</ele>
        <time>2024-03-21T12:02:28Z</time>
      </trkpt>
      <trkpt lat="42.84684279" lon="13.61278482">
        <ele>117.00000</ele>
        <time>2024-03-21T12:02:29Z</time>
      </trkpt>
      <trkpt lat="42.84687020" lon="13.61270184">
        <ele>117.00000</ele>
        <time>2024-03-21T12:02:30Z</time>
      </trkpt>
      <trkpt lat="42.84690566" lon="13.61259791">
        <ele>116.00000</ele>
        <time>2024-03-21T12:02:31Z</time>
      </trkpt>
      <trkpt lat="42.84694799" lon="13.61247394">
        <ele>116.00000</ele>
        <time>2024-03-21T12:02:32Z</time>
      </trkpt>
      <trkpt lat="42.84698269" lon="13.61237000">
        <ele>116.00000</ele>
        <time>2024-03-21T12:02:33Z</time>
      </trkpt>
      <trkpt lat="42.84701370" lon="13.61226380">
        <ele>116.00000</ele>
        <time>2024-03-21T12:02:34Z</time>
      </trkpt>
      <trkpt lat="42.84703709" lon="13.61218275">
        <ele>116.00000</ele>
        <time>2024-03-21T12:02:35Z</time>
      </trkpt>
      <trkpt lat="42.84707296" lon="13.61205979">
        <ele>117.00000</ele>
        <time>2024-03-21T12:02:36Z</time>
      </trkpt>
      <trkpt lat="42.84710590" lon="13.61195770">
        <ele>117.00000</ele>
        <time>2024-03-21T12:02:37Z</time>
      </trkpt>
      <trkpt lat="42.84713616" lon="13.61185619">
        <ele>117.00000</ele>
        <time>2024-03-21T12:02:38Z</time>
      </trkpt>
      <trkpt lat="42.84716701" lon="13.61175251">
        <ele>117.00000</ele>
        <time>2024-03-21T12:02:39Z</time>
      </trkpt>
      <trkpt lat="42.84719148" lon="13.61167087">
        <ele>117.00000</ele>
        <time>2024-03-21T12:02:40Z</time>
      </trkpt>
      <trkpt lat="42.84722409" lon="13.61156769">
        <ele>118.00000</ele>
        <time>2024-03-21T12:02:41Z</time>
      </trkpt>
      <trkpt lat="42.84725518" lon="13.61146593">
        <ele>118.00000</ele>
        <time>2024-03-21T12:02:42Z</time>
      </trkpt>
      <trkpt lat="42.84728502" lon="13.61136761">
        <ele>118.00000</ele>
        <time>2024-03-21T12:02:43Z</time>
      </trkpt>
      <trkpt lat="42.84732291" lon="13.61127248">
        <ele>118.00000</ele>
        <time>2024-03-21T12:02:44Z</time>
      </trkpt>
      <trkpt lat="42.84737328" lon="13.61118480">
        <ele>118.00000</ele>
        <time>2024-03-21T12:02:45Z</time>
      </trkpt>
      <trkpt lat="42.84743087" lon="13.61110291">
        <ele>118.00000</ele>
        <time>2024-03-21T12:02:46Z</time>
      </trkpt>
      <trkpt lat="42.84749273" lon="13.61102672">
        <ele>117.00000</ele>
        <time>2024-03-21T12:02:47Z</time>
      </trkpt>
      <trkpt lat="42.84754930" lon="13.61094969">
        <ele>116.00000</ele>
        <time>2024-03-21T12:02:48Z</time>
      </trkpt>
      <trkpt lat="42.84759515" lon="13.61086335">
        <ele>114.00000</ele>
        <time>2024-03-21T12:02:49Z</time>
      </trkpt>
      <trkpt lat="42.84761980" lon="13.61076286">
        <ele>114.00000</ele>
        <time>2024-03-21T12:02:50Z</time>
      </trkpt>
      <trkpt lat="42.84762147" lon="13.61065557">
        <ele>114.00000</ele>
        <time>2024-03-21T12:02:51Z</time>
      </trkpt>
      <trkpt lat="42.84760789" lon="13.61054643">
        <ele>114.00000</ele>
        <time>2024-03-21T12:02:52Z</time>
      </trkpt>
      <trkpt lat="42.84756758" lon="13.61042423">
        <ele>115.00000</ele>
        <time>2024-03-21T12:02:53Z</time>
      </trkpt>
      <trkpt lat="42.84749248" lon="13.61034376">
        <ele>117.00000</ele>
        <time>2024-03-21T12:02:54Z</time>
      </trkpt>
      <trkpt lat="42.84741444" lon="13.61027679">
        <ele>118.00000</ele>
        <time>2024-03-21T12:02:55Z</time>
      </trkpt>
      <trkpt lat="42.84732618" lon="13.61023429">
        <ele>120.00000</ele>
        <time>2024-03-21T12:02:56Z</time>
      </trkpt>
      <trkpt lat="42.84726005" lon="13.61021024">
        <ele>120.00000</ele>
        <time>2024-03-21T12:02:57Z</time>
      </trkpt>
      <trkpt lat="42.84718763" lon="13.61016849">
        <ele>121.00000</ele>
        <time>2024-03-21T12:02:58Z</time>
      </trkpt>
      <trkpt lat="42.84711730" lon="13.61012281">
        <ele>121.00000</ele>
        <time>2024-03-21T12:02:59Z</time>
      </trkpt>
      <trkpt lat="42.84705444" lon="13.61007319">
        <ele>121.00000</ele>
        <time>2024-03-21T12:03:00Z</time>
      </trkpt>
      <trkpt lat="42.84700574" lon="13.61001284">
        <ele>121.00000</ele>
        <time>2024-03-21T12:03:01Z</time>
      </trkpt>
      <trkpt lat="42.84696442" lon="13.60993548">
        <ele>122.00000</ele>
        <time>2024-03-21T12:03:02Z</time>
      </trkpt>
      <trkpt lat="42.84693902" lon="13.60984428">
        <ele>122.00000</ele>
        <time>2024-03-21T12:03:03Z</time>
      </trkpt>
      <trkpt lat="42.84693231" lon="13.60975703">
        <ele>122.00000</ele>
        <time>2024-03-21T12:03:04Z</time>
      </trkpt>
      <trkpt lat="42.84694061" lon="13.60967027">
        <ele>123.00000</ele>
        <time>2024-03-21T12:03:05Z</time>
      </trkpt>
      <trkpt lat="42.84695746" lon="13.60958176">
        <ele>123.00000</ele>
        <time>2024-03-21T12:03:06Z</time>
      </trkpt>
      <trkpt lat="42.84697598" lon="13.60948914">
        <ele>123.00000</ele>
        <time>2024-03-21T12:03:07Z</time>
      </trkpt>
      <trkpt lat="42.84699769" lon="13.60939309">
        <ele>123.00000</ele>
        <time>2024-03-21T12:03:08Z</time>
      </trkpt>
      <trkpt lat="42.84701479" lon="13.60929678">
        <ele>123.00000</ele>
        <time>2024-03-21T12:03:09Z</time>
      </trkpt>
      <trkpt lat="42.84703063" lon="13.60919871">
        <ele>123.00000</ele>
        <time>2024-03-21T12:03:10Z</time>
      </trkpt>
      <trkpt lat="42.84704807" lon="13.60910156">
        <ele>123.00000</ele>
        <time>2024-03-21T12:03:11Z</time>
      </trkpt>
      <trkpt lat="42.84706483" lon="13.60900215">
        <ele>122.00000</ele>
        <time>2024-03-21T12:03:12Z</time>
      </trkpt>
      <trkpt lat="42.84708537" lon="13.60890727">
        <ele>122.00000</ele>
        <time>2024-03-21T12:03:13Z</time>
      </trkpt>
      <trkpt lat="42.84711504" lon="13.60881859">
        <ele>122.00000</ele>
        <time>2024-03-21T12:03:14Z</time>
      </trkpt>
      <trkpt lat="42.84714396" lon="13.60872547">
        <ele>122.00000</ele>
        <time>2024-03-21T12:03:15Z</time>
      </trkpt>
      <trkpt lat="42.84717254" lon="13.60862388">
        <ele>122.00000</ele>
        <time>2024-03-21T12:03:16Z</time>
      </trkpt>
      <trkpt lat="42.84720053" lon="13.60851852">
        <ele>122.00000</ele>
        <time>2024-03-21T12:03:17Z</time>
      </trkpt>
      <trkpt lat="42.84722652" lon="13.60841710">
        <ele>121.00000</ele>
        <time>2024-03-21T12:03:18Z</time>
      </trkpt>
      <trkpt lat="42.84725451" lon="13.60831961">
        <ele>121.00000</ele>
        <time>2024-03-21T12:03:19Z</time>
      </trkpt>
      <trkpt lat="42.84728184" lon="13.60822389">
        <ele>121.00000</ele>
        <time>2024-03-21T12:03:20Z</time>
      </trkpt>
      <trkpt lat="42.84731084" lon="13.60812784">
        <ele>121.00000</ele>
        <time>2024-03-21T12:03:21Z</time>
      </trkpt>
      <trkpt lat="42.84733741" lon="13.60802885">
        <ele>121.00000</ele>
        <time>2024-03-21T12:03:22Z</time>
      </trkpt>
      <trkpt lat="42.84736038" lon="13.60792969">
        <ele>121.00000</ele>
        <time>2024-03-21T12:03:23Z</time>
      </trkpt>
      <trkpt lat="42.84738326" lon="13.60783237">
        <ele>121.00000</ele>
        <time>2024-03-21T12:03:24Z</time>
      </trkpt>
      <trkpt lat="42.84741067" lon="13.60773447">
        <ele>121.00000</ele>
        <time>2024-03-21T12:03:25Z</time>
      </trkpt>
      <trkpt lat="42.84744478" lon="13.60761956">
        <ele>121.00000</ele>
        <time>2024-03-21T12:03:26Z</time>
      </trkpt>
      <trkpt lat="42.84749038" lon="13.60744480">
        <ele>122.00000</ele>
        <time>2024-03-21T12:03:28Z</time>
      </trkpt>
      <trkpt lat="42.84751947" lon="13.60734807">
        <ele>122.00000</ele>
        <time>2024-03-21T12:03:29Z</time>
      </trkpt>
      <trkpt lat="42.84755157" lon="13.60724950">
        <ele>122.00000</ele>
        <time>2024-03-21T12:03:30Z</time>
      </trkpt>
      <trkpt lat="42.84758644" lon="13.60715017">
        <ele>123.00000</ele>
        <time>2024-03-21T12:03:31Z</time>
      </trkpt>
      <trkpt lat="42.84762072" lon="13.60705043">
        <ele>123.00000</ele>
        <time>2024-03-21T12:03:32Z</time>
      </trkpt>
      <trkpt lat="42.84765785" lon="13.60695479">
        <ele>123.00000</ele>
        <time>2024-03-21T12:03:33Z</time>
      </trkpt>
      <trkpt lat="42.84769582" lon="13.60686125">
        <ele>123.00000</ele>
        <time>2024-03-21T12:03:34Z</time>
      </trkpt>
      <trkpt lat="42.84773429" lon="13.60676494">
        <ele>123.00000</ele>
        <time>2024-03-21T12:03:35Z</time>
      </trkpt>
      <trkpt lat="42.84777402" lon="13.60666796">
        <ele>123.00000</ele>
        <time>2024-03-21T12:03:36Z</time>
      </trkpt>
      <trkpt lat="42.84781551" lon="13.60656947">
        <ele>124.00000</ele>
        <time>2024-03-21T12:03:37Z</time>
      </trkpt>
      <trkpt lat="42.84785918" lon="13.60647124">
        <ele>124.00000</ele>
        <time>2024-03-21T12:03:38Z</time>
      </trkpt>
      <trkpt lat="42.84790285" lon="13.60637367">
        <ele>124.00000</ele>
        <time>2024-03-21T12:03:39Z</time>
      </trkpt>
      <trkpt lat="42.84794703" lon="13.60627686">
        <ele>124.00000</ele>
        <time>2024-03-21T12:03:40Z</time>
      </trkpt>
      <trkpt lat="42.84798935" lon="13.60617980">
        <ele>124.00000</ele>
        <time>2024-03-21T12:03:41Z</time>
      </trkpt>
      <trkpt lat="42.84803026" lon="13.60608223">
        <ele>125.00000</ele>
        <time>2024-03-21T12:03:42Z</time>
      </trkpt>
      <trkpt lat="42.84807192" lon="13.60598299">
        <ele>125.00000</ele>
        <time>2024-03-21T12:03:43Z</time>
      </trkpt>
      <trkpt lat="42.84811542" lon="13.60588484">
        <ele>125.00000</ele>
        <time>2024-03-21T12:03:44Z</time>
      </trkpt>
      <trkpt lat="42.84815867" lon="13.60578719">
        <ele>125.00000</ele>
        <time>2024-03-21T12:03:45Z</time>
      </trkpt>
      <trkpt lat="42.84820192" lon="13.60569013">
        <ele>124.00000</ele>
        <time>2024-03-21T12:03:46Z</time>
      </trkpt>
      <trkpt lat="42.84824450" lon="13.60559407">
        <ele>124.00000</ele>
        <time>2024-03-21T12:03:47Z</time>
      </trkpt>
      <trkpt lat="42.84828850" lon="13.60549558">
        <ele>124.00000</ele>
        <time>2024-03-21T12:03:48Z</time>
      </trkpt>
      <trkpt lat="42.84833159" lon="13.60539710">
        <ele>124.00000</ele>
        <time>2024-03-21T12:03:49Z</time>
      </trkpt>
      <trkpt lat="42.84837308" lon="13.60529811">
        <ele>123.00000</ele>
        <time>2024-03-21T12:03:50Z</time>
      </trkpt>
      <trkpt lat="42.84841407" lon="13.60519945">
        <ele>124.00000</ele>
        <time>2024-03-21T12:03:51Z</time>
      </trkpt>
      <trkpt lat="42.84845162" lon="13.60509845">
        <ele>124.00000</ele>
        <time>2024-03-21T12:03:52Z</time>
      </trkpt>
      <trkpt lat="42.84848188" lon="13.60499233">
        <ele>125.00000</ele>
        <time>2024-03-21T12:03:53Z</time>
      </trkpt>
      <trkpt lat="42.84850711" lon="13.60488412">
        <ele>125.00000</ele>
        <time>2024-03-21T12:03:54Z</time>
      </trkpt>
      <trkpt lat="42.84853284" lon="13.60477776">
        <ele>125.00000</ele>
        <time>2024-03-21T12:03:55Z</time>
      </trkpt>
      <trkpt lat="42.84855907" lon="13.60464918">
        <ele>126.00000</ele>
        <time>2024-03-21T12:03:56Z</time>
      </trkpt>
      <trkpt lat="42.84857827" lon="13.60453837">
        <ele>126.00000</ele>
        <time>2024-03-21T12:03:57Z</time>
      </trkpt>
      <trkpt lat="42.84859595" lon="13.60442748">
        <ele>127.00000</ele>
        <time>2024-03-21T12:03:58Z</time>
      </trkpt>
      <trkpt lat="42.84861037" lon="13.60433603">
        <ele>127.00000</ele>
        <time>2024-03-21T12:03:59Z</time>
      </trkpt>
      <trkpt lat="42.84863208" lon="13.60419915">
        <ele>127.00000</ele>
        <time>2024-03-21T12:04:00Z</time>
      </trkpt>
      <trkpt lat="42.84864993" lon="13.60408793">
        <ele>127.00000</ele>
        <time>2024-03-21T12:04:01Z</time>
      </trkpt>
      <trkpt lat="42.84866929" lon="13.60397720">
        <ele>127.00000</ele>
        <time>2024-03-21T12:04:02Z</time>
      </trkpt>
      <trkpt lat="42.84868866" lon="13.60386782">
        <ele>127.00000</ele>
        <time>2024-03-21T12:04:03Z</time>
      </trkpt>
      <trkpt lat="42.84870374" lon="13.60377972">
        <ele>127.00000</ele>
        <time>2024-03-21T12:04:04Z</time>
      </trkpt>
      <trkpt lat="42.84872403" lon="13.60367068">
        <ele>127.00000</ele>
        <time>2024-03-21T12:04:05Z</time>
      </trkpt>
      <trkpt lat="42.84874557" lon="13.60356062">
        <ele>127.00000</ele>
        <time>2024-03-21T12:04:06Z</time>
      </trkpt>
      <trkpt lat="42.84876703" lon="13.60345023">
        <ele>127.00000</ele>
        <time>2024-03-21T12:04:07Z</time>
      </trkpt>
      <trkpt lat="42.84878907" lon="13.60334102">
        <ele>127.00000</ele>
        <time>2024-03-21T12:04:08Z</time>
      </trkpt>
      <trkpt lat="42.84881036" lon="13.60323498">
        <ele>127.00000</ele>
        <time>2024-03-21T12:04:09Z</time>
      </trkpt>
      <trkpt lat="42.84883040" lon="13.60312920">
        <ele>127.00000</ele>
        <time>2024-03-21T12:04:10Z</time>
      </trkpt>
      <trkpt lat="42.84885060" lon="13.60302460">
        <ele>127.00000</ele>
        <time>2024-03-21T12:04:11Z</time>
      </trkpt>
      <trkpt lat="42.84887054" lon="13.60292033">
        <ele>127.00000</ele>
        <time>2024-03-21T12:04:12Z</time>
      </trkpt>
      <trkpt lat="42.84889074" lon="13.60281874">
        <ele>127.00000</ele>
        <time>2024-03-21T12:04:13Z</time>
      </trkpt>
      <trkpt lat="42.84891195" lon="13.60271321">
        <ele>127.00000</ele>
        <time>2024-03-21T12:04:14Z</time>
      </trkpt>
      <trkpt lat="42.84893877" lon="13.60258639">
        <ele>127.00000</ele>
        <time>2024-03-21T12:04:15Z</time>
      </trkpt>
      <trkpt lat="42.84895772" lon="13.60249939">
        <ele>127.00000</ele>
        <time>2024-03-21T12:04:16Z</time>
      </trkpt>
      <trkpt lat="42.84898512" lon="13.60237232">
        <ele>127.00000</ele>
        <time>2024-03-21T12:04:17Z</time>
      </trkpt>
      <trkpt lat="42.84902058" lon="13.60217778">
        <ele>127.00000</ele>
        <time>2024-03-21T12:04:19Z</time>
      </trkpt>
      <trkpt lat="42.84904573" lon="13.60204417">
        <ele>127.00000</ele>
        <time>2024-03-21T12:04:20Z</time>
      </trkpt>
      <trkpt lat="42.84906433" lon="13.60195121">
        <ele>127.00000</ele>
        <time>2024-03-21T12:04:21Z</time>
      </trkpt>
      <trkpt lat="42.84909233" lon="13.60180973">
        <ele>126.00000</ele>
        <time>2024-03-21T12:04:22Z</time>
      </trkpt>
      <trkpt lat="42.84911655" lon="13.60169204">
        <ele>126.00000</ele>
        <time>2024-03-21T12:04:23Z</time>
      </trkpt>
      <trkpt lat="42.84913416" lon="13.60159867">
        <ele>125.00000</ele>
        <time>2024-03-21T12:04:24Z</time>
      </trkpt>
      <trkpt lat="42.84916190" lon="13.60146188">
        <ele>125.00000</ele>
        <time>2024-03-21T12:04:25Z</time>
      </trkpt>
      <trkpt lat="42.84918705" lon="13.60134931">
        <ele>126.00000</ele>
        <time>2024-03-21T12:04:26Z</time>
      </trkpt>
      <trkpt lat="42.84921412" lon="13.60123858">
        <ele>126.00000</ele>
        <time>2024-03-21T12:04:27Z</time>
      </trkpt>
      <trkpt lat="42.84924262" lon="13.60113088">
        <ele>126.00000</ele>
        <time>2024-03-21T12:04:28Z</time>
      </trkpt>
      <trkpt lat="42.84927187" lon="13.60102560">
        <ele>127.00000</ele>
        <time>2024-03-21T12:04:29Z</time>
      </trkpt>
      <trkpt lat="42.84930255" lon="13.60092317">
        <ele>127.00000</ele>
        <time>2024-03-21T12:04:30Z</time>
      </trkpt>
      <trkpt lat="42.84933323" lon="13.60082393">
        <ele>128.00000</ele>
        <time>2024-03-21T12:04:31Z</time>
      </trkpt>
      <trkpt lat="42.84935921" lon="13.60072502">
        <ele>128.00000</ele>
        <time>2024-03-21T12:04:32Z</time>
      </trkpt>
      <trkpt lat="42.84937958" lon="13.60062737">
        <ele>128.00000</ele>
        <time>2024-03-21T12:04:33Z</time>
      </trkpt>
      <trkpt lat="42.84940271" lon="13.60052805">
        <ele>128.00000</ele>
        <time>2024-03-21T12:04:34Z</time>
      </trkpt>
      <trkpt lat="42.84942660" lon="13.60042990">
        <ele>128.00000</ele>
        <time>2024-03-21T12:04:35Z</time>
      </trkpt>
      <trkpt lat="42.84945024" lon="13.60033527">
        <ele>128.00000</ele>
        <time>2024-03-21T12:04:36Z</time>
      </trkpt>
      <trkpt lat="42.84946759" lon="13.60025857">
        <ele>128.00000</ele>
        <time>2024-03-21T12:04:37Z</time>
      </trkpt>
      <trkpt lat="42.84949097" lon="13.60016469">
        <ele>128.00000</ele>
        <time>2024-03-21T12:04:38Z</time>
      </trkpt>
      <trkpt lat="42.84951620" lon="13.60005271">
        <ele>128.00000</ele>
        <time>2024-03-21T12:04:39Z</time>
      </trkpt>
      <trkpt lat="42.84953984" lon="13.59996311">
        <ele>128.00000</ele>
        <time>2024-03-21T12:04:40Z</time>
      </trkpt>
      <trkpt lat="42.84956339" lon="13.59987476">
        <ele>128.00000</ele>
        <time>2024-03-21T12:04:41Z</time>
      </trkpt>
      <trkpt lat="42.84958728" lon="13.59978818">
        <ele>128.00000</ele>
        <time>2024-03-21T12:04:42Z</time>
      </trkpt>
      <trkpt lat="42.84961435" lon="13.59970453">
        <ele>128.00000</ele>
        <time>2024-03-21T12:04:43Z</time>
      </trkpt>
      <trkpt lat="42.84964562" lon="13.59961979">
        <ele>129.00000</ele>
        <time>2024-03-21T12:04:44Z</time>
      </trkpt>
      <trkpt lat="42.84967923" lon="13.59953940">
        <ele>129.00000</ele>
        <time>2024-03-21T12:04:45Z</time>
      </trkpt>
      <trkpt lat="42.84971670" lon="13.59946028">
        <ele>129.00000</ele>
        <time>2024-03-21T12:04:46Z</time>
      </trkpt>
      <trkpt lat="42.84974897" lon="13.59939909">
        <ele>130.00000</ele>
        <time>2024-03-21T12:04:47Z</time>
      </trkpt>
      <trkpt lat="42.84979616" lon="13.59931133">
        <ele>130.00000</ele>
        <time>2024-03-21T12:04:48Z</time>
      </trkpt>
      <trkpt lat="42.84983731" lon="13.59923740">
        <ele>130.00000</ele>
        <time>2024-03-21T12:04:49Z</time>
      </trkpt>
      <trkpt lat="42.84987042" lon="13.59917764">
        <ele>130.00000</ele>
        <time>2024-03-21T12:04:50Z</time>
      </trkpt>
      <trkpt lat="42.84991770" lon="13.59908862">
        <ele>130.00000</ele>
        <time>2024-03-21T12:04:51Z</time>
      </trkpt>
      <trkpt lat="42.84995516" lon="13.59901403">
        <ele>131.00000</ele>
        <time>2024-03-21T12:04:52Z</time>
      </trkpt>
      <trkpt lat="42.84999271" lon="13.59894010">
        <ele>131.00000</ele>
        <time>2024-03-21T12:04:53Z</time>
      </trkpt>
      <trkpt lat="42.85002934" lon="13.59886793">
        <ele>132.00000</ele>
        <time>2024-03-21T12:04:54Z</time>
      </trkpt>
      <trkpt lat="42.85005742" lon="13.59880850">
        <ele>132.00000</ele>
        <time>2024-03-21T12:04:55Z</time>
      </trkpt>
      <trkpt lat="42.85009648" lon="13.59872351">
        <ele>133.00000</ele>
        <time>2024-03-21T12:04:56Z</time>
      </trkpt>
      <trkpt lat="42.85012649" lon="13.59865880">
        <ele>133.00000</ele>
        <time>2024-03-21T12:04:57Z</time>
      </trkpt>
      <trkpt lat="42.85015448" lon="13.59859862">
        <ele>134.00000</ele>
        <time>2024-03-21T12:04:58Z</time>
      </trkpt>
      <trkpt lat="42.85017435" lon="13.59855017">
        <ele>134.00000</ele>
        <time>2024-03-21T12:04:59Z</time>
      </trkpt>
      <trkpt lat="42.85019748" lon="13.59848454">
        <ele>134.00000</ele>
        <time>2024-03-21T12:05:00Z</time>
      </trkpt>
      <trkpt lat="42.85022079" lon="13.59841631">
        <ele>134.00000</ele>
        <time>2024-03-21T12:05:01Z</time>
      </trkpt>
      <trkpt lat="42.85024702" lon="13.59832906">
        <ele>135.00000</ele>
        <time>2024-03-21T12:05:02Z</time>
      </trkpt>
      <trkpt lat="42.85026923" lon="13.59825463">
        <ele>135.00000</ele>
        <time>2024-03-21T12:05:03Z</time>
      </trkpt>
      <trkpt lat="42.85029396" lon="13.59817936">
        <ele>135.00000</ele>
        <time>2024-03-21T12:05:04Z</time>
      </trkpt>
      <trkpt lat="42.85031567" lon="13.59812068">
        <ele>135.00000</ele>
        <time>2024-03-21T12:05:05Z</time>
      </trkpt>
      <trkpt lat="42.85034609" lon="13.59803133">
        <ele>135.00000</ele>
        <time>2024-03-21T12:05:06Z</time>
      </trkpt>
      <trkpt lat="42.85036806" lon="13.59795522">
        <ele>135.00000</ele>
        <time>2024-03-21T12:05:07Z</time>
      </trkpt>
      <trkpt lat="42.85039094" lon="13.59787895">
        <ele>135.00000</ele>
        <time>2024-03-21T12:05:08Z</time>
      </trkpt>
      <trkpt lat="42.85040862" lon="13.59781835">
        <ele>135.00000</ele>
        <time>2024-03-21T12:05:09Z</time>
      </trkpt>
      <trkpt lat="42.85043578" lon="13.59772942">
        <ele>136.00000</ele>
        <time>2024-03-21T12:05:10Z</time>
      </trkpt>
      <trkpt lat="42.85046193" lon="13.59765515">
        <ele>136.00000</ele>
        <time>2024-03-21T12:05:11Z</time>
      </trkpt>
      <trkpt lat="42.85048951" lon="13.59757603">
        <ele>137.00000</ele>
        <time>2024-03-21T12:05:12Z</time>
      </trkpt>
      <trkpt lat="42.85051868" lon="13.59749061">
        <ele>137.00000</ele>
        <time>2024-03-21T12:05:13Z</time>
      </trkpt>
      <trkpt lat="42.85057039" lon="13.59731149">
        <ele>138.00000</ele>
        <time>2024-03-21T12:05:15Z</time>
      </trkpt>
      <trkpt lat="42.85067450" lon="13.59697085">
        <ele>139.00000</ele>
        <time>2024-03-21T12:05:19Z</time>
      </trkpt>
      <trkpt lat="42.85074876" lon="13.59673809">
        <ele>140.00000</ele>
        <time>2024-03-21T12:05:22Z</time>
      </trkpt>
      <trkpt lat="42.85076997" lon="13.59665410">
        <ele>140.00000</ele>
        <time>2024-03-21T12:05:23Z</time>
      </trkpt>
      <trkpt lat="42.85081640" lon="13.59647188">
        <ele>140.00000</ele>
        <time>2024-03-21T12:05:25Z</time>
      </trkpt>
      <trkpt lat="42.85095403" lon="13.59575581">
        <ele>139.00000</ele>
        <time>2024-03-21T12:05:33Z</time>
      </trkpt>
      <trkpt lat="42.85106451" lon="13.59520906">
        <ele>140.00000</ele>
        <time>2024-03-21T12:05:39Z</time>
      </trkpt>
      <trkpt lat="42.85108404" lon="13.59511870">
        <ele>141.00000</ele>
        <time>2024-03-21T12:05:40Z</time>
      </trkpt>
      <trkpt lat="42.85117054" lon="13.59457195">
        <ele>143.00000</ele>
        <time>2024-03-21T12:05:46Z</time>
      </trkpt>
      <trkpt lat="42.85117976" lon="13.59447682">
        <ele>143.00000</ele>
        <time>2024-03-21T12:05:47Z</time>
      </trkpt>
      <trkpt lat="42.85121127" lon="13.59410097">
        <ele>145.00000</ele>
        <time>2024-03-21T12:05:51Z</time>
      </trkpt>
      <trkpt lat="42.85122586" lon="13.59382789">
        <ele>145.00000</ele>
        <time>2024-03-21T12:05:54Z</time>
      </trkpt>
      <trkpt lat="42.85122108" lon="13.59366025">
        <ele>145.00000</ele>
        <time>2024-03-21T12:05:56Z</time>
      </trkpt>
      <trkpt lat="42.85122678" lon="13.59357224">
        <ele>146.00000</ele>
        <time>2024-03-21T12:05:57Z</time>
      </trkpt>
      <trkpt lat="42.85122494" lon="13.59343444">
        <ele>146.00000</ele>
        <time>2024-03-21T12:05:59Z</time>
      </trkpt>
      <trkpt lat="42.85122360" lon="13.59336378">
        <ele>146.00000</ele>
        <time>2024-03-21T12:06:00Z</time>
      </trkpt>
      <trkpt lat="42.85131529" lon="13.59311744">
        <ele>147.00000</ele>
        <time>2024-03-21T12:06:03Z</time>
      </trkpt>
      <trkpt lat="42.85133969" lon="13.59294310">
        <ele>147.00000</ele>
        <time>2024-03-21T12:06:05Z</time>
      </trkpt>
      <trkpt lat="42.85136718" lon="13.59256055">
        <ele>149.00000</ele>
        <time>2024-03-21T12:06:10Z</time>
      </trkpt>
      <trkpt lat="42.85136584" lon="13.59238964">
        <ele>149.00000</ele>
        <time>2024-03-21T12:06:13Z</time>
      </trkpt>
      <trkpt lat="42.85135896" lon="13.59234874">
        <ele>149.00000</ele>
        <time>2024-03-21T12:06:15Z</time>
      </trkpt>
      <trkpt lat="42.85136408" lon="13.59232225">
        <ele>149.00000</ele>
        <time>2024-03-21T12:06:16Z</time>
      </trkpt>
      <trkpt lat="42.85137430" lon="13.59231722">
        <ele>149.00000</ele>
        <time>2024-03-21T12:06:17Z</time>
      </trkpt>
      <trkpt lat="42.85139777" lon="13.59228998">
        <ele>149.00000</ele>
        <time>2024-03-21T12:06:19Z</time>
      </trkpt>
      <trkpt lat="42.85140087" lon="13.59227171">
        <ele>149.00000</ele>
        <time>2024-03-21T12:06:20Z</time>
      </trkpt>
      <trkpt lat="42.85140456" lon="13.59225478">
        <ele>149.00000</ele>
        <time>2024-03-21T12:06:21Z</time>
      </trkpt>
      <trkpt lat="42.85140657" lon="13.59224178">
        <ele>149.00000</ele>
        <time>2024-03-21T12:06:22Z</time>
      </trkpt>
      <trkpt lat="42.85140758" lon="13.59223206">
        <ele>149.00000</ele>
        <time>2024-03-21T12:06:23Z</time>
      </trkpt>
      <trkpt lat="42.85143247" lon="13.59206032">
        <ele>150.00000</ele>
        <time>2024-03-21T12:06:47Z</time>
      </trkpt>
      <trkpt lat="42.85143616" lon="13.59197138">
        <ele>150.00000</ele>
        <time>2024-03-21T12:06:48Z</time>
      </trkpt>
      <trkpt lat="42.85144463" lon="13.59191221">
        <ele>151.00000</ele>
        <time>2024-03-21T12:06:49Z</time>
      </trkpt>
      <trkpt lat="42.85145762" lon="13.59175781">
        <ele>152.00000</ele>
        <time>2024-03-21T12:06:51Z</time>
      </trkpt>
      <trkpt lat="42.85145485" lon="13.59166637">
        <ele>152.00000</ele>
        <time>2024-03-21T12:06:52Z</time>
      </trkpt>
      <trkpt lat="42.85145016" lon="13.59158825">
        <ele>153.00000</ele>
        <time>2024-03-21T12:06:53Z</time>
      </trkpt>
      <trkpt lat="42.85144345" lon="13.59152153">
        <ele>153.00000</ele>
        <time>2024-03-21T12:06:54Z</time>
      </trkpt>
      <trkpt lat="42.85144396" lon="13.59143595">
        <ele>153.00000</ele>
        <time>2024-03-21T12:06:55Z</time>
      </trkpt>
      <trkpt lat="42.85144354" lon="13.59132640">
        <ele>154.00000</ele>
        <time>2024-03-21T12:06:56Z</time>
      </trkpt>
      <trkpt lat="42.85144857" lon="13.59123243">
        <ele>154.00000</ele>
        <time>2024-03-21T12:06:57Z</time>
      </trkpt>
      <trkpt lat="42.85144521" lon="13.59115876">
        <ele>155.00000</ele>
        <time>2024-03-21T12:06:58Z</time>
      </trkpt>
      <trkpt lat="42.85143557" lon="13.59106304">
        <ele>155.00000</ele>
        <time>2024-03-21T12:06:59Z</time>
      </trkpt>
      <trkpt lat="42.85145846" lon="13.59095499">
        <ele>155.00000</ele>
        <time>2024-03-21T12:07:00Z</time>
      </trkpt>
      <trkpt lat="42.85149198" lon="13.59086723">
        <ele>155.00000</ele>
        <time>2024-03-21T12:07:01Z</time>
      </trkpt>
      <trkpt lat="42.85151688" lon="13.59079088">
        <ele>155.00000</ele>
        <time>2024-03-21T12:07:02Z</time>
      </trkpt>
      <trkpt lat="42.85154244" lon="13.59069373">
        <ele>155.00000</ele>
        <time>2024-03-21T12:07:03Z</time>
      </trkpt>
      <trkpt lat="42.85155946" lon="13.59060077">
        <ele>155.00000</ele>
        <time>2024-03-21T12:07:04Z</time>
      </trkpt>
      <trkpt lat="42.85158209" lon="13.59049072">
        <ele>155.00000</ele>
        <time>2024-03-21T12:07:05Z</time>
      </trkpt>
      <trkpt lat="42.85159483" lon="13.59039550">
        <ele>154.00000</ele>
        <time>2024-03-21T12:07:06Z</time>
      </trkpt>
      <trkpt lat="42.85160145" lon="13.59032350">
        <ele>154.00000</ele>
        <time>2024-03-21T12:07:07Z</time>
      </trkpt>
      <trkpt lat="42.85161386" lon="13.59023767">
        <ele>154.00000</ele>
        <time>2024-03-21T12:07:08Z</time>
      </trkpt>
      <trkpt lat="42.85162350" lon="13.59015343">
        <ele>153.00000</ele>
        <time>2024-03-21T12:07:09Z</time>
      </trkpt>
      <trkpt lat="42.85162911" lon="13.59005184">
        <ele>153.00000</ele>
        <time>2024-03-21T12:07:10Z</time>
      </trkpt>
      <trkpt lat="42.85163490" lon="13.58996509">
        <ele>153.00000</ele>
        <time>2024-03-21T12:07:11Z</time>
      </trkpt>
      <trkpt lat="42.85163473" lon="13.58989317">
        <ele>153.00000</ele>
        <time>2024-03-21T12:07:12Z</time>
      </trkpt>
      <trkpt lat="42.85163314" lon="13.58980223">
        <ele>153.00000</ele>
        <time>2024-03-21T12:07:13Z</time>
      </trkpt>
      <trkpt lat="42.85163179" lon="13.58971171">
        <ele>154.00000</ele>
        <time>2024-03-21T12:07:14Z</time>
      </trkpt>
      <trkpt lat="42.85162559" lon="13.58961749">
        <ele>154.00000</ele>
        <time>2024-03-21T12:07:15Z</time>
      </trkpt>
      <trkpt lat="42.85164755" lon="13.58952655">
        <ele>154.00000</ele>
        <time>2024-03-21T12:07:16Z</time>
      </trkpt>
      <trkpt lat="42.85167429" lon="13.58943435">
        <ele>154.00000</ele>
        <time>2024-03-21T12:07:17Z</time>
      </trkpt>
      <trkpt lat="42.85170413" lon="13.58934483">
        <ele>154.00000</ele>
        <time>2024-03-21T12:07:18Z</time>
      </trkpt>
      <trkpt lat="42.85172726" lon="13.58924500">
        <ele>154.00000</ele>
        <time>2024-03-21T12:07:19Z</time>
      </trkpt>
      <trkpt lat="42.85174520" lon="13.58916160">
        <ele>154.00000</ele>
        <time>2024-03-21T12:07:20Z</time>
      </trkpt>
      <trkpt lat="42.85176004" lon="13.58909094">
        <ele>154.00000</ele>
        <time>2024-03-21T12:07:21Z</time>
      </trkpt>
      <trkpt lat="42.85177999" lon="13.58900151">
        <ele>154.00000</ele>
        <time>2024-03-21T12:07:22Z</time>
      </trkpt>
      <trkpt lat="42.85180404" lon="13.58889497">
        <ele>154.00000</ele>
        <time>2024-03-21T12:07:23Z</time>
      </trkpt>
      <trkpt lat="42.85182475" lon="13.58880395">
        <ele>153.00000</ele>
        <time>2024-03-21T12:07:24Z</time>
      </trkpt>
      <trkpt lat="42.85184243" lon="13.58872985">
        <ele>153.00000</ele>
        <time>2024-03-21T12:07:25Z</time>
      </trkpt>
      <trkpt lat="42.85186439" lon="13.58863983">
        <ele>152.00000</ele>
        <time>2024-03-21T12:07:26Z</time>
      </trkpt>
      <trkpt lat="42.85189390" lon="13.58853388">
        <ele>151.00000</ele>
        <time>2024-03-21T12:07:27Z</time>
      </trkpt>
      <trkpt lat="42.85192348" lon="13.58844822">
        <ele>151.00000</ele>
        <time>2024-03-21T12:07:28Z</time>
      </trkpt>
      <trkpt lat="42.85195861" lon="13.58836616">
        <ele>151.00000</ele>
        <time>2024-03-21T12:07:29Z</time>
      </trkpt>
      <trkpt lat="42.85199331" lon="13.58830204">
        <ele>151.00000</ele>
        <time>2024-03-21T12:07:30Z</time>
      </trkpt>
      <trkpt lat="42.85204687" lon="13.58823389">
        <ele>151.00000</ele>
        <time>2024-03-21T12:07:31Z</time>
      </trkpt>
      <trkpt lat="42.85211744" lon="13.58817622">
        <ele>151.00000</ele>
        <time>2024-03-21T12:07:32Z</time>
      </trkpt>
      <trkpt lat="42.85218341" lon="13.58814991">
        <ele>151.00000</ele>
        <time>2024-03-21T12:07:33Z</time>
      </trkpt>
      <trkpt lat="42.85225776" lon="13.58813784">
        <ele>151.00000</ele>
        <time>2024-03-21T12:07:34Z</time>
      </trkpt>
      <trkpt lat="42.85231869" lon="13.58813297">
        <ele>151.00000</ele>
        <time>2024-03-21T12:07:35Z</time>
      </trkpt>
      <trkpt lat="42.85240720" lon="13.58812183">
        <ele>152.00000</ele>
        <time>2024-03-21T12:07:36Z</time>
      </trkpt>
      <trkpt lat="42.85246378" lon="13.58811344">
        <ele>152.00000</ele>
        <time>2024-03-21T12:07:37Z</time>
      </trkpt>
      <trkpt lat="42.85255858" lon="13.58810758">
        <ele>153.00000</ele>
        <time>2024-03-21T12:07:38Z</time>
      </trkpt>
      <trkpt lat="42.85262153" lon="13.58810691">
        <ele>153.00000</ele>
        <time>2024-03-21T12:07:39Z</time>
      </trkpt>
      <trkpt lat="42.85270233" lon="13.58810984">
        <ele>153.00000</ele>
        <time>2024-03-21T12:07:40Z</time>
      </trkpt>
      <trkpt lat="42.85279688" lon="13.58810624">
        <ele>154.00000</ele>
        <time>2024-03-21T12:07:41Z</time>
      </trkpt>
      <trkpt lat="42.85288061" lon="13.58810163">
        <ele>154.00000</ele>
        <time>2024-03-21T12:07:42Z</time>
      </trkpt>
      <trkpt lat="42.85296234" lon="13.58809534">
        <ele>154.00000</ele>
        <time>2024-03-21T12:07:43Z</time>
      </trkpt>
      <trkpt lat="42.85304356" lon="13.58809291">
        <ele>154.00000</ele>
        <time>2024-03-21T12:07:44Z</time>
      </trkpt>
      <trkpt lat="42.85312470" lon="13.58809014">
        <ele>154.00000</ele>
        <time>2024-03-21T12:07:45Z</time>
      </trkpt>
      <trkpt lat="42.85319879" lon="13.58808604">
        <ele>154.00000</ele>
        <time>2024-03-21T12:07:46Z</time>
      </trkpt>
      <trkpt lat="42.85327758" lon="13.58808235">
        <ele>154.00000</ele>
        <time>2024-03-21T12:07:47Z</time>
      </trkpt>
      <trkpt lat="42.85335629" lon="13.58807112">
        <ele>153.00000</ele>
        <time>2024-03-21T12:07:48Z</time>
      </trkpt>
      <trkpt lat="42.85343365" lon="13.58806592">
        <ele>152.00000</ele>
        <time>2024-03-21T12:07:49Z</time>
      </trkpt>
      <trkpt lat="42.85349618" lon="13.58806852">
        <ele>152.00000</ele>
        <time>2024-03-21T12:07:50Z</time>
      </trkpt>
      <trkpt lat="42.85357346" lon="13.58807003">
        <ele>151.00000</ele>
        <time>2024-03-21T12:07:51Z</time>
      </trkpt>
      <trkpt lat="42.85366340" lon="13.58806877">
        <ele>150.00000</ele>
        <time>2024-03-21T12:07:52Z</time>
      </trkpt>
      <trkpt lat="42.85371880" lon="13.58807120">
        <ele>150.00000</ele>
        <time>2024-03-21T12:07:53Z</time>
      </trkpt>
      <trkpt lat="42.85379399" lon="13.58806919">
        <ele>149.00000</ele>
        <time>2024-03-21T12:07:54Z</time>
      </trkpt>
      <trkpt lat="42.85384713" lon="13.58807153">
        <ele>149.00000</ele>
        <time>2024-03-21T12:07:55Z</time>
      </trkpt>
      <trkpt lat="42.85388938" lon="13.58808101">
        <ele>149.00000</ele>
        <time>2024-03-21T12:07:56Z</time>
      </trkpt>
      <trkpt lat="42.85393673" lon="13.58809643">
        <ele>149.00000</ele>
        <time>2024-03-21T12:07:57Z</time>
      </trkpt>
      <trkpt lat="42.85397714" lon="13.58812157">
        <ele>148.00000</ele>
        <time>2024-03-21T12:07:58Z</time>
      </trkpt>
      <trkpt lat="42.85401284" lon="13.58815569">
        <ele>149.00000</ele>
        <time>2024-03-21T12:07:59Z</time>
      </trkpt>
      <trkpt lat="42.85404738" lon="13.58818997">
        <ele>149.00000</ele>
        <time>2024-03-21T12:08:00Z</time>
      </trkpt>
      <trkpt lat="42.85410102" lon="13.58821637">
        <ele>149.00000</ele>
        <time>2024-03-21T12:08:01Z</time>
      </trkpt>
      <trkpt lat="42.85414494" lon="13.58821109">
        <ele>149.00000</ele>
        <time>2024-03-21T12:08:02Z</time>
      </trkpt>
      <trkpt lat="42.85419791" lon="13.58818704">
        <ele>149.00000</ele>
        <time>2024-03-21T12:08:03Z</time>
      </trkpt>
      <trkpt lat="42.85423865" lon="13.58815100">
        <ele>149.00000</ele>
        <time>2024-03-21T12:08:04Z</time>
      </trkpt>
      <trkpt lat="42.85426715" lon="13.58810557">
        <ele>149.00000</ele>
        <time>2024-03-21T12:08:05Z</time>
      </trkpt>
      <trkpt lat="42.85428433" lon="13.58803851">
        <ele>148.00000</ele>
        <time>2024-03-21T12:08:06Z</time>
      </trkpt>
      <trkpt lat="42.85427863" lon="13.58796659">
        <ele>148.00000</ele>
        <time>2024-03-21T12:08:07Z</time>
      </trkpt>
      <trkpt lat="42.85425575" lon="13.58789627">
        <ele>148.00000</ele>
        <time>2024-03-21T12:08:08Z</time>
      </trkpt>
      <trkpt lat="42.85422289" lon="13.58781153">
        <ele>148.00000</ele>
        <time>2024-03-21T12:08:09Z</time>
      </trkpt>
      <trkpt lat="42.85419339" lon="13.58774003">
        <ele>148.00000</ele>
        <time>2024-03-21T12:08:10Z</time>
      </trkpt>
      <trkpt lat="42.85416992" lon="13.58768044">
        <ele>148.00000</ele>
        <time>2024-03-21T12:08:11Z</time>
      </trkpt>
      <trkpt lat="42.85414888" lon="13.58760735">
        <ele>148.00000</ele>
        <time>2024-03-21T12:08:12Z</time>
      </trkpt>
      <trkpt lat="42.85413874" lon="13.58753300">
        <ele>149.00000</ele>
        <time>2024-03-21T12:08:13Z</time>
      </trkpt>
      <trkpt lat="42.85413128" lon="13.58745815">
        <ele>149.00000</ele>
        <time>2024-03-21T12:08:14Z</time>
      </trkpt>
      <trkpt lat="42.85412399" lon="13.58737986">
        <ele>150.00000</ele>
        <time>2024-03-21T12:08:15Z</time>
      </trkpt>
      <trkpt lat="42.85412080" lon="13.58729696">
        <ele>150.00000</ele>
        <time>2024-03-21T12:08:16Z</time>
      </trkpt>
      <trkpt lat="42.85411938" lon="13.58719982">
        <ele>151.00000</ele>
        <time>2024-03-21T12:08:17Z</time>
      </trkpt>
      <trkpt lat="42.85411686" lon="13.58711441">
        <ele>151.00000</ele>
        <time>2024-03-21T12:08:18Z</time>
      </trkpt>
      <trkpt lat="42.85411099" lon="13.58702732">
        <ele>151.00000</ele>
        <time>2024-03-21T12:08:19Z</time>
      </trkpt>
      <trkpt lat="42.85410177" lon="13.58694735">
        <ele>151.00000</ele>
        <time>2024-03-21T12:08:20Z</time>
      </trkpt>
      <trkpt lat="42.85409322" lon="13.58684727">
        <ele>149.00000</ele>
        <time>2024-03-21T12:08:21Z</time>
      </trkpt>
      <trkpt lat="42.85409180" lon="13.58673060">
        <ele>148.00000</ele>
        <time>2024-03-21T12:08:22Z</time>
      </trkpt>
      <trkpt lat="42.85409859" lon="13.58665709">
        <ele>147.00000</ele>
        <time>2024-03-21T12:08:23Z</time>
      </trkpt>
      <trkpt lat="42.85409557" lon="13.58656095">
        <ele>145.00000</ele>
        <time>2024-03-21T12:08:24Z</time>
      </trkpt>
      <trkpt lat="42.85409172" lon="13.58647176">
        <ele>143.00000</ele>
        <time>2024-03-21T12:08:25Z</time>
      </trkpt>
      <trkpt lat="42.85408786" lon="13.58638342">
        <ele>141.00000</ele>
        <time>2024-03-21T12:08:26Z</time>
      </trkpt>
      <trkpt lat="42.85408359" lon="13.58629927">
        <ele>140.00000</ele>
        <time>2024-03-21T12:08:27Z</time>
      </trkpt>
      <trkpt lat="42.85408090" lon="13.58620329">
        <ele>139.00000</ele>
        <time>2024-03-21T12:08:28Z</time>
      </trkpt>
      <trkpt lat="42.85408115" lon="13.58613858">
        <ele>138.00000</ele>
        <time>2024-03-21T12:08:29Z</time>
      </trkpt>
      <trkpt lat="42.85408057" lon="13.58605938">
        <ele>136.00000</ele>
        <time>2024-03-21T12:08:30Z</time>
      </trkpt>
      <trkpt lat="42.85407721" lon="13.58598352">
        <ele>135.00000</ele>
        <time>2024-03-21T12:08:31Z</time>
      </trkpt>
      <trkpt lat="42.85407730" lon="13.58590791">
        <ele>134.00000</ele>
        <time>2024-03-21T12:08:32Z</time>
      </trkpt>
      <trkpt lat="42.85407671" lon="13.58582971">
        <ele>132.00000</ele>
        <time>2024-03-21T12:08:33Z</time>
      </trkpt>
      <trkpt lat="42.85407135" lon="13.58574899">
        <ele>132.00000</ele>
        <time>2024-03-21T12:08:34Z</time>
      </trkpt>
      <trkpt lat="42.85406791" lon="13.58567046">
        <ele>131.00000</ele>
        <time>2024-03-21T12:08:35Z</time>
      </trkpt>
      <trkpt lat="42.85406246" lon="13.58557825">
        <ele>130.00000</ele>
        <time>2024-03-21T12:08:36Z</time>
      </trkpt>
      <trkpt lat="42.85405517" lon="13.58551983">
        <ele>131.00000</ele>
        <time>2024-03-21T12:08:37Z</time>
      </trkpt>
      <trkpt lat="42.85405006" lon="13.58545211">
        <ele>132.00000</ele>
        <time>2024-03-21T12:08:38Z</time>
      </trkpt>
      <trkpt lat="42.85404352" lon="13.58539033">
        <ele>133.00000</ele>
        <time>2024-03-21T12:08:39Z</time>
      </trkpt>
      <trkpt lat="42.85403380" lon="13.58532621">
        <ele>135.00000</ele>
        <time>2024-03-21T12:08:40Z</time>
      </trkpt>
      <trkpt lat="42.85402391" lon="13.58523099">
        <ele>138.00000</ele>
        <time>2024-03-21T12:08:41Z</time>
      </trkpt>
      <trkpt lat="42.85401913" lon="13.58514013">
        <ele>141.00000</ele>
        <time>2024-03-21T12:08:42Z</time>
      </trkpt>
      <trkpt lat="42.85401402" lon="13.58506302">
        <ele>144.00000</ele>
        <time>2024-03-21T12:08:43Z</time>
      </trkpt>
      <trkpt lat="42.85400966" lon="13.58496914">
        <ele>147.00000</ele>
        <time>2024-03-21T12:08:44Z</time>
      </trkpt>
      <trkpt lat="42.85400907" lon="13.58486412">
        <ele>150.00000</ele>
        <time>2024-03-21T12:08:45Z</time>
      </trkpt>
      <trkpt lat="42.85400848" lon="13.58477602">
        <ele>153.00000</ele>
        <time>2024-03-21T12:08:46Z</time>
      </trkpt>
      <trkpt lat="42.85400882" lon="13.58468508">
        <ele>155.00000</ele>
        <time>2024-03-21T12:08:47Z</time>
      </trkpt>
      <trkpt lat="42.85400840" lon="13.58460989">
        <ele>157.00000</ele>
        <time>2024-03-21T12:08:48Z</time>
      </trkpt>
      <trkpt lat="42.85400756" lon="13.58451635">
        <ele>159.00000</ele>
        <time>2024-03-21T12:08:49Z</time>
      </trkpt>
      <trkpt lat="42.85400681" lon="13.58440772">
        <ele>160.00000</ele>
        <time>2024-03-21T12:08:50Z</time>
      </trkpt>
      <trkpt lat="42.85400371" lon="13.58431971">
        <ele>160.00000</ele>
        <time>2024-03-21T12:08:51Z</time>
      </trkpt>
      <trkpt lat="42.85399625" lon="13.58423061">
        <ele>160.00000</ele>
        <time>2024-03-21T12:08:52Z</time>
      </trkpt>
      <trkpt lat="42.85398828" lon="13.58415761">
        <ele>159.00000</ele>
        <time>2024-03-21T12:08:53Z</time>
      </trkpt>
      <trkpt lat="42.85398049" lon="13.58406784">
        <ele>158.00000</ele>
        <time>2024-03-21T12:08:54Z</time>
      </trkpt>
      <trkpt lat="42.85397336" lon="13.58397513">
        <ele>157.00000</ele>
        <time>2024-03-21T12:08:55Z</time>
      </trkpt>
      <trkpt lat="42.85396532" lon="13.58385854">
        <ele>155.00000</ele>
        <time>2024-03-21T12:08:56Z</time>
      </trkpt>
      <trkpt lat="42.85395869" lon="13.58377757">
        <ele>154.00000</ele>
        <time>2024-03-21T12:08:57Z</time>
      </trkpt>
      <trkpt lat="42.85395408" lon="13.58367590">
        <ele>153.00000</ele>
        <time>2024-03-21T12:08:58Z</time>
      </trkpt>
      <trkpt lat="42.85394998" lon="13.58357397">
        <ele>152.00000</ele>
        <time>2024-03-21T12:08:59Z</time>
      </trkpt>
      <trkpt lat="42.85394009" lon="13.58344942">
        <ele>151.00000</ele>
        <time>2024-03-21T12:09:00Z</time>
      </trkpt>
      <trkpt lat="42.85393070" lon="13.58336753">
        <ele>150.00000</ele>
        <time>2024-03-21T12:09:01Z</time>
      </trkpt>
      <trkpt lat="42.85392425" lon="13.58327147">
        <ele>150.00000</ele>
        <time>2024-03-21T12:09:02Z</time>
      </trkpt>
      <trkpt lat="42.85391544" lon="13.58317592">
        <ele>150.00000</ele>
        <time>2024-03-21T12:09:03Z</time>
      </trkpt>
      <trkpt lat="42.85390421" lon="13.58308070">
        <ele>149.00000</ele>
        <time>2024-03-21T12:09:04Z</time>
      </trkpt>
      <trkpt lat="42.85389315" lon="13.58298690">
        <ele>149.00000</ele>
        <time>2024-03-21T12:09:05Z</time>
      </trkpt>
      <trkpt lat="42.85387638" lon="13.58287903">
        <ele>150.00000</ele>
        <time>2024-03-21T12:09:06Z</time>
      </trkpt>
      <trkpt lat="42.85389164" lon="13.58281139">
        <ele>149.00000</ele>
        <time>2024-03-21T12:09:07Z</time>
      </trkpt>
      <trkpt lat="42.85389868" lon="13.58270150">
        <ele>149.00000</ele>
        <time>2024-03-21T12:09:08Z</time>
      </trkpt>
      <trkpt lat="42.85391352" lon="13.58262950">
        <ele>149.00000</ele>
        <time>2024-03-21T12:09:09Z</time>
      </trkpt>
      <trkpt lat="42.85391494" lon="13.58253688">
        <ele>149.00000</ele>
        <time>2024-03-21T12:09:10Z</time>
      </trkpt>
      <trkpt lat="42.85391528" lon="13.58244527">
        <ele>150.00000</ele>
        <time>2024-03-21T12:09:11Z</time>
      </trkpt>
      <trkpt lat="42.85391561" lon="13.58235072">
        <ele>150.00000</ele>
        <time>2024-03-21T12:09:12Z</time>
      </trkpt>
      <trkpt lat="42.85391268" lon="13.58223379">
        <ele>151.00000</ele>
        <time>2024-03-21T12:09:13Z</time>
      </trkpt>
      <trkpt lat="42.85390664" lon="13.58213522">
        <ele>152.00000</ele>
        <time>2024-03-21T12:09:14Z</time>
      </trkpt>
      <trkpt lat="42.85390069" lon="13.58205836">
        <ele>153.00000</ele>
        <time>2024-03-21T12:09:15Z</time>
      </trkpt>
      <trkpt lat="42.85389449" lon="13.58197471">
        <ele>154.00000</ele>
        <time>2024-03-21T12:09:16Z</time>
      </trkpt>
      <trkpt lat="42.85389164" lon="13.58190790">
        <ele>155.00000</ele>
        <time>2024-03-21T12:09:17Z</time>
      </trkpt>
      <trkpt lat="42.85389147" lon="13.58183951">
        <ele>155.00000</ele>
        <time>2024-03-21T12:09:18Z</time>
      </trkpt>
      <trkpt lat="42.85388770" lon="13.58179500">
        <ele>156.00000</ele>
        <time>2024-03-21T12:09:19Z</time>
      </trkpt>
      <trkpt lat="42.85388401" lon="13.58174328">
        <ele>156.00000</ele>
        <time>2024-03-21T12:09:20Z</time>
      </trkpt>
      <trkpt lat="42.85388669" lon="13.58169551">
        <ele>156.00000</ele>
        <time>2024-03-21T12:09:21Z</time>
      </trkpt>
      <trkpt lat="42.85388720" lon="13.58163516">
        <ele>157.00000</ele>
        <time>2024-03-21T12:09:22Z</time>
      </trkpt>
      <trkpt lat="42.85387747" lon="13.58158067">
        <ele>157.00000</ele>
        <time>2024-03-21T12:09:23Z</time>
      </trkpt>
      <trkpt lat="42.85386146" lon="13.58152233">
        <ele>157.00000</ele>
        <time>2024-03-21T12:09:24Z</time>
      </trkpt>
      <trkpt lat="42.85385057" lon="13.58146668">
        <ele>158.00000</ele>
        <time>2024-03-21T12:09:25Z</time>
      </trkpt>
      <trkpt lat="42.85384420" lon="13.58138873">
        <ele>158.00000</ele>
        <time>2024-03-21T12:09:26Z</time>
      </trkpt>
      <trkpt lat="42.85382886" lon="13.58129016">
        <ele>159.00000</ele>
        <time>2024-03-21T12:09:27Z</time>
      </trkpt>
      <trkpt lat="42.85381888" lon="13.58120650">
        <ele>159.00000</ele>
        <time>2024-03-21T12:09:28Z</time>
      </trkpt>
      <trkpt lat="42.85382475" lon="13.58113702">
        <ele>159.00000</ele>
        <time>2024-03-21T12:09:29Z</time>
      </trkpt>
      <trkpt lat="42.85382274" lon="13.58105379">
        <ele>159.00000</ele>
        <time>2024-03-21T12:09:30Z</time>
      </trkpt>
      <trkpt lat="42.85381645" lon="13.58095907">
        <ele>160.00000</ele>
        <time>2024-03-21T12:09:31Z</time>
      </trkpt>
      <trkpt lat="42.85381436" lon="13.58085405">
        <ele>160.00000</ele>
        <time>2024-03-21T12:09:32Z</time>
      </trkpt>
      <trkpt lat="42.85381176" lon="13.58074801">
        <ele>160.00000</ele>
        <time>2024-03-21T12:09:33Z</time>
      </trkpt>
      <trkpt lat="42.85380707" lon="13.58064265">
        <ele>160.00000</ele>
        <time>2024-03-21T12:09:34Z</time>
      </trkpt>
      <trkpt lat="42.85380237" lon="13.58053629">
        <ele>160.00000</ele>
        <time>2024-03-21T12:09:35Z</time>
      </trkpt>
      <trkpt lat="42.85380271" lon="13.58043118">
        <ele>159.00000</ele>
        <time>2024-03-21T12:09:36Z</time>
      </trkpt>
      <trkpt lat="42.85379961" lon="13.58033269">
        <ele>158.00000</ele>
        <time>2024-03-21T12:09:37Z</time>
      </trkpt>
      <trkpt lat="42.85379977" lon="13.58023487">
        <ele>158.00000</ele>
        <time>2024-03-21T12:09:38Z</time>
      </trkpt>
      <trkpt lat="42.85379977" lon="13.58014108">
        <ele>157.00000</ele>
        <time>2024-03-21T12:09:39Z</time>
      </trkpt>
      <trkpt lat="42.85378150" lon="13.58005609">
        <ele>156.00000</ele>
        <time>2024-03-21T12:09:40Z</time>
      </trkpt>
      <trkpt lat="42.85377329" lon="13.57997294">
        <ele>156.00000</ele>
        <time>2024-03-21T12:09:41Z</time>
      </trkpt>
      <trkpt lat="42.85376884" lon="13.57987370">
        <ele>156.00000</ele>
        <time>2024-03-21T12:09:42Z</time>
      </trkpt>
      <trkpt lat="42.85375854" lon="13.57979080">
        <ele>156.00000</ele>
        <time>2024-03-21T12:09:43Z</time>
      </trkpt>
      <trkpt lat="42.85374839" lon="13.57972224">
        <ele>156.00000</ele>
        <time>2024-03-21T12:09:44Z</time>
      </trkpt>
      <trkpt lat="42.85374311" lon="13.57963490">
        <ele>156.00000</ele>
        <time>2024-03-21T12:09:45Z</time>
      </trkpt>
      <trkpt lat="42.85373901" lon="13.57952627">
        <ele>156.00000</ele>
        <time>2024-03-21T12:09:46Z</time>
      </trkpt>
      <trkpt lat="42.85373255" lon="13.57943541">
        <ele>156.00000</ele>
        <time>2024-03-21T12:09:47Z</time>
      </trkpt>
      <trkpt lat="42.85371872" lon="13.57934522">
        <ele>156.00000</ele>
        <time>2024-03-21T12:09:48Z</time>
      </trkpt>
      <trkpt lat="42.85370430" lon="13.57927054">
        <ele>157.00000</ele>
        <time>2024-03-21T12:09:49Z</time>
      </trkpt>
      <trkpt lat="42.85369383" lon="13.57915881">
        <ele>157.00000</ele>
        <time>2024-03-21T12:09:50Z</time>
      </trkpt>
      <trkpt lat="42.85368788" lon="13.57908689">
        <ele>157.00000</ele>
        <time>2024-03-21T12:09:51Z</time>
      </trkpt>
      <trkpt lat="42.85368544" lon="13.57900240">
        <ele>158.00000</ele>
        <time>2024-03-21T12:09:52Z</time>
      </trkpt>
      <trkpt lat="42.85367371" lon="13.57892344">
        <ele>158.00000</ele>
        <time>2024-03-21T12:09:53Z</time>
      </trkpt>
      <trkpt lat="42.85370565" lon="13.57875748">
        <ele>158.00000</ele>
        <time>2024-03-21T12:09:55Z</time>
      </trkpt>
      <trkpt lat="42.85370950" lon="13.57852321">
        <ele>158.00000</ele>
        <time>2024-03-21T12:09:58Z</time>
      </trkpt>
      <trkpt lat="42.85371604" lon="13.57838281">
        <ele>158.00000</ele>
        <time>2024-03-21T12:10:00Z</time>
      </trkpt>
      <trkpt lat="42.85371042" lon="13.57831349">
        <ele>158.00000</ele>
        <time>2024-03-21T12:10:01Z</time>
      </trkpt>
      <trkpt lat="42.85368645" lon="13.57817930">
        <ele>157.00000</ele>
        <time>2024-03-21T12:10:03Z</time>
      </trkpt>
      <trkpt lat="42.85366868" lon="13.57810604">
        <ele>157.00000</ele>
        <time>2024-03-21T12:10:04Z</time>
      </trkpt>
      <trkpt lat="42.85364613" lon="13.57803203">
        <ele>157.00000</ele>
        <time>2024-03-21T12:10:05Z</time>
      </trkpt>
      <trkpt lat="42.85359785" lon="13.57788727">
        <ele>157.00000</ele>
        <time>2024-03-21T12:10:07Z</time>
      </trkpt>
      <trkpt lat="42.85352845" lon="13.57767965">
        <ele>157.00000</ele>
        <time>2024-03-21T12:10:10Z</time>
      </trkpt>
      <trkpt lat="42.85351403" lon="13.57761310">
        <ele>157.00000</ele>
        <time>2024-03-21T12:10:11Z</time>
      </trkpt>
      <trkpt lat="42.85350255" lon="13.57748511">
        <ele>157.00000</ele>
        <time>2024-03-21T12:10:13Z</time>
      </trkpt>
      <trkpt lat="42.85349920" lon="13.57743130">
        <ele>157.00000</ele>
        <time>2024-03-21T12:10:14Z</time>
      </trkpt>
      <trkpt lat="42.85349451" lon="13.57738578">
        <ele>157.00000</ele>
        <time>2024-03-21T12:10:15Z</time>
      </trkpt>
      <trkpt lat="42.85350062" lon="13.57733750">
        <ele>157.00000</ele>
        <time>2024-03-21T12:10:16Z</time>
      </trkpt>
      <trkpt lat="42.85349526" lon="13.57733574">
        <ele>157.00000</ele>
        <time>2024-03-21T12:10:18Z</time>
      </trkpt>
      <trkpt lat="42.85348160" lon="13.57743917">
        <ele>157.00000</ele>
        <time>2024-03-21T12:10:21Z</time>
      </trkpt>
      <trkpt lat="42.85347690" lon="13.57742744">
        <ele>157.00000</ele>
        <time>2024-03-21T12:10:22Z</time>
      </trkpt>
      <trkpt lat="42.85348051" lon="13.57740540">
        <ele>157.00000</ele>
        <time>2024-03-21T12:10:23Z</time>
      </trkpt>
      <trkpt lat="42.85348671" lon="13.57738830">
        <ele>157.00000</ele>
        <time>2024-03-21T12:10:24Z</time>
      </trkpt>
      <trkpt lat="42.85348830" lon="13.57738084">
        <ele>157.00000</ele>
        <time>2024-03-21T12:10:25Z</time>
      </trkpt>
      <trkpt lat="42.85350180" lon="13.57725075">
        <ele>158.00000</ele>
        <time>2024-03-21T12:10:36Z</time>
      </trkpt>
      <trkpt lat="42.85350347" lon="13.57720079">
        <ele>158.00000</ele>
        <time>2024-03-21T12:10:37Z</time>
      </trkpt>
      <trkpt lat="42.85350834" lon="13.57714908">
        <ele>158.00000</ele>
        <time>2024-03-21T12:10:38Z</time>
      </trkpt>
      <trkpt lat="42.85351546" lon="13.57709820">
        <ele>159.00000</ele>
        <time>2024-03-21T12:10:39Z</time>
      </trkpt>
      <trkpt lat="42.85353457" lon="13.57705042">
        <ele>159.00000</ele>
        <time>2024-03-21T12:10:40Z</time>
      </trkpt>
      <trkpt lat="42.85354278" lon="13.57700508">
        <ele>159.00000</ele>
        <time>2024-03-21T12:10:41Z</time>
      </trkpt>
      <trkpt lat="42.85354597" lon="13.57695939">
        <ele>159.00000</ele>
        <time>2024-03-21T12:10:42Z</time>
      </trkpt>
      <trkpt lat="42.85355142" lon="13.57691589">
        <ele>160.00000</ele>
        <time>2024-03-21T12:10:43Z</time>
      </trkpt>
      <trkpt lat="42.85355343" lon="13.57687264">
        <ele>160.00000</ele>
        <time>2024-03-21T12:10:44Z</time>
      </trkpt>
      <trkpt lat="42.85355578" lon="13.57683375">
        <ele>160.00000</ele>
        <time>2024-03-21T12:10:45Z</time>
      </trkpt>
      <trkpt lat="42.85356005" lon="13.57679243">
        <ele>161.00000</ele>
        <time>2024-03-21T12:10:46Z</time>
      </trkpt>
      <trkpt lat="42.85355888" lon="13.57675136">
        <ele>161.00000</ele>
        <time>2024-03-21T12:10:47Z</time>
      </trkpt>
      <trkpt lat="42.85355502" lon="13.57670693">
        <ele>161.00000</ele>
        <time>2024-03-21T12:10:48Z</time>
      </trkpt>
      <trkpt lat="42.85355050" lon="13.57665865">
        <ele>162.00000</ele>
        <time>2024-03-21T12:10:49Z</time>
      </trkpt>
      <trkpt lat="42.85354756" lon="13.57660358">
        <ele>162.00000</ele>
        <time>2024-03-21T12:10:50Z</time>
      </trkpt>
      <trkpt lat="42.85355200" lon="13.57654231">
        <ele>162.00000</ele>
        <time>2024-03-21T12:10:51Z</time>
      </trkpt>
      <trkpt lat="42.85356047" lon="13.57648280">
        <ele>162.00000</ele>
        <time>2024-03-21T12:10:52Z</time>
      </trkpt>
      <trkpt lat="42.85355636" lon="13.57642170">
        <ele>162.00000</ele>
        <time>2024-03-21T12:10:53Z</time>
      </trkpt>
      <trkpt lat="42.85355494" lon="13.57636026">
        <ele>162.00000</ele>
        <time>2024-03-21T12:10:54Z</time>
      </trkpt>
      <trkpt lat="42.85356089" lon="13.57629555">
        <ele>161.00000</ele>
        <time>2024-03-21T12:10:55Z</time>
      </trkpt>
      <trkpt lat="42.85356433" lon="13.57622958">
        <ele>161.00000</ele>
        <time>2024-03-21T12:10:56Z</time>
      </trkpt>
      <trkpt lat="42.85356533" lon="13.57616496">
        <ele>161.00000</ele>
        <time>2024-03-21T12:10:57Z</time>
      </trkpt>
      <trkpt lat="42.85356399" lon="13.57610092">
        <ele>161.00000</ele>
        <time>2024-03-21T12:10:58Z</time>
      </trkpt>
      <trkpt lat="42.85356416" lon="13.57603521">
        <ele>161.00000</ele>
        <time>2024-03-21T12:10:59Z</time>
      </trkpt>
      <trkpt lat="42.85355946" lon="13.57596404">
        <ele>161.00000</ele>
        <time>2024-03-21T12:11:00Z</time>
      </trkpt>
      <trkpt lat="42.85355737" lon="13.57588953">
        <ele>161.00000</ele>
        <time>2024-03-21T12:11:01Z</time>
      </trkpt>
      <trkpt lat="42.85355200" lon="13.57580814">
        <ele>161.00000</ele>
        <time>2024-03-21T12:11:02Z</time>
      </trkpt>
      <trkpt lat="42.85356139" lon="13.57572734">
        <ele>161.00000</ele>
        <time>2024-03-21T12:11:03Z</time>
      </trkpt>
      <trkpt lat="42.85357212" lon="13.57564721">
        <ele>161.00000</ele>
        <time>2024-03-21T12:11:04Z</time>
      </trkpt>
      <trkpt lat="42.85358067" lon="13.57556842">
        <ele>162.00000</ele>
        <time>2024-03-21T12:11:05Z</time>
      </trkpt>
      <trkpt lat="42.85358930" lon="13.57548401">
        <ele>162.00000</ele>
        <time>2024-03-21T12:11:06Z</time>
      </trkpt>
      <trkpt lat="42.85359215" lon="13.57539156">
        <ele>163.00000</ele>
        <time>2024-03-21T12:11:07Z</time>
      </trkpt>
      <trkpt lat="42.85358553" lon="13.57528880">
        <ele>163.00000</ele>
        <time>2024-03-21T12:11:08Z</time>
      </trkpt>
      <trkpt lat="42.85358017" lon="13.57520825">
        <ele>163.00000</ele>
        <time>2024-03-21T12:11:09Z</time>
      </trkpt>
      <trkpt lat="42.85357606" lon="13.57513759">
        <ele>163.00000</ele>
        <time>2024-03-21T12:11:10Z</time>
      </trkpt>
      <trkpt lat="42.85357153" lon="13.57504899">
        <ele>163.00000</ele>
        <time>2024-03-21T12:11:11Z</time>
      </trkpt>
      <trkpt lat="42.85355703" lon="13.57493366">
        <ele>163.00000</ele>
        <time>2024-03-21T12:11:12Z</time>
      </trkpt>
      <trkpt lat="42.85355678" lon="13.57483525">
        <ele>163.00000</ele>
        <time>2024-03-21T12:11:13Z</time>
      </trkpt>
      <trkpt lat="42.85355720" lon="13.57473853">
        <ele>163.00000</ele>
        <time>2024-03-21T12:11:14Z</time>
      </trkpt>
      <trkpt lat="42.85355519" lon="13.57466041">
        <ele>162.00000</ele>
        <time>2024-03-21T12:11:15Z</time>
      </trkpt>
      <trkpt lat="42.85355058" lon="13.57456234">
        <ele>162.00000</ele>
        <time>2024-03-21T12:11:16Z</time>
      </trkpt>
      <trkpt lat="42.85354723" lon="13.57444457">
        <ele>161.00000</ele>
        <time>2024-03-21T12:11:17Z</time>
      </trkpt>
      <trkpt lat="42.85354672" lon="13.57434147">
        <ele>161.00000</ele>
        <time>2024-03-21T12:11:18Z</time>
      </trkpt>
      <trkpt lat="42.85354807" lon="13.57426067">
        <ele>161.00000</ele>
        <time>2024-03-21T12:11:19Z</time>
      </trkpt>
      <trkpt lat="42.85355477" lon="13.57416537">
        <ele>161.00000</ele>
        <time>2024-03-21T12:11:20Z</time>
      </trkpt>
      <trkpt lat="42.85355393" lon="13.57405188">
        <ele>162.00000</ele>
        <time>2024-03-21T12:11:21Z</time>
      </trkpt>
      <trkpt lat="42.85354723" lon="13.57396856">
        <ele>162.00000</ele>
        <time>2024-03-21T12:11:22Z</time>
      </trkpt>
      <trkpt lat="42.85353759" lon="13.57385893">
        <ele>163.00000</ele>
        <time>2024-03-21T12:11:23Z</time>
      </trkpt>
      <trkpt lat="42.85352795" lon="13.57376111">
        <ele>163.00000</ele>
        <time>2024-03-21T12:11:24Z</time>
      </trkpt>
      <trkpt lat="42.85352200" lon="13.57365768">
        <ele>164.00000</ele>
        <time>2024-03-21T12:11:25Z</time>
      </trkpt>
      <trkpt lat="42.85351705" lon="13.57353153">
        <ele>164.00000</ele>
        <time>2024-03-21T12:11:26Z</time>
      </trkpt>
      <trkpt lat="42.85351253" lon="13.57344050">
        <ele>164.00000</ele>
        <time>2024-03-21T12:11:27Z</time>
      </trkpt>
      <trkpt lat="42.85348604" lon="13.57331947">
        <ele>164.00000</ele>
        <time>2024-03-21T12:11:28Z</time>
      </trkpt>
      <trkpt lat="42.85343927" lon="13.57320447">
        <ele>163.00000</ele>
        <time>2024-03-21T12:11:29Z</time>
      </trkpt>
      <trkpt lat="42.85343281" lon="13.57308603">
        <ele>163.00000</ele>
        <time>2024-03-21T12:11:30Z</time>
      </trkpt>
      <trkpt lat="42.85349417" lon="13.57297724">
        <ele>163.00000</ele>
        <time>2024-03-21T12:11:31Z</time>
      </trkpt>
      <trkpt lat="42.85356600" lon="13.57287012">
        <ele>163.00000</ele>
        <time>2024-03-21T12:11:32Z</time>
      </trkpt>
      <trkpt lat="42.85364001" lon="13.57276006">
        <ele>162.00000</ele>
        <time>2024-03-21T12:11:33Z</time>
      </trkpt>
      <trkpt lat="42.85366952" lon="13.57268068">
        <ele>162.00000</ele>
        <time>2024-03-21T12:11:34Z</time>
      </trkpt>
      <trkpt lat="42.85369735" lon="13.57258672">
        <ele>162.00000</ele>
        <time>2024-03-21T12:11:35Z</time>
      </trkpt>
      <trkpt lat="42.85372048" lon="13.57249176">
        <ele>161.00000</ele>
        <time>2024-03-21T12:11:36Z</time>
      </trkpt>
      <trkpt lat="42.85374068" lon="13.57239821">
        <ele>161.00000</ele>
        <time>2024-03-21T12:11:37Z</time>
      </trkpt>
      <trkpt lat="42.85375351" lon="13.57230492">
        <ele>162.00000</ele>
        <time>2024-03-21T12:11:38Z</time>
      </trkpt>
      <trkpt lat="42.85375585" lon="13.57221197">
        <ele>162.00000</ele>
        <time>2024-03-21T12:11:39Z</time>
      </trkpt>
      <trkpt lat="42.85375191" lon="13.57209068">
        <ele>163.00000</ele>
        <time>2024-03-21T12:11:40Z</time>
      </trkpt>
      <trkpt lat="42.85374739" lon="13.57200779">
        <ele>164.00000</ele>
        <time>2024-03-21T12:11:41Z</time>
      </trkpt>
      <trkpt lat="42.85375434" lon="13.57190729">
        <ele>164.00000</ele>
        <time>2024-03-21T12:11:42Z</time>
      </trkpt>
      <trkpt lat="42.85376097" lon="13.57180763">
        <ele>165.00000</ele>
        <time>2024-03-21T12:11:43Z</time>
      </trkpt>
      <trkpt lat="42.85376977" lon="13.57170931">
        <ele>165.00000</ele>
        <time>2024-03-21T12:11:44Z</time>
      </trkpt>
      <trkpt lat="42.85378511" lon="13.57159473">
        <ele>165.00000</ele>
        <time>2024-03-21T12:11:45Z</time>
      </trkpt>
      <trkpt lat="42.85379885" lon="13.57151761">
        <ele>165.00000</ele>
        <time>2024-03-21T12:11:46Z</time>
      </trkpt>
      <trkpt lat="42.85382123" lon="13.57142088">
        <ele>165.00000</ele>
        <time>2024-03-21T12:11:47Z</time>
      </trkpt>
      <trkpt lat="42.85384453" lon="13.57132273">
        <ele>164.00000</ele>
        <time>2024-03-21T12:11:48Z</time>
      </trkpt>
      <trkpt lat="42.85385979" lon="13.57122424">
        <ele>163.00000</ele>
        <time>2024-03-21T12:11:49Z</time>
      </trkpt>
      <trkpt lat="42.85387203" lon="13.57112232">
        <ele>163.00000</ele>
        <time>2024-03-21T12:11:50Z</time>
      </trkpt>
      <trkpt lat="42.85388066" lon="13.57102165">
        <ele>162.00000</ele>
        <time>2024-03-21T12:11:51Z</time>
      </trkpt>
      <trkpt lat="42.85389013" lon="13.57092007">
        <ele>162.00000</ele>
        <time>2024-03-21T12:11:52Z</time>
      </trkpt>
      <trkpt lat="42.85390002" lon="13.57082040">
        <ele>161.00000</ele>
        <time>2024-03-21T12:11:53Z</time>
      </trkpt>
      <trkpt lat="42.85390656" lon="13.57072167">
        <ele>162.00000</ele>
        <time>2024-03-21T12:11:54Z</time>
      </trkpt>
      <trkpt lat="42.85391243" lon="13.57061823">
        <ele>162.00000</ele>
        <time>2024-03-21T12:11:55Z</time>
      </trkpt>
      <trkpt lat="42.85391913" lon="13.57051547">
        <ele>162.00000</ele>
        <time>2024-03-21T12:11:56Z</time>
      </trkpt>
      <trkpt lat="42.85392005" lon="13.57041891">
        <ele>163.00000</ele>
        <time>2024-03-21T12:11:57Z</time>
      </trkpt>
      <trkpt lat="42.85391880" lon="13.57033509">
        <ele>163.00000</ele>
        <time>2024-03-21T12:11:58Z</time>
      </trkpt>
      <trkpt lat="42.85391628" lon="13.57025647">
        <ele>163.00000</ele>
        <time>2024-03-21T12:11:59Z</time>
      </trkpt>
      <trkpt lat="42.85391980" lon="13.57018833">
        <ele>163.00000</ele>
        <time>2024-03-21T12:12:00Z</time>
      </trkpt>
      <trkpt lat="42.85392684" lon="13.57012521">
        <ele>163.00000</ele>
        <time>2024-03-21T12:12:01Z</time>
      </trkpt>
      <trkpt lat="42.85392634" lon="13.57004935">
        <ele>163.00000</ele>
        <time>2024-03-21T12:12:02Z</time>
      </trkpt>
      <trkpt lat="42.85396020" lon="13.56996252">
        <ele>163.00000</ele>
        <time>2024-03-21T12:12:03Z</time>
      </trkpt>
      <trkpt lat="42.85398661" lon="13.56986872">
        <ele>163.00000</ele>
        <time>2024-03-21T12:12:04Z</time>
      </trkpt>
      <trkpt lat="42.85401519" lon="13.56976496">
        <ele>162.00000</ele>
        <time>2024-03-21T12:12:05Z</time>
      </trkpt>
      <trkpt lat="42.85403698" lon="13.56966789">
        <ele>162.00000</ele>
        <time>2024-03-21T12:12:06Z</time>
      </trkpt>
      <trkpt lat="42.85405349" lon="13.56957343">
        <ele>161.00000</ele>
        <time>2024-03-21T12:12:07Z</time>
      </trkpt>
      <trkpt lat="42.85407034" lon="13.56947913">
        <ele>161.00000</ele>
        <time>2024-03-21T12:12:08Z</time>
      </trkpt>
      <trkpt lat="42.85408141" lon="13.56936598">
        <ele>160.00000</ele>
        <time>2024-03-21T12:12:09Z</time>
      </trkpt>
      <trkpt lat="42.85408560" lon="13.56926514">
        <ele>160.00000</ele>
        <time>2024-03-21T12:12:10Z</time>
      </trkpt>
      <trkpt lat="42.85408920" lon="13.56917621">
        <ele>160.00000</ele>
        <time>2024-03-21T12:12:11Z</time>
      </trkpt>
      <trkpt lat="42.85409188" lon="13.56906163">
        <ele>159.00000</ele>
        <time>2024-03-21T12:12:12Z</time>
      </trkpt>
      <trkpt lat="42.85409733" lon="13.56892165">
        <ele>158.00000</ele>
        <time>2024-03-21T12:12:13Z</time>
      </trkpt>
      <trkpt lat="42.85410546" lon="13.56880514">
        <ele>157.00000</ele>
        <time>2024-03-21T12:12:14Z</time>
      </trkpt>
      <trkpt lat="42.85411183" lon="13.56868059">
        <ele>156.00000</ele>
        <time>2024-03-21T12:12:15Z</time>
      </trkpt>
      <trkpt lat="42.85412692" lon="13.56859652">
        <ele>155.00000</ele>
        <time>2024-03-21T12:12:16Z</time>
      </trkpt>
      <trkpt lat="42.85414829" lon="13.56849376">
        <ele>155.00000</ele>
        <time>2024-03-21T12:12:17Z</time>
      </trkpt>
      <trkpt lat="42.85420093" lon="13.56838186">
        <ele>155.00000</ele>
        <time>2024-03-21T12:12:18Z</time>
      </trkpt>
      <trkpt lat="42.85423136" lon="13.56828371">
        <ele>155.00000</ele>
        <time>2024-03-21T12:12:19Z</time>
      </trkpt>
      <trkpt lat="42.85427000" lon="13.56817826">
        <ele>155.00000</ele>
        <time>2024-03-21T12:12:20Z</time>
      </trkpt>
      <trkpt lat="42.85429506" lon="13.56808983">
        <ele>154.00000</ele>
        <time>2024-03-21T12:12:21Z</time>
      </trkpt>
      <trkpt lat="42.85433789" lon="13.56798942">
        <ele>155.00000</ele>
        <time>2024-03-21T12:12:22Z</time>
      </trkpt>
      <trkpt lat="42.85438852" lon="13.56789638">
        <ele>156.00000</ele>
        <time>2024-03-21T12:12:23Z</time>
      </trkpt>
      <trkpt lat="42.85444451" lon="13.56781004">
        <ele>156.00000</ele>
        <time>2024-03-21T12:12:24Z</time>
      </trkpt>
      <trkpt lat="42.85449983" lon="13.56772413">
        <ele>157.00000</ele>
        <time>2024-03-21T12:12:25Z</time>
      </trkpt>
      <trkpt lat="42.85455389" lon="13.56763830">
        <ele>158.00000</ele>
        <time>2024-03-21T12:12:26Z</time>
      </trkpt>
      <trkpt lat="42.85461676" lon="13.56753512">
        <ele>158.00000</ele>
        <time>2024-03-21T12:12:27Z</time>
      </trkpt>
      <trkpt lat="42.85466412" lon="13.56744862">
        <ele>159.00000</ele>
        <time>2024-03-21T12:12:28Z</time>
      </trkpt>
      <trkpt lat="42.85470804" lon="13.56735960">
        <ele>159.00000</ele>
        <time>2024-03-21T12:12:29Z</time>
      </trkpt>
      <trkpt lat="42.85474006" lon="13.56728542">
        <ele>159.00000</ele>
        <time>2024-03-21T12:12:30Z</time>
      </trkpt>
      <trkpt lat="42.85477702" lon="13.56719221">
        <ele>159.00000</ele>
        <time>2024-03-21T12:12:31Z</time>
      </trkpt>
      <trkpt lat="42.85480502" lon="13.56709616">
        <ele>159.00000</ele>
        <time>2024-03-21T12:12:32Z</time>
      </trkpt>
      <trkpt lat="42.85481935" lon="13.56699474">
        <ele>158.00000</ele>
        <time>2024-03-21T12:12:33Z</time>
      </trkpt>
      <trkpt lat="42.85482128" lon="13.56688912">
        <ele>158.00000</ele>
        <time>2024-03-21T12:12:34Z</time>
      </trkpt>
      <trkpt lat="42.85481541" lon="13.56678393">
        <ele>158.00000</ele>
        <time>2024-03-21T12:12:35Z</time>
      </trkpt>
      <trkpt lat="42.85480225" lon="13.56668092">
        <ele>158.00000</ele>
        <time>2024-03-21T12:12:36Z</time>
      </trkpt>
      <trkpt lat="42.85478414" lon="13.56656307">
        <ele>158.00000</ele>
        <time>2024-03-21T12:12:37Z</time>
      </trkpt>
      <trkpt lat="42.85476688" lon="13.56647288">
        <ele>158.00000</ele>
        <time>2024-03-21T12:12:38Z</time>
      </trkpt>
      <trkpt lat="42.85475213" lon="13.56640608">
        <ele>159.00000</ele>
        <time>2024-03-21T12:12:39Z</time>
      </trkpt>
      <trkpt lat="42.85473679" lon="13.56632695">
        <ele>159.00000</ele>
        <time>2024-03-21T12:12:40Z</time>
      </trkpt>
      <trkpt lat="42.85472136" lon="13.56625118">
        <ele>159.00000</ele>
        <time>2024-03-21T12:12:41Z</time>
      </trkpt>
      <trkpt lat="42.85470812" lon="13.56617616">
        <ele>159.00000</ele>
        <time>2024-03-21T12:12:42Z</time>
      </trkpt>
      <trkpt lat="42.85469085" lon="13.56607994">
        <ele>159.00000</ele>
        <time>2024-03-21T12:12:43Z</time>
      </trkpt>
      <trkpt lat="42.85467686" lon="13.56601154">
        <ele>159.00000</ele>
        <time>2024-03-21T12:12:44Z</time>
      </trkpt>
      <trkpt lat="42.85465992" lon="13.56592495">
        <ele>159.00000</ele>
        <time>2024-03-21T12:12:45Z</time>
      </trkpt>
      <trkpt lat="42.85463620" lon="13.56581708">
        <ele>159.00000</ele>
        <time>2024-03-21T12:12:46Z</time>
      </trkpt>
      <trkpt lat="42.85461659" lon="13.56572890">
        <ele>159.00000</ele>
        <time>2024-03-21T12:12:47Z</time>
      </trkpt>
      <trkpt lat="42.85459832" lon="13.56564106">
        <ele>159.00000</ele>
        <time>2024-03-21T12:12:48Z</time>
      </trkpt>
      <trkpt lat="42.85458248" lon="13.56555556">
        <ele>159.00000</ele>
        <time>2024-03-21T12:12:49Z</time>
      </trkpt>
      <trkpt lat="42.85457083" lon="13.56547141">
        <ele>159.00000</ele>
        <time>2024-03-21T12:12:50Z</time>
      </trkpt>
      <trkpt lat="42.85456923" lon="13.56540695">
        <ele>159.00000</ele>
        <time>2024-03-21T12:12:51Z</time>
      </trkpt>
      <trkpt lat="42.85456445" lon="13.56532707">
        <ele>160.00000</ele>
        <time>2024-03-21T12:12:52Z</time>
      </trkpt>
      <trkpt lat="42.85455582" lon="13.56524560">
        <ele>160.00000</ele>
        <time>2024-03-21T12:12:53Z</time>
      </trkpt>
      <trkpt lat="42.85454618" lon="13.56516187">
        <ele>160.00000</ele>
        <time>2024-03-21T12:12:54Z</time>
      </trkpt>
      <trkpt lat="42.85453646" lon="13.56507838">
        <ele>161.00000</ele>
        <time>2024-03-21T12:12:55Z</time>
      </trkpt>
      <trkpt lat="42.85452305" lon="13.56497914">
        <ele>161.00000</ele>
        <time>2024-03-21T12:12:56Z</time>
      </trkpt>
      <trkpt lat="42.85451425" lon="13.56491343">
        <ele>162.00000</ele>
        <time>2024-03-21T12:12:57Z</time>
      </trkpt>
      <trkpt lat="42.85450126" lon="13.56483070">
        <ele>162.00000</ele>
        <time>2024-03-21T12:12:58Z</time>
      </trkpt>
      <trkpt lat="42.85448768" lon="13.56474688">
        <ele>163.00000</ele>
        <time>2024-03-21T12:12:59Z</time>
      </trkpt>
      <trkpt lat="42.85447494" lon="13.56466348">
        <ele>163.00000</ele>
        <time>2024-03-21T12:13:00Z</time>
      </trkpt>
      <trkpt lat="42.85446303" lon="13.56457932">
        <ele>163.00000</ele>
        <time>2024-03-21T12:13:01Z</time>
      </trkpt>
      <trkpt lat="42.85445599" lon="13.56449198">
        <ele>163.00000</ele>
        <time>2024-03-21T12:13:02Z</time>
      </trkpt>
      <trkpt lat="42.85445256" lon="13.56440071">
        <ele>163.00000</ele>
        <time>2024-03-21T12:13:03Z</time>
      </trkpt>
      <trkpt lat="42.85443998" lon="13.56430658">
        <ele>164.00000</ele>
        <time>2024-03-21T12:13:04Z</time>
      </trkpt>
      <trkpt lat="42.85442540" lon="13.56421253">
        <ele>164.00000</ele>
        <time>2024-03-21T12:13:05Z</time>
      </trkpt>
      <trkpt lat="42.85440788" lon="13.56409829">
        <ele>164.00000</ele>
        <time>2024-03-21T12:13:06Z</time>
      </trkpt>
      <trkpt lat="42.85440134" lon="13.56402109">
        <ele>163.00000</ele>
        <time>2024-03-21T12:13:07Z</time>
      </trkpt>
      <trkpt lat="42.85438810" lon="13.56392394">
        <ele>163.00000</ele>
        <time>2024-03-21T12:13:08Z</time>
      </trkpt>
      <trkpt lat="42.85437226" lon="13.56380685">
        <ele>161.00000</ele>
        <time>2024-03-21T12:13:09Z</time>
      </trkpt>
      <trkpt lat="42.85435348" lon="13.56370660">
        <ele>160.00000</ele>
        <time>2024-03-21T12:13:10Z</time>
      </trkpt>
      <trkpt lat="42.85433052" lon="13.56360677">
        <ele>159.00000</ele>
        <time>2024-03-21T12:13:11Z</time>
      </trkpt>
      <trkpt lat="42.85431057" lon="13.56352044">
        <ele>159.00000</ele>
        <time>2024-03-21T12:13:12Z</time>
      </trkpt>
      <trkpt lat="42.85428768" lon="13.56340686">
        <ele>159.00000</ele>
        <time>2024-03-21T12:13:13Z</time>
      </trkpt>
      <trkpt lat="42.85426815" lon="13.56329128">
        <ele>158.00000</ele>
        <time>2024-03-21T12:13:14Z</time>
      </trkpt>
      <trkpt lat="42.85424770" lon="13.56316043">
        <ele>159.00000</ele>
        <time>2024-03-21T12:13:15Z</time>
      </trkpt>
      <trkpt lat="42.85422842" lon="13.56305155">
        <ele>159.00000</ele>
        <time>2024-03-21T12:13:16Z</time>
      </trkpt>
      <trkpt lat="42.85421568" lon="13.56294636">
        <ele>159.00000</ele>
        <time>2024-03-21T12:13:17Z</time>
      </trkpt>
      <trkpt lat="42.85420294" lon="13.56286363">
        <ele>160.00000</ele>
        <time>2024-03-21T12:13:18Z</time>
      </trkpt>
      <trkpt lat="42.85418232" lon="13.56273966">
        <ele>161.00000</ele>
        <time>2024-03-21T12:13:19Z</time>
      </trkpt>
      <trkpt lat="42.85416732" lon="13.56263757">
        <ele>161.00000</ele>
        <time>2024-03-21T12:13:20Z</time>
      </trkpt>
      <trkpt lat="42.85415466" lon="13.56253406">
        <ele>162.00000</ele>
        <time>2024-03-21T12:13:21Z</time>
      </trkpt>
      <trkpt lat="42.85414368" lon="13.56244931">
        <ele>162.00000</ele>
        <time>2024-03-21T12:13:22Z</time>
      </trkpt>
      <trkpt lat="42.85413195" lon="13.56234873">
        <ele>162.00000</ele>
        <time>2024-03-21T12:13:23Z</time>
      </trkpt>
      <trkpt lat="42.85412130" lon="13.56222979">
        <ele>162.00000</ele>
        <time>2024-03-21T12:13:24Z</time>
      </trkpt>
      <trkpt lat="42.85411342" lon="13.56213130">
        <ele>162.00000</ele>
        <time>2024-03-21T12:13:25Z</time>
      </trkpt>
      <trkpt lat="42.85410362" lon="13.56205184">
        <ele>162.00000</ele>
        <time>2024-03-21T12:13:26Z</time>
      </trkpt>
      <trkpt lat="42.85408954" lon="13.56195461">
        <ele>162.00000</ele>
        <time>2024-03-21T12:13:27Z</time>
      </trkpt>
      <trkpt lat="42.85407545" lon="13.56185764">
        <ele>162.00000</ele>
        <time>2024-03-21T12:13:28Z</time>
      </trkpt>
      <trkpt lat="42.85405852" lon="13.56175848">
        <ele>163.00000</ele>
        <time>2024-03-21T12:13:29Z</time>
      </trkpt>
      <trkpt lat="42.85403883" lon="13.56163862">
        <ele>163.00000</ele>
        <time>2024-03-21T12:13:30Z</time>
      </trkpt>
      <trkpt lat="42.85402877" lon="13.56154172">
        <ele>163.00000</ele>
        <time>2024-03-21T12:13:31Z</time>
      </trkpt>
      <trkpt lat="42.85402030" lon="13.56146293">
        <ele>163.00000</ele>
        <time>2024-03-21T12:13:32Z</time>
      </trkpt>
      <trkpt lat="42.85400999" lon="13.56136319">
        <ele>164.00000</ele>
        <time>2024-03-21T12:13:33Z</time>
      </trkpt>
      <trkpt lat="42.85399692" lon="13.56124173">
        <ele>164.00000</ele>
        <time>2024-03-21T12:13:34Z</time>
      </trkpt>
      <trkpt lat="42.85398610" lon="13.56116252">
        <ele>164.00000</ele>
        <time>2024-03-21T12:13:35Z</time>
      </trkpt>
      <trkpt lat="42.85397194" lon="13.56106353">
        <ele>165.00000</ele>
        <time>2024-03-21T12:13:36Z</time>
      </trkpt>
      <trkpt lat="42.85395358" lon="13.56096387">
        <ele>165.00000</ele>
        <time>2024-03-21T12:13:37Z</time>
      </trkpt>
      <trkpt lat="42.85392894" lon="13.56084393">
        <ele>165.00000</ele>
        <time>2024-03-21T12:13:38Z</time>
      </trkpt>
      <trkpt lat="42.85390974" lon="13.56074670">
        <ele>165.00000</ele>
        <time>2024-03-21T12:13:39Z</time>
      </trkpt>
      <trkpt lat="42.85388946" lon="13.56066799">
        <ele>165.00000</ele>
        <time>2024-03-21T12:13:40Z</time>
      </trkpt>
      <trkpt lat="42.85386448" lon="13.56057294">
        <ele>166.00000</ele>
        <time>2024-03-21T12:13:41Z</time>
      </trkpt>
      <trkpt lat="42.85384328" lon="13.56047714">
        <ele>166.00000</ele>
        <time>2024-03-21T12:13:42Z</time>
      </trkpt>
      <trkpt lat="42.85382023" lon="13.56037429">
        <ele>166.00000</ele>
        <time>2024-03-21T12:13:43Z</time>
      </trkpt>
      <trkpt lat="42.85378829" lon="13.56024756">
        <ele>167.00000</ele>
        <time>2024-03-21T12:13:44Z</time>
      </trkpt>
      <trkpt lat="42.85378854" lon="13.56016156">
        <ele>167.00000</ele>
        <time>2024-03-21T12:13:45Z</time>
      </trkpt>
      <trkpt lat="42.85378871" lon="13.56005343">
        <ele>168.00000</ele>
        <time>2024-03-21T12:13:46Z</time>
      </trkpt>
      <trkpt lat="42.85378326" lon="13.55992661">
        <ele>168.00000</ele>
        <time>2024-03-21T12:13:47Z</time>
      </trkpt>
      <trkpt lat="42.85377345" lon="13.55982989">
        <ele>168.00000</ele>
        <time>2024-03-21T12:13:48Z</time>
      </trkpt>
      <trkpt lat="42.85376675" lon="13.55973936">
        <ele>167.00000</ele>
        <time>2024-03-21T12:13:49Z</time>
      </trkpt>
      <trkpt lat="42.85375116" lon="13.55967130">
        <ele>167.00000</ele>
        <time>2024-03-21T12:13:50Z</time>
      </trkpt>
      <trkpt lat="42.85373833" lon="13.55959251">
        <ele>167.00000</ele>
        <time>2024-03-21T12:13:51Z</time>
      </trkpt>
      <trkpt lat="42.85373632" lon="13.55950056">
        <ele>166.00000</ele>
        <time>2024-03-21T12:13:52Z</time>
      </trkpt>
      <trkpt lat="42.85373993" lon="13.55943929">
        <ele>166.00000</ele>
        <time>2024-03-21T12:13:53Z</time>
      </trkpt>
      <trkpt lat="42.85374504" lon="13.55933988">
        <ele>166.00000</ele>
        <time>2024-03-21T12:13:54Z</time>
      </trkpt>
      <trkpt lat="42.85374554" lon="13.55926847">
        <ele>165.00000</ele>
        <time>2024-03-21T12:13:55Z</time>
      </trkpt>
      <trkpt lat="42.85373155" lon="13.55915950">
        <ele>165.00000</ele>
        <time>2024-03-21T12:13:56Z</time>
      </trkpt>
      <trkpt lat="42.85371269" lon="13.55908541">
        <ele>165.00000</ele>
        <time>2024-03-21T12:13:57Z</time>
      </trkpt>
      <trkpt lat="42.85368813" lon="13.55898901">
        <ele>165.00000</ele>
        <time>2024-03-21T12:13:58Z</time>
      </trkpt>
      <trkpt lat="42.85366374" lon="13.55888944">
        <ele>164.00000</ele>
        <time>2024-03-21T12:13:59Z</time>
      </trkpt>
      <trkpt lat="42.85363834" lon="13.55878491">
        <ele>164.00000</ele>
        <time>2024-03-21T12:14:00Z</time>
      </trkpt>
      <trkpt lat="42.85361831" lon="13.55868232">
        <ele>164.00000</ele>
        <time>2024-03-21T12:14:01Z</time>
      </trkpt>
      <trkpt lat="42.85360037" lon="13.55857796">
        <ele>164.00000</ele>
        <time>2024-03-21T12:14:02Z</time>
      </trkpt>
      <trkpt lat="42.85358671" lon="13.55847302">
        <ele>164.00000</ele>
        <time>2024-03-21T12:14:03Z</time>
      </trkpt>
      <trkpt lat="42.85357162" lon="13.55836548">
        <ele>165.00000</ele>
        <time>2024-03-21T12:14:04Z</time>
      </trkpt>
      <trkpt lat="42.85355410" lon="13.55825493">
        <ele>166.00000</ele>
        <time>2024-03-21T12:14:05Z</time>
      </trkpt>
      <trkpt lat="42.85353851" lon="13.55813984">
        <ele>167.00000</ele>
        <time>2024-03-21T12:14:06Z</time>
      </trkpt>
      <trkpt lat="42.85352376" lon="13.55802945">
        <ele>167.00000</ele>
        <time>2024-03-21T12:14:07Z</time>
      </trkpt>
      <trkpt lat="42.85350892" lon="13.55790280">
        <ele>167.00000</ele>
        <time>2024-03-21T12:14:08Z</time>
      </trkpt>
      <trkpt lat="42.85349702" lon="13.55782024">
        <ele>168.00000</ele>
        <time>2024-03-21T12:14:09Z</time>
      </trkpt>
      <trkpt lat="42.85348151" lon="13.55771999">
        <ele>168.00000</ele>
        <time>2024-03-21T12:14:10Z</time>
      </trkpt>
      <trkpt lat="42.85346676" lon="13.55762226">
        <ele>170.00000</ele>
        <time>2024-03-21T12:14:11Z</time>
      </trkpt>
      <trkpt lat="42.85345176" lon="13.55752855">
        <ele>171.00000</ele>
        <time>2024-03-21T12:14:12Z</time>
      </trkpt>
      <trkpt lat="42.85343625" lon="13.55742914">
        <ele>172.00000</ele>
        <time>2024-03-21T12:14:13Z</time>
      </trkpt>
      <trkpt lat="42.85341940" lon="13.55733166">
        <ele>173.00000</ele>
        <time>2024-03-21T12:14:14Z</time>
      </trkpt>
      <trkpt lat="42.85339778" lon="13.55723854">
        <ele>175.00000</ele>
        <time>2024-03-21T12:14:15Z</time>
      </trkpt>
      <trkpt lat="42.85337431" lon="13.55714919">
        <ele>176.00000</ele>
        <time>2024-03-21T12:14:16Z</time>
      </trkpt>
      <trkpt lat="42.85334941" lon="13.55705866">
        <ele>176.00000</ele>
        <time>2024-03-21T12:14:17Z</time>
      </trkpt>
      <trkpt lat="42.85331505" lon="13.55695514">
        <ele>177.00000</ele>
        <time>2024-03-21T12:14:18Z</time>
      </trkpt>
      <trkpt lat="42.85328965" lon="13.55689094">
        <ele>176.00000</ele>
        <time>2024-03-21T12:14:19Z</time>
      </trkpt>
      <trkpt lat="42.85325336" lon="13.55680754">
        <ele>175.00000</ele>
        <time>2024-03-21T12:14:20Z</time>
      </trkpt>
      <trkpt lat="42.85321648" lon="13.55672305">
        <ele>175.00000</ele>
        <time>2024-03-21T12:14:21Z</time>
      </trkpt>
      <trkpt lat="42.85317775" lon="13.55663747">
        <ele>174.00000</ele>
        <time>2024-03-21T12:14:22Z</time>
      </trkpt>
      <trkpt lat="42.85313660" lon="13.55655617">
        <ele>173.00000</ele>
        <time>2024-03-21T12:14:23Z</time>
      </trkpt>
      <trkpt lat="42.85309528" lon="13.55647444">
        <ele>173.00000</ele>
        <time>2024-03-21T12:14:24Z</time>
      </trkpt>
      <trkpt lat="42.85305747" lon="13.55639322">
        <ele>173.00000</ele>
        <time>2024-03-21T12:14:25Z</time>
      </trkpt>
      <trkpt lat="42.85301087" lon="13.55629230">
        <ele>173.00000</ele>
        <time>2024-03-21T12:14:26Z</time>
      </trkpt>
      <trkpt lat="42.85297265" lon="13.55621024">
        <ele>173.00000</ele>
        <time>2024-03-21T12:14:27Z</time>
      </trkpt>
      <trkpt lat="42.85294339" lon="13.55614520">
        <ele>173.00000</ele>
        <time>2024-03-21T12:14:28Z</time>
      </trkpt>
      <trkpt lat="42.85290735" lon="13.55606306">
        <ele>173.00000</ele>
        <time>2024-03-21T12:14:29Z</time>
      </trkpt>
      <trkpt lat="42.85286821" lon="13.55598092">
        <ele>173.00000</ele>
        <time>2024-03-21T12:14:30Z</time>
      </trkpt>
      <trkpt lat="42.85281934" lon="13.55588218">
        <ele>174.00000</ele>
        <time>2024-03-21T12:14:31Z</time>
      </trkpt>
      <trkpt lat="42.85278707" lon="13.55581378">
        <ele>174.00000</ele>
        <time>2024-03-21T12:14:32Z</time>
      </trkpt>
      <trkpt lat="42.85274516" lon="13.55572921">
        <ele>174.00000</ele>
        <time>2024-03-21T12:14:33Z</time>
      </trkpt>
      <trkpt lat="42.85269462" lon="13.55562896">
        <ele>174.00000</ele>
        <time>2024-03-21T12:14:34Z</time>
      </trkpt>
      <trkpt lat="42.85265330" lon="13.55554573">
        <ele>174.00000</ele>
        <time>2024-03-21T12:14:35Z</time>
      </trkpt>
      <trkpt lat="42.85261147" lon="13.55546099">
        <ele>173.00000</ele>
        <time>2024-03-21T12:14:36Z</time>
      </trkpt>
      <trkpt lat="42.85257744" lon="13.55539200">
        <ele>173.00000</ele>
        <time>2024-03-21T12:14:37Z</time>
      </trkpt>
      <trkpt lat="42.85253754" lon="13.55530617">
        <ele>173.00000</ele>
        <time>2024-03-21T12:14:38Z</time>
      </trkpt>
      <trkpt lat="42.85249002" lon="13.55520509">
        <ele>173.00000</ele>
        <time>2024-03-21T12:14:39Z</time>
      </trkpt>
      <trkpt lat="42.85245699" lon="13.55513661">
        <ele>174.00000</ele>
        <time>2024-03-21T12:14:40Z</time>
      </trkpt>
      <trkpt lat="42.85241659" lon="13.55505120">
        <ele>175.00000</ele>
        <time>2024-03-21T12:14:41Z</time>
      </trkpt>
      <trkpt lat="42.85237636" lon="13.55496612">
        <ele>175.00000</ele>
        <time>2024-03-21T12:14:42Z</time>
      </trkpt>
      <trkpt lat="42.85233755" lon="13.55488104">
        <ele>176.00000</ele>
        <time>2024-03-21T12:14:43Z</time>
      </trkpt>
      <trkpt lat="42.85229053" lon="13.55477795">
        <ele>177.00000</ele>
        <time>2024-03-21T12:14:44Z</time>
      </trkpt>
      <trkpt lat="42.85225742" lon="13.55471131">
        <ele>178.00000</ele>
        <time>2024-03-21T12:14:45Z</time>
      </trkpt>
      <trkpt lat="42.85221794" lon="13.55462741">
        <ele>178.00000</ele>
        <time>2024-03-21T12:14:46Z</time>
      </trkpt>
      <trkpt lat="42.85217913" lon="13.55454334">
        <ele>178.00000</ele>
        <time>2024-03-21T12:14:47Z</time>
      </trkpt>
      <trkpt lat="42.85214167" lon="13.55446061">
        <ele>178.00000</ele>
        <time>2024-03-21T12:14:48Z</time>
      </trkpt>
      <trkpt lat="42.85210244" lon="13.55437612">
        <ele>178.00000</ele>
        <time>2024-03-21T12:14:49Z</time>
      </trkpt>
      <trkpt lat="42.85205525" lon="13.55427009">
        <ele>178.00000</ele>
        <time>2024-03-21T12:14:50Z</time>
      </trkpt>
      <trkpt lat="42.85202239" lon="13.55419775">
        <ele>177.00000</ele>
        <time>2024-03-21T12:14:51Z</time>
      </trkpt>
      <trkpt lat="42.85198174" lon="13.55410563">
        <ele>177.00000</ele>
        <time>2024-03-21T12:14:52Z</time>
      </trkpt>
      <trkpt lat="42.85194469" lon="13.55401234">
        <ele>177.00000</ele>
        <time>2024-03-21T12:14:53Z</time>
      </trkpt>
      <trkpt lat="42.85190907" lon="13.55391553">
        <ele>178.00000</ele>
        <time>2024-03-21T12:14:54Z</time>
      </trkpt>
      <trkpt lat="42.85187764" lon="13.55381394">
        <ele>178.00000</ele>
        <time>2024-03-21T12:14:55Z</time>
      </trkpt>
      <trkpt lat="42.85185257" lon="13.55371068">
        <ele>179.00000</ele>
        <time>2024-03-21T12:14:56Z</time>
      </trkpt>
      <trkpt lat="42.85183288" lon="13.55360238">
        <ele>179.00000</ele>
        <time>2024-03-21T12:14:57Z</time>
      </trkpt>
      <trkpt lat="42.85181729" lon="13.55348998">
        <ele>180.00000</ele>
        <time>2024-03-21T12:14:58Z</time>
      </trkpt>
      <trkpt lat="42.85180723" lon="13.55337280">
        <ele>180.00000</ele>
        <time>2024-03-21T12:14:59Z</time>
      </trkpt>
      <trkpt lat="42.85180681" lon="13.55325353">
        <ele>180.00000</ele>
        <time>2024-03-21T12:15:00Z</time>
      </trkpt>
      <trkpt lat="42.85180991" lon="13.55313727">
        <ele>178.00000</ele>
        <time>2024-03-21T12:15:01Z</time>
      </trkpt>
      <trkpt lat="42.85181561" lon="13.55302009">
        <ele>177.00000</ele>
        <time>2024-03-21T12:15:02Z</time>
      </trkpt>
      <trkpt lat="42.85181410" lon="13.55290400">
        <ele>175.00000</ele>
        <time>2024-03-21T12:15:03Z</time>
      </trkpt>
      <trkpt lat="42.85180656" lon="13.55278942">
        <ele>174.00000</ele>
        <time>2024-03-21T12:15:04Z</time>
      </trkpt>
      <trkpt lat="42.85178887" lon="13.55267719">
        <ele>173.00000</ele>
        <time>2024-03-21T12:15:05Z</time>
      </trkpt>
      <trkpt lat="42.85176029" lon="13.55256873">
        <ele>173.00000</ele>
        <time>2024-03-21T12:15:06Z</time>
      </trkpt>
      <trkpt lat="42.85171771" lon="13.55246865">
        <ele>173.00000</ele>
        <time>2024-03-21T12:15:07Z</time>
      </trkpt>
      <trkpt lat="42.85166507" lon="13.55237536">
        <ele>173.00000</ele>
        <time>2024-03-21T12:15:08Z</time>
      </trkpt>
      <trkpt lat="42.85159399" lon="13.55227025">
        <ele>175.00000</ele>
        <time>2024-03-21T12:15:09Z</time>
      </trkpt>
      <trkpt lat="42.85153909" lon="13.55220193">
        <ele>175.00000</ele>
        <time>2024-03-21T12:15:10Z</time>
      </trkpt>
      <trkpt lat="42.85146793" lon="13.55211376">
        <ele>176.00000</ele>
        <time>2024-03-21T12:15:11Z</time>
      </trkpt>
      <trkpt lat="42.85140079" lon="13.55201661">
        <ele>176.00000</ele>
        <time>2024-03-21T12:15:12Z</time>
      </trkpt>
      <trkpt lat="42.85134019" lon="13.55190572">
        <ele>176.00000</ele>
        <time>2024-03-21T12:15:13Z</time>
      </trkpt>
      <trkpt lat="42.85129308" lon="13.55178125">
        <ele>176.00000</ele>
        <time>2024-03-21T12:15:14Z</time>
      </trkpt>
      <trkpt lat="42.85125511" lon="13.55164672">
        <ele>175.00000</ele>
        <time>2024-03-21T12:15:15Z</time>
      </trkpt>
      <trkpt lat="42.85121932" lon="13.55150951">
        <ele>175.00000</ele>
        <time>2024-03-21T12:15:16Z</time>
      </trkpt>
      <trkpt lat="42.85118353" lon="13.55137162">
        <ele>174.00000</ele>
        <time>2024-03-21T12:15:17Z</time>
      </trkpt>
      <trkpt lat="42.85114984" lon="13.55123240">
        <ele>173.00000</ele>
        <time>2024-03-21T12:15:18Z</time>
      </trkpt>
      <trkpt lat="42.85111924" lon="13.55109284">
        <ele>172.00000</ele>
        <time>2024-03-21T12:15:19Z</time>
      </trkpt>
      <trkpt lat="42.85109234" lon="13.55095328">
        <ele>173.00000</ele>
        <time>2024-03-21T12:15:20Z</time>
      </trkpt>
      <trkpt lat="42.85106392" lon="13.55081481">
        <ele>173.00000</ele>
        <time>2024-03-21T12:15:21Z</time>
      </trkpt>
      <trkpt lat="42.85103718" lon="13.55067383">
        <ele>174.00000</ele>
        <time>2024-03-21T12:15:22Z</time>
      </trkpt>
      <trkpt lat="42.85101111" lon="13.55053134">
        <ele>175.00000</ele>
        <time>2024-03-21T12:15:23Z</time>
      </trkpt>
      <trkpt lat="42.85098706" lon="13.55038910">
        <ele>176.00000</ele>
        <time>2024-03-21T12:15:24Z</time>
      </trkpt>
      <trkpt lat="42.85096258" lon="13.55024912">
        <ele>176.00000</ele>
        <time>2024-03-21T12:15:25Z</time>
      </trkpt>
      <trkpt lat="42.85093652" lon="13.55011115">
        <ele>175.00000</ele>
        <time>2024-03-21T12:15:26Z</time>
      </trkpt>
      <trkpt lat="42.85090927" lon="13.54997017">
        <ele>175.00000</ele>
        <time>2024-03-21T12:15:27Z</time>
      </trkpt>
      <trkpt lat="42.85088530" lon="13.54982935">
        <ele>174.00000</ele>
        <time>2024-03-21T12:15:28Z</time>
      </trkpt>
      <trkpt lat="42.85085949" lon="13.54968929">
        <ele>172.00000</ele>
        <time>2024-03-21T12:15:29Z</time>
      </trkpt>
      <trkpt lat="42.85082965" lon="13.54954814">
        <ele>170.00000</ele>
        <time>2024-03-21T12:15:30Z</time>
      </trkpt>
      <trkpt lat="42.85079411" lon="13.54941135">
        <ele>169.00000</ele>
        <time>2024-03-21T12:15:31Z</time>
      </trkpt>
      <trkpt lat="42.85074306" lon="13.54925997">
        <ele>168.00000</ele>
        <time>2024-03-21T12:15:32Z</time>
      </trkpt>
      <trkpt lat="42.85069562" lon="13.54917012">
        <ele>168.00000</ele>
        <time>2024-03-21T12:15:33Z</time>
      </trkpt>
      <trkpt lat="42.85062680" lon="13.54906719">
        <ele>169.00000</ele>
        <time>2024-03-21T12:15:34Z</time>
      </trkpt>
      <trkpt lat="42.85054910" lon="13.54897163">
        <ele>169.00000</ele>
        <time>2024-03-21T12:15:35Z</time>
      </trkpt>
      <trkpt lat="42.85046604" lon="13.54888413">
        <ele>169.00000</ele>
        <time>2024-03-21T12:15:36Z</time>
      </trkpt>
      <trkpt lat="42.85037811" lon="13.54879930">
        <ele>168.00000</ele>
        <time>2024-03-21T12:15:37Z</time>
      </trkpt>
      <trkpt lat="42.85029044" lon="13.54871934">
        <ele>168.00000</ele>
        <time>2024-03-21T12:15:38Z</time>
      </trkpt>
      <trkpt lat="42.85020385" lon="13.54863954">
        <ele>169.00000</ele>
        <time>2024-03-21T12:15:39Z</time>
      </trkpt>
      <trkpt lat="42.85010277" lon="13.54853837">
        <ele>169.00000</ele>
        <time>2024-03-21T12:15:40Z</time>
      </trkpt>
      <trkpt lat="42.85002314" lon="13.54844684">
        <ele>170.00000</ele>
        <time>2024-03-21T12:15:41Z</time>
      </trkpt>
      <trkpt lat="42.84996556" lon="13.54836487">
        <ele>170.00000</ele>
        <time>2024-03-21T12:15:42Z</time>
      </trkpt>
      <trkpt lat="42.84990923" lon="13.54824668">
        <ele>171.00000</ele>
        <time>2024-03-21T12:15:43Z</time>
      </trkpt>
      <trkpt lat="42.84988165" lon="13.54811358">
        <ele>170.00000</ele>
        <time>2024-03-21T12:15:44Z</time>
      </trkpt>
      <trkpt lat="42.84986346" lon="13.54797871">
        <ele>170.00000</ele>
        <time>2024-03-21T12:15:45Z</time>
      </trkpt>
      <trkpt lat="42.84985198" lon="13.54784133">
        <ele>169.00000</ele>
        <time>2024-03-21T12:15:46Z</time>
      </trkpt>
      <trkpt lat="42.84984452" lon="13.54770270">
        <ele>168.00000</ele>
        <time>2024-03-21T12:15:47Z</time>
      </trkpt>
      <trkpt lat="42.84983270" lon="13.54756339">
        <ele>167.00000</ele>
        <time>2024-03-21T12:15:48Z</time>
      </trkpt>
      <trkpt lat="42.84981736" lon="13.54742467">
        <ele>166.00000</ele>
        <time>2024-03-21T12:15:49Z</time>
      </trkpt>
      <trkpt lat="42.84980437" lon="13.54728620">
        <ele>165.00000</ele>
        <time>2024-03-21T12:15:50Z</time>
      </trkpt>
      <trkpt lat="42.84978870" lon="13.54712527">
        <ele>165.00000</ele>
        <time>2024-03-21T12:15:51Z</time>
      </trkpt>
      <trkpt lat="42.84977738" lon="13.54699225">
        <ele>165.00000</ele>
        <time>2024-03-21T12:15:52Z</time>
      </trkpt>
      <trkpt lat="42.84976908" lon="13.54685713">
        <ele>165.00000</ele>
        <time>2024-03-21T12:15:53Z</time>
      </trkpt>
      <trkpt lat="42.84976079" lon="13.54675009">
        <ele>165.00000</ele>
        <time>2024-03-21T12:15:54Z</time>
      </trkpt>
      <trkpt lat="42.84975165" lon="13.54661724">
        <ele>166.00000</ele>
        <time>2024-03-21T12:15:55Z</time>
      </trkpt>
      <trkpt lat="42.84973732" lon="13.54645882">
        <ele>167.00000</ele>
        <time>2024-03-21T12:15:56Z</time>
      </trkpt>
      <trkpt lat="42.84972751" lon="13.54632488">
        <ele>168.00000</ele>
        <time>2024-03-21T12:15:57Z</time>
      </trkpt>
      <trkpt lat="42.84972106" lon="13.54621642">
        <ele>168.00000</ele>
        <time>2024-03-21T12:15:58Z</time>
      </trkpt>
      <trkpt lat="42.84971091" lon="13.54608189">
        <ele>169.00000</ele>
        <time>2024-03-21T12:15:59Z</time>
      </trkpt>
      <trkpt lat="42.84969792" lon="13.54594660">
        <ele>168.00000</ele>
        <time>2024-03-21T12:16:00Z</time>
      </trkpt>
      <trkpt lat="42.84967848" lon="13.54581048">
        <ele>168.00000</ele>
        <time>2024-03-21T12:16:01Z</time>
      </trkpt>
      <trkpt lat="42.84964880" lon="13.54564779">
        <ele>167.00000</ele>
        <time>2024-03-21T12:16:02Z</time>
      </trkpt>
      <trkpt lat="42.84961938" lon="13.54551259">
        <ele>167.00000</ele>
        <time>2024-03-21T12:16:03Z</time>
      </trkpt>
      <trkpt lat="42.84959181" lon="13.54540790">
        <ele>167.00000</ele>
        <time>2024-03-21T12:16:04Z</time>
      </trkpt>
      <trkpt lat="42.84955283" lon="13.54528443">
        <ele>167.00000</ele>
        <time>2024-03-21T12:16:05Z</time>
      </trkpt>
      <trkpt lat="42.84950279" lon="13.54514186">
        <ele>167.00000</ele>
        <time>2024-03-21T12:16:06Z</time>
      </trkpt>
      <trkpt lat="42.84946231" lon="13.54502644">
        <ele>167.00000</ele>
        <time>2024-03-21T12:16:07Z</time>
      </trkpt>
      <trkpt lat="42.84942149" lon="13.54491454">
        <ele>167.00000</ele>
        <time>2024-03-21T12:16:08Z</time>
      </trkpt>
      <trkpt lat="42.84938964" lon="13.54482687">
        <ele>167.00000</ele>
        <time>2024-03-21T12:16:09Z</time>
      </trkpt>
      <trkpt lat="42.84935368" lon="13.54471824">
        <ele>167.00000</ele>
        <time>2024-03-21T12:16:10Z</time>
      </trkpt>
      <trkpt lat="42.84932174" lon="13.54461271">
        <ele>166.00000</ele>
        <time>2024-03-21T12:16:11Z</time>
      </trkpt>
      <trkpt lat="42.84929391" lon="13.54450894">
        <ele>166.00000</ele>
        <time>2024-03-21T12:16:12Z</time>
      </trkpt>
      <trkpt lat="42.84926801" lon="13.54440500">
        <ele>165.00000</ele>
        <time>2024-03-21T12:16:13Z</time>
      </trkpt>
      <trkpt lat="42.84924094" lon="13.54430166">
        <ele>166.00000</ele>
        <time>2024-03-21T12:16:14Z</time>
      </trkpt>
      <trkpt lat="42.84921722" lon="13.54420040">
        <ele>165.00000</ele>
        <time>2024-03-21T12:16:15Z</time>
      </trkpt>
      <trkpt lat="42.84919241" lon="13.54409982">
        <ele>166.00000</ele>
        <time>2024-03-21T12:16:16Z</time>
      </trkpt>
      <trkpt lat="42.84916140" lon="13.54398147">
        <ele>167.00000</ele>
        <time>2024-03-21T12:16:17Z</time>
      </trkpt>
      <trkpt lat="42.84913424" lon="13.54388482">
        <ele>167.00000</ele>
        <time>2024-03-21T12:16:18Z</time>
      </trkpt>
      <trkpt lat="42.84910649" lon="13.54379178">
        <ele>168.00000</ele>
        <time>2024-03-21T12:16:19Z</time>
      </trkpt>
      <trkpt lat="42.84908629" lon="13.54371702">
        <ele>169.00000</ele>
        <time>2024-03-21T12:16:20Z</time>
      </trkpt>
      <trkpt lat="42.84906417" lon="13.54362088">
        <ele>169.00000</ele>
        <time>2024-03-21T12:16:21Z</time>
      </trkpt>
      <trkpt lat="42.84904045" lon="13.54350579">
        <ele>171.00000</ele>
        <time>2024-03-21T12:16:22Z</time>
      </trkpt>
      <trkpt lat="42.84901890" lon="13.54341217">
        <ele>173.00000</ele>
        <time>2024-03-21T12:16:23Z</time>
      </trkpt>
      <trkpt lat="42.84899636" lon="13.54332022">
        <ele>174.00000</ele>
        <time>2024-03-21T12:16:24Z</time>
      </trkpt>
      <trkpt lat="42.84897775" lon="13.54324243">
        <ele>175.00000</ele>
        <time>2024-03-21T12:16:25Z</time>
      </trkpt>
      <trkpt lat="42.84895990" lon="13.54314403">
        <ele>176.00000</ele>
        <time>2024-03-21T12:16:26Z</time>
      </trkpt>
      <trkpt lat="42.84894699" lon="13.54302668">
        <ele>177.00000</ele>
        <time>2024-03-21T12:16:27Z</time>
      </trkpt>
      <trkpt lat="42.84894338" lon="13.54292669">
        <ele>177.00000</ele>
        <time>2024-03-21T12:16:28Z</time>
      </trkpt>
      <trkpt lat="42.84894372" lon="13.54282787">
        <ele>177.00000</ele>
        <time>2024-03-21T12:16:29Z</time>
      </trkpt>
      <trkpt lat="42.84894657" lon="13.54274723">
        <ele>178.00000</ele>
        <time>2024-03-21T12:16:30Z</time>
      </trkpt>
      <trkpt lat="42.84895260" lon="13.54264615">
        <ele>178.00000</ele>
        <time>2024-03-21T12:16:31Z</time>
      </trkpt>
      <trkpt lat="42.84896249" lon="13.54254431">
        <ele>179.00000</ele>
        <time>2024-03-21T12:16:32Z</time>
      </trkpt>
      <trkpt lat="42.84897599" lon="13.54242847">
        <ele>180.00000</ele>
        <time>2024-03-21T12:16:33Z</time>
      </trkpt>
      <trkpt lat="42.84899124" lon="13.54233727">
        <ele>180.00000</ele>
        <time>2024-03-21T12:16:34Z</time>
      </trkpt>
      <trkpt lat="42.84901035" lon="13.54224340">
        <ele>181.00000</ele>
        <time>2024-03-21T12:16:35Z</time>
      </trkpt>
      <trkpt lat="42.84902804" lon="13.54216771">
        <ele>181.00000</ele>
        <time>2024-03-21T12:16:36Z</time>
      </trkpt>
      <trkpt lat="42.84905495" lon="13.54205556">
        <ele>182.00000</ele>
        <time>2024-03-21T12:16:37Z</time>
      </trkpt>
      <trkpt lat="42.84908194" lon="13.54196319">
        <ele>182.00000</ele>
        <time>2024-03-21T12:16:38Z</time>
      </trkpt>
      <trkpt lat="42.84911504" lon="13.54187401">
        <ele>182.00000</ele>
        <time>2024-03-21T12:16:39Z</time>
      </trkpt>
      <trkpt lat="42.84915142" lon="13.54178641">
        <ele>181.00000</ele>
        <time>2024-03-21T12:16:40Z</time>
      </trkpt>
      <trkpt lat="42.84918160" lon="13.54171626">
        <ele>181.00000</ele>
        <time>2024-03-21T12:16:41Z</time>
      </trkpt>
      <trkpt lat="42.84921714" lon="13.54162917">
        <ele>181.00000</ele>
        <time>2024-03-21T12:16:42Z</time>
      </trkpt>
      <trkpt lat="42.84926055" lon="13.54152247">
        <ele>181.00000</ele>
        <time>2024-03-21T12:16:43Z</time>
      </trkpt>
      <trkpt lat="42.84929559" lon="13.54143563">
        <ele>181.00000</ele>
        <time>2024-03-21T12:16:44Z</time>
      </trkpt>
      <trkpt lat="42.84932602" lon="13.54134938">
        <ele>181.00000</ele>
        <time>2024-03-21T12:16:45Z</time>
      </trkpt>
      <trkpt lat="42.84934898" lon="13.54127814">
        <ele>181.00000</ele>
        <time>2024-03-21T12:16:46Z</time>
      </trkpt>
      <trkpt lat="42.84937371" lon="13.54118485">
        <ele>181.00000</ele>
        <time>2024-03-21T12:16:47Z</time>
      </trkpt>
      <trkpt lat="42.84939860" lon="13.54106901">
        <ele>181.00000</ele>
        <time>2024-03-21T12:16:48Z</time>
      </trkpt>
      <trkpt lat="42.84941520" lon="13.54097245">
        <ele>181.00000</ele>
        <time>2024-03-21T12:16:49Z</time>
      </trkpt>
      <trkpt lat="42.84943037" lon="13.54087446">
        <ele>182.00000</ele>
        <time>2024-03-21T12:16:50Z</time>
      </trkpt>
      <trkpt lat="42.84943942" lon="13.54079450">
        <ele>182.00000</ele>
        <time>2024-03-21T12:16:51Z</time>
      </trkpt>
      <trkpt lat="42.84944931" lon="13.54067355">
        <ele>182.00000</ele>
        <time>2024-03-21T12:16:52Z</time>
      </trkpt>
      <trkpt lat="42.84945476" lon="13.54057221">
        <ele>182.00000</ele>
        <time>2024-03-21T12:16:53Z</time>
      </trkpt>
      <trkpt lat="42.84945703" lon="13.54047104">
        <ele>183.00000</ele>
        <time>2024-03-21T12:16:54Z</time>
      </trkpt>
      <trkpt lat="42.84945569" lon="13.54038764">
        <ele>183.00000</ele>
        <time>2024-03-21T12:16:55Z</time>
      </trkpt>
      <trkpt lat="42.84945049" lon="13.54026183">
        <ele>183.00000</ele>
        <time>2024-03-21T12:16:56Z</time>
      </trkpt>
      <trkpt lat="42.84944621" lon="13.54017809">
        <ele>183.00000</ele>
        <time>2024-03-21T12:16:57Z</time>
      </trkpt>
      <trkpt lat="42.84943657" lon="13.54005446">
        <ele>183.00000</ele>
        <time>2024-03-21T12:16:58Z</time>
      </trkpt>
      <trkpt lat="42.84942643" lon="13.53994977">
        <ele>184.00000</ele>
        <time>2024-03-21T12:16:59Z</time>
      </trkpt>
      <trkpt lat="42.84941964" lon="13.53984475">
        <ele>184.00000</ele>
        <time>2024-03-21T12:17:00Z</time>
      </trkpt>
      <trkpt lat="42.84941344" lon="13.53974048">
        <ele>185.00000</ele>
        <time>2024-03-21T12:17:01Z</time>
      </trkpt>
      <trkpt lat="42.84940774" lon="13.53965699">
        <ele>185.00000</ele>
        <time>2024-03-21T12:17:02Z</time>
      </trkpt>
      <trkpt lat="42.84940388" lon="13.53952917">
        <ele>185.00000</ele>
        <time>2024-03-21T12:17:03Z</time>
      </trkpt>
      <trkpt lat="42.84940506" lon="13.53942221">
        <ele>185.00000</ele>
        <time>2024-03-21T12:17:04Z</time>
      </trkpt>
      <trkpt lat="42.84940799" lon="13.53931535">
        <ele>184.00000</ele>
        <time>2024-03-21T12:17:05Z</time>
      </trkpt>
      <trkpt lat="42.84941260" lon="13.53920739">
        <ele>183.00000</ele>
        <time>2024-03-21T12:17:06Z</time>
      </trkpt>
      <trkpt lat="42.84941704" lon="13.53909951">
        <ele>183.00000</ele>
        <time>2024-03-21T12:17:07Z</time>
      </trkpt>
      <trkpt lat="42.84942434" lon="13.53899214">
        <ele>182.00000</ele>
        <time>2024-03-21T12:17:08Z</time>
      </trkpt>
      <trkpt lat="42.84943305" lon="13.53888493">
        <ele>182.00000</ele>
        <time>2024-03-21T12:17:09Z</time>
      </trkpt>
      <trkpt lat="42.84944169" lon="13.53877631">
        <ele>182.00000</ele>
        <time>2024-03-21T12:17:10Z</time>
      </trkpt>
      <trkpt lat="42.84945124" lon="13.53866918">
        <ele>181.00000</ele>
        <time>2024-03-21T12:17:11Z</time>
      </trkpt>
      <trkpt lat="42.84946256" lon="13.53855947">
        <ele>182.00000</ele>
        <time>2024-03-21T12:17:12Z</time>
      </trkpt>
      <trkpt lat="42.84947387" lon="13.53844966">
        <ele>182.00000</ele>
        <time>2024-03-21T12:17:13Z</time>
      </trkpt>
      <trkpt lat="42.84948628" lon="13.53834112">
        <ele>182.00000</ele>
        <time>2024-03-21T12:17:14Z</time>
      </trkpt>
      <trkpt lat="42.84950145" lon="13.53823165">
        <ele>183.00000</ele>
        <time>2024-03-21T12:17:15Z</time>
      </trkpt>
      <trkpt lat="42.84951687" lon="13.53812227">
        <ele>184.00000</ele>
        <time>2024-03-21T12:17:16Z</time>
      </trkpt>
      <trkpt lat="42.84953288" lon="13.53801347">
        <ele>185.00000</ele>
        <time>2024-03-21T12:17:17Z</time>
      </trkpt>
      <trkpt lat="42.84955048" lon="13.53790417">
        <ele>185.00000</ele>
        <time>2024-03-21T12:17:18Z</time>
      </trkpt>
      <trkpt lat="42.84956675" lon="13.53779353">
        <ele>186.00000</ele>
        <time>2024-03-21T12:17:19Z</time>
      </trkpt>
      <trkpt lat="42.84958435" lon="13.53768406">
        <ele>186.00000</ele>
        <time>2024-03-21T12:17:20Z</time>
      </trkpt>
      <trkpt lat="42.84959759" lon="13.53759563">
        <ele>186.00000</ele>
        <time>2024-03-21T12:17:21Z</time>
      </trkpt>
      <trkpt lat="42.84961762" lon="13.53746186">
        <ele>185.00000</ele>
        <time>2024-03-21T12:17:22Z</time>
      </trkpt>
      <trkpt lat="42.84963472" lon="13.53734878">
        <ele>185.00000</ele>
        <time>2024-03-21T12:17:23Z</time>
      </trkpt>
      <trkpt lat="42.84964797" lon="13.53725851">
        <ele>184.00000</ele>
        <time>2024-03-21T12:17:24Z</time>
      </trkpt>
      <trkpt lat="42.84966506" lon="13.53714594">
        <ele>184.00000</ele>
        <time>2024-03-21T12:17:25Z</time>
      </trkpt>
      <trkpt lat="42.84968309" lon="13.53703480">
        <ele>183.00000</ele>
        <time>2024-03-21T12:17:26Z</time>
      </trkpt>
      <trkpt lat="42.84970002" lon="13.53692307">
        <ele>183.00000</ele>
        <time>2024-03-21T12:17:27Z</time>
      </trkpt>
      <trkpt lat="42.84971519" lon="13.53681268">
        <ele>182.00000</ele>
        <time>2024-03-21T12:17:28Z</time>
      </trkpt>
      <trkpt lat="42.84972977" lon="13.53670103">
        <ele>182.00000</ele>
        <time>2024-03-21T12:17:29Z</time>
      </trkpt>
      <trkpt lat="42.84974562" lon="13.53658779">
        <ele>184.00000</ele>
        <time>2024-03-21T12:17:30Z</time>
      </trkpt>
      <trkpt lat="42.84976028" lon="13.53647405">
        <ele>186.00000</ele>
        <time>2024-03-21T12:17:31Z</time>
      </trkpt>
      <trkpt lat="42.84977453" lon="13.53636207">
        <ele>188.00000</ele>
        <time>2024-03-21T12:17:32Z</time>
      </trkpt>
      <trkpt lat="42.84979130" lon="13.53624983">
        <ele>187.00000</ele>
        <time>2024-03-21T12:17:33Z</time>
      </trkpt>
      <trkpt lat="42.84980689" lon="13.53613886">
        <ele>187.00000</ele>
        <time>2024-03-21T12:17:34Z</time>
      </trkpt>
      <trkpt lat="42.84982382" lon="13.53602905">
        <ele>188.00000</ele>
        <time>2024-03-21T12:17:35Z</time>
      </trkpt>
      <trkpt lat="42.84983899" lon="13.53591648">
        <ele>189.00000</ele>
        <time>2024-03-21T12:17:36Z</time>
      </trkpt>
      <trkpt lat="42.84985290" lon="13.53580383">
        <ele>189.00000</ele>
        <time>2024-03-21T12:17:37Z</time>
      </trkpt>
      <trkpt lat="42.84986774" lon="13.53569151">
        <ele>187.00000</ele>
        <time>2024-03-21T12:17:38Z</time>
      </trkpt>
      <trkpt lat="42.84988308" lon="13.53558087">
        <ele>186.00000</ele>
        <time>2024-03-21T12:17:39Z</time>
      </trkpt>
      <trkpt lat="42.84989573" lon="13.53546872">
        <ele>185.00000</ele>
        <time>2024-03-21T12:17:40Z</time>
      </trkpt>
      <trkpt lat="42.84990814" lon="13.53535473">
        <ele>183.00000</ele>
        <time>2024-03-21T12:17:41Z</time>
      </trkpt>
      <trkpt lat="42.84992004" lon="13.53524073">
        <ele>182.00000</ele>
        <time>2024-03-21T12:17:42Z</time>
      </trkpt>
      <trkpt lat="42.84993153" lon="13.53512615">
        <ele>182.00000</ele>
        <time>2024-03-21T12:17:43Z</time>
      </trkpt>
      <trkpt lat="42.84993974" lon="13.53501375">
        <ele>181.00000</ele>
        <time>2024-03-21T12:17:44Z</time>
      </trkpt>
      <trkpt lat="42.84994594" lon="13.53490177">
        <ele>181.00000</ele>
        <time>2024-03-21T12:17:45Z</time>
      </trkpt>
      <trkpt lat="42.84994955" lon="13.53478870">
        <ele>181.00000</ele>
        <time>2024-03-21T12:17:46Z</time>
      </trkpt>
      <trkpt lat="42.84995424" lon="13.53467613">
        <ele>181.00000</ele>
        <time>2024-03-21T12:17:47Z</time>
      </trkpt>
      <trkpt lat="42.84995994" lon="13.53456356">
        <ele>181.00000</ele>
        <time>2024-03-21T12:17:48Z</time>
      </trkpt>
      <trkpt lat="42.84996430" lon="13.53445015">
        <ele>181.00000</ele>
        <time>2024-03-21T12:17:49Z</time>
      </trkpt>
      <trkpt lat="42.84996924" lon="13.53433784">
        <ele>182.00000</ele>
        <time>2024-03-21T12:17:50Z</time>
      </trkpt>
      <trkpt lat="42.84997411" lon="13.53422426">
        <ele>182.00000</ele>
        <time>2024-03-21T12:17:51Z</time>
      </trkpt>
      <trkpt lat="42.84997478" lon="13.53411043">
        <ele>183.00000</ele>
        <time>2024-03-21T12:17:52Z</time>
      </trkpt>
      <trkpt lat="42.84997578" lon="13.53399619">
        <ele>184.00000</ele>
        <time>2024-03-21T12:17:53Z</time>
      </trkpt>
      <trkpt lat="42.84997520" lon="13.53388287">
        <ele>186.00000</ele>
        <time>2024-03-21T12:17:54Z</time>
      </trkpt>
      <trkpt lat="42.84997201" lon="13.53377114">
        <ele>187.00000</ele>
        <time>2024-03-21T12:17:55Z</time>
      </trkpt>
      <trkpt lat="42.84996966" lon="13.53365974">
        <ele>187.00000</ele>
        <time>2024-03-21T12:17:56Z</time>
      </trkpt>
      <trkpt lat="42.84996866" lon="13.53354994">
        <ele>189.00000</ele>
        <time>2024-03-21T12:17:57Z</time>
      </trkpt>
      <trkpt lat="42.84996614" lon="13.53343972">
        <ele>190.00000</ele>
        <time>2024-03-21T12:17:58Z</time>
      </trkpt>
      <trkpt lat="42.84996455" lon="13.53333285">
        <ele>191.00000</ele>
        <time>2024-03-21T12:17:59Z</time>
      </trkpt>
      <trkpt lat="42.84996245" lon="13.53320309">
        <ele>193.00000</ele>
        <time>2024-03-21T12:18:00Z</time>
      </trkpt>
      <trkpt lat="42.84996111" lon="13.53311844">
        <ele>194.00000</ele>
        <time>2024-03-21T12:18:01Z</time>
      </trkpt>
      <trkpt lat="42.84995902" lon="13.53301442">
        <ele>195.00000</ele>
        <time>2024-03-21T12:18:02Z</time>
      </trkpt>
      <trkpt lat="42.84995583" lon="13.53291082">
        <ele>195.00000</ele>
        <time>2024-03-21T12:18:03Z</time>
      </trkpt>
      <trkpt lat="42.84995273" lon="13.53280697">
        <ele>196.00000</ele>
        <time>2024-03-21T12:18:04Z</time>
      </trkpt>
      <trkpt lat="42.84994754" lon="13.53270320">
        <ele>196.00000</ele>
        <time>2024-03-21T12:18:05Z</time>
      </trkpt>
      <trkpt lat="42.84994008" lon="13.53257906">
        <ele>196.00000</ele>
        <time>2024-03-21T12:18:06Z</time>
      </trkpt>
      <trkpt lat="42.84993597" lon="13.53249533">
        <ele>195.00000</ele>
        <time>2024-03-21T12:18:07Z</time>
      </trkpt>
      <trkpt lat="42.84992918" lon="13.53239290">
        <ele>194.00000</ele>
        <time>2024-03-21T12:18:08Z</time>
      </trkpt>
      <trkpt lat="42.84992189" lon="13.53229047">
        <ele>193.00000</ele>
        <time>2024-03-21T12:18:09Z</time>
      </trkpt>
      <trkpt lat="42.84991116" lon="13.53218863">
        <ele>192.00000</ele>
        <time>2024-03-21T12:18:10Z</time>
      </trkpt>
      <trkpt lat="42.84989641" lon="13.53208738">
        <ele>192.00000</ele>
        <time>2024-03-21T12:18:11Z</time>
      </trkpt>
      <trkpt lat="42.84988174" lon="13.53198646">
        <ele>192.00000</ele>
        <time>2024-03-21T12:18:12Z</time>
      </trkpt>
      <trkpt lat="42.84986858" lon="13.53188462">
        <ele>192.00000</ele>
        <time>2024-03-21T12:18:13Z</time>
      </trkpt>
      <trkpt lat="42.84985190" lon="13.53178328">
        <ele>193.00000</ele>
        <time>2024-03-21T12:18:14Z</time>
      </trkpt>
      <trkpt lat="42.84983052" lon="13.53168287">
        <ele>194.00000</ele>
        <time>2024-03-21T12:18:15Z</time>
      </trkpt>
      <trkpt lat="42.84980722" lon="13.53158195">
        <ele>195.00000</ele>
        <time>2024-03-21T12:18:16Z</time>
      </trkpt>
      <trkpt lat="42.84978300" lon="13.53148279">
        <ele>195.00000</ele>
        <time>2024-03-21T12:18:17Z</time>
      </trkpt>
      <trkpt lat="42.84975660" lon="13.53138506">
        <ele>195.00000</ele>
        <time>2024-03-21T12:18:18Z</time>
      </trkpt>
      <trkpt lat="42.84972659" lon="13.53128766">
        <ele>196.00000</ele>
        <time>2024-03-21T12:18:19Z</time>
      </trkpt>
      <trkpt lat="42.84969490" lon="13.53119035">
        <ele>196.00000</ele>
        <time>2024-03-21T12:18:20Z</time>
      </trkpt>
      <trkpt lat="42.84966683" lon="13.53109303">
        <ele>196.00000</ele>
        <time>2024-03-21T12:18:21Z</time>
      </trkpt>
      <trkpt lat="42.84963254" lon="13.53099631">
        <ele>195.00000</ele>
        <time>2024-03-21T12:18:22Z</time>
      </trkpt>
      <trkpt lat="42.84959206" lon="13.53090151">
        <ele>194.00000</ele>
        <time>2024-03-21T12:18:23Z</time>
      </trkpt>
      <trkpt lat="42.84955115" lon="13.53080964">
        <ele>193.00000</ele>
        <time>2024-03-21T12:18:24Z</time>
      </trkpt>
      <trkpt lat="42.84950665" lon="13.53072138">
        <ele>192.00000</ele>
        <time>2024-03-21T12:18:25Z</time>
      </trkpt>
      <trkpt lat="42.84945543" lon="13.53063379">
        <ele>191.00000</ele>
        <time>2024-03-21T12:18:26Z</time>
      </trkpt>
      <trkpt lat="42.84939969" lon="13.53055265">
        <ele>190.00000</ele>
        <time>2024-03-21T12:18:27Z</time>
      </trkpt>
      <trkpt lat="42.84934119" lon="13.53047302">
        <ele>190.00000</ele>
        <time>2024-03-21T12:18:28Z</time>
      </trkpt>
      <trkpt lat="42.84927983" lon="13.53039340">
        <ele>190.00000</ele>
        <time>2024-03-21T12:18:29Z</time>
      </trkpt>
      <trkpt lat="42.84920012" lon="13.53030497">
        <ele>191.00000</ele>
        <time>2024-03-21T12:18:30Z</time>
      </trkpt>
      <trkpt lat="42.84912837" lon="13.53023858">
        <ele>191.00000</ele>
        <time>2024-03-21T12:18:31Z</time>
      </trkpt>
      <trkpt lat="42.84906391" lon="13.53019089">
        <ele>192.00000</ele>
        <time>2024-03-21T12:18:32Z</time>
      </trkpt>
      <trkpt lat="42.84898253" lon="13.53013247">
        <ele>191.00000</ele>
        <time>2024-03-21T12:18:33Z</time>
      </trkpt>
      <trkpt lat="42.84888069" lon="13.53006818">
        <ele>191.00000</ele>
        <time>2024-03-21T12:18:34Z</time>
      </trkpt>
      <trkpt lat="42.84879117" lon="13.53001814">
        <ele>190.00000</ele>
        <time>2024-03-21T12:18:35Z</time>
      </trkpt>
      <trkpt lat="42.84869980" lon="13.52997204">
        <ele>189.00000</ele>
        <time>2024-03-21T12:18:36Z</time>
      </trkpt>
      <trkpt lat="42.84862345" lon="13.52994077">
        <ele>189.00000</ele>
        <time>2024-03-21T12:18:37Z</time>
      </trkpt>
      <trkpt lat="42.84852655" lon="13.52990557">
        <ele>188.00000</ele>
        <time>2024-03-21T12:18:38Z</time>
      </trkpt>
      <trkpt lat="42.84840954" lon="13.52985930">
        <ele>187.00000</ele>
        <time>2024-03-21T12:18:39Z</time>
      </trkpt>
      <trkpt lat="42.84831147" lon="13.52981999">
        <ele>186.00000</ele>
        <time>2024-03-21T12:18:40Z</time>
      </trkpt>
      <trkpt lat="42.84823277" lon="13.52978864">
        <ele>186.00000</ele>
        <time>2024-03-21T12:18:41Z</time>
      </trkpt>
      <trkpt lat="42.84813378" lon="13.52974355">
        <ele>185.00000</ele>
        <time>2024-03-21T12:18:42Z</time>
      </trkpt>
      <trkpt lat="42.84803780" lon="13.52969275">
        <ele>185.00000</ele>
        <time>2024-03-21T12:18:43Z</time>
      </trkpt>
      <trkpt lat="42.84792440" lon="13.52962637">
        <ele>186.00000</ele>
        <time>2024-03-21T12:18:44Z</time>
      </trkpt>
      <trkpt lat="42.84783085" lon="13.52956535">
        <ele>187.00000</ele>
        <time>2024-03-21T12:18:45Z</time>
      </trkpt>
      <trkpt lat="42.84773731" lon="13.52950022">
        <ele>186.00000</ele>
        <time>2024-03-21T12:18:46Z</time>
      </trkpt>
      <trkpt lat="42.84764570" lon="13.52943995">
        <ele>185.00000</ele>
        <time>2024-03-21T12:18:47Z</time>
      </trkpt>
      <trkpt lat="42.84755467" lon="13.52937667">
        <ele>184.00000</ele>
        <time>2024-03-21T12:18:48Z</time>
      </trkpt>
      <trkpt lat="42.84746515" lon="13.52930945">
        <ele>184.00000</ele>
        <time>2024-03-21T12:18:49Z</time>
      </trkpt>
      <trkpt lat="42.84737588" lon="13.52923988">
        <ele>184.00000</ele>
        <time>2024-03-21T12:18:50Z</time>
      </trkpt>
      <trkpt lat="42.84728678" lon="13.52916830">
        <ele>184.00000</ele>
        <time>2024-03-21T12:18:51Z</time>
      </trkpt>
      <trkpt lat="42.84719844" lon="13.52909361">
        <ele>184.00000</ele>
        <time>2024-03-21T12:18:52Z</time>
      </trkpt>
      <trkpt lat="42.84711278" lon="13.52901684">
        <ele>184.00000</ele>
        <time>2024-03-21T12:18:53Z</time>
      </trkpt>
      <trkpt lat="42.84703055" lon="13.52894249">
        <ele>183.00000</ele>
        <time>2024-03-21T12:18:54Z</time>
      </trkpt>
      <trkpt lat="42.84695000" lon="13.52887284">
        <ele>183.00000</ele>
        <time>2024-03-21T12:18:55Z</time>
      </trkpt>
      <trkpt lat="42.84686828" lon="13.52880720">
        <ele>183.00000</ele>
        <time>2024-03-21T12:18:56Z</time>
      </trkpt>
      <trkpt lat="42.84678672" lon="13.52874744">
        <ele>183.00000</ele>
        <time>2024-03-21T12:18:57Z</time>
      </trkpt>
      <trkpt lat="42.84670516" lon="13.52868349">
        <ele>184.00000</ele>
        <time>2024-03-21T12:18:58Z</time>
      </trkpt>
      <trkpt lat="42.84662453" lon="13.52862079">
        <ele>184.00000</ele>
        <time>2024-03-21T12:18:59Z</time>
      </trkpt>
      <trkpt lat="42.84654641" lon="13.52855835">
        <ele>184.00000</ele>
        <time>2024-03-21T12:19:00Z</time>
      </trkpt>
      <trkpt lat="42.84646955" lon="13.52849632">
        <ele>184.00000</ele>
        <time>2024-03-21T12:19:01Z</time>
      </trkpt>
      <trkpt lat="42.84639378" lon="13.52843513">
        <ele>184.00000</ele>
        <time>2024-03-21T12:19:02Z</time>
      </trkpt>
      <trkpt lat="42.84631867" lon="13.52837411">
        <ele>184.00000</ele>
        <time>2024-03-21T12:19:03Z</time>
      </trkpt>
      <trkpt lat="42.84624466" lon="13.52831276">
        <ele>184.00000</ele>
        <time>2024-03-21T12:19:04Z</time>
      </trkpt>
      <trkpt lat="42.84617149" lon="13.52824931">
        <ele>184.00000</ele>
        <time>2024-03-21T12:19:05Z</time>
      </trkpt>
      <trkpt lat="42.84609773" lon="13.52818728">
        <ele>184.00000</ele>
        <time>2024-03-21T12:19:06Z</time>
      </trkpt>
      <trkpt lat="42.84602430" lon="13.52812307">
        <ele>184.00000</ele>
        <time>2024-03-21T12:19:07Z</time>
      </trkpt>
      <trkpt lat="42.84595230" lon="13.52805686">
        <ele>184.00000</ele>
        <time>2024-03-21T12:19:08Z</time>
      </trkpt>
      <trkpt lat="42.84588441" lon="13.52798653">
        <ele>183.00000</ele>
        <time>2024-03-21T12:19:09Z</time>
      </trkpt>
      <trkpt lat="42.84582221" lon="13.52790841">
        <ele>183.00000</ele>
        <time>2024-03-21T12:19:10Z</time>
      </trkpt>
      <trkpt lat="42.84576404" lon="13.52782585">
        <ele>184.00000</ele>
        <time>2024-03-21T12:19:11Z</time>
      </trkpt>
      <trkpt lat="42.84571224" lon="13.52773658">
        <ele>185.00000</ele>
        <time>2024-03-21T12:19:12Z</time>
      </trkpt>
      <trkpt lat="42.84566271" lon="13.52764413">
        <ele>186.00000</ele>
        <time>2024-03-21T12:19:13Z</time>
      </trkpt>
      <trkpt lat="42.84561652" lon="13.52754774">
        <ele>187.00000</ele>
        <time>2024-03-21T12:19:14Z</time>
      </trkpt>
      <trkpt lat="42.84557428" lon="13.52745361">
        <ele>187.00000</ele>
        <time>2024-03-21T12:19:15Z</time>
      </trkpt>
      <trkpt lat="42.84552725" lon="13.52736275">
        <ele>187.00000</ele>
        <time>2024-03-21T12:19:16Z</time>
      </trkpt>
      <trkpt lat="42.84547797" lon="13.52727902">
        <ele>187.00000</ele>
        <time>2024-03-21T12:19:17Z</time>
      </trkpt>
      <trkpt lat="42.84542609" lon="13.52720224">
        <ele>187.00000</ele>
        <time>2024-03-21T12:19:18Z</time>
      </trkpt>
      <trkpt lat="42.84537118" lon="13.52713041">
        <ele>187.00000</ele>
        <time>2024-03-21T12:19:19Z</time>
      </trkpt>
      <trkpt lat="42.84531293" lon="13.52706603">
        <ele>186.00000</ele>
        <time>2024-03-21T12:19:20Z</time>
      </trkpt>
      <trkpt lat="42.84525233" lon="13.52700912">
        <ele>186.00000</ele>
        <time>2024-03-21T12:19:21Z</time>
      </trkpt>
      <trkpt lat="42.84518913" lon="13.52695732">
        <ele>187.00000</ele>
        <time>2024-03-21T12:19:22Z</time>
      </trkpt>
      <trkpt lat="42.84512819" lon="13.52690518">
        <ele>187.00000</ele>
        <time>2024-03-21T12:19:23Z</time>
      </trkpt>
      <trkpt lat="42.84506700" lon="13.52685523">
        <ele>187.00000</ele>
        <time>2024-03-21T12:19:24Z</time>
      </trkpt>
      <trkpt lat="42.84500305" lon="13.52680712">
        <ele>188.00000</ele>
        <time>2024-03-21T12:19:25Z</time>
      </trkpt>
      <trkpt lat="42.84493708" lon="13.52676185">
        <ele>188.00000</ele>
        <time>2024-03-21T12:19:26Z</time>
      </trkpt>
      <trkpt lat="42.84487213" lon="13.52671642">
        <ele>188.00000</ele>
        <time>2024-03-21T12:19:27Z</time>
      </trkpt>
      <trkpt lat="42.84480691" lon="13.52666865">
        <ele>189.00000</ele>
        <time>2024-03-21T12:19:28Z</time>
      </trkpt>
      <trkpt lat="42.84474397" lon="13.52661903">
        <ele>189.00000</ele>
        <time>2024-03-21T12:19:29Z</time>
      </trkpt>
      <trkpt lat="42.84468010" lon="13.52657242">
        <ele>189.00000</ele>
        <time>2024-03-21T12:19:30Z</time>
      </trkpt>
      <trkpt lat="42.84461396" lon="13.52652288">
        <ele>189.00000</ele>
        <time>2024-03-21T12:19:31Z</time>
      </trkpt>
      <trkpt lat="42.84454724" lon="13.52647352">
        <ele>189.00000</ele>
        <time>2024-03-21T12:19:32Z</time>
      </trkpt>
      <trkpt lat="42.84448077" lon="13.52642574">
        <ele>189.00000</ele>
        <time>2024-03-21T12:19:33Z</time>
      </trkpt>
      <trkpt lat="42.84441162" lon="13.52637536">
        <ele>190.00000</ele>
        <time>2024-03-21T12:19:34Z</time>
      </trkpt>
      <trkpt lat="42.84434130" lon="13.52632281">
        <ele>190.00000</ele>
        <time>2024-03-21T12:19:35Z</time>
      </trkpt>
      <trkpt lat="42.84426972" lon="13.52626883">
        <ele>191.00000</ele>
        <time>2024-03-21T12:19:36Z</time>
      </trkpt>
      <trkpt lat="42.84419830" lon="13.52621368">
        <ele>192.00000</ele>
        <time>2024-03-21T12:19:37Z</time>
      </trkpt>
      <trkpt lat="42.84412387" lon="13.52615743">
        <ele>192.00000</ele>
        <time>2024-03-21T12:19:38Z</time>
      </trkpt>
      <trkpt lat="42.84405003" lon="13.52610228">
        <ele>192.00000</ele>
        <time>2024-03-21T12:19:39Z</time>
      </trkpt>
      <trkpt lat="42.84397442" lon="13.52604294">
        <ele>191.00000</ele>
        <time>2024-03-21T12:19:40Z</time>
      </trkpt>
      <trkpt lat="42.84389907" lon="13.52598133">
        <ele>191.00000</ele>
        <time>2024-03-21T12:19:41Z</time>
      </trkpt>
      <trkpt lat="42.84382388" lon="13.52592031">
        <ele>190.00000</ele>
        <time>2024-03-21T12:19:42Z</time>
      </trkpt>
      <trkpt lat="42.84374719" lon="13.52585677">
        <ele>189.00000</ele>
        <time>2024-03-21T12:19:43Z</time>
      </trkpt>
      <trkpt lat="42.84366957" lon="13.52579324">
        <ele>188.00000</ele>
        <time>2024-03-21T12:19:44Z</time>
      </trkpt>
      <trkpt lat="42.84359204" lon="13.52572753">
        <ele>188.00000</ele>
        <time>2024-03-21T12:19:45Z</time>
      </trkpt>
      <trkpt lat="42.84351275" lon="13.52565946">
        <ele>189.00000</ele>
        <time>2024-03-21T12:19:46Z</time>
      </trkpt>
      <trkpt lat="42.84343488" lon="13.52558922">
        <ele>190.00000</ele>
        <time>2024-03-21T12:19:47Z</time>
      </trkpt>
      <trkpt lat="42.84335877" lon="13.52551613">
        <ele>190.00000</ele>
        <time>2024-03-21T12:19:48Z</time>
      </trkpt>
      <trkpt lat="42.84328392" lon="13.52544355">
        <ele>192.00000</ele>
        <time>2024-03-21T12:19:49Z</time>
      </trkpt>
      <trkpt lat="42.84321159" lon="13.52537104">
        <ele>195.00000</ele>
        <time>2024-03-21T12:19:50Z</time>
      </trkpt>
      <trkpt lat="42.84313925" lon="13.52529862">
        <ele>196.00000</ele>
        <time>2024-03-21T12:19:51Z</time>
      </trkpt>
      <trkpt lat="42.84306884" lon="13.52522595">
        <ele>198.00000</ele>
        <time>2024-03-21T12:19:52Z</time>
      </trkpt>
      <trkpt lat="42.84300221" lon="13.52515504">
        <ele>197.00000</ele>
        <time>2024-03-21T12:19:53Z</time>
      </trkpt>
      <trkpt lat="42.84293465" lon="13.52508698">
        <ele>196.00000</ele>
        <time>2024-03-21T12:19:54Z</time>
      </trkpt>
      <trkpt lat="42.84286701" lon="13.52501892">
        <ele>195.00000</ele>
        <time>2024-03-21T12:19:55Z</time>
      </trkpt>
      <trkpt lat="42.84279853" lon="13.52495631">
        <ele>193.00000</ele>
        <time>2024-03-21T12:19:56Z</time>
      </trkpt>
      <trkpt lat="42.84273231" lon="13.52489805">
        <ele>192.00000</ele>
        <time>2024-03-21T12:19:57Z</time>
      </trkpt>
      <trkpt lat="42.84266366" lon="13.52484416">
        <ele>192.00000</ele>
        <time>2024-03-21T12:19:58Z</time>
      </trkpt>
      <trkpt lat="42.84259124" lon="13.52479680">
        <ele>191.00000</ele>
        <time>2024-03-21T12:19:59Z</time>
      </trkpt>
      <trkpt lat="42.84251882" lon="13.52475447">
        <ele>191.00000</ele>
        <time>2024-03-21T12:20:00Z</time>
      </trkpt>
      <trkpt lat="42.84244380" lon="13.52471658">
        <ele>192.00000</ele>
        <time>2024-03-21T12:20:01Z</time>
      </trkpt>
      <trkpt lat="42.84236920" lon="13.52468423">
        <ele>193.00000</ele>
        <time>2024-03-21T12:20:02Z</time>
      </trkpt>
      <trkpt lat="42.84229427" lon="13.52465221">
        <ele>195.00000</ele>
        <time>2024-03-21T12:20:03Z</time>
      </trkpt>
      <trkpt lat="42.84222051" lon="13.52461977">
        <ele>196.00000</ele>
        <time>2024-03-21T12:20:04Z</time>
      </trkpt>
      <trkpt lat="42.84214834" lon="13.52458633">
        <ele>198.00000</ele>
        <time>2024-03-21T12:20:05Z</time>
      </trkpt>
      <trkpt lat="42.84207743" lon="13.52454400">
        <ele>199.00000</ele>
        <time>2024-03-21T12:20:06Z</time>
      </trkpt>
      <trkpt lat="42.84200912" lon="13.52449480">
        <ele>199.00000</ele>
        <time>2024-03-21T12:20:07Z</time>
      </trkpt>
      <trkpt lat="42.84194642" lon="13.52443671">
        <ele>199.00000</ele>
        <time>2024-03-21T12:20:08Z</time>
      </trkpt>
      <trkpt lat="42.84189269" lon="13.52437276">
        <ele>199.00000</ele>
        <time>2024-03-21T12:20:09Z</time>
      </trkpt>
      <trkpt lat="42.84184441" lon="13.52430311">
        <ele>199.00000</ele>
        <time>2024-03-21T12:20:10Z</time>
      </trkpt>
      <trkpt lat="42.84180058" lon="13.52422742">
        <ele>198.00000</ele>
        <time>2024-03-21T12:20:11Z</time>
      </trkpt>
      <trkpt lat="42.84175925" lon="13.52414905">
        <ele>198.00000</ele>
        <time>2024-03-21T12:20:12Z</time>
      </trkpt>
      <trkpt lat="42.84172388" lon="13.52406640">
        <ele>197.00000</ele>
        <time>2024-03-21T12:20:13Z</time>
      </trkpt>
      <trkpt lat="42.84169178" lon="13.52398250">
        <ele>196.00000</ele>
        <time>2024-03-21T12:20:14Z</time>
      </trkpt>
      <trkpt lat="42.84166060" lon="13.52389709">
        <ele>196.00000</ele>
        <time>2024-03-21T12:20:15Z</time>
      </trkpt>
      <trkpt lat="42.84162942" lon="13.52381184">
        <ele>196.00000</ele>
        <time>2024-03-21T12:20:16Z</time>
      </trkpt>
      <trkpt lat="42.84159799" lon="13.52372844">
        <ele>196.00000</ele>
        <time>2024-03-21T12:20:17Z</time>
      </trkpt>
      <trkpt lat="42.84156496" lon="13.52364630">
        <ele>196.00000</ele>
        <time>2024-03-21T12:20:18Z</time>
      </trkpt>
      <trkpt lat="42.84152850" lon="13.52356684">
        <ele>196.00000</ele>
        <time>2024-03-21T12:20:19Z</time>
      </trkpt>
      <trkpt lat="42.84148894" lon="13.52349073">
        <ele>197.00000</ele>
        <time>2024-03-21T12:20:20Z</time>
      </trkpt>
      <trkpt lat="42.84144166" lon="13.52341789">
        <ele>198.00000</ele>
        <time>2024-03-21T12:20:21Z</time>
      </trkpt>
      <trkpt lat="42.84138961" lon="13.52334866">
        <ele>199.00000</ele>
        <time>2024-03-21T12:20:22Z</time>
      </trkpt>
      <trkpt lat="42.84133438" lon="13.52328353">
        <ele>199.00000</ele>
        <time>2024-03-21T12:20:23Z</time>
      </trkpt>
      <trkpt lat="42.84127495" lon="13.52322226">
        <ele>199.00000</ele>
        <time>2024-03-21T12:20:24Z</time>
      </trkpt>
      <trkpt lat="42.84120856" lon="13.52317205">
        <ele>199.00000</ele>
        <time>2024-03-21T12:20:25Z</time>
      </trkpt>
      <trkpt lat="42.84113774" lon="13.52312763">
        <ele>199.00000</ele>
        <time>2024-03-21T12:20:26Z</time>
      </trkpt>
      <trkpt lat="42.84106314" lon="13.52309108">
        <ele>199.00000</ele>
        <time>2024-03-21T12:20:27Z</time>
      </trkpt>
      <trkpt lat="42.84098544" lon="13.52306133">
        <ele>199.00000</ele>
        <time>2024-03-21T12:20:28Z</time>
      </trkpt>
      <trkpt lat="42.84090572" lon="13.52303911">
        <ele>199.00000</ele>
        <time>2024-03-21T12:20:29Z</time>
      </trkpt>
      <trkpt lat="42.84082459" lon="13.52302235">
        <ele>200.00000</ele>
        <time>2024-03-21T12:20:30Z</time>
      </trkpt>
      <trkpt lat="42.84074404" lon="13.52301078">
        <ele>200.00000</ele>
        <time>2024-03-21T12:20:31Z</time>
      </trkpt>
      <trkpt lat="42.84065963" lon="13.52300735">
        <ele>200.00000</ele>
        <time>2024-03-21T12:20:32Z</time>
      </trkpt>
      <trkpt lat="42.84057330" lon="13.52300508">
        <ele>200.00000</ele>
        <time>2024-03-21T12:20:33Z</time>
      </trkpt>
      <trkpt lat="42.84050348" lon="13.52300534">
        <ele>200.00000</ele>
        <time>2024-03-21T12:20:34Z</time>
      </trkpt>
      <trkpt lat="42.84040063" lon="13.52300131">
        <ele>199.00000</ele>
        <time>2024-03-21T12:20:35Z</time>
      </trkpt>
      <trkpt lat="42.84031664" lon="13.52300022">
        <ele>198.00000</ele>
        <time>2024-03-21T12:20:36Z</time>
      </trkpt>
      <trkpt lat="42.84023475" lon="13.52300290">
        <ele>197.00000</ele>
        <time>2024-03-21T12:20:37Z</time>
      </trkpt>
      <trkpt lat="42.84015093" lon="13.52300198">
        <ele>197.00000</ele>
        <time>2024-03-21T12:20:38Z</time>
      </trkpt>
      <trkpt lat="42.84006368" lon="13.52299662">
        <ele>196.00000</ele>
        <time>2024-03-21T12:20:39Z</time>
      </trkpt>
      <trkpt lat="42.83997927" lon="13.52299285">
        <ele>196.00000</ele>
        <time>2024-03-21T12:20:40Z</time>
      </trkpt>
      <trkpt lat="42.83989562" lon="13.52299218">
        <ele>197.00000</ele>
        <time>2024-03-21T12:20:41Z</time>
      </trkpt>
      <trkpt lat="42.83981046" lon="13.52299058">
        <ele>198.00000</ele>
        <time>2024-03-21T12:20:42Z</time>
      </trkpt>
      <trkpt lat="42.83972664" lon="13.52298773">
        <ele>199.00000</ele>
        <time>2024-03-21T12:20:43Z</time>
      </trkpt>
      <trkpt lat="42.83964492" lon="13.52298220">
        <ele>200.00000</ele>
        <time>2024-03-21T12:20:44Z</time>
      </trkpt>
      <trkpt lat="42.83956571" lon="13.52297424">
        <ele>201.00000</ele>
        <time>2024-03-21T12:20:45Z</time>
      </trkpt>
      <trkpt lat="42.83948692" lon="13.52296678">
        <ele>202.00000</ele>
        <time>2024-03-21T12:20:46Z</time>
      </trkpt>
      <trkpt lat="42.83940914" lon="13.52296024">
        <ele>203.00000</ele>
        <time>2024-03-21T12:20:47Z</time>
      </trkpt>
      <trkpt lat="42.83933320" lon="13.52295370">
        <ele>204.00000</ele>
        <time>2024-03-21T12:20:48Z</time>
      </trkpt>
      <trkpt lat="42.83926220" lon="13.52294440">
        <ele>204.00000</ele>
        <time>2024-03-21T12:20:49Z</time>
      </trkpt>
      <trkpt lat="42.83919565" lon="13.52292479">
        <ele>205.00000</ele>
        <time>2024-03-21T12:20:50Z</time>
      </trkpt>
      <trkpt lat="42.83912993" lon="13.52288824">
        <ele>205.00000</ele>
        <time>2024-03-21T12:20:51Z</time>
      </trkpt>
      <trkpt lat="42.83906808" lon="13.52283636">
        <ele>206.00000</ele>
        <time>2024-03-21T12:20:52Z</time>
      </trkpt>
      <trkpt lat="42.83901150" lon="13.52277668">
        <ele>206.00000</ele>
        <time>2024-03-21T12:20:53Z</time>
      </trkpt>
      <trkpt lat="42.83895987" lon="13.52271423">
        <ele>207.00000</ele>
        <time>2024-03-21T12:20:54Z</time>
      </trkpt>
      <trkpt lat="42.83891150" lon="13.52264818">
        <ele>207.00000</ele>
        <time>2024-03-21T12:20:55Z</time>
      </trkpt>
      <trkpt lat="42.83886322" lon="13.52258322">
        <ele>206.00000</ele>
        <time>2024-03-21T12:20:56Z</time>
      </trkpt>
      <trkpt lat="42.83881419" lon="13.52251801">
        <ele>206.00000</ele>
        <time>2024-03-21T12:20:57Z</time>
      </trkpt>
      <trkpt lat="42.83876700" lon="13.52245246">
        <ele>206.00000</ele>
        <time>2024-03-21T12:20:58Z</time>
      </trkpt>
      <trkpt lat="42.83872157" lon="13.52238734">
        <ele>206.00000</ele>
        <time>2024-03-21T12:20:59Z</time>
      </trkpt>
      <trkpt lat="42.83867639" lon="13.52231970">
        <ele>206.00000</ele>
        <time>2024-03-21T12:21:00Z</time>
      </trkpt>
      <trkpt lat="42.83863021" lon="13.52225457">
        <ele>206.00000</ele>
        <time>2024-03-21T12:21:01Z</time>
      </trkpt>
      <trkpt lat="42.83858385" lon="13.52219128">
        <ele>206.00000</ele>
        <time>2024-03-21T12:21:02Z</time>
      </trkpt>
      <trkpt lat="42.83853826" lon="13.52212708">
        <ele>206.00000</ele>
        <time>2024-03-21T12:21:03Z</time>
      </trkpt>
      <trkpt lat="42.83849182" lon="13.52206463">
        <ele>206.00000</ele>
        <time>2024-03-21T12:21:04Z</time>
      </trkpt>
      <trkpt lat="42.83844530" lon="13.52200454">
        <ele>206.00000</ele>
        <time>2024-03-21T12:21:05Z</time>
      </trkpt>
      <trkpt lat="42.83839878" lon="13.52194301">
        <ele>205.00000</ele>
        <time>2024-03-21T12:21:06Z</time>
      </trkpt>
      <trkpt lat="42.83835293" lon="13.52187705">
        <ele>205.00000</ele>
        <time>2024-03-21T12:21:07Z</time>
      </trkpt>
      <trkpt lat="42.83830943" lon="13.52180773">
        <ele>206.00000</ele>
        <time>2024-03-21T12:21:08Z</time>
      </trkpt>
      <trkpt lat="42.83826853" lon="13.52173975">
        <ele>206.00000</ele>
        <time>2024-03-21T12:21:09Z</time>
      </trkpt>
      <trkpt lat="42.83822829" lon="13.52166842">
        <ele>207.00000</ele>
        <time>2024-03-21T12:21:10Z</time>
      </trkpt>
      <trkpt lat="42.83819275" lon="13.52159466">
        <ele>207.00000</ele>
        <time>2024-03-21T12:21:11Z</time>
      </trkpt>
      <trkpt lat="42.83816157" lon="13.52151612">
        <ele>208.00000</ele>
        <time>2024-03-21T12:21:12Z</time>
      </trkpt>
      <trkpt lat="42.83813852" lon="13.52143700">
        <ele>209.00000</ele>
        <time>2024-03-21T12:21:13Z</time>
      </trkpt>
      <trkpt lat="42.83811799" lon="13.52135594">
        <ele>209.00000</ele>
        <time>2024-03-21T12:21:14Z</time>
      </trkpt>
      <trkpt lat="42.83809896" lon="13.52127380">
        <ele>210.00000</ele>
        <time>2024-03-21T12:21:15Z</time>
      </trkpt>
      <trkpt lat="42.83808220" lon="13.52119283">
        <ele>210.00000</ele>
        <time>2024-03-21T12:21:16Z</time>
      </trkpt>
      <trkpt lat="42.83806744" lon="13.52111170">
        <ele>210.00000</ele>
        <time>2024-03-21T12:21:17Z</time>
      </trkpt>
      <trkpt lat="42.83805311" lon="13.52103182">
        <ele>211.00000</ele>
        <time>2024-03-21T12:21:18Z</time>
      </trkpt>
      <trkpt lat="42.83803836" lon="13.52095428">
        <ele>211.00000</ele>
        <time>2024-03-21T12:21:19Z</time>
      </trkpt>
      <trkpt lat="42.83801967" lon="13.52087968">
        <ele>212.00000</ele>
        <time>2024-03-21T12:21:20Z</time>
      </trkpt>
      <trkpt lat="42.83799251" lon="13.52080835">
        <ele>212.00000</ele>
        <time>2024-03-21T12:21:21Z</time>
      </trkpt>
      <trkpt lat="42.83795840" lon="13.52074172">
        <ele>213.00000</ele>
        <time>2024-03-21T12:21:22Z</time>
      </trkpt>
      <trkpt lat="42.83791506" lon="13.52068338">
        <ele>214.00000</ele>
        <time>2024-03-21T12:21:23Z</time>
      </trkpt>
      <trkpt lat="42.83786620" lon="13.52063661">
        <ele>215.00000</ele>
        <time>2024-03-21T12:21:24Z</time>
      </trkpt>
      <trkpt lat="42.83781230" lon="13.52059948">
        <ele>216.00000</ele>
        <time>2024-03-21T12:21:25Z</time>
      </trkpt>
      <trkpt lat="42.83775513" lon="13.52057425">
        <ele>217.00000</ele>
        <time>2024-03-21T12:21:26Z</time>
      </trkpt>
      <trkpt lat="42.83769596" lon="13.52055447">
        <ele>218.00000</ele>
        <time>2024-03-21T12:21:27Z</time>
      </trkpt>
      <trkpt lat="42.83764726" lon="13.52053837">
        <ele>218.00000</ele>
        <time>2024-03-21T12:21:28Z</time>
      </trkpt>
      <trkpt lat="42.83757727" lon="13.52051214">
        <ele>219.00000</ele>
        <time>2024-03-21T12:21:29Z</time>
      </trkpt>
      <trkpt lat="42.83751960" lon="13.52048808">
        <ele>219.00000</ele>
        <time>2024-03-21T12:21:30Z</time>
      </trkpt>
      <trkpt lat="42.83746034" lon="13.52046319">
        <ele>219.00000</ele>
        <time>2024-03-21T12:21:31Z</time>
      </trkpt>
      <trkpt lat="42.83740083" lon="13.52043452">
        <ele>220.00000</ele>
        <time>2024-03-21T12:21:32Z</time>
      </trkpt>
      <trkpt lat="42.83734233" lon="13.52040016">
        <ele>220.00000</ele>
        <time>2024-03-21T12:21:33Z</time>
      </trkpt>
      <trkpt lat="42.83728826" lon="13.52035816">
        <ele>220.00000</ele>
        <time>2024-03-21T12:21:34Z</time>
      </trkpt>
      <trkpt lat="42.83723588" lon="13.52030963">
        <ele>220.00000</ele>
        <time>2024-03-21T12:21:35Z</time>
      </trkpt>
      <trkpt lat="42.83718299" lon="13.52025473">
        <ele>220.00000</ele>
        <time>2024-03-21T12:21:36Z</time>
      </trkpt>
      <trkpt lat="42.83713362" lon="13.52019589">
        <ele>219.00000</ele>
        <time>2024-03-21T12:21:37Z</time>
      </trkpt>
      <trkpt lat="42.83708685" lon="13.52013487">
        <ele>219.00000</ele>
        <time>2024-03-21T12:21:38Z</time>
      </trkpt>
      <trkpt lat="42.83704058" lon="13.52007108">
        <ele>219.00000</ele>
        <time>2024-03-21T12:21:39Z</time>
      </trkpt>
      <trkpt lat="42.83699389" lon="13.52000612">
        <ele>219.00000</ele>
        <time>2024-03-21T12:21:40Z</time>
      </trkpt>
      <trkpt lat="42.83694653" lon="13.51994653">
        <ele>218.00000</ele>
        <time>2024-03-21T12:21:41Z</time>
      </trkpt>
      <trkpt lat="42.83689733" lon="13.51988995">
        <ele>217.00000</ele>
        <time>2024-03-21T12:21:42Z</time>
      </trkpt>
      <trkpt lat="42.83684729" lon="13.51983019">
        <ele>217.00000</ele>
        <time>2024-03-21T12:21:43Z</time>
      </trkpt>
      <trkpt lat="42.83679340" lon="13.51977285">
        <ele>216.00000</ele>
        <time>2024-03-21T12:21:44Z</time>
      </trkpt>
      <trkpt lat="42.83673774" lon="13.51972575">
        <ele>216.00000</ele>
        <time>2024-03-21T12:21:45Z</time>
      </trkpt>
      <trkpt lat="42.83667798" lon="13.51968836">
        <ele>215.00000</ele>
        <time>2024-03-21T12:21:46Z</time>
      </trkpt>
      <trkpt lat="42.83661595" lon="13.51965702">
        <ele>216.00000</ele>
        <time>2024-03-21T12:21:47Z</time>
      </trkpt>
      <trkpt lat="42.83655359" lon="13.51963371">
        <ele>216.00000</ele>
        <time>2024-03-21T12:21:48Z</time>
      </trkpt>
      <trkpt lat="42.83649223" lon="13.51961980">
        <ele>217.00000</ele>
        <time>2024-03-21T12:21:49Z</time>
      </trkpt>
      <trkpt lat="42.83643138" lon="13.51961201">
        <ele>218.00000</ele>
        <time>2024-03-21T12:21:50Z</time>
      </trkpt>
      <trkpt lat="42.83637019" lon="13.51961226">
        <ele>218.00000</ele>
        <time>2024-03-21T12:21:51Z</time>
      </trkpt>
      <trkpt lat="42.83630859" lon="13.51961486">
        <ele>219.00000</ele>
        <time>2024-03-21T12:21:52Z</time>
      </trkpt>
      <trkpt lat="42.83624773" lon="13.51962064">
        <ele>219.00000</ele>
        <time>2024-03-21T12:21:53Z</time>
      </trkpt>
      <trkpt lat="42.83618512" lon="13.51962257">
        <ele>220.00000</ele>
        <time>2024-03-21T12:21:54Z</time>
      </trkpt>
      <trkpt lat="42.83611932" lon="13.51962542">
        <ele>220.00000</ele>
        <time>2024-03-21T12:21:55Z</time>
      </trkpt>
      <trkpt lat="42.83606006" lon="13.51962785">
        <ele>221.00000</ele>
        <time>2024-03-21T12:21:56Z</time>
      </trkpt>
      <trkpt lat="42.83600575" lon="13.51962374">
        <ele>221.00000</ele>
        <time>2024-03-21T12:21:57Z</time>
      </trkpt>
      <trkpt lat="42.83595152" lon="13.51961947">
        <ele>222.00000</ele>
        <time>2024-03-21T12:21:58Z</time>
      </trkpt>
      <trkpt lat="42.83589678" lon="13.51961536">
        <ele>223.00000</ele>
        <time>2024-03-21T12:21:59Z</time>
      </trkpt>
      <trkpt lat="42.83584280" lon="13.51961226">
        <ele>223.00000</ele>
        <time>2024-03-21T12:22:00Z</time>
      </trkpt>
      <trkpt lat="42.83508785" lon="13.51908537">
        <ele>223.00000</ele>
        <time>2024-03-21T12:22:11Z</time>
      </trkpt>
      <trkpt lat="42.83501442" lon="13.51898177">
        <ele>223.00000</ele>
        <time>2024-03-21T12:22:12Z</time>
      </trkpt>
      <trkpt lat="42.83492834" lon="13.51887331">
        <ele>222.00000</ele>
        <time>2024-03-21T12:22:13Z</time>
      </trkpt>
      <trkpt lat="42.83486422" lon="13.51877851">
        <ele>221.00000</ele>
        <time>2024-03-21T12:22:14Z</time>
      </trkpt>
      <trkpt lat="42.83480529" lon="13.51870659">
        <ele>221.00000</ele>
        <time>2024-03-21T12:22:15Z</time>
      </trkpt>
      <trkpt lat="42.83473690" lon="13.51858321">
        <ele>220.00000</ele>
        <time>2024-03-21T12:22:16Z</time>
      </trkpt>
      <trkpt lat="42.83466573" lon="13.51847869">
        <ele>220.00000</ele>
        <time>2024-03-21T12:22:17Z</time>
      </trkpt>
      <trkpt lat="42.83459004" lon="13.51839420">
        <ele>220.00000</ele>
        <time>2024-03-21T12:22:18Z</time>
      </trkpt>
      <trkpt lat="42.83452752" lon="13.51832312">
        <ele>220.00000</ele>
        <time>2024-03-21T12:22:19Z</time>
      </trkpt>
      <trkpt lat="42.83443506" lon="13.51823410">
        <ele>220.00000</ele>
        <time>2024-03-21T12:22:20Z</time>
      </trkpt>
      <trkpt lat="42.83435870" lon="13.51817116">
        <ele>220.00000</ele>
        <time>2024-03-21T12:22:21Z</time>
      </trkpt>
      <trkpt lat="42.83427723" lon="13.51810620">
        <ele>220.00000</ele>
        <time>2024-03-21T12:22:22Z</time>
      </trkpt>
      <trkpt lat="42.83420917" lon="13.51806529">
        <ele>220.00000</ele>
        <time>2024-03-21T12:22:23Z</time>
      </trkpt>
      <trkpt lat="42.83412409" lon="13.51800955">
        <ele>219.00000</ele>
        <time>2024-03-21T12:22:24Z</time>
      </trkpt>
      <trkpt lat="42.83401907" lon="13.51794023">
        <ele>218.00000</ele>
        <time>2024-03-21T12:22:25Z</time>
      </trkpt>
      <trkpt lat="42.83392578" lon="13.51788508">
        <ele>217.00000</ele>
        <time>2024-03-21T12:22:26Z</time>
      </trkpt>
      <trkpt lat="42.83383224" lon="13.51783697">
        <ele>217.00000</ele>
        <time>2024-03-21T12:22:27Z</time>
      </trkpt>
      <trkpt lat="42.83373777" lon="13.51778609">
        <ele>216.00000</ele>
        <time>2024-03-21T12:22:28Z</time>
      </trkpt>
      <trkpt lat="42.83365965" lon="13.51774712">
        <ele>216.00000</ele>
        <time>2024-03-21T12:22:29Z</time>
      </trkpt>
      <trkpt lat="42.83354063" lon="13.51768936">
        <ele>216.00000</ele>
        <time>2024-03-21T12:22:30Z</time>
      </trkpt>
      <trkpt lat="42.83344072" lon="13.51763773">
        <ele>216.00000</ele>
        <time>2024-03-21T12:22:31Z</time>
      </trkpt>
      <trkpt lat="42.83334131" lon="13.51758174">
        <ele>216.00000</ele>
        <time>2024-03-21T12:22:32Z</time>
      </trkpt>
      <trkpt lat="42.83326378" lon="13.51753396">
        <ele>217.00000</ele>
        <time>2024-03-21T12:22:33Z</time>
      </trkpt>
      <trkpt lat="42.83314861" lon="13.51745794">
        <ele>217.00000</ele>
        <time>2024-03-21T12:22:34Z</time>
      </trkpt>
      <trkpt lat="42.83306940" lon="13.51740228">
        <ele>217.00000</ele>
        <time>2024-03-21T12:22:35Z</time>
      </trkpt>
      <trkpt lat="42.83295180" lon="13.51732417">
        <ele>217.00000</ele>
        <time>2024-03-21T12:22:36Z</time>
      </trkpt>
      <trkpt lat="42.83285675" lon="13.51725468">
        <ele>217.00000</ele>
        <time>2024-03-21T12:22:37Z</time>
      </trkpt>
      <trkpt lat="42.83278165" lon="13.51719525">
        <ele>216.00000</ele>
        <time>2024-03-21T12:22:38Z</time>
      </trkpt>
      <trkpt lat="42.83267017" lon="13.51710431">
        <ele>215.00000</ele>
        <time>2024-03-21T12:22:39Z</time>
      </trkpt>
      <trkpt lat="42.83257864" lon="13.51702158">
        <ele>214.00000</ele>
        <time>2024-03-21T12:22:40Z</time>
      </trkpt>
      <trkpt lat="42.83249063" lon="13.51693583">
        <ele>214.00000</ele>
        <time>2024-03-21T12:22:41Z</time>
      </trkpt>
      <trkpt lat="42.83240388" lon="13.51685117">
        <ele>213.00000</ele>
        <time>2024-03-21T12:22:42Z</time>
      </trkpt>
      <trkpt lat="42.83233406" lon="13.51678119">
        <ele>212.00000</ele>
        <time>2024-03-21T12:22:43Z</time>
      </trkpt>
      <trkpt lat="42.83224806" lon="13.51669569">
        <ele>212.00000</ele>
        <time>2024-03-21T12:22:44Z</time>
      </trkpt>
      <trkpt lat="42.83216323" lon="13.51661271">
        <ele>211.00000</ele>
        <time>2024-03-21T12:22:45Z</time>
      </trkpt>
      <trkpt lat="42.83206508" lon="13.51651045">
        <ele>209.00000</ele>
        <time>2024-03-21T12:22:46Z</time>
      </trkpt>
      <trkpt lat="42.83199777" lon="13.51644524">
        <ele>208.00000</ele>
        <time>2024-03-21T12:22:47Z</time>
      </trkpt>
      <trkpt lat="42.83189459" lon="13.51634549">
        <ele>206.00000</ele>
        <time>2024-03-21T12:22:48Z</time>
      </trkpt>
      <trkpt lat="42.83182553" lon="13.51628104">
        <ele>205.00000</ele>
        <time>2024-03-21T12:22:49Z</time>
      </trkpt>
      <trkpt lat="42.83172209" lon="13.51617962">
        <ele>204.00000</ele>
        <time>2024-03-21T12:22:50Z</time>
      </trkpt>
      <trkpt lat="42.83163542" lon="13.51609622">
        <ele>203.00000</ele>
        <time>2024-03-21T12:22:51Z</time>
      </trkpt>
      <trkpt lat="42.83154817" lon="13.51601164">
        <ele>203.00000</ele>
        <time>2024-03-21T12:22:52Z</time>
      </trkpt>
      <trkpt lat="42.83146142" lon="13.51592648">
        <ele>204.00000</ele>
        <time>2024-03-21T12:22:53Z</time>
      </trkpt>
      <trkpt lat="42.83137592" lon="13.51584115">
        <ele>204.00000</ele>
        <time>2024-03-21T12:22:54Z</time>
      </trkpt>
      <trkpt lat="42.83129252" lon="13.51575013">
        <ele>205.00000</ele>
        <time>2024-03-21T12:22:55Z</time>
      </trkpt>
      <trkpt lat="42.83123175" lon="13.51567159">
        <ele>206.00000</ele>
        <time>2024-03-21T12:22:56Z</time>
      </trkpt>
      <trkpt lat="42.83116134" lon="13.51556447">
        <ele>206.00000</ele>
        <time>2024-03-21T12:22:57Z</time>
      </trkpt>
      <trkpt lat="42.83108817" lon="13.51542298">
        <ele>206.00000</ele>
        <time>2024-03-21T12:22:58Z</time>
      </trkpt>
      <trkpt lat="42.83103444" lon="13.51529717">
        <ele>206.00000</ele>
        <time>2024-03-21T12:22:59Z</time>
      </trkpt>
      <trkpt lat="42.83098532" lon="13.51516884">
        <ele>206.00000</ele>
        <time>2024-03-21T12:23:00Z</time>
      </trkpt>
      <trkpt lat="42.83094819" lon="13.51506340">
        <ele>206.00000</ele>
        <time>2024-03-21T12:23:01Z</time>
      </trkpt>
      <trkpt lat="42.83090419" lon="13.51492996">
        <ele>206.00000</ele>
        <time>2024-03-21T12:23:02Z</time>
      </trkpt>
      <trkpt lat="42.83085163" lon="13.51476785">
        <ele>206.00000</ele>
        <time>2024-03-21T12:23:03Z</time>
      </trkpt>
      <trkpt lat="42.83080855" lon="13.51462922">
        <ele>207.00000</ele>
        <time>2024-03-21T12:23:04Z</time>
      </trkpt>
      <trkpt lat="42.83076739" lon="13.51448882">
        <ele>207.00000</ele>
        <time>2024-03-21T12:23:05Z</time>
      </trkpt>
      <trkpt lat="42.83072498" lon="13.51434851">
        <ele>206.00000</ele>
        <time>2024-03-21T12:23:06Z</time>
      </trkpt>
      <trkpt lat="42.83067947" lon="13.51420761">
        <ele>206.00000</ele>
        <time>2024-03-21T12:23:07Z</time>
      </trkpt>
      <trkpt lat="42.83063303" lon="13.51406645">
        <ele>205.00000</ele>
        <time>2024-03-21T12:23:08Z</time>
      </trkpt>
      <trkpt lat="42.83058727" lon="13.51392354">
        <ele>205.00000</ele>
        <time>2024-03-21T12:23:09Z</time>
      </trkpt>
      <trkpt lat="42.83054368" lon="13.51377954">
        <ele>204.00000</ele>
        <time>2024-03-21T12:23:10Z</time>
      </trkpt>
      <trkpt lat="42.83050127" lon="13.51363621">
        <ele>203.00000</ele>
        <time>2024-03-21T12:23:11Z</time>
      </trkpt>
      <trkpt lat="42.83046062" lon="13.51349397">
        <ele>203.00000</ele>
        <time>2024-03-21T12:23:12Z</time>
      </trkpt>
      <trkpt lat="42.83042298" lon="13.51335106">
        <ele>203.00000</ele>
        <time>2024-03-21T12:23:13Z</time>
      </trkpt>
      <trkpt lat="42.83038912" lon="13.51320949">
        <ele>203.00000</ele>
        <time>2024-03-21T12:23:14Z</time>
      </trkpt>
      <trkpt lat="42.83035920" lon="13.51306725">
        <ele>202.00000</ele>
        <time>2024-03-21T12:23:15Z</time>
      </trkpt>
      <trkpt lat="42.83033363" lon="13.51292383">
        <ele>202.00000</ele>
        <time>2024-03-21T12:23:16Z</time>
      </trkpt>
      <trkpt lat="42.83031058" lon="13.51277966">
        <ele>201.00000</ele>
        <time>2024-03-21T12:23:17Z</time>
      </trkpt>
      <trkpt lat="42.83029155" lon="13.51263910">
        <ele>201.00000</ele>
        <time>2024-03-21T12:23:18Z</time>
      </trkpt>
      <trkpt lat="42.83027705" lon="13.51250248">
        <ele>201.00000</ele>
        <time>2024-03-21T12:23:19Z</time>
      </trkpt>
      <trkpt lat="42.83026247" lon="13.51237046">
        <ele>200.00000</ele>
        <time>2024-03-21T12:23:20Z</time>
      </trkpt>
      <trkpt lat="42.83024185" lon="13.51224984">
        <ele>199.00000</ele>
        <time>2024-03-21T12:23:21Z</time>
      </trkpt>
      <trkpt lat="42.83020530" lon="13.51215027">
        <ele>198.00000</ele>
        <time>2024-03-21T12:23:22Z</time>
      </trkpt>
      <trkpt lat="42.83014839" lon="13.51208598">
        <ele>197.00000</ele>
        <time>2024-03-21T12:23:23Z</time>
      </trkpt>
      <trkpt lat="42.83007211" lon="13.51205471">
        <ele>197.00000</ele>
        <time>2024-03-21T12:23:24Z</time>
      </trkpt>
      <trkpt lat="42.82999039" lon="13.51203200">
        <ele>196.00000</ele>
        <time>2024-03-21T12:23:25Z</time>
      </trkpt>
      <trkpt lat="42.82990464" lon="13.51200023">
        <ele>195.00000</ele>
        <time>2024-03-21T12:23:26Z</time>
      </trkpt>
      <trkpt lat="42.82981102" lon="13.51196645">
        <ele>194.00000</ele>
        <time>2024-03-21T12:23:27Z</time>
      </trkpt>
      <trkpt lat="42.82971429" lon="13.51192664">
        <ele>193.00000</ele>
        <time>2024-03-21T12:23:28Z</time>
      </trkpt>
      <trkpt lat="42.82961874" lon="13.51188465">
        <ele>192.00000</ele>
        <time>2024-03-21T12:23:29Z</time>
      </trkpt>
      <trkpt lat="42.82952595" lon="13.51184383">
        <ele>191.00000</ele>
        <time>2024-03-21T12:23:30Z</time>
      </trkpt>
      <trkpt lat="42.82943509" lon="13.51179655">
        <ele>190.00000</ele>
        <time>2024-03-21T12:23:31Z</time>
      </trkpt>
      <trkpt lat="42.82934423" lon="13.51174995">
        <ele>190.00000</ele>
        <time>2024-03-21T12:23:32Z</time>
      </trkpt>
      <trkpt lat="42.82925589" lon="13.51170385">
        <ele>189.00000</ele>
        <time>2024-03-21T12:23:33Z</time>
      </trkpt>
      <trkpt lat="42.82917156" lon="13.51165247">
        <ele>189.00000</ele>
        <time>2024-03-21T12:23:34Z</time>
      </trkpt>
      <trkpt lat="42.82910241" lon="13.51161542">
        <ele>189.00000</ele>
        <time>2024-03-21T12:23:35Z</time>
      </trkpt>
      <trkpt lat="42.82899881" lon="13.51156957">
        <ele>189.00000</ele>
        <time>2024-03-21T12:23:36Z</time>
      </trkpt>
      <trkpt lat="42.82890728" lon="13.51153939">
        <ele>189.00000</ele>
        <time>2024-03-21T12:23:37Z</time>
      </trkpt>
      <trkpt lat="42.82881055" lon="13.51152171">
        <ele>189.00000</ele>
        <time>2024-03-21T12:23:38Z</time>
      </trkpt>
      <trkpt lat="42.82871433" lon="13.51150469">
        <ele>191.00000</ele>
        <time>2024-03-21T12:23:39Z</time>
      </trkpt>
      <trkpt lat="42.82861936" lon="13.51148927">
        <ele>192.00000</ele>
        <time>2024-03-21T12:23:40Z</time>
      </trkpt>
      <trkpt lat="42.82852507" lon="13.51146798">
        <ele>193.00000</ele>
        <time>2024-03-21T12:23:41Z</time>
      </trkpt>
      <trkpt lat="42.82843245" lon="13.51144560">
        <ele>195.00000</ele>
        <time>2024-03-21T12:23:42Z</time>
      </trkpt>
      <trkpt lat="42.82834528" lon="13.51142297">
        <ele>196.00000</ele>
        <time>2024-03-21T12:23:43Z</time>
      </trkpt>
      <trkpt lat="42.82826271" lon="13.51139556">
        <ele>198.00000</ele>
        <time>2024-03-21T12:23:44Z</time>
      </trkpt>
      <trkpt lat="42.82818401" lon="13.51137033">
        <ele>199.00000</ele>
        <time>2024-03-21T12:23:45Z</time>
      </trkpt>
      <trkpt lat="42.82811058" lon="13.51134016">
        <ele>201.00000</ele>
        <time>2024-03-21T12:23:46Z</time>
      </trkpt>
      <trkpt lat="42.82803900" lon="13.51130596">
        <ele>201.00000</ele>
        <time>2024-03-21T12:23:47Z</time>
      </trkpt>
      <trkpt lat="42.82796792" lon="13.51127302">
        <ele>201.00000</ele>
        <time>2024-03-21T12:23:48Z</time>
      </trkpt>
      <trkpt lat="42.82789684" lon="13.51124963">
        <ele>201.00000</ele>
        <time>2024-03-21T12:23:49Z</time>
      </trkpt>
      <trkpt lat="42.82782543" lon="13.51123429">
        <ele>200.00000</ele>
        <time>2024-03-21T12:23:50Z</time>
      </trkpt>
      <trkpt lat="42.82775402" lon="13.51122532">
        <ele>201.00000</ele>
        <time>2024-03-21T12:23:51Z</time>
      </trkpt>
      <trkpt lat="42.82768302" lon="13.51121879">
        <ele>201.00000</ele>
        <time>2024-03-21T12:23:52Z</time>
      </trkpt>
      <trkpt lat="42.82761706" lon="13.51121300">
        <ele>202.00000</ele>
        <time>2024-03-21T12:23:53Z</time>
      </trkpt>
      <trkpt lat="42.82755478" lon="13.51120638">
        <ele>202.00000</ele>
        <time>2024-03-21T12:23:54Z</time>
      </trkpt>
      <trkpt lat="42.82749493" lon="13.51120512">
        <ele>203.00000</ele>
        <time>2024-03-21T12:23:55Z</time>
      </trkpt>
      <trkpt lat="42.82743609" lon="13.51121040">
        <ele>203.00000</ele>
        <time>2024-03-21T12:23:56Z</time>
      </trkpt>
      <trkpt lat="42.82737784" lon="13.51122038">
        <ele>203.00000</ele>
        <time>2024-03-21T12:23:57Z</time>
      </trkpt>
      <trkpt lat="42.82732243" lon="13.51123379">
        <ele>204.00000</ele>
        <time>2024-03-21T12:23:58Z</time>
      </trkpt>
      <trkpt lat="42.82726929" lon="13.51124762">
        <ele>204.00000</ele>
        <time>2024-03-21T12:23:59Z</time>
      </trkpt>
      <trkpt lat="42.82721975" lon="13.51125567">
        <ele>205.00000</ele>
        <time>2024-03-21T12:24:00Z</time>
      </trkpt>
      <trkpt lat="42.82716938" lon="13.51126346">
        <ele>205.00000</ele>
        <time>2024-03-21T12:24:01Z</time>
      </trkpt>
      <trkpt lat="42.82712219" lon="13.51126472">
        <ele>206.00000</ele>
        <time>2024-03-21T12:24:02Z</time>
      </trkpt>
      <trkpt lat="42.82707282" lon="13.51125458">
        <ele>205.00000</ele>
        <time>2024-03-21T12:24:03Z</time>
      </trkpt>
      <trkpt lat="42.82702370" lon="13.51124745">
        <ele>205.00000</ele>
        <time>2024-03-21T12:24:04Z</time>
      </trkpt>
      <trkpt lat="42.82697877" lon="13.51123438">
        <ele>205.00000</ele>
        <time>2024-03-21T12:24:05Z</time>
      </trkpt>
      <trkpt lat="42.82693200" lon="13.51122122">
        <ele>205.00000</ele>
        <time>2024-03-21T12:24:06Z</time>
      </trkpt>
      <trkpt lat="42.82688582" lon="13.51121451">
        <ele>205.00000</ele>
        <time>2024-03-21T12:24:07Z</time>
      </trkpt>
      <trkpt lat="42.82684223" lon="13.51120705">
        <ele>205.00000</ele>
        <time>2024-03-21T12:24:08Z</time>
      </trkpt>
      <trkpt lat="42.82679948" lon="13.51119549">
        <ele>205.00000</ele>
        <time>2024-03-21T12:24:09Z</time>
      </trkpt>
      <trkpt lat="42.82675615" lon="13.51118585">
        <ele>205.00000</ele>
        <time>2024-03-21T12:24:10Z</time>
      </trkpt>
      <trkpt lat="42.82671541" lon="13.51117780">
        <ele>206.00000</ele>
        <time>2024-03-21T12:24:11Z</time>
      </trkpt>
      <trkpt lat="42.82667267" lon="13.51117327">
        <ele>206.00000</ele>
        <time>2024-03-21T12:24:12Z</time>
      </trkpt>
      <trkpt lat="42.82663227" lon="13.51116824">
        <ele>206.00000</ele>
        <time>2024-03-21T12:24:13Z</time>
      </trkpt>
      <trkpt lat="42.82658784" lon="13.51115827">
        <ele>207.00000</ele>
        <time>2024-03-21T12:24:14Z</time>
      </trkpt>
      <trkpt lat="42.82653436" lon="13.51114151">
        <ele>207.00000</ele>
        <time>2024-03-21T12:24:15Z</time>
      </trkpt>
      <trkpt lat="42.82647427" lon="13.51111401">
        <ele>207.00000</ele>
        <time>2024-03-21T12:24:16Z</time>
      </trkpt>
      <trkpt lat="42.82641534" lon="13.51107428">
        <ele>207.00000</ele>
        <time>2024-03-21T12:24:17Z</time>
      </trkpt>
      <trkpt lat="42.82635306" lon="13.51102240">
        <ele>206.00000</ele>
        <time>2024-03-21T12:24:18Z</time>
      </trkpt>
      <trkpt lat="42.82629531" lon="13.51095442">
        <ele>204.00000</ele>
        <time>2024-03-21T12:24:19Z</time>
      </trkpt>
      <trkpt lat="42.82624963" lon="13.51088552">
        <ele>202.00000</ele>
        <time>2024-03-21T12:24:20Z</time>
      </trkpt>
      <trkpt lat="42.82620638" lon="13.51083029">
        <ele>201.00000</ele>
        <time>2024-03-21T12:24:21Z</time>
      </trkpt>
      <trkpt lat="42.82616062" lon="13.51081654">
        <ele>201.00000</ele>
        <time>2024-03-21T12:24:22Z</time>
      </trkpt>
      <trkpt lat="42.82611091" lon="13.51082408">
        <ele>202.00000</ele>
        <time>2024-03-21T12:24:23Z</time>
      </trkpt>
      <trkpt lat="42.82605408" lon="13.51082492">
        <ele>202.00000</ele>
        <time>2024-03-21T12:24:24Z</time>
      </trkpt>
      <trkpt lat="42.82598728" lon="13.51080623">
        <ele>201.00000</ele>
        <time>2024-03-21T12:24:25Z</time>
      </trkpt>
      <trkpt lat="42.82591167" lon="13.51076692">
        <ele>200.00000</ele>
        <time>2024-03-21T12:24:26Z</time>
      </trkpt>
      <trkpt lat="42.82583867" lon="13.51071646">
        <ele>199.00000</ele>
        <time>2024-03-21T12:24:27Z</time>
      </trkpt>
      <trkpt lat="42.82577237" lon="13.51066307">
        <ele>198.00000</ele>
        <time>2024-03-21T12:24:28Z</time>
      </trkpt>
      <trkpt lat="42.82570657" lon="13.51062283">
        <ele>197.00000</ele>
        <time>2024-03-21T12:24:29Z</time>
      </trkpt>
      <trkpt lat="42.82564194" lon="13.51059651">
        <ele>197.00000</ele>
        <time>2024-03-21T12:24:30Z</time>
      </trkpt>
      <trkpt lat="42.82557824" lon="13.51060163">
        <ele>198.00000</ele>
        <time>2024-03-21T12:24:31Z</time>
      </trkpt>
      <trkpt lat="42.82550792" lon="13.51061462">
        <ele>198.00000</ele>
        <time>2024-03-21T12:24:32Z</time>
      </trkpt>
      <trkpt lat="42.82543751" lon="13.51062325">
        <ele>198.00000</ele>
        <time>2024-03-21T12:24:33Z</time>
      </trkpt>
      <trkpt lat="42.82536869" lon="13.51064354">
        <ele>199.00000</ele>
        <time>2024-03-21T12:24:34Z</time>
      </trkpt>
      <trkpt lat="42.82530650" lon="13.51067505">
        <ele>200.00000</ele>
        <time>2024-03-21T12:24:35Z</time>
      </trkpt>
      <trkpt lat="42.82526442" lon="13.51069986">
        <ele>200.00000</ele>
        <time>2024-03-21T12:24:36Z</time>
      </trkpt>
      <trkpt lat="42.82520784" lon="13.51073389">
        <ele>201.00000</ele>
        <time>2024-03-21T12:24:37Z</time>
      </trkpt>
      <trkpt lat="42.82517272" lon="13.51075577">
        <ele>202.00000</ele>
        <time>2024-03-21T12:24:38Z</time>
      </trkpt>
      <trkpt lat="42.82514699" lon="13.51077295">
        <ele>202.00000</ele>
        <time>2024-03-21T12:24:39Z</time>
      </trkpt>
      <trkpt lat="42.82510961" lon="13.51078427">
        <ele>203.00000</ele>
        <time>2024-03-21T12:24:40Z</time>
      </trkpt>
      <trkpt lat="42.82506502" lon="13.51078653">
        <ele>203.00000</ele>
        <time>2024-03-21T12:24:41Z</time>
      </trkpt>
      <trkpt lat="42.82501464" lon="13.51078888">
        <ele>203.00000</ele>
        <time>2024-03-21T12:24:42Z</time>
      </trkpt>
      <trkpt lat="42.82495287" lon="13.51081453">
        <ele>203.00000</ele>
        <time>2024-03-21T12:24:43Z</time>
      </trkpt>
      <trkpt lat="42.82491867" lon="13.51086029">
        <ele>203.00000</ele>
        <time>2024-03-21T12:24:44Z</time>
      </trkpt>
      <trkpt lat="42.82489662" lon="13.51089491">
        <ele>204.00000</ele>
        <time>2024-03-21T12:24:45Z</time>
      </trkpt>
      <trkpt lat="42.82486570" lon="13.51092760">
        <ele>204.00000</ele>
        <time>2024-03-21T12:24:46Z</time>
      </trkpt>
      <trkpt lat="42.82483795" lon="13.51093791">
        <ele>204.00000</ele>
        <time>2024-03-21T12:24:47Z</time>
      </trkpt>
      <trkpt lat="42.82481624" lon="13.51092391">
        <ele>204.00000</ele>
        <time>2024-03-21T12:24:48Z</time>
      </trkpt>
      <trkpt lat="42.82480183" lon="13.51089751">
        <ele>203.00000</ele>
        <time>2024-03-21T12:24:49Z</time>
      </trkpt>
      <trkpt lat="42.82479990" lon="13.51087136">
        <ele>203.00000</ele>
        <time>2024-03-21T12:24:50Z</time>
      </trkpt>
      <trkpt lat="42.82480208" lon="13.51083506">
        <ele>202.00000</ele>
        <time>2024-03-21T12:24:51Z</time>
      </trkpt>
      <trkpt lat="42.82478875" lon="13.51078695">
        <ele>201.00000</ele>
        <time>2024-03-21T12:24:52Z</time>
      </trkpt>
      <trkpt lat="42.82476436" lon="13.51074102">
        <ele>201.00000</ele>
        <time>2024-03-21T12:24:53Z</time>
      </trkpt>
      <trkpt lat="42.82473368" lon="13.51069827">
        <ele>200.00000</ele>
        <time>2024-03-21T12:24:54Z</time>
      </trkpt>
      <trkpt lat="42.82469253" lon="13.51066508">
        <ele>200.00000</ele>
        <time>2024-03-21T12:24:55Z</time>
      </trkpt>
      <trkpt lat="42.82464131" lon="13.51063918">
        <ele>200.00000</ele>
        <time>2024-03-21T12:24:56Z</time>
      </trkpt>
      <trkpt lat="42.82458121" lon="13.51061353">
        <ele>201.00000</ele>
        <time>2024-03-21T12:24:57Z</time>
      </trkpt>
      <trkpt lat="42.82451843" lon="13.51059341">
        <ele>201.00000</ele>
        <time>2024-03-21T12:24:58Z</time>
      </trkpt>
      <trkpt lat="42.82445515" lon="13.51057179">
        <ele>202.00000</ele>
        <time>2024-03-21T12:24:59Z</time>
      </trkpt>
      <trkpt lat="42.82439170" lon="13.51054673">
        <ele>202.00000</ele>
        <time>2024-03-21T12:25:00Z</time>
      </trkpt>
      <trkpt lat="42.82432657" lon="13.51051387">
        <ele>203.00000</ele>
        <time>2024-03-21T12:25:01Z</time>
      </trkpt>
      <trkpt lat="42.82425876" lon="13.51048193">
        <ele>203.00000</ele>
        <time>2024-03-21T12:25:02Z</time>
      </trkpt>
      <trkpt lat="42.82418886" lon="13.51045176">
        <ele>204.00000</ele>
        <time>2024-03-21T12:25:03Z</time>
      </trkpt>
      <trkpt lat="42.82412004" lon="13.51041806">
        <ele>205.00000</ele>
        <time>2024-03-21T12:25:04Z</time>
      </trkpt>
      <trkpt lat="42.82405525" lon="13.51037448">
        <ele>205.00000</ele>
        <time>2024-03-21T12:25:05Z</time>
      </trkpt>
      <trkpt lat="42.82399674" lon="13.51032192">
        <ele>205.00000</ele>
        <time>2024-03-21T12:25:06Z</time>
      </trkpt>
      <trkpt lat="42.82394285" lon="13.51026845">
        <ele>205.00000</ele>
        <time>2024-03-21T12:25:07Z</time>
      </trkpt>
      <trkpt lat="42.82388904" lon="13.51021262">
        <ele>206.00000</ele>
        <time>2024-03-21T12:25:08Z</time>
      </trkpt>
      <trkpt lat="42.82383271" lon="13.51015730">
        <ele>206.00000</ele>
        <time>2024-03-21T12:25:09Z</time>
      </trkpt>
      <trkpt lat="42.82377454" lon="13.51011900">
        <ele>206.00000</ele>
        <time>2024-03-21T12:25:10Z</time>
      </trkpt>
      <trkpt lat="42.82371360" lon="13.51009209">
        <ele>206.00000</ele>
        <time>2024-03-21T12:25:11Z</time>
      </trkpt>
      <trkpt lat="42.82365409" lon="13.51007591">
        <ele>207.00000</ele>
        <time>2024-03-21T12:25:12Z</time>
      </trkpt>
      <trkpt lat="42.82359257" lon="13.51006611">
        <ele>207.00000</ele>
        <time>2024-03-21T12:25:13Z</time>
      </trkpt>
      <trkpt lat="42.82352543" lon="13.51006384">
        <ele>208.00000</ele>
        <time>2024-03-21T12:25:14Z</time>
      </trkpt>
      <trkpt lat="42.82345695" lon="13.51006158">
        <ele>208.00000</ele>
        <time>2024-03-21T12:25:15Z</time>
      </trkpt>
      <trkpt lat="42.82338688" lon="13.51006108">
        <ele>209.00000</ele>
        <time>2024-03-21T12:25:16Z</time>
      </trkpt>
      <trkpt lat="42.82332099" lon="13.51006912">
        <ele>209.00000</ele>
        <time>2024-03-21T12:25:17Z</time>
      </trkpt>
      <trkpt lat="42.82326048" lon="13.51007843">
        <ele>210.00000</ele>
        <time>2024-03-21T12:25:18Z</time>
      </trkpt>
      <trkpt lat="42.82319979" lon="13.51008773">
        <ele>210.00000</ele>
        <time>2024-03-21T12:25:19Z</time>
      </trkpt>
      <trkpt lat="42.82313852" lon="13.51009804">
        <ele>211.00000</ele>
        <time>2024-03-21T12:25:20Z</time>
      </trkpt>
      <trkpt lat="42.82307750" lon="13.51011229">
        <ele>212.00000</ele>
        <time>2024-03-21T12:25:21Z</time>
      </trkpt>
      <trkpt lat="42.82301371" lon="13.51011640">
        <ele>212.00000</ele>
        <time>2024-03-21T12:25:22Z</time>
      </trkpt>
      <trkpt lat="42.82295370" lon="13.51011707">
        <ele>212.00000</ele>
        <time>2024-03-21T12:25:23Z</time>
      </trkpt>
      <trkpt lat="42.82289662" lon="13.51011171">
        <ele>213.00000</ele>
        <time>2024-03-21T12:25:24Z</time>
      </trkpt>
      <trkpt lat="42.82283518" lon="13.51009318">
        <ele>212.00000</ele>
        <time>2024-03-21T12:25:25Z</time>
      </trkpt>
      <trkpt lat="42.82277600" lon="13.51007642">
        <ele>212.00000</ele>
        <time>2024-03-21T12:25:26Z</time>
      </trkpt>
      <trkpt lat="42.82271356" lon="13.51005094">
        <ele>212.00000</ele>
        <time>2024-03-21T12:25:27Z</time>
      </trkpt>
      <trkpt lat="42.82264743" lon="13.51002261">
        <ele>212.00000</ele>
        <time>2024-03-21T12:25:28Z</time>
      </trkpt>
      <trkpt lat="42.82257224" lon="13.50999369">
        <ele>212.00000</ele>
        <time>2024-03-21T12:25:29Z</time>
      </trkpt>
      <trkpt lat="42.82248993" lon="13.50997734">
        <ele>213.00000</ele>
        <time>2024-03-21T12:25:30Z</time>
      </trkpt>
      <trkpt lat="42.82240888" lon="13.50997718">
        <ele>214.00000</ele>
        <time>2024-03-21T12:25:31Z</time>
      </trkpt>
      <trkpt lat="42.82232774" lon="13.50997860">
        <ele>215.00000</ele>
        <time>2024-03-21T12:25:32Z</time>
      </trkpt>
      <trkpt lat="42.82225314" lon="13.50998220">
        <ele>216.00000</ele>
        <time>2024-03-21T12:25:33Z</time>
      </trkpt>
      <trkpt lat="42.82219388" lon="13.51000073">
        <ele>217.00000</ele>
        <time>2024-03-21T12:25:34Z</time>
      </trkpt>
      <trkpt lat="42.82214686" lon="13.51001464">
        <ele>217.00000</ele>
        <time>2024-03-21T12:25:35Z</time>
      </trkpt>
      <trkpt lat="42.82210847" lon="13.51002286">
        <ele>218.00000</ele>
        <time>2024-03-21T12:25:36Z</time>
      </trkpt>
      <trkpt lat="42.82207645" lon="13.51002328">
        <ele>218.00000</ele>
        <time>2024-03-21T12:25:37Z</time>
      </trkpt>
      <trkpt lat="42.82205114" lon="13.51002118">
        <ele>218.00000</ele>
        <time>2024-03-21T12:25:38Z</time>
      </trkpt>
      <trkpt lat="42.82201828" lon="13.51001707">
        <ele>219.00000</ele>
        <time>2024-03-21T12:25:39Z</time>
      </trkpt>
      <trkpt lat="42.82198425" lon="13.51001825">
        <ele>219.00000</ele>
        <time>2024-03-21T12:25:40Z</time>
      </trkpt>
      <trkpt lat="42.82195206" lon="13.51002638">
        <ele>219.00000</ele>
        <time>2024-03-21T12:25:41Z</time>
      </trkpt>
      <trkpt lat="42.82191828" lon="13.51003124">
        <ele>220.00000</ele>
        <time>2024-03-21T12:25:42Z</time>
      </trkpt>
      <trkpt lat="42.82188501" lon="13.51003074">
        <ele>222.00000</ele>
        <time>2024-03-21T12:25:43Z</time>
      </trkpt>
      <trkpt lat="42.82185140" lon="13.51002093">
        <ele>222.00000</ele>
        <time>2024-03-21T12:25:44Z</time>
      </trkpt>
      <trkpt lat="42.82181502" lon="13.51000375">
        <ele>223.00000</ele>
        <time>2024-03-21T12:25:45Z</time>
      </trkpt>
      <trkpt lat="42.82178032" lon="13.50998036">
        <ele>223.00000</ele>
        <time>2024-03-21T12:25:46Z</time>
      </trkpt>
      <trkpt lat="42.82175224" lon="13.50995521">
        <ele>223.00000</ele>
        <time>2024-03-21T12:25:47Z</time>
      </trkpt>
      <trkpt lat="42.82172366" lon="13.50991616">
        <ele>223.00000</ele>
        <time>2024-03-21T12:25:48Z</time>
      </trkpt>
      <trkpt lat="42.82169273" lon="13.50985949">
        <ele>221.00000</ele>
        <time>2024-03-21T12:25:49Z</time>
      </trkpt>
      <trkpt lat="42.82166163" lon="13.50979026">
        <ele>219.00000</ele>
        <time>2024-03-21T12:25:50Z</time>
      </trkpt>
      <trkpt lat="42.82163648" lon="13.50970309">
        <ele>217.00000</ele>
        <time>2024-03-21T12:25:51Z</time>
      </trkpt>
      <trkpt lat="42.82160120" lon="13.50959136">
        <ele>214.00000</ele>
        <time>2024-03-21T12:25:52Z</time>
      </trkpt>
      <trkpt lat="42.82154445" lon="13.50947887">
        <ele>213.00000</ele>
        <time>2024-03-21T12:25:53Z</time>
      </trkpt>
      <trkpt lat="42.82147748" lon="13.50937510">
        <ele>214.00000</ele>
        <time>2024-03-21T12:25:54Z</time>
      </trkpt>
      <trkpt lat="42.82141109" lon="13.50926983">
        <ele>216.00000</ele>
        <time>2024-03-21T12:25:55Z</time>
      </trkpt>
      <trkpt lat="42.82135209" lon="13.50917369">
        <ele>217.00000</ele>
        <time>2024-03-21T12:25:56Z</time>
      </trkpt>
      <trkpt lat="42.82129844" lon="13.50909205">
        <ele>217.00000</ele>
        <time>2024-03-21T12:25:57Z</time>
      </trkpt>
      <trkpt lat="42.82125947" lon="13.50901158">
        <ele>217.00000</ele>
        <time>2024-03-21T12:25:58Z</time>
      </trkpt>
      <trkpt lat="42.82122577" lon="13.50893891">
        <ele>217.00000</ele>
        <time>2024-03-21T12:25:59Z</time>
      </trkpt>
      <trkpt lat="42.82119442" lon="13.50886724">
        <ele>216.00000</ele>
        <time>2024-03-21T12:26:00Z</time>
      </trkpt>
      <trkpt lat="42.82115578" lon="13.50879474">
        <ele>216.00000</ele>
        <time>2024-03-21T12:26:01Z</time>
      </trkpt>
      <trkpt lat="42.82111572" lon="13.50873288">
        <ele>215.00000</ele>
        <time>2024-03-21T12:26:02Z</time>
      </trkpt>
      <trkpt lat="42.82107749" lon="13.50865283">
        <ele>215.00000</ele>
        <time>2024-03-21T12:26:03Z</time>
      </trkpt>
      <trkpt lat="42.82105369" lon="13.50856281">
        <ele>215.00000</ele>
        <time>2024-03-21T12:26:04Z</time>
      </trkpt>
      <trkpt lat="42.82103952" lon="13.50847455">
        <ele>214.00000</ele>
        <time>2024-03-21T12:26:05Z</time>
      </trkpt>
      <trkpt lat="42.82101212" lon="13.50839057">
        <ele>214.00000</ele>
        <time>2024-03-21T12:26:06Z</time>
      </trkpt>
      <trkpt lat="42.82096995" lon="13.50830867">
        <ele>214.00000</ele>
        <time>2024-03-21T12:26:07Z</time>
      </trkpt>
      <trkpt lat="42.82092335" lon="13.50823055">
        <ele>215.00000</ele>
        <time>2024-03-21T12:26:08Z</time>
      </trkpt>
      <trkpt lat="42.82087968" lon="13.50815235">
        <ele>215.00000</ele>
        <time>2024-03-21T12:26:09Z</time>
      </trkpt>
      <trkpt lat="42.82083828" lon="13.50806996">
        <ele>215.00000</ele>
        <time>2024-03-21T12:26:10Z</time>
      </trkpt>
      <trkpt lat="42.82079595" lon="13.50798882">
        <ele>215.00000</ele>
        <time>2024-03-21T12:26:11Z</time>
      </trkpt>
      <trkpt lat="42.82074876" lon="13.50791892">
        <ele>216.00000</ele>
        <time>2024-03-21T12:26:12Z</time>
      </trkpt>
      <trkpt lat="42.82070400" lon="13.50785471">
        <ele>216.00000</ele>
        <time>2024-03-21T12:26:13Z</time>
      </trkpt>
      <trkpt lat="42.82066695" lon="13.50778698">
        <ele>216.00000</ele>
        <time>2024-03-21T12:26:14Z</time>
      </trkpt>
      <trkpt lat="42.82063795" lon="13.50773711">
        <ele>216.00000</ele>
        <time>2024-03-21T12:26:15Z</time>
      </trkpt>
      <trkpt lat="42.82060425" lon="13.50767760">
        <ele>217.00000</ele>
        <time>2024-03-21T12:26:16Z</time>
      </trkpt>
      <trkpt lat="42.82056444" lon="13.50761272">
        <ele>217.00000</ele>
        <time>2024-03-21T12:26:17Z</time>
      </trkpt>
      <trkpt lat="42.82053904" lon="13.50757383">
        <ele>217.00000</ele>
        <time>2024-03-21T12:26:18Z</time>
      </trkpt>
      <trkpt lat="42.82049831" lon="13.50752019">
        <ele>218.00000</ele>
        <time>2024-03-21T12:26:19Z</time>
      </trkpt>
      <trkpt lat="42.82047215" lon="13.50748398">
        <ele>219.00000</ele>
        <time>2024-03-21T12:26:20Z</time>
      </trkpt>
      <trkpt lat="42.82043527" lon="13.50742673">
        <ele>220.00000</ele>
        <time>2024-03-21T12:26:21Z</time>
      </trkpt>
      <trkpt lat="42.82040216" lon="13.50737795">
        <ele>220.00000</ele>
        <time>2024-03-21T12:26:22Z</time>
      </trkpt>
      <trkpt lat="42.82037065" lon="13.50734149">
        <ele>220.00000</ele>
        <time>2024-03-21T12:26:23Z</time>
      </trkpt>
      <trkpt lat="42.82033955" lon="13.50730519">
        <ele>221.00000</ele>
        <time>2024-03-21T12:26:24Z</time>
      </trkpt>
      <trkpt lat="42.82031281" lon="13.50727569">
        <ele>221.00000</ele>
        <time>2024-03-21T12:26:25Z</time>
      </trkpt>
      <trkpt lat="42.82026780" lon="13.50722389">
        <ele>221.00000</ele>
        <time>2024-03-21T12:26:26Z</time>
      </trkpt>
      <trkpt lat="42.82023310" lon="13.50718349">
        <ele>221.00000</ele>
        <time>2024-03-21T12:26:27Z</time>
      </trkpt>
      <trkpt lat="42.82018549" lon="13.50713077">
        <ele>222.00000</ele>
        <time>2024-03-21T12:26:28Z</time>
      </trkpt>
      <trkpt lat="42.82015213" lon="13.50709598">
        <ele>222.00000</ele>
        <time>2024-03-21T12:26:29Z</time>
      </trkpt>
      <trkpt lat="42.82011257" lon="13.50705231">
        <ele>222.00000</ele>
        <time>2024-03-21T12:26:30Z</time>
      </trkpt>
      <trkpt lat="42.82007376" lon="13.50700847">
        <ele>222.00000</ele>
        <time>2024-03-21T12:26:31Z</time>
      </trkpt>
      <trkpt lat="42.82002666" lon="13.50696044">
        <ele>222.00000</ele>
        <time>2024-03-21T12:26:32Z</time>
      </trkpt>
      <trkpt lat="42.81998718" lon="13.50692038">
        <ele>223.00000</ele>
        <time>2024-03-21T12:26:33Z</time>
      </trkpt>
      <trkpt lat="42.81995524" lon="13.50688559">
        <ele>223.00000</ele>
        <time>2024-03-21T12:26:34Z</time>
      </trkpt>
      <trkpt lat="42.81991811" lon="13.50684653">
        <ele>224.00000</ele>
        <time>2024-03-21T12:26:35Z</time>
      </trkpt>
      <trkpt lat="42.81987067" lon="13.50680521">
        <ele>224.00000</ele>
        <time>2024-03-21T12:26:36Z</time>
      </trkpt>
      <trkpt lat="42.81983546" lon="13.50678007">
        <ele>225.00000</ele>
        <time>2024-03-21T12:26:37Z</time>
      </trkpt>
      <trkpt lat="42.81979314" lon="13.50674796">
        <ele>226.00000</ele>
        <time>2024-03-21T12:26:38Z</time>
      </trkpt>
      <trkpt lat="42.81974938" lon="13.50671301">
        <ele>227.00000</ele>
        <time>2024-03-21T12:26:39Z</time>
      </trkpt>
      <trkpt lat="42.81969180" lon="13.50667202">
        <ele>227.00000</ele>
        <time>2024-03-21T12:26:40Z</time>
      </trkpt>
      <trkpt lat="42.81964268" lon="13.50663464">
        <ele>227.00000</ele>
        <time>2024-03-21T12:26:41Z</time>
      </trkpt>
      <trkpt lat="42.81959474" lon="13.50660203">
        <ele>227.00000</ele>
        <time>2024-03-21T12:26:42Z</time>
      </trkpt>
      <trkpt lat="42.81955677" lon="13.50658066">
        <ele>227.00000</ele>
        <time>2024-03-21T12:26:43Z</time>
      </trkpt>
      <trkpt lat="42.81950731" lon="13.50656172">
        <ele>228.00000</ele>
        <time>2024-03-21T12:26:44Z</time>
      </trkpt>
      <trkpt lat="42.81944956" lon="13.50653858">
        <ele>228.00000</ele>
        <time>2024-03-21T12:26:45Z</time>
      </trkpt>
      <trkpt lat="42.81940740" lon="13.50652601">
        <ele>229.00000</ele>
        <time>2024-03-21T12:26:46Z</time>
      </trkpt>
      <trkpt lat="42.81937588" lon="13.50652107">
        <ele>229.00000</ele>
        <time>2024-03-21T12:26:47Z</time>
      </trkpt>
      <trkpt lat="42.81934102" lon="13.50651042">
        <ele>229.00000</ele>
        <time>2024-03-21T12:26:48Z</time>
      </trkpt>
      <trkpt lat="42.81930564" lon="13.50650413">
        <ele>230.00000</ele>
        <time>2024-03-21T12:26:49Z</time>
      </trkpt>
      <trkpt lat="42.81926382" lon="13.50648997">
        <ele>230.00000</ele>
        <time>2024-03-21T12:26:50Z</time>
      </trkpt>
      <trkpt lat="42.81922367" lon="13.50647580">
        <ele>230.00000</ele>
        <time>2024-03-21T12:26:51Z</time>
      </trkpt>
      <trkpt lat="42.81917849" lon="13.50646021">
        <ele>230.00000</ele>
        <time>2024-03-21T12:26:52Z</time>
      </trkpt>
      <trkpt lat="42.81913323" lon="13.50644202">
        <ele>231.00000</ele>
        <time>2024-03-21T12:26:53Z</time>
      </trkpt>
      <trkpt lat="42.81909584" lon="13.50642635">
        <ele>231.00000</ele>
        <time>2024-03-21T12:26:54Z</time>
      </trkpt>
      <trkpt lat="42.81904027" lon="13.50640431">
        <ele>231.00000</ele>
        <time>2024-03-21T12:26:55Z</time>
      </trkpt>
      <trkpt lat="42.81899568" lon="13.50638729">
        <ele>232.00000</ele>
        <time>2024-03-21T12:26:56Z</time>
      </trkpt>
      <trkpt lat="42.81895444" lon="13.50636466">
        <ele>232.00000</ele>
        <time>2024-03-21T12:26:57Z</time>
      </trkpt>
      <trkpt lat="42.81892335" lon="13.50633675">
        <ele>232.00000</ele>
        <time>2024-03-21T12:26:58Z</time>
      </trkpt>
      <trkpt lat="42.81887305" lon="13.50629098">
        <ele>231.00000</ele>
        <time>2024-03-21T12:26:59Z</time>
      </trkpt>
      <trkpt lat="42.81882570" lon="13.50624295">
        <ele>230.00000</ele>
        <time>2024-03-21T12:27:00Z</time>
      </trkpt>
      <trkpt lat="42.81876761" lon="13.50619082">
        <ele>229.00000</ele>
        <time>2024-03-21T12:27:01Z</time>
      </trkpt>
      <trkpt lat="42.81871749" lon="13.50614815">
        <ele>228.00000</ele>
        <time>2024-03-21T12:27:02Z</time>
      </trkpt>
      <trkpt lat="42.81864993" lon="13.50608504">
        <ele>227.00000</ele>
        <time>2024-03-21T12:27:03Z</time>
      </trkpt>
      <trkpt lat="42.81856435" lon="13.50599787">
        <ele>225.00000</ele>
        <time>2024-03-21T12:27:04Z</time>
      </trkpt>
      <trkpt lat="42.81848707" lon="13.50591287">
        <ele>224.00000</ele>
        <time>2024-03-21T12:27:05Z</time>
      </trkpt>
      <trkpt lat="42.81840878" lon="13.50581129">
        <ele>223.00000</ele>
        <time>2024-03-21T12:27:06Z</time>
      </trkpt>
      <trkpt lat="42.81834541" lon="13.50571380">
        <ele>222.00000</ele>
        <time>2024-03-21T12:27:07Z</time>
      </trkpt>
      <trkpt lat="42.81826579" lon="13.50558590">
        <ele>221.00000</ele>
        <time>2024-03-21T12:27:08Z</time>
      </trkpt>
      <trkpt lat="42.81816537" lon="13.50543553">
        <ele>219.00000</ele>
        <time>2024-03-21T12:27:09Z</time>
      </trkpt>
      <trkpt lat="42.81807702" lon="13.50532002">
        <ele>219.00000</ele>
        <time>2024-03-21T12:27:10Z</time>
      </trkpt>
      <trkpt lat="42.81799119" lon="13.50520871">
        <ele>217.00000</ele>
        <time>2024-03-21T12:27:11Z</time>
      </trkpt>
      <trkpt lat="42.81791802" lon="13.50512104">
        <ele>217.00000</ele>
        <time>2024-03-21T12:27:12Z</time>
      </trkpt>
      <trkpt lat="42.81782205" lon="13.50501827">
        <ele>216.00000</ele>
        <time>2024-03-21T12:27:13Z</time>
      </trkpt>
      <trkpt lat="42.81769422" lon="13.50491132">
        <ele>216.00000</ele>
        <time>2024-03-21T12:27:14Z</time>
      </trkpt>
      <trkpt lat="42.81757964" lon="13.50485323">
        <ele>216.00000</ele>
        <time>2024-03-21T12:27:15Z</time>
      </trkpt>
      <trkpt lat="42.81746288" lon="13.50481132">
        <ele>217.00000</ele>
        <time>2024-03-21T12:27:16Z</time>
      </trkpt>
      <trkpt lat="42.81737387" lon="13.50478584">
        <ele>217.00000</ele>
        <time>2024-03-21T12:27:17Z</time>
      </trkpt>
      <trkpt lat="42.81726281" lon="13.50476137">
        <ele>217.00000</ele>
        <time>2024-03-21T12:27:18Z</time>
      </trkpt>
      <trkpt lat="42.81713297" lon="13.50473924">
        <ele>215.00000</ele>
        <time>2024-03-21T12:27:19Z</time>
      </trkpt>
      <trkpt lat="42.81702769" lon="13.50472449">
        <ele>214.00000</ele>
        <time>2024-03-21T12:27:20Z</time>
      </trkpt>
      <trkpt lat="42.81693181" lon="13.50471317">
        <ele>212.00000</ele>
        <time>2024-03-21T12:27:21Z</time>
      </trkpt>
      <trkpt lat="42.81686735" lon="13.50469792">
        <ele>212.00000</ele>
        <time>2024-03-21T12:27:22Z</time>
      </trkpt>
      <trkpt lat="42.81678613" lon="13.50465483">
        <ele>210.00000</ele>
        <time>2024-03-21T12:27:23Z</time>
      </trkpt>
      <trkpt lat="42.81674095" lon="13.50458761">
        <ele>210.00000</ele>
        <time>2024-03-21T12:27:24Z</time>
      </trkpt>
      <trkpt lat="42.81671622" lon="13.50450178">
        <ele>209.00000</ele>
        <time>2024-03-21T12:27:25Z</time>
      </trkpt>
      <trkpt lat="42.81671614" lon="13.50443129">
        <ele>209.00000</ele>
        <time>2024-03-21T12:27:26Z</time>
      </trkpt>
      <trkpt lat="42.81673441" lon="13.50434102">
        <ele>209.00000</ele>
        <time>2024-03-21T12:27:27Z</time>
      </trkpt>
      <trkpt lat="42.81675922" lon="13.50423440">
        <ele>209.00000</ele>
        <time>2024-03-21T12:27:28Z</time>
      </trkpt>
      <trkpt lat="42.81677071" lon="13.50414832">
        <ele>210.00000</ele>
        <time>2024-03-21T12:27:29Z</time>
      </trkpt>
      <trkpt lat="42.81677020" lon="13.50406718">
        <ele>211.00000</ele>
        <time>2024-03-21T12:27:30Z</time>
      </trkpt>
      <trkpt lat="42.81676241" lon="13.50399937">
        <ele>212.00000</ele>
        <time>2024-03-21T12:27:31Z</time>
      </trkpt>
      <trkpt lat="42.81675042" lon="13.50394941">
        <ele>213.00000</ele>
        <time>2024-03-21T12:27:32Z</time>
      </trkpt>
      <trkpt lat="42.81673131" lon="13.50390868">
        <ele>214.00000</ele>
        <time>2024-03-21T12:27:33Z</time>
      </trkpt>
      <trkpt lat="42.81670549" lon="13.50387004">
        <ele>215.00000</ele>
        <time>2024-03-21T12:27:34Z</time>
      </trkpt>
      <trkpt lat="42.81667239" lon="13.50383961">
        <ele>216.00000</ele>
        <time>2024-03-21T12:27:35Z</time>
      </trkpt>
      <trkpt lat="42.81663710" lon="13.50382176">
        <ele>216.00000</ele>
        <time>2024-03-21T12:27:36Z</time>
      </trkpt>
      <trkpt lat="42.81658563" lon="13.50380918">
        <ele>217.00000</ele>
        <time>2024-03-21T12:27:37Z</time>
      </trkpt>
      <trkpt lat="42.81652109" lon="13.50379770">
        <ele>218.00000</ele>
        <time>2024-03-21T12:27:38Z</time>
      </trkpt>
      <trkpt lat="42.81646988" lon="13.50377943">
        <ele>218.00000</ele>
        <time>2024-03-21T12:27:39Z</time>
      </trkpt>
      <trkpt lat="42.81641514" lon="13.50376074">
        <ele>219.00000</ele>
        <time>2024-03-21T12:27:40Z</time>
      </trkpt>
      <trkpt lat="42.81635681" lon="13.50374506">
        <ele>220.00000</ele>
        <time>2024-03-21T12:27:41Z</time>
      </trkpt>
      <trkpt lat="42.81629688" lon="13.50373316">
        <ele>220.00000</ele>
        <time>2024-03-21T12:27:42Z</time>
      </trkpt>
      <trkpt lat="42.81623703" lon="13.50372453">
        <ele>221.00000</ele>
        <time>2024-03-21T12:27:43Z</time>
      </trkpt>
      <trkpt lat="42.81617517" lon="13.50371858">
        <ele>221.00000</ele>
        <time>2024-03-21T12:27:44Z</time>
      </trkpt>
      <trkpt lat="42.81610862" lon="13.50371506">
        <ele>221.00000</ele>
        <time>2024-03-21T12:27:45Z</time>
      </trkpt>
      <trkpt lat="42.81604710" lon="13.50370458">
        <ele>221.00000</ele>
        <time>2024-03-21T12:27:46Z</time>
      </trkpt>
      <trkpt lat="42.81598406" lon="13.50370273">
        <ele>221.00000</ele>
        <time>2024-03-21T12:27:47Z</time>
      </trkpt>
      <trkpt lat="42.81592539" lon="13.50370005">
        <ele>221.00000</ele>
        <time>2024-03-21T12:27:48Z</time>
      </trkpt>
      <trkpt lat="42.81586781" lon="13.50369326">
        <ele>220.00000</ele>
        <time>2024-03-21T12:27:49Z</time>
      </trkpt>
      <trkpt lat="42.81580788" lon="13.50368404">
        <ele>221.00000</ele>
        <time>2024-03-21T12:27:50Z</time>
      </trkpt>
      <trkpt lat="42.81574409" lon="13.50367725">
        <ele>221.00000</ele>
        <time>2024-03-21T12:27:51Z</time>
      </trkpt>
      <trkpt lat="42.81568206" lon="13.50366870">
        <ele>222.00000</ele>
        <time>2024-03-21T12:27:52Z</time>
      </trkpt>
      <trkpt lat="42.81561987" lon="13.50365990">
        <ele>222.00000</ele>
        <time>2024-03-21T12:27:53Z</time>
      </trkpt>
      <trkpt lat="42.81556002" lon="13.50364993">
        <ele>223.00000</ele>
        <time>2024-03-21T12:27:54Z</time>
      </trkpt>
      <trkpt lat="42.81550956" lon="13.50363836">
        <ele>223.00000</ele>
        <time>2024-03-21T12:27:55Z</time>
      </trkpt>
      <trkpt lat="42.81542994" lon="13.50361841">
        <ele>224.00000</ele>
        <time>2024-03-21T12:27:56Z</time>
      </trkpt>
      <trkpt lat="42.81535676" lon="13.50360341">
        <ele>224.00000</ele>
        <time>2024-03-21T12:27:57Z</time>
      </trkpt>
      <trkpt lat="42.81528409" lon="13.50359226">
        <ele>225.00000</ele>
        <time>2024-03-21T12:27:58Z</time>
      </trkpt>
      <trkpt lat="42.81520974" lon="13.50357952">
        <ele>225.00000</ele>
        <time>2024-03-21T12:27:59Z</time>
      </trkpt>
      <trkpt lat="42.81514881" lon="13.50357072">
        <ele>224.00000</ele>
        <time>2024-03-21T12:28:00Z</time>
      </trkpt>
      <trkpt lat="42.81507379" lon="13.50355857">
        <ele>224.00000</ele>
        <time>2024-03-21T12:28:01Z</time>
      </trkpt>
      <trkpt lat="42.81498217" lon="13.50354800">
        <ele>223.00000</ele>
        <time>2024-03-21T12:28:02Z</time>
      </trkpt>
      <trkpt lat="42.81490799" lon="13.50353476">
        <ele>223.00000</ele>
        <time>2024-03-21T12:28:03Z</time>
      </trkpt>
      <trkpt lat="42.81483608" lon="13.50352588">
        <ele>223.00000</ele>
        <time>2024-03-21T12:28:04Z</time>
      </trkpt>
      <trkpt lat="42.81477707" lon="13.50352177">
        <ele>223.00000</ele>
        <time>2024-03-21T12:28:05Z</time>
      </trkpt>
      <trkpt lat="42.81469074" lon="13.50351816">
        <ele>223.00000</ele>
        <time>2024-03-21T12:28:06Z</time>
      </trkpt>
      <trkpt lat="42.81461773" lon="13.50352395">
        <ele>223.00000</ele>
        <time>2024-03-21T12:28:07Z</time>
      </trkpt>
      <trkpt lat="42.81454531" lon="13.50352277">
        <ele>224.00000</ele>
        <time>2024-03-21T12:28:08Z</time>
      </trkpt>
      <trkpt lat="42.81447515" lon="13.50351582">
        <ele>225.00000</ele>
        <time>2024-03-21T12:28:09Z</time>
      </trkpt>
      <trkpt lat="42.81441514" lon="13.50351037">
        <ele>225.00000</ele>
        <time>2024-03-21T12:28:10Z</time>
      </trkpt>
      <trkpt lat="42.81434289" lon="13.50350484">
        <ele>225.00000</ele>
        <time>2024-03-21T12:28:11Z</time>
      </trkpt>
      <trkpt lat="42.81425974" lon="13.50349780">
        <ele>225.00000</ele>
        <time>2024-03-21T12:28:12Z</time>
      </trkpt>
      <trkpt lat="42.81418615" lon="13.50349084">
        <ele>225.00000</ele>
        <time>2024-03-21T12:28:13Z</time>
      </trkpt>
      <trkpt lat="42.81412010" lon="13.50349151">
        <ele>225.00000</ele>
        <time>2024-03-21T12:28:14Z</time>
      </trkpt>
      <trkpt lat="42.81406360" lon="13.50348556">
        <ele>225.00000</ele>
        <time>2024-03-21T12:28:15Z</time>
      </trkpt>
      <trkpt lat="42.81397718" lon="13.50347827">
        <ele>225.00000</ele>
        <time>2024-03-21T12:28:16Z</time>
      </trkpt>
      <trkpt lat="42.81390686" lon="13.50347802">
        <ele>225.00000</ele>
        <time>2024-03-21T12:28:17Z</time>
      </trkpt>
      <trkpt lat="42.81383855" lon="13.50347508">
        <ele>226.00000</ele>
        <time>2024-03-21T12:28:18Z</time>
      </trkpt>
      <trkpt lat="42.81377208" lon="13.50347014">
        <ele>226.00000</ele>
        <time>2024-03-21T12:28:19Z</time>
      </trkpt>
      <trkpt lat="42.81370092" lon="13.50346469">
        <ele>227.00000</ele>
        <time>2024-03-21T12:28:20Z</time>
      </trkpt>
      <trkpt lat="42.81362875" lon="13.50346184">
        <ele>228.00000</ele>
        <time>2024-03-21T12:28:21Z</time>
      </trkpt>
      <trkpt lat="42.81355842" lon="13.50346175">
        <ele>228.00000</ele>
        <time>2024-03-21T12:28:22Z</time>
      </trkpt>
      <trkpt lat="42.81348818" lon="13.50346150">
        <ele>228.00000</ele>
        <time>2024-03-21T12:28:23Z</time>
      </trkpt>
      <trkpt lat="42.81341736" lon="13.50345899">
        <ele>229.00000</ele>
        <time>2024-03-21T12:28:24Z</time>
      </trkpt>
      <trkpt lat="42.81334712" lon="13.50346117">
        <ele>229.00000</ele>
        <time>2024-03-21T12:28:25Z</time>
      </trkpt>
      <trkpt lat="42.81327922" lon="13.50345765">
        <ele>229.00000</ele>
        <time>2024-03-21T12:28:26Z</time>
      </trkpt>
      <trkpt lat="42.81320890" lon="13.50345220">
        <ele>229.00000</ele>
        <time>2024-03-21T12:28:27Z</time>
      </trkpt>
      <trkpt lat="42.81313740" lon="13.50344306">
        <ele>229.00000</ele>
        <time>2024-03-21T12:28:28Z</time>
      </trkpt>
      <trkpt lat="42.81306716" lon="13.50343284">
        <ele>229.00000</ele>
        <time>2024-03-21T12:28:29Z</time>
      </trkpt>
      <trkpt lat="42.81300924" lon="13.50342730">
        <ele>229.00000</ele>
        <time>2024-03-21T12:28:30Z</time>
      </trkpt>
      <trkpt lat="42.81292358" lon="13.50341616">
        <ele>229.00000</ele>
        <time>2024-03-21T12:28:31Z</time>
      </trkpt>
      <trkpt lat="42.81285108" lon="13.50340484">
        <ele>229.00000</ele>
        <time>2024-03-21T12:28:32Z</time>
      </trkpt>
      <trkpt lat="42.81277765" lon="13.50339596">
        <ele>228.00000</ele>
        <time>2024-03-21T12:28:33Z</time>
      </trkpt>
      <trkpt lat="42.81270389" lon="13.50338229">
        <ele>228.00000</ele>
        <time>2024-03-21T12:28:34Z</time>
      </trkpt>
      <trkpt lat="42.81264496" lon="13.50336922">
        <ele>228.00000</ele>
        <time>2024-03-21T12:28:35Z</time>
      </trkpt>
      <trkpt lat="42.81255612" lon="13.50334843">
        <ele>228.00000</ele>
        <time>2024-03-21T12:28:36Z</time>
      </trkpt>
      <trkpt lat="42.81249568" lon="13.50333259">
        <ele>227.00000</ele>
        <time>2024-03-21T12:28:37Z</time>
      </trkpt>
      <trkpt lat="42.81240818" lon="13.50329923">
        <ele>227.00000</ele>
        <time>2024-03-21T12:28:38Z</time>
      </trkpt>
      <trkpt lat="42.81235001" lon="13.50327442">
        <ele>227.00000</ele>
        <time>2024-03-21T12:28:39Z</time>
      </trkpt>
      <trkpt lat="42.81227717" lon="13.50324391">
        <ele>226.00000</ele>
        <time>2024-03-21T12:28:40Z</time>
      </trkpt>
      <trkpt lat="42.81218497" lon="13.50321248">
        <ele>226.00000</ele>
        <time>2024-03-21T12:28:41Z</time>
      </trkpt>
      <trkpt lat="42.81210173" lon="13.50318172">
        <ele>225.00000</ele>
        <time>2024-03-21T12:28:42Z</time>
      </trkpt>
      <trkpt lat="42.81203535" lon="13.50315338">
        <ele>224.00000</ele>
        <time>2024-03-21T12:28:43Z</time>
      </trkpt>
      <trkpt lat="42.81193787" lon="13.50311625">
        <ele>223.00000</ele>
        <time>2024-03-21T12:28:44Z</time>
      </trkpt>
      <trkpt lat="42.81187048" lon="13.50308817">
        <ele>223.00000</ele>
        <time>2024-03-21T12:28:45Z</time>
      </trkpt>
      <trkpt lat="42.81178641" lon="13.50305599">
        <ele>223.00000</ele>
        <time>2024-03-21T12:28:46Z</time>
      </trkpt>
      <trkpt lat="42.81167610" lon="13.50301994">
        <ele>223.00000</ele>
        <time>2024-03-21T12:28:47Z</time>
      </trkpt>
      <trkpt lat="42.81158273" lon="13.50299404">
        <ele>225.00000</ele>
        <time>2024-03-21T12:28:48Z</time>
      </trkpt>
      <trkpt lat="42.81150980" lon="13.50297619">
        <ele>225.00000</ele>
        <time>2024-03-21T12:28:49Z</time>
      </trkpt>
      <trkpt lat="42.81140210" lon="13.50295473">
        <ele>226.00000</ele>
        <time>2024-03-21T12:28:50Z</time>
      </trkpt>
      <trkpt lat="42.81130948" lon="13.50293629">
        <ele>227.00000</ele>
        <time>2024-03-21T12:28:51Z</time>
      </trkpt>
      <trkpt lat="42.81122130" lon="13.50291836">
        <ele>227.00000</ele>
        <time>2024-03-21T12:28:52Z</time>
      </trkpt>
      <trkpt lat="42.81113253" lon="13.50290117">
        <ele>227.00000</ele>
        <time>2024-03-21T12:28:53Z</time>
      </trkpt>
      <trkpt lat="42.81106271" lon="13.50288877">
        <ele>226.00000</ele>
        <time>2024-03-21T12:28:54Z</time>
      </trkpt>
      <trkpt lat="42.81095559" lon="13.50287008">
        <ele>226.00000</ele>
        <time>2024-03-21T12:28:55Z</time>
      </trkpt>
      <trkpt lat="42.81086389" lon="13.50285063">
        <ele>225.00000</ele>
        <time>2024-03-21T12:28:56Z</time>
      </trkpt>
      <trkpt lat="42.81077186" lon="13.50282867">
        <ele>224.00000</ele>
        <time>2024-03-21T12:28:57Z</time>
      </trkpt>
      <trkpt lat="42.81068209" lon="13.50281098">
        <ele>223.00000</ele>
        <time>2024-03-21T12:28:58Z</time>
      </trkpt>
      <trkpt lat="42.81061185" lon="13.50280269">
        <ele>223.00000</ele>
        <time>2024-03-21T12:28:59Z</time>
      </trkpt>
      <trkpt lat="42.81050833" lon="13.50278575">
        <ele>222.00000</ele>
        <time>2024-03-21T12:29:00Z</time>
      </trkpt>
      <trkpt lat="42.81042611" lon="13.50276597">
        <ele>222.00000</ele>
        <time>2024-03-21T12:29:01Z</time>
      </trkpt>
      <trkpt lat="42.81034497" lon="13.50273974">
        <ele>222.00000</ele>
        <time>2024-03-21T12:29:02Z</time>
      </trkpt>
      <trkpt lat="42.81026333" lon="13.50270797">
        <ele>222.00000</ele>
        <time>2024-03-21T12:29:03Z</time>
      </trkpt>
      <trkpt lat="42.81018320" lon="13.50268257">
        <ele>223.00000</ele>
        <time>2024-03-21T12:29:04Z</time>
      </trkpt>
      <trkpt lat="42.81010173" lon="13.50265449">
        <ele>223.00000</ele>
        <time>2024-03-21T12:29:05Z</time>
      </trkpt>
      <trkpt lat="42.81002554" lon="13.50262608">
        <ele>224.00000</ele>
        <time>2024-03-21T12:29:06Z</time>
      </trkpt>
      <trkpt lat="42.80994901" lon="13.50259590">
        <ele>224.00000</ele>
        <time>2024-03-21T12:29:07Z</time>
      </trkpt>
      <trkpt lat="42.80987139" lon="13.50256028">
        <ele>224.00000</ele>
        <time>2024-03-21T12:29:08Z</time>
      </trkpt>
      <trkpt lat="42.80980979" lon="13.50253161">
        <ele>224.00000</ele>
        <time>2024-03-21T12:29:09Z</time>
      </trkpt>
      <trkpt lat="42.80972060" lon="13.50248686">
        <ele>224.00000</ele>
        <time>2024-03-21T12:29:10Z</time>
      </trkpt>
      <trkpt lat="42.80964810" lon="13.50244411">
        <ele>224.00000</ele>
        <time>2024-03-21T12:29:11Z</time>
      </trkpt>
      <trkpt lat="42.80957627" lon="13.50239683">
        <ele>223.00000</ele>
        <time>2024-03-21T12:29:12Z</time>
      </trkpt>
      <trkpt lat="42.80951877" lon="13.50235559">
        <ele>223.00000</ele>
        <time>2024-03-21T12:29:13Z</time>
      </trkpt>
      <trkpt lat="42.80945347" lon="13.50229659">
        <ele>223.00000</ele>
        <time>2024-03-21T12:29:14Z</time>
      </trkpt>
      <trkpt lat="42.80937745" lon="13.50221319">
        <ele>223.00000</ele>
        <time>2024-03-21T12:29:15Z</time>
      </trkpt>
      <trkpt lat="42.80932079" lon="13.50213565">
        <ele>224.00000</ele>
        <time>2024-03-21T12:29:16Z</time>
      </trkpt>
      <trkpt lat="42.80926966" lon="13.50205368">
        <ele>225.00000</ele>
        <time>2024-03-21T12:29:17Z</time>
      </trkpt>
      <trkpt lat="42.80922020" lon="13.50197070">
        <ele>226.00000</ele>
        <time>2024-03-21T12:29:18Z</time>
      </trkpt>
      <trkpt lat="42.80917234" lon="13.50188747">
        <ele>226.00000</ele>
        <time>2024-03-21T12:29:19Z</time>
      </trkpt>
      <trkpt lat="42.80912138" lon="13.50180331">
        <ele>226.00000</ele>
        <time>2024-03-21T12:29:20Z</time>
      </trkpt>
      <trkpt lat="42.80907352" lon="13.50171949">
        <ele>227.00000</ele>
        <time>2024-03-21T12:29:21Z</time>
      </trkpt>
      <trkpt lat="42.80902608" lon="13.50163609">
        <ele>227.00000</ele>
        <time>2024-03-21T12:29:22Z</time>
      </trkpt>
      <trkpt lat="42.80897721" lon="13.50155395">
        <ele>226.00000</ele>
        <time>2024-03-21T12:29:23Z</time>
      </trkpt>
      <trkpt lat="42.80892834" lon="13.50147281">
        <ele>226.00000</ele>
        <time>2024-03-21T12:29:24Z</time>
      </trkpt>
      <trkpt lat="42.80888124" lon="13.50139360">
        <ele>225.00000</ele>
        <time>2024-03-21T12:29:25Z</time>
      </trkpt>
      <trkpt lat="42.80883547" lon="13.50131054">
        <ele>225.00000</ele>
        <time>2024-03-21T12:29:26Z</time>
      </trkpt>
      <trkpt lat="42.80878820" lon="13.50122831">
        <ele>225.00000</ele>
        <time>2024-03-21T12:29:27Z</time>
      </trkpt>
      <trkpt lat="42.80874830" lon="13.50116604">
        <ele>224.00000</ele>
        <time>2024-03-21T12:29:28Z</time>
      </trkpt>
      <trkpt lat="42.80868703" lon="13.50107476">
        <ele>223.00000</ele>
        <time>2024-03-21T12:29:29Z</time>
      </trkpt>
      <trkpt lat="42.80864059" lon="13.50099555">
        <ele>223.00000</ele>
        <time>2024-03-21T12:29:30Z</time>
      </trkpt>
      <trkpt lat="42.80859684" lon="13.50091282">
        <ele>223.00000</ele>
        <time>2024-03-21T12:29:31Z</time>
      </trkpt>
      <trkpt lat="42.80855032" lon="13.50082891">
        <ele>223.00000</ele>
        <time>2024-03-21T12:29:32Z</time>
      </trkpt>
      <trkpt lat="42.80850615" lon="13.50074208">
        <ele>223.00000</ele>
        <time>2024-03-21T12:29:33Z</time>
      </trkpt>
      <trkpt lat="42.80846843" lon="13.50065960">
        <ele>223.00000</ele>
        <time>2024-03-21T12:29:34Z</time>
      </trkpt>
      <trkpt lat="42.80843700" lon="13.50057209">
        <ele>224.00000</ele>
        <time>2024-03-21T12:29:35Z</time>
      </trkpt>
      <trkpt lat="42.80841747" lon="13.50049506">
        <ele>224.00000</ele>
        <time>2024-03-21T12:29:36Z</time>
      </trkpt>
      <trkpt lat="42.80839878" lon="13.50039272">
        <ele>225.00000</ele>
        <time>2024-03-21T12:29:37Z</time>
      </trkpt>
      <trkpt lat="42.80838553" lon="13.50026682">
        <ele>225.00000</ele>
        <time>2024-03-21T12:29:38Z</time>
      </trkpt>
      <trkpt lat="42.80837363" lon="13.50016431">
        <ele>226.00000</ele>
        <time>2024-03-21T12:29:39Z</time>
      </trkpt>
      <trkpt lat="42.80836366" lon="13.50005996">
        <ele>227.00000</ele>
        <time>2024-03-21T12:29:40Z</time>
      </trkpt>
      <trkpt lat="42.80835771" lon="13.49995527">
        <ele>228.00000</ele>
        <time>2024-03-21T12:29:41Z</time>
      </trkpt>
      <trkpt lat="42.80835460" lon="13.49986994">
        <ele>228.00000</ele>
        <time>2024-03-21T12:29:42Z</time>
      </trkpt>
      <trkpt lat="42.80835385" lon="13.49976156">
        <ele>228.00000</ele>
        <time>2024-03-21T12:29:43Z</time>
      </trkpt>
      <trkpt lat="42.80835502" lon="13.49963600">
        <ele>228.00000</ele>
        <time>2024-03-21T12:29:44Z</time>
      </trkpt>
      <trkpt lat="42.80836332" lon="13.49953366">
        <ele>229.00000</ele>
        <time>2024-03-21T12:29:45Z</time>
      </trkpt>
      <trkpt lat="42.80837363" lon="13.49943182">
        <ele>229.00000</ele>
        <time>2024-03-21T12:29:46Z</time>
      </trkpt>
      <trkpt lat="42.80838553" lon="13.49933107">
        <ele>228.00000</ele>
        <time>2024-03-21T12:29:47Z</time>
      </trkpt>
      <trkpt lat="42.80839878" lon="13.49925094">
        <ele>228.00000</ele>
        <time>2024-03-21T12:29:48Z</time>
      </trkpt>
      <trkpt lat="42.80842183" lon="13.49912747">
        <ele>227.00000</ele>
        <time>2024-03-21T12:29:49Z</time>
      </trkpt>
      <trkpt lat="42.80844840" lon="13.49902471">
        <ele>227.00000</ele>
        <time>2024-03-21T12:29:50Z</time>
      </trkpt>
      <trkpt lat="42.80847799" lon="13.49892346">
        <ele>226.00000</ele>
        <time>2024-03-21T12:29:51Z</time>
      </trkpt>
      <trkpt lat="42.80851637" lon="13.49882648">
        <ele>226.00000</ele>
        <time>2024-03-21T12:29:52Z</time>
      </trkpt>
      <trkpt lat="42.80856038" lon="13.49872883">
        <ele>226.00000</ele>
        <time>2024-03-21T12:29:53Z</time>
      </trkpt>
      <trkpt lat="42.80860757" lon="13.49863361">
        <ele>226.00000</ele>
        <time>2024-03-21T12:29:54Z</time>
      </trkpt>
      <trkpt lat="42.80865560" lon="13.49853881">
        <ele>225.00000</ele>
        <time>2024-03-21T12:29:55Z</time>
      </trkpt>
      <trkpt lat="42.80869994" lon="13.49844032">
        <ele>225.00000</ele>
        <time>2024-03-21T12:29:56Z</time>
      </trkpt>
      <trkpt lat="42.80875149" lon="13.49834050">
        <ele>225.00000</ele>
        <time>2024-03-21T12:29:57Z</time>
      </trkpt>
      <trkpt lat="42.80880806" lon="13.49824888">
        <ele>225.00000</ele>
        <time>2024-03-21T12:29:58Z</time>
      </trkpt>
      <trkpt lat="42.80886833" lon="13.49815861">
        <ele>224.00000</ele>
        <time>2024-03-21T12:29:59Z</time>
      </trkpt>
      <trkpt lat="42.80892742" lon="13.49806599">
        <ele>225.00000</ele>
        <time>2024-03-21T12:30:00Z</time>
      </trkpt>
      <trkpt lat="42.80897185" lon="13.49799340">
        <ele>226.00000</ele>
        <time>2024-03-21T12:30:01Z</time>
      </trkpt>
      <trkpt lat="42.80903882" lon="13.49788460">
        <ele>228.00000</ele>
        <time>2024-03-21T12:30:02Z</time>
      </trkpt>
      <trkpt lat="42.80909565" lon="13.49779626">
        <ele>229.00000</ele>
        <time>2024-03-21T12:30:03Z</time>
      </trkpt>
      <trkpt lat="42.80915457" lon="13.49771085">
        <ele>231.00000</ele>
        <time>2024-03-21T12:30:04Z</time>
      </trkpt>
      <trkpt lat="42.80921584" lon="13.49763189">
        <ele>232.00000</ele>
        <time>2024-03-21T12:30:05Z</time>
      </trkpt>
      <trkpt lat="42.80926463" lon="13.49757162">
        <ele>233.00000</ele>
        <time>2024-03-21T12:30:06Z</time>
      </trkpt>
      <trkpt lat="42.80933160" lon="13.49747288">
        <ele>234.00000</ele>
        <time>2024-03-21T12:30:07Z</time>
      </trkpt>
      <trkpt lat="42.80938516" lon="13.49739233">
        <ele>234.00000</ele>
        <time>2024-03-21T12:30:08Z</time>
      </trkpt>
      <trkpt lat="42.80943688" lon="13.49731153">
        <ele>234.00000</ele>
        <time>2024-03-21T12:30:09Z</time>
      </trkpt>
      <trkpt lat="42.80949127" lon="13.49722931">
        <ele>233.00000</ele>
        <time>2024-03-21T12:30:10Z</time>
      </trkpt>
      <trkpt lat="42.80954458" lon="13.49714423">
        <ele>232.00000</ele>
        <time>2024-03-21T12:30:11Z</time>
      </trkpt>
      <trkpt lat="42.80959538" lon="13.49706100">
        <ele>232.00000</ele>
        <time>2024-03-21T12:30:12Z</time>
      </trkpt>
      <trkpt lat="42.80964810" lon="13.49697969">
        <ele>231.00000</ele>
        <time>2024-03-21T12:30:13Z</time>
      </trkpt>
      <trkpt lat="42.80970174" lon="13.49689068">
        <ele>230.00000</ele>
        <time>2024-03-21T12:30:14Z</time>
      </trkpt>
      <trkpt lat="42.80975086" lon="13.49679705">
        <ele>230.00000</ele>
        <time>2024-03-21T12:30:15Z</time>
      </trkpt>
      <trkpt lat="42.80978313" lon="13.49672203">
        <ele>230.00000</ele>
        <time>2024-03-21T12:30:16Z</time>
      </trkpt>
      <trkpt lat="42.80982018" lon="13.49660008">
        <ele>231.00000</ele>
        <time>2024-03-21T12:30:17Z</time>
      </trkpt>
      <trkpt lat="42.80984968" lon="13.49649270">
        <ele>231.00000</ele>
        <time>2024-03-21T12:30:18Z</time>
      </trkpt>
      <trkpt lat="42.80986879" lon="13.49638475">
        <ele>232.00000</ele>
        <time>2024-03-21T12:30:19Z</time>
      </trkpt>
      <trkpt lat="42.80988237" lon="13.49627587">
        <ele>232.00000</ele>
        <time>2024-03-21T12:30:20Z</time>
      </trkpt>
      <trkpt lat="42.80988330" lon="13.49616698">
        <ele>232.00000</ele>
        <time>2024-03-21T12:30:21Z</time>
      </trkpt>
      <trkpt lat="42.80987709" lon="13.49606196">
        <ele>233.00000</ele>
        <time>2024-03-21T12:30:22Z</time>
      </trkpt>
      <trkpt lat="42.80986460" lon="13.49595911">
        <ele>233.00000</ele>
        <time>2024-03-21T12:30:23Z</time>
      </trkpt>
      <trkpt lat="42.80984692" lon="13.49585576">
        <ele>233.00000</ele>
        <time>2024-03-21T12:30:24Z</time>
      </trkpt>
      <trkpt lat="42.80982596" lon="13.49577404">
        <ele>233.00000</ele>
        <time>2024-03-21T12:30:25Z</time>
      </trkpt>
      <trkpt lat="42.80979302" lon="13.49565619">
        <ele>233.00000</ele>
        <time>2024-03-21T12:30:26Z</time>
      </trkpt>
      <trkpt lat="42.80976184" lon="13.49556131">
        <ele>232.00000</ele>
        <time>2024-03-21T12:30:27Z</time>
      </trkpt>
      <trkpt lat="42.80973016" lon="13.49546902">
        <ele>232.00000</ele>
        <time>2024-03-21T12:30:28Z</time>
      </trkpt>
      <trkpt lat="42.80970468" lon="13.49537380">
        <ele>233.00000</ele>
        <time>2024-03-21T12:30:29Z</time>
      </trkpt>
      <trkpt lat="42.80967961" lon="13.49527783">
        <ele>233.00000</ele>
        <time>2024-03-21T12:30:30Z</time>
      </trkpt>
      <trkpt lat="42.80965346" lon="13.49518245">
        <ele>234.00000</ele>
        <time>2024-03-21T12:30:31Z</time>
      </trkpt>
      <trkpt lat="42.80962429" lon="13.49508966">
        <ele>234.00000</ele>
        <time>2024-03-21T12:30:32Z</time>
      </trkpt>
      <trkpt lat="42.80959261" lon="13.49499871">
        <ele>235.00000</ele>
        <time>2024-03-21T12:30:33Z</time>
      </trkpt>
      <trkpt lat="42.80956570" lon="13.49492588">
        <ele>235.00000</ele>
        <time>2024-03-21T12:30:34Z</time>
      </trkpt>
      <trkpt lat="42.80953628" lon="13.49483359">
        <ele>235.00000</ele>
        <time>2024-03-21T12:30:35Z</time>
      </trkpt>
      <trkpt lat="42.80950058" lon="13.49472505">
        <ele>236.00000</ele>
        <time>2024-03-21T12:30:36Z</time>
      </trkpt>
      <trkpt lat="42.80946998" lon="13.49463486">
        <ele>235.00000</ele>
        <time>2024-03-21T12:30:37Z</time>
      </trkpt>
      <trkpt lat="42.80943897" lon="13.49454626">
        <ele>235.00000</ele>
        <time>2024-03-21T12:30:38Z</time>
      </trkpt>
      <trkpt lat="42.80941416" lon="13.49447267">
        <ele>235.00000</ele>
        <time>2024-03-21T12:30:39Z</time>
      </trkpt>
      <trkpt lat="42.80938256" lon="13.49438281">
        <ele>234.00000</ele>
        <time>2024-03-21T12:30:40Z</time>
      </trkpt>
      <trkpt lat="42.80934551" lon="13.49427762">
        <ele>233.00000</ele>
        <time>2024-03-21T12:30:41Z</time>
      </trkpt>
      <trkpt lat="42.80931400" lon="13.49418684">
        <ele>233.00000</ele>
        <time>2024-03-21T12:30:42Z</time>
      </trkpt>
      <trkpt lat="42.80928567" lon="13.49409707">
        <ele>232.00000</ele>
        <time>2024-03-21T12:30:43Z</time>
      </trkpt>
      <trkpt lat="42.80926412" lon="13.49402465">
        <ele>232.00000</ele>
        <time>2024-03-21T12:30:44Z</time>
      </trkpt>
      <trkpt lat="42.80923487" lon="13.49393212">
        <ele>231.00000</ele>
        <time>2024-03-21T12:30:45Z</time>
      </trkpt>
      <trkpt lat="42.80920729" lon="13.49384042">
        <ele>232.00000</ele>
        <time>2024-03-21T12:30:46Z</time>
      </trkpt>
      <trkpt lat="42.80917184" lon="13.49373187">
        <ele>232.00000</ele>
        <time>2024-03-21T12:30:47Z</time>
      </trkpt>
      <trkpt lat="42.80914250" lon="13.49364168">
        <ele>233.00000</ele>
        <time>2024-03-21T12:30:48Z</time>
      </trkpt>
      <trkpt lat="42.80912163" lon="13.49356818">
        <ele>233.00000</ele>
        <time>2024-03-21T12:30:49Z</time>
      </trkpt>
      <trkpt lat="42.80908852" lon="13.49345745">
        <ele>234.00000</ele>
        <time>2024-03-21T12:30:50Z</time>
      </trkpt>
      <trkpt lat="42.80905676" lon="13.49336483">
        <ele>234.00000</ele>
        <time>2024-03-21T12:30:51Z</time>
      </trkpt>
      <trkpt lat="42.80902599" lon="13.49327456">
        <ele>234.00000</ele>
        <time>2024-03-21T12:30:52Z</time>
      </trkpt>
      <trkpt lat="42.80899691" lon="13.49317850">
        <ele>234.00000</ele>
        <time>2024-03-21T12:30:53Z</time>
      </trkpt>
      <trkpt lat="42.80897277" lon="13.49310399">
        <ele>234.00000</ele>
        <time>2024-03-21T12:30:54Z</time>
      </trkpt>
      <trkpt lat="42.80893656" lon="13.49299326">
        <ele>233.00000</ele>
        <time>2024-03-21T12:30:55Z</time>
      </trkpt>
      <trkpt lat="42.80890680" lon="13.49289947">
        <ele>233.00000</ele>
        <time>2024-03-21T12:30:56Z</time>
      </trkpt>
      <trkpt lat="42.80887696" lon="13.49280064">
        <ele>232.00000</ele>
        <time>2024-03-21T12:30:57Z</time>
      </trkpt>
      <trkpt lat="42.80885383" lon="13.49272588">
        <ele>232.00000</ele>
        <time>2024-03-21T12:30:58Z</time>
      </trkpt>
      <trkpt lat="42.80882676" lon="13.49263200">
        <ele>233.00000</ele>
        <time>2024-03-21T12:30:59Z</time>
      </trkpt>
      <trkpt lat="42.80879524" lon="13.49251574">
        <ele>233.00000</ele>
        <time>2024-03-21T12:31:00Z</time>
      </trkpt>
      <trkpt lat="42.80876741" lon="13.49241751">
        <ele>234.00000</ele>
        <time>2024-03-21T12:31:01Z</time>
      </trkpt>
      <trkpt lat="42.80874017" lon="13.49232045">
        <ele>235.00000</ele>
        <time>2024-03-21T12:31:02Z</time>
      </trkpt>
      <trkpt lat="42.80871167" lon="13.49222338">
        <ele>235.00000</ele>
        <time>2024-03-21T12:31:03Z</time>
      </trkpt>
      <trkpt lat="42.80868183" lon="13.49212557">
        <ele>236.00000</ele>
        <time>2024-03-21T12:31:04Z</time>
      </trkpt>
      <trkpt lat="42.80865283" lon="13.49202850">
        <ele>237.00000</ele>
        <time>2024-03-21T12:31:05Z</time>
      </trkpt>
      <trkpt lat="42.80862467" lon="13.49193412">
        <ele>237.00000</ele>
        <time>2024-03-21T12:31:06Z</time>
      </trkpt>
      <trkpt lat="42.80860229" lon="13.49185852">
        <ele>238.00000</ele>
        <time>2024-03-21T12:31:07Z</time>
      </trkpt>
      <trkpt lat="42.80857396" lon="13.49176296">
        <ele>238.00000</ele>
        <time>2024-03-21T12:31:08Z</time>
      </trkpt>
      <trkpt lat="42.80853674" lon="13.49165216">
        <ele>239.00000</ele>
        <time>2024-03-21T12:31:09Z</time>
      </trkpt>
      <trkpt lat="42.80849944" lon="13.49156448">
        <ele>238.00000</ele>
        <time>2024-03-21T12:31:10Z</time>
      </trkpt>
      <trkpt lat="42.80845812" lon="13.49147899">
        <ele>238.00000</ele>
        <time>2024-03-21T12:31:11Z</time>
      </trkpt>
      <trkpt lat="42.80842082" lon="13.49141822">
        <ele>237.00000</ele>
        <time>2024-03-21T12:31:12Z</time>
      </trkpt>
      <trkpt lat="42.80835787" lon="13.49133172">
        <ele>237.00000</ele>
        <time>2024-03-21T12:31:13Z</time>
      </trkpt>
      <trkpt lat="42.80829752" lon="13.49126810">
        <ele>237.00000</ele>
        <time>2024-03-21T12:31:14Z</time>
      </trkpt>
      <trkpt lat="42.80823642" lon="13.49120758">
        <ele>237.00000</ele>
        <time>2024-03-21T12:31:15Z</time>
      </trkpt>
      <trkpt lat="42.80817590" lon="13.49114865">
        <ele>237.00000</ele>
        <time>2024-03-21T12:31:16Z</time>
      </trkpt>
      <trkpt lat="42.80812804" lon="13.49110222">
        <ele>237.00000</ele>
        <time>2024-03-21T12:31:17Z</time>
      </trkpt>
      <trkpt lat="42.80805705" lon="13.49103257">
        <ele>236.00000</ele>
        <time>2024-03-21T12:31:18Z</time>
      </trkpt>
      <trkpt lat="42.80800801" lon="13.49099057">
        <ele>236.00000</ele>
        <time>2024-03-21T12:31:19Z</time>
      </trkpt>
      <trkpt lat="42.80793442" lon="13.49093316">
        <ele>236.00000</ele>
        <time>2024-03-21T12:31:20Z</time>
      </trkpt>
      <trkpt lat="42.80787457" lon="13.49088379">
        <ele>235.00000</ele>
        <time>2024-03-21T12:31:21Z</time>
      </trkpt>
      <trkpt lat="42.80782537" lon="13.49084096">
        <ele>235.00000</ele>
        <time>2024-03-21T12:31:22Z</time>
      </trkpt>
      <trkpt lat="42.80775278" lon="13.49078061">
        <ele>234.00000</ele>
        <time>2024-03-21T12:31:23Z</time>
      </trkpt>
      <trkpt lat="42.80769176" lon="13.49073015">
        <ele>235.00000</ele>
        <time>2024-03-21T12:31:24Z</time>
      </trkpt>
      <trkpt lat="42.80762622" lon="13.49067390">
        <ele>235.00000</ele>
        <time>2024-03-21T12:31:25Z</time>
      </trkpt>
      <trkpt lat="42.80755983" lon="13.49061582">
        <ele>235.00000</ele>
        <time>2024-03-21T12:31:26Z</time>
      </trkpt>
      <trkpt lat="42.80750736" lon="13.49056838">
        <ele>235.00000</ele>
        <time>2024-03-21T12:31:27Z</time>
      </trkpt>
      <trkpt lat="42.80742639" lon="13.49049596">
        <ele>235.00000</ele>
        <time>2024-03-21T12:31:28Z</time>
      </trkpt>
      <trkpt lat="42.80736512" lon="13.49043494">
        <ele>234.00000</ele>
        <time>2024-03-21T12:31:29Z</time>
      </trkpt>
      <trkpt lat="42.80730552" lon="13.49037232">
        <ele>234.00000</ele>
        <time>2024-03-21T12:31:30Z</time>
      </trkpt>
      <trkpt lat="42.80724777" lon="13.49030368">
        <ele>234.00000</ele>
        <time>2024-03-21T12:31:31Z</time>
      </trkpt>
      <trkpt lat="42.80720125" lon="13.49024559">
        <ele>233.00000</ele>
        <time>2024-03-21T12:31:32Z</time>
      </trkpt>
      <trkpt lat="42.80712867" lon="13.49015842">
        <ele>233.00000</ele>
        <time>2024-03-21T12:31:33Z</time>
      </trkpt>
      <trkpt lat="42.80707133" lon="13.49008541">
        <ele>233.00000</ele>
        <time>2024-03-21T12:31:34Z</time>
      </trkpt>
      <trkpt lat="42.80701786" lon="13.49000846">
        <ele>233.00000</ele>
        <time>2024-03-21T12:31:35Z</time>
      </trkpt>
      <trkpt lat="42.80697218" lon="13.48994811">
        <ele>234.00000</ele>
        <time>2024-03-21T12:31:36Z</time>
      </trkpt>
      <trkpt lat="42.80690453" lon="13.48985834">
        <ele>234.00000</ele>
        <time>2024-03-21T12:31:37Z</time>
      </trkpt>
      <trkpt lat="42.80684628" lon="13.48978416">
        <ele>234.00000</ele>
        <time>2024-03-21T12:31:38Z</time>
      </trkpt>
      <trkpt lat="42.80678845" lon="13.48971200">
        <ele>234.00000</ele>
        <time>2024-03-21T12:31:39Z</time>
      </trkpt>
      <trkpt lat="42.80673078" lon="13.48963857">
        <ele>234.00000</ele>
        <time>2024-03-21T12:31:40Z</time>
      </trkpt>
      <trkpt lat="42.80668644" lon="13.48958015">
        <ele>233.00000</ele>
        <time>2024-03-21T12:31:41Z</time>
      </trkpt>
      <trkpt lat="42.80662793" lon="13.48950605">
        <ele>232.00000</ele>
        <time>2024-03-21T12:31:42Z</time>
      </trkpt>
      <trkpt lat="42.80656909" lon="13.48943288">
        <ele>231.00000</ele>
        <time>2024-03-21T12:31:43Z</time>
      </trkpt>
      <trkpt lat="42.80651050" lon="13.48935954">
        <ele>231.00000</ele>
        <time>2024-03-21T12:31:44Z</time>
      </trkpt>
      <trkpt lat="42.80645342" lon="13.48928561">
        <ele>230.00000</ele>
        <time>2024-03-21T12:31:45Z</time>
      </trkpt>
      <trkpt lat="42.80639760" lon="13.48921118">
        <ele>230.00000</ele>
        <time>2024-03-21T12:31:46Z</time>
      </trkpt>
      <trkpt lat="42.80632903" lon="13.48912468">
        <ele>231.00000</ele>
        <time>2024-03-21T12:31:47Z</time>
      </trkpt>
      <trkpt lat="42.80628268" lon="13.48906533">
        <ele>231.00000</ele>
        <time>2024-03-21T12:31:48Z</time>
      </trkpt>
      <trkpt lat="42.80622728" lon="13.48899350">
        <ele>231.00000</ele>
        <time>2024-03-21T12:31:49Z</time>
      </trkpt>
      <trkpt lat="42.80617187" lon="13.48892058">
        <ele>232.00000</ele>
        <time>2024-03-21T12:31:50Z</time>
      </trkpt>
      <trkpt lat="42.80611689" lon="13.48885101">
        <ele>232.00000</ele>
        <time>2024-03-21T12:31:51Z</time>
      </trkpt>
      <trkpt lat="42.80606240" lon="13.48878404">
        <ele>232.00000</ele>
        <time>2024-03-21T12:31:52Z</time>
      </trkpt>
      <trkpt lat="42.80600851" lon="13.48871723">
        <ele>232.00000</ele>
        <time>2024-03-21T12:31:53Z</time>
      </trkpt>
      <trkpt lat="42.80595554" lon="13.48864858">
        <ele>232.00000</ele>
        <time>2024-03-21T12:31:54Z</time>
      </trkpt>
      <trkpt lat="42.80590231" lon="13.48857994">
        <ele>232.00000</ele>
        <time>2024-03-21T12:31:55Z</time>
      </trkpt>
      <trkpt lat="42.80584825" lon="13.48851288">
        <ele>232.00000</ele>
        <time>2024-03-21T12:31:56Z</time>
      </trkpt>
      <trkpt lat="42.80578580" lon="13.48843124">
        <ele>233.00000</ele>
        <time>2024-03-21T12:31:57Z</time>
      </trkpt>
      <trkpt lat="42.80573258" lon="13.48836285">
        <ele>233.00000</ele>
        <time>2024-03-21T12:31:58Z</time>
      </trkpt>
      <trkpt lat="42.80569167" lon="13.48830727">
        <ele>234.00000</ele>
        <time>2024-03-21T12:31:59Z</time>
      </trkpt>
      <trkpt lat="42.80564071" lon="13.48823569">
        <ele>235.00000</ele>
        <time>2024-03-21T12:32:00Z</time>
      </trkpt>
      <trkpt lat="42.80558799" lon="13.48816663">
        <ele>235.00000</ele>
        <time>2024-03-21T12:32:01Z</time>
      </trkpt>
      <trkpt lat="42.80553502" lon="13.48809890">
        <ele>236.00000</ele>
        <time>2024-03-21T12:32:02Z</time>
      </trkpt>
      <trkpt lat="42.80548095" lon="13.48803218">
        <ele>236.00000</ele>
        <time>2024-03-21T12:32:03Z</time>
      </trkpt>
      <trkpt lat="42.80541532" lon="13.48794995">
        <ele>237.00000</ele>
        <time>2024-03-21T12:32:04Z</time>
      </trkpt>
      <trkpt lat="42.80537299" lon="13.48789648">
        <ele>237.00000</ele>
        <time>2024-03-21T12:32:05Z</time>
      </trkpt>
      <trkpt lat="42.80531072" lon="13.48781693">
        <ele>237.00000</ele>
        <time>2024-03-21T12:32:06Z</time>
      </trkpt>
      <trkpt lat="42.80525992" lon="13.48775122">
        <ele>237.00000</ele>
        <time>2024-03-21T12:32:07Z</time>
      </trkpt>
      <trkpt lat="42.80520846" lon="13.48768559">
        <ele>237.00000</ele>
        <time>2024-03-21T12:32:08Z</time>
      </trkpt>
      <trkpt lat="42.80515590" lon="13.48761836">
        <ele>237.00000</ele>
        <time>2024-03-21T12:32:09Z</time>
      </trkpt>
      <trkpt lat="42.80511324" lon="13.48756497">
        <ele>237.00000</ele>
        <time>2024-03-21T12:32:10Z</time>
      </trkpt>
      <trkpt lat="42.80505306" lon="13.48748744">
        <ele>238.00000</ele>
        <time>2024-03-21T12:32:11Z</time>
      </trkpt>
      <trkpt lat="42.80500310" lon="13.48742441">
        <ele>238.00000</ele>
        <time>2024-03-21T12:32:12Z</time>
      </trkpt>
      <trkpt lat="42.80495314" lon="13.48736138">
        <ele>238.00000</ele>
        <time>2024-03-21T12:32:13Z</time>
      </trkpt>
      <trkpt lat="42.80490159" lon="13.48729860">
        <ele>238.00000</ele>
        <time>2024-03-21T12:32:14Z</time>
      </trkpt>
      <trkpt lat="42.80485206" lon="13.48723556">
        <ele>238.00000</ele>
        <time>2024-03-21T12:32:15Z</time>
      </trkpt>
      <trkpt lat="42.80480017" lon="13.48717337">
        <ele>238.00000</ele>
        <time>2024-03-21T12:32:16Z</time>
      </trkpt>
      <trkpt lat="42.80474896" lon="13.48711285">
        <ele>238.00000</ele>
        <time>2024-03-21T12:32:17Z</time>
      </trkpt>
      <trkpt lat="42.80469867" lon="13.48704999">
        <ele>238.00000</ele>
        <time>2024-03-21T12:32:18Z</time>
      </trkpt>
      <trkpt lat="42.80464704" lon="13.48698746">
        <ele>238.00000</ele>
        <time>2024-03-21T12:32:19Z</time>
      </trkpt>
      <trkpt lat="42.80459959" lon="13.48692250">
        <ele>239.00000</ele>
        <time>2024-03-21T12:32:20Z</time>
      </trkpt>
      <trkpt lat="42.80455098" lon="13.48685737">
        <ele>239.00000</ele>
        <time>2024-03-21T12:32:21Z</time>
      </trkpt>
      <trkpt lat="42.80449918" lon="13.48679426">
        <ele>239.00000</ele>
        <time>2024-03-21T12:32:22Z</time>
      </trkpt>
      <trkpt lat="42.80444579" lon="13.48672963">
        <ele>239.00000</ele>
        <time>2024-03-21T12:32:23Z</time>
      </trkpt>
      <trkpt lat="42.80440597" lon="13.48667758">
        <ele>239.00000</ele>
        <time>2024-03-21T12:32:24Z</time>
      </trkpt>
      <trkpt lat="42.80435535" lon="13.48661446">
        <ele>240.00000</ele>
        <time>2024-03-21T12:32:25Z</time>
      </trkpt>
      <trkpt lat="42.80429667" lon="13.48653601">
        <ele>240.00000</ele>
        <time>2024-03-21T12:32:26Z</time>
      </trkpt>
      <trkpt lat="42.80424898" lon="13.48646636">
        <ele>240.00000</ele>
        <time>2024-03-21T12:32:27Z</time>
      </trkpt>
      <trkpt lat="42.80420263" lon="13.48639436">
        <ele>240.00000</ele>
        <time>2024-03-21T12:32:28Z</time>
      </trkpt>
      <trkpt lat="42.80415535" lon="13.48632286">
        <ele>241.00000</ele>
        <time>2024-03-21T12:32:29Z</time>
      </trkpt>
      <trkpt lat="42.80411118" lon="13.48624709">
        <ele>241.00000</ele>
        <time>2024-03-21T12:32:30Z</time>
      </trkpt>
      <trkpt lat="42.80406902" lon="13.48616746">
        <ele>242.00000</ele>
        <time>2024-03-21T12:32:31Z</time>
      </trkpt>
      <trkpt lat="42.80403256" lon="13.48608389">
        <ele>242.00000</ele>
        <time>2024-03-21T12:32:32Z</time>
      </trkpt>
      <trkpt lat="42.80400037" lon="13.48599764">
        <ele>241.00000</ele>
        <time>2024-03-21T12:32:33Z</time>
      </trkpt>
      <trkpt lat="42.80397732" lon="13.48592581">
        <ele>241.00000</ele>
        <time>2024-03-21T12:32:34Z</time>
      </trkpt>
      <trkpt lat="42.80394480" lon="13.48581508">
        <ele>241.00000</ele>
        <time>2024-03-21T12:32:35Z</time>
      </trkpt>
      <trkpt lat="42.80392041" lon="13.48572246">
        <ele>241.00000</ele>
        <time>2024-03-21T12:32:36Z</time>
      </trkpt>
      <trkpt lat="42.80389702" lon="13.48563043">
        <ele>241.00000</ele>
        <time>2024-03-21T12:32:37Z</time>
      </trkpt>
      <trkpt lat="42.80387666" lon="13.48553638">
        <ele>240.00000</ele>
        <time>2024-03-21T12:32:38Z</time>
      </trkpt>
      <trkpt lat="42.80386140" lon="13.48546137">
        <ele>240.00000</ele>
        <time>2024-03-21T12:32:39Z</time>
      </trkpt>
      <trkpt lat="42.80383625" lon="13.48534620">
        <ele>240.00000</ele>
        <time>2024-03-21T12:32:40Z</time>
      </trkpt>
      <trkpt lat="42.80381941" lon="13.48524696">
        <ele>240.00000</ele>
        <time>2024-03-21T12:32:41Z</time>
      </trkpt>
      <trkpt lat="42.80380541" lon="13.48514772">
        <ele>240.00000</ele>
        <time>2024-03-21T12:32:42Z</time>
      </trkpt>
      <trkpt lat="42.80379166" lon="13.48505401">
        <ele>240.00000</ele>
        <time>2024-03-21T12:32:43Z</time>
      </trkpt>
      <trkpt lat="42.80378286" lon="13.48497882">
        <ele>240.00000</ele>
        <time>2024-03-21T12:32:44Z</time>
      </trkpt>
      <trkpt lat="42.80377146" lon="13.48486122">
        <ele>240.00000</ele>
        <time>2024-03-21T12:32:45Z</time>
      </trkpt>
      <trkpt lat="42.80376157" lon="13.48476441">
        <ele>240.00000</ele>
        <time>2024-03-21T12:32:46Z</time>
      </trkpt>
      <trkpt lat="42.80375386" lon="13.48466726">
        <ele>240.00000</ele>
        <time>2024-03-21T12:32:47Z</time>
      </trkpt>
      <trkpt lat="42.80374707" lon="13.48456970">
        <ele>241.00000</ele>
        <time>2024-03-21T12:32:48Z</time>
      </trkpt>
      <trkpt lat="42.80374204" lon="13.48447096">
        <ele>242.00000</ele>
        <time>2024-03-21T12:32:49Z</time>
      </trkpt>
      <trkpt lat="42.80373869" lon="13.48437231">
        <ele>242.00000</ele>
        <time>2024-03-21T12:32:50Z</time>
      </trkpt>
      <trkpt lat="42.80373509" lon="13.48427147">
        <ele>242.00000</ele>
        <time>2024-03-21T12:32:51Z</time>
      </trkpt>
      <trkpt lat="42.80372830" lon="13.48416854">
        <ele>243.00000</ele>
        <time>2024-03-21T12:32:52Z</time>
      </trkpt>
      <trkpt lat="42.80371857" lon="13.48406695">
        <ele>242.00000</ele>
        <time>2024-03-21T12:32:53Z</time>
      </trkpt>
      <trkpt lat="42.80371162" lon="13.48396453">
        <ele>242.00000</ele>
        <time>2024-03-21T12:32:54Z</time>
      </trkpt>
      <trkpt lat="42.80370617" lon="13.48386109">
        <ele>242.00000</ele>
        <time>2024-03-21T12:32:55Z</time>
      </trkpt>
      <trkpt lat="42.80370064" lon="13.48376051">
        <ele>242.00000</ele>
        <time>2024-03-21T12:32:56Z</time>
      </trkpt>
      <trkpt lat="42.80369536" lon="13.48365775">
        <ele>242.00000</ele>
        <time>2024-03-21T12:32:57Z</time>
      </trkpt>
      <trkpt lat="42.80369066" lon="13.48357644">
        <ele>242.00000</ele>
        <time>2024-03-21T12:32:58Z</time>
      </trkpt>
      <trkpt lat="42.80368454" lon="13.48345499">
        <ele>243.00000</ele>
        <time>2024-03-21T12:32:59Z</time>
      </trkpt>
      <trkpt lat="42.80367884" lon="13.48335340">
        <ele>244.00000</ele>
        <time>2024-03-21T12:33:00Z</time>
      </trkpt>
      <trkpt lat="42.80367432" lon="13.48325366">
        <ele>245.00000</ele>
        <time>2024-03-21T12:33:01Z</time>
      </trkpt>
      <trkpt lat="42.80366979" lon="13.48317311">
        <ele>246.00000</ele>
        <time>2024-03-21T12:33:02Z</time>
      </trkpt>
      <trkpt lat="42.80366367" lon="13.48304964">
        <ele>247.00000</ele>
        <time>2024-03-21T12:33:03Z</time>
      </trkpt>
      <trkpt lat="42.80366267" lon="13.48294336">
        <ele>248.00000</ele>
        <time>2024-03-21T12:33:04Z</time>
      </trkpt>
      <trkpt lat="42.80366535" lon="13.48283532">
        <ele>248.00000</ele>
        <time>2024-03-21T12:33:05Z</time>
      </trkpt>
      <trkpt lat="42.80366686" lon="13.48272149">
        <ele>248.00000</ele>
        <time>2024-03-21T12:33:06Z</time>
      </trkpt>
      <trkpt lat="42.80367105" lon="13.48260984">
        <ele>248.00000</ele>
        <time>2024-03-21T12:33:07Z</time>
      </trkpt>
      <trkpt lat="42.80368010" lon="13.48249719">
        <ele>248.00000</ele>
        <time>2024-03-21T12:33:08Z</time>
      </trkpt>
      <trkpt lat="42.80369125" lon="13.48238605">
        <ele>248.00000</ele>
        <time>2024-03-21T12:33:09Z</time>
      </trkpt>
      <trkpt lat="42.80370491" lon="13.48227431">
        <ele>248.00000</ele>
        <time>2024-03-21T12:33:10Z</time>
      </trkpt>
      <trkpt lat="42.80371782" lon="13.48218513">
        <ele>248.00000</ele>
        <time>2024-03-21T12:33:11Z</time>
      </trkpt>
      <trkpt lat="42.80373131" lon="13.48207541">
        <ele>248.00000</ele>
        <time>2024-03-21T12:33:12Z</time>
      </trkpt>
      <trkpt lat="42.80374690" lon="13.48194541">
        <ele>248.00000</ele>
        <time>2024-03-21T12:33:13Z</time>
      </trkpt>
      <trkpt lat="42.80375570" lon="13.48185983">
        <ele>248.00000</ele>
        <time>2024-03-21T12:33:14Z</time>
      </trkpt>
      <trkpt lat="42.80376635" lon="13.48175296">
        <ele>249.00000</ele>
        <time>2024-03-21T12:33:15Z</time>
      </trkpt>
      <trkpt lat="42.80377632" lon="13.48164810">
        <ele>249.00000</ele>
        <time>2024-03-21T12:33:16Z</time>
      </trkpt>
      <trkpt lat="42.80378605" lon="13.48154534">
        <ele>250.00000</ele>
        <time>2024-03-21T12:33:17Z</time>
      </trkpt>
      <trkpt lat="42.80379493" lon="13.48144275">
        <ele>251.00000</ele>
        <time>2024-03-21T12:33:18Z</time>
      </trkpt>
      <trkpt lat="42.80380181" lon="13.48132012">
        <ele>251.00000</ele>
        <time>2024-03-21T12:33:19Z</time>
      </trkpt>
      <trkpt lat="42.80380709" lon="13.48121928">
        <ele>251.00000</ele>
        <time>2024-03-21T12:33:20Z</time>
      </trkpt>
      <trkpt lat="42.80381253" lon="13.48111828">
        <ele>251.00000</ele>
        <time>2024-03-21T12:33:21Z</time>
      </trkpt>
      <trkpt lat="42.80381723" lon="13.48101871">
        <ele>251.00000</ele>
        <time>2024-03-21T12:33:22Z</time>
      </trkpt>
      <trkpt lat="42.80382310" lon="13.48091963">
        <ele>250.00000</ele>
        <time>2024-03-21T12:33:23Z</time>
      </trkpt>
      <trkpt lat="42.80382745" lon="13.48082131">
        <ele>249.00000</ele>
        <time>2024-03-21T12:33:24Z</time>
      </trkpt>
      <trkpt lat="42.80383064" lon="13.48072215">
        <ele>249.00000</ele>
        <time>2024-03-21T12:33:25Z</time>
      </trkpt>
      <trkpt lat="42.80383399" lon="13.48062266">
        <ele>248.00000</ele>
        <time>2024-03-21T12:33:26Z</time>
      </trkpt>
      <trkpt lat="42.80383609" lon="13.48052334">
        <ele>248.00000</ele>
        <time>2024-03-21T12:33:27Z</time>
      </trkpt>
      <trkpt lat="42.80383709" lon="13.48042485">
        <ele>247.00000</ele>
        <time>2024-03-21T12:33:28Z</time>
      </trkpt>
      <trkpt lat="42.80383584" lon="13.48032737">
        <ele>247.00000</ele>
        <time>2024-03-21T12:33:29Z</time>
      </trkpt>
      <trkpt lat="42.80383491" lon="13.48023684">
        <ele>247.00000</ele>
        <time>2024-03-21T12:33:30Z</time>
      </trkpt>
      <trkpt lat="42.80383089" lon="13.48014959">
        <ele>246.00000</ele>
        <time>2024-03-21T12:33:31Z</time>
      </trkpt>
      <trkpt lat="42.80383056" lon="13.48006250">
        <ele>246.00000</ele>
        <time>2024-03-21T12:33:32Z</time>
      </trkpt>
      <trkpt lat="42.80383433" lon="13.47997969">
        <ele>246.00000</ele>
        <time>2024-03-21T12:33:33Z</time>
      </trkpt>
      <trkpt lat="42.80383651" lon="13.47989754">
        <ele>247.00000</ele>
        <time>2024-03-21T12:33:34Z</time>
      </trkpt>
      <trkpt lat="42.80383533" lon="13.47983392">
        <ele>247.00000</ele>
        <time>2024-03-21T12:33:35Z</time>
      </trkpt>
      <trkpt lat="42.80383667" lon="13.47975698">
        <ele>248.00000</ele>
        <time>2024-03-21T12:33:36Z</time>
      </trkpt>
      <trkpt lat="42.80383952" lon="13.47968087">
        <ele>248.00000</ele>
        <time>2024-03-21T12:33:37Z</time>
      </trkpt>
      <trkpt lat="42.80384355" lon="13.47958582">
        <ele>249.00000</ele>
        <time>2024-03-21T12:33:38Z</time>
      </trkpt>
      <trkpt lat="42.80384363" lon="13.47950988">
        <ele>250.00000</ele>
        <time>2024-03-21T12:33:39Z</time>
      </trkpt>
      <trkpt lat="42.80384791" lon="13.47945179">
        <ele>251.00000</ele>
        <time>2024-03-21T12:33:40Z</time>
      </trkpt>
      <trkpt lat="42.80385235" lon="13.47938021">
        <ele>251.00000</ele>
        <time>2024-03-21T12:33:41Z</time>
      </trkpt>
      <trkpt lat="42.80386081" lon="13.47930695">
        <ele>251.00000</ele>
        <time>2024-03-21T12:33:42Z</time>
      </trkpt>
      <trkpt lat="42.80386827" lon="13.47921911">
        <ele>252.00000</ele>
        <time>2024-03-21T12:33:43Z</time>
      </trkpt>
      <trkpt lat="42.80387171" lon="13.47914225">
        <ele>252.00000</ele>
        <time>2024-03-21T12:33:44Z</time>
      </trkpt>
      <trkpt lat="42.80387003" lon="13.47906949">
        <ele>252.00000</ele>
        <time>2024-03-21T12:33:45Z</time>
      </trkpt>
      <trkpt lat="42.80386668" lon="13.47900018">
        <ele>253.00000</ele>
        <time>2024-03-21T12:33:46Z</time>
      </trkpt>
      <trkpt lat="42.80386207" lon="13.47892642">
        <ele>253.00000</ele>
        <time>2024-03-21T12:33:47Z</time>
      </trkpt>
      <trkpt lat="42.80385310" lon="13.47885056">
        <ele>253.00000</ele>
        <time>2024-03-21T12:33:48Z</time>
      </trkpt>
      <trkpt lat="42.80384170" lon="13.47877697">
        <ele>252.00000</ele>
        <time>2024-03-21T12:33:49Z</time>
      </trkpt>
      <trkpt lat="42.80382921" lon="13.47870170">
        <ele>252.00000</ele>
        <time>2024-03-21T12:33:50Z</time>
      </trkpt>
      <trkpt lat="42.80381580" lon="13.47862425">
        <ele>252.00000</ele>
        <time>2024-03-21T12:33:51Z</time>
      </trkpt>
      <trkpt lat="42.80379476" lon="13.47854596">
        <ele>252.00000</ele>
        <time>2024-03-21T12:33:52Z</time>
      </trkpt>
      <trkpt lat="42.80377021" lon="13.47847119">
        <ele>251.00000</ele>
        <time>2024-03-21T12:33:53Z</time>
      </trkpt>
      <trkpt lat="42.80374506" lon="13.47839710">
        <ele>251.00000</ele>
        <time>2024-03-21T12:33:54Z</time>
      </trkpt>
      <trkpt lat="42.80372109" lon="13.47831864">
        <ele>251.00000</ele>
        <time>2024-03-21T12:33:55Z</time>
      </trkpt>
      <trkpt lat="42.80369795" lon="13.47823759">
        <ele>251.00000</ele>
        <time>2024-03-21T12:33:56Z</time>
      </trkpt>
      <trkpt lat="42.80367356" lon="13.47815578">
        <ele>250.00000</ele>
        <time>2024-03-21T12:33:57Z</time>
      </trkpt>
      <trkpt lat="42.80365043" lon="13.47807205">
        <ele>251.00000</ele>
        <time>2024-03-21T12:33:58Z</time>
      </trkpt>
      <trkpt lat="42.80362436" lon="13.47798597">
        <ele>250.00000</ele>
        <time>2024-03-21T12:33:59Z</time>
      </trkpt>
      <trkpt lat="42.80359947" lon="13.47790039">
        <ele>250.00000</ele>
        <time>2024-03-21T12:34:00Z</time>
      </trkpt>
      <trkpt lat="42.80357558" lon="13.47781657">
        <ele>250.00000</ele>
        <time>2024-03-21T12:34:01Z</time>
      </trkpt>
      <trkpt lat="42.80354708" lon="13.47773183">
        <ele>250.00000</ele>
        <time>2024-03-21T12:34:02Z</time>
      </trkpt>
      <trkpt lat="42.80351758" lon="13.47764424">
        <ele>251.00000</ele>
        <time>2024-03-21T12:34:03Z</time>
      </trkpt>
      <trkpt lat="42.80348740" lon="13.47755933">
        <ele>251.00000</ele>
        <time>2024-03-21T12:34:04Z</time>
      </trkpt>
      <trkpt lat="42.80346108" lon="13.47747551">
        <ele>251.00000</ele>
        <time>2024-03-21T12:34:05Z</time>
      </trkpt>
      <trkpt lat="42.80343426" lon="13.47739269">
        <ele>252.00000</ele>
        <time>2024-03-21T12:34:06Z</time>
      </trkpt>
      <trkpt lat="42.80340760" lon="13.47731164">
        <ele>254.00000</ele>
        <time>2024-03-21T12:34:07Z</time>
      </trkpt>
      <trkpt lat="42.80337735" lon="13.47723218">
        <ele>255.00000</ele>
        <time>2024-03-21T12:34:08Z</time>
      </trkpt>
      <trkpt lat="42.80334885" lon="13.47715582">
        <ele>256.00000</ele>
        <time>2024-03-21T12:34:09Z</time>
      </trkpt>
      <trkpt lat="42.80332563" lon="13.47709631">
        <ele>257.00000</ele>
        <time>2024-03-21T12:34:10Z</time>
      </trkpt>
      <trkpt lat="42.80329311" lon="13.47701107">
        <ele>257.00000</ele>
        <time>2024-03-21T12:34:11Z</time>
      </trkpt>
      <trkpt lat="42.80327048" lon="13.47694108">
        <ele>258.00000</ele>
        <time>2024-03-21T12:34:12Z</time>
      </trkpt>
      <trkpt lat="42.80325388" lon="13.47688257">
        <ele>258.00000</ele>
        <time>2024-03-21T12:34:13Z</time>
      </trkpt>
      <trkpt lat="42.80323100" lon="13.47681242">
        <ele>258.00000</ele>
        <time>2024-03-21T12:34:14Z</time>
      </trkpt>
      <trkpt lat="42.80320895" lon="13.47674435">
        <ele>258.00000</ele>
        <time>2024-03-21T12:34:15Z</time>
      </trkpt>
      <trkpt lat="42.80318230" lon="13.47666732">
        <ele>258.00000</ele>
        <time>2024-03-21T12:34:16Z</time>
      </trkpt>
      <trkpt lat="42.80315799" lon="13.47660580">
        <ele>258.00000</ele>
        <time>2024-03-21T12:34:17Z</time>
      </trkpt>
      <trkpt lat="42.80313536" lon="13.47654419">
        <ele>258.00000</ele>
        <time>2024-03-21T12:34:18Z</time>
      </trkpt>
      <trkpt lat="42.80311793" lon="13.47649499">
        <ele>258.00000</ele>
        <time>2024-03-21T12:34:19Z</time>
      </trkpt>
      <trkpt lat="42.80308851" lon="13.47641964">
        <ele>258.00000</ele>
        <time>2024-03-21T12:34:20Z</time>
      </trkpt>
      <trkpt lat="42.80306814" lon="13.47635527">
        <ele>258.00000</ele>
        <time>2024-03-21T12:34:21Z</time>
      </trkpt>
      <trkpt lat="42.80304500" lon="13.47629140">
        <ele>259.00000</ele>
        <time>2024-03-21T12:34:22Z</time>
      </trkpt>
      <trkpt lat="42.80301759" lon="13.47622769">
        <ele>260.00000</ele>
        <time>2024-03-21T12:34:23Z</time>
      </trkpt>
      <trkpt lat="42.80298834" lon="13.47616768">
        <ele>260.00000</ele>
        <time>2024-03-21T12:34:24Z</time>
      </trkpt>
      <trkpt lat="42.80296152" lon="13.47610624">
        <ele>261.00000</ele>
        <time>2024-03-21T12:34:25Z</time>
      </trkpt>
      <trkpt lat="42.80293336" lon="13.47604128">
        <ele>261.00000</ele>
        <time>2024-03-21T12:34:26Z</time>
      </trkpt>
      <trkpt lat="42.80290561" lon="13.47597381">
        <ele>262.00000</ele>
        <time>2024-03-21T12:34:27Z</time>
      </trkpt>
      <trkpt lat="42.80288231" lon="13.47590499">
        <ele>262.00000</ele>
        <time>2024-03-21T12:34:28Z</time>
      </trkpt>
      <trkpt lat="42.80285767" lon="13.47583726">
        <ele>262.00000</ele>
        <time>2024-03-21T12:34:29Z</time>
      </trkpt>
      <trkpt lat="42.80283428" lon="13.47576920">
        <ele>263.00000</ele>
        <time>2024-03-21T12:34:30Z</time>
      </trkpt>
      <trkpt lat="42.80281291" lon="13.47570206">
        <ele>263.00000</ele>
        <time>2024-03-21T12:34:31Z</time>
      </trkpt>
      <trkpt lat="42.80278827" lon="13.47563635">
        <ele>263.00000</ele>
        <time>2024-03-21T12:34:32Z</time>
      </trkpt>
      <trkpt lat="42.80276061" lon="13.47557198">
        <ele>263.00000</ele>
        <time>2024-03-21T12:34:33Z</time>
      </trkpt>
      <trkpt lat="42.80273948" lon="13.47551029">
        <ele>263.00000</ele>
        <time>2024-03-21T12:34:34Z</time>
      </trkpt>
      <trkpt lat="42.80271803" lon="13.47544466">
        <ele>263.00000</ele>
        <time>2024-03-21T12:34:35Z</time>
      </trkpt>
      <trkpt lat="42.80269204" lon="13.47537802">
        <ele>263.00000</ele>
        <time>2024-03-21T12:34:36Z</time>
      </trkpt>
      <trkpt lat="42.80266430" lon="13.47531314">
        <ele>262.00000</ele>
        <time>2024-03-21T12:34:37Z</time>
      </trkpt>
      <trkpt lat="42.80263940" lon="13.47524768">
        <ele>262.00000</ele>
        <time>2024-03-21T12:34:38Z</time>
      </trkpt>
      <trkpt lat="42.80261426" lon="13.47517878">
        <ele>261.00000</ele>
        <time>2024-03-21T12:34:39Z</time>
      </trkpt>
      <trkpt lat="42.80258861" lon="13.47511064">
        <ele>261.00000</ele>
        <time>2024-03-21T12:34:40Z</time>
      </trkpt>
      <trkpt lat="42.80256615" lon="13.47504283">
        <ele>260.00000</ele>
        <time>2024-03-21T12:34:41Z</time>
      </trkpt>
      <trkpt lat="42.80254603" lon="13.47497669">
        <ele>260.00000</ele>
        <time>2024-03-21T12:34:42Z</time>
      </trkpt>
      <trkpt lat="42.80252541" lon="13.47490922">
        <ele>260.00000</ele>
        <time>2024-03-21T12:34:43Z</time>
      </trkpt>
      <trkpt lat="42.80250303" lon="13.47483864">
        <ele>261.00000</ele>
        <time>2024-03-21T12:34:44Z</time>
      </trkpt>
      <trkpt lat="42.80248534" lon="13.47476740">
        <ele>262.00000</ele>
        <time>2024-03-21T12:34:45Z</time>
      </trkpt>
      <trkpt lat="42.80246548" lon="13.47469842">
        <ele>263.00000</ele>
        <time>2024-03-21T12:34:46Z</time>
      </trkpt>
      <trkpt lat="42.80244377" lon="13.47462918">
        <ele>263.00000</ele>
        <time>2024-03-21T12:34:47Z</time>
      </trkpt>
      <trkpt lat="42.80242047" lon="13.47455835">
        <ele>263.00000</ele>
        <time>2024-03-21T12:34:48Z</time>
      </trkpt>
      <trkpt lat="42.80239935" lon="13.47448459">
        <ele>264.00000</ele>
        <time>2024-03-21T12:34:49Z</time>
      </trkpt>
      <trkpt lat="42.80237730" lon="13.47441083">
        <ele>264.00000</ele>
        <time>2024-03-21T12:34:50Z</time>
      </trkpt>
      <trkpt lat="42.80236045" lon="13.47435275">
        <ele>263.00000</ele>
        <time>2024-03-21T12:34:51Z</time>
      </trkpt>
      <trkpt lat="42.80234034" lon="13.47428049">
        <ele>263.00000</ele>
        <time>2024-03-21T12:34:52Z</time>
      </trkpt>
      <trkpt lat="42.80232424" lon="13.47420631">
        <ele>263.00000</ele>
        <time>2024-03-21T12:34:53Z</time>
      </trkpt>
      <trkpt lat="42.80230899" lon="13.47411797">
        <ele>263.00000</ele>
        <time>2024-03-21T12:34:54Z</time>
      </trkpt>
      <trkpt lat="42.80229097" lon="13.47403918">
        <ele>263.00000</ele>
        <time>2024-03-21T12:34:55Z</time>
      </trkpt>
      <trkpt lat="42.80227102" lon="13.47395938">
        <ele>262.00000</ele>
        <time>2024-03-21T12:34:56Z</time>
      </trkpt>
      <trkpt lat="42.80225140" lon="13.47387565">
        <ele>262.00000</ele>
        <time>2024-03-21T12:34:57Z</time>
      </trkpt>
      <trkpt lat="42.80223716" lon="13.47378890">
        <ele>262.00000</ele>
        <time>2024-03-21T12:34:58Z</time>
      </trkpt>
      <trkpt lat="42.80222140" lon="13.47370164">
        <ele>262.00000</ele>
        <time>2024-03-21T12:34:59Z</time>
      </trkpt>
      <trkpt lat="42.80220530" lon="13.47361187">
        <ele>261.00000</ele>
        <time>2024-03-21T12:35:00Z</time>
      </trkpt>
      <trkpt lat="42.80219290" lon="13.47351824">
        <ele>261.00000</ele>
        <time>2024-03-21T12:35:01Z</time>
      </trkpt>
      <trkpt lat="42.80218611" lon="13.47342110">
        <ele>262.00000</ele>
        <time>2024-03-21T12:35:02Z</time>
      </trkpt>
      <trkpt lat="42.80218468" lon="13.47332202">
        <ele>262.00000</ele>
        <time>2024-03-21T12:35:03Z</time>
      </trkpt>
      <trkpt lat="42.80218636" lon="13.47322136">
        <ele>262.00000</ele>
        <time>2024-03-21T12:35:04Z</time>
      </trkpt>
      <trkpt lat="42.80218636" lon="13.47312262">
        <ele>262.00000</ele>
        <time>2024-03-21T12:35:05Z</time>
      </trkpt>
      <trkpt lat="42.80218477" lon="13.47302354">
        <ele>263.00000</ele>
        <time>2024-03-21T12:35:06Z</time>
      </trkpt>
      <trkpt lat="42.80218963" lon="13.47294383">
        <ele>263.00000</ele>
        <time>2024-03-21T12:35:07Z</time>
      </trkpt>
      <trkpt lat="42.80218955" lon="13.47282565">
        <ele>263.00000</ele>
        <time>2024-03-21T12:35:08Z</time>
      </trkpt>
      <trkpt lat="42.80219131" lon="13.47274770">
        <ele>263.00000</ele>
        <time>2024-03-21T12:35:09Z</time>
      </trkpt>
      <trkpt lat="42.80219122" lon="13.47265047">
        <ele>263.00000</ele>
        <time>2024-03-21T12:35:10Z</time>
      </trkpt>
      <trkpt lat="42.80218703" lon="13.47253278">
        <ele>264.00000</ele>
        <time>2024-03-21T12:35:11Z</time>
      </trkpt>
      <trkpt lat="42.80218393" lon="13.47245290">
        <ele>264.00000</ele>
        <time>2024-03-21T12:35:12Z</time>
      </trkpt>
      <trkpt lat="42.80217940" lon="13.47233799">
        <ele>264.00000</ele>
        <time>2024-03-21T12:35:13Z</time>
      </trkpt>
      <trkpt lat="42.80217572" lon="13.47226104">
        <ele>264.00000</ele>
        <time>2024-03-21T12:35:14Z</time>
      </trkpt>
      <trkpt lat="42.80217085" lon="13.47214252">
        <ele>264.00000</ele>
        <time>2024-03-21T12:35:15Z</time>
      </trkpt>
      <trkpt lat="42.80216759" lon="13.47206256">
        <ele>264.00000</ele>
        <time>2024-03-21T12:35:16Z</time>
      </trkpt>
      <trkpt lat="42.80216633" lon="13.47196617">
        <ele>264.00000</ele>
        <time>2024-03-21T12:35:17Z</time>
      </trkpt>
      <trkpt lat="42.80216725" lon="13.47185360">
        <ele>265.00000</ele>
        <time>2024-03-21T12:35:18Z</time>
      </trkpt>
      <trkpt lat="42.80216474" lon="13.47175830">
        <ele>265.00000</ele>
        <time>2024-03-21T12:35:19Z</time>
      </trkpt>
      <trkpt lat="42.80216298" lon="13.47168269">
        <ele>265.00000</ele>
        <time>2024-03-21T12:35:20Z</time>
      </trkpt>
      <trkpt lat="42.80216105" lon="13.47158957">
        <ele>265.00000</ele>
        <time>2024-03-21T12:35:21Z</time>
      </trkpt>
      <trkpt lat="42.80215736" lon="13.47147733">
        <ele>266.00000</ele>
        <time>2024-03-21T12:35:22Z</time>
      </trkpt>
      <trkpt lat="42.80215878" lon="13.47138287">
        <ele>266.00000</ele>
        <time>2024-03-21T12:35:23Z</time>
      </trkpt>
      <trkpt lat="42.80215853" lon="13.47128857">
        <ele>266.00000</ele>
        <time>2024-03-21T12:35:24Z</time>
      </trkpt>
      <trkpt lat="42.80216038" lon="13.47119193">
        <ele>266.00000</ele>
        <time>2024-03-21T12:35:25Z</time>
      </trkpt>
      <trkpt lat="42.80216071" lon="13.47109470">
        <ele>266.00000</ele>
        <time>2024-03-21T12:35:26Z</time>
      </trkpt>
      <trkpt lat="42.80215962" lon="13.47099655">
        <ele>266.00000</ele>
        <time>2024-03-21T12:35:27Z</time>
      </trkpt>
      <trkpt lat="42.80215719" lon="13.47089848">
        <ele>265.00000</ele>
        <time>2024-03-21T12:35:28Z</time>
      </trkpt>
      <trkpt lat="42.80215627" lon="13.47080024">
        <ele>265.00000</ele>
        <time>2024-03-21T12:35:29Z</time>
      </trkpt>
      <trkpt lat="42.80215719" lon="13.47069874">
        <ele>264.00000</ele>
        <time>2024-03-21T12:35:30Z</time>
      </trkpt>
      <trkpt lat="42.80215728" lon="13.47061609">
        <ele>263.00000</ele>
        <time>2024-03-21T12:35:31Z</time>
      </trkpt>
      <trkpt lat="42.80216038" lon="13.47049321">
        <ele>262.00000</ele>
        <time>2024-03-21T12:35:32Z</time>
      </trkpt>
      <trkpt lat="42.80216624" lon="13.47039288">
        <ele>262.00000</ele>
        <time>2024-03-21T12:35:33Z</time>
      </trkpt>
      <trkpt lat="42.80217387" lon="13.47029305">
        <ele>262.00000</ele>
        <time>2024-03-21T12:35:34Z</time>
      </trkpt>
      <trkpt lat="42.80217966" lon="13.47021468">
        <ele>261.00000</ele>
        <time>2024-03-21T12:35:35Z</time>
      </trkpt>
      <trkpt lat="42.80219013" lon="13.47011921">
        <ele>260.00000</ele>
        <time>2024-03-21T12:35:36Z</time>
      </trkpt>
      <trkpt lat="42.80220178" lon="13.47001276">
        <ele>259.00000</ele>
        <time>2024-03-21T12:35:37Z</time>
      </trkpt>
      <trkpt lat="42.80221235" lon="13.46991922">
        <ele>258.00000</ele>
        <time>2024-03-21T12:35:38Z</time>
      </trkpt>
      <trkpt lat="42.80222450" lon="13.46982166">
        <ele>258.00000</ele>
        <time>2024-03-21T12:35:39Z</time>
      </trkpt>
      <trkpt lat="42.80223975" lon="13.46972451">
        <ele>257.00000</ele>
        <time>2024-03-21T12:35:40Z</time>
      </trkpt>
      <trkpt lat="42.80225585" lon="13.46962711">
        <ele>257.00000</ele>
        <time>2024-03-21T12:35:41Z</time>
      </trkpt>
      <trkpt lat="42.80227186" lon="13.46953282">
        <ele>258.00000</ele>
        <time>2024-03-21T12:35:42Z</time>
      </trkpt>
      <trkpt lat="42.80228745" lon="13.46943902">
        <ele>258.00000</ele>
        <time>2024-03-21T12:35:43Z</time>
      </trkpt>
      <trkpt lat="42.80230379" lon="13.46934758">
        <ele>259.00000</ele>
        <time>2024-03-21T12:35:44Z</time>
      </trkpt>
      <trkpt lat="42.80232039" lon="13.46925806">
        <ele>260.00000</ele>
        <time>2024-03-21T12:35:45Z</time>
      </trkpt>
      <trkpt lat="42.80233849" lon="13.46916577">
        <ele>261.00000</ele>
        <time>2024-03-21T12:35:46Z</time>
      </trkpt>
      <trkpt lat="42.80235635" lon="13.46907625">
        <ele>262.00000</ele>
        <time>2024-03-21T12:35:47Z</time>
      </trkpt>
      <trkpt lat="42.80237554" lon="13.46899067">
        <ele>263.00000</ele>
        <time>2024-03-21T12:35:48Z</time>
      </trkpt>
      <trkpt lat="42.80239415" lon="13.46890987">
        <ele>263.00000</ele>
        <time>2024-03-21T12:35:49Z</time>
      </trkpt>
      <trkpt lat="42.80241200" lon="13.46882790">
        <ele>264.00000</ele>
        <time>2024-03-21T12:35:50Z</time>
      </trkpt>
      <trkpt lat="42.80243162" lon="13.46874609">
        <ele>265.00000</ele>
        <time>2024-03-21T12:35:51Z</time>
      </trkpt>
      <trkpt lat="42.80244989" lon="13.46866562">
        <ele>265.00000</ele>
        <time>2024-03-21T12:35:52Z</time>
      </trkpt>
      <trkpt lat="42.80246741" lon="13.46858306">
        <ele>266.00000</ele>
        <time>2024-03-21T12:35:53Z</time>
      </trkpt>
      <trkpt lat="42.80247981" lon="13.46851542">
        <ele>267.00000</ele>
        <time>2024-03-21T12:35:54Z</time>
      </trkpt>
      <trkpt lat="42.80249431" lon="13.46842976">
        <ele>269.00000</ele>
        <time>2024-03-21T12:35:55Z</time>
      </trkpt>
      <trkpt lat="42.80251376" lon="13.46833060">
        <ele>270.00000</ele>
        <time>2024-03-21T12:35:56Z</time>
      </trkpt>
      <trkpt lat="42.80253035" lon="13.46824645">
        <ele>270.00000</ele>
        <time>2024-03-21T12:35:57Z</time>
      </trkpt>
      <trkpt lat="42.80254821" lon="13.46816279">
        <ele>271.00000</ele>
        <time>2024-03-21T12:35:58Z</time>
      </trkpt>
      <trkpt lat="42.80256338" lon="13.46808191">
        <ele>271.00000</ele>
        <time>2024-03-21T12:35:59Z</time>
      </trkpt>
      <trkpt lat="42.80257352" lon="13.46801242">
        <ele>271.00000</ele>
        <time>2024-03-21T12:36:00Z</time>
      </trkpt>
      <trkpt lat="42.80258945" lon="13.46790857">
        <ele>270.00000</ele>
        <time>2024-03-21T12:36:01Z</time>
      </trkpt>
      <trkpt lat="42.80260361" lon="13.46781939">
        <ele>270.00000</ele>
        <time>2024-03-21T12:36:02Z</time>
      </trkpt>
      <trkpt lat="42.80261518" lon="13.46772702">
        <ele>270.00000</ele>
        <time>2024-03-21T12:36:03Z</time>
      </trkpt>
      <trkpt lat="42.80262473" lon="13.46763331">
        <ele>270.00000</ele>
        <time>2024-03-21T12:36:04Z</time>
      </trkpt>
      <trkpt lat="42.80263169" lon="13.46755628">
        <ele>270.00000</ele>
        <time>2024-03-21T12:36:05Z</time>
      </trkpt>
      <trkpt lat="42.80264066" lon="13.46744262">
        <ele>271.00000</ele>
        <time>2024-03-21T12:36:06Z</time>
      </trkpt>
      <trkpt lat="42.80265063" lon="13.46734941">
        <ele>271.00000</ele>
        <time>2024-03-21T12:36:07Z</time>
      </trkpt>
      <trkpt lat="42.80265851" lon="13.46725336">
        <ele>271.00000</ele>
        <time>2024-03-21T12:36:08Z</time>
      </trkpt>
      <trkpt lat="42.80266111" lon="13.46717759">
        <ele>272.00000</ele>
        <time>2024-03-21T12:36:09Z</time>
      </trkpt>
      <trkpt lat="42.80266589" lon="13.46706653">
        <ele>272.00000</ele>
        <time>2024-03-21T12:36:10Z</time>
      </trkpt>
      <trkpt lat="42.80266916" lon="13.46697323">
        <ele>272.00000</ele>
        <time>2024-03-21T12:36:11Z</time>
      </trkpt>
      <trkpt lat="42.80267293" lon="13.46687978">
        <ele>272.00000</ele>
        <time>2024-03-21T12:36:12Z</time>
      </trkpt>
      <trkpt lat="42.80267469" lon="13.46680685">
        <ele>271.00000</ele>
        <time>2024-03-21T12:36:13Z</time>
      </trkpt>
      <trkpt lat="42.80267243" lon="13.46670920">
        <ele>270.00000</ele>
        <time>2024-03-21T12:36:14Z</time>
      </trkpt>
      <trkpt lat="42.80267151" lon="13.46659521">
        <ele>268.00000</ele>
        <time>2024-03-21T12:36:15Z</time>
      </trkpt>
      <trkpt lat="42.80267209" lon="13.46649974">
        <ele>266.00000</ele>
        <time>2024-03-21T12:36:16Z</time>
      </trkpt>
      <trkpt lat="42.80267260" lon="13.46640000">
        <ele>264.00000</ele>
        <time>2024-03-21T12:36:17Z</time>
      </trkpt>
      <trkpt lat="42.80266639" lon="13.46631936">
        <ele>263.00000</ele>
        <time>2024-03-21T12:36:18Z</time>
      </trkpt>
      <trkpt lat="42.80266128" lon="13.46621375">
        <ele>262.00000</ele>
        <time>2024-03-21T12:36:19Z</time>
      </trkpt>
      <trkpt lat="42.80265851" lon="13.46608199">
        <ele>261.00000</ele>
        <time>2024-03-21T12:36:20Z</time>
      </trkpt>
      <trkpt lat="42.80265474" lon="13.46599088">
        <ele>261.00000</ele>
        <time>2024-03-21T12:36:21Z</time>
      </trkpt>
      <trkpt lat="42.80265189" lon="13.46587286">
        <ele>260.00000</ele>
        <time>2024-03-21T12:36:22Z</time>
      </trkpt>
      <trkpt lat="42.80265214" lon="13.46575434">
        <ele>261.00000</ele>
        <time>2024-03-21T12:36:23Z</time>
      </trkpt>
      <trkpt lat="42.80265080" lon="13.46563523">
        <ele>262.00000</ele>
        <time>2024-03-21T12:36:24Z</time>
      </trkpt>
      <trkpt lat="42.80264510" lon="13.46551763">
        <ele>263.00000</ele>
        <time>2024-03-21T12:36:25Z</time>
      </trkpt>
      <trkpt lat="42.80263580" lon="13.46540171">
        <ele>264.00000</ele>
        <time>2024-03-21T12:36:26Z</time>
      </trkpt>
      <trkpt lat="42.80261074" lon="13.46526634">
        <ele>265.00000</ele>
        <time>2024-03-21T12:36:27Z</time>
      </trkpt>
      <trkpt lat="42.80258802" lon="13.46518127">
        <ele>266.00000</ele>
        <time>2024-03-21T12:36:28Z</time>
      </trkpt>
      <trkpt lat="42.80255240" lon="13.46506057">
        <ele>267.00000</ele>
        <time>2024-03-21T12:36:29Z</time>
      </trkpt>
      <trkpt lat="42.80251803" lon="13.46496292">
        <ele>267.00000</ele>
        <time>2024-03-21T12:36:30Z</time>
      </trkpt>
      <trkpt lat="42.80248316" lon="13.46486317">
        <ele>269.00000</ele>
        <time>2024-03-21T12:36:31Z</time>
      </trkpt>
      <trkpt lat="42.80245022" lon="13.46476402">
        <ele>269.00000</ele>
        <time>2024-03-21T12:36:32Z</time>
      </trkpt>
      <trkpt lat="42.80241653" lon="13.46466402">
        <ele>270.00000</ele>
        <time>2024-03-21T12:36:33Z</time>
      </trkpt>
      <trkpt lat="42.80238308" lon="13.46456335">
        <ele>270.00000</ele>
        <time>2024-03-21T12:36:34Z</time>
      </trkpt>
      <trkpt lat="42.80235324" lon="13.46448264">
        <ele>271.00000</ele>
        <time>2024-03-21T12:36:35Z</time>
      </trkpt>
      <trkpt lat="42.80231955" lon="13.46438272">
        <ele>272.00000</ele>
        <time>2024-03-21T12:36:36Z</time>
      </trkpt>
      <trkpt lat="42.80228493" lon="13.46428139">
        <ele>272.00000</ele>
        <time>2024-03-21T12:36:37Z</time>
      </trkpt>
      <trkpt lat="42.80224520" lon="13.46418390">
        <ele>273.00000</ele>
        <time>2024-03-21T12:36:38Z</time>
      </trkpt>
      <trkpt lat="42.80220036" lon="13.46408994">
        <ele>273.00000</ele>
        <time>2024-03-21T12:36:39Z</time>
      </trkpt>
      <trkpt lat="42.80214328" lon="13.46398215">
        <ele>272.00000</ele>
        <time>2024-03-21T12:36:40Z</time>
      </trkpt>
      <trkpt lat="42.80209709" lon="13.46391820">
        <ele>272.00000</ele>
        <time>2024-03-21T12:36:41Z</time>
      </trkpt>
      <trkpt lat="42.80203046" lon="13.46383312">
        <ele>271.00000</ele>
        <time>2024-03-21T12:36:42Z</time>
      </trkpt>
      <trkpt lat="42.80198830" lon="13.46378166">
        <ele>271.00000</ele>
        <time>2024-03-21T12:36:43Z</time>
      </trkpt>
      <trkpt lat="42.80192837" lon="13.46370035">
        <ele>272.00000</ele>
        <time>2024-03-21T12:36:44Z</time>
      </trkpt>
      <trkpt lat="42.80187757" lon="13.46363347">
        <ele>273.00000</ele>
        <time>2024-03-21T12:36:45Z</time>
      </trkpt>
      <trkpt lat="42.80182594" lon="13.46356641">
        <ele>274.00000</ele>
        <time>2024-03-21T12:36:46Z</time>
      </trkpt>
      <trkpt lat="42.80177271" lon="13.46349843">
        <ele>275.00000</ele>
        <time>2024-03-21T12:36:47Z</time>
      </trkpt>
      <trkpt lat="42.80137977" lon="13.46322711">
        <ele>270.00000</ele>
        <time>2024-03-21T12:36:52Z</time>
      </trkpt>
      <trkpt lat="42.80134557" lon="13.46315151">
        <ele>271.00000</ele>
        <time>2024-03-21T12:36:53Z</time>
      </trkpt>
      <trkpt lat="42.80127642" lon="13.46308420">
        <ele>270.00000</ele>
        <time>2024-03-21T12:36:54Z</time>
      </trkpt>
      <trkpt lat="42.80120794" lon="13.46303475">
        <ele>270.00000</ele>
        <time>2024-03-21T12:36:55Z</time>
      </trkpt>
      <trkpt lat="42.80113544" lon="13.46299141">
        <ele>269.00000</ele>
        <time>2024-03-21T12:36:56Z</time>
      </trkpt>
      <trkpt lat="42.80105623" lon="13.46296593">
        <ele>269.00000</ele>
        <time>2024-03-21T12:36:57Z</time>
      </trkpt>
      <trkpt lat="42.80097367" lon="13.46295512">
        <ele>270.00000</ele>
        <time>2024-03-21T12:36:58Z</time>
      </trkpt>
      <trkpt lat="42.80089664" lon="13.46295361">
        <ele>271.00000</ele>
        <time>2024-03-21T12:36:59Z</time>
      </trkpt>
      <trkpt lat="42.80081634" lon="13.46295420">
        <ele>272.00000</ele>
        <time>2024-03-21T12:37:00Z</time>
      </trkpt>
      <trkpt lat="42.80074140" lon="13.46295990">
        <ele>273.00000</ele>
        <time>2024-03-21T12:37:01Z</time>
      </trkpt>
      <trkpt lat="42.80067519" lon="13.46296803">
        <ele>274.00000</ele>
        <time>2024-03-21T12:37:02Z</time>
      </trkpt>
      <trkpt lat="42.80060872" lon="13.46297725">
        <ele>275.00000</ele>
        <time>2024-03-21T12:37:03Z</time>
      </trkpt>
      <trkpt lat="42.80054963" lon="13.46299258">
        <ele>276.00000</ele>
        <time>2024-03-21T12:37:04Z</time>
      </trkpt>
      <trkpt lat="42.80048886" lon="13.46300784">
        <ele>277.00000</ele>
        <time>2024-03-21T12:37:05Z</time>
      </trkpt>
      <trkpt lat="42.80042583" lon="13.46302469">
        <ele>278.00000</ele>
        <time>2024-03-21T12:37:06Z</time>
      </trkpt>
      <trkpt lat="42.80036355" lon="13.46304330">
        <ele>279.00000</ele>
        <time>2024-03-21T12:37:07Z</time>
      </trkpt>
      <trkpt lat="42.80030186" lon="13.46306123">
        <ele>280.00000</ele>
        <time>2024-03-21T12:37:08Z</time>
      </trkpt>
      <trkpt lat="42.80023891" lon="13.46307548">
        <ele>280.00000</ele>
        <time>2024-03-21T12:37:09Z</time>
      </trkpt>
      <trkpt lat="42.80017831" lon="13.46309116">
        <ele>281.00000</ele>
        <time>2024-03-21T12:37:10Z</time>
      </trkpt>
      <trkpt lat="42.80013003" lon="13.46310415">
        <ele>281.00000</ele>
        <time>2024-03-21T12:37:11Z</time>
      </trkpt>
      <trkpt lat="42.80005836" lon="13.46312535">
        <ele>281.00000</ele>
        <time>2024-03-21T12:37:12Z</time>
      </trkpt>
      <trkpt lat="42.80000313" lon="13.46314966">
        <ele>281.00000</ele>
        <time>2024-03-21T12:37:13Z</time>
      </trkpt>
      <trkpt lat="42.79994294" lon="13.46317799">
        <ele>281.00000</ele>
        <time>2024-03-21T12:37:14Z</time>
      </trkpt>
      <trkpt lat="42.79989550" lon="13.46320096">
        <ele>281.00000</ele>
        <time>2024-03-21T12:37:15Z</time>
      </trkpt>
      <trkpt lat="42.79982753" lon="13.46323189">
        <ele>281.00000</ele>
        <time>2024-03-21T12:37:16Z</time>
      </trkpt>
      <trkpt lat="42.79977112" lon="13.46325846">
        <ele>281.00000</ele>
        <time>2024-03-21T12:37:17Z</time>
      </trkpt>
      <trkpt lat="42.79971596" lon="13.46328629">
        <ele>281.00000</ele>
        <time>2024-03-21T12:37:18Z</time>
      </trkpt>
      <trkpt lat="42.79966265" lon="13.46331906">
        <ele>281.00000</ele>
        <time>2024-03-21T12:37:19Z</time>
      </trkpt>
      <trkpt lat="42.79960742" lon="13.46336290">
        <ele>280.00000</ele>
        <time>2024-03-21T12:37:20Z</time>
      </trkpt>
      <trkpt lat="42.79954925" lon="13.46341621">
        <ele>279.00000</ele>
        <time>2024-03-21T12:37:21Z</time>
      </trkpt>
      <trkpt lat="42.79949166" lon="13.46347530">
        <ele>278.00000</ele>
        <time>2024-03-21T12:37:22Z</time>
      </trkpt>
      <trkpt lat="42.79943249" lon="13.46353674">
        <ele>277.00000</ele>
        <time>2024-03-21T12:37:23Z</time>
      </trkpt>
      <trkpt lat="42.79937465" lon="13.46361410">
        <ele>276.00000</ele>
        <time>2024-03-21T12:37:24Z</time>
      </trkpt>
      <trkpt lat="42.79931288" lon="13.46369247">
        <ele>276.00000</ele>
        <time>2024-03-21T12:37:25Z</time>
      </trkpt>
      <trkpt lat="42.79926200" lon="13.46376330">
        <ele>276.00000</ele>
        <time>2024-03-21T12:37:26Z</time>
      </trkpt>
      <trkpt lat="42.79920467" lon="13.46383832">
        <ele>276.00000</ele>
        <time>2024-03-21T12:37:27Z</time>
      </trkpt>
      <trkpt lat="42.79914440" lon="13.46391744">
        <ele>276.00000</ele>
        <time>2024-03-21T12:37:28Z</time>
      </trkpt>
      <trkpt lat="42.79909369" lon="13.46397922">
        <ele>275.00000</ele>
        <time>2024-03-21T12:37:29Z</time>
      </trkpt>
      <trkpt lat="42.79905471" lon="13.46403680">
        <ele>274.00000</ele>
        <time>2024-03-21T12:37:30Z</time>
      </trkpt>
      <trkpt lat="42.79900451" lon="13.46411375">
        <ele>273.00000</ele>
        <time>2024-03-21T12:37:31Z</time>
      </trkpt>
      <trkpt lat="42.79894324" lon="13.46421425">
        <ele>272.00000</ele>
        <time>2024-03-21T12:37:32Z</time>
      </trkpt>
      <trkpt lat="42.79889630" lon="13.46429857">
        <ele>271.00000</ele>
        <time>2024-03-21T12:37:33Z</time>
      </trkpt>
      <trkpt lat="42.79884718" lon="13.46431693">
        <ele>271.00000</ele>
        <time>2024-03-21T12:37:34Z</time>
      </trkpt>
      <trkpt lat="42.79880301" lon="13.46431751">
        <ele>272.00000</ele>
        <time>2024-03-21T12:37:35Z</time>
      </trkpt>
      <trkpt lat="42.79875162" lon="13.46432916">
        <ele>272.00000</ele>
        <time>2024-03-21T12:37:36Z</time>
      </trkpt>
      <trkpt lat="42.79869639" lon="13.46439245">
        <ele>272.00000</ele>
        <time>2024-03-21T12:37:37Z</time>
      </trkpt>
      <trkpt lat="42.79864970" lon="13.46445330">
        <ele>272.00000</ele>
        <time>2024-03-21T12:37:38Z</time>
      </trkpt>
      <trkpt lat="42.79860720" lon="13.46449839">
        <ele>272.00000</ele>
        <time>2024-03-21T12:37:39Z</time>
      </trkpt>
      <trkpt lat="42.79855197" lon="13.46455447">
        <ele>273.00000</ele>
        <time>2024-03-21T12:37:40Z</time>
      </trkpt>
      <trkpt lat="42.79848684" lon="13.46462639">
        <ele>273.00000</ele>
        <time>2024-03-21T12:37:41Z</time>
      </trkpt>
      <trkpt lat="42.79843202" lon="13.46468699">
        <ele>273.00000</ele>
        <time>2024-03-21T12:37:42Z</time>
      </trkpt>
      <trkpt lat="42.79837545" lon="13.46474365">
        <ele>274.00000</ele>
        <time>2024-03-21T12:37:43Z</time>
      </trkpt>
      <trkpt lat="42.79833102" lon="13.46479042">
        <ele>274.00000</ele>
        <time>2024-03-21T12:37:44Z</time>
      </trkpt>
      <trkpt lat="42.79827587" lon="13.46485320">
        <ele>273.00000</ele>
        <time>2024-03-21T12:37:45Z</time>
      </trkpt>
      <trkpt lat="42.79820789" lon="13.46492822">
        <ele>272.00000</ele>
        <time>2024-03-21T12:37:46Z</time>
      </trkpt>
      <trkpt lat="42.79814804" lon="13.46498622">
        <ele>271.00000</ele>
        <time>2024-03-21T12:37:47Z</time>
      </trkpt>
      <trkpt lat="42.79808443" lon="13.46503266">
        <ele>271.00000</ele>
        <time>2024-03-21T12:37:48Z</time>
      </trkpt>
      <trkpt lat="42.79802827" lon="13.46505696">
        <ele>271.00000</ele>
        <time>2024-03-21T12:37:49Z</time>
      </trkpt>
      <trkpt lat="42.79793757" lon="13.46507825">
        <ele>270.00000</ele>
        <time>2024-03-21T12:37:50Z</time>
      </trkpt>
      <trkpt lat="42.79786155" lon="13.46505822">
        <ele>270.00000</ele>
        <time>2024-03-21T12:37:51Z</time>
      </trkpt>
      <trkpt lat="42.79779517" lon="13.46501388">
        <ele>270.00000</ele>
        <time>2024-03-21T12:37:52Z</time>
      </trkpt>
      <trkpt lat="42.79773901" lon="13.46494766">
        <ele>270.00000</ele>
        <time>2024-03-21T12:37:53Z</time>
      </trkpt>
      <trkpt lat="42.79769961" lon="13.46486602">
        <ele>270.00000</ele>
        <time>2024-03-21T12:37:54Z</time>
      </trkpt>
      <trkpt lat="42.79768511" lon="13.46476930">
        <ele>270.00000</ele>
        <time>2024-03-21T12:37:55Z</time>
      </trkpt>
      <trkpt lat="42.79769240" lon="13.46466243">
        <ele>270.00000</ele>
        <time>2024-03-21T12:37:56Z</time>
      </trkpt>
      <trkpt lat="42.79771227" lon="13.46456277">
        <ele>269.00000</ele>
        <time>2024-03-21T12:37:57Z</time>
      </trkpt>
      <trkpt lat="42.79773834" lon="13.46446285">
        <ele>269.00000</ele>
        <time>2024-03-21T12:37:58Z</time>
      </trkpt>
      <trkpt lat="42.79776030" lon="13.46437987">
        <ele>268.00000</ele>
        <time>2024-03-21T12:37:59Z</time>
      </trkpt>
      <trkpt lat="42.79779156" lon="13.46426546">
        <ele>269.00000</ele>
        <time>2024-03-21T12:38:00Z</time>
      </trkpt>
      <trkpt lat="42.79782065" lon="13.46416773">
        <ele>270.00000</ele>
        <time>2024-03-21T12:38:01Z</time>
      </trkpt>
      <trkpt lat="42.79785149" lon="13.46406463">
        <ele>270.00000</ele>
        <time>2024-03-21T12:38:02Z</time>
      </trkpt>
      <trkpt lat="42.79787681" lon="13.46395852">
        <ele>270.00000</ele>
        <time>2024-03-21T12:38:03Z</time>
      </trkpt>
      <trkpt lat="42.79789776" lon="13.46387729">
        <ele>270.00000</ele>
        <time>2024-03-21T12:38:04Z</time>
      </trkpt>
      <trkpt lat="42.79792861" lon="13.46375836">
        <ele>271.00000</ele>
        <time>2024-03-21T12:38:05Z</time>
      </trkpt>
      <trkpt lat="42.79795744" lon="13.46365618">
        <ele>270.00000</ele>
        <time>2024-03-21T12:38:06Z</time>
      </trkpt>
      <trkpt lat="42.79798594" lon="13.46355727">
        <ele>271.00000</ele>
        <time>2024-03-21T12:38:07Z</time>
      </trkpt>
      <trkpt lat="42.79801402" lon="13.46345636">
        <ele>271.00000</ele>
        <time>2024-03-21T12:38:08Z</time>
      </trkpt>
      <trkpt lat="42.79803933" lon="13.46336147">
        <ele>272.00000</ele>
        <time>2024-03-21T12:38:09Z</time>
      </trkpt>
      <trkpt lat="42.79806381" lon="13.46326986">
        <ele>273.00000</ele>
        <time>2024-03-21T12:38:10Z</time>
      </trkpt>
      <trkpt lat="42.79808568" lon="13.46317548">
        <ele>273.00000</ele>
        <time>2024-03-21T12:38:11Z</time>
      </trkpt>
      <trkpt lat="42.79810898" lon="13.46307833">
        <ele>273.00000</ele>
        <time>2024-03-21T12:38:12Z</time>
      </trkpt>
      <trkpt lat="42.79813480" lon="13.46298521">
        <ele>273.00000</ele>
        <time>2024-03-21T12:38:13Z</time>
      </trkpt>
      <trkpt lat="42.79815835" lon="13.46289284">
        <ele>272.00000</ele>
        <time>2024-03-21T12:38:14Z</time>
      </trkpt>
      <trkpt lat="42.79818342" lon="13.46279896">
        <ele>271.00000</ele>
        <time>2024-03-21T12:38:15Z</time>
      </trkpt>
      <trkpt lat="42.79820865" lon="13.46270953">
        <ele>271.00000</ele>
        <time>2024-03-21T12:38:16Z</time>
      </trkpt>
      <trkpt lat="42.79822885" lon="13.46261573">
        <ele>270.00000</ele>
        <time>2024-03-21T12:38:17Z</time>
      </trkpt>
      <trkpt lat="42.79824947" lon="13.46252152">
        <ele>269.00000</ele>
        <time>2024-03-21T12:38:18Z</time>
      </trkpt>
      <trkpt lat="42.79827126" lon="13.46242957">
        <ele>269.00000</ele>
        <time>2024-03-21T12:38:19Z</time>
      </trkpt>
      <trkpt lat="42.79829288" lon="13.46234064">
        <ele>269.00000</ele>
        <time>2024-03-21T12:38:20Z</time>
      </trkpt>
      <trkpt lat="42.79831727" lon="13.46224852">
        <ele>269.00000</ele>
        <time>2024-03-21T12:38:21Z</time>
      </trkpt>
      <trkpt lat="42.79834544" lon="13.46215632">
        <ele>269.00000</ele>
        <time>2024-03-21T12:38:22Z</time>
      </trkpt>
      <trkpt lat="42.79836748" lon="13.46206253">
        <ele>270.00000</ele>
        <time>2024-03-21T12:38:23Z</time>
      </trkpt>
      <trkpt lat="42.79839372" lon="13.46197267">
        <ele>272.00000</ele>
        <time>2024-03-21T12:38:24Z</time>
      </trkpt>
      <trkpt lat="42.79841702" lon="13.46188886">
        <ele>273.00000</ele>
        <time>2024-03-21T12:38:25Z</time>
      </trkpt>
      <trkpt lat="42.79843336" lon="13.46180428">
        <ele>274.00000</ele>
        <time>2024-03-21T12:38:26Z</time>
      </trkpt>
      <trkpt lat="42.79844191" lon="13.46172197">
        <ele>275.00000</ele>
        <time>2024-03-21T12:38:27Z</time>
      </trkpt>
      <trkpt lat="42.79845105" lon="13.46164712">
        <ele>275.00000</ele>
        <time>2024-03-21T12:38:28Z</time>
      </trkpt>
      <trkpt lat="42.79846052" lon="13.46157629">
        <ele>276.00000</ele>
        <time>2024-03-21T12:38:29Z</time>
      </trkpt>
      <trkpt lat="42.79847452" lon="13.46150706">
        <ele>276.00000</ele>
        <time>2024-03-21T12:38:30Z</time>
      </trkpt>
      <trkpt lat="42.79848810" lon="13.46143472">
        <ele>277.00000</ele>
        <time>2024-03-21T12:38:31Z</time>
      </trkpt>
      <trkpt lat="42.79850034" lon="13.46136063">
        <ele>277.00000</ele>
        <time>2024-03-21T12:38:32Z</time>
      </trkpt>
      <trkpt lat="42.79851509" lon="13.46128201">
        <ele>278.00000</ele>
        <time>2024-03-21T12:38:33Z</time>
      </trkpt>
      <trkpt lat="42.79852540" lon="13.46120120">
        <ele>278.00000</ele>
        <time>2024-03-21T12:38:34Z</time>
      </trkpt>
      <trkpt lat="42.79853009" lon="13.46112099">
        <ele>277.00000</ele>
        <time>2024-03-21T12:38:35Z</time>
      </trkpt>
      <trkpt lat="42.79853009" lon="13.46103482">
        <ele>277.00000</ele>
        <time>2024-03-21T12:38:36Z</time>
      </trkpt>
      <trkpt lat="42.79853034" lon="13.46095402">
        <ele>276.00000</ele>
        <time>2024-03-21T12:38:37Z</time>
      </trkpt>
      <trkpt lat="42.79853244" lon="13.46087632">
        <ele>275.00000</ele>
        <time>2024-03-21T12:38:38Z</time>
      </trkpt>
      <trkpt lat="42.79853613" lon="13.46080197">
        <ele>275.00000</ele>
        <time>2024-03-21T12:38:39Z</time>
      </trkpt>
      <trkpt lat="42.79853973" lon="13.46073073">
        <ele>275.00000</ele>
        <time>2024-03-21T12:38:40Z</time>
      </trkpt>
      <trkpt lat="42.79853973" lon="13.46067775">
        <ele>274.00000</ele>
        <time>2024-03-21T12:38:41Z</time>
      </trkpt>
      <trkpt lat="42.79853529" lon="13.46060416">
        <ele>274.00000</ele>
        <time>2024-03-21T12:38:42Z</time>
      </trkpt>
      <trkpt lat="42.79853177" lon="13.46054842">
        <ele>273.00000</ele>
        <time>2024-03-21T12:38:43Z</time>
      </trkpt>
      <trkpt lat="42.79853990" lon="13.46049637">
        <ele>274.00000</ele>
        <time>2024-03-21T12:38:44Z</time>
      </trkpt>
      <trkpt lat="42.79855675" lon="13.46045119">
        <ele>274.00000</ele>
        <time>2024-03-21T12:38:45Z</time>
      </trkpt>
      <trkpt lat="42.79856722" lon="13.46040819">
        <ele>274.00000</ele>
        <time>2024-03-21T12:38:46Z</time>
      </trkpt>
      <trkpt lat="42.79856462" lon="13.46036653">
        <ele>274.00000</ele>
        <time>2024-03-21T12:38:47Z</time>
      </trkpt>
      <trkpt lat="42.79855892" lon="13.46032789">
        <ele>273.00000</ele>
        <time>2024-03-21T12:38:48Z</time>
      </trkpt>
      <trkpt lat="42.79856437" lon="13.46029118">
        <ele>274.00000</ele>
        <time>2024-03-21T12:38:49Z</time>
      </trkpt>
      <trkpt lat="42.79857636" lon="13.46025707">
        <ele>274.00000</ele>
        <time>2024-03-21T12:38:50Z</time>
      </trkpt>
      <trkpt lat="42.79858550" lon="13.46022698">
        <ele>274.00000</ele>
        <time>2024-03-21T12:38:51Z</time>
      </trkpt>
      <trkpt lat="42.79858600" lon="13.46019580">
        <ele>274.00000</ele>
        <time>2024-03-21T12:38:52Z</time>
      </trkpt>
      <trkpt lat="42.79858499" lon="13.46016948">
        <ele>274.00000</ele>
        <time>2024-03-21T12:38:53Z</time>
      </trkpt>
      <trkpt lat="42.79858474" lon="13.46014383">
        <ele>274.00000</ele>
        <time>2024-03-21T12:38:54Z</time>
      </trkpt>
      <trkpt lat="42.79858608" lon="13.46012740">
        <ele>274.00000</ele>
        <time>2024-03-21T12:38:55Z</time>
      </trkpt>
      <trkpt lat="42.79858918" lon="13.46011684">
        <ele>274.00000</ele>
        <time>2024-03-21T12:38:56Z</time>
      </trkpt>
      <trkpt lat="42.79859036" lon="13.46012195">
        <ele>274.00000</ele>
        <time>2024-03-21T12:38:57Z</time>
      </trkpt>
      <trkpt lat="42.79858583" lon="13.46013830">
        <ele>274.00000</ele>
        <time>2024-03-21T12:38:58Z</time>
      </trkpt>
      <trkpt lat="42.79857845" lon="13.46015757">
        <ele>274.00000</ele>
        <time>2024-03-21T12:38:59Z</time>
      </trkpt>
      <trkpt lat="42.79857384" lon="13.46017794">
        <ele>274.00000</ele>
        <time>2024-03-21T12:39:00Z</time>
      </trkpt>
      <trkpt lat="42.79856957" lon="13.46019672">
        <ele>274.00000</ele>
        <time>2024-03-21T12:39:01Z</time>
      </trkpt>
      <trkpt lat="42.79856219" lon="13.46020812">
        <ele>273.00000</ele>
        <time>2024-03-21T12:39:02Z</time>
      </trkpt>
      <trkpt lat="42.79855440" lon="13.46022094">
        <ele>273.00000</ele>
        <time>2024-03-21T12:39:03Z</time>
      </trkpt>
      <trkpt lat="42.79854794" lon="13.46023737">
        <ele>273.00000</ele>
        <time>2024-03-21T12:39:04Z</time>
      </trkpt>
      <trkpt lat="42.79854677" lon="13.46025556">
        <ele>273.00000</ele>
        <time>2024-03-21T12:39:05Z</time>
      </trkpt>
      <trkpt lat="42.79854794" lon="13.46027928">
        <ele>273.00000</ele>
        <time>2024-03-21T12:39:06Z</time>
      </trkpt>
      <trkpt lat="42.79854258" lon="13.46030233">
        <ele>273.00000</ele>
        <time>2024-03-21T12:39:07Z</time>
      </trkpt>
      <trkpt lat="42.79853420" lon="13.46030635">
        <ele>273.00000</ele>
        <time>2024-03-21T12:39:08Z</time>
      </trkpt>
      <trkpt lat="42.79852934" lon="13.46030090">
        <ele>273.00000</ele>
        <time>2024-03-21T12:39:09Z</time>
      </trkpt>
      <trkpt lat="42.79853386" lon="13.46029361">
        <ele>273.00000</ele>
        <time>2024-03-21T12:39:10Z</time>
      </trkpt>
      <trkpt lat="42.79853713" lon="13.46028381">
        <ele>273.00000</ele>
        <time>2024-03-21T12:39:11Z</time>
      </trkpt>
      <trkpt lat="42.79854241" lon="13.46027811">
        <ele>273.00000</ele>
        <time>2024-03-21T12:39:12Z</time>
      </trkpt>
      <trkpt lat="42.79854543" lon="13.46027098">
        <ele>273.00000</ele>
        <time>2024-03-21T12:39:13Z</time>
      </trkpt>
      <trkpt lat="42.79854241" lon="13.46025933">
        <ele>273.00000</ele>
        <time>2024-03-21T12:39:14Z</time>
      </trkpt>
      <trkpt lat="42.79854116" lon="13.46025304">
        <ele>273.00000</ele>
        <time>2024-03-21T12:39:15Z</time>
      </trkpt>
      <trkpt lat="42.79854241" lon="13.46025120">
        <ele>273.00000</ele>
        <time>2024-03-21T12:39:17Z</time>
      </trkpt>
      <trkpt lat="42.79854593" lon="13.46023628">
        <ele>273.00000</ele>
        <time>2024-03-21T12:39:18Z</time>
      </trkpt>
      <trkpt lat="42.79854769" lon="13.46022748">
        <ele>273.00000</ele>
        <time>2024-03-21T12:39:19Z</time>
      </trkpt>
      <trkpt lat="42.79858021" lon="13.46009144">
        <ele>274.00000</ele>
        <time>2024-03-21T12:40:23Z</time>
      </trkpt>
      <trkpt lat="42.79859254" lon="13.46003914">
        <ele>274.00000</ele>
        <time>2024-03-21T12:40:24Z</time>
      </trkpt>
      <trkpt lat="42.79860511" lon="13.45997879">
        <ele>274.00000</ele>
        <time>2024-03-21T12:40:25Z</time>
      </trkpt>
      <trkpt lat="42.79861710" lon="13.45991257">
        <ele>275.00000</ele>
        <time>2024-03-21T12:40:26Z</time>
      </trkpt>
      <trkpt lat="42.79862598" lon="13.45984417">
        <ele>275.00000</ele>
        <time>2024-03-21T12:40:27Z</time>
      </trkpt>
      <trkpt lat="42.79863193" lon="13.45977561">
        <ele>275.00000</ele>
        <time>2024-03-21T12:40:28Z</time>
      </trkpt>
      <trkpt lat="42.79863394" lon="13.45970571">
        <ele>275.00000</ele>
        <time>2024-03-21T12:40:29Z</time>
      </trkpt>
      <trkpt lat="42.79863629" lon="13.45963329">
        <ele>275.00000</ele>
        <time>2024-03-21T12:40:30Z</time>
      </trkpt>
      <trkpt lat="42.79864149" lon="13.45955743">
        <ele>276.00000</ele>
        <time>2024-03-21T12:40:31Z</time>
      </trkpt>
      <trkpt lat="42.79865096" lon="13.45947772">
        <ele>276.00000</ele>
        <time>2024-03-21T12:40:32Z</time>
      </trkpt>
      <trkpt lat="42.79866336" lon="13.45940186">
        <ele>277.00000</ele>
        <time>2024-03-21T12:40:33Z</time>
      </trkpt>
      <trkpt lat="42.79867828" lon="13.45933103">
        <ele>277.00000</ele>
        <time>2024-03-21T12:40:34Z</time>
      </trkpt>
      <trkpt lat="42.79868935" lon="13.45926113">
        <ele>278.00000</ele>
        <time>2024-03-21T12:40:35Z</time>
      </trkpt>
      <trkpt lat="42.79869781" lon="13.45919374">
        <ele>279.00000</ele>
        <time>2024-03-21T12:40:36Z</time>
      </trkpt>
      <trkpt lat="42.79870410" lon="13.45912409">
        <ele>279.00000</ele>
        <time>2024-03-21T12:40:37Z</time>
      </trkpt>
      <trkpt lat="42.79871508" lon="13.45905644">
        <ele>279.00000</ele>
        <time>2024-03-21T12:40:38Z</time>
      </trkpt>
      <trkpt lat="42.79872581" lon="13.45898511">
        <ele>280.00000</ele>
        <time>2024-03-21T12:40:39Z</time>
      </trkpt>
      <trkpt lat="42.79873151" lon="13.45891655">
        <ele>280.00000</ele>
        <time>2024-03-21T12:40:40Z</time>
      </trkpt>
      <trkpt lat="42.79874014" lon="13.45884941">
        <ele>280.00000</ele>
        <time>2024-03-21T12:40:41Z</time>
      </trkpt>
      <trkpt lat="42.79875171" lon="13.45876928">
        <ele>280.00000</ele>
        <time>2024-03-21T12:40:42Z</time>
      </trkpt>
      <trkpt lat="42.79875632" lon="13.45868194">
        <ele>280.00000</ele>
        <time>2024-03-21T12:40:43Z</time>
      </trkpt>
      <trkpt lat="42.79875565" lon="13.45858898">
        <ele>280.00000</ele>
        <time>2024-03-21T12:40:44Z</time>
      </trkpt>
      <trkpt lat="42.79875112" lon="13.45849720">
        <ele>280.00000</ele>
        <time>2024-03-21T12:40:45Z</time>
      </trkpt>
      <trkpt lat="42.79874433" lon="13.45841137">
        <ele>279.00000</ele>
        <time>2024-03-21T12:40:46Z</time>
      </trkpt>
      <trkpt lat="42.79873788" lon="13.45832596">
        <ele>279.00000</ele>
        <time>2024-03-21T12:40:47Z</time>
      </trkpt>
      <trkpt lat="42.79873302" lon="13.45826025">
        <ele>280.00000</ele>
        <time>2024-03-21T12:40:48Z</time>
      </trkpt>
      <trkpt lat="42.79872698" lon="13.45818255">
        <ele>280.00000</ele>
        <time>2024-03-21T12:40:49Z</time>
      </trkpt>
      <trkpt lat="42.79871902" lon="13.45809898">
        <ele>281.00000</ele>
        <time>2024-03-21T12:40:50Z</time>
      </trkpt>
      <trkpt lat="42.79870594" lon="13.45802958">
        <ele>281.00000</ele>
        <time>2024-03-21T12:40:51Z</time>
      </trkpt>
      <trkpt lat="42.79869563" lon="13.45797157">
        <ele>281.00000</ele>
        <time>2024-03-21T12:40:52Z</time>
      </trkpt>
      <trkpt lat="42.79869019" lon="13.45792279">
        <ele>282.00000</ele>
        <time>2024-03-21T12:40:53Z</time>
      </trkpt>
      <trkpt lat="42.79868708" lon="13.45787912">
        <ele>282.00000</ele>
        <time>2024-03-21T12:40:54Z</time>
      </trkpt>
      <trkpt lat="42.79868331" lon="13.45782757">
        <ele>283.00000</ele>
        <time>2024-03-21T12:40:55Z</time>
      </trkpt>
      <trkpt lat="42.79867828" lon="13.45776840">
        <ele>283.00000</ele>
        <time>2024-03-21T12:40:56Z</time>
      </trkpt>
      <trkpt lat="42.79867351" lon="13.45772121">
        <ele>284.00000</ele>
        <time>2024-03-21T12:40:57Z</time>
      </trkpt>
      <trkpt lat="42.79866973" lon="13.45767343">
        <ele>284.00000</ele>
        <time>2024-03-21T12:40:58Z</time>
      </trkpt>
      <trkpt lat="42.79866831" lon="13.45763412">
        <ele>285.00000</ele>
        <time>2024-03-21T12:40:59Z</time>
      </trkpt>
      <trkpt lat="42.79866336" lon="13.45757980">
        <ele>285.00000</ele>
        <time>2024-03-21T12:41:00Z</time>
      </trkpt>
      <trkpt lat="42.79866646" lon="13.45753831">
        <ele>286.00000</ele>
        <time>2024-03-21T12:41:01Z</time>
      </trkpt>
      <trkpt lat="42.79866512" lon="13.45748266">
        <ele>286.00000</ele>
        <time>2024-03-21T12:41:02Z</time>
      </trkpt>
      <trkpt lat="42.79866437" lon="13.45744569">
        <ele>286.00000</ele>
        <time>2024-03-21T12:41:03Z</time>
      </trkpt>
      <trkpt lat="42.79866973" lon="13.45739808">
        <ele>287.00000</ele>
        <time>2024-03-21T12:41:04Z</time>
      </trkpt>
      <trkpt lat="42.79867317" lon="13.45734276">
        <ele>288.00000</ele>
        <time>2024-03-21T12:41:05Z</time>
      </trkpt>
      <trkpt lat="42.79867066" lon="13.45730354">
        <ele>288.00000</ele>
        <time>2024-03-21T12:41:06Z</time>
      </trkpt>
      <trkpt lat="42.79867124" lon="13.45727127">
        <ele>288.00000</ele>
        <time>2024-03-21T12:41:07Z</time>
      </trkpt>
      <trkpt lat="42.79867719" lon="13.45723036">
        <ele>289.00000</ele>
        <time>2024-03-21T12:41:08Z</time>
      </trkpt>
      <trkpt lat="42.79868599" lon="13.45718225">
        <ele>290.00000</ele>
        <time>2024-03-21T12:41:09Z</time>
      </trkpt>
      <trkpt lat="42.79869806" lon="13.45712726">
        <ele>290.00000</ele>
        <time>2024-03-21T12:41:10Z</time>
      </trkpt>
      <trkpt lat="42.79870678" lon="13.45708158">
        <ele>291.00000</ele>
        <time>2024-03-21T12:41:11Z</time>
      </trkpt>
      <trkpt lat="42.79872028" lon="13.45703716">
        <ele>292.00000</ele>
        <time>2024-03-21T12:41:12Z</time>
      </trkpt>
      <trkpt lat="42.79872916" lon="13.45699810">
        <ele>293.00000</ele>
        <time>2024-03-21T12:41:13Z</time>
      </trkpt>
      <trkpt lat="42.79874601" lon="13.45695720">
        <ele>294.00000</ele>
        <time>2024-03-21T12:41:14Z</time>
      </trkpt>
      <trkpt lat="42.79875431" lon="13.45692065">
        <ele>296.00000</ele>
        <time>2024-03-21T12:41:15Z</time>
      </trkpt>
      <trkpt lat="42.79876654" lon="13.45687522">
        <ele>297.00000</ele>
        <time>2024-03-21T12:41:16Z</time>
      </trkpt>
      <trkpt lat="42.79877141" lon="13.45683205">
        <ele>297.00000</ele>
        <time>2024-03-21T12:41:17Z</time>
      </trkpt>
      <trkpt lat="42.79877074" lon="13.45679132">
        <ele>297.00000</ele>
        <time>2024-03-21T12:41:18Z</time>
      </trkpt>
      <trkpt lat="42.79876830" lon="13.45674446">
        <ele>298.00000</ele>
        <time>2024-03-21T12:41:19Z</time>
      </trkpt>
      <trkpt lat="42.79876420" lon="13.45669568">
        <ele>298.00000</ele>
        <time>2024-03-21T12:41:20Z</time>
      </trkpt>
      <trkpt lat="42.79876688" lon="13.45664631">
        <ele>298.00000</ele>
        <time>2024-03-21T12:41:21Z</time>
      </trkpt>
      <trkpt lat="42.79877216" lon="13.45659870">
        <ele>298.00000</ele>
        <time>2024-03-21T12:41:22Z</time>
      </trkpt>
      <trkpt lat="42.79877040" lon="13.45655637">
        <ele>298.00000</ele>
        <time>2024-03-21T12:41:23Z</time>
      </trkpt>
      <trkpt lat="42.79876856" lon="13.45651128">
        <ele>298.00000</ele>
        <time>2024-03-21T12:41:24Z</time>
      </trkpt>
      <trkpt lat="42.79876629" lon="13.45646593">
        <ele>298.00000</ele>
        <time>2024-03-21T12:41:25Z</time>
      </trkpt>
      <trkpt lat="42.79876378" lon="13.45642000">
        <ele>298.00000</ele>
        <time>2024-03-21T12:41:26Z</time>
      </trkpt>
      <trkpt lat="42.79876185" lon="13.45637616">
        <ele>298.00000</ele>
        <time>2024-03-21T12:41:27Z</time>
      </trkpt>
      <trkpt lat="42.79875867" lon="13.45633434">
        <ele>298.00000</ele>
        <time>2024-03-21T12:41:28Z</time>
      </trkpt>
      <trkpt lat="42.79875674" lon="13.45629016">
        <ele>298.00000</ele>
        <time>2024-03-21T12:41:29Z</time>
      </trkpt>
      <trkpt lat="42.79875498" lon="13.45624582">
        <ele>298.00000</ele>
        <time>2024-03-21T12:41:30Z</time>
      </trkpt>
      <trkpt lat="42.79875598" lon="13.45620257">
        <ele>299.00000</ele>
        <time>2024-03-21T12:41:31Z</time>
      </trkpt>
      <trkpt lat="42.79875682" lon="13.45615882">
        <ele>299.00000</ele>
        <time>2024-03-21T12:41:32Z</time>
      </trkpt>
      <trkpt lat="42.79875833" lon="13.45611741">
        <ele>300.00000</ele>
        <time>2024-03-21T12:41:33Z</time>
      </trkpt>
      <trkpt lat="42.79876185" lon="13.45607341">
        <ele>300.00000</ele>
        <time>2024-03-21T12:41:34Z</time>
      </trkpt>
      <trkpt lat="42.79876722" lon="13.45602890">
        <ele>301.00000</ele>
        <time>2024-03-21T12:41:35Z</time>
      </trkpt>
      <trkpt lat="42.79877082" lon="13.45598565">
        <ele>301.00000</ele>
        <time>2024-03-21T12:41:36Z</time>
      </trkpt>
      <trkpt lat="42.79877250" lon="13.45594215">
        <ele>301.00000</ele>
        <time>2024-03-21T12:41:37Z</time>
      </trkpt>
      <trkpt lat="42.79877325" lon="13.45589571">
        <ele>302.00000</ele>
        <time>2024-03-21T12:41:38Z</time>
      </trkpt>
      <trkpt lat="42.79877308" lon="13.45584701">
        <ele>302.00000</ele>
        <time>2024-03-21T12:41:39Z</time>
      </trkpt>
      <trkpt lat="42.79877015" lon="13.45579672">
        <ele>303.00000</ele>
        <time>2024-03-21T12:41:40Z</time>
      </trkpt>
      <trkpt lat="42.79876763" lon="13.45574392">
        <ele>303.00000</ele>
        <time>2024-03-21T12:41:41Z</time>
      </trkpt>
      <trkpt lat="42.79876110" lon="13.45569572">
        <ele>304.00000</ele>
        <time>2024-03-21T12:41:42Z</time>
      </trkpt>
      <trkpt lat="42.79875665" lon="13.45564677">
        <ele>305.00000</ele>
        <time>2024-03-21T12:41:43Z</time>
      </trkpt>
      <trkpt lat="42.79874752" lon="13.45559530">
        <ele>305.00000</ele>
        <time>2024-03-21T12:41:44Z</time>
      </trkpt>
      <trkpt lat="42.79873830" lon="13.45554409">
        <ele>305.00000</ele>
        <time>2024-03-21T12:41:45Z</time>
      </trkpt>
      <trkpt lat="42.79872958" lon="13.45549128">
        <ele>306.00000</ele>
        <time>2024-03-21T12:41:46Z</time>
      </trkpt>
      <trkpt lat="42.79872128" lon="13.45544217">
        <ele>307.00000</ele>
        <time>2024-03-21T12:41:47Z</time>
      </trkpt>
      <trkpt lat="42.79870754" lon="13.45539204">
        <ele>307.00000</ele>
        <time>2024-03-21T12:41:48Z</time>
      </trkpt>
      <trkpt lat="42.79868901" lon="13.45533924">
        <ele>307.00000</ele>
        <time>2024-03-21T12:41:49Z</time>
      </trkpt>
      <trkpt lat="42.79866722" lon="13.45528945">
        <ele>307.00000</ele>
        <time>2024-03-21T12:41:50Z</time>
      </trkpt>
      <trkpt lat="42.79864291" lon="13.45523907">
        <ele>306.00000</ele>
        <time>2024-03-21T12:41:51Z</time>
      </trkpt>
      <trkpt lat="42.79862103" lon="13.45518786">
        <ele>306.00000</ele>
        <time>2024-03-21T12:41:52Z</time>
      </trkpt>
      <trkpt lat="42.79859555" lon="13.45513924">
        <ele>305.00000</ele>
        <time>2024-03-21T12:41:53Z</time>
      </trkpt>
      <trkpt lat="42.79856588" lon="13.45509038">
        <ele>304.00000</ele>
        <time>2024-03-21T12:41:54Z</time>
      </trkpt>
      <trkpt lat="42.79854048" lon="13.45503916">
        <ele>304.00000</ele>
        <time>2024-03-21T12:41:55Z</time>
      </trkpt>
      <trkpt lat="42.79851668" lon="13.45498686">
        <ele>304.00000</ele>
        <time>2024-03-21T12:41:56Z</time>
      </trkpt>
      <trkpt lat="42.79848642" lon="13.45493607">
        <ele>303.00000</ele>
        <time>2024-03-21T12:41:57Z</time>
      </trkpt>
      <trkpt lat="42.79845491" lon="13.45488242">
        <ele>302.00000</ele>
        <time>2024-03-21T12:41:58Z</time>
      </trkpt>
      <trkpt lat="42.79842255" lon="13.45482484">
        <ele>302.00000</ele>
        <time>2024-03-21T12:41:59Z</time>
      </trkpt>
      <trkpt lat="42.79838676" lon="13.45476843">
        <ele>300.00000</ele>
        <time>2024-03-21T12:42:00Z</time>
      </trkpt>
      <trkpt lat="42.79835256" lon="13.45471219">
        <ele>300.00000</ele>
        <time>2024-03-21T12:42:01Z</time>
      </trkpt>
      <trkpt lat="42.79831954" lon="13.45465402">
        <ele>299.00000</ele>
        <time>2024-03-21T12:42:02Z</time>
      </trkpt>
      <trkpt lat="42.79829112" lon="13.45459492">
        <ele>298.00000</ele>
        <time>2024-03-21T12:42:03Z</time>
      </trkpt>
      <trkpt lat="42.79826975" lon="13.45452611">
        <ele>298.00000</ele>
        <time>2024-03-21T12:42:04Z</time>
      </trkpt>
      <trkpt lat="42.79825508" lon="13.45444874">
        <ele>299.00000</ele>
        <time>2024-03-21T12:42:05Z</time>
      </trkpt>
      <trkpt lat="42.79824536" lon="13.45436903">
        <ele>299.00000</ele>
        <time>2024-03-21T12:42:06Z</time>
      </trkpt>
      <trkpt lat="42.79824502" lon="13.45428840">
        <ele>299.00000</ele>
        <time>2024-03-21T12:42:07Z</time>
      </trkpt>
      <trkpt lat="42.79824259" lon="13.45420651">
        <ele>300.00000</ele>
        <time>2024-03-21T12:42:08Z</time>
      </trkpt>
      <trkpt lat="42.79825516" lon="13.45411892">
        <ele>300.00000</ele>
        <time>2024-03-21T12:42:09Z</time>
      </trkpt>
      <trkpt lat="42.79828811" lon="13.45403493">
        <ele>301.00000</ele>
        <time>2024-03-21T12:42:10Z</time>
      </trkpt>
      <trkpt lat="42.79831903" lon="13.45395228">
        <ele>302.00000</ele>
        <time>2024-03-21T12:42:11Z</time>
      </trkpt>
      <trkpt lat="42.79837528" lon="13.45388405">
        <ele>302.00000</ele>
        <time>2024-03-21T12:42:12Z</time>
      </trkpt>
      <trkpt lat="42.79844627" lon="13.45381658">
        <ele>303.00000</ele>
        <time>2024-03-21T12:42:13Z</time>
      </trkpt>
      <trkpt lat="42.79850830" lon="13.45376763">
        <ele>304.00000</ele>
        <time>2024-03-21T12:42:14Z</time>
      </trkpt>
      <trkpt lat="42.79857921" lon="13.45371063">
        <ele>304.00000</ele>
        <time>2024-03-21T12:42:15Z</time>
      </trkpt>
      <trkpt lat="42.79866361" lon="13.45363059">
        <ele>304.00000</ele>
        <time>2024-03-21T12:42:16Z</time>
      </trkpt>
      <trkpt lat="42.79873168" lon="13.45355582">
        <ele>305.00000</ele>
        <time>2024-03-21T12:42:17Z</time>
      </trkpt>
      <trkpt lat="42.79879370" lon="13.45347301">
        <ele>305.00000</ele>
        <time>2024-03-21T12:42:18Z</time>
      </trkpt>
      <trkpt lat="42.79884626" lon="13.45340805">
        <ele>305.00000</ele>
        <time>2024-03-21T12:42:19Z</time>
      </trkpt>
      <trkpt lat="42.79891298" lon="13.45333672">
        <ele>304.00000</ele>
        <time>2024-03-21T12:42:20Z</time>
      </trkpt>
      <trkpt lat="42.79898892" lon="13.45325902">
        <ele>304.00000</ele>
        <time>2024-03-21T12:42:21Z</time>
      </trkpt>
      <trkpt lat="42.79905329" lon="13.45320411">
        <ele>304.00000</ele>
        <time>2024-03-21T12:42:22Z</time>
      </trkpt>
      <trkpt lat="42.79912412" lon="13.45316103">
        <ele>305.00000</ele>
        <time>2024-03-21T12:42:23Z</time>
      </trkpt>
      <trkpt lat="42.79918723" lon="13.45312843">
        <ele>306.00000</ele>
        <time>2024-03-21T12:42:24Z</time>
      </trkpt>
      <trkpt lat="42.79924532" lon="13.45310370">
        <ele>307.00000</ele>
        <time>2024-03-21T12:42:25Z</time>
      </trkpt>
      <trkpt lat="42.79930165" lon="13.45308828">
        <ele>308.00000</ele>
        <time>2024-03-21T12:42:26Z</time>
      </trkpt>
      <trkpt lat="42.79935110" lon="13.45307168">
        <ele>309.00000</ele>
        <time>2024-03-21T12:42:27Z</time>
      </trkpt>
      <trkpt lat="42.79939033" lon="13.45305324">
        <ele>309.00000</ele>
        <time>2024-03-21T12:42:28Z</time>
      </trkpt>
      <trkpt lat="42.79943668" lon="13.45302583">
        <ele>310.00000</ele>
        <time>2024-03-21T12:42:29Z</time>
      </trkpt>
      <trkpt lat="42.79949057" lon="13.45298845">
        <ele>311.00000</ele>
        <time>2024-03-21T12:42:30Z</time>
      </trkpt>
      <trkpt lat="42.79953508" lon="13.45295350">
        <ele>311.00000</ele>
        <time>2024-03-21T12:42:31Z</time>
      </trkpt>
      <trkpt lat="42.79957699" lon="13.45291930">
        <ele>311.00000</ele>
        <time>2024-03-21T12:42:32Z</time>
      </trkpt>
      <trkpt lat="42.79961597" lon="13.45288896">
        <ele>311.00000</ele>
        <time>2024-03-21T12:42:33Z</time>
      </trkpt>
      <trkpt lat="42.79965276" lon="13.45286096">
        <ele>310.00000</ele>
        <time>2024-03-21T12:42:34Z</time>
      </trkpt>
      <trkpt lat="42.79968788" lon="13.45283104">
        <ele>310.00000</ele>
        <time>2024-03-21T12:42:35Z</time>
      </trkpt>
      <trkpt lat="42.79972552" lon="13.45280178">
        <ele>309.00000</ele>
        <time>2024-03-21T12:42:36Z</time>
      </trkpt>
      <trkpt lat="42.79976491" lon="13.45277203">
        <ele>309.00000</ele>
        <time>2024-03-21T12:42:37Z</time>
      </trkpt>
      <trkpt lat="42.79980464" lon="13.45273892">
        <ele>309.00000</ele>
        <time>2024-03-21T12:42:38Z</time>
      </trkpt>
      <trkpt lat="42.79984211" lon="13.45270229">
        <ele>309.00000</ele>
        <time>2024-03-21T12:42:39Z</time>
      </trkpt>
      <trkpt lat="42.79987421" lon="13.45265535">
        <ele>309.00000</ele>
        <time>2024-03-21T12:42:40Z</time>
      </trkpt>
      <trkpt lat="42.79989860" lon="13.45259509">
        <ele>308.00000</ele>
        <time>2024-03-21T12:42:41Z</time>
      </trkpt>
      <trkpt lat="42.79990975" lon="13.45252878">
        <ele>308.00000</ele>
        <time>2024-03-21T12:42:42Z</time>
      </trkpt>
      <trkpt lat="42.79991269" lon="13.45246114">
        <ele>308.00000</ele>
        <time>2024-03-21T12:42:43Z</time>
      </trkpt>
      <trkpt lat="42.79991252" lon="13.45239719">
        <ele>309.00000</ele>
        <time>2024-03-21T12:42:44Z</time>
      </trkpt>
      <trkpt lat="42.79991252" lon="13.45233818">
        <ele>311.00000</ele>
        <time>2024-03-21T12:42:45Z</time>
      </trkpt>
      <trkpt lat="42.79992165" lon="13.45228252">
        <ele>312.00000</ele>
        <time>2024-03-21T12:42:46Z</time>
      </trkpt>
      <trkpt lat="42.79993473" lon="13.45223047">
        <ele>313.00000</ele>
        <time>2024-03-21T12:42:47Z</time>
      </trkpt>
      <trkpt lat="42.79994999" lon="13.45218949">
        <ele>313.00000</ele>
        <time>2024-03-21T12:42:48Z</time>
      </trkpt>
      <trkpt lat="42.79997019" lon="13.45215613">
        <ele>314.00000</ele>
        <time>2024-03-21T12:42:49Z</time>
      </trkpt>
      <trkpt lat="42.79999030" lon="13.45212385">
        <ele>315.00000</ele>
        <time>2024-03-21T12:42:50Z</time>
      </trkpt>
      <trkpt lat="42.80001084" lon="13.45209452">
        <ele>315.00000</ele>
        <time>2024-03-21T12:42:51Z</time>
      </trkpt>
      <trkpt lat="42.80003305" lon="13.45206761">
        <ele>316.00000</ele>
        <time>2024-03-21T12:42:52Z</time>
      </trkpt>
      <trkpt lat="42.80005057" lon="13.45204305">
        <ele>316.00000</ele>
        <time>2024-03-21T12:42:53Z</time>
      </trkpt>
      <trkpt lat="42.80006457" lon="13.45201715">
        <ele>316.00000</ele>
        <time>2024-03-21T12:42:54Z</time>
      </trkpt>
      <trkpt lat="42.80007856" lon="13.45199033">
        <ele>317.00000</ele>
        <time>2024-03-21T12:42:55Z</time>
      </trkpt>
      <trkpt lat="42.80009885" lon="13.45196510">
        <ele>317.00000</ele>
        <time>2024-03-21T12:42:56Z</time>
      </trkpt>
      <trkpt lat="42.80012207" lon="13.45194532">
        <ele>317.00000</ele>
        <time>2024-03-21T12:42:57Z</time>
      </trkpt>
      <trkpt lat="42.80013950" lon="13.45192680">
        <ele>317.00000</ele>
        <time>2024-03-21T12:42:58Z</time>
      </trkpt>
      <trkpt lat="42.80016272" lon="13.45190919">
        <ele>318.00000</ele>
        <time>2024-03-21T12:42:59Z</time>
      </trkpt>
      <trkpt lat="42.80018401" lon="13.45189059">
        <ele>318.00000</ele>
        <time>2024-03-21T12:43:00Z</time>
      </trkpt>
      <trkpt lat="42.80020245" lon="13.45186938">
        <ele>318.00000</ele>
        <time>2024-03-21T12:43:01Z</time>
      </trkpt>
      <trkpt lat="42.80021963" lon="13.45184868">
        <ele>319.00000</ele>
        <time>2024-03-21T12:43:02Z</time>
      </trkpt>
      <trkpt lat="42.80023422" lon="13.45182957">
        <ele>319.00000</ele>
        <time>2024-03-21T12:43:03Z</time>
      </trkpt>
      <trkpt lat="42.80024788" lon="13.45181029">
        <ele>320.00000</ele>
        <time>2024-03-21T12:43:04Z</time>
      </trkpt>
      <trkpt lat="42.80026649" lon="13.45179285">
        <ele>320.00000</ele>
        <time>2024-03-21T12:43:05Z</time>
      </trkpt>
      <trkpt lat="42.80028107" lon="13.45177567">
        <ele>320.00000</ele>
        <time>2024-03-21T12:43:06Z</time>
      </trkpt>
      <trkpt lat="42.80029851" lon="13.45175698">
        <ele>321.00000</ele>
        <time>2024-03-21T12:43:07Z</time>
      </trkpt>
      <trkpt lat="42.80031954" lon="13.45173636">
        <ele>321.00000</ele>
        <time>2024-03-21T12:43:08Z</time>
      </trkpt>
      <trkpt lat="42.80033840" lon="13.45171390">
        <ele>322.00000</ele>
        <time>2024-03-21T12:43:09Z</time>
      </trkpt>
      <trkpt lat="42.80035483" lon="13.45169579">
        <ele>322.00000</ele>
        <time>2024-03-21T12:43:10Z</time>
      </trkpt>
      <trkpt lat="42.80037973" lon="13.45167157">
        <ele>322.00000</ele>
        <time>2024-03-21T12:43:11Z</time>
      </trkpt>
      <trkpt lat="42.80040009" lon="13.45165397">
        <ele>322.00000</ele>
        <time>2024-03-21T12:43:12Z</time>
      </trkpt>
      <trkpt lat="42.80042088" lon="13.45163418">
        <ele>323.00000</ele>
        <time>2024-03-21T12:43:13Z</time>
      </trkpt>
      <trkpt lat="42.80043739" lon="13.45161616">
        <ele>323.00000</ele>
        <time>2024-03-21T12:43:14Z</time>
      </trkpt>
      <trkpt lat="42.80046078" lon="13.45159110">
        <ele>323.00000</ele>
        <time>2024-03-21T12:43:15Z</time>
      </trkpt>
      <trkpt lat="42.80048358" lon="13.45156755">
        <ele>323.00000</ele>
        <time>2024-03-21T12:43:16Z</time>
      </trkpt>
      <trkpt lat="42.80050260" lon="13.45154064">
        <ele>323.00000</ele>
        <time>2024-03-21T12:43:17Z</time>
      </trkpt>
      <trkpt lat="42.80051719" lon="13.45151592">
        <ele>324.00000</ele>
        <time>2024-03-21T12:43:18Z</time>
      </trkpt>
      <trkpt lat="42.80053068" lon="13.45149572">
        <ele>324.00000</ele>
        <time>2024-03-21T12:43:19Z</time>
      </trkpt>
      <trkpt lat="42.80055407" lon="13.45146755">
        <ele>324.00000</ele>
        <time>2024-03-21T12:43:20Z</time>
      </trkpt>
      <trkpt lat="42.80057561" lon="13.45144475">
        <ele>324.00000</ele>
        <time>2024-03-21T12:43:21Z</time>
      </trkpt>
      <trkpt lat="42.80059573" lon="13.45142388">
        <ele>325.00000</ele>
        <time>2024-03-21T12:43:22Z</time>
      </trkpt>
      <trkpt lat="42.80061333" lon="13.45140494">
        <ele>325.00000</ele>
        <time>2024-03-21T12:43:23Z</time>
      </trkpt>
      <trkpt lat="42.80063236" lon="13.45138759">
        <ele>325.00000</ele>
        <time>2024-03-21T12:43:24Z</time>
      </trkpt>
      <trkpt lat="42.80065289" lon="13.45137049">
        <ele>326.00000</ele>
        <time>2024-03-21T12:43:25Z</time>
      </trkpt>
      <trkpt lat="42.80067267" lon="13.45135590">
        <ele>326.00000</ele>
        <time>2024-03-21T12:43:26Z</time>
      </trkpt>
      <trkpt lat="42.80069153" lon="13.45134015">
        <ele>326.00000</ele>
        <time>2024-03-21T12:43:27Z</time>
      </trkpt>
      <trkpt lat="42.80071374" lon="13.45132288">
        <ele>326.00000</ele>
        <time>2024-03-21T12:43:28Z</time>
      </trkpt>
      <trkpt lat="42.80073654" lon="13.45130603">
        <ele>326.00000</ele>
        <time>2024-03-21T12:43:29Z</time>
      </trkpt>
      <trkpt lat="42.80075909" lon="13.45129069">
        <ele>327.00000</ele>
        <time>2024-03-21T12:43:30Z</time>
      </trkpt>
      <trkpt lat="42.80077929" lon="13.45127929">
        <ele>327.00000</ele>
        <time>2024-03-21T12:43:31Z</time>
      </trkpt>
      <trkpt lat="42.80079857" lon="13.45127041">
        <ele>327.00000</ele>
        <time>2024-03-21T12:43:32Z</time>
      </trkpt>
      <trkpt lat="42.80082053" lon="13.45125666">
        <ele>327.00000</ele>
        <time>2024-03-21T12:43:33Z</time>
      </trkpt>
      <trkpt lat="42.80084366" lon="13.45124660">
        <ele>327.00000</ele>
        <time>2024-03-21T12:43:34Z</time>
      </trkpt>
      <trkpt lat="42.80086906" lon="13.45124417">
        <ele>327.00000</ele>
        <time>2024-03-21T12:43:35Z</time>
      </trkpt>
      <trkpt lat="42.80089655" lon="13.45123319">
        <ele>327.00000</ele>
        <time>2024-03-21T12:43:36Z</time>
      </trkpt>
      <trkpt lat="42.80092455" lon="13.45122029">
        <ele>327.00000</ele>
        <time>2024-03-21T12:43:37Z</time>
      </trkpt>
      <trkpt lat="42.80095263" lon="13.45119724">
        <ele>328.00000</ele>
        <time>2024-03-21T12:43:38Z</time>
      </trkpt>
      <trkpt lat="42.80097803" lon="13.45116865">
        <ele>328.00000</ele>
        <time>2024-03-21T12:43:39Z</time>
      </trkpt>
      <trkpt lat="42.80099295" lon="13.45114250">
        <ele>329.00000</ele>
        <time>2024-03-21T12:43:40Z</time>
      </trkpt>
      <trkpt lat="42.80100451" lon="13.45111191">
        <ele>329.00000</ele>
        <time>2024-03-21T12:43:41Z</time>
      </trkpt>
      <trkpt lat="42.80099831" lon="13.45106924">
        <ele>331.00000</ele>
        <time>2024-03-21T12:43:42Z</time>
      </trkpt>
      <trkpt lat="42.80097995" lon="13.45104636">
        <ele>331.00000</ele>
        <time>2024-03-21T12:43:43Z</time>
      </trkpt>
      <trkpt lat="42.80095422" lon="13.45102784">
        <ele>332.00000</ele>
        <time>2024-03-21T12:43:44Z</time>
      </trkpt>
      <trkpt lat="42.80092287" lon="13.45101417">
        <ele>332.00000</ele>
        <time>2024-03-21T12:43:45Z</time>
      </trkpt>
      <trkpt lat="42.80089572" lon="13.45101091">
        <ele>332.00000</ele>
        <time>2024-03-21T12:43:46Z</time>
      </trkpt>
      <trkpt lat="42.80086873" lon="13.45101593">
        <ele>332.00000</ele>
        <time>2024-03-21T12:43:47Z</time>
      </trkpt>
      <trkpt lat="42.80084492" lon="13.45102046">
        <ele>332.00000</ele>
        <time>2024-03-21T12:43:48Z</time>
      </trkpt>
      <trkpt lat="42.80081885" lon="13.45103052">
        <ele>332.00000</ele>
        <time>2024-03-21T12:43:49Z</time>
      </trkpt>
      <trkpt lat="42.80078248" lon="13.45104133">
        <ele>332.00000</ele>
        <time>2024-03-21T12:43:50Z</time>
      </trkpt>
      <trkpt lat="42.80075171" lon="13.45104695">
        <ele>332.00000</ele>
        <time>2024-03-21T12:43:51Z</time>
      </trkpt>
      <trkpt lat="42.80072179" lon="13.45105969">
        <ele>332.00000</ele>
        <time>2024-03-21T12:43:52Z</time>
      </trkpt>
      <trkpt lat="42.80069002" lon="13.45107142">
        <ele>332.00000</ele>
        <time>2024-03-21T12:43:53Z</time>
      </trkpt>
      <trkpt lat="42.80066261" lon="13.45107972">
        <ele>332.00000</ele>
        <time>2024-03-21T12:43:54Z</time>
      </trkpt>
      <trkpt lat="42.80063848" lon="13.45108936">
        <ele>332.00000</ele>
        <time>2024-03-21T12:43:55Z</time>
      </trkpt>
      <trkpt lat="42.80061006" lon="13.45109975">
        <ele>331.00000</ele>
        <time>2024-03-21T12:43:56Z</time>
      </trkpt>
      <trkpt lat="42.80058332" lon="13.45110730">
        <ele>331.00000</ele>
        <time>2024-03-21T12:43:57Z</time>
      </trkpt>
      <trkpt lat="42.80055105" lon="13.45111476">
        <ele>331.00000</ele>
        <time>2024-03-21T12:43:58Z</time>
      </trkpt>
      <trkpt lat="42.80051258" lon="13.45112222">
        <ele>332.00000</ele>
        <time>2024-03-21T12:43:59Z</time>
      </trkpt>
      <trkpt lat="42.80048106" lon="13.45113504">
        <ele>332.00000</ele>
        <time>2024-03-21T12:44:00Z</time>
      </trkpt>
      <trkpt lat="42.80044686" lon="13.45115524">
        <ele>331.00000</ele>
        <time>2024-03-21T12:44:01Z</time>
      </trkpt>
      <trkpt lat="42.80041501" lon="13.45117175">
        <ele>331.00000</ele>
        <time>2024-03-21T12:44:02Z</time>
      </trkpt>
      <trkpt lat="42.80037386" lon="13.45119070">
        <ele>331.00000</ele>
        <time>2024-03-21T12:44:03Z</time>
      </trkpt>
      <trkpt lat="42.80032692" lon="13.45120947">
        <ele>332.00000</ele>
        <time>2024-03-21T12:44:04Z</time>
      </trkpt>
      <trkpt lat="42.80028727" lon="13.45122976">
        <ele>332.00000</ele>
        <time>2024-03-21T12:44:05Z</time>
      </trkpt>
      <trkpt lat="42.80024612" lon="13.45124107">
        <ele>332.00000</ele>
        <time>2024-03-21T12:44:06Z</time>
      </trkpt>
      <trkpt lat="42.80020161" lon="13.45123822">
        <ele>332.00000</ele>
        <time>2024-03-21T12:44:07Z</time>
      </trkpt>
      <trkpt lat="42.80015995" lon="13.45121341">
        <ele>332.00000</ele>
        <time>2024-03-21T12:44:08Z</time>
      </trkpt>
      <trkpt lat="42.80012466" lon="13.45117276">
        <ele>333.00000</ele>
        <time>2024-03-21T12:44:09Z</time>
      </trkpt>
      <trkpt lat="42.80009851" lon="13.45111727">
        <ele>333.00000</ele>
        <time>2024-03-21T12:44:10Z</time>
      </trkpt>
      <trkpt lat="42.80007722" lon="13.45105315">
        <ele>334.00000</ele>
        <time>2024-03-21T12:44:11Z</time>
      </trkpt>
      <trkpt lat="42.80006188" lon="13.45097998">
        <ele>334.00000</ele>
        <time>2024-03-21T12:44:12Z</time>
      </trkpt>
      <trkpt lat="42.80004613" lon="13.45089993">
        <ele>334.00000</ele>
        <time>2024-03-21T12:44:13Z</time>
      </trkpt>
      <trkpt lat="42.80002517" lon="13.45081485">
        <ele>334.00000</ele>
        <time>2024-03-21T12:44:14Z</time>
      </trkpt>
      <trkpt lat="42.80000531" lon="13.45072399">
        <ele>333.00000</ele>
        <time>2024-03-21T12:44:15Z</time>
      </trkpt>
      <trkpt lat="42.79999248" lon="13.45062827">
        <ele>333.00000</ele>
        <time>2024-03-21T12:44:16Z</time>
      </trkpt>
      <trkpt lat="42.79998946" lon="13.45054454">
        <ele>332.00000</ele>
        <time>2024-03-21T12:44:17Z</time>
      </trkpt>
      <trkpt lat="42.79999257" lon="13.45041235">
        <ele>330.00000</ele>
        <time>2024-03-21T12:44:18Z</time>
      </trkpt>
      <trkpt lat="42.80000346" lon="13.45029744">
        <ele>329.00000</ele>
        <time>2024-03-21T12:44:19Z</time>
      </trkpt>
      <trkpt lat="42.80001402" lon="13.45017582">
        <ele>328.00000</ele>
        <time>2024-03-21T12:44:20Z</time>
      </trkpt>
      <trkpt lat="42.80002760" lon="13.45007146">
        <ele>328.00000</ele>
        <time>2024-03-21T12:44:21Z</time>
      </trkpt>
      <trkpt lat="42.80005032" lon="13.44993584">
        <ele>328.00000</ele>
        <time>2024-03-21T12:44:22Z</time>
      </trkpt>
      <trkpt lat="42.80008150" lon="13.44977089">
        <ele>329.00000</ele>
        <time>2024-03-21T12:44:23Z</time>
      </trkpt>
      <trkpt lat="42.80010346" lon="13.44963083">
        <ele>330.00000</ele>
        <time>2024-03-21T12:44:24Z</time>
      </trkpt>
      <trkpt lat="42.80011461" lon="13.44951977">
        <ele>332.00000</ele>
        <time>2024-03-21T12:44:25Z</time>
      </trkpt>
      <trkpt lat="42.80011293" lon="13.44938649">
        <ele>334.00000</ele>
        <time>2024-03-21T12:44:26Z</time>
      </trkpt>
      <trkpt lat="42.80007714" lon="13.44925196">
        <ele>338.00000</ele>
        <time>2024-03-21T12:44:27Z</time>
      </trkpt>
      <trkpt lat="42.80002215" lon="13.44917032">
        <ele>339.00000</ele>
        <time>2024-03-21T12:44:28Z</time>
      </trkpt>
      <trkpt lat="42.79995962" lon="13.44911182">
        <ele>340.00000</ele>
        <time>2024-03-21T12:44:29Z</time>
      </trkpt>
      <trkpt lat="42.79989710" lon="13.44907158">
        <ele>341.00000</ele>
        <time>2024-03-21T12:44:30Z</time>
      </trkpt>
      <trkpt lat="42.79983909" lon="13.44904384">
        <ele>341.00000</ele>
        <time>2024-03-21T12:44:31Z</time>
      </trkpt>
      <trkpt lat="42.79978721" lon="13.44902012">
        <ele>340.00000</ele>
        <time>2024-03-21T12:44:32Z</time>
      </trkpt>
      <trkpt lat="42.79974471" lon="13.44899380">
        <ele>341.00000</ele>
        <time>2024-03-21T12:44:33Z</time>
      </trkpt>
      <trkpt lat="42.79970875" lon="13.44896413">
        <ele>341.00000</ele>
        <time>2024-03-21T12:44:34Z</time>
      </trkpt>
      <trkpt lat="42.79968109" lon="13.44893940">
        <ele>340.00000</ele>
        <time>2024-03-21T12:44:35Z</time>
      </trkpt>
      <trkpt lat="42.79964296" lon="13.44890512">
        <ele>340.00000</ele>
        <time>2024-03-21T12:44:36Z</time>
      </trkpt>
      <trkpt lat="42.79961278" lon="13.44888106">
        <ele>340.00000</ele>
        <time>2024-03-21T12:44:37Z</time>
      </trkpt>
      <trkpt lat="42.79958370" lon="13.44886338">
        <ele>339.00000</ele>
        <time>2024-03-21T12:44:38Z</time>
      </trkpt>
      <trkpt lat="42.79955830" lon="13.44884444">
        <ele>339.00000</ele>
        <time>2024-03-21T12:44:39Z</time>
      </trkpt>
      <trkpt lat="42.79953466" lon="13.44882440">
        <ele>339.00000</ele>
        <time>2024-03-21T12:44:40Z</time>
      </trkpt>
      <trkpt lat="42.79951270" lon="13.44880244">
        <ele>338.00000</ele>
        <time>2024-03-21T12:44:41Z</time>
      </trkpt>
      <trkpt lat="42.79949041" lon="13.44878165">
        <ele>338.00000</ele>
        <time>2024-03-21T12:44:42Z</time>
      </trkpt>
      <trkpt lat="42.79946811" lon="13.44876162">
        <ele>338.00000</ele>
        <time>2024-03-21T12:44:43Z</time>
      </trkpt>
      <trkpt lat="42.79944540" lon="13.44873991">
        <ele>337.00000</ele>
        <time>2024-03-21T12:44:44Z</time>
      </trkpt>
      <trkpt lat="42.79942670" lon="13.44872022">
        <ele>337.00000</ele>
        <time>2024-03-21T12:44:45Z</time>
      </trkpt>
      <trkpt lat="42.79941388" lon="13.44869482">
        <ele>337.00000</ele>
        <time>2024-03-21T12:44:46Z</time>
      </trkpt>
      <trkpt lat="42.79940575" lon="13.44866557">
        <ele>337.00000</ele>
        <time>2024-03-21T12:44:47Z</time>
      </trkpt>
      <trkpt lat="42.79940399" lon="13.44863916">
        <ele>338.00000</ele>
        <time>2024-03-21T12:44:48Z</time>
      </trkpt>
      <trkpt lat="42.79940860" lon="13.44861947">
        <ele>338.00000</ele>
        <time>2024-03-21T12:44:49Z</time>
      </trkpt>
      <trkpt lat="42.79941690" lon="13.44858996">
        <ele>338.00000</ele>
        <time>2024-03-21T12:44:50Z</time>
      </trkpt>
      <trkpt lat="42.79942905" lon="13.44856758">
        <ele>338.00000</ele>
        <time>2024-03-21T12:44:51Z</time>
      </trkpt>
      <trkpt lat="42.79944791" lon="13.44854487">
        <ele>339.00000</ele>
        <time>2024-03-21T12:44:52Z</time>
      </trkpt>
      <trkpt lat="42.79946962" lon="13.44852517">
        <ele>340.00000</ele>
        <time>2024-03-21T12:44:53Z</time>
      </trkpt>
      <trkpt lat="42.79949015" lon="13.44850514">
        <ele>340.00000</ele>
        <time>2024-03-21T12:44:54Z</time>
      </trkpt>
      <trkpt lat="42.79951069" lon="13.44848703">
        <ele>341.00000</ele>
        <time>2024-03-21T12:44:55Z</time>
      </trkpt>
      <trkpt lat="42.79953072" lon="13.44847236">
        <ele>342.00000</ele>
        <time>2024-03-21T12:44:56Z</time>
      </trkpt>
      <trkpt lat="42.79955419" lon="13.44845702">
        <ele>343.00000</ele>
        <time>2024-03-21T12:44:57Z</time>
      </trkpt>
      <trkpt lat="42.79957816" lon="13.44843825">
        <ele>344.00000</ele>
        <time>2024-03-21T12:44:58Z</time>
      </trkpt>
      <trkpt lat="42.79960306" lon="13.44841646">
        <ele>345.00000</ele>
        <time>2024-03-21T12:44:59Z</time>
      </trkpt>
      <trkpt lat="42.79962603" lon="13.44839399">
        <ele>346.00000</ele>
        <time>2024-03-21T12:45:00Z</time>
      </trkpt>
      <trkpt lat="42.79964505" lon="13.44836843">
        <ele>347.00000</ele>
        <time>2024-03-21T12:45:01Z</time>
      </trkpt>
      <trkpt lat="42.79966450" lon="13.44834320">
        <ele>348.00000</ele>
        <time>2024-03-21T12:45:02Z</time>
      </trkpt>
      <trkpt lat="42.79968612" lon="13.44831906">
        <ele>349.00000</ele>
        <time>2024-03-21T12:45:03Z</time>
      </trkpt>
      <trkpt lat="42.79970683" lon="13.44829693">
        <ele>349.00000</ele>
        <time>2024-03-21T12:45:04Z</time>
      </trkpt>
      <trkpt lat="42.79972812" lon="13.44827287">
        <ele>350.00000</ele>
        <time>2024-03-21T12:45:05Z</time>
      </trkpt>
      <trkpt lat="42.79975309" lon="13.44824806">
        <ele>351.00000</ele>
        <time>2024-03-21T12:45:06Z</time>
      </trkpt>
      <trkpt lat="42.79977623" lon="13.44822091">
        <ele>351.00000</ele>
        <time>2024-03-21T12:45:07Z</time>
      </trkpt>
      <trkpt lat="42.79979165" lon="13.44820079">
        <ele>351.00000</ele>
        <time>2024-03-21T12:45:08Z</time>
      </trkpt>
      <trkpt lat="42.79981428" lon="13.44816952">
        <ele>352.00000</ele>
        <time>2024-03-21T12:45:09Z</time>
      </trkpt>
      <trkpt lat="42.79983314" lon="13.44814404">
        <ele>352.00000</ele>
        <time>2024-03-21T12:45:10Z</time>
      </trkpt>
      <trkpt lat="42.79985276" lon="13.44811823">
        <ele>353.00000</ele>
        <time>2024-03-21T12:45:11Z</time>
      </trkpt>
      <trkpt lat="42.79986818" lon="13.44809509">
        <ele>353.00000</ele>
        <time>2024-03-21T12:45:12Z</time>
      </trkpt>
      <trkpt lat="42.79988930" lon="13.44806039">
        <ele>354.00000</ele>
        <time>2024-03-21T12:45:13Z</time>
      </trkpt>
      <trkpt lat="42.79990984" lon="13.44803768">
        <ele>354.00000</ele>
        <time>2024-03-21T12:45:14Z</time>
      </trkpt>
      <trkpt lat="42.79992945" lon="13.44801538">
        <ele>354.00000</ele>
        <time>2024-03-21T12:45:15Z</time>
      </trkpt>
      <trkpt lat="42.79994655" lon="13.44799107">
        <ele>354.00000</ele>
        <time>2024-03-21T12:45:16Z</time>
      </trkpt>
      <trkpt lat="42.79996004" lon="13.44797096">
        <ele>353.00000</ele>
        <time>2024-03-21T12:45:17Z</time>
      </trkpt>
      <trkpt lat="42.79998452" lon="13.44794036">
        <ele>353.00000</ele>
        <time>2024-03-21T12:45:18Z</time>
      </trkpt>
      <trkpt lat="42.80000522" lon="13.44791664">
        <ele>353.00000</ele>
        <time>2024-03-21T12:45:19Z</time>
      </trkpt>
      <trkpt lat="42.80002567" lon="13.44789192">
        <ele>353.00000</ele>
        <time>2024-03-21T12:45:20Z</time>
      </trkpt>
      <trkpt lat="42.80004504" lon="13.44786912">
        <ele>352.00000</ele>
        <time>2024-03-21T12:45:21Z</time>
      </trkpt>
      <trkpt lat="42.80007270" lon="13.44784012">
        <ele>352.00000</ele>
        <time>2024-03-21T12:45:22Z</time>
      </trkpt>
      <trkpt lat="42.80009843" lon="13.44782662">
        <ele>352.00000</ele>
        <time>2024-03-21T12:45:23Z</time>
      </trkpt>
      <trkpt lat="42.80012466" lon="13.44781355">
        <ele>352.00000</ele>
        <time>2024-03-21T12:45:24Z</time>
      </trkpt>
      <trkpt lat="42.80015308" lon="13.44779049">
        <ele>352.00000</ele>
        <time>2024-03-21T12:45:25Z</time>
      </trkpt>
      <trkpt lat="42.80018175" lon="13.44776426">
        <ele>351.00000</ele>
        <time>2024-03-21T12:45:26Z</time>
      </trkpt>
      <trkpt lat="42.80020932" lon="13.44774171">
        <ele>351.00000</ele>
        <time>2024-03-21T12:45:27Z</time>
      </trkpt>
      <trkpt lat="42.80023539" lon="13.44771640">
        <ele>351.00000</ele>
        <time>2024-03-21T12:45:28Z</time>
      </trkpt>
      <trkpt lat="42.80026204" lon="13.44769159">
        <ele>351.00000</ele>
        <time>2024-03-21T12:45:29Z</time>
      </trkpt>
      <trkpt lat="42.80028853" lon="13.44766963">
        <ele>351.00000</ele>
        <time>2024-03-21T12:45:30Z</time>
      </trkpt>
      <trkpt lat="42.80031435" lon="13.44764666">
        <ele>350.00000</ele>
        <time>2024-03-21T12:45:31Z</time>
      </trkpt>
      <trkpt lat="42.80034435" lon="13.44762244">
        <ele>350.00000</ele>
        <time>2024-03-21T12:45:32Z</time>
      </trkpt>
      <trkpt lat="42.80037478" lon="13.44760023">
        <ele>350.00000</ele>
        <time>2024-03-21T12:45:33Z</time>
      </trkpt>
      <trkpt lat="42.80040571" lon="13.44758614">
        <ele>350.00000</ele>
        <time>2024-03-21T12:45:34Z</time>
      </trkpt>
      <trkpt lat="42.80043798" lon="13.44757927">
        <ele>350.00000</ele>
        <time>2024-03-21T12:45:35Z</time>
      </trkpt>
      <trkpt lat="42.80047478" lon="13.44758371">
        <ele>350.00000</ele>
        <time>2024-03-21T12:45:36Z</time>
      </trkpt>
      <trkpt lat="42.80051677" lon="13.44759469">
        <ele>351.00000</ele>
        <time>2024-03-21T12:45:37Z</time>
      </trkpt>
      <trkpt lat="42.80055851" lon="13.44760777">
        <ele>351.00000</ele>
        <time>2024-03-21T12:45:38Z</time>
      </trkpt>
      <trkpt lat="42.80060327" lon="13.44762520">
        <ele>352.00000</ele>
        <time>2024-03-21T12:45:39Z</time>
      </trkpt>
      <trkpt lat="42.80064200" lon="13.44763602">
        <ele>353.00000</ele>
        <time>2024-03-21T12:45:40Z</time>
      </trkpt>
      <trkpt lat="42.80069975" lon="13.44765312">
        <ele>353.00000</ele>
        <time>2024-03-21T12:45:41Z</time>
      </trkpt>
      <trkpt lat="42.80075079" lon="13.44765840">
        <ele>354.00000</ele>
        <time>2024-03-21T12:45:42Z</time>
      </trkpt>
      <trkpt lat="42.80080402" lon="13.44766083">
        <ele>354.00000</ele>
        <time>2024-03-21T12:45:43Z</time>
      </trkpt>
      <trkpt lat="42.80085448" lon="13.44767239">
        <ele>354.00000</ele>
        <time>2024-03-21T12:45:44Z</time>
      </trkpt>
      <trkpt lat="42.80090728" lon="13.44768354">
        <ele>355.00000</ele>
        <time>2024-03-21T12:45:45Z</time>
      </trkpt>
      <trkpt lat="42.80095933" lon="13.44769150">
        <ele>355.00000</ele>
        <time>2024-03-21T12:45:46Z</time>
      </trkpt>
      <trkpt lat="42.80100644" lon="13.44770190">
        <ele>355.00000</ele>
        <time>2024-03-21T12:45:47Z</time>
      </trkpt>
      <trkpt lat="42.80105221" lon="13.44771246">
        <ele>356.00000</ele>
        <time>2024-03-21T12:45:48Z</time>
      </trkpt>
      <trkpt lat="42.80109688" lon="13.44772361">
        <ele>356.00000</ele>
        <time>2024-03-21T12:45:49Z</time>
      </trkpt>
      <trkpt lat="42.80114172" lon="13.44774330">
        <ele>356.00000</ele>
        <time>2024-03-21T12:45:50Z</time>
      </trkpt>
      <trkpt lat="42.80118799" lon="13.44774967">
        <ele>356.00000</ele>
        <time>2024-03-21T12:45:51Z</time>
      </trkpt>
      <trkpt lat="42.80123476" lon="13.44776392">
        <ele>356.00000</ele>
        <time>2024-03-21T12:45:52Z</time>
      </trkpt>
      <trkpt lat="42.80128858" lon="13.44778019">
        <ele>357.00000</ele>
        <time>2024-03-21T12:45:53Z</time>
      </trkpt>
      <trkpt lat="42.80133987" lon="13.44778697">
        <ele>357.00000</ele>
        <time>2024-03-21T12:45:54Z</time>
      </trkpt>
      <trkpt lat="42.80139234" lon="13.44778387">
        <ele>357.00000</ele>
        <time>2024-03-21T12:45:55Z</time>
      </trkpt>
      <trkpt lat="42.80144565" lon="13.44778060">
        <ele>357.00000</ele>
        <time>2024-03-21T12:45:56Z</time>
      </trkpt>
      <trkpt lat="42.80150625" lon="13.44776501">
        <ele>358.00000</ele>
        <time>2024-03-21T12:45:57Z</time>
      </trkpt>
      <trkpt lat="42.80156618" lon="13.44774087">
        <ele>358.00000</ele>
        <time>2024-03-21T12:45:58Z</time>
      </trkpt>
      <trkpt lat="42.80163383" lon="13.44770433">
        <ele>359.00000</ele>
        <time>2024-03-21T12:45:59Z</time>
      </trkpt>
      <trkpt lat="42.80169099" lon="13.44767415">
        <ele>359.00000</ele>
        <time>2024-03-21T12:46:00Z</time>
      </trkpt>
      <trkpt lat="42.80174413" lon="13.44764976">
        <ele>360.00000</ele>
        <time>2024-03-21T12:46:01Z</time>
      </trkpt>
      <trkpt lat="42.80178956" lon="13.44761766">
        <ele>360.00000</ele>
        <time>2024-03-21T12:46:02Z</time>
      </trkpt>
      <trkpt lat="42.80184262" lon="13.44758153">
        <ele>361.00000</ele>
        <time>2024-03-21T12:46:03Z</time>
      </trkpt>
      <trkpt lat="42.80189710" lon="13.44754440">
        <ele>361.00000</ele>
        <time>2024-03-21T12:46:04Z</time>
      </trkpt>
      <trkpt lat="42.80195594" lon="13.44750224">
        <ele>362.00000</ele>
        <time>2024-03-21T12:46:05Z</time>
      </trkpt>
      <trkpt lat="42.80200389" lon="13.44747642">
        <ele>363.00000</ele>
        <time>2024-03-21T12:46:06Z</time>
      </trkpt>
      <trkpt lat="42.80204655" lon="13.44745899">
        <ele>363.00000</ele>
        <time>2024-03-21T12:46:07Z</time>
      </trkpt>
      <trkpt lat="42.80209181" lon="13.44745069">
        <ele>364.00000</ele>
        <time>2024-03-21T12:46:08Z</time>
      </trkpt>
      <trkpt lat="42.80213221" lon="13.44743971">
        <ele>365.00000</ele>
        <time>2024-03-21T12:46:09Z</time>
      </trkpt>
      <trkpt lat="42.80217044" lon="13.44743602">
        <ele>365.00000</ele>
        <time>2024-03-21T12:46:10Z</time>
      </trkpt>
      <trkpt lat="42.80221201" lon="13.44744290">
        <ele>365.00000</ele>
        <time>2024-03-21T12:46:11Z</time>
      </trkpt>
      <trkpt lat="42.80224981" lon="13.44743167">
        <ele>366.00000</ele>
        <time>2024-03-21T12:46:12Z</time>
      </trkpt>
      <trkpt lat="42.80228879" lon="13.44741473">
        <ele>367.00000</ele>
        <time>2024-03-21T12:46:13Z</time>
      </trkpt>
      <trkpt lat="42.80232433" lon="13.44740023">
        <ele>368.00000</ele>
        <time>2024-03-21T12:46:14Z</time>
      </trkpt>
      <trkpt lat="42.80235928" lon="13.44739168">
        <ele>368.00000</ele>
        <time>2024-03-21T12:46:15Z</time>
      </trkpt>
      <trkpt lat="42.80239515" lon="13.44738850">
        <ele>369.00000</ele>
        <time>2024-03-21T12:46:16Z</time>
      </trkpt>
      <trkpt lat="42.80243430" lon="13.44737442">
        <ele>369.00000</ele>
        <time>2024-03-21T12:46:17Z</time>
      </trkpt>
      <trkpt lat="42.80247579" lon="13.44733871">
        <ele>371.00000</ele>
        <time>2024-03-21T12:46:18Z</time>
      </trkpt>
      <trkpt lat="42.80251401" lon="13.44729118">
        <ele>372.00000</ele>
        <time>2024-03-21T12:46:19Z</time>
      </trkpt>
      <trkpt lat="42.80253848" lon="13.44724676">
        <ele>372.00000</ele>
        <time>2024-03-21T12:46:20Z</time>
      </trkpt>
      <trkpt lat="42.80254988" lon="13.44719823">
        <ele>373.00000</ele>
        <time>2024-03-21T12:46:21Z</time>
      </trkpt>
      <trkpt lat="42.80254175" lon="13.44714886">
        <ele>375.00000</ele>
        <time>2024-03-21T12:46:22Z</time>
      </trkpt>
      <trkpt lat="42.80251845" lon="13.44711064">
        <ele>376.00000</ele>
        <time>2024-03-21T12:46:23Z</time>
      </trkpt>
      <trkpt lat="42.80248945" lon="13.44708818">
        <ele>376.00000</ele>
        <time>2024-03-21T12:46:24Z</time>
      </trkpt>
      <trkpt lat="42.80245894" lon="13.44707652">
        <ele>376.00000</ele>
        <time>2024-03-21T12:46:25Z</time>
      </trkpt>
      <trkpt lat="42.80243296" lon="13.44706278">
        <ele>377.00000</ele>
        <time>2024-03-21T12:46:26Z</time>
      </trkpt>
      <trkpt lat="42.80241209" lon="13.44704719">
        <ele>377.00000</ele>
        <time>2024-03-21T12:46:27Z</time>
      </trkpt>
      <trkpt lat="42.80238929" lon="13.44703746">
        <ele>377.00000</ele>
        <time>2024-03-21T12:46:28Z</time>
      </trkpt>
      <trkpt lat="42.80236674" lon="13.44703269">
        <ele>377.00000</ele>
        <time>2024-03-21T12:46:29Z</time>
      </trkpt>
      <trkpt lat="42.80234377" lon="13.44703168">
        <ele>377.00000</ele>
        <time>2024-03-21T12:46:30Z</time>
      </trkpt>
      <trkpt lat="42.80232014" lon="13.44703118">
        <ele>377.00000</ele>
        <time>2024-03-21T12:46:31Z</time>
      </trkpt>
      <trkpt lat="42.80229415" lon="13.44702632">
        <ele>377.00000</ele>
        <time>2024-03-21T12:46:32Z</time>
      </trkpt>
      <trkpt lat="42.80227018" lon="13.44701861">
        <ele>378.00000</ele>
        <time>2024-03-21T12:46:33Z</time>
      </trkpt>
      <trkpt lat="42.80224537" lon="13.44701098">
        <ele>378.00000</ele>
        <time>2024-03-21T12:46:34Z</time>
      </trkpt>
      <trkpt lat="42.80221955" lon="13.44700444">
        <ele>378.00000</ele>
        <time>2024-03-21T12:46:35Z</time>
      </trkpt>
      <trkpt lat="42.80219533" lon="13.44700402">
        <ele>378.00000</ele>
        <time>2024-03-21T12:46:36Z</time>
      </trkpt>
      <trkpt lat="42.80217127" lon="13.44700603">
        <ele>377.00000</ele>
        <time>2024-03-21T12:46:37Z</time>
      </trkpt>
      <trkpt lat="42.80214839" lon="13.44701316">
        <ele>377.00000</ele>
        <time>2024-03-21T12:46:38Z</time>
      </trkpt>
      <trkpt lat="42.80212794" lon="13.44701861">
        <ele>376.00000</ele>
        <time>2024-03-21T12:46:39Z</time>
      </trkpt>
      <trkpt lat="42.80211143" lon="13.44702045">
        <ele>376.00000</ele>
        <time>2024-03-21T12:46:40Z</time>
      </trkpt>
      <trkpt lat="42.80208561" lon="13.44702162">
        <ele>376.00000</ele>
        <time>2024-03-21T12:46:41Z</time>
      </trkpt>
      <trkpt lat="42.80206013" lon="13.44702749">
        <ele>375.00000</ele>
        <time>2024-03-21T12:46:42Z</time>
      </trkpt>
      <trkpt lat="42.80203733" lon="13.44703126">
        <ele>375.00000</ele>
        <time>2024-03-21T12:46:43Z</time>
      </trkpt>
      <trkpt lat="42.80201135" lon="13.44703688">
        <ele>374.00000</ele>
        <time>2024-03-21T12:46:44Z</time>
      </trkpt>
      <trkpt lat="42.80198452" lon="13.44704710">
        <ele>374.00000</ele>
        <time>2024-03-21T12:46:45Z</time>
      </trkpt>
      <trkpt lat="42.80195862" lon="13.44705264">
        <ele>373.00000</ele>
        <time>2024-03-21T12:46:46Z</time>
      </trkpt>
      <trkpt lat="42.80193281" lon="13.44705607">
        <ele>373.00000</ele>
        <time>2024-03-21T12:46:47Z</time>
      </trkpt>
      <trkpt lat="42.80190406" lon="13.44705104">
        <ele>373.00000</ele>
        <time>2024-03-21T12:46:48Z</time>
      </trkpt>
      <trkpt lat="42.80187346" lon="13.44704635">
        <ele>373.00000</ele>
        <time>2024-03-21T12:46:49Z</time>
      </trkpt>
      <trkpt lat="42.80184295" lon="13.44704853">
        <ele>372.00000</ele>
        <time>2024-03-21T12:46:50Z</time>
      </trkpt>
      <trkpt lat="42.80181169" lon="13.44705205">
        <ele>372.00000</ele>
        <time>2024-03-21T12:46:51Z</time>
      </trkpt>
      <trkpt lat="42.80178378" lon="13.44705104">
        <ele>372.00000</ele>
        <time>2024-03-21T12:46:52Z</time>
      </trkpt>
      <trkpt lat="42.80175972" lon="13.44704643">
        <ele>372.00000</ele>
        <time>2024-03-21T12:46:53Z</time>
      </trkpt>
      <trkpt lat="42.80173106" lon="13.44703948">
        <ele>372.00000</ele>
        <time>2024-03-21T12:46:54Z</time>
      </trkpt>
      <trkpt lat="42.80169686" lon="13.44702724">
        <ele>372.00000</ele>
        <time>2024-03-21T12:46:55Z</time>
      </trkpt>
      <trkpt lat="42.80166551" lon="13.44701374">
        <ele>373.00000</ele>
        <time>2024-03-21T12:46:56Z</time>
      </trkpt>
      <trkpt lat="42.80163232" lon="13.44698742">
        <ele>374.00000</ele>
        <time>2024-03-21T12:46:57Z</time>
      </trkpt>
      <trkpt lat="42.80160139" lon="13.44696111">
        <ele>375.00000</ele>
        <time>2024-03-21T12:46:58Z</time>
      </trkpt>
      <trkpt lat="42.80157457" lon="13.44692992">
        <ele>376.00000</ele>
        <time>2024-03-21T12:46:59Z</time>
      </trkpt>
      <trkpt lat="42.80155244" lon="13.44689497">
        <ele>376.00000</ele>
        <time>2024-03-21T12:47:00Z</time>
      </trkpt>
      <trkpt lat="42.80152981" lon="13.44685994">
        <ele>377.00000</ele>
        <time>2024-03-21T12:47:01Z</time>
      </trkpt>
      <trkpt lat="42.80150508" lon="13.44682674">
        <ele>378.00000</ele>
        <time>2024-03-21T12:47:02Z</time>
      </trkpt>
      <trkpt lat="42.80147893" lon="13.44679808">
        <ele>378.00000</ele>
        <time>2024-03-21T12:47:03Z</time>
      </trkpt>
      <trkpt lat="42.80145051" lon="13.44676665">
        <ele>379.00000</ele>
        <time>2024-03-21T12:47:04Z</time>
      </trkpt>
      <trkpt lat="42.80142629" lon="13.44673253">
        <ele>380.00000</ele>
        <time>2024-03-21T12:47:05Z</time>
      </trkpt>
      <trkpt lat="42.80140257" lon="13.44670194">
        <ele>380.00000</ele>
        <time>2024-03-21T12:47:06Z</time>
      </trkpt>
      <trkpt lat="42.80137960" lon="13.44667897">
        <ele>380.00000</ele>
        <time>2024-03-21T12:47:07Z</time>
      </trkpt>
      <trkpt lat="42.80135354" lon="13.44665927">
        <ele>380.00000</ele>
        <time>2024-03-21T12:47:08Z</time>
      </trkpt>
      <trkpt lat="42.80132814" lon="13.44663346">
        <ele>380.00000</ele>
        <time>2024-03-21T12:47:09Z</time>
      </trkpt>
      <trkpt lat="42.80130249" lon="13.44661208">
        <ele>379.00000</ele>
        <time>2024-03-21T12:47:10Z</time>
      </trkpt>
      <trkpt lat="42.80127290" lon="13.44659792">
        <ele>379.00000</ele>
        <time>2024-03-21T12:47:11Z</time>
      </trkpt>
      <trkpt lat="42.80124826" lon="13.44658157">
        <ele>378.00000</ele>
        <time>2024-03-21T12:47:12Z</time>
      </trkpt>
      <trkpt lat="42.80122261" lon="13.44656690">
        <ele>378.00000</ele>
        <time>2024-03-21T12:47:13Z</time>
      </trkpt>
      <trkpt lat="42.80119713" lon="13.44654746">
        <ele>377.00000</ele>
        <time>2024-03-21T12:47:14Z</time>
      </trkpt>
      <trkpt lat="42.80117668" lon="13.44652784">
        <ele>377.00000</ele>
        <time>2024-03-21T12:47:15Z</time>
      </trkpt>
      <trkpt lat="42.80115916" lon="13.44650580">
        <ele>377.00000</ele>
        <time>2024-03-21T12:47:16Z</time>
      </trkpt>
      <trkpt lat="42.80114340" lon="13.44648535">
        <ele>377.00000</ele>
        <time>2024-03-21T12:47:17Z</time>
      </trkpt>
      <trkpt lat="42.80113368" lon="13.44645702">
        <ele>377.00000</ele>
        <time>2024-03-21T12:47:18Z</time>
      </trkpt>
      <trkpt lat="42.80112672" lon="13.44642215">
        <ele>377.00000</ele>
        <time>2024-03-21T12:47:19Z</time>
      </trkpt>
      <trkpt lat="42.80112697" lon="13.44638812">
        <ele>377.00000</ele>
        <time>2024-03-21T12:47:20Z</time>
      </trkpt>
      <trkpt lat="42.80113653" lon="13.44635669">
        <ele>377.00000</ele>
        <time>2024-03-21T12:47:21Z</time>
      </trkpt>
      <trkpt lat="42.80115514" lon="13.44632660">
        <ele>377.00000</ele>
        <time>2024-03-21T12:47:22Z</time>
      </trkpt>
      <trkpt lat="42.80117785" lon="13.44629843">
        <ele>378.00000</ele>
        <time>2024-03-21T12:47:23Z</time>
      </trkpt>
      <trkpt lat="42.80119948" lon="13.44627295">
        <ele>379.00000</ele>
        <time>2024-03-21T12:47:24Z</time>
      </trkpt>
      <trkpt lat="42.80122295" lon="13.44624672">
        <ele>379.00000</ele>
        <time>2024-03-21T12:47:25Z</time>
      </trkpt>
      <trkpt lat="42.80124071" lon="13.44622735">
        <ele>380.00000</ele>
        <time>2024-03-21T12:47:26Z</time>
      </trkpt>
      <trkpt lat="42.80126309" lon="13.44620246">
        <ele>381.00000</ele>
        <time>2024-03-21T12:47:27Z</time>
      </trkpt>
      <trkpt lat="42.80129143" lon="13.44617505">
        <ele>382.00000</ele>
        <time>2024-03-21T12:47:28Z</time>
      </trkpt>
      <trkpt lat="42.80131263" lon="13.44615343">
        <ele>382.00000</ele>
        <time>2024-03-21T12:47:29Z</time>
      </trkpt>
      <trkpt lat="42.80133350" lon="13.44613180">
        <ele>383.00000</ele>
        <time>2024-03-21T12:47:30Z</time>
      </trkpt>
      <trkpt lat="42.80135345" lon="13.44610749">
        <ele>384.00000</ele>
        <time>2024-03-21T12:47:31Z</time>
      </trkpt>
      <trkpt lat="42.80137449" lon="13.44608453">
        <ele>385.00000</ele>
        <time>2024-03-21T12:47:32Z</time>
      </trkpt>
      <trkpt lat="42.80139628" lon="13.44606458">
        <ele>385.00000</ele>
        <time>2024-03-21T12:47:33Z</time>
      </trkpt>
      <trkpt lat="42.80142067" lon="13.44604480">
        <ele>386.00000</ele>
        <time>2024-03-21T12:47:34Z</time>
      </trkpt>
      <trkpt lat="42.80144196" lon="13.44602443">
        <ele>386.00000</ele>
        <time>2024-03-21T12:47:35Z</time>
      </trkpt>
      <trkpt lat="42.80146233" lon="13.44600263">
        <ele>387.00000</ele>
        <time>2024-03-21T12:47:36Z</time>
      </trkpt>
      <trkpt lat="42.80148161" lon="13.44597749">
        <ele>387.00000</ele>
        <time>2024-03-21T12:47:37Z</time>
      </trkpt>
      <trkpt lat="42.80150114" lon="13.44595184">
        <ele>388.00000</ele>
        <time>2024-03-21T12:47:38Z</time>
      </trkpt>
      <trkpt lat="42.80152084" lon="13.44592812">
        <ele>388.00000</ele>
        <time>2024-03-21T12:47:39Z</time>
      </trkpt>
      <trkpt lat="42.80153601" lon="13.44591127">
        <ele>389.00000</ele>
        <time>2024-03-21T12:47:40Z</time>
      </trkpt>
      <trkpt lat="42.80155856" lon="13.44588655">
        <ele>389.00000</ele>
        <time>2024-03-21T12:47:41Z</time>
      </trkpt>
      <trkpt lat="42.80157834" lon="13.44586458">
        <ele>390.00000</ele>
        <time>2024-03-21T12:47:42Z</time>
      </trkpt>
      <trkpt lat="42.80159711" lon="13.44584221">
        <ele>390.00000</ele>
        <time>2024-03-21T12:47:43Z</time>
      </trkpt>
      <trkpt lat="42.80161991" lon="13.44582259">
        <ele>391.00000</ele>
        <time>2024-03-21T12:47:44Z</time>
      </trkpt>
      <trkpt lat="42.80163902" lon="13.44580935">
        <ele>391.00000</ele>
        <time>2024-03-21T12:47:45Z</time>
      </trkpt>
      <trkpt lat="42.80166677" lon="13.44578554">
        <ele>392.00000</ele>
        <time>2024-03-21T12:47:46Z</time>
      </trkpt>
      <trkpt lat="42.80168772" lon="13.44576585">
        <ele>393.00000</ele>
        <time>2024-03-21T12:47:47Z</time>
      </trkpt>
      <trkpt lat="42.80170641" lon="13.44574791">
        <ele>394.00000</ele>
        <time>2024-03-21T12:47:48Z</time>
      </trkpt>
      <trkpt lat="42.80172552" lon="13.44572838">
        <ele>394.00000</ele>
        <time>2024-03-21T12:47:49Z</time>
      </trkpt>
      <trkpt lat="42.80174011" lon="13.44571153">
        <ele>395.00000</ele>
        <time>2024-03-21T12:47:50Z</time>
      </trkpt>
      <trkpt lat="42.80176643" lon="13.44568328">
        <ele>395.00000</ele>
        <time>2024-03-21T12:47:51Z</time>
      </trkpt>
      <trkpt lat="42.80178730" lon="13.44565923">
        <ele>396.00000</ele>
        <time>2024-03-21T12:47:52Z</time>
      </trkpt>
      <trkpt lat="42.80180985" lon="13.44563350">
        <ele>396.00000</ele>
        <time>2024-03-21T12:47:53Z</time>
      </trkpt>
      <trkpt lat="42.80183281" lon="13.44560709">
        <ele>397.00000</ele>
        <time>2024-03-21T12:47:54Z</time>
      </trkpt>
      <trkpt lat="42.80185762" lon="13.44558211">
        <ele>397.00000</ele>
        <time>2024-03-21T12:47:55Z</time>
      </trkpt>
      <trkpt lat="42.80188277" lon="13.44555772">
        <ele>398.00000</ele>
        <time>2024-03-21T12:47:56Z</time>
      </trkpt>
      <trkpt lat="42.80190657" lon="13.44553417">
        <ele>398.00000</ele>
        <time>2024-03-21T12:47:57Z</time>
      </trkpt>
      <trkpt lat="42.80193071" lon="13.44551171">
        <ele>399.00000</ele>
        <time>2024-03-21T12:47:58Z</time>
      </trkpt>
      <trkpt lat="42.80195334" lon="13.44548949">
        <ele>399.00000</ele>
        <time>2024-03-21T12:47:59Z</time>
      </trkpt>
      <trkpt lat="42.80197455" lon="13.44546561">
        <ele>400.00000</ele>
        <time>2024-03-21T12:48:00Z</time>
      </trkpt>
      <trkpt lat="42.80199710" lon="13.44544281">
        <ele>401.00000</ele>
        <time>2024-03-21T12:48:01Z</time>
      </trkpt>
      <trkpt lat="42.80201931" lon="13.44542353">
        <ele>401.00000</ele>
        <time>2024-03-21T12:48:02Z</time>
      </trkpt>
      <trkpt lat="42.80203607" lon="13.44540727">
        <ele>402.00000</ele>
        <time>2024-03-21T12:48:03Z</time>
      </trkpt>
      <trkpt lat="42.80206172" lon="13.44538480">
        <ele>402.00000</ele>
        <time>2024-03-21T12:48:04Z</time>
      </trkpt>
      <trkpt lat="42.80208611" lon="13.44536360">
        <ele>403.00000</ele>
        <time>2024-03-21T12:48:05Z</time>
      </trkpt>
      <trkpt lat="42.80211067" lon="13.44534214">
        <ele>404.00000</ele>
        <time>2024-03-21T12:48:06Z</time>
      </trkpt>
      <trkpt lat="42.80213372" lon="13.44532353">
        <ele>404.00000</ele>
        <time>2024-03-21T12:48:07Z</time>
      </trkpt>
      <trkpt lat="42.80215526" lon="13.44530333">
        <ele>405.00000</ele>
        <time>2024-03-21T12:48:08Z</time>
      </trkpt>
      <trkpt lat="42.80217857" lon="13.44528120">
        <ele>405.00000</ele>
        <time>2024-03-21T12:48:09Z</time>
      </trkpt>
      <trkpt lat="42.80220095" lon="13.44526142">
        <ele>406.00000</ele>
        <time>2024-03-21T12:48:10Z</time>
      </trkpt>
      <trkpt lat="42.80222282" lon="13.44524223">
        <ele>406.00000</ele>
        <time>2024-03-21T12:48:11Z</time>
      </trkpt>
      <trkpt lat="42.80224260" lon="13.44522345">
        <ele>407.00000</ele>
        <time>2024-03-21T12:48:12Z</time>
      </trkpt>
      <trkpt lat="42.80226599" lon="13.44520116">
        <ele>407.00000</ele>
        <time>2024-03-21T12:48:13Z</time>
      </trkpt>
      <trkpt lat="42.80228652" lon="13.44517920">
        <ele>408.00000</ele>
        <time>2024-03-21T12:48:14Z</time>
      </trkpt>
      <trkpt lat="42.80230538" lon="13.44515405">
        <ele>408.00000</ele>
        <time>2024-03-21T12:48:15Z</time>
      </trkpt>
      <trkpt lat="42.80232693" lon="13.44512815">
        <ele>408.00000</ele>
        <time>2024-03-21T12:48:16Z</time>
      </trkpt>
      <trkpt lat="42.80235107" lon="13.44510301">
        <ele>409.00000</ele>
        <time>2024-03-21T12:48:17Z</time>
      </trkpt>
      <trkpt lat="42.80237311" lon="13.44507778">
        <ele>409.00000</ele>
        <time>2024-03-21T12:48:18Z</time>
      </trkpt>
      <trkpt lat="42.80239222" lon="13.44505255">
        <ele>409.00000</ele>
        <time>2024-03-21T12:48:19Z</time>
      </trkpt>
      <trkpt lat="42.80241041" lon="13.44502354">
        <ele>409.00000</ele>
        <time>2024-03-21T12:48:20Z</time>
      </trkpt>
      <trkpt lat="42.80242617" lon="13.44499220">
        <ele>409.00000</ele>
        <time>2024-03-21T12:48:21Z</time>
      </trkpt>
      <trkpt lat="42.80244310" lon="13.44496143">
        <ele>409.00000</ele>
        <time>2024-03-21T12:48:22Z</time>
      </trkpt>
      <trkpt lat="42.80245961" lon="13.44492699">
        <ele>409.00000</ele>
        <time>2024-03-21T12:48:23Z</time>
      </trkpt>
      <trkpt lat="42.80247596" lon="13.44489614">
        <ele>409.00000</ele>
        <time>2024-03-21T12:48:24Z</time>
      </trkpt>
      <trkpt lat="42.80248769" lon="13.44486680">
        <ele>409.00000</ele>
        <time>2024-03-21T12:48:25Z</time>
      </trkpt>
      <trkpt lat="42.80249850" lon="13.44483202">
        <ele>409.00000</ele>
        <time>2024-03-21T12:48:26Z</time>
      </trkpt>
      <trkpt lat="42.80250890" lon="13.44480159">
        <ele>409.00000</ele>
        <time>2024-03-21T12:48:27Z</time>
      </trkpt>
      <trkpt lat="42.80251854" lon="13.44477569">
        <ele>409.00000</ele>
        <time>2024-03-21T12:48:28Z</time>
      </trkpt>
      <trkpt lat="42.80253002" lon="13.44475038">
        <ele>409.00000</ele>
        <time>2024-03-21T12:48:29Z</time>
      </trkpt>
      <trkpt lat="42.80254494" lon="13.44472255">
        <ele>410.00000</ele>
        <time>2024-03-21T12:48:30Z</time>
      </trkpt>
      <trkpt lat="42.80255164" lon="13.44469967">
        <ele>410.00000</ele>
        <time>2024-03-21T12:48:31Z</time>
      </trkpt>
      <trkpt lat="42.80256078" lon="13.44465851">
        <ele>410.00000</ele>
        <time>2024-03-21T12:48:32Z</time>
      </trkpt>
      <trkpt lat="42.80257210" lon="13.44462557">
        <ele>411.00000</ele>
        <time>2024-03-21T12:48:33Z</time>
      </trkpt>
      <trkpt lat="42.80258140" lon="13.44459037">
        <ele>411.00000</ele>
        <time>2024-03-21T12:48:34Z</time>
      </trkpt>
      <trkpt lat="42.80259029" lon="13.44455474">
        <ele>412.00000</ele>
        <time>2024-03-21T12:48:35Z</time>
      </trkpt>
      <trkpt lat="42.80259867" lon="13.44452616">
        <ele>412.00000</ele>
        <time>2024-03-21T12:48:36Z</time>
      </trkpt>
      <trkpt lat="42.80261359" lon="13.44448668">
        <ele>413.00000</ele>
        <time>2024-03-21T12:48:37Z</time>
      </trkpt>
      <trkpt lat="42.80262541" lon="13.44445324">
        <ele>413.00000</ele>
        <time>2024-03-21T12:48:38Z</time>
      </trkpt>
      <trkpt lat="42.80263823" lon="13.44442055">
        <ele>414.00000</ele>
        <time>2024-03-21T12:48:39Z</time>
      </trkpt>
      <trkpt lat="42.80265072" lon="13.44438585">
        <ele>415.00000</ele>
        <time>2024-03-21T12:48:40Z</time>
      </trkpt>
      <trkpt lat="42.80266103" lon="13.44435676">
        <ele>415.00000</ele>
        <time>2024-03-21T12:48:41Z</time>
      </trkpt>
      <trkpt lat="42.80267318" lon="13.44431603">
        <ele>415.00000</ele>
        <time>2024-03-21T12:48:42Z</time>
      </trkpt>
      <trkpt lat="42.80268668" lon="13.44428317">
        <ele>416.00000</ele>
        <time>2024-03-21T12:48:43Z</time>
      </trkpt>
      <trkpt lat="42.80270160" lon="13.44424998">
        <ele>417.00000</ele>
        <time>2024-03-21T12:48:44Z</time>
      </trkpt>
      <trkpt lat="42.80271450" lon="13.44422249">
        <ele>417.00000</ele>
        <time>2024-03-21T12:48:45Z</time>
      </trkpt>
      <trkpt lat="42.80273152" lon="13.44418259">
        <ele>418.00000</ele>
        <time>2024-03-21T12:48:46Z</time>
      </trkpt>
      <trkpt lat="42.80274443" lon="13.44415149">
        <ele>418.00000</ele>
        <time>2024-03-21T12:48:47Z</time>
      </trkpt>
      <trkpt lat="42.80275767" lon="13.44412065">
        <ele>419.00000</ele>
        <time>2024-03-21T12:48:48Z</time>
      </trkpt>
      <trkpt lat="42.80276689" lon="13.44409307">
        <ele>419.00000</ele>
        <time>2024-03-21T12:48:49Z</time>
      </trkpt>
      <trkpt lat="42.80277762" lon="13.44405963">
        <ele>420.00000</ele>
        <time>2024-03-21T12:48:50Z</time>
      </trkpt>
      <trkpt lat="42.80279153" lon="13.44402073">
        <ele>421.00000</ele>
        <time>2024-03-21T12:48:51Z</time>
      </trkpt>
      <trkpt lat="42.80280344" lon="13.44398830">
        <ele>421.00000</ele>
        <time>2024-03-21T12:48:52Z</time>
      </trkpt>
      <trkpt lat="42.80281593" lon="13.44395670">
        <ele>422.00000</ele>
        <time>2024-03-21T12:48:53Z</time>
      </trkpt>
      <trkpt lat="42.80282766" lon="13.44392493">
        <ele>423.00000</ele>
        <time>2024-03-21T12:48:54Z</time>
      </trkpt>
      <trkpt lat="42.80283981" lon="13.44389375">
        <ele>423.00000</ele>
        <time>2024-03-21T12:48:55Z</time>
      </trkpt>
      <trkpt lat="42.80285180" lon="13.44386148">
        <ele>424.00000</ele>
        <time>2024-03-21T12:48:56Z</time>
      </trkpt>
      <trkpt lat="42.80286186" lon="13.44383239">
        <ele>424.00000</ele>
        <time>2024-03-21T12:48:57Z</time>
      </trkpt>
      <trkpt lat="42.80286974" lon="13.44380859">
        <ele>424.00000</ele>
        <time>2024-03-21T12:48:58Z</time>
      </trkpt>
      <trkpt lat="42.80288432" lon="13.44377095">
        <ele>425.00000</ele>
        <time>2024-03-21T12:48:59Z</time>
      </trkpt>
      <trkpt lat="42.80289874" lon="13.44373935">
        <ele>426.00000</ele>
        <time>2024-03-21T12:49:00Z</time>
      </trkpt>
      <trkpt lat="42.80290938" lon="13.44371228">
        <ele>427.00000</ele>
        <time>2024-03-21T12:49:01Z</time>
      </trkpt>
      <trkpt lat="42.80291508" lon="13.44368780">
        <ele>427.00000</ele>
        <time>2024-03-21T12:49:02Z</time>
      </trkpt>
      <trkpt lat="42.80292187" lon="13.44365956">
        <ele>428.00000</ele>
        <time>2024-03-21T12:49:03Z</time>
      </trkpt>
      <trkpt lat="42.80292875" lon="13.44363165">
        <ele>428.00000</ele>
        <time>2024-03-21T12:49:04Z</time>
      </trkpt>
      <trkpt lat="42.80293738" lon="13.44360189">
        <ele>429.00000</ele>
        <time>2024-03-21T12:49:05Z</time>
      </trkpt>
      <trkpt lat="42.80294911" lon="13.44357130">
        <ele>429.00000</ele>
        <time>2024-03-21T12:49:06Z</time>
      </trkpt>
      <trkpt lat="42.80295641" lon="13.44354271">
        <ele>430.00000</ele>
        <time>2024-03-21T12:49:07Z</time>
      </trkpt>
      <trkpt lat="42.80295808" lon="13.44350969">
        <ele>430.00000</ele>
        <time>2024-03-21T12:49:08Z</time>
      </trkpt>
      <trkpt lat="42.80296035" lon="13.44347071">
        <ele>430.00000</ele>
        <time>2024-03-21T12:49:09Z</time>
      </trkpt>
      <trkpt lat="42.80295942" lon="13.44343098">
        <ele>431.00000</ele>
        <time>2024-03-21T12:49:10Z</time>
      </trkpt>
      <trkpt lat="42.80295557" lon="13.44339150">
        <ele>431.00000</ele>
        <time>2024-03-21T12:49:11Z</time>
      </trkpt>
      <trkpt lat="42.80295322" lon="13.44335362">
        <ele>431.00000</ele>
        <time>2024-03-21T12:49:12Z</time>
      </trkpt>
      <trkpt lat="42.80295272" lon="13.44332219">
        <ele>431.00000</ele>
        <time>2024-03-21T12:49:13Z</time>
      </trkpt>
      <trkpt lat="42.80295439" lon="13.44327441">
        <ele>431.00000</ele>
        <time>2024-03-21T12:49:14Z</time>
      </trkpt>
      <trkpt lat="42.80294978" lon="13.44323426">
        <ele>431.00000</ele>
        <time>2024-03-21T12:49:15Z</time>
      </trkpt>
      <trkpt lat="42.80294216" lon="13.44319604">
        <ele>431.00000</ele>
        <time>2024-03-21T12:49:16Z</time>
      </trkpt>
      <trkpt lat="42.80293202" lon="13.44316008">
        <ele>431.00000</ele>
        <time>2024-03-21T12:49:17Z</time>
      </trkpt>
      <trkpt lat="42.80292472" lon="13.44312245">
        <ele>431.00000</ele>
        <time>2024-03-21T12:49:18Z</time>
      </trkpt>
      <trkpt lat="42.80291517" lon="13.44308565">
        <ele>430.00000</ele>
        <time>2024-03-21T12:49:19Z</time>
      </trkpt>
      <trkpt lat="42.80290511" lon="13.44305153">
        <ele>430.00000</ele>
        <time>2024-03-21T12:49:20Z</time>
      </trkpt>
      <trkpt lat="42.80289715" lon="13.44302153">
        <ele>430.00000</ele>
        <time>2024-03-21T12:49:21Z</time>
      </trkpt>
      <trkpt lat="42.80288089" lon="13.44298884">
        <ele>430.00000</ele>
        <time>2024-03-21T12:49:22Z</time>
      </trkpt>
      <trkpt lat="42.80286630" lon="13.44295539">
        <ele>429.00000</ele>
        <time>2024-03-21T12:49:23Z</time>
      </trkpt>
      <trkpt lat="42.80285079" lon="13.44292933">
        <ele>429.00000</ele>
        <time>2024-03-21T12:49:24Z</time>
      </trkpt>
      <trkpt lat="42.80283118" lon="13.44290628">
        <ele>429.00000</ele>
        <time>2024-03-21T12:49:25Z</time>
      </trkpt>
      <trkpt lat="42.80281324" lon="13.44288381">
        <ele>428.00000</ele>
        <time>2024-03-21T12:49:26Z</time>
      </trkpt>
      <trkpt lat="42.80278609" lon="13.44285808">
        <ele>427.00000</ele>
        <time>2024-03-21T12:49:27Z</time>
      </trkpt>
      <trkpt lat="42.80276228" lon="13.44283855">
        <ele>427.00000</ele>
        <time>2024-03-21T12:49:28Z</time>
      </trkpt>
      <trkpt lat="42.80274233" lon="13.44281835">
        <ele>427.00000</ele>
        <time>2024-03-21T12:49:29Z</time>
      </trkpt>
      <trkpt lat="42.80272381" lon="13.44280075">
        <ele>426.00000</ele>
        <time>2024-03-21T12:49:30Z</time>
      </trkpt>
      <trkpt lat="42.80270503" lon="13.44277778">
        <ele>426.00000</ele>
        <time>2024-03-21T12:49:31Z</time>
      </trkpt>
      <trkpt lat="42.80268860" lon="13.44275725">
        <ele>426.00000</ele>
        <time>2024-03-21T12:49:32Z</time>
      </trkpt>
      <trkpt lat="42.80266413" lon="13.44272741">
        <ele>425.00000</ele>
        <time>2024-03-21T12:49:33Z</time>
      </trkpt>
      <trkpt lat="42.80264577" lon="13.44270042">
        <ele>424.00000</ele>
        <time>2024-03-21T12:49:34Z</time>
      </trkpt>
      <trkpt lat="42.80263387" lon="13.44267041">
        <ele>424.00000</ele>
        <time>2024-03-21T12:49:35Z</time>
      </trkpt>
      <trkpt lat="42.80262323" lon="13.44263990">
        <ele>424.00000</ele>
        <time>2024-03-21T12:49:36Z</time>
      </trkpt>
      <trkpt lat="42.80261979" lon="13.44261148">
        <ele>424.00000</ele>
        <time>2024-03-21T12:49:37Z</time>
      </trkpt>
      <trkpt lat="42.80262256" lon="13.44256790">
        <ele>424.00000</ele>
        <time>2024-03-21T12:49:38Z</time>
      </trkpt>
      <trkpt lat="42.80263362" lon="13.44253278">
        <ele>424.00000</ele>
        <time>2024-03-21T12:49:39Z</time>
      </trkpt>
      <trkpt lat="42.80264426" lon="13.44249741">
        <ele>425.00000</ele>
        <time>2024-03-21T12:49:40Z</time>
      </trkpt>
      <trkpt lat="42.80265491" lon="13.44246832">
        <ele>425.00000</ele>
        <time>2024-03-21T12:49:41Z</time>
      </trkpt>
      <trkpt lat="42.80267226" lon="13.44243211">
        <ele>426.00000</ele>
        <time>2024-03-21T12:49:42Z</time>
      </trkpt>
      <trkpt lat="42.80268676" lon="13.44240948">
        <ele>426.00000</ele>
        <time>2024-03-21T12:49:43Z</time>
      </trkpt>
      <trkpt lat="42.80270922" lon="13.44237193">
        <ele>427.00000</ele>
        <time>2024-03-21T12:49:44Z</time>
      </trkpt>
      <trkpt lat="42.80272859" lon="13.44233580">
        <ele>428.00000</ele>
        <time>2024-03-21T12:49:45Z</time>
      </trkpt>
      <trkpt lat="42.80274367" lon="13.44230781">
        <ele>429.00000</ele>
        <time>2024-03-21T12:49:46Z</time>
      </trkpt>
      <trkpt lat="42.80276530" lon="13.44226514">
        <ele>430.00000</ele>
        <time>2024-03-21T12:49:47Z</time>
      </trkpt>
      <trkpt lat="42.80278466" lon="13.44222877">
        <ele>431.00000</ele>
        <time>2024-03-21T12:49:48Z</time>
      </trkpt>
      <trkpt lat="42.80280184" lon="13.44219214">
        <ele>432.00000</ele>
        <time>2024-03-21T12:49:49Z</time>
      </trkpt>
      <trkpt lat="42.80281785" lon="13.44215836">
        <ele>432.00000</ele>
        <time>2024-03-21T12:49:50Z</time>
      </trkpt>
      <trkpt lat="42.80283219" lon="13.44212651">
        <ele>433.00000</ele>
        <time>2024-03-21T12:49:51Z</time>
      </trkpt>
      <trkpt lat="42.80284484" lon="13.44209130">
        <ele>434.00000</ele>
        <time>2024-03-21T12:49:52Z</time>
      </trkpt>
      <trkpt lat="42.80285742" lon="13.44205643">
        <ele>434.00000</ele>
        <time>2024-03-21T12:49:53Z</time>
      </trkpt>
      <trkpt lat="42.80286890" lon="13.44201989">
        <ele>435.00000</ele>
        <time>2024-03-21T12:49:54Z</time>
      </trkpt>
      <trkpt lat="42.80287862" lon="13.44198100">
        <ele>435.00000</ele>
        <time>2024-03-21T12:49:55Z</time>
      </trkpt>
      <trkpt lat="42.80288600" lon="13.44194244">
        <ele>435.00000</ele>
        <time>2024-03-21T12:49:56Z</time>
      </trkpt>
      <trkpt lat="42.80289354" lon="13.44190699">
        <ele>436.00000</ele>
        <time>2024-03-21T12:49:57Z</time>
      </trkpt>
      <trkpt lat="42.80290033" lon="13.44187161">
        <ele>436.00000</ele>
        <time>2024-03-21T12:49:58Z</time>
      </trkpt>
      <trkpt lat="42.80290704" lon="13.44183415">
        <ele>436.00000</ele>
        <time>2024-03-21T12:49:59Z</time>
      </trkpt>
      <trkpt lat="42.80291316" lon="13.44179836">
        <ele>436.00000</ele>
        <time>2024-03-21T12:50:00Z</time>
      </trkpt>
      <trkpt lat="42.80292028" lon="13.44176273">
        <ele>436.00000</ele>
        <time>2024-03-21T12:50:01Z</time>
      </trkpt>
      <trkpt lat="42.80292774" lon="13.44172401">
        <ele>436.00000</ele>
        <time>2024-03-21T12:50:02Z</time>
      </trkpt>
      <trkpt lat="42.80293889" lon="13.44168864">
        <ele>437.00000</ele>
        <time>2024-03-21T12:50:03Z</time>
      </trkpt>
      <trkpt lat="42.80295331" lon="13.44165511">
        <ele>437.00000</ele>
        <time>2024-03-21T12:50:04Z</time>
      </trkpt>
      <trkpt lat="42.80296688" lon="13.44162326">
        <ele>438.00000</ele>
        <time>2024-03-21T12:50:05Z</time>
      </trkpt>
      <trkpt lat="42.80298549" lon="13.44159409">
        <ele>438.00000</ele>
        <time>2024-03-21T12:50:06Z</time>
      </trkpt>
      <trkpt lat="42.80300578" lon="13.44156769">
        <ele>439.00000</ele>
        <time>2024-03-21T12:50:07Z</time>
      </trkpt>
      <trkpt lat="42.80302547" lon="13.44154665">
        <ele>440.00000</ele>
        <time>2024-03-21T12:50:08Z</time>
      </trkpt>
      <trkpt lat="42.80304492" lon="13.44152628">
        <ele>441.00000</ele>
        <time>2024-03-21T12:50:09Z</time>
      </trkpt>
      <trkpt lat="42.80306411" lon="13.44150767">
        <ele>442.00000</ele>
        <time>2024-03-21T12:50:10Z</time>
      </trkpt>
      <trkpt lat="42.80309496" lon="13.44148445">
        <ele>443.00000</ele>
        <time>2024-03-21T12:50:11Z</time>
      </trkpt>
      <trkpt lat="42.80311533" lon="13.44146702">
        <ele>444.00000</ele>
        <time>2024-03-21T12:50:12Z</time>
      </trkpt>
      <trkpt lat="42.80313955" lon="13.44144355">
        <ele>445.00000</ele>
        <time>2024-03-21T12:50:13Z</time>
      </trkpt>
      <trkpt lat="42.80316486" lon="13.44141715">
        <ele>446.00000</ele>
        <time>2024-03-21T12:50:14Z</time>
      </trkpt>
      <trkpt lat="42.80319705" lon="13.44138882">
        <ele>447.00000</ele>
        <time>2024-03-21T12:50:15Z</time>
      </trkpt>
      <trkpt lat="42.80322245" lon="13.44136836">
        <ele>448.00000</ele>
        <time>2024-03-21T12:50:16Z</time>
      </trkpt>
      <trkpt lat="42.80324583" lon="13.44135437">
        <ele>449.00000</ele>
        <time>2024-03-21T12:50:17Z</time>
      </trkpt>
      <trkpt lat="42.80327039" lon="13.44134557">
        <ele>450.00000</ele>
        <time>2024-03-21T12:50:18Z</time>
      </trkpt>
      <trkpt lat="42.80329260" lon="13.44133056">
        <ele>451.00000</ele>
        <time>2024-03-21T12:50:19Z</time>
      </trkpt>
      <trkpt lat="42.80331674" lon="13.44130743">
        <ele>452.00000</ele>
        <time>2024-03-21T12:50:20Z</time>
      </trkpt>
      <trkpt lat="42.80334340" lon="13.44127834">
        <ele>453.00000</ele>
        <time>2024-03-21T12:50:21Z</time>
      </trkpt>
      <trkpt lat="42.80336905" lon="13.44124892">
        <ele>453.00000</ele>
        <time>2024-03-21T12:50:22Z</time>
      </trkpt>
      <trkpt lat="42.80339503" lon="13.44121766">
        <ele>454.00000</ele>
        <time>2024-03-21T12:50:23Z</time>
      </trkpt>
      <trkpt lat="42.80342018" lon="13.44118589">
        <ele>454.00000</ele>
        <time>2024-03-21T12:50:24Z</time>
      </trkpt>
      <trkpt lat="42.80344348" lon="13.44115102">
        <ele>455.00000</ele>
        <time>2024-03-21T12:50:25Z</time>
      </trkpt>
      <trkpt lat="42.80346251" lon="13.44111087">
        <ele>455.00000</ele>
        <time>2024-03-21T12:50:26Z</time>
      </trkpt>
      <trkpt lat="42.80347198" lon="13.44106729">
        <ele>455.00000</ele>
        <time>2024-03-21T12:50:27Z</time>
      </trkpt>
      <trkpt lat="42.80347709" lon="13.44101708">
        <ele>456.00000</ele>
        <time>2024-03-21T12:50:28Z</time>
      </trkpt>
      <trkpt lat="42.80347659" lon="13.44096327">
        <ele>457.00000</ele>
        <time>2024-03-21T12:50:29Z</time>
      </trkpt>
      <trkpt lat="42.80346888" lon="13.44091046">
        <ele>457.00000</ele>
        <time>2024-03-21T12:50:30Z</time>
      </trkpt>
      <trkpt lat="42.80345949" lon="13.44085900">
        <ele>457.00000</ele>
        <time>2024-03-21T12:50:31Z</time>
      </trkpt>
      <trkpt lat="42.80344951" lon="13.44080963">
        <ele>457.00000</ele>
        <time>2024-03-21T12:50:32Z</time>
      </trkpt>
      <trkpt lat="42.80343845" lon="13.44076269">
        <ele>457.00000</ele>
        <time>2024-03-21T12:50:33Z</time>
      </trkpt>
      <trkpt lat="42.80341892" lon="13.44072204">
        <ele>457.00000</ele>
        <time>2024-03-21T12:50:34Z</time>
      </trkpt>
      <trkpt lat="42.80339822" lon="13.44068490">
        <ele>456.00000</ele>
        <time>2024-03-21T12:50:35Z</time>
      </trkpt>
      <trkpt lat="42.80337701" lon="13.44065163">
        <ele>455.00000</ele>
        <time>2024-03-21T12:50:36Z</time>
      </trkpt>
      <trkpt lat="42.80336494" lon="13.44061584">
        <ele>455.00000</ele>
        <time>2024-03-21T12:50:37Z</time>
      </trkpt>
      <trkpt lat="42.80335287" lon="13.44058306">
        <ele>455.00000</ele>
        <time>2024-03-21T12:50:38Z</time>
      </trkpt>
      <trkpt lat="42.80332949" lon="13.44053445">
        <ele>455.00000</ele>
        <time>2024-03-21T12:50:39Z</time>
      </trkpt>
      <trkpt lat="42.80330979" lon="13.44049673">
        <ele>454.00000</ele>
        <time>2024-03-21T12:50:40Z</time>
      </trkpt>
      <trkpt lat="42.80329026" lon="13.44045960">
        <ele>454.00000</ele>
        <time>2024-03-21T12:50:41Z</time>
      </trkpt>
      <trkpt lat="42.80327240" lon="13.44042372">
        <ele>454.00000</ele>
        <time>2024-03-21T12:50:42Z</time>
      </trkpt>
      <trkpt lat="42.80325908" lon="13.44039095">
        <ele>454.00000</ele>
        <time>2024-03-21T12:50:43Z</time>
      </trkpt>
      <trkpt lat="42.80324173" lon="13.44035566">
        <ele>453.00000</ele>
        <time>2024-03-21T12:50:44Z</time>
      </trkpt>
      <trkpt lat="42.80322019" lon="13.44032557">
        <ele>453.00000</ele>
        <time>2024-03-21T12:50:45Z</time>
      </trkpt>
      <trkpt lat="42.80319797" lon="13.44029758">
        <ele>452.00000</ele>
        <time>2024-03-21T12:50:46Z</time>
      </trkpt>
      <trkpt lat="42.80317492" lon="13.44027092">
        <ele>451.00000</ele>
        <time>2024-03-21T12:50:47Z</time>
      </trkpt>
      <trkpt lat="42.80315028" lon="13.44024745">
        <ele>450.00000</ele>
        <time>2024-03-21T12:50:48Z</time>
      </trkpt>
      <trkpt lat="42.80312463" lon="13.44022373">
        <ele>449.00000</ele>
        <time>2024-03-21T12:50:49Z</time>
      </trkpt>
      <trkpt lat="42.80310326" lon="13.44019750">
        <ele>448.00000</ele>
        <time>2024-03-21T12:50:50Z</time>
      </trkpt>
      <trkpt lat="42.80308884" lon="13.44016757">
        <ele>447.00000</ele>
        <time>2024-03-21T12:50:51Z</time>
      </trkpt>
      <trkpt lat="42.80307845" lon="13.44013539">
        <ele>447.00000</ele>
        <time>2024-03-21T12:50:52Z</time>
      </trkpt>
      <trkpt lat="42.80307836" lon="13.44009423">
        <ele>447.00000</ele>
        <time>2024-03-21T12:50:53Z</time>
      </trkpt>
      <trkpt lat="42.80308758" lon="13.44006196">
        <ele>447.00000</ele>
        <time>2024-03-21T12:50:54Z</time>
      </trkpt>
      <trkpt lat="42.80310736" lon="13.44002919">
        <ele>448.00000</ele>
        <time>2024-03-21T12:50:55Z</time>
      </trkpt>
      <trkpt lat="42.80312916" lon="13.43999834">
        <ele>449.00000</ele>
        <time>2024-03-21T12:50:56Z</time>
      </trkpt>
      <trkpt lat="42.80314567" lon="13.43997471">
        <ele>450.00000</ele>
        <time>2024-03-21T12:50:57Z</time>
      </trkpt>
      <trkpt lat="42.80317115" lon="13.43993967">
        <ele>451.00000</ele>
        <time>2024-03-21T12:50:58Z</time>
      </trkpt>
      <trkpt lat="42.80319487" lon="13.43991595">
        <ele>452.00000</ele>
        <time>2024-03-21T12:50:59Z</time>
      </trkpt>
      <trkpt lat="42.80321172" lon="13.43989977">
        <ele>452.00000</ele>
        <time>2024-03-21T12:51:00Z</time>
      </trkpt>
      <trkpt lat="42.80323578" lon="13.43987429">
        <ele>453.00000</ele>
        <time>2024-03-21T12:51:01Z</time>
      </trkpt>
      <trkpt lat="42.80325363" lon="13.43985065">
        <ele>454.00000</ele>
        <time>2024-03-21T12:51:02Z</time>
      </trkpt>
      <trkpt lat="42.80326846" lon="13.43982995">
        <ele>454.00000</ele>
        <time>2024-03-21T12:51:03Z</time>
      </trkpt>
      <trkpt lat="42.80328582" lon="13.43981285">
        <ele>455.00000</ele>
        <time>2024-03-21T12:51:04Z</time>
      </trkpt>
      <trkpt lat="42.80330317" lon="13.43980120">
        <ele>456.00000</ele>
        <time>2024-03-21T12:51:05Z</time>
      </trkpt>
      <trkpt lat="42.80332462" lon="13.43978025">
        <ele>457.00000</ele>
        <time>2024-03-21T12:51:06Z</time>
      </trkpt>
      <trkpt lat="42.80333954" lon="13.43975569">
        <ele>457.00000</ele>
        <time>2024-03-21T12:51:07Z</time>
      </trkpt>
      <trkpt lat="42.80335254" lon="13.43973155">
        <ele>458.00000</ele>
        <time>2024-03-21T12:51:08Z</time>
      </trkpt>
      <trkpt lat="42.80336729" lon="13.43970674">
        <ele>458.00000</ele>
        <time>2024-03-21T12:51:09Z</time>
      </trkpt>
      <trkpt lat="42.80337651" lon="13.43968662">
        <ele>459.00000</ele>
        <time>2024-03-21T12:51:10Z</time>
      </trkpt>
      <trkpt lat="42.80338816" lon="13.43965770">
        <ele>459.00000</ele>
        <time>2024-03-21T12:51:11Z</time>
      </trkpt>
      <trkpt lat="42.80339897" lon="13.43963423">
        <ele>460.00000</ele>
        <time>2024-03-21T12:51:12Z</time>
      </trkpt>
      <trkpt lat="42.80341121" lon="13.43961118">
        <ele>460.00000</ele>
        <time>2024-03-21T12:51:13Z</time>
      </trkpt>
      <trkpt lat="42.80342294" lon="13.43958604">
        <ele>461.00000</ele>
        <time>2024-03-21T12:51:14Z</time>
      </trkpt>
      <trkpt lat="42.80343208" lon="13.43955821">
        <ele>461.00000</ele>
        <time>2024-03-21T12:51:15Z</time>
      </trkpt>
      <trkpt lat="42.80344415" lon="13.43952937">
        <ele>462.00000</ele>
        <time>2024-03-21T12:51:16Z</time>
      </trkpt>
      <trkpt lat="42.80345823" lon="13.43949903">
        <ele>462.00000</ele>
        <time>2024-03-21T12:51:17Z</time>
      </trkpt>
      <trkpt lat="42.80346821" lon="13.43946877">
        <ele>463.00000</ele>
        <time>2024-03-21T12:51:18Z</time>
      </trkpt>
      <trkpt lat="42.80347592" lon="13.43944095">
        <ele>463.00000</ele>
        <time>2024-03-21T12:51:19Z</time>
      </trkpt>
      <trkpt lat="42.80348262" lon="13.43941798">
        <ele>464.00000</ele>
        <time>2024-03-21T12:51:20Z</time>
      </trkpt>
      <trkpt lat="42.80349084" lon="13.43938504">
        <ele>465.00000</ele>
        <time>2024-03-21T12:51:21Z</time>
      </trkpt>
      <trkpt lat="42.80349939" lon="13.43935545">
        <ele>465.00000</ele>
        <time>2024-03-21T12:51:22Z</time>
      </trkpt>
      <trkpt lat="42.80350944" lon="13.43932771">
        <ele>466.00000</ele>
        <time>2024-03-21T12:51:23Z</time>
      </trkpt>
      <trkpt lat="42.80351892" lon="13.43930373">
        <ele>467.00000</ele>
        <time>2024-03-21T12:51:24Z</time>
      </trkpt>
      <trkpt lat="42.80352537" lon="13.43928026">
        <ele>467.00000</ele>
        <time>2024-03-21T12:51:25Z</time>
      </trkpt>
      <trkpt lat="42.80353350" lon="13.43924690">
        <ele>467.00000</ele>
        <time>2024-03-21T12:51:26Z</time>
      </trkpt>
      <trkpt lat="42.80354054" lon="13.43922511">
        <ele>468.00000</ele>
        <time>2024-03-21T12:51:27Z</time>
      </trkpt>
      <trkpt lat="42.80354758" lon="13.43920273">
        <ele>468.00000</ele>
        <time>2024-03-21T12:51:28Z</time>
      </trkpt>
      <trkpt lat="42.80355286" lon="13.43918655">
        <ele>469.00000</ele>
        <time>2024-03-21T12:51:29Z</time>
      </trkpt>
      <trkpt lat="42.80356284" lon="13.43916124">
        <ele>469.00000</ele>
        <time>2024-03-21T12:51:30Z</time>
      </trkpt>
      <trkpt lat="42.80357172" lon="13.43913945">
        <ele>470.00000</ele>
        <time>2024-03-21T12:51:31Z</time>
      </trkpt>
      <trkpt lat="42.80357818" lon="13.43911590">
        <ele>470.00000</ele>
        <time>2024-03-21T12:51:32Z</time>
      </trkpt>
      <trkpt lat="42.80358220" lon="13.43909075">
        <ele>471.00000</ele>
        <time>2024-03-21T12:51:33Z</time>
      </trkpt>
      <trkpt lat="42.80358614" lon="13.43906468">
        <ele>472.00000</ele>
        <time>2024-03-21T12:51:34Z</time>
      </trkpt>
      <trkpt lat="42.80359016" lon="13.43904155">
        <ele>472.00000</ele>
        <time>2024-03-21T12:51:35Z</time>
      </trkpt>
      <trkpt lat="42.80359737" lon="13.43902235">
        <ele>473.00000</ele>
        <time>2024-03-21T12:51:36Z</time>
      </trkpt>
      <trkpt lat="42.80360701" lon="13.43900727">
        <ele>473.00000</ele>
        <time>2024-03-21T12:51:37Z</time>
      </trkpt>
      <trkpt lat="42.80362000" lon="13.43899168">
        <ele>474.00000</ele>
        <time>2024-03-21T12:51:38Z</time>
      </trkpt>
      <trkpt lat="42.80363207" lon="13.43897768">
        <ele>474.00000</ele>
        <time>2024-03-21T12:51:39Z</time>
      </trkpt>
      <trkpt lat="42.80365009" lon="13.43895915">
        <ele>475.00000</ele>
        <time>2024-03-21T12:51:40Z</time>
      </trkpt>
      <trkpt lat="42.80366552" lon="13.43894490">
        <ele>476.00000</ele>
        <time>2024-03-21T12:51:41Z</time>
      </trkpt>
      <trkpt lat="42.80368228" lon="13.43893476">
        <ele>476.00000</ele>
        <time>2024-03-21T12:51:42Z</time>
      </trkpt>
      <trkpt lat="42.80369712" lon="13.43892588">
        <ele>477.00000</ele>
        <time>2024-03-21T12:51:43Z</time>
      </trkpt>
      <trkpt lat="42.80372000" lon="13.43890911">
        <ele>478.00000</ele>
        <time>2024-03-21T12:51:44Z</time>
      </trkpt>
      <trkpt lat="42.80373911" lon="13.43889662">
        <ele>478.00000</ele>
        <time>2024-03-21T12:51:45Z</time>
      </trkpt>
      <trkpt lat="42.80375688" lon="13.43888472">
        <ele>479.00000</ele>
        <time>2024-03-21T12:51:46Z</time>
      </trkpt>
      <trkpt lat="42.80377733" lon="13.43887567">
        <ele>479.00000</ele>
        <time>2024-03-21T12:51:47Z</time>
      </trkpt>
      <trkpt lat="42.80379259" lon="13.43886528">
        <ele>480.00000</ele>
        <time>2024-03-21T12:51:48Z</time>
      </trkpt>
      <trkpt lat="42.80381681" lon="13.43885044">
        <ele>480.00000</ele>
        <time>2024-03-21T12:51:49Z</time>
      </trkpt>
      <trkpt lat="42.80383475" lon="13.43884038">
        <ele>481.00000</ele>
        <time>2024-03-21T12:51:50Z</time>
      </trkpt>
      <trkpt lat="42.80385511" lon="13.43883125">
        <ele>481.00000</ele>
        <time>2024-03-21T12:51:51Z</time>
      </trkpt>
      <trkpt lat="42.80387758" lon="13.43881960">
        <ele>482.00000</ele>
        <time>2024-03-21T12:51:52Z</time>
      </trkpt>
      <trkpt lat="42.80389895" lon="13.43880769">
        <ele>482.00000</ele>
        <time>2024-03-21T12:51:53Z</time>
      </trkpt>
      <trkpt lat="42.80392125" lon="13.43879621">
        <ele>482.00000</ele>
        <time>2024-03-21T12:51:54Z</time>
      </trkpt>
      <trkpt lat="42.80394136" lon="13.43878523">
        <ele>483.00000</ele>
        <time>2024-03-21T12:51:55Z</time>
      </trkpt>
      <trkpt lat="42.80396659" lon="13.43877257">
        <ele>483.00000</ele>
        <time>2024-03-21T12:51:56Z</time>
      </trkpt>
      <trkpt lat="42.80399492" lon="13.43875564">
        <ele>484.00000</ele>
        <time>2024-03-21T12:51:57Z</time>
      </trkpt>
      <trkpt lat="42.80402367" lon="13.43874081">
        <ele>484.00000</ele>
        <time>2024-03-21T12:51:58Z</time>
      </trkpt>
      <trkpt lat="42.80405092" lon="13.43872941">
        <ele>485.00000</ele>
        <time>2024-03-21T12:51:59Z</time>
      </trkpt>
      <trkpt lat="42.80407816" lon="13.43871692">
        <ele>485.00000</ele>
        <time>2024-03-21T12:52:00Z</time>
      </trkpt>
      <trkpt lat="42.80410355" lon="13.43870007">
        <ele>485.00000</ele>
        <time>2024-03-21T12:52:01Z</time>
      </trkpt>
      <trkpt lat="42.80412719" lon="13.43867920">
        <ele>485.00000</ele>
        <time>2024-03-21T12:52:02Z</time>
      </trkpt>
      <trkpt lat="42.80414907" lon="13.43865942">
        <ele>486.00000</ele>
        <time>2024-03-21T12:52:03Z</time>
      </trkpt>
      <trkpt lat="42.80416952" lon="13.43863570">
        <ele>486.00000</ele>
        <time>2024-03-21T12:52:04Z</time>
      </trkpt>
      <trkpt lat="42.80418737" lon="13.43861122">
        <ele>486.00000</ele>
        <time>2024-03-21T12:52:05Z</time>
      </trkpt>
      <trkpt lat="42.80420556" lon="13.43858909">
        <ele>486.00000</ele>
        <time>2024-03-21T12:52:06Z</time>
      </trkpt>
      <trkpt lat="42.80422643" lon="13.43856638">
        <ele>486.00000</ele>
        <time>2024-03-21T12:52:07Z</time>
      </trkpt>
      <trkpt lat="42.80424445" lon="13.43854626">
        <ele>487.00000</ele>
        <time>2024-03-21T12:52:08Z</time>
      </trkpt>
      <trkpt lat="42.80426482" lon="13.43852380">
        <ele>487.00000</ele>
        <time>2024-03-21T12:52:09Z</time>
      </trkpt>
      <trkpt lat="42.80428393" lon="13.43850301">
        <ele>487.00000</ele>
        <time>2024-03-21T12:52:10Z</time>
      </trkpt>
      <trkpt lat="42.80430162" lon="13.43848474">
        <ele>487.00000</ele>
        <time>2024-03-21T12:52:11Z</time>
      </trkpt>
      <trkpt lat="42.80432014" lon="13.43846714">
        <ele>487.00000</ele>
        <time>2024-03-21T12:52:12Z</time>
      </trkpt>
      <trkpt lat="42.80433733" lon="13.43844878">
        <ele>487.00000</ele>
        <time>2024-03-21T12:52:13Z</time>
      </trkpt>
      <trkpt lat="42.80435342" lon="13.43843554">
        <ele>488.00000</ele>
        <time>2024-03-21T12:52:14Z</time>
      </trkpt>
      <trkpt lat="42.80437161" lon="13.43842464">
        <ele>488.00000</ele>
        <time>2024-03-21T12:52:15Z</time>
      </trkpt>
      <trkpt lat="42.80439214" lon="13.43841173">
        <ele>488.00000</ele>
        <time>2024-03-21T12:52:16Z</time>
      </trkpt>
      <trkpt lat="42.80441109" lon="13.43840436">
        <ele>488.00000</ele>
        <time>2024-03-21T12:52:17Z</time>
      </trkpt>
      <trkpt lat="42.80443246" lon="13.43839790">
        <ele>488.00000</ele>
        <time>2024-03-21T12:52:18Z</time>
      </trkpt>
      <trkpt lat="42.80445300" lon="13.43839195">
        <ele>488.00000</ele>
        <time>2024-03-21T12:52:19Z</time>
      </trkpt>
      <trkpt lat="42.80447479" lon="13.43839078">
        <ele>489.00000</ele>
        <time>2024-03-21T12:52:20Z</time>
      </trkpt>
      <trkpt lat="42.80449717" lon="13.43839145">
        <ele>489.00000</ele>
        <time>2024-03-21T12:52:21Z</time>
      </trkpt>
      <trkpt lat="42.80451913" lon="13.43839027">
        <ele>490.00000</ele>
        <time>2024-03-21T12:52:22Z</time>
      </trkpt>
      <trkpt lat="42.80454008" lon="13.43838592">
        <ele>490.00000</ele>
        <time>2024-03-21T12:52:23Z</time>
      </trkpt>
      <trkpt lat="42.80456297" lon="13.43838038">
        <ele>491.00000</ele>
        <time>2024-03-21T12:52:24Z</time>
      </trkpt>
      <trkpt lat="42.80458300" lon="13.43837460">
        <ele>491.00000</ele>
        <time>2024-03-21T12:52:25Z</time>
      </trkpt>
      <trkpt lat="42.80461334" lon="13.43836488">
        <ele>492.00000</ele>
        <time>2024-03-21T12:52:26Z</time>
      </trkpt>
      <trkpt lat="42.80463673" lon="13.43836236">
        <ele>492.00000</ele>
        <time>2024-03-21T12:52:27Z</time>
      </trkpt>
      <trkpt lat="42.80466070" lon="13.43836010">
        <ele>492.00000</ele>
        <time>2024-03-21T12:52:28Z</time>
      </trkpt>
      <trkpt lat="42.80468383" lon="13.43835499">
        <ele>493.00000</ele>
        <time>2024-03-21T12:52:29Z</time>
      </trkpt>
      <trkpt lat="42.80470445" lon="13.43835297">
        <ele>493.00000</ele>
        <time>2024-03-21T12:52:30Z</time>
      </trkpt>
      <trkpt lat="42.80472507" lon="13.43835557">
        <ele>494.00000</ele>
        <time>2024-03-21T12:52:31Z</time>
      </trkpt>
      <trkpt lat="42.80474619" lon="13.43836144">
        <ele>494.00000</ele>
        <time>2024-03-21T12:52:32Z</time>
      </trkpt>
      <trkpt lat="42.80476975" lon="13.43836680">
        <ele>495.00000</ele>
        <time>2024-03-21T12:52:33Z</time>
      </trkpt>
      <trkpt lat="42.80479221" lon="13.43836823">
        <ele>495.00000</ele>
        <time>2024-03-21T12:52:34Z</time>
      </trkpt>
      <trkpt lat="42.80481300" lon="13.43836521">
        <ele>495.00000</ele>
        <time>2024-03-21T12:52:35Z</time>
      </trkpt>
      <trkpt lat="42.80482934" lon="13.43835926">
        <ele>496.00000</ele>
        <time>2024-03-21T12:52:36Z</time>
      </trkpt>
      <trkpt lat="42.80484284" lon="13.43833797">
        <ele>496.00000</ele>
        <time>2024-03-21T12:52:37Z</time>
      </trkpt>
      <trkpt lat="42.80485130" lon="13.43830562">
        <ele>496.00000</ele>
        <time>2024-03-21T12:52:38Z</time>
      </trkpt>
      <trkpt lat="42.80484812" lon="13.43826924">
        <ele>496.00000</ele>
        <time>2024-03-21T12:52:39Z</time>
      </trkpt>
      <trkpt lat="42.80483479" lon="13.43823412">
        <ele>497.00000</ele>
        <time>2024-03-21T12:52:40Z</time>
      </trkpt>
      <trkpt lat="42.80481727" lon="13.43820294">
        <ele>496.00000</ele>
        <time>2024-03-21T12:52:41Z</time>
      </trkpt>
      <trkpt lat="42.80480244" lon="13.43817645">
        <ele>496.00000</ele>
        <time>2024-03-21T12:52:42Z</time>
      </trkpt>
      <trkpt lat="42.80479171" lon="13.43815105">
        <ele>496.00000</ele>
        <time>2024-03-21T12:52:43Z</time>
      </trkpt>
      <trkpt lat="42.80477779" lon="13.43812851">
        <ele>496.00000</ele>
        <time>2024-03-21T12:52:44Z</time>
      </trkpt>
      <trkpt lat="42.80476095" lon="13.43811208">
        <ele>496.00000</ele>
        <time>2024-03-21T12:52:45Z</time>
      </trkpt>
      <trkpt lat="42.80474695" lon="13.43809515">
        <ele>496.00000</ele>
        <time>2024-03-21T12:52:46Z</time>
      </trkpt>
      <trkpt lat="42.80473530" lon="13.43807168">
        <ele>496.00000</ele>
        <time>2024-03-21T12:52:47Z</time>
      </trkpt>
      <trkpt lat="42.80472557" lon="13.43804569">
        <ele>496.00000</ele>
        <time>2024-03-21T12:52:48Z</time>
      </trkpt>
      <trkpt lat="42.80471468" lon="13.43801929">
        <ele>495.00000</ele>
        <time>2024-03-21T12:52:49Z</time>
      </trkpt>
      <trkpt lat="42.80470630" lon="13.43799448">
        <ele>495.00000</ele>
        <time>2024-03-21T12:52:50Z</time>
      </trkpt>
      <trkpt lat="42.80469708" lon="13.43797135">
        <ele>495.00000</ele>
        <time>2024-03-21T12:52:51Z</time>
      </trkpt>
      <trkpt lat="42.80469791" lon="13.43794536">
        <ele>495.00000</ele>
        <time>2024-03-21T12:52:52Z</time>
      </trkpt>
      <trkpt lat="42.80470940" lon="13.43791661">
        <ele>495.00000</ele>
        <time>2024-03-21T12:52:53Z</time>
      </trkpt>
      <trkpt lat="42.80472340" lon="13.43789457">
        <ele>495.00000</ele>
        <time>2024-03-21T12:52:54Z</time>
      </trkpt>
      <trkpt lat="42.80474234" lon="13.43788250">
        <ele>496.00000</ele>
        <time>2024-03-21T12:52:55Z</time>
      </trkpt>
      <trkpt lat="42.80476329" lon="13.43788962">
        <ele>497.00000</ele>
        <time>2024-03-21T12:52:56Z</time>
      </trkpt>
      <trkpt lat="42.80478643" lon="13.43789448">
        <ele>498.00000</ele>
        <time>2024-03-21T12:52:57Z</time>
      </trkpt>
      <trkpt lat="42.80480386" lon="13.43790253">
        <ele>498.00000</ele>
        <time>2024-03-21T12:52:58Z</time>
      </trkpt>
      <trkpt lat="42.80482457" lon="13.43791980">
        <ele>499.00000</ele>
        <time>2024-03-21T12:52:59Z</time>
      </trkpt>
      <trkpt lat="42.80484535" lon="13.43792826">
        <ele>499.00000</ele>
        <time>2024-03-21T12:53:00Z</time>
      </trkpt>
      <trkpt lat="42.80486597" lon="13.43793530">
        <ele>500.00000</ele>
        <time>2024-03-21T12:53:01Z</time>
      </trkpt>
      <trkpt lat="42.80488215" lon="13.43794754">
        <ele>500.00000</ele>
        <time>2024-03-21T12:53:02Z</time>
      </trkpt>
      <trkpt lat="42.80489673" lon="13.43796305">
        <ele>501.00000</ele>
        <time>2024-03-21T12:53:03Z</time>
      </trkpt>
      <trkpt lat="42.80491878" lon="13.43796405">
        <ele>501.00000</ele>
        <time>2024-03-21T12:53:04Z</time>
      </trkpt>
      <trkpt lat="42.80494007" lon="13.43796623">
        <ele>502.00000</ele>
        <time>2024-03-21T12:53:05Z</time>
      </trkpt>
      <trkpt lat="42.80496622" lon="13.43796070">
        <ele>503.00000</ele>
        <time>2024-03-21T12:53:06Z</time>
      </trkpt>
      <trkpt lat="42.80498935" lon="13.43796238">
        <ele>504.00000</ele>
        <time>2024-03-21T12:53:07Z</time>
      </trkpt>
      <trkpt lat="42.80501182" lon="13.43796632">
        <ele>504.00000</ele>
        <time>2024-03-21T12:53:08Z</time>
      </trkpt>
      <trkpt lat="42.80503260" lon="13.43797244">
        <ele>505.00000</ele>
        <time>2024-03-21T12:53:09Z</time>
      </trkpt>
      <trkpt lat="42.80505230" lon="13.43797839">
        <ele>505.00000</ele>
        <time>2024-03-21T12:53:10Z</time>
      </trkpt>
      <trkpt lat="42.80507099" lon="13.43798392">
        <ele>506.00000</ele>
        <time>2024-03-21T12:53:11Z</time>
      </trkpt>
      <trkpt lat="42.80508960" lon="13.43798928">
        <ele>506.00000</ele>
        <time>2024-03-21T12:53:12Z</time>
      </trkpt>
      <trkpt lat="42.80511139" lon="13.43799096">
        <ele>507.00000</ele>
        <time>2024-03-21T12:53:13Z</time>
      </trkpt>
      <trkpt lat="42.80513210" lon="13.43799532">
        <ele>507.00000</ele>
        <time>2024-03-21T12:53:14Z</time>
      </trkpt>
      <trkpt lat="42.80515129" lon="13.43800362">
        <ele>507.00000</ele>
        <time>2024-03-21T12:53:15Z</time>
      </trkpt>
      <trkpt lat="42.80517091" lon="13.43800630">
        <ele>508.00000</ele>
        <time>2024-03-21T12:53:16Z</time>
      </trkpt>
      <trkpt lat="42.80519136" lon="13.43800655">
        <ele>508.00000</ele>
        <time>2024-03-21T12:53:17Z</time>
      </trkpt>
      <trkpt lat="42.80520988" lon="13.43801007">
        <ele>509.00000</ele>
        <time>2024-03-21T12:53:18Z</time>
      </trkpt>
      <trkpt lat="42.80522706" lon="13.43801544">
        <ele>509.00000</ele>
        <time>2024-03-21T12:53:19Z</time>
      </trkpt>
      <trkpt lat="42.80524165" lon="13.43802558">
        <ele>509.00000</ele>
        <time>2024-03-21T12:53:20Z</time>
      </trkpt>
      <trkpt lat="42.80526336" lon="13.43804293">
        <ele>509.00000</ele>
        <time>2024-03-21T12:53:21Z</time>
      </trkpt>
      <trkpt lat="42.80528532" lon="13.43805181">
        <ele>510.00000</ele>
        <time>2024-03-21T12:53:22Z</time>
      </trkpt>
      <trkpt lat="42.80530954" lon="13.43805743">
        <ele>511.00000</ele>
        <time>2024-03-21T12:53:23Z</time>
      </trkpt>
      <trkpt lat="42.80532740" lon="13.43806413">
        <ele>511.00000</ele>
        <time>2024-03-21T12:53:24Z</time>
      </trkpt>
      <trkpt lat="42.80534391" lon="13.43807704">
        <ele>512.00000</ele>
        <time>2024-03-21T12:53:25Z</time>
      </trkpt>
      <trkpt lat="42.80536235" lon="13.43808702">
        <ele>512.00000</ele>
        <time>2024-03-21T12:53:26Z</time>
      </trkpt>
      <trkpt lat="42.80538062" lon="13.43809800">
        <ele>513.00000</ele>
        <time>2024-03-21T12:53:27Z</time>
      </trkpt>
      <trkpt lat="42.80539856" lon="13.43810931">
        <ele>513.00000</ele>
        <time>2024-03-21T12:53:28Z</time>
      </trkpt>
      <trkpt lat="42.80541507" lon="13.43812532">
        <ele>514.00000</ele>
        <time>2024-03-21T12:53:29Z</time>
      </trkpt>
      <trkpt lat="42.80543133" lon="13.43814603">
        <ele>514.00000</ele>
        <time>2024-03-21T12:53:30Z</time>
      </trkpt>
      <trkpt lat="42.80544525" lon="13.43816891">
        <ele>515.00000</ele>
        <time>2024-03-21T12:53:31Z</time>
      </trkpt>
      <trkpt lat="42.80545631" lon="13.43819682">
        <ele>515.00000</ele>
        <time>2024-03-21T12:53:32Z</time>
      </trkpt>
      <trkpt lat="42.80546779" lon="13.43822515">
        <ele>515.00000</ele>
        <time>2024-03-21T12:53:33Z</time>
      </trkpt>
      <trkpt lat="42.80547752" lon="13.43825616">
        <ele>515.00000</ele>
        <time>2024-03-21T12:53:34Z</time>
      </trkpt>
      <trkpt lat="42.80548313" lon="13.43828265">
        <ele>515.00000</ele>
        <time>2024-03-21T12:53:35Z</time>
      </trkpt>
      <trkpt lat="42.80549302" lon="13.43831894">
        <ele>515.00000</ele>
        <time>2024-03-21T12:53:36Z</time>
      </trkpt>
      <trkpt lat="42.80549688" lon="13.43834401">
        <ele>515.00000</ele>
        <time>2024-03-21T12:53:37Z</time>
      </trkpt>
      <trkpt lat="42.80549981" lon="13.43837779">
        <ele>515.00000</ele>
        <time>2024-03-21T12:53:38Z</time>
      </trkpt>
      <trkpt lat="42.80550031" lon="13.43840243">
        <ele>515.00000</ele>
        <time>2024-03-21T12:53:39Z</time>
      </trkpt>
      <trkpt lat="42.80549931" lon="13.43844149">
        <ele>516.00000</ele>
        <time>2024-03-21T12:53:40Z</time>
      </trkpt>
      <trkpt lat="42.80549822" lon="13.43847569">
        <ele>516.00000</ele>
        <time>2024-03-21T12:53:41Z</time>
      </trkpt>
      <trkpt lat="42.80550316" lon="13.43850452">
        <ele>516.00000</ele>
        <time>2024-03-21T12:53:42Z</time>
      </trkpt>
      <trkpt lat="42.80551766" lon="13.43852648">
        <ele>517.00000</ele>
        <time>2024-03-21T12:53:43Z</time>
      </trkpt>
      <trkpt lat="42.80553317" lon="13.43853897">
        <ele>518.00000</ele>
        <time>2024-03-21T12:53:44Z</time>
      </trkpt>
      <trkpt lat="42.80555480" lon="13.43855816">
        <ele>519.00000</ele>
        <time>2024-03-21T12:53:45Z</time>
      </trkpt>
      <trkpt lat="42.80557525" lon="13.43856210">
        <ele>520.00000</ele>
        <time>2024-03-21T12:53:46Z</time>
      </trkpt>
      <trkpt lat="42.80559553" lon="13.43855758">
        <ele>521.00000</ele>
        <time>2024-03-21T12:53:47Z</time>
      </trkpt>
      <trkpt lat="42.80561179" lon="13.43854718">
        <ele>521.00000</ele>
        <time>2024-03-21T12:53:48Z</time>
      </trkpt>
      <trkpt lat="42.80562562" lon="13.43853059">
        <ele>522.00000</ele>
        <time>2024-03-21T12:53:49Z</time>
      </trkpt>
      <trkpt lat="42.80563686" lon="13.43851106">
        <ele>522.00000</ele>
        <time>2024-03-21T12:53:50Z</time>
      </trkpt>
      <trkpt lat="42.80564381" lon="13.43848625">
        <ele>522.00000</ele>
        <time>2024-03-21T12:53:51Z</time>
      </trkpt>
      <trkpt lat="42.80564951" lon="13.43846244">
        <ele>522.00000</ele>
        <time>2024-03-21T12:53:52Z</time>
      </trkpt>
      <trkpt lat="42.80565689" lon="13.43843813">
        <ele>522.00000</ele>
        <time>2024-03-21T12:53:53Z</time>
      </trkpt>
      <trkpt lat="42.80566385" lon="13.43841500">
        <ele>522.00000</ele>
        <time>2024-03-21T12:53:54Z</time>
      </trkpt>
      <trkpt lat="42.80566971" lon="13.43839069">
        <ele>522.00000</ele>
        <time>2024-03-21T12:53:55Z</time>
      </trkpt>
      <trkpt lat="42.80567902" lon="13.43836563">
        <ele>523.00000</ele>
        <time>2024-03-21T12:53:56Z</time>
      </trkpt>
      <trkpt lat="42.80568430" lon="13.43834015">
        <ele>523.00000</ele>
        <time>2024-03-21T12:53:57Z</time>
      </trkpt>
      <trkpt lat="42.80568924" lon="13.43831299">
        <ele>523.00000</ele>
        <time>2024-03-21T12:53:58Z</time>
      </trkpt>
      <trkpt lat="42.80569167" lon="13.43828517">
        <ele>523.00000</ele>
        <time>2024-03-21T12:53:59Z</time>
      </trkpt>
      <trkpt lat="42.80569905" lon="13.43825818">
        <ele>524.00000</ele>
        <time>2024-03-21T12:54:00Z</time>
      </trkpt>
      <trkpt lat="42.80570760" lon="13.43823068">
        <ele>524.00000</ele>
        <time>2024-03-21T12:54:01Z</time>
      </trkpt>
      <trkpt lat="42.80571456" lon="13.43820688">
        <ele>525.00000</ele>
        <time>2024-03-21T12:54:02Z</time>
      </trkpt>
      <trkpt lat="42.80572319" lon="13.43818098">
        <ele>526.00000</ele>
        <time>2024-03-21T12:54:03Z</time>
      </trkpt>
      <trkpt lat="42.80572964" lon="13.43815818">
        <ele>526.00000</ele>
        <time>2024-03-21T12:54:04Z</time>
      </trkpt>
      <trkpt lat="42.80573325" lon="13.43812457">
        <ele>527.00000</ele>
        <time>2024-03-21T12:54:05Z</time>
      </trkpt>
      <trkpt lat="42.80573274" lon="13.43809389">
        <ele>527.00000</ele>
        <time>2024-03-21T12:54:06Z</time>
      </trkpt>
      <trkpt lat="42.80573165" lon="13.43806154">
        <ele>527.00000</ele>
        <time>2024-03-21T12:54:07Z</time>
      </trkpt>
      <trkpt lat="42.80572637" lon="13.43803689">
        <ele>527.00000</ele>
        <time>2024-03-21T12:54:08Z</time>
      </trkpt>
      <trkpt lat="42.80571464" lon="13.43799674">
        <ele>528.00000</ele>
        <time>2024-03-21T12:54:09Z</time>
      </trkpt>
      <trkpt lat="42.80570441" lon="13.43796766">
        <ele>528.00000</ele>
        <time>2024-03-21T12:54:10Z</time>
      </trkpt>
      <trkpt lat="42.80568472" lon="13.43792634">
        <ele>528.00000</ele>
        <time>2024-03-21T12:54:11Z</time>
      </trkpt>
      <trkpt lat="42.80566846" lon="13.43789725">
        <ele>528.00000</ele>
        <time>2024-03-21T12:54:12Z</time>
      </trkpt>
      <trkpt lat="42.80564624" lon="13.43786431">
        <ele>528.00000</ele>
        <time>2024-03-21T12:54:13Z</time>
      </trkpt>
      <trkpt lat="42.80562311" lon="13.43783665">
        <ele>528.00000</ele>
        <time>2024-03-21T12:54:14Z</time>
      </trkpt>
      <trkpt lat="42.80560039" lon="13.43781536">
        <ele>528.00000</ele>
        <time>2024-03-21T12:54:15Z</time>
      </trkpt>
      <trkpt lat="42.80557776" lon="13.43779399">
        <ele>528.00000</ele>
        <time>2024-03-21T12:54:16Z</time>
      </trkpt>
      <trkpt lat="42.80555572" lon="13.43777655">
        <ele>528.00000</ele>
        <time>2024-03-21T12:54:17Z</time>
      </trkpt>
      <trkpt lat="42.80552781" lon="13.43776809">
        <ele>527.00000</ele>
        <time>2024-03-21T12:54:18Z</time>
      </trkpt>
      <trkpt lat="42.80550082" lon="13.43776029">
        <ele>526.00000</ele>
        <time>2024-03-21T12:54:19Z</time>
      </trkpt>
      <trkpt lat="42.80547768" lon="13.43775241">
        <ele>525.00000</ele>
        <time>2024-03-21T12:54:20Z</time>
      </trkpt>
      <trkpt lat="42.80545648" lon="13.43774344">
        <ele>525.00000</ele>
        <time>2024-03-21T12:54:21Z</time>
      </trkpt>
      <trkpt lat="42.80543804" lon="13.43773238">
        <ele>524.00000</ele>
        <time>2024-03-21T12:54:22Z</time>
      </trkpt>
      <trkpt lat="42.80541541" lon="13.43772810">
        <ele>524.00000</ele>
        <time>2024-03-21T12:54:23Z</time>
      </trkpt>
      <trkpt lat="42.80539479" lon="13.43773146">
        <ele>522.00000</ele>
        <time>2024-03-21T12:54:24Z</time>
      </trkpt>
      <trkpt lat="42.80537392" lon="13.43773934">
        <ele>521.00000</ele>
        <time>2024-03-21T12:54:25Z</time>
      </trkpt>
      <trkpt lat="42.80535765" lon="13.43774328">
        <ele>521.00000</ele>
        <time>2024-03-21T12:54:26Z</time>
      </trkpt>
      <trkpt lat="42.80533284" lon="13.43774906">
        <ele>520.00000</ele>
        <time>2024-03-21T12:54:27Z</time>
      </trkpt>
      <trkpt lat="42.80531139" lon="13.43775174">
        <ele>519.00000</ele>
        <time>2024-03-21T12:54:28Z</time>
      </trkpt>
      <trkpt lat="42.80528691" lon="13.43775367">
        <ele>518.00000</ele>
        <time>2024-03-21T12:54:29Z</time>
      </trkpt>
      <trkpt lat="42.80526897" lon="13.43775400">
        <ele>517.00000</ele>
        <time>2024-03-21T12:54:30Z</time>
      </trkpt>
      <trkpt lat="42.80524768" lon="13.43775350">
        <ele>516.00000</ele>
        <time>2024-03-21T12:54:31Z</time>
      </trkpt>
      <trkpt lat="42.80522665" lon="13.43774814">
        <ele>515.00000</ele>
        <time>2024-03-21T12:54:32Z</time>
      </trkpt>
      <trkpt lat="42.80520158" lon="13.43773657">
        <ele>515.00000</ele>
        <time>2024-03-21T12:54:33Z</time>
      </trkpt>
      <trkpt lat="42.80518918" lon="13.43772140">
        <ele>515.00000</ele>
        <time>2024-03-21T12:54:34Z</time>
      </trkpt>
      <trkpt lat="42.80517283" lon="13.43769667">
        <ele>515.00000</ele>
        <time>2024-03-21T12:54:35Z</time>
      </trkpt>
      <trkpt lat="42.80516202" lon="13.43767706">
        <ele>515.00000</ele>
        <time>2024-03-21T12:54:36Z</time>
      </trkpt>
      <trkpt lat="42.80515146" lon="13.43765049">
        <ele>515.00000</ele>
        <time>2024-03-21T12:54:37Z</time>
      </trkpt>
      <trkpt lat="42.80514467" lon="13.43761646">
        <ele>516.00000</ele>
        <time>2024-03-21T12:54:38Z</time>
      </trkpt>
      <trkpt lat="42.80514207" lon="13.43758645">
        <ele>516.00000</ele>
        <time>2024-03-21T12:54:39Z</time>
      </trkpt>
      <trkpt lat="42.80514400" lon="13.43755577">
        <ele>517.00000</ele>
        <time>2024-03-21T12:54:40Z</time>
      </trkpt>
      <trkpt lat="42.80514601" lon="13.43753415">
        <ele>517.00000</ele>
        <time>2024-03-21T12:54:41Z</time>
      </trkpt>
      <trkpt lat="42.80514962" lon="13.43750632">
        <ele>518.00000</ele>
        <time>2024-03-21T12:54:42Z</time>
      </trkpt>
      <trkpt lat="42.80515238" lon="13.43747841">
        <ele>519.00000</ele>
        <time>2024-03-21T12:54:43Z</time>
      </trkpt>
      <trkpt lat="42.80515850" lon="13.43744530">
        <ele>519.00000</ele>
        <time>2024-03-21T12:54:44Z</time>
      </trkpt>
      <trkpt lat="42.80516135" lon="13.43742292">
        <ele>520.00000</ele>
        <time>2024-03-21T12:54:45Z</time>
      </trkpt>
      <trkpt lat="42.80516571" lon="13.43739693">
        <ele>520.00000</ele>
        <time>2024-03-21T12:54:46Z</time>
      </trkpt>
      <trkpt lat="42.80517526" lon="13.43737020">
        <ele>521.00000</ele>
        <time>2024-03-21T12:54:47Z</time>
      </trkpt>
      <trkpt lat="42.80519018" lon="13.43733985">
        <ele>522.00000</ele>
        <time>2024-03-21T12:54:48Z</time>
      </trkpt>
      <trkpt lat="42.80520175" lon="13.43732099">
        <ele>522.00000</ele>
        <time>2024-03-21T12:54:49Z</time>
      </trkpt>
      <trkpt lat="42.80521717" lon="13.43729560">
        <ele>523.00000</ele>
        <time>2024-03-21T12:54:50Z</time>
      </trkpt>
      <trkpt lat="42.80523025" lon="13.43727213">
        <ele>524.00000</ele>
        <time>2024-03-21T12:54:51Z</time>
      </trkpt>
      <trkpt lat="42.80524517" lon="13.43724749">
        <ele>525.00000</ele>
        <time>2024-03-21T12:54:52Z</time>
      </trkpt>
      <trkpt lat="42.80526369" lon="13.43721832">
        <ele>526.00000</ele>
        <time>2024-03-21T12:54:53Z</time>
      </trkpt>
      <trkpt lat="42.80527484" lon="13.43719921">
        <ele>526.00000</ele>
        <time>2024-03-21T12:54:54Z</time>
      </trkpt>
      <trkpt lat="42.80528708" lon="13.43717892">
        <ele>526.00000</ele>
        <time>2024-03-21T12:54:55Z</time>
      </trkpt>
      <trkpt lat="42.80530418" lon="13.43715218">
        <ele>527.00000</ele>
        <time>2024-03-21T12:54:56Z</time>
      </trkpt>
      <trkpt lat="42.80531524" lon="13.43713467">
        <ele>527.00000</ele>
        <time>2024-03-21T12:54:57Z</time>
      </trkpt>
      <trkpt lat="42.80532807" lon="13.43711446">
        <ele>527.00000</ele>
        <time>2024-03-21T12:54:58Z</time>
      </trkpt>
      <trkpt lat="42.80534131" lon="13.43709359">
        <ele>528.00000</ele>
        <time>2024-03-21T12:54:59Z</time>
      </trkpt>
      <trkpt lat="42.80535464" lon="13.43707188">
        <ele>528.00000</ele>
        <time>2024-03-21T12:55:00Z</time>
      </trkpt>
      <trkpt lat="42.80537006" lon="13.43704506">
        <ele>528.00000</ele>
        <time>2024-03-21T12:55:01Z</time>
      </trkpt>
      <trkpt lat="42.80538339" lon="13.43702159">
        <ele>529.00000</ele>
        <time>2024-03-21T12:55:02Z</time>
      </trkpt>
      <trkpt lat="42.80539412" lon="13.43700215">
        <ele>529.00000</ele>
        <time>2024-03-21T12:55:03Z</time>
      </trkpt>
      <trkpt lat="42.80540795" lon="13.43697834">
        <ele>530.00000</ele>
        <time>2024-03-21T12:55:04Z</time>
      </trkpt>
      <trkpt lat="42.80542253" lon="13.43695756">
        <ele>530.00000</ele>
        <time>2024-03-21T12:55:05Z</time>
      </trkpt>
      <trkpt lat="42.80543569" lon="13.43693736">
        <ele>530.00000</ele>
        <time>2024-03-21T12:55:06Z</time>
      </trkpt>
      <trkpt lat="42.80544793" lon="13.43691615">
        <ele>531.00000</ele>
        <time>2024-03-21T12:55:07Z</time>
      </trkpt>
      <trkpt lat="42.80546084" lon="13.43689452">
        <ele>531.00000</ele>
        <time>2024-03-21T12:55:08Z</time>
      </trkpt>
      <trkpt lat="42.80547391" lon="13.43687214">
        <ele>532.00000</ele>
        <time>2024-03-21T12:55:09Z</time>
      </trkpt>
      <trkpt lat="42.80549000" lon="13.43684138">
        <ele>532.00000</ele>
        <time>2024-03-21T12:55:10Z</time>
      </trkpt>
      <trkpt lat="42.80550224" lon="13.43681833">
        <ele>533.00000</ele>
        <time>2024-03-21T12:55:11Z</time>
      </trkpt>
      <trkpt lat="42.80551322" lon="13.43680039">
        <ele>533.00000</ele>
        <time>2024-03-21T12:55:12Z</time>
      </trkpt>
      <trkpt lat="42.80552722" lon="13.43677802">
        <ele>534.00000</ele>
        <time>2024-03-21T12:55:13Z</time>
      </trkpt>
      <trkpt lat="42.80554214" lon="13.43675346">
        <ele>534.00000</ele>
        <time>2024-03-21T12:55:14Z</time>
      </trkpt>
      <trkpt lat="42.80555538" lon="13.43672915">
        <ele>535.00000</ele>
        <time>2024-03-21T12:55:15Z</time>
      </trkpt>
      <trkpt lat="42.80556821" lon="13.43670065">
        <ele>535.00000</ele>
        <time>2024-03-21T12:55:16Z</time>
      </trkpt>
      <trkpt lat="42.80557793" lon="13.43668363">
        <ele>536.00000</ele>
        <time>2024-03-21T12:55:17Z</time>
      </trkpt>
      <trkpt lat="42.80558891" lon="13.43665715">
        <ele>536.00000</ele>
        <time>2024-03-21T12:55:18Z</time>
      </trkpt>
      <trkpt lat="42.80559721" lon="13.43663334">
        <ele>537.00000</ele>
        <time>2024-03-21T12:55:19Z</time>
      </trkpt>
      <trkpt lat="42.80560375" lon="13.43660744">
        <ele>537.00000</ele>
        <time>2024-03-21T12:55:20Z</time>
      </trkpt>
      <trkpt lat="42.80561313" lon="13.43657861">
        <ele>538.00000</ele>
        <time>2024-03-21T12:55:21Z</time>
      </trkpt>
      <trkpt lat="42.80562621" lon="13.43654785">
        <ele>538.00000</ele>
        <time>2024-03-21T12:55:22Z</time>
      </trkpt>
      <trkpt lat="42.80563795" lon="13.43651994">
        <ele>539.00000</ele>
        <time>2024-03-21T12:55:23Z</time>
      </trkpt>
      <trkpt lat="42.80564876" lon="13.43649504">
        <ele>539.00000</ele>
        <time>2024-03-21T12:55:24Z</time>
      </trkpt>
      <trkpt lat="42.80566602" lon="13.43646529">
        <ele>541.00000</ele>
        <time>2024-03-21T12:55:25Z</time>
      </trkpt>
      <trkpt lat="42.80568086" lon="13.43643796">
        <ele>541.00000</ele>
        <time>2024-03-21T12:55:26Z</time>
      </trkpt>
      <trkpt lat="42.80569167" lon="13.43641508">
        <ele>542.00000</ele>
        <time>2024-03-21T12:55:27Z</time>
      </trkpt>
      <trkpt lat="42.80570877" lon="13.43638557">
        <ele>543.00000</ele>
        <time>2024-03-21T12:55:28Z</time>
      </trkpt>
      <trkpt lat="42.80572797" lon="13.43635071">
        <ele>544.00000</ele>
        <time>2024-03-21T12:55:29Z</time>
      </trkpt>
      <trkpt lat="42.80573995" lon="13.43632430">
        <ele>544.00000</ele>
        <time>2024-03-21T12:55:30Z</time>
      </trkpt>
      <trkpt lat="42.80575085" lon="13.43630360">
        <ele>545.00000</ele>
        <time>2024-03-21T12:55:31Z</time>
      </trkpt>
      <trkpt lat="42.80576292" lon="13.43627912">
        <ele>545.00000</ele>
        <time>2024-03-21T12:55:32Z</time>
      </trkpt>
      <trkpt lat="42.80577046" lon="13.43625457">
        <ele>545.00000</ele>
        <time>2024-03-21T12:55:33Z</time>
      </trkpt>
      <trkpt lat="42.80578270" lon="13.43622657">
        <ele>546.00000</ele>
        <time>2024-03-21T12:55:34Z</time>
      </trkpt>
      <trkpt lat="42.80579745" lon="13.43619371">
        <ele>546.00000</ele>
        <time>2024-03-21T12:55:35Z</time>
      </trkpt>
      <trkpt lat="42.80580801" lon="13.43617628">
        <ele>547.00000</ele>
        <time>2024-03-21T12:55:36Z</time>
      </trkpt>
      <trkpt lat="42.80582210" lon="13.43615801">
        <ele>547.00000</ele>
        <time>2024-03-21T12:55:37Z</time>
      </trkpt>
      <trkpt lat="42.80583953" lon="13.43614066">
        <ele>548.00000</ele>
        <time>2024-03-21T12:55:38Z</time>
      </trkpt>
      <trkpt lat="42.80586007" lon="13.43612096">
        <ele>549.00000</ele>
        <time>2024-03-21T12:55:39Z</time>
      </trkpt>
      <trkpt lat="42.80587574" lon="13.43611258">
        <ele>549.00000</ele>
        <time>2024-03-21T12:55:40Z</time>
      </trkpt>
      <trkpt lat="42.80589896" lon="13.43611040">
        <ele>551.00000</ele>
        <time>2024-03-21T12:55:41Z</time>
      </trkpt>
      <trkpt lat="42.80591656" lon="13.43612280">
        <ele>551.00000</ele>
        <time>2024-03-21T12:55:42Z</time>
      </trkpt>
      <trkpt lat="42.80592796" lon="13.43613814">
        <ele>552.00000</ele>
        <time>2024-03-21T12:55:43Z</time>
      </trkpt>
      <trkpt lat="42.80593651" lon="13.43616220">
        <ele>553.00000</ele>
        <time>2024-03-21T12:55:44Z</time>
      </trkpt>
      <trkpt lat="42.80594087" lon="13.43619556">
        <ele>554.00000</ele>
        <time>2024-03-21T12:55:45Z</time>
      </trkpt>
      <trkpt lat="42.80594095" lon="13.43622154">
        <ele>554.00000</ele>
        <time>2024-03-21T12:55:46Z</time>
      </trkpt>
      <trkpt lat="42.80593617" lon="13.43625138">
        <ele>554.00000</ele>
        <time>2024-03-21T12:55:47Z</time>
      </trkpt>
      <trkpt lat="42.80592109" lon="13.43628382">
        <ele>553.00000</ele>
        <time>2024-03-21T12:55:48Z</time>
      </trkpt>
      <trkpt lat="42.80590659" lon="13.43631366">
        <ele>553.00000</ele>
        <time>2024-03-21T12:55:49Z</time>
      </trkpt>
      <trkpt lat="42.80589653" lon="13.43634249">
        <ele>553.00000</ele>
        <time>2024-03-21T12:55:50Z</time>
      </trkpt>
      <trkpt lat="42.80588940" lon="13.43636236">
        <ele>553.00000</ele>
        <time>2024-03-21T12:55:51Z</time>
      </trkpt>
      <trkpt lat="42.80588186" lon="13.43638616">
        <ele>553.00000</ele>
        <time>2024-03-21T12:55:52Z</time>
      </trkpt>
      <trkpt lat="42.80587163" lon="13.43641533">
        <ele>552.00000</ele>
        <time>2024-03-21T12:55:53Z</time>
      </trkpt>
      <trkpt lat="42.80586359" lon="13.43643612">
        <ele>552.00000</ele>
        <time>2024-03-21T12:55:54Z</time>
      </trkpt>
      <trkpt lat="42.80585328" lon="13.43645724">
        <ele>552.00000</ele>
        <time>2024-03-21T12:55:55Z</time>
      </trkpt>
      <trkpt lat="42.80584624" lon="13.43647501">
        <ele>551.00000</ele>
        <time>2024-03-21T12:55:56Z</time>
      </trkpt>
      <trkpt lat="42.80583752" lon="13.43649663">
        <ele>551.00000</ele>
        <time>2024-03-21T12:55:57Z</time>
      </trkpt>
      <trkpt lat="42.80582662" lon="13.43652111">
        <ele>550.00000</ele>
        <time>2024-03-21T12:55:58Z</time>
      </trkpt>
      <trkpt lat="42.80581631" lon="13.43654274">
        <ele>550.00000</ele>
        <time>2024-03-21T12:55:59Z</time>
      </trkpt>
      <trkpt lat="42.80580743" lon="13.43656034">
        <ele>549.00000</ele>
        <time>2024-03-21T12:56:00Z</time>
      </trkpt>
      <trkpt lat="42.80579787" lon="13.43658263">
        <ele>548.00000</ele>
        <time>2024-03-21T12:56:01Z</time>
      </trkpt>
      <trkpt lat="42.80578983" lon="13.43661298">
        <ele>548.00000</ele>
        <time>2024-03-21T12:56:02Z</time>
      </trkpt>
      <trkpt lat="42.80578211" lon="13.43663946">
        <ele>548.00000</ele>
        <time>2024-03-21T12:56:03Z</time>
      </trkpt>
      <trkpt lat="42.80577541" lon="13.43666595">
        <ele>547.00000</ele>
        <time>2024-03-21T12:56:04Z</time>
      </trkpt>
      <trkpt lat="42.80576962" lon="13.43668883">
        <ele>547.00000</ele>
        <time>2024-03-21T12:56:05Z</time>
      </trkpt>
      <trkpt lat="42.80576300" lon="13.43671934">
        <ele>546.00000</ele>
        <time>2024-03-21T12:56:06Z</time>
      </trkpt>
      <trkpt lat="42.80575638" lon="13.43675673">
        <ele>546.00000</ele>
        <time>2024-03-21T12:56:07Z</time>
      </trkpt>
      <trkpt lat="42.80575554" lon="13.43678631">
        <ele>546.00000</ele>
        <time>2024-03-21T12:56:08Z</time>
      </trkpt>
      <trkpt lat="42.80575672" lon="13.43681649">
        <ele>546.00000</ele>
        <time>2024-03-21T12:56:09Z</time>
      </trkpt>
      <trkpt lat="42.80576040" lon="13.43684029">
        <ele>546.00000</ele>
        <time>2024-03-21T12:56:10Z</time>
      </trkpt>
      <trkpt lat="42.80576904" lon="13.43687633">
        <ele>546.00000</ele>
        <time>2024-03-21T12:56:11Z</time>
      </trkpt>
      <trkpt lat="42.80577826" lon="13.43689939">
        <ele>546.00000</ele>
        <time>2024-03-21T12:56:12Z</time>
      </trkpt>
      <trkpt lat="42.80579360" lon="13.43693057">
        <ele>547.00000</ele>
        <time>2024-03-21T12:56:13Z</time>
      </trkpt>
      <trkpt lat="42.80580089" lon="13.43694926">
        <ele>547.00000</ele>
        <time>2024-03-21T12:56:14Z</time>
      </trkpt>
      <trkpt lat="42.80581933" lon="13.43696929">
        <ele>548.00000</ele>
        <time>2024-03-21T12:56:15Z</time>
      </trkpt>
      <trkpt lat="42.80584146" lon="13.43698916">
        <ele>549.00000</ele>
        <time>2024-03-21T12:56:16Z</time>
      </trkpt>
      <trkpt lat="42.80585898" lon="13.43699636">
        <ele>549.00000</ele>
        <time>2024-03-21T12:56:17Z</time>
      </trkpt>
      <trkpt lat="42.80588462" lon="13.43699930">
        <ele>550.00000</ele>
        <time>2024-03-21T12:56:18Z</time>
      </trkpt>
      <trkpt lat="42.80590876" lon="13.43699703">
        <ele>551.00000</ele>
        <time>2024-03-21T12:56:19Z</time>
      </trkpt>
      <trkpt lat="42.80593047" lon="13.43699066">
        <ele>552.00000</ele>
        <time>2024-03-21T12:56:20Z</time>
      </trkpt>
      <trkpt lat="42.80595235" lon="13.43698178">
        <ele>553.00000</ele>
        <time>2024-03-21T12:56:21Z</time>
      </trkpt>
      <trkpt lat="42.80597439" lon="13.43697457">
        <ele>554.00000</ele>
        <time>2024-03-21T12:56:22Z</time>
      </trkpt>
      <trkpt lat="42.80599686" lon="13.43696678">
        <ele>555.00000</ele>
        <time>2024-03-21T12:56:23Z</time>
      </trkpt>
      <trkpt lat="42.80601630" lon="13.43696041">
        <ele>556.00000</ele>
        <time>2024-03-21T12:56:24Z</time>
      </trkpt>
      <trkpt lat="42.80603365" lon="13.43694959">
        <ele>557.00000</ele>
        <time>2024-03-21T12:56:25Z</time>
      </trkpt>
      <trkpt lat="42.80605126" lon="13.43692679">
        <ele>558.00000</ele>
        <time>2024-03-21T12:56:26Z</time>
      </trkpt>
      <trkpt lat="42.80605863" lon="13.43689754">
        <ele>559.00000</ele>
        <time>2024-03-21T12:56:27Z</time>
      </trkpt>
      <trkpt lat="42.80606634" lon="13.43687022">
        <ele>559.00000</ele>
        <time>2024-03-21T12:56:28Z</time>
      </trkpt>
      <trkpt lat="42.80607313" lon="13.43683904">
        <ele>560.00000</ele>
        <time>2024-03-21T12:56:29Z</time>
      </trkpt>
      <trkpt lat="42.80607967" lon="13.43680794">
        <ele>561.00000</ele>
        <time>2024-03-21T12:56:30Z</time>
      </trkpt>
      <trkpt lat="42.80608520" lon="13.43678195">
        <ele>561.00000</ele>
        <time>2024-03-21T12:56:31Z</time>
      </trkpt>
      <trkpt lat="42.80609023" lon="13.43675714">
        <ele>562.00000</ele>
        <time>2024-03-21T12:56:32Z</time>
      </trkpt>
      <trkpt lat="42.80609585" lon="13.43673049">
        <ele>562.00000</ele>
        <time>2024-03-21T12:56:33Z</time>
      </trkpt>
      <trkpt lat="42.80610306" lon="13.43670518">
        <ele>563.00000</ele>
        <time>2024-03-21T12:56:34Z</time>
      </trkpt>
      <trkpt lat="42.80611194" lon="13.43668179">
        <ele>563.00000</ele>
        <time>2024-03-21T12:56:35Z</time>
      </trkpt>
      <trkpt lat="42.80612342" lon="13.43665975">
        <ele>564.00000</ele>
        <time>2024-03-21T12:56:36Z</time>
      </trkpt>
      <trkpt lat="42.80613583" lon="13.43663644">
        <ele>564.00000</ele>
        <time>2024-03-21T12:56:37Z</time>
      </trkpt>
      <trkpt lat="42.80614547" lon="13.43661163">
        <ele>565.00000</ele>
        <time>2024-03-21T12:56:38Z</time>
      </trkpt>
      <trkpt lat="42.80615469" lon="13.43658708">
        <ele>565.00000</ele>
        <time>2024-03-21T12:56:39Z</time>
      </trkpt>
      <trkpt lat="42.80616617" lon="13.43655732">
        <ele>565.00000</ele>
        <time>2024-03-21T12:56:40Z</time>
      </trkpt>
      <trkpt lat="42.80617112" lon="13.43653838">
        <ele>566.00000</ele>
        <time>2024-03-21T12:56:41Z</time>
      </trkpt>
      <trkpt lat="42.80617849" lon="13.43651222">
        <ele>566.00000</ele>
        <time>2024-03-21T12:56:42Z</time>
      </trkpt>
      <trkpt lat="42.80618629" lon="13.43648809">
        <ele>566.00000</ele>
        <time>2024-03-21T12:56:43Z</time>
      </trkpt>
      <trkpt lat="42.80619568" lon="13.43646721">
        <ele>566.00000</ele>
        <time>2024-03-21T12:56:44Z</time>
      </trkpt>
      <trkpt lat="42.80620791" lon="13.43644358">
        <ele>567.00000</ele>
        <time>2024-03-21T12:56:45Z</time>
      </trkpt>
      <trkpt lat="42.80621940" lon="13.43642455">
        <ele>567.00000</ele>
        <time>2024-03-21T12:56:46Z</time>
      </trkpt>
      <trkpt lat="42.80623239" lon="13.43640703">
        <ele>568.00000</ele>
        <time>2024-03-21T12:56:47Z</time>
      </trkpt>
      <trkpt lat="42.80624773" lon="13.43638943">
        <ele>568.00000</ele>
        <time>2024-03-21T12:56:48Z</time>
      </trkpt>
      <trkpt lat="42.80626575" lon="13.43636990">
        <ele>569.00000</ele>
        <time>2024-03-21T12:56:49Z</time>
      </trkpt>
      <trkpt lat="42.80628042" lon="13.43635708">
        <ele>569.00000</ele>
        <time>2024-03-21T12:56:50Z</time>
      </trkpt>
      <trkpt lat="42.80629542" lon="13.43634677">
        <ele>570.00000</ele>
        <time>2024-03-21T12:56:51Z</time>
      </trkpt>
      <trkpt lat="42.80631319" lon="13.43634333">
        <ele>570.00000</ele>
        <time>2024-03-21T12:56:52Z</time>
      </trkpt>
      <trkpt lat="42.80633264" lon="13.43634241">
        <ele>571.00000</ele>
        <time>2024-03-21T12:56:53Z</time>
      </trkpt>
      <trkpt lat="42.80634907" lon="13.43634844">
        <ele>572.00000</ele>
        <time>2024-03-21T12:56:54Z</time>
      </trkpt>
      <trkpt lat="42.80636591" lon="13.43636202">
        <ele>572.00000</ele>
        <time>2024-03-21T12:56:55Z</time>
      </trkpt>
      <trkpt lat="42.80637564" lon="13.43637820">
        <ele>573.00000</ele>
        <time>2024-03-21T12:56:56Z</time>
      </trkpt>
      <trkpt lat="42.80638452" lon="13.43640368">
        <ele>573.00000</ele>
        <time>2024-03-21T12:56:57Z</time>
      </trkpt>
      <trkpt lat="42.80639056" lon="13.43643050">
        <ele>573.00000</ele>
        <time>2024-03-21T12:56:58Z</time>
      </trkpt>
      <trkpt lat="42.80639701" lon="13.43645146">
        <ele>574.00000</ele>
        <time>2024-03-21T12:56:59Z</time>
      </trkpt>
      <trkpt lat="42.80640212" lon="13.43647627">
        <ele>574.00000</ele>
        <time>2024-03-21T12:57:00Z</time>
      </trkpt>
      <trkpt lat="42.80640933" lon="13.43650192">
        <ele>574.00000</ele>
        <time>2024-03-21T12:57:01Z</time>
      </trkpt>
      <trkpt lat="42.80641662" lon="13.43652874">
        <ele>574.00000</ele>
        <time>2024-03-21T12:57:02Z</time>
      </trkpt>
      <trkpt lat="42.80642241" lon="13.43655430">
        <ele>575.00000</ele>
        <time>2024-03-21T12:57:03Z</time>
      </trkpt>
      <trkpt lat="42.80643020" lon="13.43657911">
        <ele>575.00000</ele>
        <time>2024-03-21T12:57:04Z</time>
      </trkpt>
      <trkpt lat="42.80644076" lon="13.43660568">
        <ele>576.00000</ele>
        <time>2024-03-21T12:57:05Z</time>
      </trkpt>
      <trkpt lat="42.80644998" lon="13.43663443">
        <ele>576.00000</ele>
        <time>2024-03-21T12:57:06Z</time>
      </trkpt>
      <trkpt lat="42.80646272" lon="13.43666268">
        <ele>577.00000</ele>
        <time>2024-03-21T12:57:07Z</time>
      </trkpt>
      <trkpt lat="42.80647672" lon="13.43669001">
        <ele>577.00000</ele>
        <time>2024-03-21T12:57:08Z</time>
      </trkpt>
      <trkpt lat="42.80648971" lon="13.43671792">
        <ele>577.00000</ele>
        <time>2024-03-21T12:57:09Z</time>
      </trkpt>
      <trkpt lat="42.80650472" lon="13.43674432">
        <ele>578.00000</ele>
        <time>2024-03-21T12:57:10Z</time>
      </trkpt>
      <trkpt lat="42.80652098" lon="13.43676905">
        <ele>579.00000</ele>
        <time>2024-03-21T12:57:11Z</time>
      </trkpt>
      <trkpt lat="42.80653883" lon="13.43679168">
        <ele>580.00000</ele>
        <time>2024-03-21T12:57:12Z</time>
      </trkpt>
      <trkpt lat="42.80655643" lon="13.43681221">
        <ele>580.00000</ele>
        <time>2024-03-21T12:57:13Z</time>
      </trkpt>
      <trkpt lat="42.80657345" lon="13.43683199">
        <ele>581.00000</ele>
        <time>2024-03-21T12:57:14Z</time>
      </trkpt>
      <trkpt lat="42.80659105" lon="13.43685655">
        <ele>582.00000</ele>
        <time>2024-03-21T12:57:15Z</time>
      </trkpt>
      <trkpt lat="42.80661058" lon="13.43687776">
        <ele>583.00000</ele>
        <time>2024-03-21T12:57:16Z</time>
      </trkpt>
      <trkpt lat="42.80663053" lon="13.43689821">
        <ele>584.00000</ele>
        <time>2024-03-21T12:57:17Z</time>
      </trkpt>
      <trkpt lat="42.80665048" lon="13.43691749">
        <ele>586.00000</ele>
        <time>2024-03-21T12:57:18Z</time>
      </trkpt>
      <trkpt lat="42.80667127" lon="13.43693719">
        <ele>587.00000</ele>
        <time>2024-03-21T12:57:19Z</time>
      </trkpt>
      <trkpt lat="42.80669348" lon="13.43695806">
        <ele>587.00000</ele>
        <time>2024-03-21T12:57:20Z</time>
      </trkpt>
      <trkpt lat="42.80671485" lon="13.43698413">
        <ele>588.00000</ele>
        <time>2024-03-21T12:57:21Z</time>
      </trkpt>
      <trkpt lat="42.80673715" lon="13.43700810">
        <ele>588.00000</ele>
        <time>2024-03-21T12:57:22Z</time>
      </trkpt>
      <trkpt lat="42.80676363" lon="13.43703266">
        <ele>589.00000</ele>
        <time>2024-03-21T12:57:23Z</time>
      </trkpt>
      <trkpt lat="42.80678442" lon="13.43705571">
        <ele>590.00000</ele>
        <time>2024-03-21T12:57:24Z</time>
      </trkpt>
      <trkpt lat="42.80680119" lon="13.43707742">
        <ele>590.00000</ele>
        <time>2024-03-21T12:57:25Z</time>
      </trkpt>
      <trkpt lat="42.80682130" lon="13.43710390">
        <ele>590.00000</ele>
        <time>2024-03-21T12:57:26Z</time>
      </trkpt>
      <trkpt lat="42.80683991" lon="13.43713056">
        <ele>591.00000</ele>
        <time>2024-03-21T12:57:27Z</time>
      </trkpt>
      <trkpt lat="42.80686128" lon="13.43715017">
        <ele>592.00000</ele>
        <time>2024-03-21T12:57:28Z</time>
      </trkpt>
      <trkpt lat="42.80688542" lon="13.43717741">
        <ele>593.00000</ele>
        <time>2024-03-21T12:57:29Z</time>
      </trkpt>
      <trkpt lat="42.80690210" lon="13.43719661">
        <ele>593.00000</ele>
        <time>2024-03-21T12:57:30Z</time>
      </trkpt>
      <trkpt lat="42.80692566" lon="13.43721899">
        <ele>594.00000</ele>
        <time>2024-03-21T12:57:31Z</time>
      </trkpt>
      <trkpt lat="42.80694653" lon="13.43724070">
        <ele>595.00000</ele>
        <time>2024-03-21T12:57:32Z</time>
      </trkpt>
      <trkpt lat="42.80696723" lon="13.43726366">
        <ele>595.00000</ele>
        <time>2024-03-21T12:57:33Z</time>
      </trkpt>
      <trkpt lat="42.80698768" lon="13.43728847">
        <ele>596.00000</ele>
        <time>2024-03-21T12:57:34Z</time>
      </trkpt>
      <trkpt lat="42.80700428" lon="13.43731580">
        <ele>595.00000</ele>
        <time>2024-03-21T12:57:35Z</time>
      </trkpt>
      <trkpt lat="42.80702046" lon="13.43734061">
        <ele>596.00000</ele>
        <time>2024-03-21T12:57:36Z</time>
      </trkpt>
      <trkpt lat="42.80704057" lon="13.43736911">
        <ele>596.00000</ele>
        <time>2024-03-21T12:57:37Z</time>
      </trkpt>
      <trkpt lat="42.80706413" lon="13.43739040">
        <ele>596.00000</ele>
        <time>2024-03-21T12:57:38Z</time>
      </trkpt>
      <trkpt lat="42.80708936" lon="13.43741437">
        <ele>596.00000</ele>
        <time>2024-03-21T12:57:39Z</time>
      </trkpt>
      <trkpt lat="42.80711266" lon="13.43742686">
        <ele>597.00000</ele>
        <time>2024-03-21T12:57:40Z</time>
      </trkpt>
      <trkpt lat="42.80713235" lon="13.43744639">
        <ele>597.00000</ele>
        <time>2024-03-21T12:57:41Z</time>
      </trkpt>
      <trkpt lat="42.80715306" lon="13.43747137">
        <ele>598.00000</ele>
        <time>2024-03-21T12:57:42Z</time>
      </trkpt>
      <trkpt lat="42.80717661" lon="13.43750188">
        <ele>598.00000</ele>
        <time>2024-03-21T12:57:43Z</time>
      </trkpt>
      <trkpt lat="42.80719287" lon="13.43753515">
        <ele>598.00000</ele>
        <time>2024-03-21T12:57:44Z</time>
      </trkpt>
      <trkpt lat="42.80720293" lon="13.43756323">
        <ele>598.00000</ele>
        <time>2024-03-21T12:57:45Z</time>
      </trkpt>
      <trkpt lat="42.80721894" lon="13.43759005">
        <ele>598.00000</ele>
        <time>2024-03-21T12:57:46Z</time>
      </trkpt>
      <trkpt lat="42.80723696" lon="13.43762434">
        <ele>598.00000</ele>
        <time>2024-03-21T12:57:47Z</time>
      </trkpt>
      <trkpt lat="42.80724585" lon="13.43766164">
        <ele>598.00000</ele>
        <time>2024-03-21T12:57:48Z</time>
      </trkpt>
      <trkpt lat="42.80726303" lon="13.43768536">
        <ele>599.00000</ele>
        <time>2024-03-21T12:57:49Z</time>
      </trkpt>
      <trkpt lat="42.80727468" lon="13.43770740">
        <ele>599.00000</ele>
        <time>2024-03-21T12:57:50Z</time>
      </trkpt>
      <trkpt lat="42.80728432" lon="13.43773665">
        <ele>599.00000</ele>
        <time>2024-03-21T12:57:51Z</time>
      </trkpt>
      <trkpt lat="42.80729136" lon="13.43777379">
        <ele>599.00000</ele>
        <time>2024-03-21T12:57:52Z</time>
      </trkpt>
      <trkpt lat="42.80729874" lon="13.43780463">
        <ele>600.00000</ele>
        <time>2024-03-21T12:57:53Z</time>
      </trkpt>
      <trkpt lat="42.80730787" lon="13.43783170">
        <ele>600.00000</ele>
        <time>2024-03-21T12:57:54Z</time>
      </trkpt>
      <trkpt lat="42.80731944" lon="13.43785584">
        <ele>600.00000</ele>
        <time>2024-03-21T12:57:55Z</time>
      </trkpt>
      <trkpt lat="42.80733243" lon="13.43786884">
        <ele>601.00000</ele>
        <time>2024-03-21T12:57:56Z</time>
      </trkpt>
      <trkpt lat="42.80734442" lon="13.43789205">
        <ele>601.00000</ele>
        <time>2024-03-21T12:57:57Z</time>
      </trkpt>
      <trkpt lat="42.80735104" lon="13.43791645">
        <ele>601.00000</ele>
        <time>2024-03-21T12:57:58Z</time>
      </trkpt>
      <trkpt lat="42.80735825" lon="13.43793757">
        <ele>602.00000</ele>
        <time>2024-03-21T12:57:59Z</time>
      </trkpt>
      <trkpt lat="42.80736495" lon="13.43795827">
        <ele>602.00000</ele>
        <time>2024-03-21T12:58:00Z</time>
      </trkpt>
      <trkpt lat="42.80737032" lon="13.43797814">
        <ele>602.00000</ele>
        <time>2024-03-21T12:58:01Z</time>
      </trkpt>
      <trkpt lat="42.80737258" lon="13.43800487">
        <ele>602.00000</ele>
        <time>2024-03-21T12:58:02Z</time>
      </trkpt>
      <trkpt lat="42.80737468" lon="13.43803245">
        <ele>602.00000</ele>
        <time>2024-03-21T12:58:03Z</time>
      </trkpt>
      <trkpt lat="42.80737568" lon="13.43806162">
        <ele>602.00000</ele>
        <time>2024-03-21T12:58:04Z</time>
      </trkpt>
      <trkpt lat="42.80737618" lon="13.43808383">
        <ele>602.00000</ele>
        <time>2024-03-21T12:58:05Z</time>
      </trkpt>
      <trkpt lat="42.80737861" lon="13.43811099">
        <ele>602.00000</ele>
        <time>2024-03-21T12:58:06Z</time>
      </trkpt>
      <trkpt lat="42.80737979" lon="13.43813354">
        <ele>602.00000</ele>
        <time>2024-03-21T12:58:07Z</time>
      </trkpt>
      <trkpt lat="42.80737929" lon="13.43815449">
        <ele>602.00000</ele>
        <time>2024-03-21T12:58:08Z</time>
      </trkpt>
      <trkpt lat="42.80738088" lon="13.43816765">
        <ele>602.00000</ele>
        <time>2024-03-21T12:58:09Z</time>
      </trkpt>
      <trkpt lat="42.80738960" lon="13.43818785">
        <ele>603.00000</ele>
        <time>2024-03-21T12:58:10Z</time>
      </trkpt>
      <trkpt lat="42.80739588" lon="13.43821023">
        <ele>603.00000</ele>
        <time>2024-03-21T12:58:11Z</time>
      </trkpt>
      <trkpt lat="42.80740032" lon="13.43823404">
        <ele>603.00000</ele>
        <time>2024-03-21T12:58:12Z</time>
      </trkpt>
      <trkpt lat="42.80740753" lon="13.43825616">
        <ele>604.00000</ele>
        <time>2024-03-21T12:58:13Z</time>
      </trkpt>
      <trkpt lat="42.80741734" lon="13.43827636">
        <ele>605.00000</ele>
        <time>2024-03-21T12:58:14Z</time>
      </trkpt>
      <trkpt lat="42.80742907" lon="13.43829740">
        <ele>605.00000</ele>
        <time>2024-03-21T12:58:15Z</time>
      </trkpt>
      <trkpt lat="42.80744332" lon="13.43831878">
        <ele>606.00000</ele>
        <time>2024-03-21T12:58:16Z</time>
      </trkpt>
      <trkpt lat="42.80745439" lon="13.43832850">
        <ele>607.00000</ele>
        <time>2024-03-21T12:58:17Z</time>
      </trkpt>
      <trkpt lat="42.80746755" lon="13.43833227">
        <ele>608.00000</ele>
        <time>2024-03-21T12:58:18Z</time>
      </trkpt>
      <trkpt lat="42.80747618" lon="13.43833412">
        <ele>608.00000</ele>
        <time>2024-03-21T12:58:19Z</time>
      </trkpt>
      <trkpt lat="42.80749160" lon="13.43832716">
        <ele>609.00000</ele>
        <time>2024-03-21T12:58:20Z</time>
      </trkpt>
      <trkpt lat="42.80750677" lon="13.43831744">
        <ele>610.00000</ele>
        <time>2024-03-21T12:58:21Z</time>
      </trkpt>
      <trkpt lat="42.80751683" lon="13.43831526">
        <ele>610.00000</ele>
        <time>2024-03-21T12:58:22Z</time>
      </trkpt>
      <trkpt lat="42.80752547" lon="13.43831467">
        <ele>611.00000</ele>
        <time>2024-03-21T12:58:23Z</time>
      </trkpt>
      <trkpt lat="42.80753586" lon="13.43831760">
        <ele>612.00000</ele>
        <time>2024-03-21T12:58:24Z</time>
      </trkpt>
      <trkpt lat="42.80754474" lon="13.43833060">
        <ele>612.00000</ele>
        <time>2024-03-21T12:58:25Z</time>
      </trkpt>
      <trkpt lat="42.80754776" lon="13.43835163">
        <ele>612.00000</ele>
        <time>2024-03-21T12:58:26Z</time>
      </trkpt>
      <trkpt lat="42.80754650" lon="13.43837971">
        <ele>613.00000</ele>
        <time>2024-03-21T12:58:27Z</time>
      </trkpt>
      <trkpt lat="42.80754231" lon="13.43840226">
        <ele>613.00000</ele>
        <time>2024-03-21T12:58:28Z</time>
      </trkpt>
      <trkpt lat="42.80753108" lon="13.43843277">
        <ele>612.00000</ele>
        <time>2024-03-21T12:58:29Z</time>
      </trkpt>
      <trkpt lat="42.80752496" lon="13.43846261">
        <ele>612.00000</ele>
        <time>2024-03-21T12:58:30Z</time>
      </trkpt>
      <trkpt lat="42.80752354" lon="13.43848717">
        <ele>612.00000</ele>
        <time>2024-03-21T12:58:31Z</time>
      </trkpt>
      <trkpt lat="42.80751734" lon="13.43851173">
        <ele>612.00000</ele>
        <time>2024-03-21T12:58:32Z</time>
      </trkpt>
      <trkpt lat="42.80750459" lon="13.43853738">
        <ele>612.00000</ele>
        <time>2024-03-21T12:58:33Z</time>
      </trkpt>
      <trkpt lat="42.80748942" lon="13.43856512">
        <ele>611.00000</ele>
        <time>2024-03-21T12:58:34Z</time>
      </trkpt>
      <trkpt lat="42.80748532" lon="13.43858490">
        <ele>611.00000</ele>
        <time>2024-03-21T12:58:35Z</time>
      </trkpt>
      <trkpt lat="42.80748607" lon="13.43860493">
        <ele>612.00000</ele>
        <time>2024-03-21T12:58:36Z</time>
      </trkpt>
      <trkpt lat="42.80748314" lon="13.43862790">
        <ele>612.00000</ele>
        <time>2024-03-21T12:58:37Z</time>
      </trkpt>
      <trkpt lat="42.80748029" lon="13.43865011">
        <ele>612.00000</ele>
        <time>2024-03-21T12:58:38Z</time>
      </trkpt>
      <trkpt lat="42.80747911" lon="13.43866989">
        <ele>612.00000</ele>
        <time>2024-03-21T12:58:39Z</time>
      </trkpt>
      <trkpt lat="42.80747945" lon="13.43869186">
        <ele>612.00000</ele>
        <time>2024-03-21T12:58:40Z</time>
      </trkpt>
      <trkpt lat="42.80747610" lon="13.43870862">
        <ele>612.00000</ele>
        <time>2024-03-21T12:58:41Z</time>
      </trkpt>
      <trkpt lat="42.80747207" lon="13.43872287">
        <ele>612.00000</ele>
        <time>2024-03-21T12:58:42Z</time>
      </trkpt>
      <trkpt lat="42.80746654" lon="13.43873946">
        <ele>612.00000</ele>
        <time>2024-03-21T12:58:43Z</time>
      </trkpt>
      <trkpt lat="42.80745942" lon="13.43875891">
        <ele>612.00000</ele>
        <time>2024-03-21T12:58:44Z</time>
      </trkpt>
      <trkpt lat="42.80745598" lon="13.43877978">
        <ele>612.00000</ele>
        <time>2024-03-21T12:58:45Z</time>
      </trkpt>
      <trkpt lat="42.80745506" lon="13.43880459">
        <ele>612.00000</ele>
        <time>2024-03-21T12:58:46Z</time>
      </trkpt>
      <trkpt lat="42.80745824" lon="13.43882219">
        <ele>613.00000</ele>
        <time>2024-03-21T12:58:47Z</time>
      </trkpt>
      <trkpt lat="42.80746461" lon="13.43884910">
        <ele>614.00000</ele>
        <time>2024-03-21T12:58:48Z</time>
      </trkpt>
      <trkpt lat="42.80747040" lon="13.43887492">
        <ele>615.00000</ele>
        <time>2024-03-21T12:58:49Z</time>
      </trkpt>
      <trkpt lat="42.80747652" lon="13.43890040">
        <ele>615.00000</ele>
        <time>2024-03-21T12:58:50Z</time>
      </trkpt>
      <trkpt lat="42.80748364" lon="13.43891741">
        <ele>616.00000</ele>
        <time>2024-03-21T12:58:51Z</time>
      </trkpt>
      <trkpt lat="42.80749353" lon="13.43894390">
        <ele>617.00000</ele>
        <time>2024-03-21T12:58:52Z</time>
      </trkpt>
      <trkpt lat="42.80749814" lon="13.43896091">
        <ele>617.00000</ele>
        <time>2024-03-21T12:58:53Z</time>
      </trkpt>
      <trkpt lat="42.80750501" lon="13.43899176">
        <ele>618.00000</ele>
        <time>2024-03-21T12:58:54Z</time>
      </trkpt>
      <trkpt lat="42.80751113" lon="13.43901691">
        <ele>619.00000</ele>
        <time>2024-03-21T12:58:55Z</time>
      </trkpt>
      <trkpt lat="42.80751197" lon="13.43903560">
        <ele>619.00000</ele>
        <time>2024-03-21T12:58:56Z</time>
      </trkpt>
      <trkpt lat="42.80751147" lon="13.43906493">
        <ele>620.00000</ele>
        <time>2024-03-21T12:58:57Z</time>
      </trkpt>
      <trkpt lat="42.80751306" lon="13.43908019">
        <ele>620.00000</ele>
        <time>2024-03-21T12:58:58Z</time>
      </trkpt>
      <trkpt lat="42.80750929" lon="13.43910575">
        <ele>620.00000</ele>
        <time>2024-03-21T12:58:59Z</time>
      </trkpt>
      <trkpt lat="42.80750409" lon="13.43912512">
        <ele>620.00000</ele>
        <time>2024-03-21T12:59:00Z</time>
      </trkpt>
      <trkpt lat="42.80749755" lon="13.43914959">
        <ele>620.00000</ele>
        <time>2024-03-21T12:59:01Z</time>
      </trkpt>
      <trkpt lat="42.80749068" lon="13.43918186">
        <ele>620.00000</ele>
        <time>2024-03-21T12:59:02Z</time>
      </trkpt>
      <trkpt lat="42.80748649" lon="13.43920533">
        <ele>621.00000</ele>
        <time>2024-03-21T12:59:03Z</time>
      </trkpt>
      <trkpt lat="42.80748356" lon="13.43922729">
        <ele>621.00000</ele>
        <time>2024-03-21T12:59:04Z</time>
      </trkpt>
      <trkpt lat="42.80748196" lon="13.43924531">
        <ele>622.00000</ele>
        <time>2024-03-21T12:59:05Z</time>
      </trkpt>
      <trkpt lat="42.80747853" lon="13.43927331">
        <ele>622.00000</ele>
        <time>2024-03-21T12:59:06Z</time>
      </trkpt>
      <trkpt lat="42.80747886" lon="13.43928898">
        <ele>623.00000</ele>
        <time>2024-03-21T12:59:07Z</time>
      </trkpt>
      <trkpt lat="42.80747584" lon="13.43931103">
        <ele>623.00000</ele>
        <time>2024-03-21T12:59:08Z</time>
      </trkpt>
      <trkpt lat="42.80747266" lon="13.43932762">
        <ele>623.00000</ele>
        <time>2024-03-21T12:59:09Z</time>
      </trkpt>
      <trkpt lat="42.80746830" lon="13.43934891">
        <ele>623.00000</ele>
        <time>2024-03-21T12:59:10Z</time>
      </trkpt>
      <trkpt lat="42.80746218" lon="13.43937347">
        <ele>623.00000</ele>
        <time>2024-03-21T12:59:11Z</time>
      </trkpt>
      <trkpt lat="42.80745590" lon="13.43939753">
        <ele>624.00000</ele>
        <time>2024-03-21T12:59:12Z</time>
      </trkpt>
      <trkpt lat="42.80745087" lon="13.43942058">
        <ele>624.00000</ele>
        <time>2024-03-21T12:59:13Z</time>
      </trkpt>
      <trkpt lat="42.80744785" lon="13.43944195">
        <ele>624.00000</ele>
        <time>2024-03-21T12:59:14Z</time>
      </trkpt>
      <trkpt lat="42.80744550" lon="13.43946358">
        <ele>625.00000</ele>
        <time>2024-03-21T12:59:15Z</time>
      </trkpt>
      <trkpt lat="42.80744399" lon="13.43948914">
        <ele>626.00000</ele>
        <time>2024-03-21T12:59:16Z</time>
      </trkpt>
      <trkpt lat="42.80744156" lon="13.43951219">
        <ele>626.00000</ele>
        <time>2024-03-21T12:59:17Z</time>
      </trkpt>
      <trkpt lat="42.80744072" lon="13.43953055">
        <ele>627.00000</ele>
        <time>2024-03-21T12:59:18Z</time>
      </trkpt>
      <trkpt lat="42.80743871" lon="13.43954899">
        <ele>627.00000</ele>
        <time>2024-03-21T12:59:19Z</time>
      </trkpt>
      <trkpt lat="42.80743553" lon="13.43957070">
        <ele>628.00000</ele>
        <time>2024-03-21T12:59:20Z</time>
      </trkpt>
      <trkpt lat="42.80743209" lon="13.43959182">
        <ele>628.00000</ele>
        <time>2024-03-21T12:59:21Z</time>
      </trkpt>
      <trkpt lat="42.80742874" lon="13.43961361">
        <ele>629.00000</ele>
        <time>2024-03-21T12:59:22Z</time>
      </trkpt>
      <trkpt lat="42.80742329" lon="13.43963842">
        <ele>629.00000</ele>
        <time>2024-03-21T12:59:23Z</time>
      </trkpt>
      <trkpt lat="42.80741927" lon="13.43966139">
        <ele>629.00000</ele>
        <time>2024-03-21T12:59:24Z</time>
      </trkpt>
      <trkpt lat="42.80741399" lon="13.43968578">
        <ele>630.00000</ele>
        <time>2024-03-21T12:59:25Z</time>
      </trkpt>
      <trkpt lat="42.80740829" lon="13.43970774">
        <ele>630.00000</ele>
        <time>2024-03-21T12:59:26Z</time>
      </trkpt>
      <trkpt lat="42.80740250" lon="13.43972744">
        <ele>630.00000</ele>
        <time>2024-03-21T12:59:27Z</time>
      </trkpt>
      <trkpt lat="42.80739353" lon="13.43975175">
        <ele>629.00000</ele>
        <time>2024-03-21T12:59:28Z</time>
      </trkpt>
      <trkpt lat="42.80738582" lon="13.43977505">
        <ele>628.00000</ele>
        <time>2024-03-21T12:59:29Z</time>
      </trkpt>
      <trkpt lat="42.80738079" lon="13.43979625">
        <ele>628.00000</ele>
        <time>2024-03-21T12:59:30Z</time>
      </trkpt>
      <trkpt lat="42.80737484" lon="13.43981746">
        <ele>627.00000</ele>
        <time>2024-03-21T12:59:31Z</time>
      </trkpt>
      <trkpt lat="42.80736688" lon="13.43983925">
        <ele>627.00000</ele>
        <time>2024-03-21T12:59:32Z</time>
      </trkpt>
      <trkpt lat="42.80735883" lon="13.43985769">
        <ele>626.00000</ele>
        <time>2024-03-21T12:59:33Z</time>
      </trkpt>
      <trkpt lat="42.80735079" lon="13.43987798">
        <ele>626.00000</ele>
        <time>2024-03-21T12:59:34Z</time>
      </trkpt>
      <trkpt lat="42.80734450" lon="13.43989600">
        <ele>625.00000</ele>
        <time>2024-03-21T12:59:35Z</time>
      </trkpt>
      <trkpt lat="42.80733863" lon="13.43991762">
        <ele>625.00000</ele>
        <time>2024-03-21T12:59:36Z</time>
      </trkpt>
      <trkpt lat="42.80733411" lon="13.43994336">
        <ele>625.00000</ele>
        <time>2024-03-21T12:59:37Z</time>
      </trkpt>
      <trkpt lat="42.80732740" lon="13.43997186">
        <ele>624.00000</ele>
        <time>2024-03-21T12:59:38Z</time>
      </trkpt>
      <trkpt lat="42.80732128" lon="13.43999750">
        <ele>624.00000</ele>
        <time>2024-03-21T12:59:39Z</time>
      </trkpt>
      <trkpt lat="42.80731575" lon="13.44002550">
        <ele>624.00000</ele>
        <time>2024-03-21T12:59:40Z</time>
      </trkpt>
      <trkpt lat="42.80731324" lon="13.44005425">
        <ele>624.00000</ele>
        <time>2024-03-21T12:59:41Z</time>
      </trkpt>
      <trkpt lat="42.80731164" lon="13.44008275">
        <ele>624.00000</ele>
        <time>2024-03-21T12:59:42Z</time>
      </trkpt>
      <trkpt lat="42.80731189" lon="13.44011116">
        <ele>625.00000</ele>
        <time>2024-03-21T12:59:43Z</time>
      </trkpt>
      <trkpt lat="42.80731282" lon="13.44014461">
        <ele>625.00000</ele>
        <time>2024-03-21T12:59:44Z</time>
      </trkpt>
      <trkpt lat="42.80731433" lon="13.44018006">
        <ele>626.00000</ele>
        <time>2024-03-21T12:59:45Z</time>
      </trkpt>
      <trkpt lat="42.80731726" lon="13.44022004">
        <ele>626.00000</ele>
        <time>2024-03-21T12:59:46Z</time>
      </trkpt>
      <trkpt lat="42.80731877" lon="13.44024770">
        <ele>627.00000</ele>
        <time>2024-03-21T12:59:47Z</time>
      </trkpt>
      <trkpt lat="42.80732070" lon="13.44028282">
        <ele>628.00000</ele>
        <time>2024-03-21T12:59:48Z</time>
      </trkpt>
      <trkpt lat="42.80732296" lon="13.44031861">
        <ele>629.00000</ele>
        <time>2024-03-21T12:59:49Z</time>
      </trkpt>
      <trkpt lat="42.80732790" lon="13.44035441">
        <ele>630.00000</ele>
        <time>2024-03-21T12:59:50Z</time>
      </trkpt>
      <trkpt lat="42.80733327" lon="13.44038844">
        <ele>631.00000</ele>
        <time>2024-03-21T12:59:51Z</time>
      </trkpt>
      <trkpt lat="42.80733511" lon="13.44042372">
        <ele>632.00000</ele>
        <time>2024-03-21T12:59:52Z</time>
      </trkpt>
      <trkpt lat="42.80733578" lon="13.44045658">
        <ele>633.00000</ele>
        <time>2024-03-21T12:59:53Z</time>
      </trkpt>
      <trkpt lat="42.80733997" lon="13.44048734">
        <ele>634.00000</ele>
        <time>2024-03-21T12:59:54Z</time>
      </trkpt>
      <trkpt lat="42.80734425" lon="13.44052556">
        <ele>635.00000</ele>
        <time>2024-03-21T12:59:55Z</time>
      </trkpt>
      <trkpt lat="42.80734735" lon="13.44055507">
        <ele>636.00000</ele>
        <time>2024-03-21T12:59:56Z</time>
      </trkpt>
      <trkpt lat="42.80734718" lon="13.44058566">
        <ele>636.00000</ele>
        <time>2024-03-21T12:59:57Z</time>
      </trkpt>
      <trkpt lat="42.80734718" lon="13.44061969">
        <ele>637.00000</ele>
        <time>2024-03-21T12:59:58Z</time>
      </trkpt>
      <trkpt lat="42.80734349" lon="13.44065783">
        <ele>637.00000</ele>
        <time>2024-03-21T12:59:59Z</time>
      </trkpt>
      <trkpt lat="42.80733905" lon="13.44069614">
        <ele>637.00000</ele>
        <time>2024-03-21T13:00:00Z</time>
      </trkpt>
      <trkpt lat="42.80733712" lon="13.44073536">
        <ele>637.00000</ele>
        <time>2024-03-21T13:00:01Z</time>
      </trkpt>
      <trkpt lat="42.80733402" lon="13.44077249">
        <ele>638.00000</ele>
        <time>2024-03-21T13:00:02Z</time>
      </trkpt>
      <trkpt lat="42.80732883" lon="13.44080837">
        <ele>638.00000</ele>
        <time>2024-03-21T13:00:03Z</time>
      </trkpt>
      <trkpt lat="42.80732044" lon="13.44084542">
        <ele>637.00000</ele>
        <time>2024-03-21T13:00:04Z</time>
      </trkpt>
      <trkpt lat="42.80730837" lon="13.44088314">
        <ele>637.00000</ele>
        <time>2024-03-21T13:00:05Z</time>
      </trkpt>
      <trkpt lat="42.80729639" lon="13.44091842">
        <ele>636.00000</ele>
        <time>2024-03-21T13:00:06Z</time>
      </trkpt>
      <trkpt lat="42.80728457" lon="13.44095690">
        <ele>636.00000</ele>
        <time>2024-03-21T13:00:07Z</time>
      </trkpt>
      <trkpt lat="42.80727267" lon="13.44099453">
        <ele>636.00000</ele>
        <time>2024-03-21T13:00:08Z</time>
      </trkpt>
      <trkpt lat="42.80726043" lon="13.44103116">
        <ele>635.00000</ele>
        <time>2024-03-21T13:00:09Z</time>
      </trkpt>
      <trkpt lat="42.80725146" lon="13.44105664">
        <ele>635.00000</ele>
        <time>2024-03-21T13:00:10Z</time>
      </trkpt>
      <trkpt lat="42.80724241" lon="13.44108204">
        <ele>635.00000</ele>
        <time>2024-03-21T13:00:11Z</time>
      </trkpt>
      <trkpt lat="42.80723344" lon="13.44110844">
        <ele>635.00000</ele>
        <time>2024-03-21T13:00:12Z</time>
      </trkpt>
      <trkpt lat="42.80722196" lon="13.44113828">
        <ele>634.00000</ele>
        <time>2024-03-21T13:00:13Z</time>
      </trkpt>
      <trkpt lat="42.80721374" lon="13.44116913">
        <ele>634.00000</ele>
        <time>2024-03-21T13:00:14Z</time>
      </trkpt>
      <trkpt lat="42.80713981" lon="13.44124456">
        <ele>633.00000</ele>
        <time>2024-03-21T13:00:19Z</time>
      </trkpt>
      <trkpt lat="42.80712691" lon="13.44125797">
        <ele>633.00000</ele>
        <time>2024-03-21T13:00:20Z</time>
      </trkpt>
      <trkpt lat="42.80711467" lon="13.44128438">
        <ele>633.00000</ele>
        <time>2024-03-21T13:00:21Z</time>
      </trkpt>
      <trkpt lat="42.80710193" lon="13.44131296">
        <ele>633.00000</ele>
        <time>2024-03-21T13:00:22Z</time>
      </trkpt>
      <trkpt lat="42.80709162" lon="13.44134037">
        <ele>633.00000</ele>
        <time>2024-03-21T13:00:23Z</time>
      </trkpt>
      <trkpt lat="42.80708760" lon="13.44136392">
        <ele>633.00000</ele>
        <time>2024-03-21T13:00:24Z</time>
      </trkpt>
      <trkpt lat="42.80707863" lon="13.44138756">
        <ele>633.00000</ele>
        <time>2024-03-21T13:00:25Z</time>
      </trkpt>
      <trkpt lat="42.80706974" lon="13.44140759">
        <ele>634.00000</ele>
        <time>2024-03-21T13:00:26Z</time>
      </trkpt>
      <trkpt lat="42.80706027" lon="13.44142712">
        <ele>634.00000</ele>
        <time>2024-03-21T13:00:27Z</time>
      </trkpt>
      <trkpt lat="42.80705046" lon="13.44144749">
        <ele>634.00000</ele>
        <time>2024-03-21T13:00:28Z</time>
      </trkpt>
      <trkpt lat="42.80704325" lon="13.44147163">
        <ele>634.00000</ele>
        <time>2024-03-21T13:00:29Z</time>
      </trkpt>
      <trkpt lat="42.80704317" lon="13.44150097">
        <ele>634.00000</ele>
        <time>2024-03-21T13:00:30Z</time>
      </trkpt>
      <trkpt lat="42.80704971" lon="13.44153324">
        <ele>634.00000</ele>
        <time>2024-03-21T13:00:31Z</time>
      </trkpt>
      <trkpt lat="42.80706186" lon="13.44156299">
        <ele>635.00000</ele>
        <time>2024-03-21T13:00:32Z</time>
      </trkpt>
      <trkpt lat="42.80707963" lon="13.44158722">
        <ele>635.00000</ele>
        <time>2024-03-21T13:00:33Z</time>
      </trkpt>
      <trkpt lat="42.80709480" lon="13.44161395">
        <ele>635.00000</ele>
        <time>2024-03-21T13:00:34Z</time>
      </trkpt>
      <trkpt lat="42.80711249" lon="13.44163499">
        <ele>635.00000</ele>
        <time>2024-03-21T13:00:35Z</time>
      </trkpt>
      <trkpt lat="42.80713202" lon="13.44165075">
        <ele>635.00000</ele>
        <time>2024-03-21T13:00:36Z</time>
      </trkpt>
      <trkpt lat="42.80715004" lon="13.44165913">
        <ele>635.00000</ele>
        <time>2024-03-21T13:00:37Z</time>
      </trkpt>
      <trkpt lat="42.80716454" lon="13.44166223">
        <ele>635.00000</ele>
        <time>2024-03-21T13:00:38Z</time>
      </trkpt>
      <trkpt lat="42.80717820" lon="13.44166391">
        <ele>635.00000</ele>
        <time>2024-03-21T13:00:39Z</time>
      </trkpt>
      <trkpt lat="42.80719287" lon="13.44166642">
        <ele>635.00000</ele>
        <time>2024-03-21T13:00:40Z</time>
      </trkpt>
      <trkpt lat="42.80720989" lon="13.44166726">
        <ele>635.00000</ele>
        <time>2024-03-21T13:00:41Z</time>
      </trkpt>
      <trkpt lat="42.80722606" lon="13.44166642">
        <ele>635.00000</ele>
        <time>2024-03-21T13:00:42Z</time>
      </trkpt>
      <trkpt lat="42.80724199" lon="13.44166609">
        <ele>635.00000</ele>
        <time>2024-03-21T13:00:43Z</time>
      </trkpt>
      <trkpt lat="42.80726102" lon="13.44166249">
        <ele>635.00000</ele>
        <time>2024-03-21T13:00:44Z</time>
      </trkpt>
      <trkpt lat="42.80727887" lon="13.44165997">
        <ele>635.00000</ele>
        <time>2024-03-21T13:00:45Z</time>
      </trkpt>
      <trkpt lat="42.80729572" lon="13.44165117">
        <ele>636.00000</ele>
        <time>2024-03-21T13:00:46Z</time>
      </trkpt>
      <trkpt lat="42.80731357" lon="13.44164270">
        <ele>636.00000</ele>
        <time>2024-03-21T13:00:47Z</time>
      </trkpt>
      <trkpt lat="42.80733042" lon="13.44163550">
        <ele>636.00000</ele>
        <time>2024-03-21T13:00:48Z</time>
      </trkpt>
      <trkpt lat="42.80734844" lon="13.44162669">
        <ele>636.00000</ele>
        <time>2024-03-21T13:00:49Z</time>
      </trkpt>
      <trkpt lat="42.80736529" lon="13.44161655">
        <ele>636.00000</ele>
        <time>2024-03-21T13:00:50Z</time>
      </trkpt>
      <trkpt lat="42.80738281" lon="13.44160499">
        <ele>636.00000</ele>
        <time>2024-03-21T13:00:51Z</time>
      </trkpt>
      <trkpt lat="42.80740141" lon="13.44159451">
        <ele>636.00000</ele>
        <time>2024-03-21T13:00:52Z</time>
      </trkpt>
      <trkpt lat="42.80741943" lon="13.44158613">
        <ele>636.00000</ele>
        <time>2024-03-21T13:00:53Z</time>
      </trkpt>
      <trkpt lat="42.80743905" lon="13.44157766">
        <ele>636.00000</ele>
        <time>2024-03-21T13:00:54Z</time>
      </trkpt>
      <trkpt lat="42.80745724" lon="13.44156919">
        <ele>637.00000</ele>
        <time>2024-03-21T13:00:55Z</time>
      </trkpt>
      <trkpt lat="42.80747534" lon="13.44155578">
        <ele>637.00000</ele>
        <time>2024-03-21T13:00:56Z</time>
      </trkpt>
      <trkpt lat="42.80749026" lon="13.44154355">
        <ele>637.00000</ele>
        <time>2024-03-21T13:00:57Z</time>
      </trkpt>
      <trkpt lat="42.80750426" lon="13.44153206">
        <ele>637.00000</ele>
        <time>2024-03-21T13:00:58Z</time>
      </trkpt>
      <trkpt lat="42.80752044" lon="13.44151882">
        <ele>638.00000</ele>
        <time>2024-03-21T13:00:59Z</time>
      </trkpt>
      <trkpt lat="42.80753737" lon="13.44150608">
        <ele>638.00000</ele>
        <time>2024-03-21T13:01:00Z</time>
      </trkpt>
      <trkpt lat="42.80755422" lon="13.44149409">
        <ele>638.00000</ele>
        <time>2024-03-21T13:01:01Z</time>
      </trkpt>
      <trkpt lat="42.80757207" lon="13.44148395">
        <ele>639.00000</ele>
        <time>2024-03-21T13:01:02Z</time>
      </trkpt>
      <trkpt lat="42.80759252" lon="13.44147582">
        <ele>639.00000</ele>
        <time>2024-03-21T13:01:03Z</time>
      </trkpt>
      <trkpt lat="42.80761264" lon="13.44147012">
        <ele>639.00000</ele>
        <time>2024-03-21T13:01:04Z</time>
      </trkpt>
      <trkpt lat="42.80763359" lon="13.44146509">
        <ele>639.00000</ele>
        <time>2024-03-21T13:01:05Z</time>
      </trkpt>
      <trkpt lat="42.80765513" lon="13.44146065">
        <ele>639.00000</ele>
        <time>2024-03-21T13:01:06Z</time>
      </trkpt>
      <trkpt lat="42.80767433" lon="13.44145813">
        <ele>640.00000</ele>
        <time>2024-03-21T13:01:07Z</time>
      </trkpt>
      <trkpt lat="42.80769411" lon="13.44145470">
        <ele>640.00000</ele>
        <time>2024-03-21T13:01:08Z</time>
      </trkpt>
      <trkpt lat="42.80771641" lon="13.44144816">
        <ele>640.00000</ele>
        <time>2024-03-21T13:01:09Z</time>
      </trkpt>
      <trkpt lat="42.80773971" lon="13.44143911">
        <ele>640.00000</ele>
        <time>2024-03-21T13:01:10Z</time>
      </trkpt>
      <trkpt lat="42.80776594" lon="13.44142922">
        <ele>641.00000</ele>
        <time>2024-03-21T13:01:11Z</time>
      </trkpt>
      <trkpt lat="42.80779117" lon="13.44142084">
        <ele>641.00000</ele>
        <time>2024-03-21T13:01:12Z</time>
      </trkpt>
      <trkpt lat="42.80781581" lon="13.44141069">
        <ele>641.00000</ele>
        <time>2024-03-21T13:01:13Z</time>
      </trkpt>
      <trkpt lat="42.80783761" lon="13.44140432">
        <ele>642.00000</ele>
        <time>2024-03-21T13:01:14Z</time>
      </trkpt>
      <trkpt lat="42.80785982" lon="13.44140122">
        <ele>642.00000</ele>
        <time>2024-03-21T13:01:15Z</time>
      </trkpt>
      <trkpt lat="42.80788354" lon="13.44139183">
        <ele>643.00000</ele>
        <time>2024-03-21T13:01:16Z</time>
      </trkpt>
      <trkpt lat="42.80790818" lon="13.44138119">
        <ele>643.00000</ele>
        <time>2024-03-21T13:01:17Z</time>
      </trkpt>
      <trkpt lat="42.80793316" lon="13.44137272">
        <ele>644.00000</ele>
        <time>2024-03-21T13:01:18Z</time>
      </trkpt>
      <trkpt lat="42.80795923" lon="13.44136342">
        <ele>644.00000</ele>
        <time>2024-03-21T13:01:19Z</time>
      </trkpt>
      <trkpt lat="42.80806618" lon="13.44136090">
        <ele>646.00000</ele>
        <time>2024-03-21T13:01:23Z</time>
      </trkpt>
      <trkpt lat="42.80809326" lon="13.44136493">
        <ele>647.00000</ele>
        <time>2024-03-21T13:01:24Z</time>
      </trkpt>
      <trkpt lat="42.80816324" lon="13.44137331">
        <ele>649.00000</ele>
        <time>2024-03-21T13:01:26Z</time>
      </trkpt>
      <trkpt lat="42.80818965" lon="13.44137314">
        <ele>650.00000</ele>
        <time>2024-03-21T13:01:27Z</time>
      </trkpt>
      <trkpt lat="42.80828327" lon="13.44140566">
        <ele>652.00000</ele>
        <time>2024-03-21T13:01:30Z</time>
      </trkpt>
      <trkpt lat="42.80839417" lon="13.44141975">
        <ele>657.00000</ele>
        <time>2024-03-21T13:01:33Z</time>
      </trkpt>
      <trkpt lat="42.80857488" lon="13.44147523">
        <ele>666.00000</ele>
        <time>2024-03-21T13:01:38Z</time>
      </trkpt>
      <trkpt lat="42.80860363" lon="13.44149032">
        <ele>667.00000</ele>
        <time>2024-03-21T13:01:39Z</time>
      </trkpt>
      <trkpt lat="42.80874109" lon="13.44154221">
        <ele>668.00000</ele>
        <time>2024-03-21T13:01:43Z</time>
      </trkpt>
      <trkpt lat="42.80884553" lon="13.44158914">
        <ele>670.00000</ele>
        <time>2024-03-21T13:01:46Z</time>
      </trkpt>
      <trkpt lat="42.80892834" lon="13.44164346">
        <ele>671.00000</ele>
        <time>2024-03-21T13:01:49Z</time>
      </trkpt>
      <trkpt lat="42.80900009" lon="13.44169165">
        <ele>670.00000</ele>
        <time>2024-03-21T13:01:52Z</time>
      </trkpt>
      <trkpt lat="42.80904586" lon="13.44171437">
        <ele>670.00000</ele>
        <time>2024-03-21T13:01:54Z</time>
      </trkpt>
      <trkpt lat="42.80911342" lon="13.44176399">
        <ele>669.00000</ele>
        <time>2024-03-21T13:01:57Z</time>
      </trkpt>
      <trkpt lat="42.80915264" lon="13.44181185">
        <ele>669.00000</ele>
        <time>2024-03-21T13:01:59Z</time>
      </trkpt>
      <trkpt lat="42.80918760" lon="13.44190313">
        <ele>666.00000</ele>
        <time>2024-03-21T13:02:02Z</time>
      </trkpt>
      <trkpt lat="42.80921735" lon="13.44195476">
        <ele>665.00000</ele>
        <time>2024-03-21T13:02:04Z</time>
      </trkpt>
      <trkpt lat="42.80929187" lon="13.44206909">
        <ele>662.00000</ele>
        <time>2024-03-21T13:02:08Z</time>
      </trkpt>
      <trkpt lat="42.80935993" lon="13.44213983">
        <ele>661.00000</ele>
        <time>2024-03-21T13:02:11Z</time>
      </trkpt>
      <trkpt lat="42.80944232" lon="13.44216406">
        <ele>661.00000</ele>
        <time>2024-03-21T13:02:14Z</time>
      </trkpt>
      <trkpt lat="42.80946529" lon="13.44216322">
        <ele>661.00000</ele>
        <time>2024-03-21T13:02:15Z</time>
      </trkpt>
      <trkpt lat="42.80957509" lon="13.44213330">
        <ele>663.00000</ele>
        <time>2024-03-21T13:02:19Z</time>
      </trkpt>
      <trkpt lat="42.80962237" lon="13.44211980">
        <ele>663.00000</ele>
        <time>2024-03-21T13:02:21Z</time>
      </trkpt>
      <trkpt lat="42.80969202" lon="13.44210966">
        <ele>664.00000</ele>
        <time>2024-03-21T13:02:24Z</time>
      </trkpt>
      <trkpt lat="42.80976553" lon="13.44209382">
        <ele>664.00000</ele>
        <time>2024-03-21T13:02:27Z</time>
      </trkpt>
      <trkpt lat="42.80978808" lon="13.44209063">
        <ele>664.00000</ele>
        <time>2024-03-21T13:02:28Z</time>
      </trkpt>
      <trkpt lat="42.80990869" lon="13.44209985">
        <ele>663.00000</ele>
        <time>2024-03-21T13:02:33Z</time>
      </trkpt>
      <trkpt lat="42.80993233" lon="13.44209508">
        <ele>663.00000</ele>
        <time>2024-03-21T13:02:34Z</time>
      </trkpt>
      <trkpt lat="42.81000550" lon="13.44206289">
        <ele>663.00000</ele>
        <time>2024-03-21T13:02:38Z</time>
      </trkpt>
      <trkpt lat="42.81001581" lon="13.44204990">
        <ele>663.00000</ele>
        <time>2024-03-21T13:02:39Z</time>
      </trkpt>
      <trkpt lat="42.81004649" lon="13.44201293">
        <ele>662.00000</ele>
        <time>2024-03-21T13:02:41Z</time>
      </trkpt>
      <trkpt lat="42.81007885" lon="13.44196608">
        <ele>662.00000</ele>
        <time>2024-03-21T13:02:44Z</time>
      </trkpt>
      <trkpt lat="42.81008966" lon="13.44196021">
        <ele>662.00000</ele>
        <time>2024-03-21T13:02:45Z</time>
      </trkpt>
      <trkpt lat="42.81010039" lon="13.44195501">
        <ele>662.00000</ele>
        <time>2024-03-21T13:02:46Z</time>
      </trkpt>
      <trkpt lat="42.81012059" lon="13.44194973">
        <ele>661.00000</ele>
        <time>2024-03-21T13:02:48Z</time>
      </trkpt>
      <trkpt lat="42.81013945" lon="13.44196893">
        <ele>661.00000</ele>
        <time>2024-03-21T13:02:50Z</time>
      </trkpt>
      <trkpt lat="42.81014221" lon="13.44198469">
        <ele>661.00000</ele>
        <time>2024-03-21T13:02:51Z</time>
      </trkpt>
      <trkpt lat="42.81011682" lon="13.44201059">
        <ele>661.00000</ele>
        <time>2024-03-21T13:02:54Z</time>
      </trkpt>
      <trkpt lat="42.81008941" lon="13.44199307">
        <ele>662.00000</ele>
        <time>2024-03-21T13:02:56Z</time>
      </trkpt>
      <trkpt lat="42.81006409" lon="13.44193255">
        <ele>662.00000</ele>
        <time>2024-03-21T13:03:00Z</time>
      </trkpt>
      <trkpt lat="42.81007692" lon="13.44191956">
        <ele>662.00000</ele>
        <time>2024-03-21T13:03:02Z</time>
      </trkpt>
      <trkpt lat="42.81011036" lon="13.44194252">
        <ele>661.00000</ele>
        <time>2024-03-21T13:03:05Z</time>
      </trkpt>
      <trkpt lat="42.81011992" lon="13.44195853">
        <ele>661.00000</ele>
        <time>2024-03-21T13:03:06Z</time>
      </trkpt>
      <trkpt lat="42.81012503" lon="13.44197723">
        <ele>661.00000</ele>
        <time>2024-03-21T13:03:07Z</time>
      </trkpt>
      <trkpt lat="42.81011883" lon="13.44200279">
        <ele>661.00000</ele>
        <time>2024-03-21T13:03:09Z</time>
      </trkpt>
      <trkpt lat="42.81010265" lon="13.44199994">
        <ele>662.00000</ele>
        <time>2024-03-21T13:03:11Z</time>
      </trkpt>
      <trkpt lat="42.81009645" lon="13.44200304">
        <ele>662.00000</ele>
        <time>2024-03-21T13:03:12Z</time>
      </trkpt>
      <trkpt lat="42.81008278" lon="13.44202534">
        <ele>662.00000</ele>
        <time>2024-03-21T13:03:14Z</time>
      </trkpt>
      <trkpt lat="42.81007055" lon="13.44202727">
        <ele>662.00000</ele>
        <time>2024-03-21T13:03:15Z</time>
      </trkpt>
      <trkpt lat="42.81005236" lon="13.44200857">
        <ele>662.00000</ele>
        <time>2024-03-21T13:03:17Z</time>
      </trkpt>
      <trkpt lat="42.81005227" lon="13.44197496">
        <ele>663.00000</ele>
        <time>2024-03-21T13:03:19Z</time>
      </trkpt>
      <trkpt lat="42.81006267" lon="13.44196138">
        <ele>662.00000</ele>
        <time>2024-03-21T13:03:20Z</time>
      </trkpt>
      <trkpt lat="42.81008563" lon="13.44194529">
        <ele>662.00000</ele>
        <time>2024-03-21T13:03:22Z</time>
      </trkpt>
      <trkpt lat="42.81010391" lon="13.44194060">
        <ele>662.00000</ele>
        <time>2024-03-21T13:03:24Z</time>
      </trkpt>
      <trkpt lat="42.81012293" lon="13.44195091">
        <ele>661.00000</ele>
        <time>2024-03-21T13:03:26Z</time>
      </trkpt>
      <trkpt lat="42.81013316" lon="13.44196122">
        <ele>661.00000</ele>
        <time>2024-03-21T13:03:27Z</time>
      </trkpt>
      <trkpt lat="42.81013559" lon="13.44199097">
        <ele>661.00000</ele>
        <time>2024-03-21T13:03:29Z</time>
      </trkpt>
      <trkpt lat="42.81011782" lon="13.44201117">
        <ele>661.00000</ele>
        <time>2024-03-21T13:03:31Z</time>
      </trkpt>
      <trkpt lat="42.81010877" lon="13.44201352">
        <ele>661.00000</ele>
        <time>2024-03-21T13:03:32Z</time>
      </trkpt>
      <trkpt lat="42.81010374" lon="13.44201327">
        <ele>662.00000</ele>
        <time>2024-03-21T13:03:33Z</time>
      </trkpt>
      <trkpt lat="42.81011899" lon="13.44201696">
        <ele>661.00000</ele>
        <time>2024-03-21T13:04:04Z</time>
      </trkpt>
      <trkpt lat="42.81011179" lon="13.44201897">
        <ele>661.00000</ele>
        <time>2024-03-21T13:04:05Z</time>
      </trkpt>
      <trkpt lat="42.81009703" lon="13.44201050">
        <ele>662.00000</ele>
        <time>2024-03-21T13:04:06Z</time>
      </trkpt>
      <trkpt lat="42.81008128" lon="13.44199022">
        <ele>662.00000</ele>
        <time>2024-03-21T13:04:07Z</time>
      </trkpt>
      <trkpt lat="42.81006342" lon="13.44196935">
        <ele>662.00000</ele>
        <time>2024-03-21T13:04:08Z</time>
      </trkpt>
      <trkpt lat="42.81004481" lon="13.44195091">
        <ele>663.00000</ele>
        <time>2024-03-21T13:04:09Z</time>
      </trkpt>
      <trkpt lat="42.81002621" lon="13.44193314">
        <ele>663.00000</ele>
        <time>2024-03-21T13:04:10Z</time>
      </trkpt>
      <trkpt lat="42.81000534" lon="13.44191579">
        <ele>664.00000</ele>
        <time>2024-03-21T13:04:11Z</time>
      </trkpt>
      <trkpt lat="42.80998245" lon="13.44190313">
        <ele>664.00000</ele>
        <time>2024-03-21T13:04:12Z</time>
      </trkpt>
      <trkpt lat="42.80996141" lon="13.44188779">
        <ele>665.00000</ele>
        <time>2024-03-21T13:04:13Z</time>
      </trkpt>
      <trkpt lat="42.80993912" lon="13.44187187">
        <ele>665.00000</ele>
        <time>2024-03-21T13:04:14Z</time>
      </trkpt>
      <trkpt lat="42.80991967" lon="13.44185661">
        <ele>666.00000</ele>
        <time>2024-03-21T13:04:15Z</time>
      </trkpt>
      <trkpt lat="42.80990350" lon="13.44184177">
        <ele>666.00000</ele>
        <time>2024-03-21T13:04:16Z</time>
      </trkpt>
      <trkpt lat="42.80988774" lon="13.44182635">
        <ele>667.00000</ele>
        <time>2024-03-21T13:04:17Z</time>
      </trkpt>
      <trkpt lat="42.80987106" lon="13.44181210">
        <ele>667.00000</ele>
        <time>2024-03-21T13:04:18Z</time>
      </trkpt>
      <trkpt lat="42.80985211" lon="13.44179769">
        <ele>668.00000</ele>
        <time>2024-03-21T13:04:19Z</time>
      </trkpt>
      <trkpt lat="42.80983493" lon="13.44178277">
        <ele>669.00000</ele>
        <time>2024-03-21T13:04:20Z</time>
      </trkpt>
      <trkpt lat="42.80981917" lon="13.44176474">
        <ele>669.00000</ele>
        <time>2024-03-21T13:04:21Z</time>
      </trkpt>
      <trkpt lat="42.80980367" lon="13.44174312">
        <ele>670.00000</ele>
        <time>2024-03-21T13:04:22Z</time>
      </trkpt>
      <trkpt lat="42.80978984" lon="13.44171965">
        <ele>670.00000</ele>
        <time>2024-03-21T13:04:23Z</time>
      </trkpt>
      <trkpt lat="42.80977617" lon="13.44169601">
        <ele>671.00000</ele>
        <time>2024-03-21T13:04:24Z</time>
      </trkpt>
      <trkpt lat="42.80976125" lon="13.44167238">
        <ele>672.00000</ele>
        <time>2024-03-21T13:04:25Z</time>
      </trkpt>
      <trkpt lat="42.80974826" lon="13.44164715">
        <ele>672.00000</ele>
        <time>2024-03-21T13:04:26Z</time>
      </trkpt>
      <trkpt lat="42.80973410" lon="13.44162384">
        <ele>672.00000</ele>
        <time>2024-03-21T13:04:27Z</time>
      </trkpt>
      <trkpt lat="42.80972270" lon="13.44159853">
        <ele>673.00000</ele>
        <time>2024-03-21T13:04:28Z</time>
      </trkpt>
      <trkpt lat="42.80971113" lon="13.44157255">
        <ele>673.00000</ele>
        <time>2024-03-21T13:04:29Z</time>
      </trkpt>
      <trkpt lat="42.80970116" lon="13.44154723">
        <ele>673.00000</ele>
        <time>2024-03-21T13:04:30Z</time>
      </trkpt>
      <trkpt lat="42.80969378" lon="13.44151899">
        <ele>673.00000</ele>
        <time>2024-03-21T13:04:31Z</time>
      </trkpt>
      <trkpt lat="42.80968775" lon="13.44149418">
        <ele>673.00000</ele>
        <time>2024-03-21T13:04:32Z</time>
      </trkpt>
      <trkpt lat="42.80968330" lon="13.44147364">
        <ele>673.00000</ele>
        <time>2024-03-21T13:04:33Z</time>
      </trkpt>
      <trkpt lat="42.80967878" lon="13.44145269">
        <ele>674.00000</ele>
        <time>2024-03-21T13:04:34Z</time>
      </trkpt>
      <trkpt lat="42.80967417" lon="13.44142804">
        <ele>674.00000</ele>
        <time>2024-03-21T13:04:35Z</time>
      </trkpt>
      <trkpt lat="42.80966838" lon="13.44140407">
        <ele>674.00000</ele>
        <time>2024-03-21T13:04:36Z</time>
      </trkpt>
      <trkpt lat="42.80966151" lon="13.44138370">
        <ele>674.00000</ele>
        <time>2024-03-21T13:04:37Z</time>
      </trkpt>
      <trkpt lat="42.80965439" lon="13.44136040">
        <ele>674.00000</ele>
        <time>2024-03-21T13:04:38Z</time>
      </trkpt>
      <trkpt lat="42.80963636" lon="13.44131137">
        <ele>674.00000</ele>
        <time>2024-03-21T13:04:40Z</time>
      </trkpt>
      <trkpt lat="42.80962865" lon="13.44128865">
        <ele>673.00000</ele>
        <time>2024-03-21T13:04:41Z</time>
      </trkpt>
      <trkpt lat="42.80962279" lon="13.44126678">
        <ele>673.00000</ele>
        <time>2024-03-21T13:04:42Z</time>
      </trkpt>
      <trkpt lat="42.80960963" lon="13.44124943">
        <ele>673.00000</ele>
        <time>2024-03-21T13:04:43Z</time>
      </trkpt>
      <trkpt lat="42.80959672" lon="13.44123451">
        <ele>673.00000</ele>
        <time>2024-03-21T13:04:44Z</time>
      </trkpt>
      <trkpt lat="42.80958021" lon="13.44121774">
        <ele>674.00000</ele>
        <time>2024-03-21T13:04:45Z</time>
      </trkpt>
      <trkpt lat="42.80956629" lon="13.44120089">
        <ele>674.00000</ele>
        <time>2024-03-21T13:04:46Z</time>
      </trkpt>
      <trkpt lat="42.80955187" lon="13.44117868">
        <ele>674.00000</ele>
        <time>2024-03-21T13:04:47Z</time>
      </trkpt>
      <trkpt lat="42.80952882" lon="13.44115748">
        <ele>674.00000</ele>
        <time>2024-03-21T13:04:48Z</time>
      </trkpt>
      <trkpt lat="42.80951349" lon="13.44113250">
        <ele>674.00000</ele>
        <time>2024-03-21T13:04:49Z</time>
      </trkpt>
      <trkpt lat="42.80949563" lon="13.44110936">
        <ele>675.00000</ele>
        <time>2024-03-21T13:04:50Z</time>
      </trkpt>
      <trkpt lat="42.80948532" lon="13.44108288">
        <ele>675.00000</ele>
        <time>2024-03-21T13:04:51Z</time>
      </trkpt>
      <trkpt lat="42.80947040" lon="13.44106226">
        <ele>675.00000</ele>
        <time>2024-03-21T13:04:52Z</time>
      </trkpt>
      <trkpt lat="42.80945498" lon="13.44104625">
        <ele>675.00000</ele>
        <time>2024-03-21T13:04:53Z</time>
      </trkpt>
      <trkpt lat="42.80943897" lon="13.44102839">
        <ele>675.00000</ele>
        <time>2024-03-21T13:04:54Z</time>
      </trkpt>
      <trkpt lat="42.80942103" lon="13.44100970">
        <ele>676.00000</ele>
        <time>2024-03-21T13:04:55Z</time>
      </trkpt>
      <trkpt lat="42.80939882" lon="13.44099520">
        <ele>676.00000</ele>
        <time>2024-03-21T13:04:56Z</time>
      </trkpt>
      <trkpt lat="42.80938164" lon="13.44098070">
        <ele>676.00000</ele>
        <time>2024-03-21T13:04:57Z</time>
      </trkpt>
      <trkpt lat="42.80936370" lon="13.44096436">
        <ele>677.00000</ele>
        <time>2024-03-21T13:04:58Z</time>
      </trkpt>
      <trkpt lat="42.80934576" lon="13.44094499">
        <ele>677.00000</ele>
        <time>2024-03-21T13:04:59Z</time>
      </trkpt>
      <trkpt lat="42.80932523" lon="13.44092806">
        <ele>678.00000</ele>
        <time>2024-03-21T13:05:00Z</time>
      </trkpt>
      <trkpt lat="42.80930612" lon="13.44091373">
        <ele>678.00000</ele>
        <time>2024-03-21T13:05:01Z</time>
      </trkpt>
      <trkpt lat="42.80928717" lon="13.44089973">
        <ele>678.00000</ele>
        <time>2024-03-21T13:05:02Z</time>
      </trkpt>
      <trkpt lat="42.80926815" lon="13.44088314">
        <ele>679.00000</ele>
        <time>2024-03-21T13:05:03Z</time>
      </trkpt>
      <trkpt lat="42.80924929" lon="13.44086562">
        <ele>679.00000</ele>
        <time>2024-03-21T13:05:04Z</time>
      </trkpt>
      <trkpt lat="42.80922967" lon="13.44084642">
        <ele>680.00000</ele>
        <time>2024-03-21T13:05:05Z</time>
      </trkpt>
      <trkpt lat="42.80921014" lon="13.44083201">
        <ele>680.00000</ele>
        <time>2024-03-21T13:05:06Z</time>
      </trkpt>
      <trkpt lat="42.80919137" lon="13.44081155">
        <ele>681.00000</ele>
        <time>2024-03-21T13:05:07Z</time>
      </trkpt>
      <trkpt lat="42.80917268" lon="13.44078448">
        <ele>681.00000</ele>
        <time>2024-03-21T13:05:08Z</time>
      </trkpt>
      <trkpt lat="42.80915650" lon="13.44076680">
        <ele>681.00000</ele>
        <time>2024-03-21T13:05:09Z</time>
      </trkpt>
      <trkpt lat="42.80913747" lon="13.44075674">
        <ele>682.00000</ele>
        <time>2024-03-21T13:05:10Z</time>
      </trkpt>
      <trkpt lat="42.80911593" lon="13.44074643">
        <ele>682.00000</ele>
        <time>2024-03-21T13:05:11Z</time>
      </trkpt>
      <trkpt lat="42.80909389" lon="13.44073746">
        <ele>682.00000</ele>
        <time>2024-03-21T13:05:12Z</time>
      </trkpt>
      <trkpt lat="42.80907033" lon="13.44072505">
        <ele>683.00000</ele>
        <time>2024-03-21T13:05:13Z</time>
      </trkpt>
      <trkpt lat="42.80904955" lon="13.44070075">
        <ele>683.00000</ele>
        <time>2024-03-21T13:05:14Z</time>
      </trkpt>
      <trkpt lat="42.80902951" lon="13.44067258">
        <ele>683.00000</ele>
        <time>2024-03-21T13:05:15Z</time>
      </trkpt>
      <trkpt lat="42.80900982" lon="13.44064903">
        <ele>683.00000</ele>
        <time>2024-03-21T13:05:16Z</time>
      </trkpt>
      <trkpt lat="42.80899423" lon="13.44062414">
        <ele>683.00000</ele>
        <time>2024-03-21T13:05:17Z</time>
      </trkpt>
      <trkpt lat="42.80897973" lon="13.44059698">
        <ele>683.00000</ele>
        <time>2024-03-21T13:05:18Z</time>
      </trkpt>
      <trkpt lat="42.80896221" lon="13.44057125">
        <ele>683.00000</ele>
        <time>2024-03-21T13:05:19Z</time>
      </trkpt>
      <trkpt lat="42.80894368" lon="13.44054861">
        <ele>683.00000</ele>
        <time>2024-03-21T13:05:20Z</time>
      </trkpt>
      <trkpt lat="42.80892893" lon="13.44052649">
        <ele>683.00000</ele>
        <time>2024-03-21T13:05:21Z</time>
      </trkpt>
      <trkpt lat="42.80891166" lon="13.44050511">
        <ele>684.00000</ele>
        <time>2024-03-21T13:05:22Z</time>
      </trkpt>
      <trkpt lat="42.80889457" lon="13.44047913">
        <ele>684.00000</ele>
        <time>2024-03-21T13:05:23Z</time>
      </trkpt>
      <trkpt lat="42.80888384" lon="13.44045775">
        <ele>684.00000</ele>
        <time>2024-03-21T13:05:24Z</time>
      </trkpt>
      <trkpt lat="42.80887118" lon="13.44043537">
        <ele>684.00000</ele>
        <time>2024-03-21T13:05:25Z</time>
      </trkpt>
      <trkpt lat="42.80885886" lon="13.44041207">
        <ele>684.00000</ele>
        <time>2024-03-21T13:05:26Z</time>
      </trkpt>
      <trkpt lat="42.80885090" lon="13.44038818">
        <ele>684.00000</ele>
        <time>2024-03-21T13:05:27Z</time>
      </trkpt>
      <trkpt lat="42.80883438" lon="13.44036530">
        <ele>684.00000</ele>
        <time>2024-03-21T13:05:28Z</time>
      </trkpt>
      <trkpt lat="42.80881435" lon="13.44034401">
        <ele>684.00000</ele>
        <time>2024-03-21T13:05:29Z</time>
      </trkpt>
      <trkpt lat="42.80879759" lon="13.44032029">
        <ele>685.00000</ele>
        <time>2024-03-21T13:05:30Z</time>
      </trkpt>
      <trkpt lat="42.80878242" lon="13.44029657">
        <ele>685.00000</ele>
        <time>2024-03-21T13:05:31Z</time>
      </trkpt>
      <trkpt lat="42.80877077" lon="13.44027084">
        <ele>685.00000</ele>
        <time>2024-03-21T13:05:32Z</time>
      </trkpt>
      <trkpt lat="42.80875811" lon="13.44023865">
        <ele>685.00000</ele>
        <time>2024-03-21T13:05:33Z</time>
      </trkpt>
      <trkpt lat="42.80874386" lon="13.44020521">
        <ele>684.00000</ele>
        <time>2024-03-21T13:05:34Z</time>
      </trkpt>
      <trkpt lat="42.80873296" lon="13.44017973">
        <ele>684.00000</ele>
        <time>2024-03-21T13:05:35Z</time>
      </trkpt>
      <trkpt lat="42.80872064" lon="13.44014620">
        <ele>684.00000</ele>
        <time>2024-03-21T13:05:36Z</time>
      </trkpt>
      <trkpt lat="42.80870681" lon="13.44010513">
        <ele>683.00000</ele>
        <time>2024-03-21T13:05:37Z</time>
      </trkpt>
      <trkpt lat="42.80869340" lon="13.44007168">
        <ele>683.00000</ele>
        <time>2024-03-21T13:05:38Z</time>
      </trkpt>
      <trkpt lat="42.80867840" lon="13.44003765">
        <ele>683.00000</ele>
        <time>2024-03-21T13:05:39Z</time>
      </trkpt>
      <trkpt lat="42.80866591" lon="13.44000983">
        <ele>683.00000</ele>
        <time>2024-03-21T13:05:40Z</time>
      </trkpt>
      <trkpt lat="42.80865292" lon="13.43996616">
        <ele>682.00000</ele>
        <time>2024-03-21T13:05:41Z</time>
      </trkpt>
      <trkpt lat="42.80864755" lon="13.43992601">
        <ele>682.00000</ele>
        <time>2024-03-21T13:05:42Z</time>
      </trkpt>
      <trkpt lat="42.80863707" lon="13.43988234">
        <ele>683.00000</ele>
        <time>2024-03-21T13:05:43Z</time>
      </trkpt>
      <trkpt lat="42.80862987" lon="13.43984043">
        <ele>683.00000</ele>
        <time>2024-03-21T13:05:44Z</time>
      </trkpt>
      <trkpt lat="42.80862123" lon="13.43980128">
        <ele>683.00000</ele>
        <time>2024-03-21T13:05:45Z</time>
      </trkpt>
      <trkpt lat="42.80861746" lon="13.43976172">
        <ele>683.00000</ele>
        <time>2024-03-21T13:05:46Z</time>
      </trkpt>
      <trkpt lat="42.80861511" lon="13.43972970">
        <ele>682.00000</ele>
        <time>2024-03-21T13:05:47Z</time>
      </trkpt>
      <trkpt lat="42.80861319" lon="13.43969064">
        <ele>683.00000</ele>
        <time>2024-03-21T13:05:48Z</time>
      </trkpt>
      <trkpt lat="42.80861235" lon="13.43965234">
        <ele>683.00000</ele>
        <time>2024-03-21T13:05:49Z</time>
      </trkpt>
      <trkpt lat="42.80861981" lon="13.43961185">
        <ele>683.00000</ele>
        <time>2024-03-21T13:05:50Z</time>
      </trkpt>
      <trkpt lat="42.80862970" lon="13.43956936">
        <ele>683.00000</ele>
        <time>2024-03-21T13:05:51Z</time>
      </trkpt>
      <trkpt lat="42.80863934" lon="13.43952577">
        <ele>684.00000</ele>
        <time>2024-03-21T13:05:52Z</time>
      </trkpt>
      <trkpt lat="42.80864998" lon="13.43948235">
        <ele>684.00000</ele>
        <time>2024-03-21T13:05:53Z</time>
      </trkpt>
      <trkpt lat="42.80865769" lon="13.43943994">
        <ele>684.00000</ele>
        <time>2024-03-21T13:05:54Z</time>
      </trkpt>
      <trkpt lat="42.80866205" lon="13.43939987">
        <ele>685.00000</ele>
        <time>2024-03-21T13:05:55Z</time>
      </trkpt>
      <trkpt lat="42.80867177" lon="13.43936040">
        <ele>685.00000</ele>
        <time>2024-03-21T13:05:56Z</time>
      </trkpt>
      <trkpt lat="42.80868276" lon="13.43932201">
        <ele>685.00000</ele>
        <time>2024-03-21T13:05:57Z</time>
      </trkpt>
      <trkpt lat="42.80869265" lon="13.43928454">
        <ele>686.00000</ele>
        <time>2024-03-21T13:05:58Z</time>
      </trkpt>
      <trkpt lat="42.80870648" lon="13.43924649">
        <ele>686.00000</ele>
        <time>2024-03-21T13:05:59Z</time>
      </trkpt>
      <trkpt lat="42.80872148" lon="13.43921086">
        <ele>686.00000</ele>
        <time>2024-03-21T13:06:00Z</time>
      </trkpt>
      <trkpt lat="42.80874000" lon="13.43917851">
        <ele>686.00000</ele>
        <time>2024-03-21T13:06:01Z</time>
      </trkpt>
      <trkpt lat="42.80876196" lon="13.43914322">
        <ele>686.00000</ele>
        <time>2024-03-21T13:06:02Z</time>
      </trkpt>
      <trkpt lat="42.80878082" lon="13.43910777">
        <ele>686.00000</ele>
        <time>2024-03-21T13:06:03Z</time>
      </trkpt>
      <trkpt lat="42.80879792" lon="13.43906820">
        <ele>686.00000</ele>
        <time>2024-03-21T13:06:04Z</time>
      </trkpt>
      <trkpt lat="42.80882055" lon="13.43901950">
        <ele>686.00000</ele>
        <time>2024-03-21T13:06:05Z</time>
      </trkpt>
      <trkpt lat="42.80883891" lon="13.43897818">
        <ele>686.00000</ele>
        <time>2024-03-21T13:06:06Z</time>
      </trkpt>
      <trkpt lat="42.80885634" lon="13.43893585">
        <ele>687.00000</ele>
        <time>2024-03-21T13:06:07Z</time>
      </trkpt>
      <trkpt lat="42.80886640" lon="13.43890358">
        <ele>688.00000</ele>
        <time>2024-03-21T13:06:08Z</time>
      </trkpt>
      <trkpt lat="42.80888283" lon="13.43884952">
        <ele>688.00000</ele>
        <time>2024-03-21T13:06:09Z</time>
      </trkpt>
      <trkpt lat="42.80889800" lon="13.43879680">
        <ele>688.00000</ele>
        <time>2024-03-21T13:06:10Z</time>
      </trkpt>
      <trkpt lat="42.80890982" lon="13.43873905">
        <ele>688.00000</ele>
        <time>2024-03-21T13:06:11Z</time>
      </trkpt>
      <trkpt lat="42.80891963" lon="13.43868993">
        <ele>688.00000</ele>
        <time>2024-03-21T13:06:12Z</time>
      </trkpt>
      <trkpt lat="42.80893765" lon="13.43861239">
        <ele>688.00000</ele>
        <time>2024-03-21T13:06:13Z</time>
      </trkpt>
      <trkpt lat="42.80895366" lon="13.43854576">
        <ele>687.00000</ele>
        <time>2024-03-21T13:06:14Z</time>
      </trkpt>
      <trkpt lat="42.80897579" lon="13.43847669">
        <ele>687.00000</ele>
        <time>2024-03-21T13:06:15Z</time>
      </trkpt>
      <trkpt lat="42.80900001" lon="13.43842221">
        <ele>687.00000</ele>
        <time>2024-03-21T13:06:16Z</time>
      </trkpt>
      <trkpt lat="42.80903345" lon="13.43835046">
        <ele>686.00000</ele>
        <time>2024-03-21T13:06:17Z</time>
      </trkpt>
      <trkpt lat="42.80907142" lon="13.43826421">
        <ele>685.00000</ele>
        <time>2024-03-21T13:06:18Z</time>
      </trkpt>
      <trkpt lat="42.80910512" lon="13.43818835">
        <ele>683.00000</ele>
        <time>2024-03-21T13:06:19Z</time>
      </trkpt>
      <trkpt lat="42.80914141" lon="13.43811426">
        <ele>682.00000</ele>
        <time>2024-03-21T13:06:20Z</time>
      </trkpt>
      <trkpt lat="42.80917167" lon="13.43805701">
        <ele>681.00000</ele>
        <time>2024-03-21T13:06:21Z</time>
      </trkpt>
      <trkpt lat="42.80921333" lon="13.43798811">
        <ele>680.00000</ele>
        <time>2024-03-21T13:06:22Z</time>
      </trkpt>
      <trkpt lat="42.80927049" lon="13.43791075">
        <ele>680.00000</ele>
        <time>2024-03-21T13:06:23Z</time>
      </trkpt>
      <trkpt lat="42.80932137" lon="13.43785383">
        <ele>681.00000</ele>
        <time>2024-03-21T13:06:24Z</time>
      </trkpt>
      <trkpt lat="42.80937242" lon="13.43779893">
        <ele>682.00000</ele>
        <time>2024-03-21T13:06:25Z</time>
      </trkpt>
      <trkpt lat="42.80942522" lon="13.43774487">
        <ele>684.00000</ele>
        <time>2024-03-21T13:06:26Z</time>
      </trkpt>
      <trkpt lat="42.80948214" lon="13.43769206">
        <ele>686.00000</ele>
        <time>2024-03-21T13:06:27Z</time>
      </trkpt>
      <trkpt lat="42.80954073" lon="13.43763892">
        <ele>687.00000</ele>
        <time>2024-03-21T13:06:28Z</time>
      </trkpt>
      <trkpt lat="42.80960091" lon="13.43758435">
        <ele>688.00000</ele>
        <time>2024-03-21T13:06:29Z</time>
      </trkpt>
      <trkpt lat="42.80965070" lon="13.43753884">
        <ele>690.00000</ele>
        <time>2024-03-21T13:06:30Z</time>
      </trkpt>
      <trkpt lat="42.80971121" lon="13.43747355">
        <ele>690.00000</ele>
        <time>2024-03-21T13:06:31Z</time>
      </trkpt>
      <trkpt lat="42.80977299" lon="13.43737917">
        <ele>690.00000</ele>
        <time>2024-03-21T13:06:32Z</time>
      </trkpt>
      <trkpt lat="42.80981549" lon="13.43728646">
        <ele>689.00000</ele>
        <time>2024-03-21T13:06:33Z</time>
      </trkpt>
      <trkpt lat="42.80984155" lon="13.43717691">
        <ele>689.00000</ele>
        <time>2024-03-21T13:06:34Z</time>
      </trkpt>
      <trkpt lat="42.80985069" lon="13.43705361">
        <ele>688.00000</ele>
        <time>2024-03-21T13:06:35Z</time>
      </trkpt>
      <trkpt lat="42.80984943" lon="13.43694699">
        <ele>688.00000</ele>
        <time>2024-03-21T13:06:36Z</time>
      </trkpt>
      <trkpt lat="42.80983636" lon="13.43678237">
        <ele>685.00000</ele>
        <time>2024-03-21T13:06:37Z</time>
      </trkpt>
      <trkpt lat="42.80981549" lon="13.43664315">
        <ele>683.00000</ele>
        <time>2024-03-21T13:06:38Z</time>
      </trkpt>
      <trkpt lat="42.80977861" lon="13.43650912">
        <ele>680.00000</ele>
        <time>2024-03-21T13:06:39Z</time>
      </trkpt>
      <trkpt lat="42.80974005" lon="13.43640360">
        <ele>679.00000</ele>
        <time>2024-03-21T13:06:40Z</time>
      </trkpt>
      <trkpt lat="42.80969445" lon="13.43624141">
        <ele>674.00000</ele>
        <time>2024-03-21T13:06:41Z</time>
      </trkpt>
      <trkpt lat="42.80967392" lon="13.43610445">
        <ele>671.00000</ele>
        <time>2024-03-21T13:06:42Z</time>
      </trkpt>
      <trkpt lat="42.80966805" lon="13.43596480">
        <ele>670.00000</ele>
        <time>2024-03-21T13:06:43Z</time>
      </trkpt>
      <trkpt lat="42.80967568" lon="13.43585223">
        <ele>669.00000</ele>
        <time>2024-03-21T13:06:44Z</time>
      </trkpt>
      <trkpt lat="42.80970577" lon="13.43568569">
        <ele>670.00000</ele>
        <time>2024-03-21T13:06:45Z</time>
      </trkpt>
      <trkpt lat="42.80973318" lon="13.43554764">
        <ele>670.00000</ele>
        <time>2024-03-21T13:06:46Z</time>
      </trkpt>
      <trkpt lat="42.80975824" lon="13.43541327">
        <ele>671.00000</ele>
        <time>2024-03-21T13:06:47Z</time>
      </trkpt>
      <trkpt lat="42.80977810" lon="13.43528327">
        <ele>672.00000</ele>
        <time>2024-03-21T13:06:48Z</time>
      </trkpt>
      <trkpt lat="42.80979109" lon="13.43517950">
        <ele>672.00000</ele>
        <time>2024-03-21T13:06:49Z</time>
      </trkpt>
      <trkpt lat="42.80981113" lon="13.43505738">
        <ele>673.00000</ele>
        <time>2024-03-21T13:06:50Z</time>
      </trkpt>
      <trkpt lat="42.80984683" lon="13.43492176">
        <ele>674.00000</ele>
        <time>2024-03-21T13:06:51Z</time>
      </trkpt>
      <trkpt lat="42.80994784" lon="13.43475161">
        <ele>675.00000</ele>
        <time>2024-03-21T13:06:53Z</time>
      </trkpt>
      <trkpt lat="42.80999662" lon="13.43469402">
        <ele>676.00000</ele>
        <time>2024-03-21T13:06:54Z</time>
      </trkpt>
      <trkpt lat="42.81012612" lon="13.43454457">
        <ele>675.00000</ele>
        <time>2024-03-21T13:06:56Z</time>
      </trkpt>
      <trkpt lat="42.81021497" lon="13.43439864">
        <ele>675.00000</ele>
        <time>2024-03-21T13:06:58Z</time>
      </trkpt>
      <trkpt lat="42.81027641" lon="13.43420444">
        <ele>676.00000</ele>
        <time>2024-03-21T13:07:00Z</time>
      </trkpt>
      <trkpt lat="42.81029426" lon="13.43407837">
        <ele>677.00000</ele>
        <time>2024-03-21T13:07:01Z</time>
      </trkpt>
      <trkpt lat="42.81029309" lon="13.43375743">
        <ele>679.00000</ele>
        <time>2024-03-21T13:07:04Z</time>
      </trkpt>
      <trkpt lat="42.81027565" lon="13.43364964">
        <ele>680.00000</ele>
        <time>2024-03-21T13:07:05Z</time>
      </trkpt>
      <trkpt lat="42.81021120" lon="13.43336541">
        <ele>679.00000</ele>
        <time>2024-03-21T13:07:08Z</time>
      </trkpt>
      <trkpt lat="42.81014112" lon="13.43316550">
        <ele>678.00000</ele>
        <time>2024-03-21T13:07:10Z</time>
      </trkpt>
      <trkpt lat="42.81010676" lon="13.43307942">
        <ele>678.00000</ele>
        <time>2024-03-21T13:07:11Z</time>
      </trkpt>
      <trkpt lat="42.80999712" lon="13.43284615">
        <ele>677.00000</ele>
        <time>2024-03-21T13:07:14Z</time>
      </trkpt>
      <trkpt lat="42.80985362" lon="13.43256619">
        <ele>678.00000</ele>
        <time>2024-03-21T13:07:18Z</time>
      </trkpt>
      <trkpt lat="42.80980325" lon="13.43244030">
        <ele>679.00000</ele>
        <time>2024-03-21T13:07:20Z</time>
      </trkpt>
      <trkpt lat="42.80972722" lon="13.43231759">
        <ele>681.00000</ele>
        <time>2024-03-21T13:07:22Z</time>
      </trkpt>
      <trkpt lat="42.80963586" lon="13.43220745">
        <ele>681.00000</ele>
        <time>2024-03-21T13:07:24Z</time>
      </trkpt>
      <trkpt lat="42.80951097" lon="13.43204132">
        <ele>681.00000</ele>
        <time>2024-03-21T13:07:27Z</time>
      </trkpt>
      <trkpt lat="42.80938893" lon="13.43188365">
        <ele>681.00000</ele>
        <time>2024-03-21T13:07:30Z</time>
      </trkpt>
      <trkpt lat="42.80935130" lon="13.43182180">
        <ele>681.00000</ele>
        <time>2024-03-21T13:07:31Z</time>
      </trkpt>
      <trkpt lat="42.80920118" lon="13.43149029">
        <ele>682.00000</ele>
        <time>2024-03-21T13:07:36Z</time>
      </trkpt>
      <trkpt lat="42.80917930" lon="13.43140480">
        <ele>682.00000</ele>
        <time>2024-03-21T13:07:37Z</time>
      </trkpt>
      <trkpt lat="42.80914544" lon="13.43120397">
        <ele>683.00000</ele>
        <time>2024-03-21T13:07:40Z</time>
      </trkpt>
      <trkpt lat="42.80912985" lon="13.43105737">
        <ele>683.00000</ele>
        <time>2024-03-21T13:07:42Z</time>
      </trkpt>
      <trkpt lat="42.80911057" lon="13.43065135">
        <ele>683.00000</ele>
        <time>2024-03-21T13:07:47Z</time>
      </trkpt>
      <trkpt lat="42.80912482" lon="13.43020141">
        <ele>682.00000</ele>
        <time>2024-03-21T13:07:52Z</time>
      </trkpt>
      <trkpt lat="42.80914007" lon="13.42984098">
        <ele>680.00000</ele>
        <time>2024-03-21T13:07:56Z</time>
      </trkpt>
      <trkpt lat="42.80914066" lon="13.42966605">
        <ele>680.00000</ele>
        <time>2024-03-21T13:07:58Z</time>
      </trkpt>
      <trkpt lat="42.80916371" lon="13.42950361">
        <ele>680.00000</ele>
        <time>2024-03-21T13:08:00Z</time>
      </trkpt>
      <trkpt lat="42.80921040" lon="13.42934754">
        <ele>681.00000</ele>
        <time>2024-03-21T13:08:02Z</time>
      </trkpt>
      <trkpt lat="42.80936110" lon="13.42883231">
        <ele>685.00000</ele>
        <time>2024-03-21T13:08:09Z</time>
      </trkpt>
      <trkpt lat="42.80938499" lon="13.42876274">
        <ele>685.00000</ele>
        <time>2024-03-21T13:08:10Z</time>
      </trkpt>
      <trkpt lat="42.80943696" lon="13.42862293">
        <ele>685.00000</ele>
        <time>2024-03-21T13:08:12Z</time>
      </trkpt>
      <trkpt lat="42.80946060" lon="13.42855797">
        <ele>686.00000</ele>
        <time>2024-03-21T13:08:13Z</time>
      </trkpt>
      <trkpt lat="42.80948876" lon="13.42850022">
        <ele>686.00000</ele>
        <time>2024-03-21T13:08:14Z</time>
      </trkpt>
      <trkpt lat="42.80952430" lon="13.42844976">
        <ele>686.00000</ele>
        <time>2024-03-21T13:08:15Z</time>
      </trkpt>
      <trkpt lat="42.80961164" lon="13.42835227">
        <ele>687.00000</ele>
        <time>2024-03-21T13:08:17Z</time>
      </trkpt>
      <trkpt lat="42.80968942" lon="13.42827910">
        <ele>687.00000</ele>
        <time>2024-03-21T13:08:19Z</time>
      </trkpt>
      <trkpt lat="42.80979906" lon="13.42819461">
        <ele>687.00000</ele>
        <time>2024-03-21T13:08:21Z</time>
      </trkpt>
      <trkpt lat="42.80984038" lon="13.42816544">
        <ele>687.00000</ele>
        <time>2024-03-21T13:08:22Z</time>
      </trkpt>
      <trkpt lat="42.81013517" lon="13.42797014">
        <ele>686.00000</ele>
        <time>2024-03-21T13:08:27Z</time>
      </trkpt>
      <trkpt lat="42.81040180" lon="13.42780007">
        <ele>682.00000</ele>
        <time>2024-03-21T13:08:31Z</time>
      </trkpt>
      <trkpt lat="42.81060582" lon="13.42765876">
        <ele>678.00000</ele>
        <time>2024-03-21T13:08:34Z</time>
      </trkpt>
      <trkpt lat="42.81074060" lon="13.42755172">
        <ele>676.00000</ele>
        <time>2024-03-21T13:08:36Z</time>
      </trkpt>
      <trkpt lat="42.81087320" lon="13.42743680">
        <ele>676.00000</ele>
        <time>2024-03-21T13:08:38Z</time>
      </trkpt>
      <trkpt lat="42.81093506" lon="13.42736070">
        <ele>675.00000</ele>
        <time>2024-03-21T13:08:39Z</time>
      </trkpt>
      <trkpt lat="42.81099147" lon="13.42727235">
        <ele>676.00000</ele>
        <time>2024-03-21T13:08:40Z</time>
      </trkpt>
      <trkpt lat="42.81103966" lon="13.42717579">
        <ele>676.00000</ele>
        <time>2024-03-21T13:08:41Z</time>
      </trkpt>
      <trkpt lat="42.81108425" lon="13.42707772">
        <ele>677.00000</ele>
        <time>2024-03-21T13:08:42Z</time>
      </trkpt>
      <trkpt lat="42.81113094" lon="13.42698527">
        <ele>678.00000</ele>
        <time>2024-03-21T13:08:43Z</time>
      </trkpt>
      <trkpt lat="42.81118081" lon="13.42689617">
        <ele>679.00000</ele>
        <time>2024-03-21T13:08:44Z</time>
      </trkpt>
      <trkpt lat="42.81123739" lon="13.42681512">
        <ele>679.00000</ele>
        <time>2024-03-21T13:08:45Z</time>
      </trkpt>
      <trkpt lat="42.81129883" lon="13.42674144">
        <ele>680.00000</ele>
        <time>2024-03-21T13:08:46Z</time>
      </trkpt>
      <trkpt lat="42.81136052" lon="13.42667254">
        <ele>681.00000</ele>
        <time>2024-03-21T13:08:47Z</time>
      </trkpt>
      <trkpt lat="42.81142280" lon="13.42660641">
        <ele>681.00000</ele>
        <time>2024-03-21T13:08:48Z</time>
      </trkpt>
      <trkpt lat="42.81148600" lon="13.42654346">
        <ele>681.00000</ele>
        <time>2024-03-21T13:08:49Z</time>
      </trkpt>
      <trkpt lat="42.81154953" lon="13.42647976">
        <ele>681.00000</ele>
        <time>2024-03-21T13:08:50Z</time>
      </trkpt>
      <trkpt lat="42.81160661" lon="13.42641228">
        <ele>681.00000</ele>
        <time>2024-03-21T13:08:51Z</time>
      </trkpt>
      <trkpt lat="42.81166202" lon="13.42634766">
        <ele>681.00000</ele>
        <time>2024-03-21T13:08:52Z</time>
      </trkpt>
      <trkpt lat="42.81171399" lon="13.42628857">
        <ele>681.00000</ele>
        <time>2024-03-21T13:08:53Z</time>
      </trkpt>
      <trkpt lat="42.81176470" lon="13.42623442">
        <ele>682.00000</ele>
        <time>2024-03-21T13:08:54Z</time>
      </trkpt>
      <trkpt lat="42.81180929" lon="13.42617809">
        <ele>682.00000</ele>
        <time>2024-03-21T13:08:55Z</time>
      </trkpt>
      <trkpt lat="42.81184399" lon="13.42611447">
        <ele>683.00000</ele>
        <time>2024-03-21T13:08:56Z</time>
      </trkpt>
      <trkpt lat="42.81186922" lon="13.42604281">
        <ele>683.00000</ele>
        <time>2024-03-21T13:08:57Z</time>
      </trkpt>
      <trkpt lat="42.81188506" lon="13.42596922">
        <ele>683.00000</ele>
        <time>2024-03-21T13:08:58Z</time>
      </trkpt>
      <trkpt lat="42.81189235" lon="13.42589470">
        <ele>683.00000</ele>
        <time>2024-03-21T13:08:59Z</time>
      </trkpt>
      <trkpt lat="42.81189009" lon="13.42582169">
        <ele>684.00000</ele>
        <time>2024-03-21T13:09:00Z</time>
      </trkpt>
      <trkpt lat="42.81188481" lon="13.42575212">
        <ele>684.00000</ele>
        <time>2024-03-21T13:09:01Z</time>
      </trkpt>
      <trkpt lat="42.81187643" lon="13.42568608">
        <ele>685.00000</ele>
        <time>2024-03-21T13:09:02Z</time>
      </trkpt>
      <trkpt lat="42.81186670" lon="13.42562179">
        <ele>686.00000</ele>
        <time>2024-03-21T13:09:03Z</time>
      </trkpt>
      <trkpt lat="42.81185606" lon="13.42555959">
        <ele>686.00000</ele>
        <time>2024-03-21T13:09:04Z</time>
      </trkpt>
      <trkpt lat="42.81184625" lon="13.42549698">
        <ele>686.00000</ele>
        <time>2024-03-21T13:09:05Z</time>
      </trkpt>
      <trkpt lat="42.81184231" lon="13.42543076">
        <ele>686.00000</ele>
        <time>2024-03-21T13:09:06Z</time>
      </trkpt>
      <trkpt lat="42.81183779" lon="13.42536572">
        <ele>687.00000</ele>
        <time>2024-03-21T13:09:07Z</time>
      </trkpt>
      <trkpt lat="42.81183217" lon="13.42530394">
        <ele>687.00000</ele>
        <time>2024-03-21T13:09:08Z</time>
      </trkpt>
      <trkpt lat="42.81183259" lon="13.42522909">
        <ele>687.00000</ele>
        <time>2024-03-21T13:09:09Z</time>
      </trkpt>
      <trkpt lat="42.81184198" lon="13.42517914">
        <ele>686.00000</ele>
        <time>2024-03-21T13:09:10Z</time>
      </trkpt>
      <trkpt lat="42.81185598" lon="13.42511745">
        <ele>686.00000</ele>
        <time>2024-03-21T13:09:11Z</time>
      </trkpt>
      <trkpt lat="42.81187593" lon="13.42504888">
        <ele>685.00000</ele>
        <time>2024-03-21T13:09:12Z</time>
      </trkpt>
      <trkpt lat="42.81190107" lon="13.42499641">
        <ele>685.00000</ele>
        <time>2024-03-21T13:09:13Z</time>
      </trkpt>
      <trkpt lat="42.81193166" lon="13.42495014">
        <ele>684.00000</ele>
        <time>2024-03-21T13:09:14Z</time>
      </trkpt>
      <trkpt lat="42.81196159" lon="13.42492097">
        <ele>683.00000</ele>
        <time>2024-03-21T13:09:15Z</time>
      </trkpt>
      <trkpt lat="42.81200232" lon="13.42489399">
        <ele>682.00000</ele>
        <time>2024-03-21T13:09:16Z</time>
      </trkpt>
      <trkpt lat="42.81205228" lon="13.42487001">
        <ele>681.00000</ele>
        <time>2024-03-21T13:09:17Z</time>
      </trkpt>
      <trkpt lat="42.81209310" lon="13.42485065">
        <ele>680.00000</ele>
        <time>2024-03-21T13:09:18Z</time>
      </trkpt>
      <trkpt lat="42.81212688" lon="13.42483330">
        <ele>679.00000</ele>
        <time>2024-03-21T13:09:19Z</time>
      </trkpt>
      <trkpt lat="42.81216694" lon="13.42481017">
        <ele>678.00000</ele>
        <time>2024-03-21T13:09:20Z</time>
      </trkpt>
      <trkpt lat="42.81220567" lon="13.42478376">
        <ele>678.00000</ele>
        <time>2024-03-21T13:09:21Z</time>
      </trkpt>
      <trkpt lat="42.81224381" lon="13.42475409">
        <ele>677.00000</ele>
        <time>2024-03-21T13:09:22Z</time>
      </trkpt>
      <trkpt lat="42.81227549" lon="13.42471595">
        <ele>676.00000</ele>
        <time>2024-03-21T13:09:23Z</time>
      </trkpt>
      <trkpt lat="42.81230466" lon="13.42467153">
        <ele>675.00000</ele>
        <time>2024-03-21T13:09:24Z</time>
      </trkpt>
      <trkpt lat="42.81233207" lon="13.42462350">
        <ele>674.00000</ele>
        <time>2024-03-21T13:09:25Z</time>
      </trkpt>
      <trkpt lat="42.81235394" lon="13.42457162">
        <ele>673.00000</ele>
        <time>2024-03-21T13:09:26Z</time>
      </trkpt>
      <trkpt lat="42.81237029" lon="13.42451035">
        <ele>672.00000</ele>
        <time>2024-03-21T13:09:27Z</time>
      </trkpt>
      <trkpt lat="42.81238127" lon="13.42444455">
        <ele>671.00000</ele>
        <time>2024-03-21T13:09:28Z</time>
      </trkpt>
      <trkpt lat="42.81239300" lon="13.42437556">
        <ele>671.00000</ele>
        <time>2024-03-21T13:09:29Z</time>
      </trkpt>
      <trkpt lat="42.81240608" lon="13.42430541">
        <ele>671.00000</ele>
        <time>2024-03-21T13:09:30Z</time>
      </trkpt>
      <trkpt lat="42.81242117" lon="13.42423626">
        <ele>671.00000</ele>
        <time>2024-03-21T13:09:31Z</time>
      </trkpt>
      <trkpt lat="42.81243609" lon="13.42417323">
        <ele>672.00000</ele>
        <time>2024-03-21T13:09:32Z</time>
      </trkpt>
      <trkpt lat="42.81244958" lon="13.42411195">
        <ele>672.00000</ele>
        <time>2024-03-21T13:09:33Z</time>
      </trkpt>
      <trkpt lat="42.81246450" lon="13.42405135">
        <ele>672.00000</ele>
        <time>2024-03-21T13:09:34Z</time>
      </trkpt>
      <trkpt lat="42.81248412" lon="13.42399260">
        <ele>673.00000</ele>
        <time>2024-03-21T13:09:35Z</time>
      </trkpt>
      <trkpt lat="42.81250775" lon="13.42393451">
        <ele>674.00000</ele>
        <time>2024-03-21T13:09:36Z</time>
      </trkpt>
      <trkpt lat="42.81253038" lon="13.42387525">
        <ele>675.00000</ele>
        <time>2024-03-21T13:09:37Z</time>
      </trkpt>
      <trkpt lat="42.81255260" lon="13.42381507">
        <ele>675.00000</ele>
        <time>2024-03-21T13:09:38Z</time>
      </trkpt>
      <trkpt lat="42.81257824" lon="13.42375732">
        <ele>676.00000</ele>
        <time>2024-03-21T13:09:39Z</time>
      </trkpt>
      <trkpt lat="42.81260926" lon="13.42370753">
        <ele>677.00000</ele>
        <time>2024-03-21T13:09:40Z</time>
      </trkpt>
      <trkpt lat="42.81264429" lon="13.42366612">
        <ele>678.00000</ele>
        <time>2024-03-21T13:09:41Z</time>
      </trkpt>
      <trkpt lat="42.81268252" lon="13.42363108">
        <ele>679.00000</ele>
        <time>2024-03-21T13:09:42Z</time>
      </trkpt>
      <trkpt lat="42.81272258" lon="13.42360326">
        <ele>681.00000</ele>
        <time>2024-03-21T13:09:43Z</time>
      </trkpt>
      <trkpt lat="42.81276105" lon="13.42358012">
        <ele>683.00000</ele>
        <time>2024-03-21T13:09:44Z</time>
      </trkpt>
      <trkpt lat="42.81279726" lon="13.42355506">
        <ele>683.00000</ele>
        <time>2024-03-21T13:09:45Z</time>
      </trkpt>
      <trkpt lat="42.81283389" lon="13.42353075">
        <ele>684.00000</ele>
        <time>2024-03-21T13:09:46Z</time>
      </trkpt>
      <trkpt lat="42.81286943" lon="13.42350712">
        <ele>684.00000</ele>
        <time>2024-03-21T13:09:47Z</time>
      </trkpt>
      <trkpt lat="42.81290472" lon="13.42348331">
        <ele>684.00000</ele>
        <time>2024-03-21T13:09:48Z</time>
      </trkpt>
      <trkpt lat="42.81294185" lon="13.42346328">
        <ele>685.00000</ele>
        <time>2024-03-21T13:09:49Z</time>
      </trkpt>
      <trkpt lat="42.81297923" lon="13.42344601">
        <ele>685.00000</ele>
        <time>2024-03-21T13:09:50Z</time>
      </trkpt>
      <trkpt lat="42.81301528" lon="13.42342221">
        <ele>686.00000</ele>
        <time>2024-03-21T13:09:51Z</time>
      </trkpt>
      <trkpt lat="42.81304906" lon="13.42339664">
        <ele>687.00000</ele>
        <time>2024-03-21T13:09:52Z</time>
      </trkpt>
      <trkpt lat="42.81308200" lon="13.42337535">
        <ele>687.00000</ele>
        <time>2024-03-21T13:09:53Z</time>
      </trkpt>
      <trkpt lat="42.81311569" lon="13.42335758">
        <ele>688.00000</ele>
        <time>2024-03-21T13:09:54Z</time>
      </trkpt>
      <trkpt lat="42.81314805" lon="13.42334149">
        <ele>688.00000</ele>
        <time>2024-03-21T13:09:55Z</time>
      </trkpt>
      <trkpt lat="42.81317847" lon="13.42332204">
        <ele>688.00000</ele>
        <time>2024-03-21T13:09:56Z</time>
      </trkpt>
      <trkpt lat="42.81320823" lon="13.42330134">
        <ele>689.00000</ele>
        <time>2024-03-21T13:09:57Z</time>
      </trkpt>
      <trkpt lat="42.81323731" lon="13.42327971">
        <ele>689.00000</ele>
        <time>2024-03-21T13:09:58Z</time>
      </trkpt>
      <trkpt lat="42.81326615" lon="13.42325591">
        <ele>689.00000</ele>
        <time>2024-03-21T13:09:59Z</time>
      </trkpt>
      <trkpt lat="42.81329641" lon="13.42322557">
        <ele>689.00000</ele>
        <time>2024-03-21T13:10:00Z</time>
      </trkpt>
      <trkpt lat="42.81332549" lon="13.42319296">
        <ele>689.00000</ele>
        <time>2024-03-21T13:10:01Z</time>
      </trkpt>
      <trkpt lat="42.81335575" lon="13.42316153">
        <ele>690.00000</ele>
        <time>2024-03-21T13:10:02Z</time>
      </trkpt>
      <trkpt lat="42.81338609" lon="13.42313052">
        <ele>690.00000</ele>
        <time>2024-03-21T13:10:03Z</time>
      </trkpt>
      <trkpt lat="42.81341576" lon="13.42309984">
        <ele>690.00000</ele>
        <time>2024-03-21T13:10:04Z</time>
      </trkpt>
      <trkpt lat="42.81344535" lon="13.42307025">
        <ele>690.00000</ele>
        <time>2024-03-21T13:10:05Z</time>
      </trkpt>
      <trkpt lat="42.81347611" lon="13.42304175">
        <ele>690.00000</ele>
        <time>2024-03-21T13:10:06Z</time>
      </trkpt>
      <trkpt lat="42.81351123" lon="13.42302055">
        <ele>689.00000</ele>
        <time>2024-03-21T13:10:07Z</time>
      </trkpt>
      <trkpt lat="42.81354753" lon="13.42299959">
        <ele>689.00000</ele>
        <time>2024-03-21T13:10:08Z</time>
      </trkpt>
      <trkpt lat="42.81358575" lon="13.42297956">
        <ele>688.00000</ele>
        <time>2024-03-21T13:10:09Z</time>
      </trkpt>
      <trkpt lat="42.81362439" lon="13.42295844">
        <ele>688.00000</ele>
        <time>2024-03-21T13:10:10Z</time>
      </trkpt>
      <trkpt lat="42.81366471" lon="13.42293790">
        <ele>688.00000</ele>
        <time>2024-03-21T13:10:11Z</time>
      </trkpt>
      <trkpt lat="42.81370779" lon="13.42291619">
        <ele>689.00000</ele>
        <time>2024-03-21T13:10:12Z</time>
      </trkpt>
      <trkpt lat="42.81374953" lon="13.42289012">
        <ele>690.00000</ele>
        <time>2024-03-21T13:10:13Z</time>
      </trkpt>
      <trkpt lat="42.81379002" lon="13.42285886">
        <ele>690.00000</ele>
        <time>2024-03-21T13:10:14Z</time>
      </trkpt>
      <trkpt lat="42.81382975" lon="13.42282718">
        <ele>691.00000</ele>
        <time>2024-03-21T13:10:15Z</time>
      </trkpt>
      <trkpt lat="42.81386889" lon="13.42279516">
        <ele>692.00000</ele>
        <time>2024-03-21T13:10:16Z</time>
      </trkpt>
      <trkpt lat="42.81390937" lon="13.42276255">
        <ele>692.00000</ele>
        <time>2024-03-21T13:10:17Z</time>
      </trkpt>
      <trkpt lat="42.81394843" lon="13.42272810">
        <ele>692.00000</ele>
        <time>2024-03-21T13:10:18Z</time>
      </trkpt>
      <trkpt lat="42.81398775" lon="13.42269231">
        <ele>692.00000</ele>
        <time>2024-03-21T13:10:19Z</time>
      </trkpt>
      <trkpt lat="42.81402907" lon="13.42265853">
        <ele>693.00000</ele>
        <time>2024-03-21T13:10:20Z</time>
      </trkpt>
      <trkpt lat="42.81407240" lon="13.42262718">
        <ele>693.00000</ele>
        <time>2024-03-21T13:10:21Z</time>
      </trkpt>
      <trkpt lat="42.81411699" lon="13.42259852">
        <ele>694.00000</ele>
        <time>2024-03-21T13:10:22Z</time>
      </trkpt>
      <trkpt lat="42.81416025" lon="13.42256977">
        <ele>695.00000</ele>
        <time>2024-03-21T13:10:23Z</time>
      </trkpt>
      <trkpt lat="42.81420542" lon="13.42254395">
        <ele>695.00000</ele>
        <time>2024-03-21T13:10:24Z</time>
      </trkpt>
      <trkpt lat="42.81425211" lon="13.42251755">
        <ele>695.00000</ele>
        <time>2024-03-21T13:10:25Z</time>
      </trkpt>
      <trkpt lat="42.81429653" lon="13.42248570">
        <ele>694.00000</ele>
        <time>2024-03-21T13:10:26Z</time>
      </trkpt>
      <trkpt lat="42.81434297" lon="13.42245292">
        <ele>694.00000</ele>
        <time>2024-03-21T13:10:27Z</time>
      </trkpt>
      <trkpt lat="42.81439075" lon="13.42242074">
        <ele>694.00000</ele>
        <time>2024-03-21T13:10:28Z</time>
      </trkpt>
      <trkpt lat="42.81444003" lon="13.42238578">
        <ele>694.00000</ele>
        <time>2024-03-21T13:10:29Z</time>
      </trkpt>
      <trkpt lat="42.81449284" lon="13.42235125">
        <ele>694.00000</ele>
        <time>2024-03-21T13:10:30Z</time>
      </trkpt>
      <trkpt lat="42.81455084" lon="13.42232292">
        <ele>694.00000</ele>
        <time>2024-03-21T13:10:31Z</time>
      </trkpt>
      <trkpt lat="42.81461245" lon="13.42229845">
        <ele>694.00000</ele>
        <time>2024-03-21T13:10:32Z</time>
      </trkpt>
      <trkpt lat="42.81467732" lon="13.42228252">
        <ele>695.00000</ele>
        <time>2024-03-21T13:10:33Z</time>
      </trkpt>
      <trkpt lat="42.81474245" lon="13.42227028">
        <ele>696.00000</ele>
        <time>2024-03-21T13:10:34Z</time>
      </trkpt>
      <trkpt lat="42.81480817" lon="13.42225930">
        <ele>696.00000</ele>
        <time>2024-03-21T13:10:35Z</time>
      </trkpt>
      <trkpt lat="42.81487287" lon="13.42223986">
        <ele>696.00000</ele>
        <time>2024-03-21T13:10:36Z</time>
      </trkpt>
      <trkpt lat="42.81493582" lon="13.42221295">
        <ele>695.00000</ele>
        <time>2024-03-21T13:10:37Z</time>
      </trkpt>
      <trkpt lat="42.81499810" lon="13.42218269">
        <ele>694.00000</ele>
        <time>2024-03-21T13:10:38Z</time>
      </trkpt>
      <trkpt lat="42.81506063" lon="13.42215361">
        <ele>693.00000</ele>
        <time>2024-03-21T13:10:39Z</time>
      </trkpt>
      <trkpt lat="42.81512341" lon="13.42212704">
        <ele>692.00000</ele>
        <time>2024-03-21T13:10:40Z</time>
      </trkpt>
      <trkpt lat="42.81518778" lon="13.42210449">
        <ele>691.00000</ele>
        <time>2024-03-21T13:10:41Z</time>
      </trkpt>
      <trkpt lat="42.81524847" lon="13.42208521">
        <ele>691.00000</ele>
        <time>2024-03-21T13:10:42Z</time>
      </trkpt>
      <trkpt lat="42.81531091" lon="13.42207306">
        <ele>690.00000</ele>
        <time>2024-03-21T13:10:43Z</time>
      </trkpt>
      <trkpt lat="42.81537562" lon="13.42206677">
        <ele>691.00000</ele>
        <time>2024-03-21T13:10:44Z</time>
      </trkpt>
      <trkpt lat="42.81544167" lon="13.42206124">
        <ele>691.00000</ele>
        <time>2024-03-21T13:10:45Z</time>
      </trkpt>
      <trkpt lat="42.81550789" lon="13.42205026">
        <ele>692.00000</ele>
        <time>2024-03-21T13:10:46Z</time>
      </trkpt>
      <trkpt lat="42.81557285" lon="13.42202897">
        <ele>693.00000</ele>
        <time>2024-03-21T13:10:47Z</time>
      </trkpt>
      <trkpt lat="42.81563638" lon="13.42200106">
        <ele>693.00000</ele>
        <time>2024-03-21T13:10:48Z</time>
      </trkpt>
      <trkpt lat="42.81569983" lon="13.42197054">
        <ele>694.00000</ele>
        <time>2024-03-21T13:10:49Z</time>
      </trkpt>
      <trkpt lat="42.81576127" lon="13.42194523">
        <ele>695.00000</ele>
        <time>2024-03-21T13:10:50Z</time>
      </trkpt>
      <trkpt lat="42.81582095" lon="13.42191506">
        <ele>696.00000</ele>
        <time>2024-03-21T13:10:51Z</time>
      </trkpt>
      <trkpt lat="42.81588390" lon="13.42187843">
        <ele>697.00000</ele>
        <time>2024-03-21T13:10:52Z</time>
      </trkpt>
      <trkpt lat="42.81594199" lon="13.42183719">
        <ele>698.00000</ele>
        <time>2024-03-21T13:10:53Z</time>
      </trkpt>
      <trkpt lat="42.81599303" lon="13.42179779">
        <ele>699.00000</ele>
        <time>2024-03-21T13:10:54Z</time>
      </trkpt>
      <trkpt lat="42.81603025" lon="13.42176284">
        <ele>700.00000</ele>
        <time>2024-03-21T13:10:55Z</time>
      </trkpt>
      <trkpt lat="42.81606176" lon="13.42173166">
        <ele>701.00000</ele>
        <time>2024-03-21T13:10:56Z</time>
      </trkpt>
      <trkpt lat="42.81610175" lon="13.42169813">
        <ele>702.00000</ele>
        <time>2024-03-21T13:10:57Z</time>
      </trkpt>
      <trkpt lat="42.81612572" lon="13.42167961">
        <ele>702.00000</ele>
        <time>2024-03-21T13:10:58Z</time>
      </trkpt>
      <trkpt lat="42.81616268" lon="13.42165530">
        <ele>703.00000</ele>
        <time>2024-03-21T13:10:59Z</time>
      </trkpt>
      <trkpt lat="42.81618623" lon="13.42164424">
        <ele>703.00000</ele>
        <time>2024-03-21T13:11:00Z</time>
      </trkpt>
      <trkpt lat="42.81621876" lon="13.42163510">
        <ele>703.00000</ele>
        <time>2024-03-21T13:11:01Z</time>
      </trkpt>
      <trkpt lat="42.81625103" lon="13.42162974">
        <ele>703.00000</ele>
        <time>2024-03-21T13:11:02Z</time>
      </trkpt>
      <trkpt lat="42.81628321" lon="13.42162580">
        <ele>704.00000</ele>
        <time>2024-03-21T13:11:03Z</time>
      </trkpt>
      <trkpt lat="42.81631758" lon="13.42162513">
        <ele>704.00000</ele>
        <time>2024-03-21T13:11:04Z</time>
      </trkpt>
      <trkpt lat="42.81635488" lon="13.42163175">
        <ele>704.00000</ele>
        <time>2024-03-21T13:11:05Z</time>
      </trkpt>
      <trkpt lat="42.81639050" lon="13.42164206">
        <ele>705.00000</ele>
        <time>2024-03-21T13:11:06Z</time>
      </trkpt>
      <trkpt lat="42.81642529" lon="13.42165287">
        <ele>705.00000</ele>
        <time>2024-03-21T13:11:07Z</time>
      </trkpt>
      <trkpt lat="42.81645982" lon="13.42166570">
        <ele>705.00000</ele>
        <time>2024-03-21T13:11:08Z</time>
      </trkpt>
      <trkpt lat="42.81649536" lon="13.42168338">
        <ele>705.00000</ele>
        <time>2024-03-21T13:11:09Z</time>
      </trkpt>
      <trkpt lat="42.81652905" lon="13.42170149">
        <ele>705.00000</ele>
        <time>2024-03-21T13:11:10Z</time>
      </trkpt>
      <trkpt lat="42.81656459" lon="13.42172110">
        <ele>705.00000</ele>
        <time>2024-03-21T13:11:11Z</time>
      </trkpt>
      <trkpt lat="42.81659527" lon="13.42174340">
        <ele>705.00000</ele>
        <time>2024-03-21T13:11:12Z</time>
      </trkpt>
      <trkpt lat="42.81662788" lon="13.42176821">
        <ele>705.00000</ele>
        <time>2024-03-21T13:11:13Z</time>
      </trkpt>
      <trkpt lat="42.81666057" lon="13.42178924">
        <ele>705.00000</ele>
        <time>2024-03-21T13:11:14Z</time>
      </trkpt>
      <trkpt lat="42.81669116" lon="13.42181154">
        <ele>705.00000</ele>
        <time>2024-03-21T13:11:15Z</time>
      </trkpt>
      <trkpt lat="42.81672041" lon="13.42183509">
        <ele>706.00000</ele>
        <time>2024-03-21T13:11:16Z</time>
      </trkpt>
      <trkpt lat="42.81674908" lon="13.42186024">
        <ele>706.00000</ele>
        <time>2024-03-21T13:11:17Z</time>
      </trkpt>
      <trkpt lat="42.81678001" lon="13.42188765">
        <ele>706.00000</ele>
        <time>2024-03-21T13:11:18Z</time>
      </trkpt>
      <trkpt lat="42.81681094" lon="13.42191640">
        <ele>706.00000</ele>
        <time>2024-03-21T13:11:19Z</time>
      </trkpt>
      <trkpt lat="42.81684245" lon="13.42194322">
        <ele>706.00000</ele>
        <time>2024-03-21T13:11:20Z</time>
      </trkpt>
      <trkpt lat="42.81687967" lon="13.42197247">
        <ele>706.00000</ele>
        <time>2024-03-21T13:11:21Z</time>
      </trkpt>
      <trkpt lat="42.81690414" lon="13.42199192">
        <ele>707.00000</ele>
        <time>2024-03-21T13:11:22Z</time>
      </trkpt>
      <trkpt lat="42.81693482" lon="13.42201706">
        <ele>707.00000</ele>
        <time>2024-03-21T13:11:23Z</time>
      </trkpt>
      <trkpt lat="42.81696508" lon="13.42204246">
        <ele>707.00000</ele>
        <time>2024-03-21T13:11:24Z</time>
      </trkpt>
      <trkpt lat="42.81699492" lon="13.42206786">
        <ele>708.00000</ele>
        <time>2024-03-21T13:11:25Z</time>
      </trkpt>
      <trkpt lat="42.81702409" lon="13.42209116">
        <ele>708.00000</ele>
        <time>2024-03-21T13:11:26Z</time>
      </trkpt>
      <trkpt lat="42.81705292" lon="13.42211639">
        <ele>709.00000</ele>
        <time>2024-03-21T13:11:27Z</time>
      </trkpt>
      <trkpt lat="42.81708218" lon="13.42214254">
        <ele>710.00000</ele>
        <time>2024-03-21T13:11:28Z</time>
      </trkpt>
      <trkpt lat="42.81711185" lon="13.42216894">
        <ele>710.00000</ele>
        <time>2024-03-21T13:11:29Z</time>
      </trkpt>
      <trkpt lat="42.81714060" lon="13.42219493">
        <ele>711.00000</ele>
        <time>2024-03-21T13:11:30Z</time>
      </trkpt>
      <trkpt lat="42.81716876" lon="13.42222007">
        <ele>711.00000</ele>
        <time>2024-03-21T13:11:31Z</time>
      </trkpt>
      <trkpt lat="42.81719592" lon="13.42224321">
        <ele>712.00000</ele>
        <time>2024-03-21T13:11:32Z</time>
      </trkpt>
      <trkpt lat="42.81722693" lon="13.42226215">
        <ele>712.00000</ele>
        <time>2024-03-21T13:11:33Z</time>
      </trkpt>
      <trkpt lat="42.81725761" lon="13.42227950">
        <ele>713.00000</ele>
        <time>2024-03-21T13:11:34Z</time>
      </trkpt>
      <trkpt lat="42.81728787" lon="13.42230314">
        <ele>713.00000</ele>
        <time>2024-03-21T13:11:35Z</time>
      </trkpt>
      <trkpt lat="42.81731855" lon="13.42232854">
        <ele>713.00000</ele>
        <time>2024-03-21T13:11:36Z</time>
      </trkpt>
      <trkpt lat="42.81735065" lon="13.42235444">
        <ele>713.00000</ele>
        <time>2024-03-21T13:11:37Z</time>
      </trkpt>
      <trkpt lat="42.81739298" lon="13.42238503">
        <ele>714.00000</ele>
        <time>2024-03-21T13:11:38Z</time>
      </trkpt>
      <trkpt lat="42.81742382" lon="13.42240188">
        <ele>714.00000</ele>
        <time>2024-03-21T13:11:39Z</time>
      </trkpt>
      <trkpt lat="42.81746372" lon="13.42241898">
        <ele>715.00000</ele>
        <time>2024-03-21T13:11:40Z</time>
      </trkpt>
      <trkpt lat="42.81750094" lon="13.42243406">
        <ele>715.00000</ele>
        <time>2024-03-21T13:11:41Z</time>
      </trkpt>
      <trkpt lat="42.81753522" lon="13.42244639">
        <ele>714.00000</ele>
        <time>2024-03-21T13:11:42Z</time>
      </trkpt>
      <trkpt lat="42.81757269" lon="13.42244437">
        <ele>713.00000</ele>
        <time>2024-03-21T13:11:43Z</time>
      </trkpt>
      <trkpt lat="42.81761116" lon="13.42241847">
        <ele>713.00000</ele>
        <time>2024-03-21T13:11:44Z</time>
      </trkpt>
      <trkpt lat="42.81764519" lon="13.42237799">
        <ele>712.00000</ele>
        <time>2024-03-21T13:11:45Z</time>
      </trkpt>
      <trkpt lat="42.81767386" lon="13.42232644">
        <ele>712.00000</ele>
        <time>2024-03-21T13:11:46Z</time>
      </trkpt>
      <trkpt lat="42.81769665" lon="13.42226827">
        <ele>712.00000</ele>
        <time>2024-03-21T13:11:47Z</time>
      </trkpt>
      <trkpt lat="42.81771794" lon="13.42220784">
        <ele>712.00000</ele>
        <time>2024-03-21T13:11:48Z</time>
      </trkpt>
      <trkpt lat="42.81773814" lon="13.42214564">
        <ele>712.00000</ele>
        <time>2024-03-21T13:11:49Z</time>
      </trkpt>
      <trkpt lat="42.81775868" lon="13.42208202">
        <ele>712.00000</ele>
        <time>2024-03-21T13:11:50Z</time>
      </trkpt>
      <trkpt lat="42.81777922" lon="13.42201991">
        <ele>712.00000</ele>
        <time>2024-03-21T13:11:51Z</time>
      </trkpt>
      <trkpt lat="42.81780076" lon="13.42196099">
        <ele>711.00000</ele>
        <time>2024-03-21T13:11:52Z</time>
      </trkpt>
      <trkpt lat="42.81782381" lon="13.42190341">
        <ele>711.00000</ele>
        <time>2024-03-21T13:11:53Z</time>
      </trkpt>
      <trkpt lat="42.81784770" lon="13.42184415">
        <ele>711.00000</ele>
        <time>2024-03-21T13:11:54Z</time>
      </trkpt>
      <trkpt lat="42.81787125" lon="13.42178547">
        <ele>711.00000</ele>
        <time>2024-03-21T13:11:55Z</time>
      </trkpt>
      <trkpt lat="42.81789581" lon="13.42172672">
        <ele>710.00000</ele>
        <time>2024-03-21T13:11:56Z</time>
      </trkpt>
      <trkpt lat="42.81792179" lon="13.42166762">
        <ele>710.00000</ele>
        <time>2024-03-21T13:11:57Z</time>
      </trkpt>
      <trkpt lat="42.81794593" lon="13.42161004">
        <ele>710.00000</ele>
        <time>2024-03-21T13:11:58Z</time>
      </trkpt>
      <trkpt lat="42.81796504" lon="13.42155757">
        <ele>710.00000</ele>
        <time>2024-03-21T13:11:59Z</time>
      </trkpt>
      <trkpt lat="42.81798097" lon="13.42150082">
        <ele>710.00000</ele>
        <time>2024-03-21T13:12:00Z</time>
      </trkpt>
      <trkpt lat="42.81799756" lon="13.42143813">
        <ele>711.00000</ele>
        <time>2024-03-21T13:12:01Z</time>
      </trkpt>
      <trkpt lat="42.81801483" lon="13.42136831">
        <ele>711.00000</ele>
        <time>2024-03-21T13:12:02Z</time>
      </trkpt>
      <trkpt lat="42.81803126" lon="13.42130091">
        <ele>712.00000</ele>
        <time>2024-03-21T13:12:03Z</time>
      </trkpt>
      <trkpt lat="42.81804610" lon="13.42124065">
        <ele>713.00000</ele>
        <time>2024-03-21T13:12:04Z</time>
      </trkpt>
      <trkpt lat="42.81806210" lon="13.42118105">
        <ele>714.00000</ele>
        <time>2024-03-21T13:12:05Z</time>
      </trkpt>
      <trkpt lat="42.81808189" lon="13.42111886">
        <ele>714.00000</ele>
        <time>2024-03-21T13:12:06Z</time>
      </trkpt>
      <trkpt lat="42.81810544" lon="13.42105507">
        <ele>714.00000</ele>
        <time>2024-03-21T13:12:07Z</time>
      </trkpt>
      <trkpt lat="42.81812857" lon="13.42098643">
        <ele>713.00000</ele>
        <time>2024-03-21T13:12:08Z</time>
      </trkpt>
      <trkpt lat="42.81814333" lon="13.42091996">
        <ele>713.00000</ele>
        <time>2024-03-21T13:12:09Z</time>
      </trkpt>
      <trkpt lat="42.81815590" lon="13.42085265">
        <ele>713.00000</ele>
        <time>2024-03-21T13:12:10Z</time>
      </trkpt>
      <trkpt lat="42.81816981" lon="13.42078174">
        <ele>713.00000</ele>
        <time>2024-03-21T13:12:11Z</time>
      </trkpt>
      <trkpt lat="42.81820015" lon="13.42069532">
        <ele>712.00000</ele>
        <time>2024-03-21T13:12:12Z</time>
      </trkpt>
      <trkpt lat="42.81822438" lon="13.42063682">
        <ele>712.00000</ele>
        <time>2024-03-21T13:12:13Z</time>
      </trkpt>
      <trkpt lat="42.81826302" lon="13.42057060">
        <ele>711.00000</ele>
        <time>2024-03-21T13:12:14Z</time>
      </trkpt>
      <trkpt lat="42.81831013" lon="13.42050556">
        <ele>710.00000</ele>
        <time>2024-03-21T13:12:15Z</time>
      </trkpt>
      <trkpt lat="42.81835933" lon="13.42044143">
        <ele>711.00000</ele>
        <time>2024-03-21T13:12:16Z</time>
      </trkpt>
      <trkpt lat="42.81840166" lon="13.42037740">
        <ele>712.00000</ele>
        <time>2024-03-21T13:12:17Z</time>
      </trkpt>
      <trkpt lat="42.81845010" lon="13.42031872">
        <ele>714.00000</ele>
        <time>2024-03-21T13:12:18Z</time>
      </trkpt>
      <trkpt lat="42.81850970" lon="13.42024706">
        <ele>715.00000</ele>
        <time>2024-03-21T13:12:19Z</time>
      </trkpt>
      <trkpt lat="42.81855052" lon="13.42020113">
        <ele>716.00000</ele>
        <time>2024-03-21T13:12:20Z</time>
      </trkpt>
      <trkpt lat="42.81860165" lon="13.42014689">
        <ele>716.00000</ele>
        <time>2024-03-21T13:12:21Z</time>
      </trkpt>
      <trkpt lat="42.81865479" lon="13.42009535">
        <ele>716.00000</ele>
        <time>2024-03-21T13:12:22Z</time>
      </trkpt>
      <trkpt lat="42.81870868" lon="13.42004329">
        <ele>715.00000</ele>
        <time>2024-03-21T13:12:23Z</time>
      </trkpt>
      <trkpt lat="42.81876359" lon="13.41998957">
        <ele>715.00000</ele>
        <time>2024-03-21T13:12:24Z</time>
      </trkpt>
      <trkpt lat="42.81881698" lon="13.41993357">
        <ele>713.00000</ele>
        <time>2024-03-21T13:12:25Z</time>
      </trkpt>
      <trkpt lat="42.81886668" lon="13.41987180">
        <ele>712.00000</ele>
        <time>2024-03-21T13:12:26Z</time>
      </trkpt>
      <trkpt lat="42.81891329" lon="13.41980332">
        <ele>712.00000</ele>
        <time>2024-03-21T13:12:27Z</time>
      </trkpt>
      <trkpt lat="42.81895603" lon="13.41973140">
        <ele>711.00000</ele>
        <time>2024-03-21T13:12:28Z</time>
      </trkpt>
      <trkpt lat="42.81899518" lon="13.41966133">
        <ele>710.00000</ele>
        <time>2024-03-21T13:12:29Z</time>
      </trkpt>
      <trkpt lat="42.81903281" lon="13.41958975">
        <ele>709.00000</ele>
        <time>2024-03-21T13:12:30Z</time>
      </trkpt>
      <trkpt lat="42.81907028" lon="13.41951540">
        <ele>710.00000</ele>
        <time>2024-03-21T13:12:31Z</time>
      </trkpt>
      <trkpt lat="42.81910699" lon="13.41943837">
        <ele>710.00000</ele>
        <time>2024-03-21T13:12:32Z</time>
      </trkpt>
      <trkpt lat="42.81914974" lon="13.41934341">
        <ele>709.00000</ele>
        <time>2024-03-21T13:12:33Z</time>
      </trkpt>
      <trkpt lat="42.81917790" lon="13.41928163">
        <ele>709.00000</ele>
        <time>2024-03-21T13:12:34Z</time>
      </trkpt>
      <trkpt lat="42.81921395" lon="13.41920209">
        <ele>709.00000</ele>
        <time>2024-03-21T13:12:35Z</time>
      </trkpt>
      <trkpt lat="42.81925753" lon="13.41910846">
        <ele>708.00000</ele>
        <time>2024-03-21T13:12:36Z</time>
      </trkpt>
      <trkpt lat="42.81928787" lon="13.41904853">
        <ele>707.00000</ele>
        <time>2024-03-21T13:12:37Z</time>
      </trkpt>
      <trkpt lat="42.81932551" lon="13.41897536">
        <ele>706.00000</ele>
        <time>2024-03-21T13:12:38Z</time>
      </trkpt>
      <trkpt lat="42.81936155" lon="13.41890336">
        <ele>705.00000</ele>
        <time>2024-03-21T13:12:39Z</time>
      </trkpt>
      <trkpt lat="42.81939550" lon="13.41883353">
        <ele>705.00000</ele>
        <time>2024-03-21T13:12:40Z</time>
      </trkpt>
      <trkpt lat="42.81942735" lon="13.41876430">
        <ele>704.00000</ele>
        <time>2024-03-21T13:12:41Z</time>
      </trkpt>
      <trkpt lat="42.81945987" lon="13.41869532">
        <ele>703.00000</ele>
        <time>2024-03-21T13:12:42Z</time>
      </trkpt>
      <trkpt lat="42.81949365" lon="13.41862776">
        <ele>703.00000</ele>
        <time>2024-03-21T13:12:43Z</time>
      </trkpt>
      <trkpt lat="42.81952785" lon="13.41856397">
        <ele>703.00000</ele>
        <time>2024-03-21T13:12:44Z</time>
      </trkpt>
      <trkpt lat="42.81956263" lon="13.41850312">
        <ele>703.00000</ele>
        <time>2024-03-21T13:12:45Z</time>
      </trkpt>
      <trkpt lat="42.81959817" lon="13.41844704">
        <ele>704.00000</ele>
        <time>2024-03-21T13:12:46Z</time>
      </trkpt>
      <trkpt lat="42.81963489" lon="13.41839583">
        <ele>704.00000</ele>
        <time>2024-03-21T13:12:47Z</time>
      </trkpt>
      <trkpt lat="42.81966766" lon="13.41834956">
        <ele>705.00000</ele>
        <time>2024-03-21T13:12:48Z</time>
      </trkpt>
      <trkpt lat="42.81969440" lon="13.41830455">
        <ele>706.00000</ele>
        <time>2024-03-21T13:12:49Z</time>
      </trkpt>
      <trkpt lat="42.81971409" lon="13.41826080">
        <ele>707.00000</ele>
        <time>2024-03-21T13:12:50Z</time>
      </trkpt>
      <trkpt lat="42.81973689" lon="13.41821554">
        <ele>708.00000</ele>
        <time>2024-03-21T13:12:51Z</time>
      </trkpt>
      <trkpt lat="42.81976908" lon="13.41817488">
        <ele>709.00000</ele>
        <time>2024-03-21T13:12:52Z</time>
      </trkpt>
      <trkpt lat="42.81980697" lon="13.41813784">
        <ele>710.00000</ele>
        <time>2024-03-21T13:12:53Z</time>
      </trkpt>
      <trkpt lat="42.81984376" lon="13.41809626">
        <ele>712.00000</ele>
        <time>2024-03-21T13:12:54Z</time>
      </trkpt>
      <trkpt lat="42.81987897" lon="13.41805469">
        <ele>713.00000</ele>
        <time>2024-03-21T13:12:55Z</time>
      </trkpt>
      <trkpt lat="42.81991484" lon="13.41801362">
        <ele>714.00000</ele>
        <time>2024-03-21T13:12:56Z</time>
      </trkpt>
      <trkpt lat="42.81995164" lon="13.41797196">
        <ele>715.00000</ele>
        <time>2024-03-21T13:12:57Z</time>
      </trkpt>
      <trkpt lat="42.81998793" lon="13.41793223">
        <ele>716.00000</ele>
        <time>2024-03-21T13:12:58Z</time>
      </trkpt>
      <trkpt lat="42.82002548" lon="13.41789694">
        <ele>717.00000</ele>
        <time>2024-03-21T13:12:59Z</time>
      </trkpt>
      <trkpt lat="42.82006354" lon="13.41786609">
        <ele>717.00000</ele>
        <time>2024-03-21T13:13:00Z</time>
      </trkpt>
      <trkpt lat="42.82010025" lon="13.41783743">
        <ele>718.00000</ele>
        <time>2024-03-21T13:13:01Z</time>
      </trkpt>
      <trkpt lat="42.82013503" lon="13.41781077">
        <ele>719.00000</ele>
        <time>2024-03-21T13:13:02Z</time>
      </trkpt>
      <trkpt lat="42.82016839" lon="13.41778655">
        <ele>720.00000</ele>
        <time>2024-03-21T13:13:03Z</time>
      </trkpt>
      <trkpt lat="42.82019999" lon="13.41776585">
        <ele>721.00000</ele>
        <time>2024-03-21T13:13:04Z</time>
      </trkpt>
      <trkpt lat="42.82024048" lon="13.41773752">
        <ele>722.00000</ele>
        <time>2024-03-21T13:13:05Z</time>
      </trkpt>
      <trkpt lat="42.82026671" lon="13.41771564">
        <ele>722.00000</ele>
        <time>2024-03-21T13:13:06Z</time>
      </trkpt>
      <trkpt lat="42.82030217" lon="13.41767968">
        <ele>723.00000</ele>
        <time>2024-03-21T13:13:07Z</time>
      </trkpt>
      <trkpt lat="42.82032438" lon="13.41765244">
        <ele>722.00000</ele>
        <time>2024-03-21T13:13:08Z</time>
      </trkpt>
      <trkpt lat="42.82037375" lon="13.41758153">
        <ele>722.00000</ele>
        <time>2024-03-21T13:13:10Z</time>
      </trkpt>
      <trkpt lat="42.82043921" lon="13.41745329">
        <ele>722.00000</ele>
        <time>2024-03-21T13:13:13Z</time>
      </trkpt>
      <trkpt lat="42.82048003" lon="13.41736352">
        <ele>722.00000</ele>
        <time>2024-03-21T13:13:15Z</time>
      </trkpt>
      <trkpt lat="42.82052219" lon="13.41721457">
        <ele>724.00000</ele>
        <time>2024-03-21T13:13:18Z</time>
      </trkpt>
      <trkpt lat="42.82053644" lon="13.41709555">
        <ele>724.00000</ele>
        <time>2024-03-21T13:13:20Z</time>
      </trkpt>
      <trkpt lat="42.82057911" lon="13.41683906">
        <ele>725.00000</ele>
        <time>2024-03-21T13:13:24Z</time>
      </trkpt>
      <trkpt lat="42.82059604" lon="13.41677636">
        <ele>725.00000</ele>
        <time>2024-03-21T13:13:25Z</time>
      </trkpt>
      <trkpt lat="42.82063359" lon="13.41665633">
        <ele>726.00000</ele>
        <time>2024-03-21T13:13:27Z</time>
      </trkpt>
      <trkpt lat="42.82071481" lon="13.41644452">
        <ele>724.00000</ele>
        <time>2024-03-21T13:13:31Z</time>
      </trkpt>
      <trkpt lat="42.82073752" lon="13.41639465">
        <ele>724.00000</ele>
        <time>2024-03-21T13:13:32Z</time>
      </trkpt>
      <trkpt lat="42.82083291" lon="13.41615451">
        <ele>725.00000</ele>
        <time>2024-03-21T13:13:37Z</time>
      </trkpt>
      <trkpt lat="42.82090223" lon="13.41601193">
        <ele>726.00000</ele>
        <time>2024-03-21T13:13:40Z</time>
      </trkpt>
      <trkpt lat="42.82094766" lon="13.41593340">
        <ele>727.00000</ele>
        <time>2024-03-21T13:13:42Z</time>
      </trkpt>
      <trkpt lat="42.82106978" lon="13.41580557">
        <ele>732.00000</ele>
        <time>2024-03-21T13:13:46Z</time>
      </trkpt>
      <trkpt lat="42.82110666" lon="13.41579208">
        <ele>734.00000</ele>
        <time>2024-03-21T13:13:47Z</time>
      </trkpt>
      <trkpt lat="42.82113650" lon="13.41578973">
        <ele>734.00000</ele>
        <time>2024-03-21T13:13:48Z</time>
      </trkpt>
      <trkpt lat="42.82117112" lon="13.41579342">
        <ele>735.00000</ele>
        <time>2024-03-21T13:13:49Z</time>
      </trkpt>
      <trkpt lat="42.82120549" lon="13.41580272">
        <ele>735.00000</ele>
        <time>2024-03-21T13:13:50Z</time>
      </trkpt>
      <trkpt lat="42.82124396" lon="13.41581538">
        <ele>736.00000</ele>
        <time>2024-03-21T13:13:51Z</time>
      </trkpt>
      <trkpt lat="42.82126810" lon="13.41581957">
        <ele>736.00000</ele>
        <time>2024-03-21T13:13:52Z</time>
      </trkpt>
      <trkpt lat="42.82129945" lon="13.41582854">
        <ele>736.00000</ele>
        <time>2024-03-21T13:13:53Z</time>
      </trkpt>
      <trkpt lat="42.82133976" lon="13.41583491">
        <ele>737.00000</ele>
        <time>2024-03-21T13:13:54Z</time>
      </trkpt>
      <trkpt lat="42.82137195" lon="13.41583508">
        <ele>737.00000</ele>
        <time>2024-03-21T13:13:55Z</time>
      </trkpt>
      <trkpt lat="42.82140766" lon="13.41583617">
        <ele>738.00000</ele>
        <time>2024-03-21T13:13:56Z</time>
      </trkpt>
      <trkpt lat="42.82143565" lon="13.41583742">
        <ele>738.00000</ele>
        <time>2024-03-21T13:13:57Z</time>
      </trkpt>
      <trkpt lat="42.82147102" lon="13.41583960">
        <ele>738.00000</ele>
        <time>2024-03-21T13:13:58Z</time>
      </trkpt>
      <trkpt lat="42.82151226" lon="13.41584824">
        <ele>738.00000</ele>
        <time>2024-03-21T13:13:59Z</time>
      </trkpt>
      <trkpt lat="42.82154680" lon="13.41585536">
        <ele>738.00000</ele>
        <time>2024-03-21T13:14:00Z</time>
      </trkpt>
      <trkpt lat="42.82158485" lon="13.41585813">
        <ele>738.00000</ele>
        <time>2024-03-21T13:14:01Z</time>
      </trkpt>
      <trkpt lat="42.82161561" lon="13.41586383">
        <ele>738.00000</ele>
        <time>2024-03-21T13:14:02Z</time>
      </trkpt>
      <trkpt lat="42.82165425" lon="13.41587045">
        <ele>738.00000</ele>
        <time>2024-03-21T13:14:03Z</time>
      </trkpt>
      <trkpt lat="42.82170019" lon="13.41587489">
        <ele>738.00000</ele>
        <time>2024-03-21T13:14:04Z</time>
      </trkpt>
      <trkpt lat="42.82174193" lon="13.41587699">
        <ele>739.00000</ele>
        <time>2024-03-21T13:14:05Z</time>
      </trkpt>
      <trkpt lat="42.82178183" lon="13.41588025">
        <ele>739.00000</ele>
        <time>2024-03-21T13:14:06Z</time>
      </trkpt>
      <trkpt lat="42.82182072" lon="13.41588495">
        <ele>740.00000</ele>
        <time>2024-03-21T13:14:07Z</time>
      </trkpt>
      <trkpt lat="42.82185936" lon="13.41589207">
        <ele>740.00000</ele>
        <time>2024-03-21T13:14:08Z</time>
      </trkpt>
      <trkpt lat="42.82189833" lon="13.41590297">
        <ele>741.00000</ele>
        <time>2024-03-21T13:14:09Z</time>
      </trkpt>
      <trkpt lat="42.82193622" lon="13.41591110">
        <ele>741.00000</ele>
        <time>2024-03-21T13:14:10Z</time>
      </trkpt>
      <trkpt lat="42.82196941" lon="13.41591420">
        <ele>741.00000</ele>
        <time>2024-03-21T13:14:11Z</time>
      </trkpt>
      <trkpt lat="42.82201258" lon="13.41592091">
        <ele>741.00000</ele>
        <time>2024-03-21T13:14:12Z</time>
      </trkpt>
      <trkpt lat="42.82206455" lon="13.41593214">
        <ele>741.00000</ele>
        <time>2024-03-21T13:14:13Z</time>
      </trkpt>
      <trkpt lat="42.82210344" lon="13.41594572">
        <ele>741.00000</ele>
        <time>2024-03-21T13:14:14Z</time>
      </trkpt>
      <trkpt lat="42.82214258" lon="13.41596290">
        <ele>741.00000</ele>
        <time>2024-03-21T13:14:15Z</time>
      </trkpt>
      <trkpt lat="42.82217544" lon="13.41597815">
        <ele>741.00000</ele>
        <time>2024-03-21T13:14:16Z</time>
      </trkpt>
      <trkpt lat="42.82222347" lon="13.41600397">
        <ele>740.00000</ele>
        <time>2024-03-21T13:14:17Z</time>
      </trkpt>
      <trkpt lat="42.82226094" lon="13.41603071">
        <ele>740.00000</ele>
        <time>2024-03-21T13:14:18Z</time>
      </trkpt>
      <trkpt lat="42.82229580" lon="13.41606130">
        <ele>739.00000</ele>
        <time>2024-03-21T13:14:19Z</time>
      </trkpt>
      <trkpt lat="42.82232841" lon="13.41609424">
        <ele>738.00000</ele>
        <time>2024-03-21T13:14:20Z</time>
      </trkpt>
      <trkpt lat="42.82235247" lon="13.41612266">
        <ele>738.00000</ele>
        <time>2024-03-21T13:14:21Z</time>
      </trkpt>
      <trkpt lat="42.82238373" lon="13.41616557">
        <ele>738.00000</ele>
        <time>2024-03-21T13:14:22Z</time>
      </trkpt>
      <trkpt lat="42.82240393" lon="13.41620396">
        <ele>737.00000</ele>
        <time>2024-03-21T13:14:23Z</time>
      </trkpt>
      <trkpt lat="42.82242153" lon="13.41624512">
        <ele>737.00000</ele>
        <time>2024-03-21T13:14:24Z</time>
      </trkpt>
      <trkpt lat="42.82243595" lon="13.41629105">
        <ele>737.00000</ele>
        <time>2024-03-21T13:14:25Z</time>
      </trkpt>
      <trkpt lat="42.82244752" lon="13.41633539">
        <ele>737.00000</ele>
        <time>2024-03-21T13:14:26Z</time>
      </trkpt>
      <trkpt lat="42.82245900" lon="13.41639926">
        <ele>736.00000</ele>
        <time>2024-03-21T13:14:27Z</time>
      </trkpt>
      <trkpt lat="42.82246721" lon="13.41647143">
        <ele>736.00000</ele>
        <time>2024-03-21T13:14:28Z</time>
      </trkpt>
      <trkpt lat="42.82247467" lon="13.41654410">
        <ele>736.00000</ele>
        <time>2024-03-21T13:14:29Z</time>
      </trkpt>
      <trkpt lat="42.82248331" lon="13.41662197">
        <ele>736.00000</ele>
        <time>2024-03-21T13:14:30Z</time>
      </trkpt>
      <trkpt lat="42.82248867" lon="13.41670118">
        <ele>735.00000</ele>
        <time>2024-03-21T13:14:31Z</time>
      </trkpt>
      <trkpt lat="42.82249362" lon="13.41677997">
        <ele>735.00000</ele>
        <time>2024-03-21T13:14:32Z</time>
      </trkpt>
      <trkpt lat="42.82249705" lon="13.41685859">
        <ele>735.00000</ele>
        <time>2024-03-21T13:14:33Z</time>
      </trkpt>
      <trkpt lat="42.82250091" lon="13.41693688">
        <ele>735.00000</ele>
        <time>2024-03-21T13:14:34Z</time>
      </trkpt>
      <trkpt lat="42.82250334" lon="13.41701734">
        <ele>735.00000</ele>
        <time>2024-03-21T13:14:35Z</time>
      </trkpt>
      <trkpt lat="42.82250644" lon="13.41709647">
        <ele>735.00000</ele>
        <time>2024-03-21T13:14:36Z</time>
      </trkpt>
      <trkpt lat="42.82251114" lon="13.41718892">
        <ele>735.00000</ele>
        <time>2024-03-21T13:14:37Z</time>
      </trkpt>
      <trkpt lat="42.82251357" lon="13.41726536">
        <ele>734.00000</ele>
        <time>2024-03-21T13:14:38Z</time>
      </trkpt>
      <trkpt lat="42.82251818" lon="13.41733879">
        <ele>734.00000</ele>
        <time>2024-03-21T13:14:39Z</time>
      </trkpt>
      <trkpt lat="42.82252161" lon="13.41739436">
        <ele>734.00000</ele>
        <time>2024-03-21T13:14:40Z</time>
      </trkpt>
      <trkpt lat="42.82252639" lon="13.41746410">
        <ele>734.00000</ele>
        <time>2024-03-21T13:14:41Z</time>
      </trkpt>
      <trkpt lat="42.82253092" lon="13.41753224">
        <ele>733.00000</ele>
        <time>2024-03-21T13:14:42Z</time>
      </trkpt>
      <trkpt lat="42.82253125" lon="13.41760173">
        <ele>733.00000</ele>
        <time>2024-03-21T13:14:43Z</time>
      </trkpt>
      <trkpt lat="42.82252983" lon="13.41766937">
        <ele>734.00000</ele>
        <time>2024-03-21T13:14:44Z</time>
      </trkpt>
      <trkpt lat="42.82252949" lon="13.41773492">
        <ele>734.00000</ele>
        <time>2024-03-21T13:14:45Z</time>
      </trkpt>
      <trkpt lat="42.82253427" lon="13.41780315">
        <ele>734.00000</ele>
        <time>2024-03-21T13:14:46Z</time>
      </trkpt>
      <trkpt lat="42.82254466" lon="13.41786827">
        <ele>734.00000</ele>
        <time>2024-03-21T13:14:47Z</time>
      </trkpt>
      <trkpt lat="42.82255422" lon="13.41793064">
        <ele>734.00000</ele>
        <time>2024-03-21T13:14:48Z</time>
      </trkpt>
      <trkpt lat="42.82255757" lon="13.41799124">
        <ele>734.00000</ele>
        <time>2024-03-21T13:14:49Z</time>
      </trkpt>
      <trkpt lat="42.82255497" lon="13.41804999">
        <ele>734.00000</ele>
        <time>2024-03-21T13:14:50Z</time>
      </trkpt>
      <trkpt lat="42.82255573" lon="13.41810766">
        <ele>734.00000</ele>
        <time>2024-03-21T13:14:51Z</time>
      </trkpt>
      <trkpt lat="42.82256000" lon="13.41816298">
        <ele>735.00000</ele>
        <time>2024-03-21T13:14:52Z</time>
      </trkpt>
      <trkpt lat="42.82256830" lon="13.41822937">
        <ele>735.00000</ele>
        <time>2024-03-21T13:14:53Z</time>
      </trkpt>
      <trkpt lat="42.82257375" lon="13.41827379">
        <ele>735.00000</ele>
        <time>2024-03-21T13:14:54Z</time>
      </trkpt>
      <trkpt lat="42.82257903" lon="13.41833087">
        <ele>735.00000</ele>
        <time>2024-03-21T13:14:55Z</time>
      </trkpt>
      <trkpt lat="42.82258565" lon="13.41838971">
        <ele>734.00000</ele>
        <time>2024-03-21T13:14:56Z</time>
      </trkpt>
      <trkpt lat="42.82259068" lon="13.41846113">
        <ele>734.00000</ele>
        <time>2024-03-21T13:14:57Z</time>
      </trkpt>
      <trkpt lat="42.82258984" lon="13.41850874">
        <ele>734.00000</ele>
        <time>2024-03-21T13:14:58Z</time>
      </trkpt>
      <trkpt lat="42.82258959" lon="13.41856875">
        <ele>734.00000</ele>
        <time>2024-03-21T13:14:59Z</time>
      </trkpt>
      <trkpt lat="42.82259336" lon="13.41863237">
        <ele>734.00000</ele>
        <time>2024-03-21T13:15:00Z</time>
      </trkpt>
      <trkpt lat="42.82259915" lon="13.41869590">
        <ele>734.00000</ele>
        <time>2024-03-21T13:15:01Z</time>
      </trkpt>
      <trkpt lat="42.82260367" lon="13.41875751">
        <ele>734.00000</ele>
        <time>2024-03-21T13:15:02Z</time>
      </trkpt>
      <trkpt lat="42.82260929" lon="13.41881895">
        <ele>734.00000</ele>
        <time>2024-03-21T13:15:03Z</time>
      </trkpt>
      <trkpt lat="42.82261641" lon="13.41887963">
        <ele>734.00000</ele>
        <time>2024-03-21T13:15:04Z</time>
      </trkpt>
      <trkpt lat="42.82262630" lon="13.41894082">
        <ele>734.00000</ele>
        <time>2024-03-21T13:15:05Z</time>
      </trkpt>
      <trkpt lat="42.82263611" lon="13.41900075">
        <ele>734.00000</ele>
        <time>2024-03-21T13:15:06Z</time>
      </trkpt>
      <trkpt lat="42.82264516" lon="13.41907317">
        <ele>734.00000</ele>
        <time>2024-03-21T13:15:07Z</time>
      </trkpt>
      <trkpt lat="42.82264902" lon="13.41912439">
        <ele>734.00000</ele>
        <time>2024-03-21T13:15:08Z</time>
      </trkpt>
      <trkpt lat="42.82265497" lon="13.41918792">
        <ele>734.00000</ele>
        <time>2024-03-21T13:15:09Z</time>
      </trkpt>
      <trkpt lat="42.82266100" lon="13.41925238">
        <ele>734.00000</ele>
        <time>2024-03-21T13:15:10Z</time>
      </trkpt>
      <trkpt lat="42.82266461" lon="13.41931633">
        <ele>735.00000</ele>
        <time>2024-03-21T13:15:11Z</time>
      </trkpt>
      <trkpt lat="42.82266377" lon="13.41938179">
        <ele>735.00000</ele>
        <time>2024-03-21T13:15:12Z</time>
      </trkpt>
      <trkpt lat="42.82266201" lon="13.41944566">
        <ele>735.00000</ele>
        <time>2024-03-21T13:15:13Z</time>
      </trkpt>
      <trkpt lat="42.82266285" lon="13.41950987">
        <ele>735.00000</ele>
        <time>2024-03-21T13:15:14Z</time>
      </trkpt>
      <trkpt lat="42.82266804" lon="13.41957667">
        <ele>735.00000</ele>
        <time>2024-03-21T13:15:15Z</time>
      </trkpt>
      <trkpt lat="42.82267425" lon="13.41964256">
        <ele>736.00000</ele>
        <time>2024-03-21T13:15:16Z</time>
      </trkpt>
      <trkpt lat="42.82268204" lon="13.41970567">
        <ele>736.00000</ele>
        <time>2024-03-21T13:15:17Z</time>
      </trkpt>
      <trkpt lat="42.82268841" lon="13.41977281">
        <ele>737.00000</ele>
        <time>2024-03-21T13:15:18Z</time>
      </trkpt>
      <trkpt lat="42.82269579" lon="13.41983903">
        <ele>737.00000</ele>
        <time>2024-03-21T13:15:19Z</time>
      </trkpt>
      <trkpt lat="42.82270233" lon="13.41990558">
        <ele>738.00000</ele>
        <time>2024-03-21T13:15:20Z</time>
      </trkpt>
      <trkpt lat="42.82270962" lon="13.41997238">
        <ele>738.00000</ele>
        <time>2024-03-21T13:15:21Z</time>
      </trkpt>
      <trkpt lat="42.82271607" lon="13.42003801">
        <ele>739.00000</ele>
        <time>2024-03-21T13:15:22Z</time>
      </trkpt>
      <trkpt lat="42.82272244" lon="13.42010239">
        <ele>739.00000</ele>
        <time>2024-03-21T13:15:23Z</time>
      </trkpt>
      <trkpt lat="42.82272982" lon="13.42016416">
        <ele>739.00000</ele>
        <time>2024-03-21T13:15:24Z</time>
      </trkpt>
      <trkpt lat="42.82273854" lon="13.42021957">
        <ele>739.00000</ele>
        <time>2024-03-21T13:15:25Z</time>
      </trkpt>
      <trkpt lat="42.82274901" lon="13.42026902">
        <ele>740.00000</ele>
        <time>2024-03-21T13:15:26Z</time>
      </trkpt>
      <trkpt lat="42.82276092" lon="13.42031244">
        <ele>740.00000</ele>
        <time>2024-03-21T13:15:27Z</time>
      </trkpt>
      <trkpt lat="42.82276879" lon="13.42035418">
        <ele>740.00000</ele>
        <time>2024-03-21T13:15:28Z</time>
      </trkpt>
      <trkpt lat="42.82276930" lon="13.42039491">
        <ele>739.00000</ele>
        <time>2024-03-21T13:15:29Z</time>
      </trkpt>
      <trkpt lat="42.82277491" lon="13.42043473">
        <ele>739.00000</ele>
        <time>2024-03-21T13:15:30Z</time>
      </trkpt>
      <trkpt lat="42.82279327" lon="13.42047203">
        <ele>739.00000</ele>
        <time>2024-03-21T13:15:31Z</time>
      </trkpt>
      <trkpt lat="42.82282135" lon="13.42050489">
        <ele>739.00000</ele>
        <time>2024-03-21T13:15:32Z</time>
      </trkpt>
      <trkpt lat="42.82285270" lon="13.42054327">
        <ele>739.00000</ele>
        <time>2024-03-21T13:15:33Z</time>
      </trkpt>
      <trkpt lat="42.82288086" lon="13.42059063">
        <ele>738.00000</ele>
        <time>2024-03-21T13:15:34Z</time>
      </trkpt>
      <trkpt lat="42.82290643" lon="13.42064419">
        <ele>738.00000</ele>
        <time>2024-03-21T13:15:35Z</time>
      </trkpt>
      <trkpt lat="42.82293249" lon="13.42070211">
        <ele>738.00000</ele>
        <time>2024-03-21T13:15:36Z</time>
      </trkpt>
      <trkpt lat="42.82295948" lon="13.42076246">
        <ele>738.00000</ele>
        <time>2024-03-21T13:15:37Z</time>
      </trkpt>
      <trkpt lat="42.82298530" lon="13.42082700">
        <ele>738.00000</ele>
        <time>2024-03-21T13:15:38Z</time>
      </trkpt>
      <trkpt lat="42.82301153" lon="13.42089649">
        <ele>738.00000</ele>
        <time>2024-03-21T13:15:39Z</time>
      </trkpt>
      <trkpt lat="42.82303702" lon="13.42096908">
        <ele>738.00000</ele>
        <time>2024-03-21T13:15:40Z</time>
      </trkpt>
      <trkpt lat="42.82307029" lon="13.42105910">
        <ele>738.00000</ele>
        <time>2024-03-21T13:15:41Z</time>
      </trkpt>
      <trkpt lat="42.82309208" lon="13.42112280">
        <ele>738.00000</ele>
        <time>2024-03-21T13:15:42Z</time>
      </trkpt>
      <trkpt lat="42.82311815" lon="13.42120821">
        <ele>738.00000</ele>
        <time>2024-03-21T13:15:43Z</time>
      </trkpt>
      <trkpt lat="42.82314565" lon="13.42130008">
        <ele>738.00000</ele>
        <time>2024-03-21T13:15:44Z</time>
      </trkpt>
      <trkpt lat="42.82317364" lon="13.42139286">
        <ele>738.00000</ele>
        <time>2024-03-21T13:15:45Z</time>
      </trkpt>
      <trkpt lat="42.82320943" lon="13.42151365">
        <ele>738.00000</ele>
        <time>2024-03-21T13:15:46Z</time>
      </trkpt>
      <trkpt lat="42.82323542" lon="13.42159872">
        <ele>738.00000</ele>
        <time>2024-03-21T13:15:47Z</time>
      </trkpt>
      <trkpt lat="42.82326752" lon="13.42170400">
        <ele>738.00000</ele>
        <time>2024-03-21T13:15:48Z</time>
      </trkpt>
      <trkpt lat="42.82329727" lon="13.42181338">
        <ele>740.00000</ele>
        <time>2024-03-21T13:15:49Z</time>
      </trkpt>
      <trkpt lat="42.82332980" lon="13.42192755">
        <ele>741.00000</ele>
        <time>2024-03-21T13:15:50Z</time>
      </trkpt>
      <trkpt lat="42.82336366" lon="13.42204724">
        <ele>742.00000</ele>
        <time>2024-03-21T13:15:51Z</time>
      </trkpt>
      <trkpt lat="42.82340012" lon="13.42217255">
        <ele>742.00000</ele>
        <time>2024-03-21T13:15:52Z</time>
      </trkpt>
      <trkpt lat="42.82344010" lon="13.42230062">
        <ele>742.00000</ele>
        <time>2024-03-21T13:15:53Z</time>
      </trkpt>
      <trkpt lat="42.82348360" lon="13.42242904">
        <ele>741.00000</ele>
        <time>2024-03-21T13:15:54Z</time>
      </trkpt>
      <trkpt lat="42.82352845" lon="13.42255879">
        <ele>741.00000</ele>
        <time>2024-03-21T13:15:55Z</time>
      </trkpt>
      <trkpt lat="42.82357639" lon="13.42268896">
        <ele>741.00000</ele>
        <time>2024-03-21T13:15:56Z</time>
      </trkpt>
      <trkpt lat="42.82362576" lon="13.42282131">
        <ele>741.00000</ele>
        <time>2024-03-21T13:15:57Z</time>
      </trkpt>
      <trkpt lat="42.82367379" lon="13.42295592">
        <ele>740.00000</ele>
        <time>2024-03-21T13:15:58Z</time>
      </trkpt>
      <trkpt lat="42.82371888" lon="13.42309204">
        <ele>739.00000</ele>
        <time>2024-03-21T13:15:59Z</time>
      </trkpt>
      <trkpt lat="42.82376373" lon="13.42322993">
        <ele>738.00000</ele>
        <time>2024-03-21T13:16:00Z</time>
      </trkpt>
      <trkpt lat="42.82380765" lon="13.42336999">
        <ele>738.00000</ele>
        <time>2024-03-21T13:16:01Z</time>
      </trkpt>
      <trkpt lat="42.82385291" lon="13.42351131">
        <ele>737.00000</ele>
        <time>2024-03-21T13:16:02Z</time>
      </trkpt>
      <trkpt lat="42.82390329" lon="13.42365145">
        <ele>736.00000</ele>
        <time>2024-03-21T13:16:03Z</time>
      </trkpt>
      <trkpt lat="42.82395467" lon="13.42379143">
        <ele>735.00000</ele>
        <time>2024-03-21T13:16:04Z</time>
      </trkpt>
      <trkpt lat="42.82399876" lon="13.42394339">
        <ele>733.00000</ele>
        <time>2024-03-21T13:16:05Z</time>
      </trkpt>
      <trkpt lat="42.82404150" lon="13.42409502">
        <ele>730.00000</ele>
        <time>2024-03-21T13:16:06Z</time>
      </trkpt>
      <trkpt lat="42.82408098" lon="13.42424824">
        <ele>728.00000</ele>
        <time>2024-03-21T13:16:07Z</time>
      </trkpt>
      <trkpt lat="42.82411694" lon="13.42440440">
        <ele>729.00000</ele>
        <time>2024-03-21T13:16:08Z</time>
      </trkpt>
      <trkpt lat="42.82415072" lon="13.42456148">
        <ele>727.00000</ele>
        <time>2024-03-21T13:16:09Z</time>
      </trkpt>
      <trkpt lat="42.82418777" lon="13.42471822">
        <ele>724.00000</ele>
        <time>2024-03-21T13:16:10Z</time>
      </trkpt>
      <trkpt lat="42.82422934" lon="13.42487521">
        <ele>722.00000</ele>
        <time>2024-03-21T13:16:11Z</time>
      </trkpt>
      <trkpt lat="42.82427201" lon="13.42503204">
        <ele>721.00000</ele>
        <time>2024-03-21T13:16:12Z</time>
      </trkpt>
      <trkpt lat="42.82432137" lon="13.42522297">
        <ele>722.00000</ele>
        <time>2024-03-21T13:16:13Z</time>
      </trkpt>
      <trkpt lat="42.82434686" lon="13.42535206">
        <ele>722.00000</ele>
        <time>2024-03-21T13:16:14Z</time>
      </trkpt>
      <trkpt lat="42.82436840" lon="13.42554735">
        <ele>723.00000</ele>
        <time>2024-03-21T13:16:15Z</time>
      </trkpt>
      <trkpt lat="42.82436513" lon="13.42568180">
        <ele>722.00000</ele>
        <time>2024-03-21T13:16:16Z</time>
      </trkpt>
      <trkpt lat="42.82436320" lon="13.42585388">
        <ele>719.00000</ele>
        <time>2024-03-21T13:16:17Z</time>
      </trkpt>
      <trkpt lat="42.82437644" lon="13.42606192">
        <ele>715.00000</ele>
        <time>2024-03-21T13:16:18Z</time>
      </trkpt>
      <trkpt lat="42.82439899" lon="13.42619846">
        <ele>713.00000</ele>
        <time>2024-03-21T13:16:19Z</time>
      </trkpt>
      <trkpt lat="42.82444350" lon="13.42636384">
        <ele>713.00000</ele>
        <time>2024-03-21T13:16:20Z</time>
      </trkpt>
      <trkpt lat="42.82448382" lon="13.42652762">
        <ele>711.00000</ele>
        <time>2024-03-21T13:16:21Z</time>
      </trkpt>
      <trkpt lat="42.82451768" lon="13.42669492">
        <ele>711.00000</ele>
        <time>2024-03-21T13:16:22Z</time>
      </trkpt>
      <trkpt lat="42.82454241" lon="13.42686591">
        <ele>711.00000</ele>
        <time>2024-03-21T13:16:23Z</time>
      </trkpt>
      <trkpt lat="42.82456470" lon="13.42703615">
        <ele>711.00000</ele>
        <time>2024-03-21T13:16:24Z</time>
      </trkpt>
      <trkpt lat="42.82458306" lon="13.42720546">
        <ele>712.00000</ele>
        <time>2024-03-21T13:16:25Z</time>
      </trkpt>
      <trkpt lat="42.82460066" lon="13.42737092">
        <ele>712.00000</ele>
        <time>2024-03-21T13:16:26Z</time>
      </trkpt>
      <trkpt lat="42.82462472" lon="13.42752624">
        <ele>712.00000</ele>
        <time>2024-03-21T13:16:27Z</time>
      </trkpt>
      <trkpt lat="42.82464601" lon="13.42767510">
        <ele>711.00000</ele>
        <time>2024-03-21T13:16:28Z</time>
      </trkpt>
      <trkpt lat="42.82466453" lon="13.42782195">
        <ele>709.00000</ele>
        <time>2024-03-21T13:16:29Z</time>
      </trkpt>
      <trkpt lat="42.82469328" lon="13.42796310">
        <ele>707.00000</ele>
        <time>2024-03-21T13:16:30Z</time>
      </trkpt>
      <trkpt lat="42.82473611" lon="13.42809570">
        <ele>706.00000</ele>
        <time>2024-03-21T13:16:31Z</time>
      </trkpt>
      <trkpt lat="42.82478758" lon="13.42822428">
        <ele>705.00000</ele>
        <time>2024-03-21T13:16:32Z</time>
      </trkpt>
      <trkpt lat="42.82483569" lon="13.42834750">
        <ele>704.00000</ele>
        <time>2024-03-21T13:16:33Z</time>
      </trkpt>
      <trkpt lat="42.82488388" lon="13.42847054">
        <ele>704.00000</ele>
        <time>2024-03-21T13:16:34Z</time>
      </trkpt>
      <trkpt lat="42.82492965" lon="13.42859284">
        <ele>705.00000</ele>
        <time>2024-03-21T13:16:35Z</time>
      </trkpt>
      <trkpt lat="42.82497407" lon="13.42871462">
        <ele>703.00000</ele>
        <time>2024-03-21T13:16:36Z</time>
      </trkpt>
      <trkpt lat="42.82501875" lon="13.42883574">
        <ele>702.00000</ele>
        <time>2024-03-21T13:16:37Z</time>
      </trkpt>
      <trkpt lat="42.82506250" lon="13.42895661">
        <ele>701.00000</ele>
        <time>2024-03-21T13:16:38Z</time>
      </trkpt>
      <trkpt lat="42.82510659" lon="13.42907957">
        <ele>701.00000</ele>
        <time>2024-03-21T13:16:39Z</time>
      </trkpt>
      <trkpt lat="42.82514942" lon="13.42920421">
        <ele>701.00000</ele>
        <time>2024-03-21T13:16:40Z</time>
      </trkpt>
      <trkpt lat="42.82518966" lon="13.42933036">
        <ele>702.00000</ele>
        <time>2024-03-21T13:16:41Z</time>
      </trkpt>
      <trkpt lat="42.82522243" lon="13.42945835">
        <ele>703.00000</ele>
        <time>2024-03-21T13:16:42Z</time>
      </trkpt>
      <trkpt lat="42.82525965" lon="13.42958718">
        <ele>704.00000</ele>
        <time>2024-03-21T13:16:43Z</time>
      </trkpt>
      <trkpt lat="42.82531279" lon="13.42973613">
        <ele>704.00000</ele>
        <time>2024-03-21T13:16:44Z</time>
      </trkpt>
      <trkpt lat="42.82535101" lon="13.42983344">
        <ele>703.00000</ele>
        <time>2024-03-21T13:16:45Z</time>
      </trkpt>
      <trkpt lat="42.82539820" lon="13.42995364">
        <ele>703.00000</ele>
        <time>2024-03-21T13:16:46Z</time>
      </trkpt>
      <trkpt lat="42.82544589" lon="13.43007409">
        <ele>702.00000</ele>
        <time>2024-03-21T13:16:47Z</time>
      </trkpt>
      <trkpt lat="42.82549023" lon="13.43019244">
        <ele>701.00000</ele>
        <time>2024-03-21T13:16:48Z</time>
      </trkpt>
      <trkpt lat="42.82554404" lon="13.43033401">
        <ele>700.00000</ele>
        <time>2024-03-21T13:16:49Z</time>
      </trkpt>
      <trkpt lat="42.82557992" lon="13.43042797">
        <ele>700.00000</ele>
        <time>2024-03-21T13:16:50Z</time>
      </trkpt>
      <trkpt lat="42.82562552" lon="13.43054238">
        <ele>701.00000</ele>
        <time>2024-03-21T13:16:51Z</time>
      </trkpt>
      <trkpt lat="42.82566868" lon="13.43065529">
        <ele>702.00000</ele>
        <time>2024-03-21T13:16:52Z</time>
      </trkpt>
      <trkpt lat="42.82571068" lon="13.43076107">
        <ele>704.00000</ele>
        <time>2024-03-21T13:16:53Z</time>
      </trkpt>
      <trkpt lat="42.82575015" lon="13.43086215">
        <ele>706.00000</ele>
        <time>2024-03-21T13:16:54Z</time>
      </trkpt>
      <trkpt lat="42.82578603" lon="13.43095754">
        <ele>709.00000</ele>
        <time>2024-03-21T13:16:55Z</time>
      </trkpt>
      <trkpt lat="42.82581863" lon="13.43104865">
        <ele>711.00000</ele>
        <time>2024-03-21T13:16:56Z</time>
      </trkpt>
      <trkpt lat="42.82584822" lon="13.43113590">
        <ele>713.00000</ele>
        <time>2024-03-21T13:16:57Z</time>
      </trkpt>
      <trkpt lat="42.82588033" lon="13.43121746">
        <ele>714.00000</ele>
        <time>2024-03-21T13:16:58Z</time>
      </trkpt>
      <trkpt lat="42.82592064" lon="13.43131033">
        <ele>715.00000</ele>
        <time>2024-03-21T13:16:59Z</time>
      </trkpt>
      <trkpt lat="42.82594864" lon="13.43137118">
        <ele>716.00000</ele>
        <time>2024-03-21T13:17:00Z</time>
      </trkpt>
      <trkpt lat="42.82598476" lon="13.43144562">
        <ele>717.00000</ele>
        <time>2024-03-21T13:17:01Z</time>
      </trkpt>
      <trkpt lat="42.82601678" lon="13.43152223">
        <ele>718.00000</ele>
        <time>2024-03-21T13:17:02Z</time>
      </trkpt>
      <trkpt lat="42.82604595" lon="13.43160009">
        <ele>719.00000</ele>
        <time>2024-03-21T13:17:03Z</time>
      </trkpt>
      <trkpt lat="42.82607328" lon="13.43168090">
        <ele>720.00000</ele>
        <time>2024-03-21T13:17:04Z</time>
      </trkpt>
      <trkpt lat="42.82609549" lon="13.43176270">
        <ele>720.00000</ele>
        <time>2024-03-21T13:17:05Z</time>
      </trkpt>
      <trkpt lat="42.82611686" lon="13.43184845">
        <ele>720.00000</ele>
        <time>2024-03-21T13:17:06Z</time>
      </trkpt>
      <trkpt lat="42.82613690" lon="13.43193554">
        <ele>719.00000</ele>
        <time>2024-03-21T13:17:07Z</time>
      </trkpt>
      <trkpt lat="42.82616070" lon="13.43203964">
        <ele>718.00000</ele>
        <time>2024-03-21T13:17:08Z</time>
      </trkpt>
      <trkpt lat="42.82617235" lon="13.43211080">
        <ele>718.00000</ele>
        <time>2024-03-21T13:17:09Z</time>
      </trkpt>
      <trkpt lat="42.82618417" lon="13.43219965">
        <ele>718.00000</ele>
        <time>2024-03-21T13:17:10Z</time>
      </trkpt>
      <trkpt lat="42.82620185" lon="13.43229018">
        <ele>717.00000</ele>
        <time>2024-03-21T13:17:11Z</time>
      </trkpt>
      <trkpt lat="42.82622088" lon="13.43238011">
        <ele>717.00000</ele>
        <time>2024-03-21T13:17:12Z</time>
      </trkpt>
      <trkpt lat="42.82624963" lon="13.43248581">
        <ele>716.00000</ele>
        <time>2024-03-21T13:17:13Z</time>
      </trkpt>
      <trkpt lat="42.82626983" lon="13.43255563">
        <ele>716.00000</ele>
        <time>2024-03-21T13:17:14Z</time>
      </trkpt>
      <trkpt lat="42.82629674" lon="13.43264339">
        <ele>716.00000</ele>
        <time>2024-03-21T13:17:15Z</time>
      </trkpt>
      <trkpt lat="42.82633110" lon="13.43274758">
        <ele>716.00000</ele>
        <time>2024-03-21T13:17:16Z</time>
      </trkpt>
      <trkpt lat="42.82635373" lon="13.43281857">
        <ele>717.00000</ele>
        <time>2024-03-21T13:17:17Z</time>
      </trkpt>
      <trkpt lat="42.82638257" lon="13.43290901">
        <ele>717.00000</ele>
        <time>2024-03-21T13:17:18Z</time>
      </trkpt>
      <trkpt lat="42.82640906" lon="13.43300222">
        <ele>717.00000</ele>
        <time>2024-03-21T13:17:19Z</time>
      </trkpt>
      <trkpt lat="42.82643630" lon="13.43309744">
        <ele>717.00000</ele>
        <time>2024-03-21T13:17:20Z</time>
      </trkpt>
      <trkpt lat="42.82646253" lon="13.43319592">
        <ele>717.00000</ele>
        <time>2024-03-21T13:17:21Z</time>
      </trkpt>
      <trkpt lat="42.82649522" lon="13.43332165">
        <ele>718.00000</ele>
        <time>2024-03-21T13:17:22Z</time>
      </trkpt>
      <trkpt lat="42.82652649" lon="13.43342903">
        <ele>717.00000</ele>
        <time>2024-03-21T13:17:23Z</time>
      </trkpt>
      <trkpt lat="42.82655373" lon="13.43351821">
        <ele>717.00000</ele>
        <time>2024-03-21T13:17:24Z</time>
      </trkpt>
      <trkpt lat="42.82658692" lon="13.43363606">
        <ele>717.00000</ele>
        <time>2024-03-21T13:17:25Z</time>
      </trkpt>
      <trkpt lat="42.82661936" lon="13.43375626">
        <ele>717.00000</ele>
        <time>2024-03-21T13:17:26Z</time>
      </trkpt>
      <trkpt lat="42.82664953" lon="13.43388215">
        <ele>719.00000</ele>
        <time>2024-03-21T13:17:27Z</time>
      </trkpt>
      <trkpt lat="42.82667032" lon="13.43401735">
        <ele>718.00000</ele>
        <time>2024-03-21T13:17:28Z</time>
      </trkpt>
      <trkpt lat="42.82668557" lon="13.43415582">
        <ele>717.00000</ele>
        <time>2024-03-21T13:17:29Z</time>
      </trkpt>
      <trkpt lat="42.82669999" lon="13.43429680">
        <ele>715.00000</ele>
        <time>2024-03-21T13:17:30Z</time>
      </trkpt>
      <trkpt lat="42.82671818" lon="13.43443653">
        <ele>715.00000</ele>
        <time>2024-03-21T13:17:31Z</time>
      </trkpt>
      <trkpt lat="42.82674341" lon="13.43457550">
        <ele>717.00000</ele>
        <time>2024-03-21T13:17:32Z</time>
      </trkpt>
      <trkpt lat="42.82676252" lon="13.43472294">
        <ele>718.00000</ele>
        <time>2024-03-21T13:17:33Z</time>
      </trkpt>
      <trkpt lat="42.82676545" lon="13.43487641">
        <ele>718.00000</ele>
        <time>2024-03-21T13:17:34Z</time>
      </trkpt>
      <trkpt lat="42.82674551" lon="13.43502435">
        <ele>715.00000</ele>
        <time>2024-03-21T13:17:35Z</time>
      </trkpt>
      <trkpt lat="42.82671323" lon="13.43516685">
        <ele>711.00000</ele>
        <time>2024-03-21T13:17:36Z</time>
      </trkpt>
      <trkpt lat="42.82668666" lon="13.43534446">
        <ele>706.00000</ele>
        <time>2024-03-21T13:17:37Z</time>
      </trkpt>
      <trkpt lat="42.82668331" lon="13.43546868">
        <ele>704.00000</ele>
        <time>2024-03-21T13:17:38Z</time>
      </trkpt>
      <trkpt lat="42.82669379" lon="13.43562425">
        <ele>703.00000</ele>
        <time>2024-03-21T13:17:39Z</time>
      </trkpt>
      <trkpt lat="42.82670829" lon="13.43577688">
        <ele>703.00000</ele>
        <time>2024-03-21T13:17:40Z</time>
      </trkpt>
      <trkpt lat="42.82671684" lon="13.43592960">
        <ele>702.00000</ele>
        <time>2024-03-21T13:17:41Z</time>
      </trkpt>
      <trkpt lat="42.82671147" lon="13.43608357">
        <ele>700.00000</ele>
        <time>2024-03-21T13:17:42Z</time>
      </trkpt>
      <trkpt lat="42.82669010" lon="13.43623219">
        <ele>699.00000</ele>
        <time>2024-03-21T13:17:43Z</time>
      </trkpt>
      <trkpt lat="42.82665180" lon="13.43637057">
        <ele>697.00000</ele>
        <time>2024-03-21T13:17:44Z</time>
      </trkpt>
      <trkpt lat="42.82659966" lon="13.43652631">
        <ele>694.00000</ele>
        <time>2024-03-21T13:17:45Z</time>
      </trkpt>
      <trkpt lat="42.82655976" lon="13.43665128">
        <ele>692.00000</ele>
        <time>2024-03-21T13:17:46Z</time>
      </trkpt>
      <trkpt lat="42.82652439" lon="13.43677584">
        <ele>690.00000</ele>
        <time>2024-03-21T13:17:47Z</time>
      </trkpt>
      <trkpt lat="42.82650964" lon="13.43687474">
        <ele>690.00000</ele>
        <time>2024-03-21T13:17:48Z</time>
      </trkpt>
      <trkpt lat="42.82650662" lon="13.43699594">
        <ele>690.00000</ele>
        <time>2024-03-21T13:17:49Z</time>
      </trkpt>
      <trkpt lat="42.82653210" lon="13.43712972">
        <ele>690.00000</ele>
        <time>2024-03-21T13:17:50Z</time>
      </trkpt>
      <trkpt lat="42.82657460" lon="13.43721102">
        <ele>692.00000</ele>
        <time>2024-03-21T13:17:51Z</time>
      </trkpt>
      <trkpt lat="42.82664266" lon="13.43730490">
        <ele>693.00000</ele>
        <time>2024-03-21T13:17:52Z</time>
      </trkpt>
      <trkpt lat="42.82671617" lon="13.43739400">
        <ele>693.00000</ele>
        <time>2024-03-21T13:17:53Z</time>
      </trkpt>
      <trkpt lat="42.82680108" lon="13.43747329">
        <ele>695.00000</ele>
        <time>2024-03-21T13:17:54Z</time>
      </trkpt>
      <trkpt lat="42.82689487" lon="13.43753130">
        <ele>697.00000</ele>
        <time>2024-03-21T13:17:55Z</time>
      </trkpt>
      <trkpt lat="42.82699646" lon="13.43755141">
        <ele>698.00000</ele>
        <time>2024-03-21T13:17:56Z</time>
      </trkpt>
      <trkpt lat="42.82710584" lon="13.43752811">
        <ele>698.00000</ele>
        <time>2024-03-21T13:17:57Z</time>
      </trkpt>
      <trkpt lat="42.82721338" lon="13.43747036">
        <ele>698.00000</ele>
        <time>2024-03-21T13:17:58Z</time>
      </trkpt>
      <trkpt lat="42.82731003" lon="13.43739015">
        <ele>697.00000</ele>
        <time>2024-03-21T13:17:59Z</time>
      </trkpt>
      <trkpt lat="42.82739670" lon="13.43729736">
        <ele>696.00000</ele>
        <time>2024-03-21T13:18:00Z</time>
      </trkpt>
      <trkpt lat="42.82747934" lon="13.43721765">
        <ele>695.00000</ele>
        <time>2024-03-21T13:18:01Z</time>
      </trkpt>
      <trkpt lat="42.82756123" lon="13.43716199">
        <ele>696.00000</ele>
        <time>2024-03-21T13:18:02Z</time>
      </trkpt>
      <trkpt lat="42.82763902" lon="13.43712897">
        <ele>698.00000</ele>
        <time>2024-03-21T13:18:03Z</time>
      </trkpt>
      <trkpt lat="42.82770683" lon="13.43712721">
        <ele>698.00000</ele>
        <time>2024-03-21T13:18:04Z</time>
      </trkpt>
      <trkpt lat="42.82774949" lon="13.43716006">
        <ele>697.00000</ele>
        <time>2024-03-21T13:18:05Z</time>
      </trkpt>
      <trkpt lat="42.82776248" lon="13.43721756">
        <ele>696.00000</ele>
        <time>2024-03-21T13:18:06Z</time>
      </trkpt>
      <trkpt lat="42.82774714" lon="13.43727883">
        <ele>694.00000</ele>
        <time>2024-03-21T13:18:07Z</time>
      </trkpt>
      <trkpt lat="42.82770163" lon="13.43732552">
        <ele>693.00000</ele>
        <time>2024-03-21T13:18:08Z</time>
      </trkpt>
      <trkpt lat="42.82764245" lon="13.43734941">
        <ele>692.00000</ele>
        <time>2024-03-21T13:18:09Z</time>
      </trkpt>
      <trkpt lat="42.82757406" lon="13.43737305">
        <ele>692.00000</ele>
        <time>2024-03-21T13:18:10Z</time>
      </trkpt>
      <trkpt lat="42.82750231" lon="13.43742803">
        <ele>692.00000</ele>
        <time>2024-03-21T13:18:11Z</time>
      </trkpt>
      <trkpt lat="42.82744137" lon="13.43751135">
        <ele>692.00000</ele>
        <time>2024-03-21T13:18:12Z</time>
      </trkpt>
      <trkpt lat="42.82738848" lon="13.43761000">
        <ele>691.00000</ele>
        <time>2024-03-21T13:18:13Z</time>
      </trkpt>
      <trkpt lat="42.82734003" lon="13.43772207">
        <ele>690.00000</ele>
        <time>2024-03-21T13:18:14Z</time>
      </trkpt>
      <trkpt lat="42.82729293" lon="13.43783581">
        <ele>689.00000</ele>
        <time>2024-03-21T13:18:15Z</time>
      </trkpt>
      <trkpt lat="42.82724155" lon="13.43794008">
        <ele>687.00000</ele>
        <time>2024-03-21T13:18:16Z</time>
      </trkpt>
      <trkpt lat="42.82716955" lon="13.43804175">
        <ele>686.00000</ele>
        <time>2024-03-21T13:18:17Z</time>
      </trkpt>
      <trkpt lat="42.82709143" lon="13.43815122">
        <ele>685.00000</ele>
        <time>2024-03-21T13:18:18Z</time>
      </trkpt>
      <trkpt lat="42.82701079" lon="13.43828181">
        <ele>684.00000</ele>
        <time>2024-03-21T13:18:19Z</time>
      </trkpt>
      <trkpt lat="42.82696838" lon="13.43842891">
        <ele>682.00000</ele>
        <time>2024-03-21T13:18:20Z</time>
      </trkpt>
      <trkpt lat="42.82696201" lon="13.43858172">
        <ele>680.00000</ele>
        <time>2024-03-21T13:18:21Z</time>
      </trkpt>
      <trkpt lat="42.82696880" lon="13.43873511">
        <ele>679.00000</ele>
        <time>2024-03-21T13:18:22Z</time>
      </trkpt>
      <trkpt lat="42.82698472" lon="13.43888967">
        <ele>677.00000</ele>
        <time>2024-03-21T13:18:23Z</time>
      </trkpt>
      <trkpt lat="42.82700451" lon="13.43904381">
        <ele>677.00000</ele>
        <time>2024-03-21T13:18:24Z</time>
      </trkpt>
      <trkpt lat="42.82703284" lon="13.43918756">
        <ele>677.00000</ele>
        <time>2024-03-21T13:18:25Z</time>
      </trkpt>
      <trkpt lat="42.82707022" lon="13.43932419">
        <ele>678.00000</ele>
        <time>2024-03-21T13:18:26Z</time>
      </trkpt>
      <trkpt lat="42.82711917" lon="13.43944606">
        <ele>679.00000</ele>
        <time>2024-03-21T13:18:27Z</time>
      </trkpt>
      <trkpt lat="42.82717248" lon="13.43955569">
        <ele>679.00000</ele>
        <time>2024-03-21T13:18:28Z</time>
      </trkpt>
      <trkpt lat="42.82722579" lon="13.43965837">
        <ele>679.00000</ele>
        <time>2024-03-21T13:18:29Z</time>
      </trkpt>
      <trkpt lat="42.82728019" lon="13.43975493">
        <ele>679.00000</ele>
        <time>2024-03-21T13:18:30Z</time>
      </trkpt>
      <trkpt lat="42.82733350" lon="13.43984981">
        <ele>680.00000</ele>
        <time>2024-03-21T13:18:31Z</time>
      </trkpt>
      <trkpt lat="42.82738504" lon="13.43994218">
        <ele>681.00000</ele>
        <time>2024-03-21T13:18:32Z</time>
      </trkpt>
      <trkpt lat="42.82743316" lon="13.44003170">
        <ele>681.00000</ele>
        <time>2024-03-21T13:18:33Z</time>
      </trkpt>
      <trkpt lat="42.82748068" lon="13.44011460">
        <ele>682.00000</ele>
        <time>2024-03-21T13:18:34Z</time>
      </trkpt>
      <trkpt lat="42.82752410" lon="13.44019096">
        <ele>683.00000</ele>
        <time>2024-03-21T13:18:35Z</time>
      </trkpt>
      <trkpt lat="42.82756450" lon="13.44026187">
        <ele>684.00000</ele>
        <time>2024-03-21T13:18:36Z</time>
      </trkpt>
      <trkpt lat="42.82759970" lon="13.44032716">
        <ele>684.00000</ele>
        <time>2024-03-21T13:18:37Z</time>
      </trkpt>
      <trkpt lat="42.82763072" lon="13.44039422">
        <ele>684.00000</ele>
        <time>2024-03-21T13:18:38Z</time>
      </trkpt>
      <trkpt lat="42.82766073" lon="13.44046186">
        <ele>685.00000</ele>
        <time>2024-03-21T13:18:39Z</time>
      </trkpt>
      <trkpt lat="42.82768780" lon="13.44052188">
        <ele>685.00000</ele>
        <time>2024-03-21T13:18:40Z</time>
      </trkpt>
      <trkpt lat="42.82770423" lon="13.44058264">
        <ele>685.00000</ele>
        <time>2024-03-21T13:18:41Z</time>
      </trkpt>
      <trkpt lat="42.82771152" lon="13.44064920">
        <ele>685.00000</ele>
        <time>2024-03-21T13:18:42Z</time>
      </trkpt>
      <trkpt lat="42.82771152" lon="13.44071793">
        <ele>686.00000</ele>
        <time>2024-03-21T13:18:43Z</time>
      </trkpt>
      <trkpt lat="42.82770766" lon="13.44078448">
        <ele>687.00000</ele>
        <time>2024-03-21T13:18:44Z</time>
      </trkpt>
      <trkpt lat="42.82770046" lon="13.44085162">
        <ele>688.00000</ele>
        <time>2024-03-21T13:18:45Z</time>
      </trkpt>
      <trkpt lat="42.82769601" lon="13.44092144">
        <ele>689.00000</ele>
        <time>2024-03-21T13:18:46Z</time>
      </trkpt>
      <trkpt lat="42.82769316" lon="13.44099109">
        <ele>690.00000</ele>
        <time>2024-03-21T13:18:47Z</time>
      </trkpt>
      <trkpt lat="42.82769040" lon="13.44106284">
        <ele>691.00000</ele>
        <time>2024-03-21T13:18:48Z</time>
      </trkpt>
      <trkpt lat="42.82768503" lon="13.44113350">
        <ele>692.00000</ele>
        <time>2024-03-21T13:18:49Z</time>
      </trkpt>
      <trkpt lat="42.82768411" lon="13.44120232">
        <ele>693.00000</ele>
        <time>2024-03-21T13:18:50Z</time>
      </trkpt>
      <trkpt lat="42.82768134" lon="13.44127139">
        <ele>693.00000</ele>
        <time>2024-03-21T13:18:51Z</time>
      </trkpt>
      <trkpt lat="42.82767564" lon="13.44134112">
        <ele>693.00000</ele>
        <time>2024-03-21T13:18:52Z</time>
      </trkpt>
      <trkpt lat="42.82766894" lon="13.44140994">
        <ele>694.00000</ele>
        <time>2024-03-21T13:18:53Z</time>
      </trkpt>
      <trkpt lat="42.82766391" lon="13.44147574">
        <ele>693.00000</ele>
        <time>2024-03-21T13:18:54Z</time>
      </trkpt>
      <trkpt lat="42.82765888" lon="13.44154103">
        <ele>693.00000</ele>
        <time>2024-03-21T13:18:55Z</time>
      </trkpt>
      <trkpt lat="42.82765477" lon="13.44160750">
        <ele>692.00000</ele>
        <time>2024-03-21T13:18:56Z</time>
      </trkpt>
      <trkpt lat="42.82764958" lon="13.44167372">
        <ele>692.00000</ele>
        <time>2024-03-21T13:18:57Z</time>
      </trkpt>
      <trkpt lat="42.82764472" lon="13.44173859">
        <ele>691.00000</ele>
        <time>2024-03-21T13:18:58Z</time>
      </trkpt>
      <trkpt lat="42.82764907" lon="13.44180582">
        <ele>691.00000</ele>
        <time>2024-03-21T13:18:59Z</time>
      </trkpt>
      <trkpt lat="42.82765704" lon="13.44187446">
        <ele>691.00000</ele>
        <time>2024-03-21T13:19:00Z</time>
      </trkpt>
      <trkpt lat="42.82767112" lon="13.44194420">
        <ele>690.00000</ele>
        <time>2024-03-21T13:19:01Z</time>
      </trkpt>
      <trkpt lat="42.82769258" lon="13.44202643">
        <ele>690.00000</ele>
        <time>2024-03-21T13:19:02Z</time>
      </trkpt>
      <trkpt lat="42.82771311" lon="13.44207974">
        <ele>689.00000</ele>
        <time>2024-03-21T13:19:03Z</time>
      </trkpt>
      <trkpt lat="42.82774102" lon="13.44214595">
        <ele>689.00000</ele>
        <time>2024-03-21T13:19:04Z</time>
      </trkpt>
      <trkpt lat="42.82777111" lon="13.44221016">
        <ele>689.00000</ele>
        <time>2024-03-21T13:19:05Z</time>
      </trkpt>
      <trkpt lat="42.82780473" lon="13.44226942">
        <ele>690.00000</ele>
        <time>2024-03-21T13:19:06Z</time>
      </trkpt>
      <trkpt lat="42.82784027" lon="13.44232541">
        <ele>690.00000</ele>
        <time>2024-03-21T13:19:07Z</time>
      </trkpt>
      <trkpt lat="42.82787614" lon="13.44237905">
        <ele>691.00000</ele>
        <time>2024-03-21T13:19:08Z</time>
      </trkpt>
      <trkpt lat="42.82791134" lon="13.44242759">
        <ele>691.00000</ele>
        <time>2024-03-21T13:19:09Z</time>
      </trkpt>
      <trkpt lat="42.82794663" lon="13.44247343">
        <ele>692.00000</ele>
        <time>2024-03-21T13:19:10Z</time>
      </trkpt>
      <trkpt lat="42.82798117" lon="13.44251719">
        <ele>692.00000</ele>
        <time>2024-03-21T13:19:11Z</time>
      </trkpt>
      <trkpt lat="42.82801453" lon="13.44256170">
        <ele>693.00000</ele>
        <time>2024-03-21T13:19:12Z</time>
      </trkpt>
      <trkpt lat="42.82804914" lon="13.44260478">
        <ele>694.00000</ele>
        <time>2024-03-21T13:19:13Z</time>
      </trkpt>
      <trkpt lat="42.82808393" lon="13.44264308">
        <ele>694.00000</ele>
        <time>2024-03-21T13:19:14Z</time>
      </trkpt>
      <trkpt lat="42.82811662" lon="13.44268156">
        <ele>695.00000</ele>
        <time>2024-03-21T13:19:15Z</time>
      </trkpt>
      <trkpt lat="42.82814788" lon="13.44272414">
        <ele>696.00000</ele>
        <time>2024-03-21T13:19:16Z</time>
      </trkpt>
      <trkpt lat="42.82817931" lon="13.44276311">
        <ele>696.00000</ele>
        <time>2024-03-21T13:19:17Z</time>
      </trkpt>
      <trkpt lat="42.82821158" lon="13.44279832">
        <ele>697.00000</ele>
        <time>2024-03-21T13:19:18Z</time>
      </trkpt>
      <trkpt lat="42.82824193" lon="13.44283193">
        <ele>697.00000</ele>
        <time>2024-03-21T13:19:19Z</time>
      </trkpt>
      <trkpt lat="42.82827068" lon="13.44286705">
        <ele>698.00000</ele>
        <time>2024-03-21T13:19:20Z</time>
      </trkpt>
      <trkpt lat="42.82829725" lon="13.44290477">
        <ele>698.00000</ele>
        <time>2024-03-21T13:19:21Z</time>
      </trkpt>
      <trkpt lat="42.82832633" lon="13.44294483">
        <ele>699.00000</ele>
        <time>2024-03-21T13:19:22Z</time>
      </trkpt>
      <trkpt lat="42.82835634" lon="13.44298372">
        <ele>699.00000</ele>
        <time>2024-03-21T13:19:23Z</time>
      </trkpt>
      <trkpt lat="42.82838651" lon="13.44301910">
        <ele>699.00000</ele>
        <time>2024-03-21T13:19:24Z</time>
      </trkpt>
      <trkpt lat="42.82841459" lon="13.44305430">
        <ele>699.00000</ele>
        <time>2024-03-21T13:19:25Z</time>
      </trkpt>
      <trkpt lat="42.82844519" lon="13.44308984">
        <ele>700.00000</ele>
        <time>2024-03-21T13:19:26Z</time>
      </trkpt>
      <trkpt lat="42.82847553" lon="13.44312563">
        <ele>700.00000</ele>
        <time>2024-03-21T13:19:27Z</time>
      </trkpt>
      <trkpt lat="42.82850470" lon="13.44316050">
        <ele>701.00000</ele>
        <time>2024-03-21T13:19:28Z</time>
      </trkpt>
      <trkpt lat="42.82853370" lon="13.44319445">
        <ele>701.00000</ele>
        <time>2024-03-21T13:19:29Z</time>
      </trkpt>
      <trkpt lat="42.82856413" lon="13.44322697">
        <ele>702.00000</ele>
        <time>2024-03-21T13:19:30Z</time>
      </trkpt>
      <trkpt lat="42.82859598" lon="13.44326368">
        <ele>702.00000</ele>
        <time>2024-03-21T13:19:31Z</time>
      </trkpt>
      <trkpt lat="42.82862800" lon="13.44329947">
        <ele>703.00000</ele>
        <time>2024-03-21T13:19:32Z</time>
      </trkpt>
      <trkpt lat="42.82866010" lon="13.44333392">
        <ele>703.00000</ele>
        <time>2024-03-21T13:19:33Z</time>
      </trkpt>
      <trkpt lat="42.82869405" lon="13.44336770">
        <ele>704.00000</ele>
        <time>2024-03-21T13:19:34Z</time>
      </trkpt>
      <trkpt lat="42.82872900" lon="13.44340232">
        <ele>704.00000</ele>
        <time>2024-03-21T13:19:35Z</time>
      </trkpt>
      <trkpt lat="42.82876278" lon="13.44343635">
        <ele>705.00000</ele>
        <time>2024-03-21T13:19:36Z</time>
      </trkpt>
      <trkpt lat="42.82879429" lon="13.44346895">
        <ele>705.00000</ele>
        <time>2024-03-21T13:19:37Z</time>
      </trkpt>
      <trkpt lat="42.82882497" lon="13.44349829">
        <ele>705.00000</ele>
        <time>2024-03-21T13:19:38Z</time>
      </trkpt>
      <trkpt lat="42.82885590" lon="13.44352981">
        <ele>706.00000</ele>
        <time>2024-03-21T13:19:39Z</time>
      </trkpt>
      <trkpt lat="42.82888859" lon="13.44356291">
        <ele>706.00000</ele>
        <time>2024-03-21T13:19:40Z</time>
      </trkpt>
      <trkpt lat="42.82892086" lon="13.44359837">
        <ele>706.00000</ele>
        <time>2024-03-21T13:19:41Z</time>
      </trkpt>
      <trkpt lat="42.82895120" lon="13.44363483">
        <ele>705.00000</ele>
        <time>2024-03-21T13:19:42Z</time>
      </trkpt>
      <trkpt lat="42.82898129" lon="13.44367515">
        <ele>705.00000</ele>
        <time>2024-03-21T13:19:43Z</time>
      </trkpt>
      <trkpt lat="42.82900845" lon="13.44371982">
        <ele>705.00000</ele>
        <time>2024-03-21T13:19:44Z</time>
      </trkpt>
      <trkpt lat="42.82903393" lon="13.44376592">
        <ele>706.00000</ele>
        <time>2024-03-21T13:19:45Z</time>
      </trkpt>
      <trkpt lat="42.82905849" lon="13.44381119">
        <ele>706.00000</ele>
        <time>2024-03-21T13:19:46Z</time>
      </trkpt>
      <trkpt lat="42.82908238" lon="13.44386315">
        <ele>706.00000</ele>
        <time>2024-03-21T13:19:47Z</time>
      </trkpt>
      <trkpt lat="42.82910434" lon="13.44391403">
        <ele>706.00000</ele>
        <time>2024-03-21T13:19:48Z</time>
      </trkpt>
      <trkpt lat="42.82912043" lon="13.44396793">
        <ele>707.00000</ele>
        <time>2024-03-21T13:19:49Z</time>
      </trkpt>
      <trkpt lat="42.82913762" lon="13.44402601">
        <ele>708.00000</ele>
        <time>2024-03-21T13:19:50Z</time>
      </trkpt>
      <trkpt lat="42.82915287" lon="13.44408343">
        <ele>708.00000</ele>
        <time>2024-03-21T13:19:51Z</time>
      </trkpt>
      <trkpt lat="42.82916838" lon="13.44414068">
        <ele>709.00000</ele>
        <time>2024-03-21T13:19:52Z</time>
      </trkpt>
      <trkpt lat="42.82918397" lon="13.44419768">
        <ele>709.00000</ele>
        <time>2024-03-21T13:19:53Z</time>
      </trkpt>
      <trkpt lat="42.82920157" lon="13.44425811">
        <ele>710.00000</ele>
        <time>2024-03-21T13:19:54Z</time>
      </trkpt>
      <trkpt lat="42.82921792" lon="13.44432114">
        <ele>711.00000</ele>
        <time>2024-03-21T13:19:55Z</time>
      </trkpt>
      <trkpt lat="42.82923585" lon="13.44438401">
        <ele>711.00000</ele>
        <time>2024-03-21T13:19:56Z</time>
      </trkpt>
      <trkpt lat="42.82925236" lon="13.44444544">
        <ele>712.00000</ele>
        <time>2024-03-21T13:19:57Z</time>
      </trkpt>
      <trkpt lat="42.82927114" lon="13.44450688">
        <ele>712.00000</ele>
        <time>2024-03-21T13:19:58Z</time>
      </trkpt>
      <trkpt lat="42.82929008" lon="13.44456648">
        <ele>712.00000</ele>
        <time>2024-03-21T13:19:59Z</time>
      </trkpt>
      <trkpt lat="42.82931062" lon="13.44462960">
        <ele>712.00000</ele>
        <time>2024-03-21T13:20:00Z</time>
      </trkpt>
      <trkpt lat="42.82933811" lon="13.44470453">
        <ele>712.00000</ele>
        <time>2024-03-21T13:20:01Z</time>
      </trkpt>
      <trkpt lat="42.82936284" lon="13.44475432">
        <ele>713.00000</ele>
        <time>2024-03-21T13:20:02Z</time>
      </trkpt>
      <trkpt lat="42.82938941" lon="13.44481458">
        <ele>714.00000</ele>
        <time>2024-03-21T13:20:03Z</time>
      </trkpt>
      <trkpt lat="42.82941942" lon="13.44487544">
        <ele>715.00000</ele>
        <time>2024-03-21T13:20:04Z</time>
      </trkpt>
      <trkpt lat="42.82945185" lon="13.44493260">
        <ele>715.00000</ele>
        <time>2024-03-21T13:20:05Z</time>
      </trkpt>
      <trkpt lat="42.82949075" lon="13.44498608">
        <ele>715.00000</ele>
        <time>2024-03-21T13:20:06Z</time>
      </trkpt>
      <trkpt lat="42.82954204" lon="13.44504643">
        <ele>715.00000</ele>
        <time>2024-03-21T13:20:07Z</time>
      </trkpt>
      <trkpt lat="42.82958110" lon="13.44508264">
        <ele>715.00000</ele>
        <time>2024-03-21T13:20:08Z</time>
      </trkpt>
      <trkpt lat="42.82963265" lon="13.44512312">
        <ele>714.00000</ele>
        <time>2024-03-21T13:20:09Z</time>
      </trkpt>
      <trkpt lat="42.82968529" lon="13.44516344">
        <ele>714.00000</ele>
        <time>2024-03-21T13:20:10Z</time>
      </trkpt>
      <trkpt lat="42.82974220" lon="13.44520015">
        <ele>713.00000</ele>
        <time>2024-03-21T13:20:11Z</time>
      </trkpt>
      <trkpt lat="42.82979568" lon="13.44523913">
        <ele>713.00000</ele>
        <time>2024-03-21T13:20:12Z</time>
      </trkpt>
      <trkpt lat="42.82985050" lon="13.44527794">
        <ele>713.00000</ele>
        <time>2024-03-21T13:20:13Z</time>
      </trkpt>
      <trkpt lat="42.82990590" lon="13.44531549">
        <ele>713.00000</ele>
        <time>2024-03-21T13:20:14Z</time>
      </trkpt>
      <trkpt lat="42.82996223" lon="13.44535220">
        <ele>713.00000</ele>
        <time>2024-03-21T13:20:15Z</time>
      </trkpt>
      <trkpt lat="42.83001889" lon="13.44539201">
        <ele>713.00000</ele>
        <time>2024-03-21T13:20:16Z</time>
      </trkpt>
      <trkpt lat="42.83008142" lon="13.44543367">
        <ele>712.00000</ele>
        <time>2024-03-21T13:20:17Z</time>
      </trkpt>
      <trkpt lat="42.83014252" lon="13.44548120">
        <ele>712.00000</ele>
        <time>2024-03-21T13:20:18Z</time>
      </trkpt>
      <trkpt lat="42.83020254" lon="13.44553224">
        <ele>712.00000</ele>
        <time>2024-03-21T13:20:19Z</time>
      </trkpt>
      <trkpt lat="42.83025677" lon="13.44558698">
        <ele>712.00000</ele>
        <time>2024-03-21T13:20:20Z</time>
      </trkpt>
      <trkpt lat="42.83029943" lon="13.44565445">
        <ele>711.00000</ele>
        <time>2024-03-21T13:20:21Z</time>
      </trkpt>
      <trkpt lat="42.83033531" lon="13.44573274">
        <ele>710.00000</ele>
        <time>2024-03-21T13:20:22Z</time>
      </trkpt>
      <trkpt lat="42.83035970" lon="13.44581748">
        <ele>710.00000</ele>
        <time>2024-03-21T13:20:23Z</time>
      </trkpt>
      <trkpt lat="42.83036909" lon="13.44590507">
        <ele>709.00000</ele>
        <time>2024-03-21T13:20:24Z</time>
      </trkpt>
      <trkpt lat="42.83036054" lon="13.44598772">
        <ele>708.00000</ele>
        <time>2024-03-21T13:20:25Z</time>
      </trkpt>
      <trkpt lat="42.83032910" lon="13.44606324">
        <ele>708.00000</ele>
        <time>2024-03-21T13:20:26Z</time>
      </trkpt>
      <trkpt lat="42.83028359" lon="13.44613255">
        <ele>708.00000</ele>
        <time>2024-03-21T13:20:27Z</time>
      </trkpt>
      <trkpt lat="42.83022785" lon="13.44619173">
        <ele>709.00000</ele>
        <time>2024-03-21T13:20:28Z</time>
      </trkpt>
      <trkpt lat="42.83016809" lon="13.44624596">
        <ele>710.00000</ele>
        <time>2024-03-21T13:20:29Z</time>
      </trkpt>
      <trkpt lat="42.83010707" lon="13.44629743">
        <ele>711.00000</ele>
        <time>2024-03-21T13:20:30Z</time>
      </trkpt>
      <trkpt lat="42.83004580" lon="13.44635074">
        <ele>713.00000</ele>
        <time>2024-03-21T13:20:31Z</time>
      </trkpt>
      <trkpt lat="42.82998503" lon="13.44641041">
        <ele>715.00000</ele>
        <time>2024-03-21T13:20:32Z</time>
      </trkpt>
      <trkpt lat="42.82992501" lon="13.44647110">
        <ele>716.00000</ele>
        <time>2024-03-21T13:20:33Z</time>
      </trkpt>
      <trkpt lat="42.82986567" lon="13.44653162">
        <ele>717.00000</ele>
        <time>2024-03-21T13:20:34Z</time>
      </trkpt>
      <trkpt lat="42.82980834" lon="13.44659498">
        <ele>718.00000</ele>
        <time>2024-03-21T13:20:35Z</time>
      </trkpt>
      <trkpt lat="42.82975050" lon="13.44666204">
        <ele>718.00000</ele>
        <time>2024-03-21T13:20:36Z</time>
      </trkpt>
      <trkpt lat="42.82970021" lon="13.44673563">
        <ele>718.00000</ele>
        <time>2024-03-21T13:20:37Z</time>
      </trkpt>
      <trkpt lat="42.82965344" lon="13.44682523">
        <ele>718.00000</ele>
        <time>2024-03-21T13:20:38Z</time>
      </trkpt>
      <trkpt lat="42.82962511" lon="13.44692599">
        <ele>717.00000</ele>
        <time>2024-03-21T13:20:39Z</time>
      </trkpt>
      <trkpt lat="42.82960348" lon="13.44703151">
        <ele>716.00000</ele>
        <time>2024-03-21T13:20:40Z</time>
      </trkpt>
      <trkpt lat="42.82958261" lon="13.44713914">
        <ele>716.00000</ele>
        <time>2024-03-21T13:20:41Z</time>
      </trkpt>
      <trkpt lat="42.82957063" lon="13.44725280">
        <ele>714.00000</ele>
        <time>2024-03-21T13:20:42Z</time>
      </trkpt>
      <trkpt lat="42.82956685" lon="13.44735883">
        <ele>712.00000</ele>
        <time>2024-03-21T13:20:43Z</time>
      </trkpt>
      <trkpt lat="42.82956434" lon="13.44746712">
        <ele>709.00000</ele>
        <time>2024-03-21T13:20:44Z</time>
      </trkpt>
      <trkpt lat="42.82955034" lon="13.44759142">
        <ele>708.00000</ele>
        <time>2024-03-21T13:20:45Z</time>
      </trkpt>
      <trkpt lat="42.82952352" lon="13.44766980">
        <ele>708.00000</ele>
        <time>2024-03-21T13:20:46Z</time>
      </trkpt>
      <trkpt lat="42.82946920" lon="13.44777557">
        <ele>710.00000</ele>
        <time>2024-03-21T13:20:47Z</time>
      </trkpt>
      <trkpt lat="42.82943199" lon="13.44784917">
        <ele>713.00000</ele>
        <time>2024-03-21T13:20:48Z</time>
      </trkpt>
      <trkpt lat="42.82938723" lon="13.44795545">
        <ele>717.00000</ele>
        <time>2024-03-21T13:20:49Z</time>
      </trkpt>
      <trkpt lat="42.82935420" lon="13.44807120">
        <ele>720.00000</ele>
        <time>2024-03-21T13:20:50Z</time>
      </trkpt>
      <trkpt lat="42.82936016" lon="13.44820280">
        <ele>722.00000</ele>
        <time>2024-03-21T13:20:51Z</time>
      </trkpt>
      <trkpt lat="42.82937927" lon="13.44836683">
        <ele>723.00000</ele>
        <time>2024-03-21T13:20:52Z</time>
      </trkpt>
      <trkpt lat="42.82942235" lon="13.44844948">
        <ele>722.00000</ele>
        <time>2024-03-21T13:20:53Z</time>
      </trkpt>
      <trkpt lat="42.82949477" lon="13.44853254">
        <ele>718.00000</ele>
        <time>2024-03-21T13:20:54Z</time>
      </trkpt>
      <trkpt lat="42.82958622" lon="13.44858661">
        <ele>714.00000</ele>
        <time>2024-03-21T13:20:55Z</time>
      </trkpt>
      <trkpt lat="42.82967364" lon="13.44864386">
        <ele>709.00000</ele>
        <time>2024-03-21T13:20:56Z</time>
      </trkpt>
      <trkpt lat="42.82977598" lon="13.44868677">
        <ele>705.00000</ele>
        <time>2024-03-21T13:20:57Z</time>
      </trkpt>
      <trkpt lat="42.82988721" lon="13.44872667">
        <ele>701.00000</ele>
        <time>2024-03-21T13:20:58Z</time>
      </trkpt>
      <trkpt lat="42.83000213" lon="13.44875374">
        <ele>697.00000</ele>
        <time>2024-03-21T13:20:59Z</time>
      </trkpt>
      <trkpt lat="42.83011436" lon="13.44878182">
        <ele>694.00000</ele>
        <time>2024-03-21T13:21:00Z</time>
      </trkpt>
      <trkpt lat="42.83023171" lon="13.44881015">
        <ele>692.00000</ele>
        <time>2024-03-21T13:21:01Z</time>
      </trkpt>
      <trkpt lat="42.83036707" lon="13.44883345">
        <ele>690.00000</ele>
        <time>2024-03-21T13:21:02Z</time>
      </trkpt>
      <trkpt lat="42.83049515" lon="13.44885986">
        <ele>688.00000</ele>
        <time>2024-03-21T13:21:03Z</time>
      </trkpt>
      <trkpt lat="42.83061384" lon="13.44886179">
        <ele>687.00000</ele>
        <time>2024-03-21T13:21:04Z</time>
      </trkpt>
      <trkpt lat="42.83072205" lon="13.44885106">
        <ele>686.00000</ele>
        <time>2024-03-21T13:21:05Z</time>
      </trkpt>
      <trkpt lat="42.83080620" lon="13.44884268">
        <ele>686.00000</ele>
        <time>2024-03-21T13:21:06Z</time>
      </trkpt>
      <trkpt lat="42.83086898" lon="13.44884896">
        <ele>686.00000</ele>
        <time>2024-03-21T13:21:07Z</time>
      </trkpt>
      <trkpt lat="42.83089388" lon="13.44889657">
        <ele>687.00000</ele>
        <time>2024-03-21T13:21:08Z</time>
      </trkpt>
      <trkpt lat="42.83090176" lon="13.44894661">
        <ele>687.00000</ele>
        <time>2024-03-21T13:21:09Z</time>
      </trkpt>
      <trkpt lat="42.83088902" lon="13.44899497">
        <ele>687.00000</ele>
        <time>2024-03-21T13:21:10Z</time>
      </trkpt>
      <trkpt lat="42.83085389" lon="13.44902926">
        <ele>687.00000</ele>
        <time>2024-03-21T13:21:11Z</time>
      </trkpt>
      <trkpt lat="42.83079908" lon="13.44904728">
        <ele>687.00000</ele>
        <time>2024-03-21T13:21:12Z</time>
      </trkpt>
      <trkpt lat="42.83073060" lon="13.44905968">
        <ele>687.00000</ele>
        <time>2024-03-21T13:21:13Z</time>
      </trkpt>
      <trkpt lat="42.83065684" lon="13.44906982">
        <ele>687.00000</ele>
        <time>2024-03-21T13:21:14Z</time>
      </trkpt>
      <trkpt lat="42.83057989" lon="13.44908282">
        <ele>686.00000</ele>
        <time>2024-03-21T13:21:15Z</time>
      </trkpt>
      <trkpt lat="42.83050018" lon="13.44909975">
        <ele>687.00000</ele>
        <time>2024-03-21T13:21:16Z</time>
      </trkpt>
      <trkpt lat="42.83041359" lon="13.44912012">
        <ele>687.00000</ele>
        <time>2024-03-21T13:21:17Z</time>
      </trkpt>
      <trkpt lat="42.83032810" lon="13.44914962">
        <ele>688.00000</ele>
        <time>2024-03-21T13:21:18Z</time>
      </trkpt>
      <trkpt lat="42.83024302" lon="13.44918893">
        <ele>689.00000</ele>
        <time>2024-03-21T13:21:19Z</time>
      </trkpt>
      <trkpt lat="42.83016331" lon="13.44924367">
        <ele>689.00000</ele>
        <time>2024-03-21T13:21:20Z</time>
      </trkpt>
      <trkpt lat="42.83009894" lon="13.44932732">
        <ele>689.00000</ele>
        <time>2024-03-21T13:21:21Z</time>
      </trkpt>
      <trkpt lat="42.83005460" lon="13.44944517">
        <ele>687.00000</ele>
        <time>2024-03-21T13:21:22Z</time>
      </trkpt>
      <trkpt lat="42.83002099" lon="13.44957358">
        <ele>686.00000</ele>
        <time>2024-03-21T13:21:23Z</time>
      </trkpt>
      <trkpt lat="42.82999039" lon="13.44971029">
        <ele>684.00000</ele>
        <time>2024-03-21T13:21:24Z</time>
      </trkpt>
      <trkpt lat="42.82996139" lon="13.44985370">
        <ele>681.00000</ele>
        <time>2024-03-21T13:21:25Z</time>
      </trkpt>
      <trkpt lat="42.82993490" lon="13.45000114">
        <ele>679.00000</ele>
        <time>2024-03-21T13:21:26Z</time>
      </trkpt>
      <trkpt lat="42.82990900" lon="13.45015562">
        <ele>676.00000</ele>
        <time>2024-03-21T13:21:27Z</time>
      </trkpt>
      <trkpt lat="42.82989056" lon="13.45031789">
        <ele>674.00000</ele>
        <time>2024-03-21T13:21:28Z</time>
      </trkpt>
      <trkpt lat="42.82988109" lon="13.45048788">
        <ele>673.00000</ele>
        <time>2024-03-21T13:21:29Z</time>
      </trkpt>
      <trkpt lat="42.82988394" lon="13.45065744">
        <ele>671.00000</ele>
        <time>2024-03-21T13:21:30Z</time>
      </trkpt>
      <trkpt lat="42.82990238" lon="13.45082315">
        <ele>669.00000</ele>
        <time>2024-03-21T13:21:31Z</time>
      </trkpt>
      <trkpt lat="42.82994689" lon="13.45098207">
        <ele>667.00000</ele>
        <time>2024-03-21T13:21:32Z</time>
      </trkpt>
      <trkpt lat="42.83002275" lon="13.45111928">
        <ele>666.00000</ele>
        <time>2024-03-21T13:21:33Z</time>
      </trkpt>
      <trkpt lat="42.83011134" lon="13.45123596">
        <ele>664.00000</ele>
        <time>2024-03-21T13:21:34Z</time>
      </trkpt>
      <trkpt lat="42.83019684" lon="13.45135448">
        <ele>665.00000</ele>
        <time>2024-03-21T13:21:35Z</time>
      </trkpt>
      <trkpt lat="42.83028401" lon="13.45146671">
        <ele>666.00000</ele>
        <time>2024-03-21T13:21:36Z</time>
      </trkpt>
      <trkpt lat="42.83037370" lon="13.45156889">
        <ele>666.00000</ele>
        <time>2024-03-21T13:21:37Z</time>
      </trkpt>
      <trkpt lat="42.83046363" lon="13.45166151">
        <ele>667.00000</ele>
        <time>2024-03-21T13:21:38Z</time>
      </trkpt>
      <trkpt lat="42.83056044" lon="13.45174022">
        <ele>670.00000</ele>
        <time>2024-03-21T13:21:39Z</time>
      </trkpt>
      <trkpt lat="42.83066254" lon="13.45180492">
        <ele>671.00000</ele>
        <time>2024-03-21T13:21:40Z</time>
      </trkpt>
      <trkpt lat="42.83076563" lon="13.45186192">
        <ele>672.00000</ele>
        <time>2024-03-21T13:21:41Z</time>
      </trkpt>
      <trkpt lat="42.83086479" lon="13.45192395">
        <ele>672.00000</ele>
        <time>2024-03-21T13:21:42Z</time>
      </trkpt>
      <trkpt lat="42.83096772" lon="13.45198203">
        <ele>672.00000</ele>
        <time>2024-03-21T13:21:43Z</time>
      </trkpt>
      <trkpt lat="42.83107107" lon="13.45203853">
        <ele>672.00000</ele>
        <time>2024-03-21T13:21:44Z</time>
      </trkpt>
      <trkpt lat="42.83117241" lon="13.45209594">
        <ele>670.00000</ele>
        <time>2024-03-21T13:21:45Z</time>
      </trkpt>
      <trkpt lat="42.83127374" lon="13.45214984">
        <ele>669.00000</ele>
        <time>2024-03-21T13:21:46Z</time>
      </trkpt>
      <trkpt lat="42.83137626" lon="13.45220348">
        <ele>667.00000</ele>
        <time>2024-03-21T13:21:47Z</time>
      </trkpt>
      <trkpt lat="42.83147986" lon="13.45225889">
        <ele>667.00000</ele>
        <time>2024-03-21T13:21:48Z</time>
      </trkpt>
      <trkpt lat="42.83158010" lon="13.45231630">
        <ele>667.00000</ele>
        <time>2024-03-21T13:21:49Z</time>
      </trkpt>
      <trkpt lat="42.83168303" lon="13.45237146">
        <ele>667.00000</ele>
        <time>2024-03-21T13:21:50Z</time>
      </trkpt>
      <trkpt lat="42.83179175" lon="13.45241873">
        <ele>667.00000</ele>
        <time>2024-03-21T13:21:51Z</time>
      </trkpt>
      <trkpt lat="42.83189543" lon="13.45246810">
        <ele>668.00000</ele>
        <time>2024-03-21T13:21:52Z</time>
      </trkpt>
      <trkpt lat="42.83199928" lon="13.45251655">
        <ele>668.00000</ele>
        <time>2024-03-21T13:21:53Z</time>
      </trkpt>
      <trkpt lat="42.83210347" lon="13.45256390">
        <ele>668.00000</ele>
        <time>2024-03-21T13:21:54Z</time>
      </trkpt>
      <trkpt lat="42.83220313" lon="13.45261964">
        <ele>669.00000</ele>
        <time>2024-03-21T13:21:55Z</time>
      </trkpt>
      <trkpt lat="42.83230153" lon="13.45268058">
        <ele>669.00000</ele>
        <time>2024-03-21T13:21:56Z</time>
      </trkpt>
      <trkpt lat="42.83239851" lon="13.45274571">
        <ele>669.00000</ele>
        <time>2024-03-21T13:21:57Z</time>
      </trkpt>
      <trkpt lat="42.83249423" lon="13.45280723">
        <ele>668.00000</ele>
        <time>2024-03-21T13:21:58Z</time>
      </trkpt>
      <trkpt lat="42.83258635" lon="13.45286691">
        <ele>668.00000</ele>
        <time>2024-03-21T13:21:59Z</time>
      </trkpt>
      <trkpt lat="42.83268014" lon="13.45292030">
        <ele>668.00000</ele>
        <time>2024-03-21T13:22:00Z</time>
      </trkpt>
      <trkpt lat="42.83277117" lon="13.45297462">
        <ele>667.00000</ele>
        <time>2024-03-21T13:22:01Z</time>
      </trkpt>
      <trkpt lat="42.83286572" lon="13.45301988">
        <ele>668.00000</ele>
        <time>2024-03-21T13:22:02Z</time>
      </trkpt>
      <trkpt lat="42.83296178" lon="13.45305575">
        <ele>668.00000</ele>
        <time>2024-03-21T13:22:03Z</time>
      </trkpt>
      <trkpt lat="42.83305976" lon="13.45308316">
        <ele>667.00000</ele>
        <time>2024-03-21T13:22:04Z</time>
      </trkpt>
      <trkpt lat="42.83315557" lon="13.45309951">
        <ele>668.00000</ele>
        <time>2024-03-21T13:22:05Z</time>
      </trkpt>
      <trkpt lat="42.83324802" lon="13.45311108">
        <ele>669.00000</ele>
        <time>2024-03-21T13:22:06Z</time>
      </trkpt>
      <trkpt lat="42.83335966" lon="13.45312055">
        <ele>669.00000</ele>
        <time>2024-03-21T13:22:07Z</time>
      </trkpt>
      <trkpt lat="42.83344985" lon="13.45312574">
        <ele>667.00000</ele>
        <time>2024-03-21T13:22:08Z</time>
      </trkpt>
      <trkpt lat="42.83352152" lon="13.45313136">
        <ele>666.00000</ele>
        <time>2024-03-21T13:22:09Z</time>
      </trkpt>
      <trkpt lat="42.83360995" lon="13.45314326">
        <ele>665.00000</ele>
        <time>2024-03-21T13:22:10Z</time>
      </trkpt>
      <trkpt lat="42.83369972" lon="13.45315382">
        <ele>664.00000</ele>
        <time>2024-03-21T13:22:11Z</time>
      </trkpt>
      <trkpt lat="42.83378756" lon="13.45316623">
        <ele>663.00000</ele>
        <time>2024-03-21T13:22:12Z</time>
      </trkpt>
      <trkpt lat="42.83387842" lon="13.45318073">
        <ele>662.00000</ele>
        <time>2024-03-21T13:22:13Z</time>
      </trkpt>
      <trkpt lat="42.83396744" lon="13.45320395">
        <ele>662.00000</ele>
        <time>2024-03-21T13:22:14Z</time>
      </trkpt>
      <trkpt lat="42.83405444" lon="13.45323638">
        <ele>662.00000</ele>
        <time>2024-03-21T13:22:15Z</time>
      </trkpt>
      <trkpt lat="42.83414010" lon="13.45327469">
        <ele>662.00000</ele>
        <time>2024-03-21T13:22:16Z</time>
      </trkpt>
      <trkpt lat="42.83422426" lon="13.45331995">
        <ele>662.00000</ele>
        <time>2024-03-21T13:22:17Z</time>
      </trkpt>
      <trkpt lat="42.83430531" lon="13.45336974">
        <ele>662.00000</ele>
        <time>2024-03-21T13:22:18Z</time>
      </trkpt>
      <trkpt lat="42.83438653" lon="13.45342154">
        <ele>662.00000</ele>
        <time>2024-03-21T13:22:19Z</time>
      </trkpt>
      <trkpt lat="42.83446784" lon="13.45347242">
        <ele>662.00000</ele>
        <time>2024-03-21T13:22:20Z</time>
      </trkpt>
      <trkpt lat="42.83454839" lon="13.45352464">
        <ele>661.00000</ele>
        <time>2024-03-21T13:22:21Z</time>
      </trkpt>
      <trkpt lat="42.83462567" lon="13.45358071">
        <ele>661.00000</ele>
        <time>2024-03-21T13:22:22Z</time>
      </trkpt>
      <trkpt lat="42.83470052" lon="13.45363955">
        <ele>661.00000</ele>
        <time>2024-03-21T13:22:23Z</time>
      </trkpt>
      <trkpt lat="42.83477604" lon="13.45369647">
        <ele>661.00000</ele>
        <time>2024-03-21T13:22:24Z</time>
      </trkpt>
      <trkpt lat="42.83485005" lon="13.45375170">
        <ele>661.00000</ele>
        <time>2024-03-21T13:22:25Z</time>
      </trkpt>
      <trkpt lat="42.83492448" lon="13.45380216">
        <ele>660.00000</ele>
        <time>2024-03-21T13:22:26Z</time>
      </trkpt>
      <trkpt lat="42.83499992" lon="13.45384768">
        <ele>660.00000</ele>
        <time>2024-03-21T13:22:27Z</time>
      </trkpt>
      <trkpt lat="42.83507460" lon="13.45388900">
        <ele>659.00000</ele>
        <time>2024-03-21T13:22:28Z</time>
      </trkpt>
      <trkpt lat="42.83514786" lon="13.45393032">
        <ele>659.00000</ele>
        <time>2024-03-21T13:22:29Z</time>
      </trkpt>
      <trkpt lat="42.83523428" lon="13.45397693">
        <ele>659.00000</ele>
        <time>2024-03-21T13:22:30Z</time>
      </trkpt>
      <trkpt lat="42.83529136" lon="13.45400433">
        <ele>659.00000</ele>
        <time>2024-03-21T13:22:31Z</time>
      </trkpt>
      <trkpt lat="42.83536219" lon="13.45403686">
        <ele>659.00000</ele>
        <time>2024-03-21T13:22:32Z</time>
      </trkpt>
      <trkpt lat="42.83543469" lon="13.45406334">
        <ele>659.00000</ele>
        <time>2024-03-21T13:22:33Z</time>
      </trkpt>
      <trkpt lat="42.83550635" lon="13.45408958">
        <ele>658.00000</ele>
        <time>2024-03-21T13:22:34Z</time>
      </trkpt>
      <trkpt lat="42.83559051" lon="13.45411766">
        <ele>658.00000</ele>
        <time>2024-03-21T13:22:35Z</time>
      </trkpt>
      <trkpt lat="42.83565958" lon="13.45413182">
        <ele>658.00000</ele>
        <time>2024-03-21T13:22:36Z</time>
      </trkpt>
      <trkpt lat="42.83572747" lon="13.45414104">
        <ele>658.00000</ele>
        <time>2024-03-21T13:22:37Z</time>
      </trkpt>
      <trkpt lat="42.83578237" lon="13.45414716">
        <ele>658.00000</ele>
        <time>2024-03-21T13:22:38Z</time>
      </trkpt>
      <trkpt lat="42.83585303" lon="13.45415638">
        <ele>658.00000</ele>
        <time>2024-03-21T13:22:39Z</time>
      </trkpt>
      <trkpt lat="42.83592578" lon="13.45416963">
        <ele>657.00000</ele>
        <time>2024-03-21T13:22:40Z</time>
      </trkpt>
      <trkpt lat="42.83600223" lon="13.45418488">
        <ele>656.00000</ele>
        <time>2024-03-21T13:22:41Z</time>
      </trkpt>
      <trkpt lat="42.83608202" lon="13.45419955">
        <ele>655.00000</ele>
        <time>2024-03-21T13:22:42Z</time>
      </trkpt>
      <trkpt lat="42.83616090" lon="13.45420802">
        <ele>653.00000</ele>
        <time>2024-03-21T13:22:43Z</time>
      </trkpt>
      <trkpt lat="42.83624053" lon="13.45421439">
        <ele>652.00000</ele>
        <time>2024-03-21T13:22:44Z</time>
      </trkpt>
      <trkpt lat="42.83631881" lon="13.45423115">
        <ele>651.00000</ele>
        <time>2024-03-21T13:22:45Z</time>
      </trkpt>
      <trkpt lat="42.83640003" lon="13.45427918">
        <ele>650.00000</ele>
        <time>2024-03-21T13:22:46Z</time>
      </trkpt>
      <trkpt lat="42.83644538" lon="13.45435964">
        <ele>650.00000</ele>
        <time>2024-03-21T13:22:47Z</time>
      </trkpt>
      <trkpt lat="42.83645208" lon="13.45444195">
        <ele>650.00000</ele>
        <time>2024-03-21T13:22:48Z</time>
      </trkpt>
      <trkpt lat="42.83644278" lon="13.45454371">
        <ele>649.00000</ele>
        <time>2024-03-21T13:22:49Z</time>
      </trkpt>
      <trkpt lat="42.83640506" lon="13.45463591">
        <ele>650.00000</ele>
        <time>2024-03-21T13:22:50Z</time>
      </trkpt>
      <trkpt lat="42.83635150" lon="13.45472878">
        <ele>651.00000</ele>
        <time>2024-03-21T13:22:51Z</time>
      </trkpt>
      <trkpt lat="42.83629635" lon="13.45481704">
        <ele>650.00000</ele>
        <time>2024-03-21T13:22:52Z</time>
      </trkpt>
      <trkpt lat="42.83623793" lon="13.45491033">
        <ele>650.00000</ele>
        <time>2024-03-21T13:22:53Z</time>
      </trkpt>
      <trkpt lat="42.83618269" lon="13.45500530">
        <ele>650.00000</ele>
        <time>2024-03-21T13:22:54Z</time>
      </trkpt>
      <trkpt lat="42.83612452" lon="13.45509775">
        <ele>650.00000</ele>
        <time>2024-03-21T13:22:55Z</time>
      </trkpt>
      <trkpt lat="42.83605813" lon="13.45518266">
        <ele>650.00000</ele>
        <time>2024-03-21T13:22:56Z</time>
      </trkpt>
      <trkpt lat="42.83598974" lon="13.45525584">
        <ele>650.00000</ele>
        <time>2024-03-21T13:22:57Z</time>
      </trkpt>
      <trkpt lat="42.83591900" lon="13.45532415">
        <ele>651.00000</ele>
        <time>2024-03-21T13:22:58Z</time>
      </trkpt>
      <trkpt lat="42.83584699" lon="13.45538299">
        <ele>651.00000</ele>
        <time>2024-03-21T13:22:59Z</time>
      </trkpt>
      <trkpt lat="42.83577097" lon="13.45542859">
        <ele>651.00000</ele>
        <time>2024-03-21T13:23:00Z</time>
      </trkpt>
      <trkpt lat="42.83569386" lon="13.45547318">
        <ele>651.00000</ele>
        <time>2024-03-21T13:23:01Z</time>
      </trkpt>
      <trkpt lat="42.83561825" lon="13.45552657">
        <ele>651.00000</ele>
        <time>2024-03-21T13:23:02Z</time>
      </trkpt>
      <trkpt lat="42.83554541" lon="13.45559036">
        <ele>651.00000</ele>
        <time>2024-03-21T13:23:03Z</time>
      </trkpt>
      <trkpt lat="42.83547786" lon="13.45565875">
        <ele>651.00000</ele>
        <time>2024-03-21T13:23:04Z</time>
      </trkpt>
      <trkpt lat="42.83541491" lon="13.45573562">
        <ele>651.00000</ele>
        <time>2024-03-21T13:23:05Z</time>
      </trkpt>
      <trkpt lat="42.83535405" lon="13.45582187">
        <ele>651.00000</ele>
        <time>2024-03-21T13:23:06Z</time>
      </trkpt>
      <trkpt lat="42.83530033" lon="13.45591600">
        <ele>651.00000</ele>
        <time>2024-03-21T13:23:07Z</time>
      </trkpt>
      <trkpt lat="42.83525766" lon="13.45601717">
        <ele>651.00000</ele>
        <time>2024-03-21T13:23:08Z</time>
      </trkpt>
      <trkpt lat="42.83521735" lon="13.45612118">
        <ele>650.00000</ele>
        <time>2024-03-21T13:23:09Z</time>
      </trkpt>
      <trkpt lat="42.83518063" lon="13.45622881">
        <ele>649.00000</ele>
        <time>2024-03-21T13:23:10Z</time>
      </trkpt>
      <trkpt lat="42.83514233" lon="13.45634154">
        <ele>647.00000</ele>
        <time>2024-03-21T13:23:11Z</time>
      </trkpt>
      <trkpt lat="42.83511023" lon="13.45645763">
        <ele>646.00000</ele>
        <time>2024-03-21T13:23:12Z</time>
      </trkpt>
      <trkpt lat="42.83508013" lon="13.45657305">
        <ele>644.00000</ele>
        <time>2024-03-21T13:23:13Z</time>
      </trkpt>
      <trkpt lat="42.83505801" lon="13.45667707">
        <ele>643.00000</ele>
        <time>2024-03-21T13:23:14Z</time>
      </trkpt>
      <trkpt lat="42.83503135" lon="13.45675569">
        <ele>643.00000</ele>
        <time>2024-03-21T13:23:15Z</time>
      </trkpt>
      <trkpt lat="42.83499397" lon="13.45681102">
        <ele>643.00000</ele>
        <time>2024-03-21T13:23:16Z</time>
      </trkpt>
      <trkpt lat="42.83495147" lon="13.45683163">
        <ele>642.00000</ele>
        <time>2024-03-21T13:23:17Z</time>
      </trkpt>
      <trkpt lat="42.83490118" lon="13.45681236">
        <ele>642.00000</ele>
        <time>2024-03-21T13:23:18Z</time>
      </trkpt>
      <trkpt lat="42.83485542" lon="13.45676139">
        <ele>642.00000</ele>
        <time>2024-03-21T13:23:19Z</time>
      </trkpt>
      <trkpt lat="42.83480454" lon="13.45669736">
        <ele>642.00000</ele>
        <time>2024-03-21T13:23:20Z</time>
      </trkpt>
      <trkpt lat="42.83475408" lon="13.45663248">
        <ele>643.00000</ele>
        <time>2024-03-21T13:23:21Z</time>
      </trkpt>
      <trkpt lat="42.83469566" lon="13.45657037">
        <ele>644.00000</ele>
        <time>2024-03-21T13:23:22Z</time>
      </trkpt>
      <trkpt lat="42.83463036" lon="13.45650583">
        <ele>645.00000</ele>
        <time>2024-03-21T13:23:23Z</time>
      </trkpt>
      <trkpt lat="42.83456557" lon="13.45645562">
        <ele>645.00000</ele>
        <time>2024-03-21T13:23:24Z</time>
      </trkpt>
      <trkpt lat="42.83449801" lon="13.45641598">
        <ele>646.00000</ele>
        <time>2024-03-21T13:23:25Z</time>
      </trkpt>
      <trkpt lat="42.83443464" lon="13.45637993">
        <ele>647.00000</ele>
        <time>2024-03-21T13:23:26Z</time>
      </trkpt>
      <trkpt lat="42.83437488" lon="13.45634842">
        <ele>648.00000</ele>
        <time>2024-03-21T13:23:27Z</time>
      </trkpt>
      <trkpt lat="42.83431336" lon="13.45632922">
        <ele>649.00000</ele>
        <time>2024-03-21T13:23:28Z</time>
      </trkpt>
      <trkpt lat="42.83424513" lon="13.45632361">
        <ele>649.00000</ele>
        <time>2024-03-21T13:23:29Z</time>
      </trkpt>
      <trkpt lat="42.83416902" lon="13.45632160">
        <ele>649.00000</ele>
        <time>2024-03-21T13:23:30Z</time>
      </trkpt>
      <trkpt lat="42.83408671" lon="13.45632964">
        <ele>650.00000</ele>
        <time>2024-03-21T13:23:31Z</time>
      </trkpt>
      <trkpt lat="42.83400138" lon="13.45634758">
        <ele>650.00000</ele>
        <time>2024-03-21T13:23:32Z</time>
      </trkpt>
      <trkpt lat="42.83391564" lon="13.45636761">
        <ele>651.00000</ele>
        <time>2024-03-21T13:23:33Z</time>
      </trkpt>
      <trkpt lat="42.83382872" lon="13.45639653">
        <ele>651.00000</ele>
        <time>2024-03-21T13:23:34Z</time>
      </trkpt>
      <trkpt lat="42.83373853" lon="13.45642360">
        <ele>650.00000</ele>
        <time>2024-03-21T13:23:35Z</time>
      </trkpt>
      <trkpt lat="42.83364993" lon="13.45644297">
        <ele>650.00000</ele>
        <time>2024-03-21T13:23:36Z</time>
      </trkpt>
      <trkpt lat="42.83355991" lon="13.45647465">
        <ele>648.00000</ele>
        <time>2024-03-21T13:23:37Z</time>
      </trkpt>
      <trkpt lat="42.83347114" lon="13.45650868">
        <ele>647.00000</ele>
        <time>2024-03-21T13:23:38Z</time>
      </trkpt>
      <trkpt lat="42.83338674" lon="13.45654564">
        <ele>645.00000</ele>
        <time>2024-03-21T13:23:39Z</time>
      </trkpt>
      <trkpt lat="42.83329873" lon="13.45659024">
        <ele>643.00000</ele>
        <time>2024-03-21T13:23:40Z</time>
      </trkpt>
      <trkpt lat="42.83320795" lon="13.45663910">
        <ele>640.00000</ele>
        <time>2024-03-21T13:23:41Z</time>
      </trkpt>
      <trkpt lat="42.83311667" lon="13.45668814">
        <ele>638.00000</ele>
        <time>2024-03-21T13:23:42Z</time>
      </trkpt>
      <trkpt lat="42.83302363" lon="13.45674086">
        <ele>637.00000</ele>
        <time>2024-03-21T13:23:43Z</time>
      </trkpt>
      <trkpt lat="42.83293143" lon="13.45679333">
        <ele>636.00000</ele>
        <time>2024-03-21T13:23:44Z</time>
      </trkpt>
      <trkpt lat="42.83283730" lon="13.45684002">
        <ele>635.00000</ele>
        <time>2024-03-21T13:23:45Z</time>
      </trkpt>
      <trkpt lat="42.83273639" lon="13.45688637">
        <ele>634.00000</ele>
        <time>2024-03-21T13:23:46Z</time>
      </trkpt>
      <trkpt lat="42.83263145" lon="13.45693423">
        <ele>633.00000</ele>
        <time>2024-03-21T13:23:47Z</time>
      </trkpt>
      <trkpt lat="42.83252583" lon="13.45697354">
        <ele>633.00000</ele>
        <time>2024-03-21T13:23:48Z</time>
      </trkpt>
      <trkpt lat="42.83241963" lon="13.45699659">
        <ele>632.00000</ele>
        <time>2024-03-21T13:23:49Z</time>
      </trkpt>
      <trkpt lat="42.83231704" lon="13.45702760">
        <ele>630.00000</ele>
        <time>2024-03-21T13:23:50Z</time>
      </trkpt>
      <trkpt lat="42.83221051" lon="13.45707831">
        <ele>627.00000</ele>
        <time>2024-03-21T13:23:51Z</time>
      </trkpt>
      <trkpt lat="42.83210531" lon="13.45713539">
        <ele>626.00000</ele>
        <time>2024-03-21T13:23:52Z</time>
      </trkpt>
      <trkpt lat="42.83199794" lon="13.45719097">
        <ele>625.00000</ele>
        <time>2024-03-21T13:23:53Z</time>
      </trkpt>
      <trkpt lat="42.83188789" lon="13.45724260">
        <ele>625.00000</ele>
        <time>2024-03-21T13:23:54Z</time>
      </trkpt>
      <trkpt lat="42.83177523" lon="13.45729063">
        <ele>625.00000</ele>
        <time>2024-03-21T13:23:55Z</time>
      </trkpt>
      <trkpt lat="42.83165780" lon="13.45733153">
        <ele>625.00000</ele>
        <time>2024-03-21T13:23:56Z</time>
      </trkpt>
      <trkpt lat="42.83153786" lon="13.45736749">
        <ele>621.00000</ele>
        <time>2024-03-21T13:23:57Z</time>
      </trkpt>
      <trkpt lat="42.83141540" lon="13.45739188">
        <ele>618.00000</ele>
        <time>2024-03-21T13:23:58Z</time>
      </trkpt>
      <trkpt lat="42.83129151" lon="13.45740018">
        <ele>615.00000</ele>
        <time>2024-03-21T13:23:59Z</time>
      </trkpt>
      <trkpt lat="42.83116855" lon="13.45738425">
        <ele>613.00000</ele>
        <time>2024-03-21T13:24:00Z</time>
      </trkpt>
      <trkpt lat="42.83104810" lon="13.45734762">
        <ele>612.00000</ele>
        <time>2024-03-21T13:24:01Z</time>
      </trkpt>
      <trkpt lat="42.83092883" lon="13.45730002">
        <ele>613.00000</ele>
        <time>2024-03-21T13:24:02Z</time>
      </trkpt>
      <trkpt lat="42.83080972" lon="13.45724486">
        <ele>613.00000</ele>
        <time>2024-03-21T13:24:03Z</time>
      </trkpt>
      <trkpt lat="42.83068986" lon="13.45718694">
        <ele>612.00000</ele>
        <time>2024-03-21T13:24:04Z</time>
      </trkpt>
      <trkpt lat="42.83056958" lon="13.45712425">
        <ele>612.00000</ele>
        <time>2024-03-21T13:24:05Z</time>
      </trkpt>
      <trkpt lat="42.83042650" lon="13.45704336">
        <ele>611.00000</ele>
        <time>2024-03-21T13:24:06Z</time>
      </trkpt>
      <trkpt lat="42.83033522" lon="13.45698125">
        <ele>611.00000</ele>
        <time>2024-03-21T13:24:07Z</time>
      </trkpt>
      <trkpt lat="42.83022584" lon="13.45689794">
        <ele>612.00000</ele>
        <time>2024-03-21T13:24:08Z</time>
      </trkpt>
      <trkpt lat="42.83011578" lon="13.45681261">
        <ele>611.00000</ele>
        <time>2024-03-21T13:24:09Z</time>
      </trkpt>
      <trkpt lat="42.83000179" lon="13.45674430">
        <ele>611.00000</ele>
        <time>2024-03-21T13:24:10Z</time>
      </trkpt>
      <trkpt lat="42.82988084" lon="13.45670507">
        <ele>610.00000</ele>
        <time>2024-03-21T13:24:11Z</time>
      </trkpt>
      <trkpt lat="42.82975218" lon="13.45669711">
        <ele>608.00000</ele>
        <time>2024-03-21T13:24:12Z</time>
      </trkpt>
      <trkpt lat="42.82962293" lon="13.45670641">
        <ele>607.00000</ele>
        <time>2024-03-21T13:24:13Z</time>
      </trkpt>
      <trkpt lat="42.82949544" lon="13.45673122">
        <ele>607.00000</ele>
        <time>2024-03-21T13:24:14Z</time>
      </trkpt>
      <trkpt lat="42.82937206" lon="13.45677464">
        <ele>607.00000</ele>
        <time>2024-03-21T13:24:15Z</time>
      </trkpt>
      <trkpt lat="42.82926024" lon="13.45685536">
        <ele>607.00000</ele>
        <time>2024-03-21T13:24:16Z</time>
      </trkpt>
      <trkpt lat="42.82916444" lon="13.45696340">
        <ele>606.00000</ele>
        <time>2024-03-21T13:24:17Z</time>
      </trkpt>
      <trkpt lat="42.82908054" lon="13.45708569">
        <ele>607.00000</ele>
        <time>2024-03-21T13:24:18Z</time>
      </trkpt>
      <trkpt lat="42.82901474" lon="13.45722651">
        <ele>605.00000</ele>
        <time>2024-03-21T13:24:19Z</time>
      </trkpt>
      <trkpt lat="42.82895221" lon="13.45737026">
        <ele>602.00000</ele>
        <time>2024-03-21T13:24:20Z</time>
      </trkpt>
      <trkpt lat="42.82887954" lon="13.45750294">
        <ele>600.00000</ele>
        <time>2024-03-21T13:24:21Z</time>
      </trkpt>
      <trkpt lat="42.82878885" lon="13.45761769">
        <ele>598.00000</ele>
        <time>2024-03-21T13:24:22Z</time>
      </trkpt>
      <trkpt lat="42.82868390" lon="13.45771517">
        <ele>599.00000</ele>
        <time>2024-03-21T13:24:23Z</time>
      </trkpt>
      <trkpt lat="42.82857435" lon="13.45780385">
        <ele>599.00000</ele>
        <time>2024-03-21T13:24:24Z</time>
      </trkpt>
      <trkpt lat="42.82846824" lon="13.45789521">
        <ele>599.00000</ele>
        <time>2024-03-21T13:24:25Z</time>
      </trkpt>
      <trkpt lat="42.82837101" lon="13.45798691">
        <ele>598.00000</ele>
        <time>2024-03-21T13:24:26Z</time>
      </trkpt>
      <trkpt lat="42.82829239" lon="13.45808532">
        <ele>598.00000</ele>
        <time>2024-03-21T13:24:27Z</time>
      </trkpt>
      <trkpt lat="42.82822617" lon="13.45818196">
        <ele>598.00000</ele>
        <time>2024-03-21T13:24:28Z</time>
      </trkpt>
      <trkpt lat="42.82818141" lon="13.45829403">
        <ele>597.00000</ele>
        <time>2024-03-21T13:24:29Z</time>
      </trkpt>
      <trkpt lat="42.82816624" lon="13.45842260">
        <ele>596.00000</ele>
        <time>2024-03-21T13:24:30Z</time>
      </trkpt>
      <trkpt lat="42.82817504" lon="13.45856174">
        <ele>596.00000</ele>
        <time>2024-03-21T13:24:31Z</time>
      </trkpt>
      <trkpt lat="42.82823069" lon="13.45869502">
        <ele>594.00000</ele>
        <time>2024-03-21T13:24:32Z</time>
      </trkpt>
      <trkpt lat="42.82829733" lon="13.45880918">
        <ele>593.00000</ele>
        <time>2024-03-21T13:24:33Z</time>
      </trkpt>
      <trkpt lat="42.82837838" lon="13.45890984">
        <ele>590.00000</ele>
        <time>2024-03-21T13:24:34Z</time>
      </trkpt>
      <trkpt lat="42.82847913" lon="13.45899626">
        <ele>588.00000</ele>
        <time>2024-03-21T13:24:35Z</time>
      </trkpt>
      <trkpt lat="42.82858860" lon="13.45905167">
        <ele>585.00000</ele>
        <time>2024-03-21T13:24:36Z</time>
      </trkpt>
      <trkpt lat="42.82870964" lon="13.45908829">
        <ele>583.00000</ele>
        <time>2024-03-21T13:24:37Z</time>
      </trkpt>
      <trkpt lat="42.82883075" lon="13.45911612">
        <ele>581.00000</ele>
        <time>2024-03-21T13:24:38Z</time>
      </trkpt>
      <trkpt lat="42.82894316" lon="13.45915728">
        <ele>579.00000</ele>
        <time>2024-03-21T13:24:39Z</time>
      </trkpt>
      <trkpt lat="42.82905480" lon="13.45921327">
        <ele>577.00000</ele>
        <time>2024-03-21T13:24:40Z</time>
      </trkpt>
      <trkpt lat="42.82914876" lon="13.45930421">
        <ele>576.00000</ele>
        <time>2024-03-21T13:24:41Z</time>
      </trkpt>
      <trkpt lat="42.82922596" lon="13.45942558">
        <ele>574.00000</ele>
        <time>2024-03-21T13:24:42Z</time>
      </trkpt>
      <trkpt lat="42.82929679" lon="13.45955835">
        <ele>572.00000</ele>
        <time>2024-03-21T13:24:43Z</time>
      </trkpt>
      <trkpt lat="42.82936242" lon="13.45969581">
        <ele>569.00000</ele>
        <time>2024-03-21T13:24:44Z</time>
      </trkpt>
      <trkpt lat="42.82940131" lon="13.45982448">
        <ele>568.00000</ele>
        <time>2024-03-21T13:24:45Z</time>
      </trkpt>
      <trkpt lat="42.82940642" lon="13.45994995">
        <ele>568.00000</ele>
        <time>2024-03-21T13:24:46Z</time>
      </trkpt>
      <trkpt lat="42.82937524" lon="13.46008021">
        <ele>569.00000</ele>
        <time>2024-03-21T13:24:47Z</time>
      </trkpt>
      <trkpt lat="42.82930978" lon="13.46019940">
        <ele>572.00000</ele>
        <time>2024-03-21T13:24:48Z</time>
      </trkpt>
      <trkpt lat="42.82925823" lon="13.46031029">
        <ele>574.00000</ele>
        <time>2024-03-21T13:24:49Z</time>
      </trkpt>
      <trkpt lat="42.82922001" lon="13.46042345">
        <ele>575.00000</ele>
        <time>2024-03-21T13:24:50Z</time>
      </trkpt>
      <trkpt lat="42.82920685" lon="13.46054616">
        <ele>576.00000</ele>
        <time>2024-03-21T13:24:51Z</time>
      </trkpt>
      <trkpt lat="42.82922596" lon="13.46066845">
        <ele>577.00000</ele>
        <time>2024-03-21T13:24:52Z</time>
      </trkpt>
      <trkpt lat="42.82927919" lon="13.46076744">
        <ele>576.00000</ele>
        <time>2024-03-21T13:24:53Z</time>
      </trkpt>
      <trkpt lat="42.82935504" lon="13.46084447">
        <ele>575.00000</ele>
        <time>2024-03-21T13:24:54Z</time>
      </trkpt>
      <trkpt lat="42.82944356" lon="13.46090809">
        <ele>573.00000</ele>
        <time>2024-03-21T13:24:55Z</time>
      </trkpt>
      <trkpt lat="42.82953634" lon="13.46096886">
        <ele>571.00000</ele>
        <time>2024-03-21T13:24:56Z</time>
      </trkpt>
      <trkpt lat="42.82963475" lon="13.46102979">
        <ele>569.00000</ele>
        <time>2024-03-21T13:24:57Z</time>
      </trkpt>
      <trkpt lat="42.82974044" lon="13.46109710">
        <ele>567.00000</ele>
        <time>2024-03-21T13:24:58Z</time>
      </trkpt>
      <trkpt lat="42.82984052" lon="13.46116759">
        <ele>564.00000</ele>
        <time>2024-03-21T13:24:59Z</time>
      </trkpt>
      <trkpt lat="42.82993817" lon="13.46124261">
        <ele>562.00000</ele>
        <time>2024-03-21T13:25:00Z</time>
      </trkpt>
      <trkpt lat="42.83001897" lon="13.46133825">
        <ele>560.00000</ele>
        <time>2024-03-21T13:25:01Z</time>
      </trkpt>
      <trkpt lat="42.83007262" lon="13.46146021">
        <ele>559.00000</ele>
        <time>2024-03-21T13:25:02Z</time>
      </trkpt>
      <trkpt lat="42.83010422" lon="13.46159700">
        <ele>558.00000</ele>
        <time>2024-03-21T13:25:03Z</time>
      </trkpt>
      <trkpt lat="42.83011889" lon="13.46173337">
        <ele>558.00000</ele>
        <time>2024-03-21T13:25:04Z</time>
      </trkpt>
      <trkpt lat="42.83011436" lon="13.46187268">
        <ele>557.00000</ele>
        <time>2024-03-21T13:25:05Z</time>
      </trkpt>
      <trkpt lat="42.83010564" lon="13.46201048">
        <ele>555.00000</ele>
        <time>2024-03-21T13:25:06Z</time>
      </trkpt>
      <trkpt lat="42.83011453" lon="13.46213579">
        <ele>551.00000</ele>
        <time>2024-03-21T13:25:07Z</time>
      </trkpt>
      <trkpt lat="42.83006893" lon="13.46225431">
        <ele>551.00000</ele>
        <time>2024-03-21T13:25:08Z</time>
      </trkpt>
      <trkpt lat="42.82994454" lon="13.46235682">
        <ele>557.00000</ele>
        <time>2024-03-21T13:25:09Z</time>
      </trkpt>
      <trkpt lat="42.82986827" lon="13.46246126">
        <ele>560.00000</ele>
        <time>2024-03-21T13:25:10Z</time>
      </trkpt>
      <trkpt lat="42.82980549" lon="13.46258229">
        <ele>560.00000</ele>
        <time>2024-03-21T13:25:11Z</time>
      </trkpt>
      <trkpt lat="42.82975142" lon="13.46271020">
        <ele>560.00000</ele>
        <time>2024-03-21T13:25:12Z</time>
      </trkpt>
      <trkpt lat="42.82970951" lon="13.46284355">
        <ele>559.00000</ele>
        <time>2024-03-21T13:25:13Z</time>
      </trkpt>
      <trkpt lat="42.82967020" lon="13.46297892">
        <ele>558.00000</ele>
        <time>2024-03-21T13:25:14Z</time>
      </trkpt>
      <trkpt lat="42.82963944" lon="13.46311496">
        <ele>557.00000</ele>
        <time>2024-03-21T13:25:15Z</time>
      </trkpt>
      <trkpt lat="42.82960994" lon="13.46325066">
        <ele>556.00000</ele>
        <time>2024-03-21T13:25:16Z</time>
      </trkpt>
      <trkpt lat="42.82957641" lon="13.46337690">
        <ele>556.00000</ele>
        <time>2024-03-21T13:25:17Z</time>
      </trkpt>
      <trkpt lat="42.82953919" lon="13.46349022">
        <ele>558.00000</ele>
        <time>2024-03-21T13:25:18Z</time>
      </trkpt>
      <trkpt lat="42.82950265" lon="13.46358829">
        <ele>558.00000</ele>
        <time>2024-03-21T13:25:19Z</time>
      </trkpt>
      <trkpt lat="42.82946677" lon="13.46368577">
        <ele>560.00000</ele>
        <time>2024-03-21T13:25:20Z</time>
      </trkpt>
      <trkpt lat="42.82945604" lon="13.46377537">
        <ele>561.00000</ele>
        <time>2024-03-21T13:25:21Z</time>
      </trkpt>
      <trkpt lat="42.82947658" lon="13.46383765">
        <ele>560.00000</ele>
        <time>2024-03-21T13:25:22Z</time>
      </trkpt>
      <trkpt lat="42.82950885" lon="13.46386522">
        <ele>559.00000</ele>
        <time>2024-03-21T13:25:23Z</time>
      </trkpt>
      <trkpt lat="42.82956895" lon="13.46385450">
        <ele>557.00000</ele>
        <time>2024-03-21T13:25:24Z</time>
      </trkpt>
      <trkpt lat="42.82965671" lon="13.46381066">
        <ele>554.00000</ele>
        <time>2024-03-21T13:25:25Z</time>
      </trkpt>
      <trkpt lat="42.82976123" lon="13.46376104">
        <ele>550.00000</ele>
        <time>2024-03-21T13:25:26Z</time>
      </trkpt>
      <trkpt lat="42.82985511" lon="13.46371376">
        <ele>547.00000</ele>
        <time>2024-03-21T13:25:27Z</time>
      </trkpt>
      <trkpt lat="42.82995452" lon="13.46368216">
        <ele>544.00000</ele>
        <time>2024-03-21T13:25:28Z</time>
      </trkpt>
      <trkpt lat="42.83005451" lon="13.46369407">
        <ele>541.00000</ele>
        <time>2024-03-21T13:25:29Z</time>
      </trkpt>
      <trkpt lat="42.83015560" lon="13.46372776">
        <ele>538.00000</ele>
        <time>2024-03-21T13:25:30Z</time>
      </trkpt>
      <trkpt lat="42.83026331" lon="13.46377470">
        <ele>535.00000</ele>
        <time>2024-03-21T13:25:31Z</time>
      </trkpt>
      <trkpt lat="42.83036950" lon="13.46382239">
        <ele>533.00000</ele>
        <time>2024-03-21T13:25:32Z</time>
      </trkpt>
      <trkpt lat="42.83047411" lon="13.46385550">
        <ele>529.00000</ele>
        <time>2024-03-21T13:25:33Z</time>
      </trkpt>
      <trkpt lat="42.83058249" lon="13.46388593">
        <ele>525.00000</ele>
        <time>2024-03-21T13:25:34Z</time>
      </trkpt>
      <trkpt lat="42.83069556" lon="13.46391501">
        <ele>522.00000</ele>
        <time>2024-03-21T13:25:35Z</time>
      </trkpt>
      <trkpt lat="42.83079279" lon="13.46396245">
        <ele>520.00000</ele>
        <time>2024-03-21T13:25:36Z</time>
      </trkpt>
      <trkpt lat="42.83087024" lon="13.46403144">
        <ele>518.00000</ele>
        <time>2024-03-21T13:25:37Z</time>
      </trkpt>
      <trkpt lat="42.83092288" lon="13.46411777">
        <ele>517.00000</ele>
        <time>2024-03-21T13:25:38Z</time>
      </trkpt>
      <trkpt lat="42.83094442" lon="13.46422271">
        <ele>518.00000</ele>
        <time>2024-03-21T13:25:39Z</time>
      </trkpt>
      <trkpt lat="42.83094484" lon="13.46434392">
        <ele>519.00000</ele>
        <time>2024-03-21T13:25:40Z</time>
      </trkpt>
      <trkpt lat="42.83092481" lon="13.46446721">
        <ele>521.00000</ele>
        <time>2024-03-21T13:25:41Z</time>
      </trkpt>
      <trkpt lat="42.83091299" lon="13.46459110">
        <ele>521.00000</ele>
        <time>2024-03-21T13:25:42Z</time>
      </trkpt>
      <trkpt lat="42.83094006" lon="13.46472638">
        <ele>518.00000</ele>
        <time>2024-03-21T13:25:43Z</time>
      </trkpt>
      <trkpt lat="42.83097719" lon="13.46486703">
        <ele>515.00000</ele>
        <time>2024-03-21T13:25:44Z</time>
      </trkpt>
      <trkpt lat="42.83098499" lon="13.46500818">
        <ele>514.00000</ele>
        <time>2024-03-21T13:25:45Z</time>
      </trkpt>
      <trkpt lat="42.83097141" lon="13.46514481">
        <ele>513.00000</ele>
        <time>2024-03-21T13:25:46Z</time>
      </trkpt>
      <trkpt lat="42.83095062" lon="13.46527959">
        <ele>513.00000</ele>
        <time>2024-03-21T13:25:47Z</time>
      </trkpt>
      <trkpt lat="42.83093327" lon="13.46541739">
        <ele>515.00000</ele>
        <time>2024-03-21T13:25:48Z</time>
      </trkpt>
      <trkpt lat="42.83093319" lon="13.46556700">
        <ele>517.00000</ele>
        <time>2024-03-21T13:25:49Z</time>
      </trkpt>
      <trkpt lat="42.83095984" lon="13.46570589">
        <ele>517.00000</ele>
        <time>2024-03-21T13:25:50Z</time>
      </trkpt>
      <trkpt lat="42.83102111" lon="13.46582760">
        <ele>516.00000</ele>
        <time>2024-03-21T13:25:51Z</time>
      </trkpt>
      <trkpt lat="42.83108272" lon="13.46591762">
        <ele>514.00000</ele>
        <time>2024-03-21T13:25:52Z</time>
      </trkpt>
      <trkpt lat="42.83115237" lon="13.46598342">
        <ele>511.00000</ele>
        <time>2024-03-21T13:25:53Z</time>
      </trkpt>
      <trkpt lat="42.83123225" lon="13.46601753">
        <ele>508.00000</ele>
        <time>2024-03-21T13:25:54Z</time>
      </trkpt>
      <trkpt lat="42.83131331" lon="13.46605030">
        <ele>506.00000</ele>
        <time>2024-03-21T13:25:55Z</time>
      </trkpt>
      <trkpt lat="42.83136838" lon="13.46612029">
        <ele>505.00000</ele>
        <time>2024-03-21T13:25:56Z</time>
      </trkpt>
      <trkpt lat="42.83139344" lon="13.46621777">
        <ele>505.00000</ele>
        <time>2024-03-21T13:25:57Z</time>
      </trkpt>
      <trkpt lat="42.83139939" lon="13.46632875">
        <ele>505.00000</ele>
        <time>2024-03-21T13:25:58Z</time>
      </trkpt>
      <trkpt lat="42.83141263" lon="13.46645347">
        <ele>505.00000</ele>
        <time>2024-03-21T13:25:59Z</time>
      </trkpt>
      <trkpt lat="42.83145823" lon="13.46656696">
        <ele>504.00000</ele>
        <time>2024-03-21T13:26:00Z</time>
      </trkpt>
      <trkpt lat="42.83153467" lon="13.46667970">
        <ele>501.00000</ele>
        <time>2024-03-21T13:26:01Z</time>
      </trkpt>
      <trkpt lat="42.83159703" lon="13.46673343">
        <ele>497.00000</ele>
        <time>2024-03-21T13:26:02Z</time>
      </trkpt>
      <trkpt lat="42.83168513" lon="13.46679353">
        <ele>492.00000</ele>
        <time>2024-03-21T13:26:03Z</time>
      </trkpt>
      <trkpt lat="42.83178227" lon="13.46684533">
        <ele>487.00000</ele>
        <time>2024-03-21T13:26:04Z</time>
      </trkpt>
      <trkpt lat="42.83187582" lon="13.46690006">
        <ele>483.00000</ele>
        <time>2024-03-21T13:26:05Z</time>
      </trkpt>
      <trkpt lat="42.83194916" lon="13.46696343">
        <ele>480.00000</ele>
        <time>2024-03-21T13:26:06Z</time>
      </trkpt>
      <trkpt lat="42.83199727" lon="13.46703325">
        <ele>478.00000</ele>
        <time>2024-03-21T13:26:07Z</time>
      </trkpt>
      <trkpt lat="42.83202577" lon="13.46712319">
        <ele>477.00000</ele>
        <time>2024-03-21T13:26:08Z</time>
      </trkpt>
      <trkpt lat="42.83203457" lon="13.46722763">
        <ele>477.00000</ele>
        <time>2024-03-21T13:26:09Z</time>
      </trkpt>
      <trkpt lat="42.83202510" lon="13.46733072">
        <ele>476.00000</ele>
        <time>2024-03-21T13:26:10Z</time>
      </trkpt>
      <trkpt lat="42.83199316" lon="13.46743206">
        <ele>476.00000</ele>
        <time>2024-03-21T13:26:11Z</time>
      </trkpt>
      <trkpt lat="42.83194622" lon="13.46753717">
        <ele>477.00000</ele>
        <time>2024-03-21T13:26:12Z</time>
      </trkpt>
      <trkpt lat="42.83189342" lon="13.46765141">
        <ele>479.00000</ele>
        <time>2024-03-21T13:26:13Z</time>
      </trkpt>
      <trkpt lat="42.83183969" lon="13.46777589">
        <ele>481.00000</ele>
        <time>2024-03-21T13:26:14Z</time>
      </trkpt>
      <trkpt lat="42.83181480" lon="13.46791209">
        <ele>482.00000</ele>
        <time>2024-03-21T13:26:15Z</time>
      </trkpt>
      <trkpt lat="42.83180231" lon="13.46806028">
        <ele>481.00000</ele>
        <time>2024-03-21T13:26:16Z</time>
      </trkpt>
      <trkpt lat="42.83180859" lon="13.46821200">
        <ele>482.00000</ele>
        <time>2024-03-21T13:26:17Z</time>
      </trkpt>
      <trkpt lat="42.83182469" lon="13.46835960">
        <ele>483.00000</ele>
        <time>2024-03-21T13:26:18Z</time>
      </trkpt>
      <trkpt lat="42.83185662" lon="13.46850486">
        <ele>483.00000</ele>
        <time>2024-03-21T13:26:19Z</time>
      </trkpt>
      <trkpt lat="42.83189761" lon="13.46863905">
        <ele>482.00000</ele>
        <time>2024-03-21T13:26:20Z</time>
      </trkpt>
      <trkpt lat="42.83195888" lon="13.46874500">
        <ele>481.00000</ele>
        <time>2024-03-21T13:26:21Z</time>
      </trkpt>
      <trkpt lat="42.83204035" lon="13.46881642">
        <ele>478.00000</ele>
        <time>2024-03-21T13:26:22Z</time>
      </trkpt>
      <trkpt lat="42.83212535" lon="13.46886713">
        <ele>474.00000</ele>
        <time>2024-03-21T13:26:23Z</time>
      </trkpt>
      <trkpt lat="42.83220363" lon="13.46892471">
        <ele>470.00000</ele>
        <time>2024-03-21T13:26:24Z</time>
      </trkpt>
      <trkpt lat="42.83225761" lon="13.46902060">
        <ele>468.00000</ele>
        <time>2024-03-21T13:26:25Z</time>
      </trkpt>
      <trkpt lat="42.83228871" lon="13.46913434">
        <ele>467.00000</ele>
        <time>2024-03-21T13:26:26Z</time>
      </trkpt>
      <trkpt lat="42.83229969" lon="13.46926133">
        <ele>466.00000</ele>
        <time>2024-03-21T13:26:27Z</time>
      </trkpt>
      <trkpt lat="42.83229701" lon="13.46939552">
        <ele>465.00000</ele>
        <time>2024-03-21T13:26:28Z</time>
      </trkpt>
      <trkpt lat="42.83230162" lon="13.46953567">
        <ele>465.00000</ele>
        <time>2024-03-21T13:26:29Z</time>
      </trkpt>
      <trkpt lat="42.83231168" lon="13.46967833">
        <ele>464.00000</ele>
        <time>2024-03-21T13:26:30Z</time>
      </trkpt>
      <trkpt lat="42.83233246" lon="13.46982560">
        <ele>464.00000</ele>
        <time>2024-03-21T13:26:31Z</time>
      </trkpt>
      <trkpt lat="42.83237194" lon="13.46995845">
        <ele>462.00000</ele>
        <time>2024-03-21T13:26:32Z</time>
      </trkpt>
      <trkpt lat="42.83241385" lon="13.47007865">
        <ele>460.00000</ele>
        <time>2024-03-21T13:26:33Z</time>
      </trkpt>
      <trkpt lat="42.83243950" lon="13.47020194">
        <ele>459.00000</ele>
        <time>2024-03-21T13:26:34Z</time>
      </trkpt>
      <trkpt lat="42.83244059" lon="13.47032516">
        <ele>459.00000</ele>
        <time>2024-03-21T13:26:35Z</time>
      </trkpt>
      <trkpt lat="42.83243564" lon="13.47044594">
        <ele>458.00000</ele>
        <time>2024-03-21T13:26:36Z</time>
      </trkpt>
      <trkpt lat="42.83243120" lon="13.47054300">
        <ele>458.00000</ele>
        <time>2024-03-21T13:26:37Z</time>
      </trkpt>
      <trkpt lat="42.83236306" lon="13.47064593">
        <ele>461.00000</ele>
        <time>2024-03-21T13:26:38Z</time>
      </trkpt>
      <trkpt lat="42.83231704" lon="13.47075900">
        <ele>463.00000</ele>
        <time>2024-03-21T13:26:39Z</time>
      </trkpt>
      <trkpt lat="42.83228184" lon="13.47087644">
        <ele>465.00000</ele>
        <time>2024-03-21T13:26:40Z</time>
      </trkpt>
      <trkpt lat="42.83226314" lon="13.47100141">
        <ele>464.00000</ele>
        <time>2024-03-21T13:26:41Z</time>
      </trkpt>
      <trkpt lat="42.83227932" lon="13.47113334">
        <ele>462.00000</ele>
        <time>2024-03-21T13:26:42Z</time>
      </trkpt>
      <trkpt lat="42.83232173" lon="13.47126058">
        <ele>461.00000</ele>
        <time>2024-03-21T13:26:43Z</time>
      </trkpt>
      <trkpt lat="42.83236884" lon="13.47138564">
        <ele>461.00000</ele>
        <time>2024-03-21T13:26:44Z</time>
      </trkpt>
      <trkpt lat="42.83242617" lon="13.47148178">
        <ele>461.00000</ele>
        <time>2024-03-21T13:26:45Z</time>
      </trkpt>
      <trkpt lat="42.83251008" lon="13.47153618">
        <ele>460.00000</ele>
        <time>2024-03-21T13:26:46Z</time>
      </trkpt>
      <trkpt lat="42.83262130" lon="13.47154975">
        <ele>457.00000</ele>
        <time>2024-03-21T13:26:47Z</time>
      </trkpt>
      <trkpt lat="42.83274041" lon="13.47154657">
        <ele>454.00000</ele>
        <time>2024-03-21T13:26:48Z</time>
      </trkpt>
      <trkpt lat="42.83285046" lon="13.47154464">
        <ele>451.00000</ele>
        <time>2024-03-21T13:26:49Z</time>
      </trkpt>
      <trkpt lat="42.83295080" lon="13.47155788">
        <ele>448.00000</ele>
        <time>2024-03-21T13:26:50Z</time>
      </trkpt>
      <trkpt lat="42.83303461" lon="13.47161212">
        <ele>446.00000</ele>
        <time>2024-03-21T13:26:51Z</time>
      </trkpt>
      <trkpt lat="42.83309496" lon="13.47170675">
        <ele>445.00000</ele>
        <time>2024-03-21T13:26:52Z</time>
      </trkpt>
      <trkpt lat="42.83312371" lon="13.47183382">
        <ele>445.00000</ele>
        <time>2024-03-21T13:26:53Z</time>
      </trkpt>
      <trkpt lat="42.83314014" lon="13.47197195">
        <ele>445.00000</ele>
        <time>2024-03-21T13:26:54Z</time>
      </trkpt>
      <trkpt lat="42.83316873" lon="13.47210799">
        <ele>443.00000</ele>
        <time>2024-03-21T13:26:55Z</time>
      </trkpt>
      <trkpt lat="42.83319261" lon="13.47225207">
        <ele>441.00000</ele>
        <time>2024-03-21T13:26:56Z</time>
      </trkpt>
      <trkpt lat="42.83318943" lon="13.47239574">
        <ele>440.00000</ele>
        <time>2024-03-21T13:26:57Z</time>
      </trkpt>
      <trkpt lat="42.83313360" lon="13.47252884">
        <ele>440.00000</ele>
        <time>2024-03-21T13:26:58Z</time>
      </trkpt>
      <trkpt lat="42.83306093" lon="13.47264368">
        <ele>439.00000</ele>
        <time>2024-03-21T13:26:59Z</time>
      </trkpt>
      <trkpt lat="42.83297343" lon="13.47274133">
        <ele>440.00000</ele>
        <time>2024-03-21T13:27:00Z</time>
      </trkpt>
      <trkpt lat="42.83287930" lon="13.47282632">
        <ele>442.00000</ele>
        <time>2024-03-21T13:27:01Z</time>
      </trkpt>
      <trkpt lat="42.83278844" lon="13.47290905">
        <ele>444.00000</ele>
        <time>2024-03-21T13:27:02Z</time>
      </trkpt>
      <trkpt lat="42.83270261" lon="13.47300125">
        <ele>445.00000</ele>
        <time>2024-03-21T13:27:03Z</time>
      </trkpt>
      <trkpt lat="42.83263019" lon="13.47311231">
        <ele>445.00000</ele>
        <time>2024-03-21T13:27:04Z</time>
      </trkpt>
      <trkpt lat="42.83256506" lon="13.47323628">
        <ele>444.00000</ele>
        <time>2024-03-21T13:27:05Z</time>
      </trkpt>
      <trkpt lat="42.83250764" lon="13.47336997">
        <ele>445.00000</ele>
        <time>2024-03-21T13:27:06Z</time>
      </trkpt>
      <trkpt lat="42.83246213" lon="13.47351380">
        <ele>446.00000</ele>
        <time>2024-03-21T13:27:07Z</time>
      </trkpt>
      <trkpt lat="42.83243447" lon="13.47367088">
        <ele>445.00000</ele>
        <time>2024-03-21T13:27:08Z</time>
      </trkpt>
      <trkpt lat="42.83243623" lon="13.47383785">
        <ele>443.00000</ele>
        <time>2024-03-21T13:27:09Z</time>
      </trkpt>
      <trkpt lat="42.83247982" lon="13.47400582">
        <ele>440.00000</ele>
        <time>2024-03-21T13:27:10Z</time>
      </trkpt>
      <trkpt lat="42.83256934" lon="13.47412769">
        <ele>435.00000</ele>
        <time>2024-03-21T13:27:11Z</time>
      </trkpt>
      <trkpt lat="42.83266464" lon="13.47419877">
        <ele>431.00000</ele>
        <time>2024-03-21T13:27:12Z</time>
      </trkpt>
      <trkpt lat="42.83275340" lon="13.47423498">
        <ele>427.00000</ele>
        <time>2024-03-21T13:27:13Z</time>
      </trkpt>
      <trkpt lat="42.83283764" lon="13.47426532">
        <ele>423.00000</ele>
        <time>2024-03-21T13:27:14Z</time>
      </trkpt>
      <trkpt lat="42.83288919" lon="13.47432970">
        <ele>421.00000</ele>
        <time>2024-03-21T13:27:15Z</time>
      </trkpt>
      <trkpt lat="42.83291048" lon="13.47441595">
        <ele>420.00000</ele>
        <time>2024-03-21T13:27:16Z</time>
      </trkpt>
      <trkpt lat="42.83291115" lon="13.47450538">
        <ele>419.00000</ele>
        <time>2024-03-21T13:27:17Z</time>
      </trkpt>
      <trkpt lat="42.83288609" lon="13.47459507">
        <ele>420.00000</ele>
        <time>2024-03-21T13:27:18Z</time>
      </trkpt>
      <trkpt lat="42.83282247" lon="13.47469749">
        <ele>422.00000</ele>
        <time>2024-03-21T13:27:19Z</time>
      </trkpt>
      <trkpt lat="42.83276254" lon="13.47481702">
        <ele>425.00000</ele>
        <time>2024-03-21T13:27:20Z</time>
      </trkpt>
      <trkpt lat="42.83270671" lon="13.47493043">
        <ele>427.00000</ele>
        <time>2024-03-21T13:27:21Z</time>
      </trkpt>
      <trkpt lat="42.83264989" lon="13.47504928">
        <ele>430.00000</ele>
        <time>2024-03-21T13:27:22Z</time>
      </trkpt>
      <trkpt lat="42.83259700" lon="13.47518733">
        <ele>431.00000</ele>
        <time>2024-03-21T13:27:23Z</time>
      </trkpt>
      <trkpt lat="42.83255383" lon="13.47532815">
        <ele>432.00000</ele>
        <time>2024-03-21T13:27:24Z</time>
      </trkpt>
      <trkpt lat="42.83254796" lon="13.47547014">
        <ele>434.00000</ele>
        <time>2024-03-21T13:27:25Z</time>
      </trkpt>
      <trkpt lat="42.83258568" lon="13.47559067">
        <ele>433.00000</ele>
        <time>2024-03-21T13:27:26Z</time>
      </trkpt>
      <trkpt lat="42.83266229" lon="13.47569318">
        <ele>432.00000</ele>
        <time>2024-03-21T13:27:27Z</time>
      </trkpt>
      <trkpt lat="42.83277939" lon="13.47575546">
        <ele>427.00000</ele>
        <time>2024-03-21T13:27:28Z</time>
      </trkpt>
      <trkpt lat="42.83286966" lon="13.47577222">
        <ele>424.00000</ele>
        <time>2024-03-21T13:27:29Z</time>
      </trkpt>
      <trkpt lat="42.83297494" lon="13.47578337">
        <ele>421.00000</ele>
        <time>2024-03-21T13:27:30Z</time>
      </trkpt>
      <trkpt lat="42.83308457" lon="13.47578689">
        <ele>418.00000</ele>
        <time>2024-03-21T13:27:31Z</time>
      </trkpt>
      <trkpt lat="42.83320385" lon="13.47578622">
        <ele>416.00000</ele>
        <time>2024-03-21T13:27:32Z</time>
      </trkpt>
      <trkpt lat="42.83331817" lon="13.47581421">
        <ele>414.00000</ele>
        <time>2024-03-21T13:27:33Z</time>
      </trkpt>
      <trkpt lat="42.83339445" lon="13.47589703">
        <ele>412.00000</ele>
        <time>2024-03-21T13:27:34Z</time>
      </trkpt>
      <trkpt lat="42.83343393" lon="13.47602242">
        <ele>411.00000</ele>
        <time>2024-03-21T13:27:35Z</time>
      </trkpt>
      <trkpt lat="42.83344835" lon="13.47616651">
        <ele>411.00000</ele>
        <time>2024-03-21T13:27:36Z</time>
      </trkpt>
      <trkpt lat="42.83345581" lon="13.47632258">
        <ele>411.00000</ele>
        <time>2024-03-21T13:27:37Z</time>
      </trkpt>
      <trkpt lat="42.83346142" lon="13.47647655">
        <ele>412.00000</ele>
        <time>2024-03-21T13:27:38Z</time>
      </trkpt>
      <trkpt lat="42.83347081" lon="13.47662885">
        <ele>414.00000</ele>
        <time>2024-03-21T13:27:39Z</time>
      </trkpt>
      <trkpt lat="42.83350945" lon="13.47676405">
        <ele>414.00000</ele>
        <time>2024-03-21T13:27:40Z</time>
      </trkpt>
      <trkpt lat="42.83359000" lon="13.47686413">
        <ele>410.00000</ele>
        <time>2024-03-21T13:27:41Z</time>
      </trkpt>
      <trkpt lat="42.83369142" lon="13.47692809">
        <ele>406.00000</ele>
        <time>2024-03-21T13:27:42Z</time>
      </trkpt>
      <trkpt lat="42.83377809" lon="13.47698559">
        <ele>403.00000</ele>
        <time>2024-03-21T13:27:43Z</time>
      </trkpt>
      <trkpt lat="42.83385260" lon="13.47705448">
        <ele>400.00000</ele>
        <time>2024-03-21T13:27:44Z</time>
      </trkpt>
      <trkpt lat="42.83389703" lon="13.47713654">
        <ele>398.00000</ele>
        <time>2024-03-21T13:27:45Z</time>
      </trkpt>
      <trkpt lat="42.83390667" lon="13.47722791">
        <ele>396.00000</ele>
        <time>2024-03-21T13:27:46Z</time>
      </trkpt>
      <trkpt lat="42.83389778" lon="13.47732380">
        <ele>396.00000</ele>
        <time>2024-03-21T13:27:47Z</time>
      </trkpt>
      <trkpt lat="42.83387205" lon="13.47741994">
        <ele>396.00000</ele>
        <time>2024-03-21T13:27:48Z</time>
      </trkpt>
      <trkpt lat="42.83381748" lon="13.47752437">
        <ele>398.00000</ele>
        <time>2024-03-21T13:27:49Z</time>
      </trkpt>
      <trkpt lat="42.83374506" lon="13.47763594">
        <ele>401.00000</ele>
        <time>2024-03-21T13:27:50Z</time>
      </trkpt>
      <trkpt lat="42.83368865" lon="13.47774960">
        <ele>403.00000</ele>
        <time>2024-03-21T13:27:51Z</time>
      </trkpt>
      <trkpt lat="42.83362948" lon="13.47787365">
        <ele>405.00000</ele>
        <time>2024-03-21T13:27:52Z</time>
      </trkpt>
      <trkpt lat="42.83360936" lon="13.47802310">
        <ele>404.00000</ele>
        <time>2024-03-21T13:27:53Z</time>
      </trkpt>
      <trkpt lat="42.83361322" lon="13.47819048">
        <ele>402.00000</ele>
        <time>2024-03-21T13:27:54Z</time>
      </trkpt>
      <trkpt lat="42.83368832" lon="13.47833314">
        <ele>398.00000</ele>
        <time>2024-03-21T13:27:55Z</time>
      </trkpt>
      <trkpt lat="42.83377474" lon="13.47841872">
        <ele>395.00000</ele>
        <time>2024-03-21T13:27:56Z</time>
      </trkpt>
      <trkpt lat="42.83376686" lon="13.47850405">
        <ele>396.00000</ele>
        <time>2024-03-21T13:27:57Z</time>
      </trkpt>
      <trkpt lat="42.83378790" lon="13.47859583">
        <ele>396.00000</ele>
        <time>2024-03-21T13:27:58Z</time>
      </trkpt>
      <trkpt lat="42.83379234" lon="13.47869717">
        <ele>397.00000</ele>
        <time>2024-03-21T13:27:59Z</time>
      </trkpt>
      <trkpt lat="42.83380441" lon="13.47881167">
        <ele>399.00000</ele>
        <time>2024-03-21T13:28:00Z</time>
      </trkpt>
      <trkpt lat="42.83379636" lon="13.47891963">
        <ele>400.00000</ele>
        <time>2024-03-21T13:28:01Z</time>
      </trkpt>
      <trkpt lat="42.83376577" lon="13.47902817">
        <ele>400.00000</ele>
        <time>2024-03-21T13:28:02Z</time>
      </trkpt>
      <trkpt lat="42.83372369" lon="13.47914300">
        <ele>400.00000</ele>
        <time>2024-03-21T13:28:03Z</time>
      </trkpt>
      <trkpt lat="42.83366887" lon="13.47926404">
        <ele>399.00000</ele>
        <time>2024-03-21T13:28:04Z</time>
      </trkpt>
      <trkpt lat="42.83360945" lon="13.47939128">
        <ele>397.00000</ele>
        <time>2024-03-21T13:28:05Z</time>
      </trkpt>
      <trkpt lat="42.83355345" lon="13.47952254">
        <ele>396.00000</ele>
        <time>2024-03-21T13:28:06Z</time>
      </trkpt>
      <trkpt lat="42.83350761" lon="13.47965472">
        <ele>396.00000</ele>
        <time>2024-03-21T13:28:07Z</time>
      </trkpt>
      <trkpt lat="42.83346218" lon="13.47977098">
        <ele>395.00000</ele>
        <time>2024-03-21T13:28:08Z</time>
      </trkpt>
      <trkpt lat="42.83341851" lon="13.47987298">
        <ele>395.00000</ele>
        <time>2024-03-21T13:28:09Z</time>
      </trkpt>
      <trkpt lat="42.83338112" lon="13.47996284">
        <ele>395.00000</ele>
        <time>2024-03-21T13:28:10Z</time>
      </trkpt>
      <trkpt lat="42.83333661" lon="13.48003299">
        <ele>395.00000</ele>
        <time>2024-03-21T13:28:11Z</time>
      </trkpt>
      <trkpt lat="42.83328901" lon="13.48007407">
        <ele>394.00000</ele>
        <time>2024-03-21T13:28:12Z</time>
      </trkpt>
      <trkpt lat="42.83324844" lon="13.48007658">
        <ele>393.00000</ele>
        <time>2024-03-21T13:28:13Z</time>
      </trkpt>
      <trkpt lat="42.83321466" lon="13.48004188">
        <ele>392.00000</ele>
        <time>2024-03-21T13:28:14Z</time>
      </trkpt>
      <trkpt lat="42.83319773" lon="13.47998287">
        <ele>390.00000</ele>
        <time>2024-03-21T13:28:15Z</time>
      </trkpt>
      <trkpt lat="42.83322891" lon="13.47988514">
        <ele>390.00000</ele>
        <time>2024-03-21T13:28:16Z</time>
      </trkpt>
      <trkpt lat="42.83326311" lon="13.47974114">
        <ele>390.00000</ele>
        <time>2024-03-21T13:28:17Z</time>
      </trkpt>
      <trkpt lat="42.83326227" lon="13.47959496">
        <ele>390.00000</ele>
        <time>2024-03-21T13:28:18Z</time>
      </trkpt>
      <trkpt lat="42.83323142" lon="13.47946722">
        <ele>389.00000</ele>
        <time>2024-03-21T13:28:19Z</time>
      </trkpt>
      <trkpt lat="42.83317116" lon="13.47936797">
        <ele>389.00000</ele>
        <time>2024-03-21T13:28:20Z</time>
      </trkpt>
      <trkpt lat="42.83309773" lon="13.47929606">
        <ele>390.00000</ele>
        <time>2024-03-21T13:28:21Z</time>
      </trkpt>
      <trkpt lat="42.83302984" lon="13.47925205">
        <ele>390.00000</ele>
        <time>2024-03-21T13:28:22Z</time>
      </trkpt>
      <trkpt lat="42.83295624" lon="13.47923923">
        <ele>390.00000</ele>
        <time>2024-03-21T13:28:23Z</time>
      </trkpt>
      <trkpt lat="42.83289522" lon="13.47927091">
        <ele>387.00000</ele>
        <time>2024-03-21T13:28:24Z</time>
      </trkpt>
      <trkpt lat="42.83285717" lon="13.47933948">
        <ele>384.00000</ele>
        <time>2024-03-21T13:28:25Z</time>
      </trkpt>
      <trkpt lat="42.83284451" lon="13.47943788">
        <ele>379.00000</ele>
        <time>2024-03-21T13:28:26Z</time>
      </trkpt>
      <trkpt lat="42.83286086" lon="13.47954886">
        <ele>379.00000</ele>
        <time>2024-03-21T13:28:27Z</time>
      </trkpt>
      <trkpt lat="42.83288567" lon="13.47966888">
        <ele>379.00000</ele>
        <time>2024-03-21T13:28:28Z</time>
      </trkpt>
      <trkpt lat="42.83289908" lon="13.47979537">
        <ele>380.00000</ele>
        <time>2024-03-21T13:28:29Z</time>
      </trkpt>
      <trkpt lat="42.83288693" lon="13.47991866">
        <ele>380.00000</ele>
        <time>2024-03-21T13:28:30Z</time>
      </trkpt>
      <trkpt lat="42.83286538" lon="13.48004481">
        <ele>380.00000</ele>
        <time>2024-03-21T13:28:31Z</time>
      </trkpt>
      <trkpt lat="42.83282389" lon="13.48015931">
        <ele>380.00000</ele>
        <time>2024-03-21T13:28:32Z</time>
      </trkpt>
      <trkpt lat="42.83274963" lon="13.48024749">
        <ele>378.00000</ele>
        <time>2024-03-21T13:28:33Z</time>
      </trkpt>
      <trkpt lat="42.83265986" lon="13.48032041">
        <ele>374.00000</ele>
        <time>2024-03-21T13:28:34Z</time>
      </trkpt>
      <trkpt lat="42.83256833" lon="13.48039082">
        <ele>370.00000</ele>
        <time>2024-03-21T13:28:35Z</time>
      </trkpt>
      <trkpt lat="42.83247747" lon="13.48046047">
        <ele>366.00000</ele>
        <time>2024-03-21T13:28:36Z</time>
      </trkpt>
      <trkpt lat="42.83238502" lon="13.48053147">
        <ele>365.00000</ele>
        <time>2024-03-21T13:28:37Z</time>
      </trkpt>
      <trkpt lat="42.83228293" lon="13.48059953">
        <ele>363.00000</ele>
        <time>2024-03-21T13:28:38Z</time>
      </trkpt>
      <trkpt lat="42.83218008" lon="13.48067605">
        <ele>361.00000</ele>
        <time>2024-03-21T13:28:39Z</time>
      </trkpt>
      <trkpt lat="42.83208193" lon="13.48076163">
        <ele>360.00000</ele>
        <time>2024-03-21T13:28:40Z</time>
      </trkpt>
      <trkpt lat="42.83198805" lon="13.48085643">
        <ele>358.00000</ele>
        <time>2024-03-21T13:28:41Z</time>
      </trkpt>
      <trkpt lat="42.83187950" lon="13.48094520">
        <ele>356.00000</ele>
        <time>2024-03-21T13:28:42Z</time>
      </trkpt>
      <trkpt lat="42.83179049" lon="13.48104318">
        <ele>355.00000</ele>
        <time>2024-03-21T13:28:43Z</time>
      </trkpt>
      <trkpt lat="42.83172880" lon="13.48114728">
        <ele>353.00000</ele>
        <time>2024-03-21T13:28:44Z</time>
      </trkpt>
      <trkpt lat="42.83169049" lon="13.48125114">
        <ele>351.00000</ele>
        <time>2024-03-21T13:28:45Z</time>
      </trkpt>
      <trkpt lat="42.83167893" lon="13.48134451">
        <ele>349.00000</ele>
        <time>2024-03-21T13:28:46Z</time>
      </trkpt>
      <trkpt lat="42.83169359" lon="13.48142380">
        <ele>349.00000</ele>
        <time>2024-03-21T13:28:47Z</time>
      </trkpt>
      <trkpt lat="42.83172159" lon="13.48148616">
        <ele>348.00000</ele>
        <time>2024-03-21T13:28:48Z</time>
      </trkpt>
      <trkpt lat="42.83175612" lon="13.48153981">
        <ele>348.00000</ele>
        <time>2024-03-21T13:28:49Z</time>
      </trkpt>
      <trkpt lat="42.83181094" lon="13.48158608">
        <ele>348.00000</ele>
        <time>2024-03-21T13:28:50Z</time>
      </trkpt>
      <trkpt lat="42.83186643" lon="13.48162975">
        <ele>348.00000</ele>
        <time>2024-03-21T13:28:51Z</time>
      </trkpt>
      <trkpt lat="42.83193457" lon="13.48168264">
        <ele>347.00000</ele>
        <time>2024-03-21T13:28:52Z</time>
      </trkpt>
      <trkpt lat="42.83201479" lon="13.48173192">
        <ele>345.00000</ele>
        <time>2024-03-21T13:28:53Z</time>
      </trkpt>
      <trkpt lat="42.83211822" lon="13.48177283">
        <ele>344.00000</ele>
        <time>2024-03-21T13:28:54Z</time>
      </trkpt>
      <trkpt lat="42.83224269" lon="13.48180619">
        <ele>343.00000</ele>
        <time>2024-03-21T13:28:55Z</time>
      </trkpt>
      <trkpt lat="42.83236306" lon="13.48183443">
        <ele>343.00000</ele>
        <time>2024-03-21T13:28:56Z</time>
      </trkpt>
      <trkpt lat="42.83248166" lon="13.48188632">
        <ele>341.00000</ele>
        <time>2024-03-21T13:28:57Z</time>
      </trkpt>
      <trkpt lat="42.83259616" lon="13.48195329">
        <ele>337.00000</ele>
        <time>2024-03-21T13:28:58Z</time>
      </trkpt>
      <trkpt lat="42.83271074" lon="13.48204658">
        <ele>333.00000</ele>
        <time>2024-03-21T13:28:59Z</time>
      </trkpt>
      <trkpt lat="42.83282549" lon="13.48216292">
        <ele>330.00000</ele>
        <time>2024-03-21T13:29:00Z</time>
      </trkpt>
      <trkpt lat="42.83293336" lon="13.48229074">
        <ele>329.00000</ele>
        <time>2024-03-21T13:29:01Z</time>
      </trkpt>
      <trkpt lat="42.83303093" lon="13.48241312">
        <ele>328.00000</ele>
        <time>2024-03-21T13:29:02Z</time>
      </trkpt>
      <trkpt lat="42.83311273" lon="13.48252946">
        <ele>327.00000</ele>
        <time>2024-03-21T13:29:03Z</time>
      </trkpt>
      <trkpt lat="42.83318708" lon="13.48263482">
        <ele>327.00000</ele>
        <time>2024-03-21T13:29:04Z</time>
      </trkpt>
      <trkpt lat="42.83327342" lon="13.48272828">
        <ele>326.00000</ele>
        <time>2024-03-21T13:29:05Z</time>
      </trkpt>
      <trkpt lat="42.83336989" lon="13.48278519">
        <ele>326.00000</ele>
        <time>2024-03-21T13:29:06Z</time>
      </trkpt>
      <trkpt lat="42.83347014" lon="13.48281327">
        <ele>327.00000</ele>
        <time>2024-03-21T13:29:07Z</time>
      </trkpt>
      <trkpt lat="42.83355421" lon="13.48283347">
        <ele>328.00000</ele>
        <time>2024-03-21T13:29:08Z</time>
      </trkpt>
      <trkpt lat="42.83360945" lon="13.48286348">
        <ele>329.00000</ele>
        <time>2024-03-21T13:29:09Z</time>
      </trkpt>
      <trkpt lat="42.83364105" lon="13.48290245">
        <ele>328.00000</ele>
        <time>2024-03-21T13:29:10Z</time>
      </trkpt>
      <trkpt lat="42.83363526" lon="13.48294252">
        <ele>327.00000</ele>
        <time>2024-03-21T13:29:11Z</time>
      </trkpt>
      <trkpt lat="42.83359075" lon="13.48297345">
        <ele>326.00000</ele>
        <time>2024-03-21T13:29:12Z</time>
      </trkpt>
      <trkpt lat="42.83354415" lon="13.48299725">
        <ele>325.00000</ele>
        <time>2024-03-21T13:29:13Z</time>
      </trkpt>
      <trkpt lat="42.83348296" lon="13.48301100">
        <ele>324.00000</ele>
        <time>2024-03-21T13:29:14Z</time>
      </trkpt>
      <trkpt lat="42.83339613" lon="13.48301595">
        <ele>323.00000</ele>
        <time>2024-03-21T13:29:15Z</time>
      </trkpt>
      <trkpt lat="42.83330661" lon="13.48301419">
        <ele>322.00000</ele>
        <time>2024-03-21T13:29:16Z</time>
      </trkpt>
      <trkpt lat="42.83321013" lon="13.48301067">
        <ele>322.00000</ele>
        <time>2024-03-21T13:29:17Z</time>
      </trkpt>
      <trkpt lat="42.83311055" lon="13.48301134">
        <ele>321.00000</ele>
        <time>2024-03-21T13:29:18Z</time>
      </trkpt>
      <trkpt lat="42.83300260" lon="13.48301511">
        <ele>321.00000</ele>
        <time>2024-03-21T13:29:19Z</time>
      </trkpt>
      <trkpt lat="42.83289765" lon="13.48303497">
        <ele>320.00000</ele>
        <time>2024-03-21T13:29:20Z</time>
      </trkpt>
      <trkpt lat="42.83280763" lon="13.48309147">
        <ele>319.00000</ele>
        <time>2024-03-21T13:29:21Z</time>
      </trkpt>
      <trkpt lat="42.83273136" lon="13.48318208">
        <ele>318.00000</ele>
        <time>2024-03-21T13:29:22Z</time>
      </trkpt>
      <trkpt lat="42.83266740" lon="13.48329925">
        <ele>316.00000</ele>
        <time>2024-03-21T13:29:23Z</time>
      </trkpt>
      <trkpt lat="42.83260697" lon="13.48342775">
        <ele>315.00000</ele>
        <time>2024-03-21T13:29:24Z</time>
      </trkpt>
      <trkpt lat="42.83255844" lon="13.48356270">
        <ele>314.00000</ele>
        <time>2024-03-21T13:29:25Z</time>
      </trkpt>
      <trkpt lat="42.83250672" lon="13.48369874">
        <ele>313.00000</ele>
        <time>2024-03-21T13:29:26Z</time>
      </trkpt>
      <trkpt lat="42.83244168" lon="13.48382388">
        <ele>312.00000</ele>
        <time>2024-03-21T13:29:27Z</time>
      </trkpt>
      <trkpt lat="42.83235878" lon="13.48392798">
        <ele>312.00000</ele>
        <time>2024-03-21T13:29:28Z</time>
      </trkpt>
      <trkpt lat="42.83226348" lon="13.48401993">
        <ele>313.00000</ele>
        <time>2024-03-21T13:29:29Z</time>
      </trkpt>
      <trkpt lat="42.83216726" lon="13.48409738">
        <ele>313.00000</ele>
        <time>2024-03-21T13:29:30Z</time>
      </trkpt>
      <trkpt lat="42.83207556" lon="13.48417676">
        <ele>312.00000</ele>
        <time>2024-03-21T13:29:31Z</time>
      </trkpt>
      <trkpt lat="42.83199031" lon="13.48427139">
        <ele>309.00000</ele>
        <time>2024-03-21T13:29:32Z</time>
      </trkpt>
      <trkpt lat="42.83189677" lon="13.48438236">
        <ele>307.00000</ele>
        <time>2024-03-21T13:29:33Z</time>
      </trkpt>
      <trkpt lat="42.83181270" lon="13.48448521">
        <ele>306.00000</ele>
        <time>2024-03-21T13:29:34Z</time>
      </trkpt>
      <trkpt lat="42.83171195" lon="13.48460289">
        <ele>305.00000</ele>
        <time>2024-03-21T13:29:35Z</time>
      </trkpt>
      <trkpt lat="42.83162352" lon="13.48470364">
        <ele>304.00000</ele>
        <time>2024-03-21T13:29:36Z</time>
      </trkpt>
      <trkpt lat="42.83155261" lon="13.48478545">
        <ele>304.00000</ele>
        <time>2024-03-21T13:29:37Z</time>
      </trkpt>
      <trkpt lat="42.83145924" lon="13.48487631">
        <ele>304.00000</ele>
        <time>2024-03-21T13:29:38Z</time>
      </trkpt>
      <trkpt lat="42.83136184" lon="13.48495954">
        <ele>304.00000</ele>
        <time>2024-03-21T13:29:39Z</time>
      </trkpt>
      <trkpt lat="42.83124231" lon="13.48508552">
        <ele>303.00000</ele>
        <time>2024-03-21T13:29:40Z</time>
      </trkpt>
      <trkpt lat="42.83115263" lon="13.48519910">
        <ele>300.00000</ele>
        <time>2024-03-21T13:29:41Z</time>
      </trkpt>
      <trkpt lat="42.83108859" lon="13.48529750">
        <ele>298.00000</ele>
        <time>2024-03-21T13:29:42Z</time>
      </trkpt>
      <trkpt lat="42.83101215" lon="13.48541141">
        <ele>294.00000</ele>
        <time>2024-03-21T13:29:43Z</time>
      </trkpt>
      <trkpt lat="42.83094333" lon="13.48549950">
        <ele>292.00000</ele>
        <time>2024-03-21T13:29:44Z</time>
      </trkpt>
      <trkpt lat="42.83087477" lon="13.48559363">
        <ele>291.00000</ele>
        <time>2024-03-21T13:29:45Z</time>
      </trkpt>
      <trkpt lat="42.83083110" lon="13.48566974">
        <ele>290.00000</ele>
        <time>2024-03-21T13:29:46Z</time>
      </trkpt>
      <trkpt lat="42.83082129" lon="13.48573504">
        <ele>289.00000</ele>
        <time>2024-03-21T13:29:47Z</time>
      </trkpt>
      <trkpt lat="42.83083898" lon="13.48580016">
        <ele>288.00000</ele>
        <time>2024-03-21T13:29:48Z</time>
      </trkpt>
      <trkpt lat="42.83088516" lon="13.48583151">
        <ele>287.00000</ele>
        <time>2024-03-21T13:29:49Z</time>
      </trkpt>
      <trkpt lat="42.83094274" lon="13.48579916">
        <ele>287.00000</ele>
        <time>2024-03-21T13:29:50Z</time>
      </trkpt>
      <trkpt lat="42.83099714" lon="13.48573126">
        <ele>288.00000</ele>
        <time>2024-03-21T13:29:51Z</time>
      </trkpt>
      <trkpt lat="42.83104953" lon="13.48565138">
        <ele>288.00000</ele>
        <time>2024-03-21T13:29:52Z</time>
      </trkpt>
      <trkpt lat="42.83110686" lon="13.48556555">
        <ele>288.00000</ele>
        <time>2024-03-21T13:29:53Z</time>
      </trkpt>
      <trkpt lat="42.83117224" lon="13.48548425">
        <ele>290.00000</ele>
        <time>2024-03-21T13:29:54Z</time>
      </trkpt>
      <trkpt lat="42.83124390" lon="13.48541426">
        <ele>291.00000</ele>
        <time>2024-03-21T13:29:55Z</time>
      </trkpt>
      <trkpt lat="42.83131968" lon="13.48536564">
        <ele>291.00000</ele>
        <time>2024-03-21T13:29:56Z</time>
      </trkpt>
      <trkpt lat="42.83139713" lon="13.48534695">
        <ele>290.00000</ele>
        <time>2024-03-21T13:29:57Z</time>
      </trkpt>
      <trkpt lat="42.83146519" lon="13.48537730">
        <ele>289.00000</ele>
        <time>2024-03-21T13:29:58Z</time>
      </trkpt>
      <trkpt lat="42.83152042" lon="13.48545458">
        <ele>288.00000</ele>
        <time>2024-03-21T13:29:59Z</time>
      </trkpt>
      <trkpt lat="42.83154909" lon="13.48554770">
        <ele>287.00000</ele>
        <time>2024-03-21T13:30:00Z</time>
      </trkpt>
      <trkpt lat="42.83153409" lon="13.48564518">
        <ele>287.00000</ele>
        <time>2024-03-21T13:30:01Z</time>
      </trkpt>
      <trkpt lat="42.83148111" lon="13.48574191">
        <ele>286.00000</ele>
        <time>2024-03-21T13:30:02Z</time>
      </trkpt>
      <trkpt lat="42.83140995" lon="13.48584928">
        <ele>285.00000</ele>
        <time>2024-03-21T13:30:03Z</time>
      </trkpt>
      <trkpt lat="42.83134826" lon="13.48595405">
        <ele>284.00000</ele>
        <time>2024-03-21T13:30:04Z</time>
      </trkpt>
      <trkpt lat="42.83128548" lon="13.48606436">
        <ele>283.00000</ele>
        <time>2024-03-21T13:30:05Z</time>
      </trkpt>
      <trkpt lat="42.83122253" lon="13.48617483">
        <ele>282.00000</ele>
        <time>2024-03-21T13:30:06Z</time>
      </trkpt>
      <trkpt lat="42.83115766" lon="13.48628967">
        <ele>281.00000</ele>
        <time>2024-03-21T13:30:07Z</time>
      </trkpt>
      <trkpt lat="42.83109328" lon="13.48640366">
        <ele>278.00000</ele>
        <time>2024-03-21T13:30:08Z</time>
      </trkpt>
      <trkpt lat="42.83101667" lon="13.48651103">
        <ele>277.00000</ele>
        <time>2024-03-21T13:30:09Z</time>
      </trkpt>
      <trkpt lat="42.83093369" lon="13.48661321">
        <ele>275.00000</ele>
        <time>2024-03-21T13:30:10Z</time>
      </trkpt>
      <trkpt lat="42.83085415" lon="13.48672091">
        <ele>273.00000</ele>
        <time>2024-03-21T13:30:11Z</time>
      </trkpt>
      <trkpt lat="42.83079866" lon="13.48684631">
        <ele>272.00000</ele>
        <time>2024-03-21T13:30:12Z</time>
      </trkpt>
      <trkpt lat="42.83076203" lon="13.48699039">
        <ele>271.00000</ele>
        <time>2024-03-21T13:30:13Z</time>
      </trkpt>
      <trkpt lat="42.83075608" lon="13.48713850">
        <ele>270.00000</ele>
        <time>2024-03-21T13:30:14Z</time>
      </trkpt>
      <trkpt lat="42.83076999" lon="13.48729013">
        <ele>269.00000</ele>
        <time>2024-03-21T13:30:15Z</time>
      </trkpt>
      <trkpt lat="42.83079120" lon="13.48744419">
        <ele>269.00000</ele>
        <time>2024-03-21T13:30:16Z</time>
      </trkpt>
      <trkpt lat="42.83081358" lon="13.48760026">
        <ele>268.00000</ele>
        <time>2024-03-21T13:30:17Z</time>
      </trkpt>
      <trkpt lat="42.83082984" lon="13.48776111">
        <ele>267.00000</ele>
        <time>2024-03-21T13:30:18Z</time>
      </trkpt>
      <trkpt lat="42.83083219" lon="13.48791467">
        <ele>266.00000</ele>
        <time>2024-03-21T13:30:19Z</time>
      </trkpt>
      <trkpt lat="42.83081173" lon="13.48805733">
        <ele>266.00000</ele>
        <time>2024-03-21T13:30:20Z</time>
      </trkpt>
      <trkpt lat="42.83079941" lon="13.48819395">
        <ele>265.00000</ele>
        <time>2024-03-21T13:30:21Z</time>
      </trkpt>
      <trkpt lat="42.83082154" lon="13.48831557">
        <ele>264.00000</ele>
        <time>2024-03-21T13:30:22Z</time>
      </trkpt>
      <trkpt lat="42.83087200" lon="13.48840040">
        <ele>264.00000</ele>
        <time>2024-03-21T13:30:23Z</time>
      </trkpt>
      <trkpt lat="42.83094132" lon="13.48845899">
        <ele>265.00000</ele>
        <time>2024-03-21T13:30:24Z</time>
      </trkpt>
      <trkpt lat="42.83102287" lon="13.48852613">
        <ele>266.00000</ele>
        <time>2024-03-21T13:30:25Z</time>
      </trkpt>
      <trkpt lat="42.83108524" lon="13.48862797">
        <ele>267.00000</ele>
        <time>2024-03-21T13:30:26Z</time>
      </trkpt>
      <trkpt lat="42.83113058" lon="13.48876174">
        <ele>270.00000</ele>
        <time>2024-03-21T13:30:27Z</time>
      </trkpt>
      <trkpt lat="42.83112153" lon="13.48890247">
        <ele>271.00000</ele>
        <time>2024-03-21T13:30:28Z</time>
      </trkpt>
      <trkpt lat="42.83108540" lon="13.48904203">
        <ele>270.00000</ele>
        <time>2024-03-21T13:30:29Z</time>
      </trkpt>
      <trkpt lat="42.83107191" lon="13.48917120">
        <ele>270.00000</ele>
        <time>2024-03-21T13:30:30Z</time>
      </trkpt>
      <trkpt lat="42.83108364" lon="13.48929282">
        <ele>269.00000</ele>
        <time>2024-03-21T13:30:31Z</time>
      </trkpt>
      <trkpt lat="42.83111214" lon="13.48940832">
        <ele>268.00000</ele>
        <time>2024-03-21T13:30:32Z</time>
      </trkpt>
      <trkpt lat="42.83114701" lon="13.48951879">
        <ele>268.00000</ele>
        <time>2024-03-21T13:30:33Z</time>
      </trkpt>
      <trkpt lat="42.83118741" lon="13.48962591">
        <ele>268.00000</ele>
        <time>2024-03-21T13:30:34Z</time>
      </trkpt>
      <trkpt lat="42.83123242" lon="13.48972574">
        <ele>268.00000</ele>
        <time>2024-03-21T13:30:35Z</time>
      </trkpt>
      <trkpt lat="42.83127743" lon="13.48982255">
        <ele>268.00000</ele>
        <time>2024-03-21T13:30:36Z</time>
      </trkpt>
      <trkpt lat="42.83132085" lon="13.48991937">
        <ele>268.00000</ele>
        <time>2024-03-21T13:30:37Z</time>
      </trkpt>
      <trkpt lat="42.83135530" lon="13.49002221">
        <ele>268.00000</ele>
        <time>2024-03-21T13:30:38Z</time>
      </trkpt>
      <trkpt lat="42.83137290" lon="13.49013294">
        <ele>267.00000</ele>
        <time>2024-03-21T13:30:39Z</time>
      </trkpt>
      <trkpt lat="42.83137257" lon="13.49024894">
        <ele>267.00000</ele>
        <time>2024-03-21T13:30:40Z</time>
      </trkpt>
      <trkpt lat="42.83136561" lon="13.49036486">
        <ele>266.00000</ele>
        <time>2024-03-21T13:30:41Z</time>
      </trkpt>
      <trkpt lat="42.83136360" lon="13.49047785">
        <ele>264.00000</ele>
        <time>2024-03-21T13:30:42Z</time>
      </trkpt>
      <trkpt lat="42.83136888" lon="13.49058824">
        <ele>263.00000</ele>
        <time>2024-03-21T13:30:43Z</time>
      </trkpt>
      <trkpt lat="42.83139922" lon="13.49069855">
        <ele>262.00000</ele>
        <time>2024-03-21T13:30:44Z</time>
      </trkpt>
      <trkpt lat="42.83143728" lon="13.49080743">
        <ele>262.00000</ele>
        <time>2024-03-21T13:30:45Z</time>
      </trkpt>
      <trkpt lat="42.83147072" lon="13.49091715">
        <ele>261.00000</ele>
        <time>2024-03-21T13:30:46Z</time>
      </trkpt>
      <trkpt lat="42.83149846" lon="13.49103366">
        <ele>261.00000</ele>
        <time>2024-03-21T13:30:47Z</time>
      </trkpt>
      <trkpt lat="42.83152051" lon="13.49115645">
        <ele>261.00000</ele>
        <time>2024-03-21T13:30:48Z</time>
      </trkpt>
      <trkpt lat="42.83154406" lon="13.49128251">
        <ele>261.00000</ele>
        <time>2024-03-21T13:30:49Z</time>
      </trkpt>
      <trkpt lat="42.83156175" lon="13.49140430">
        <ele>262.00000</ele>
        <time>2024-03-21T13:30:50Z</time>
      </trkpt>
      <trkpt lat="42.83157591" lon="13.49153079">
        <ele>262.00000</ele>
        <time>2024-03-21T13:30:51Z</time>
      </trkpt>
      <trkpt lat="42.83158438" lon="13.49165819">
        <ele>262.00000</ele>
        <time>2024-03-21T13:30:52Z</time>
      </trkpt>
      <trkpt lat="42.83159519" lon="13.49178878">
        <ele>262.00000</ele>
        <time>2024-03-21T13:30:53Z</time>
      </trkpt>
      <trkpt lat="42.83160475" lon="13.49191895">
        <ele>262.00000</ele>
        <time>2024-03-21T13:30:54Z</time>
      </trkpt>
      <trkpt lat="42.83161187" lon="13.49204845">
        <ele>261.00000</ele>
        <time>2024-03-21T13:30:55Z</time>
      </trkpt>
      <trkpt lat="42.83161941" lon="13.49218072">
        <ele>259.00000</ele>
        <time>2024-03-21T13:30:56Z</time>
      </trkpt>
      <trkpt lat="42.83162302" lon="13.49231307">
        <ele>257.00000</ele>
        <time>2024-03-21T13:30:57Z</time>
      </trkpt>
      <trkpt lat="42.83162537" lon="13.49244550">
        <ele>255.00000</ele>
        <time>2024-03-21T13:30:58Z</time>
      </trkpt>
      <trkpt lat="42.83163542" lon="13.49257584">
        <ele>253.00000</ele>
        <time>2024-03-21T13:30:59Z</time>
      </trkpt>
      <trkpt lat="42.83166258" lon="13.49269797">
        <ele>251.00000</ele>
        <time>2024-03-21T13:31:00Z</time>
      </trkpt>
      <trkpt lat="42.83170424" lon="13.49280743">
        <ele>250.00000</ele>
        <time>2024-03-21T13:31:01Z</time>
      </trkpt>
      <trkpt lat="42.83175596" lon="13.49291422">
        <ele>249.00000</ele>
        <time>2024-03-21T13:31:02Z</time>
      </trkpt>
      <trkpt lat="42.83180993" lon="13.49302008">
        <ele>248.00000</ele>
        <time>2024-03-21T13:31:03Z</time>
      </trkpt>
      <trkpt lat="42.83186551" lon="13.49312117">
        <ele>247.00000</ele>
        <time>2024-03-21T13:31:04Z</time>
      </trkpt>
      <trkpt lat="42.83192074" lon="13.49322158">
        <ele>245.00000</ele>
        <time>2024-03-21T13:31:05Z</time>
      </trkpt>
      <trkpt lat="42.83197539" lon="13.49332049">
        <ele>245.00000</ele>
        <time>2024-03-21T13:31:06Z</time>
      </trkpt>
      <trkpt lat="42.83203222" lon="13.49341018">
        <ele>244.00000</ele>
        <time>2024-03-21T13:31:07Z</time>
      </trkpt>
      <trkpt lat="42.83208302" lon="13.49350271">
        <ele>243.00000</ele>
        <time>2024-03-21T13:31:08Z</time>
      </trkpt>
      <trkpt lat="42.83213415" lon="13.49359449">
        <ele>241.00000</ele>
        <time>2024-03-21T13:31:09Z</time>
      </trkpt>
      <trkpt lat="42.83218712" lon="13.49368200">
        <ele>240.00000</ele>
        <time>2024-03-21T13:31:10Z</time>
      </trkpt>
      <trkpt lat="42.83223733" lon="13.49377127">
        <ele>240.00000</ele>
        <time>2024-03-21T13:31:11Z</time>
      </trkpt>
      <trkpt lat="42.83228619" lon="13.49386238">
        <ele>239.00000</ele>
        <time>2024-03-21T13:31:12Z</time>
      </trkpt>
      <trkpt lat="42.83233523" lon="13.49395181">
        <ele>239.00000</ele>
        <time>2024-03-21T13:31:13Z</time>
      </trkpt>
      <trkpt lat="42.83238208" lon="13.49404754">
        <ele>239.00000</ele>
        <time>2024-03-21T13:31:14Z</time>
      </trkpt>
      <trkpt lat="42.83241050" lon="13.49415876">
        <ele>239.00000</ele>
        <time>2024-03-21T13:31:15Z</time>
      </trkpt>
      <trkpt lat="42.83240824" lon="13.49428047">
        <ele>238.00000</ele>
        <time>2024-03-21T13:31:16Z</time>
      </trkpt>
      <trkpt lat="42.83238510" lon="13.49440285">
        <ele>237.00000</ele>
        <time>2024-03-21T13:31:17Z</time>
      </trkpt>
      <trkpt lat="42.83235660" lon="13.49452648">
        <ele>236.00000</ele>
        <time>2024-03-21T13:31:18Z</time>
      </trkpt>
      <trkpt lat="42.83232945" lon="13.49465598">
        <ele>236.00000</ele>
        <time>2024-03-21T13:31:19Z</time>
      </trkpt>
      <trkpt lat="42.83229902" lon="13.49478456">
        <ele>235.00000</ele>
        <time>2024-03-21T13:31:20Z</time>
      </trkpt>
      <trkpt lat="42.83226918" lon="13.49491297">
        <ele>235.00000</ele>
        <time>2024-03-21T13:31:21Z</time>
      </trkpt>
      <trkpt lat="42.83224437" lon="13.49503342">
        <ele>234.00000</ele>
        <time>2024-03-21T13:31:22Z</time>
      </trkpt>
      <trkpt lat="42.83222584" lon="13.49514406">
        <ele>234.00000</ele>
        <time>2024-03-21T13:31:23Z</time>
      </trkpt>
      <trkpt lat="42.83221595" lon="13.49525202">
        <ele>234.00000</ele>
        <time>2024-03-21T13:31:24Z</time>
      </trkpt>
      <trkpt lat="42.83222098" lon="13.49535117">
        <ele>233.00000</ele>
        <time>2024-03-21T13:31:25Z</time>
      </trkpt>
      <trkpt lat="42.83223624" lon="13.49543332">
        <ele>233.00000</ele>
        <time>2024-03-21T13:31:26Z</time>
      </trkpt>
      <trkpt lat="42.83224755" lon="13.49550691">
        <ele>233.00000</ele>
        <time>2024-03-21T13:31:27Z</time>
      </trkpt>
      <trkpt lat="42.83224688" lon="13.49557790">
        <ele>232.00000</ele>
        <time>2024-03-21T13:31:28Z</time>
      </trkpt>
      <trkpt lat="42.83223104" lon="13.49564496">
        <ele>232.00000</ele>
        <time>2024-03-21T13:31:29Z</time>
      </trkpt>
      <trkpt lat="42.83219156" lon="13.49570103">
        <ele>232.00000</ele>
        <time>2024-03-21T13:31:30Z</time>
      </trkpt>
      <trkpt lat="42.83213398" lon="13.49574822">
        <ele>232.00000</ele>
        <time>2024-03-21T13:31:31Z</time>
      </trkpt>
      <trkpt lat="42.83206466" lon="13.49578645">
        <ele>232.00000</ele>
        <time>2024-03-21T13:31:32Z</time>
      </trkpt>
      <trkpt lat="42.83198872" lon="13.49581629">
        <ele>232.00000</ele>
        <time>2024-03-21T13:31:33Z</time>
      </trkpt>
      <trkpt lat="42.83190792" lon="13.49583892">
        <ele>232.00000</ele>
        <time>2024-03-21T13:31:34Z</time>
      </trkpt>
      <trkpt lat="42.83182385" lon="13.49586079">
        <ele>232.00000</ele>
        <time>2024-03-21T13:31:35Z</time>
      </trkpt>
      <trkpt lat="42.83174053" lon="13.49588351">
        <ele>232.00000</ele>
        <time>2024-03-21T13:31:36Z</time>
      </trkpt>
      <trkpt lat="42.83165370" lon="13.49590606">
        <ele>232.00000</ele>
        <time>2024-03-21T13:31:37Z</time>
      </trkpt>
      <trkpt lat="42.83156711" lon="13.49592877">
        <ele>232.00000</ele>
        <time>2024-03-21T13:31:38Z</time>
      </trkpt>
      <trkpt lat="42.83147726" lon="13.49594612">
        <ele>232.00000</ele>
        <time>2024-03-21T13:31:39Z</time>
      </trkpt>
      <trkpt lat="42.83138464" lon="13.49596356">
        <ele>232.00000</ele>
        <time>2024-03-21T13:31:40Z</time>
      </trkpt>
      <trkpt lat="42.83129260" lon="13.49598744">
        <ele>231.00000</ele>
        <time>2024-03-21T13:31:41Z</time>
      </trkpt>
      <trkpt lat="42.83119940" lon="13.49601376">
        <ele>231.00000</ele>
        <time>2024-03-21T13:31:42Z</time>
      </trkpt>
      <trkpt lat="42.83110527" lon="13.49603304">
        <ele>231.00000</ele>
        <time>2024-03-21T13:31:43Z</time>
      </trkpt>
      <trkpt lat="42.83101709" lon="13.49605291">
        <ele>231.00000</ele>
        <time>2024-03-21T13:31:44Z</time>
      </trkpt>
      <trkpt lat="42.83092975" lon="13.49607646">
        <ele>231.00000</ele>
        <time>2024-03-21T13:31:45Z</time>
      </trkpt>
      <trkpt lat="42.83083881" lon="13.49609884">
        <ele>231.00000</ele>
        <time>2024-03-21T13:31:46Z</time>
      </trkpt>
      <trkpt lat="42.83074426" lon="13.49612214">
        <ele>230.00000</ele>
        <time>2024-03-21T13:31:47Z</time>
      </trkpt>
      <trkpt lat="42.83064971" lon="13.49614720">
        <ele>230.00000</ele>
        <time>2024-03-21T13:31:48Z</time>
      </trkpt>
      <trkpt lat="42.83054955" lon="13.49617864">
        <ele>230.00000</ele>
        <time>2024-03-21T13:31:49Z</time>
      </trkpt>
      <trkpt lat="42.83044771" lon="13.49620085">
        <ele>230.00000</ele>
        <time>2024-03-21T13:31:50Z</time>
      </trkpt>
      <trkpt lat="42.83034277" lon="13.49621350">
        <ele>230.00000</ele>
        <time>2024-03-21T13:31:51Z</time>
      </trkpt>
      <trkpt lat="42.83024059" lon="13.49621568">
        <ele>230.00000</ele>
        <time>2024-03-21T13:31:52Z</time>
      </trkpt>
      <trkpt lat="42.83014571" lon="13.49620361">
        <ele>230.00000</ele>
        <time>2024-03-21T13:31:53Z</time>
      </trkpt>
      <trkpt lat="42.83004940" lon="13.49618274">
        <ele>229.00000</ele>
        <time>2024-03-21T13:31:54Z</time>
      </trkpt>
      <trkpt lat="42.82995468" lon="13.49615785">
        <ele>229.00000</ele>
        <time>2024-03-21T13:31:55Z</time>
      </trkpt>
      <trkpt lat="42.82986232" lon="13.49613765">
        <ele>228.00000</ele>
        <time>2024-03-21T13:31:56Z</time>
      </trkpt>
      <trkpt lat="42.82976810" lon="13.49612860">
        <ele>228.00000</ele>
        <time>2024-03-21T13:31:57Z</time>
      </trkpt>
      <trkpt lat="42.82967439" lon="13.49611963">
        <ele>227.00000</ele>
        <time>2024-03-21T13:31:58Z</time>
      </trkpt>
      <trkpt lat="42.82958244" lon="13.49611057">
        <ele>226.00000</ele>
        <time>2024-03-21T13:31:59Z</time>
      </trkpt>
      <trkpt lat="42.82948915" lon="13.49610135">
        <ele>226.00000</ele>
        <time>2024-03-21T13:32:00Z</time>
      </trkpt>
      <trkpt lat="42.82939913" lon="13.49609146">
        <ele>226.00000</ele>
        <time>2024-03-21T13:32:01Z</time>
      </trkpt>
      <trkpt lat="42.82931271" lon="13.49608794">
        <ele>227.00000</ele>
        <time>2024-03-21T13:32:02Z</time>
      </trkpt>
      <trkpt lat="42.82922085" lon="13.49608509">
        <ele>227.00000</ele>
        <time>2024-03-21T13:32:03Z</time>
      </trkpt>
      <trkpt lat="42.82912907" lon="13.49607805">
        <ele>227.00000</ele>
        <time>2024-03-21T13:32:04Z</time>
      </trkpt>
      <trkpt lat="42.82903997" lon="13.49606766">
        <ele>226.00000</ele>
        <time>2024-03-21T13:32:05Z</time>
      </trkpt>
      <trkpt lat="42.82895196" lon="13.49605609">
        <ele>226.00000</ele>
        <time>2024-03-21T13:32:06Z</time>
      </trkpt>
      <trkpt lat="42.82886353" lon="13.49605266">
        <ele>225.00000</ele>
        <time>2024-03-21T13:32:07Z</time>
      </trkpt>
      <trkpt lat="42.82877652" lon="13.49604838">
        <ele>225.00000</ele>
        <time>2024-03-21T13:32:08Z</time>
      </trkpt>
      <trkpt lat="42.82868751" lon="13.49604318">
        <ele>225.00000</ele>
        <time>2024-03-21T13:32:09Z</time>
      </trkpt>
      <trkpt lat="42.82859439" lon="13.49603916">
        <ele>225.00000</ele>
        <time>2024-03-21T13:32:10Z</time>
      </trkpt>
      <trkpt lat="42.82850445" lon="13.49604067">
        <ele>225.00000</ele>
        <time>2024-03-21T13:32:11Z</time>
      </trkpt>
      <trkpt lat="42.82841107" lon="13.49604452">
        <ele>226.00000</ele>
        <time>2024-03-21T13:32:12Z</time>
      </trkpt>
      <trkpt lat="42.82831527" lon="13.49605073">
        <ele>226.00000</ele>
        <time>2024-03-21T13:32:13Z</time>
      </trkpt>
      <trkpt lat="42.82821703" lon="13.49606405">
        <ele>226.00000</ele>
        <time>2024-03-21T13:32:14Z</time>
      </trkpt>
      <trkpt lat="42.82811695" lon="13.49608065">
        <ele>227.00000</ele>
        <time>2024-03-21T13:32:15Z</time>
      </trkpt>
      <trkpt lat="42.82801905" lon="13.49609943">
        <ele>227.00000</ele>
        <time>2024-03-21T13:32:16Z</time>
      </trkpt>
      <trkpt lat="42.82792224" lon="13.49612080">
        <ele>227.00000</ele>
        <time>2024-03-21T13:32:17Z</time>
      </trkpt>
      <trkpt lat="42.82782426" lon="13.49614611">
        <ele>227.00000</ele>
        <time>2024-03-21T13:32:18Z</time>
      </trkpt>
      <trkpt lat="42.82772770" lon="13.49617428">
        <ele>227.00000</ele>
        <time>2024-03-21T13:32:19Z</time>
      </trkpt>
      <trkpt lat="42.82763147" lon="13.49620990">
        <ele>228.00000</ele>
        <time>2024-03-21T13:32:20Z</time>
      </trkpt>
      <trkpt lat="42.82753592" lon="13.49624594">
        <ele>228.00000</ele>
        <time>2024-03-21T13:32:21Z</time>
      </trkpt>
      <trkpt lat="42.82744003" lon="13.49628609">
        <ele>229.00000</ele>
        <time>2024-03-21T13:32:22Z</time>
      </trkpt>
      <trkpt lat="42.82734531" lon="13.49632071">
        <ele>230.00000</ele>
        <time>2024-03-21T13:32:23Z</time>
      </trkpt>
      <trkpt lat="42.82725035" lon="13.49635038">
        <ele>230.00000</ele>
        <time>2024-03-21T13:32:24Z</time>
      </trkpt>
      <trkpt lat="42.82713920" lon="13.49639388">
        <ele>230.00000</ele>
        <time>2024-03-21T13:32:25Z</time>
      </trkpt>
      <trkpt lat="42.82706393" lon="13.49642456">
        <ele>231.00000</ele>
        <time>2024-03-21T13:32:26Z</time>
      </trkpt>
      <trkpt lat="42.82696964" lon="13.49646236">
        <ele>231.00000</ele>
        <time>2024-03-21T13:32:27Z</time>
      </trkpt>
      <trkpt lat="42.82687760" lon="13.49649983">
        <ele>233.00000</ele>
        <time>2024-03-21T13:32:28Z</time>
      </trkpt>
      <trkpt lat="42.82678599" lon="13.49653738">
        <ele>234.00000</ele>
        <time>2024-03-21T13:32:29Z</time>
      </trkpt>
      <trkpt lat="42.82669421" lon="13.49657912">
        <ele>234.00000</ele>
        <time>2024-03-21T13:32:30Z</time>
      </trkpt>
      <trkpt lat="42.82660259" lon="13.49662153">
        <ele>235.00000</ele>
        <time>2024-03-21T13:32:31Z</time>
      </trkpt>
      <trkpt lat="42.82651425" lon="13.49666789">
        <ele>234.00000</ele>
        <time>2024-03-21T13:32:32Z</time>
      </trkpt>
      <trkpt lat="42.82642649" lon="13.49672002">
        <ele>234.00000</ele>
        <time>2024-03-21T13:32:33Z</time>
      </trkpt>
      <trkpt lat="42.82632557" lon="13.49678750">
        <ele>233.00000</ele>
        <time>2024-03-21T13:32:34Z</time>
      </trkpt>
      <trkpt lat="42.82626028" lon="13.49683578">
        <ele>232.00000</ele>
        <time>2024-03-21T13:32:35Z</time>
      </trkpt>
      <trkpt lat="42.82616456" lon="13.49692177">
        <ele>229.00000</ele>
        <time>2024-03-21T13:32:36Z</time>
      </trkpt>
      <trkpt lat="42.82609029" lon="13.49700216">
        <ele>228.00000</ele>
        <time>2024-03-21T13:32:37Z</time>
      </trkpt>
      <trkpt lat="42.82601653" lon="13.49708145">
        <ele>228.00000</ele>
        <time>2024-03-21T13:32:38Z</time>
      </trkpt>
      <trkpt lat="42.82594327" lon="13.49716586">
        <ele>227.00000</ele>
        <time>2024-03-21T13:32:39Z</time>
      </trkpt>
      <trkpt lat="42.82587119" lon="13.49726141">
        <ele>226.00000</ele>
        <time>2024-03-21T13:32:40Z</time>
      </trkpt>
      <trkpt lat="42.82579944" lon="13.49735638">
        <ele>226.00000</ele>
        <time>2024-03-21T13:32:41Z</time>
      </trkpt>
      <trkpt lat="42.82574236" lon="13.49743114">
        <ele>226.00000</ele>
        <time>2024-03-21T13:32:42Z</time>
      </trkpt>
      <trkpt lat="42.82565586" lon="13.49754313">
        <ele>225.00000</ele>
        <time>2024-03-21T13:32:43Z</time>
      </trkpt>
      <trkpt lat="42.82558067" lon="13.49763616">
        <ele>224.00000</ele>
        <time>2024-03-21T13:32:44Z</time>
      </trkpt>
      <trkpt lat="42.82550356" lon="13.49772904">
        <ele>224.00000</ele>
        <time>2024-03-21T13:32:45Z</time>
      </trkpt>
      <trkpt lat="42.82543365" lon="13.49782518">
        <ele>224.00000</ele>
        <time>2024-03-21T13:32:46Z</time>
      </trkpt>
      <trkpt lat="42.82536400" lon="13.49791646">
        <ele>224.00000</ele>
        <time>2024-03-21T13:32:47Z</time>
      </trkpt>
      <trkpt lat="42.82529694" lon="13.49801033">
        <ele>225.00000</ele>
        <time>2024-03-21T13:32:48Z</time>
      </trkpt>
      <trkpt lat="42.82524364" lon="13.49808854">
        <ele>224.00000</ele>
        <time>2024-03-21T13:32:49Z</time>
      </trkpt>
      <trkpt lat="42.82516040" lon="13.49820571">
        <ele>223.00000</ele>
        <time>2024-03-21T13:32:50Z</time>
      </trkpt>
      <trkpt lat="42.82510215" lon="13.49828744">
        <ele>222.00000</ele>
        <time>2024-03-21T13:32:51Z</time>
      </trkpt>
      <trkpt lat="42.82502805" lon="13.49838852">
        <ele>221.00000</ele>
        <time>2024-03-21T13:32:52Z</time>
      </trkpt>
      <trkpt lat="42.82495739" lon="13.49848944">
        <ele>219.00000</ele>
        <time>2024-03-21T13:32:53Z</time>
      </trkpt>
      <trkpt lat="42.82487425" lon="13.49861282">
        <ele>216.00000</ele>
        <time>2024-03-21T13:32:54Z</time>
      </trkpt>
      <trkpt lat="42.82480560" lon="13.49872137">
        <ele>215.00000</ele>
        <time>2024-03-21T13:32:55Z</time>
      </trkpt>
      <trkpt lat="42.82475564" lon="13.49881248">
        <ele>214.00000</ele>
        <time>2024-03-21T13:32:56Z</time>
      </trkpt>
      <trkpt lat="42.82469856" lon="13.49893486">
        <ele>214.00000</ele>
        <time>2024-03-21T13:32:57Z</time>
      </trkpt>
      <trkpt lat="42.82464399" lon="13.49906436">
        <ele>215.00000</ele>
        <time>2024-03-21T13:32:58Z</time>
      </trkpt>
      <trkpt lat="42.82458725" lon="13.49922244">
        <ele>215.00000</ele>
        <time>2024-03-21T13:32:59Z</time>
      </trkpt>
      <trkpt lat="42.82453930" lon="13.49935571">
        <ele>216.00000</ele>
        <time>2024-03-21T13:33:00Z</time>
      </trkpt>
      <trkpt lat="42.82450033" lon="13.49946233">
        <ele>215.00000</ele>
        <time>2024-03-21T13:33:01Z</time>
      </trkpt>
      <trkpt lat="42.82445515" lon="13.49959183">
        <ele>215.00000</ele>
        <time>2024-03-21T13:33:02Z</time>
      </trkpt>
      <trkpt lat="42.82441131" lon="13.49971890">
        <ele>215.00000</ele>
        <time>2024-03-21T13:33:03Z</time>
      </trkpt>
      <trkpt lat="42.82436454" lon="13.49984672">
        <ele>215.00000</ele>
        <time>2024-03-21T13:33:04Z</time>
      </trkpt>
      <trkpt lat="42.82431710" lon="13.49997329">
        <ele>215.00000</ele>
        <time>2024-03-21T13:33:05Z</time>
      </trkpt>
      <trkpt lat="42.82427075" lon="13.50009793">
        <ele>215.00000</ele>
        <time>2024-03-21T13:33:06Z</time>
      </trkpt>
      <trkpt lat="42.82422138" lon="13.50022098">
        <ele>215.00000</ele>
        <time>2024-03-21T13:33:07Z</time>
      </trkpt>
      <trkpt lat="42.82416321" lon="13.50034209">
        <ele>216.00000</ele>
        <time>2024-03-21T13:33:08Z</time>
      </trkpt>
      <trkpt lat="42.82408660" lon="13.50047662">
        <ele>216.00000</ele>
        <time>2024-03-21T13:33:09Z</time>
      </trkpt>
      <trkpt lat="42.82402826" lon="13.50055558">
        <ele>216.00000</ele>
        <time>2024-03-21T13:33:10Z</time>
      </trkpt>
      <trkpt lat="42.82394444" lon="13.50064200">
        <ele>216.00000</ele>
        <time>2024-03-21T13:33:11Z</time>
      </trkpt>
      <trkpt lat="42.82384973" lon="13.50071920">
        <ele>216.00000</ele>
        <time>2024-03-21T13:33:12Z</time>
      </trkpt>
      <trkpt lat="42.82374981" lon="13.50078608">
        <ele>217.00000</ele>
        <time>2024-03-21T13:33:13Z</time>
      </trkpt>
      <trkpt lat="42.82364906" lon="13.50084476">
        <ele>218.00000</ele>
        <time>2024-03-21T13:33:14Z</time>
      </trkpt>
      <trkpt lat="42.82355116" lon="13.50090418">
        <ele>219.00000</ele>
        <time>2024-03-21T13:33:15Z</time>
      </trkpt>
      <trkpt lat="42.82345502" lon="13.50096227">
        <ele>219.00000</ele>
        <time>2024-03-21T13:33:16Z</time>
      </trkpt>
      <trkpt lat="42.82336031" lon="13.50102321">
        <ele>219.00000</ele>
        <time>2024-03-21T13:33:17Z</time>
      </trkpt>
      <trkpt lat="42.82326894" lon="13.50109169">
        <ele>219.00000</ele>
        <time>2024-03-21T13:33:18Z</time>
      </trkpt>
      <trkpt lat="42.82317808" lon="13.50116654">
        <ele>220.00000</ele>
        <time>2024-03-21T13:33:19Z</time>
      </trkpt>
      <trkpt lat="42.82307339" lon="13.50125882">
        <ele>220.00000</ele>
        <time>2024-03-21T13:33:20Z</time>
      </trkpt>
      <trkpt lat="42.82300366" lon="13.50131565">
        <ele>220.00000</ele>
        <time>2024-03-21T13:33:21Z</time>
      </trkpt>
      <trkpt lat="42.82291632" lon="13.50138614">
        <ele>221.00000</ele>
        <time>2024-03-21T13:33:22Z</time>
      </trkpt>
      <trkpt lat="42.82283132" lon="13.50145949">
        <ele>222.00000</ele>
        <time>2024-03-21T13:33:23Z</time>
      </trkpt>
      <trkpt lat="42.82274625" lon="13.50152897">
        <ele>222.00000</ele>
        <time>2024-03-21T13:33:24Z</time>
      </trkpt>
      <trkpt lat="42.82264114" lon="13.50161028">
        <ele>224.00000</ele>
        <time>2024-03-21T13:33:25Z</time>
      </trkpt>
      <trkpt lat="42.82257081" lon="13.50166275">
        <ele>225.00000</ele>
        <time>2024-03-21T13:33:26Z</time>
      </trkpt>
      <trkpt lat="42.82248180" lon="13.50172226">
        <ele>226.00000</ele>
        <time>2024-03-21T13:33:27Z</time>
      </trkpt>
      <trkpt lat="42.82239270" lon="13.50178177">
        <ele>228.00000</ele>
        <time>2024-03-21T13:33:28Z</time>
      </trkpt>
      <trkpt lat="42.82230167" lon="13.50184245">
        <ele>228.00000</ele>
        <time>2024-03-21T13:33:29Z</time>
      </trkpt>
      <trkpt lat="42.82220687" lon="13.50189752">
        <ele>228.00000</ele>
        <time>2024-03-21T13:33:30Z</time>
      </trkpt>
      <trkpt lat="42.82211249" lon="13.50194798">
        <ele>227.00000</ele>
        <time>2024-03-21T13:33:31Z</time>
      </trkpt>
      <trkpt lat="42.82201861" lon="13.50199668">
        <ele>226.00000</ele>
        <time>2024-03-21T13:33:32Z</time>
      </trkpt>
      <trkpt lat="42.82192784" lon="13.50204672">
        <ele>225.00000</ele>
        <time>2024-03-21T13:33:33Z</time>
      </trkpt>
      <trkpt lat="42.82183874" lon="13.50210565">
        <ele>225.00000</ele>
        <time>2024-03-21T13:33:34Z</time>
      </trkpt>
      <trkpt lat="42.82175467" lon="13.50217538">
        <ele>225.00000</ele>
        <time>2024-03-21T13:33:35Z</time>
      </trkpt>
      <trkpt lat="42.82167403" lon="13.50225233">
        <ele>225.00000</ele>
        <time>2024-03-21T13:33:36Z</time>
      </trkpt>
      <trkpt lat="42.82160363" lon="13.50234034">
        <ele>227.00000</ele>
        <time>2024-03-21T13:33:37Z</time>
      </trkpt>
      <trkpt lat="42.82154286" lon="13.50243455">
        <ele>230.00000</ele>
        <time>2024-03-21T13:33:38Z</time>
      </trkpt>
      <trkpt lat="42.82148653" lon="13.50253991">
        <ele>233.00000</ele>
        <time>2024-03-21T13:33:39Z</time>
      </trkpt>
      <trkpt lat="42.82143842" lon="13.50264737">
        <ele>235.00000</ele>
        <time>2024-03-21T13:33:40Z</time>
      </trkpt>
      <trkpt lat="42.82139450" lon="13.50276094">
        <ele>235.00000</ele>
        <time>2024-03-21T13:33:41Z</time>
      </trkpt>
      <trkpt lat="42.82135628" lon="13.50287678">
        <ele>236.00000</ele>
        <time>2024-03-21T13:33:42Z</time>
      </trkpt>
      <trkpt lat="42.82132510" lon="13.50300343">
        <ele>235.00000</ele>
        <time>2024-03-21T13:33:43Z</time>
      </trkpt>
      <trkpt lat="42.82131948" lon="13.50313939">
        <ele>234.00000</ele>
        <time>2024-03-21T13:33:44Z</time>
      </trkpt>
      <trkpt lat="42.82131856" lon="13.50327584">
        <ele>233.00000</ele>
        <time>2024-03-21T13:33:45Z</time>
      </trkpt>
      <trkpt lat="42.82132996" lon="13.50341146">
        <ele>230.00000</ele>
        <time>2024-03-21T13:33:46Z</time>
      </trkpt>
      <trkpt lat="42.82134949" lon="13.50354935">
        <ele>227.00000</ele>
        <time>2024-03-21T13:33:47Z</time>
      </trkpt>
      <trkpt lat="42.82137019" lon="13.50368429">
        <ele>225.00000</ele>
        <time>2024-03-21T13:33:48Z</time>
      </trkpt>
      <trkpt lat="42.82138947" lon="13.50381757">
        <ele>222.00000</ele>
        <time>2024-03-21T13:33:49Z</time>
      </trkpt>
      <trkpt lat="42.82141369" lon="13.50395151">
        <ele>221.00000</ele>
        <time>2024-03-21T13:33:50Z</time>
      </trkpt>
      <trkpt lat="42.82144018" lon="13.50408503">
        <ele>220.00000</ele>
        <time>2024-03-21T13:33:51Z</time>
      </trkpt>
      <trkpt lat="42.82146667" lon="13.50421621">
        <ele>220.00000</ele>
        <time>2024-03-21T13:33:52Z</time>
      </trkpt>
      <trkpt lat="42.82149014" lon="13.50434663">
        <ele>221.00000</ele>
        <time>2024-03-21T13:33:53Z</time>
      </trkpt>
      <trkpt lat="42.82150313" lon="13.50447152">
        <ele>221.00000</ele>
        <time>2024-03-21T13:33:54Z</time>
      </trkpt>
      <trkpt lat="42.82153515" lon="13.50459574">
        <ele>222.00000</ele>
        <time>2024-03-21T13:33:55Z</time>
      </trkpt>
      <trkpt lat="42.82156482" lon="13.50471829">
        <ele>222.00000</ele>
        <time>2024-03-21T13:33:56Z</time>
      </trkpt>
      <trkpt lat="42.82160053" lon="13.50484318">
        <ele>220.00000</ele>
        <time>2024-03-21T13:33:57Z</time>
      </trkpt>
      <trkpt lat="42.82161712" lon="13.50495960">
        <ele>220.00000</ele>
        <time>2024-03-21T13:33:58Z</time>
      </trkpt>
      <trkpt lat="42.82162827" lon="13.50507829">
        <ele>219.00000</ele>
        <time>2024-03-21T13:33:59Z</time>
      </trkpt>
      <trkpt lat="42.82162182" lon="13.50518994">
        <ele>219.00000</ele>
        <time>2024-03-21T13:34:00Z</time>
      </trkpt>
      <trkpt lat="42.82157965" lon="13.50529454">
        <ele>219.00000</ele>
        <time>2024-03-21T13:34:01Z</time>
      </trkpt>
      <trkpt lat="42.82152752" lon="13.50539328">
        <ele>219.00000</ele>
        <time>2024-03-21T13:34:02Z</time>
      </trkpt>
      <trkpt lat="42.82147228" lon="13.50549437">
        <ele>219.00000</ele>
        <time>2024-03-21T13:34:03Z</time>
      </trkpt>
      <trkpt lat="42.82145535" lon="13.50559797">
        <ele>219.00000</ele>
        <time>2024-03-21T13:34:04Z</time>
      </trkpt>
      <trkpt lat="42.82145041" lon="13.50568204">
        <ele>219.00000</ele>
        <time>2024-03-21T13:34:05Z</time>
      </trkpt>
      <trkpt lat="42.82146365" lon="13.50581078">
        <ele>218.00000</ele>
        <time>2024-03-21T13:34:06Z</time>
      </trkpt>
      <trkpt lat="42.82148762" lon="13.50591078">
        <ele>217.00000</ele>
        <time>2024-03-21T13:34:07Z</time>
      </trkpt>
      <trkpt lat="42.82152777" lon="13.50600734">
        <ele>217.00000</ele>
        <time>2024-03-21T13:34:08Z</time>
      </trkpt>
      <trkpt lat="42.82157211" lon="13.50610566">
        <ele>216.00000</ele>
        <time>2024-03-21T13:34:09Z</time>
      </trkpt>
      <trkpt lat="42.82160773" lon="13.50620909">
        <ele>215.00000</ele>
        <time>2024-03-21T13:34:10Z</time>
      </trkpt>
      <trkpt lat="42.82163581" lon="13.50631638">
        <ele>214.00000</ele>
        <time>2024-03-21T13:34:11Z</time>
      </trkpt>
      <trkpt lat="42.82166146" lon="13.50642342">
        <ele>213.00000</ele>
        <time>2024-03-21T13:34:12Z</time>
      </trkpt>
      <trkpt lat="42.82168351" lon="13.50653238">
        <ele>212.00000</ele>
        <time>2024-03-21T13:34:13Z</time>
      </trkpt>
      <trkpt lat="42.82170907" lon="13.50664730">
        <ele>211.00000</ele>
        <time>2024-03-21T13:34:14Z</time>
      </trkpt>
      <trkpt lat="42.82173514" lon="13.50676481">
        <ele>210.00000</ele>
        <time>2024-03-21T13:34:15Z</time>
      </trkpt>
      <trkpt lat="42.82176137" lon="13.50688409">
        <ele>209.00000</ele>
        <time>2024-03-21T13:34:16Z</time>
      </trkpt>
      <trkpt lat="42.82178878" lon="13.50700638">
        <ele>208.00000</ele>
        <time>2024-03-21T13:34:17Z</time>
      </trkpt>
      <trkpt lat="42.82181334" lon="13.50712817">
        <ele>207.00000</ele>
        <time>2024-03-21T13:34:18Z</time>
      </trkpt>
      <trkpt lat="42.82183832" lon="13.50725079">
        <ele>207.00000</ele>
        <time>2024-03-21T13:34:19Z</time>
      </trkpt>
      <trkpt lat="42.82186439" lon="13.50737527">
        <ele>207.00000</ele>
        <time>2024-03-21T13:34:20Z</time>
      </trkpt>
      <trkpt lat="42.82189406" lon="13.50750133">
        <ele>207.00000</ele>
        <time>2024-03-21T13:34:21Z</time>
      </trkpt>
      <trkpt lat="42.82192734" lon="13.50762672">
        <ele>208.00000</ele>
        <time>2024-03-21T13:34:22Z</time>
      </trkpt>
      <trkpt lat="42.82196489" lon="13.50774860">
        <ele>209.00000</ele>
        <time>2024-03-21T13:34:23Z</time>
      </trkpt>
      <trkpt lat="42.82200713" lon="13.50786728">
        <ele>209.00000</ele>
        <time>2024-03-21T13:34:24Z</time>
      </trkpt>
      <trkpt lat="42.82205994" lon="13.50797910">
        <ele>209.00000</ele>
        <time>2024-03-21T13:34:25Z</time>
      </trkpt>
      <trkpt lat="42.82212548" lon="13.50807884">
        <ele>209.00000</ele>
        <time>2024-03-21T13:34:26Z</time>
      </trkpt>
      <trkpt lat="42.82220302" lon="13.50816140">
        <ele>209.00000</ele>
        <time>2024-03-21T13:34:27Z</time>
      </trkpt>
      <trkpt lat="42.82228591" lon="13.50822234">
        <ele>209.00000</ele>
        <time>2024-03-21T13:34:28Z</time>
      </trkpt>
      <trkpt lat="42.82237401" lon="13.50826526">
        <ele>208.00000</ele>
        <time>2024-03-21T13:34:29Z</time>
      </trkpt>
      <trkpt lat="42.82244618" lon="13.50829225">
        <ele>208.00000</ele>
        <time>2024-03-21T13:34:30Z</time>
      </trkpt>
      <trkpt lat="42.82255950" lon="13.50832778">
        <ele>208.00000</ele>
        <time>2024-03-21T13:34:31Z</time>
      </trkpt>
      <trkpt lat="42.82265631" lon="13.50835930">
        <ele>207.00000</ele>
        <time>2024-03-21T13:34:32Z</time>
      </trkpt>
      <trkpt lat="42.82275253" lon="13.50839073">
        <ele>206.00000</ele>
        <time>2024-03-21T13:34:33Z</time>
      </trkpt>
      <trkpt lat="42.82284834" lon="13.50842292">
        <ele>206.00000</ele>
        <time>2024-03-21T13:34:34Z</time>
      </trkpt>
      <trkpt lat="42.82294507" lon="13.50845796">
        <ele>206.00000</ele>
        <time>2024-03-21T13:34:35Z</time>
      </trkpt>
      <trkpt lat="42.82304297" lon="13.50849383">
        <ele>206.00000</ele>
        <time>2024-03-21T13:34:36Z</time>
      </trkpt>
      <trkpt lat="42.82314129" lon="13.50852811">
        <ele>206.00000</ele>
        <time>2024-03-21T13:34:37Z</time>
      </trkpt>
      <trkpt lat="42.82323843" lon="13.50856030">
        <ele>205.00000</ele>
        <time>2024-03-21T13:34:38Z</time>
      </trkpt>
      <trkpt lat="42.82333097" lon="13.50859349">
        <ele>205.00000</ele>
        <time>2024-03-21T13:34:39Z</time>
      </trkpt>
      <trkpt lat="42.82341839" lon="13.50863113">
        <ele>204.00000</ele>
        <time>2024-03-21T13:34:40Z</time>
      </trkpt>
      <trkpt lat="42.82350070" lon="13.50866717">
        <ele>204.00000</ele>
        <time>2024-03-21T13:34:41Z</time>
      </trkpt>
      <trkpt lat="42.82358184" lon="13.50869449">
        <ele>204.00000</ele>
        <time>2024-03-21T13:34:42Z</time>
      </trkpt>
      <trkpt lat="42.82366122" lon="13.50872031">
        <ele>205.00000</ele>
        <time>2024-03-21T13:34:43Z</time>
      </trkpt>
      <trkpt lat="42.82373598" lon="13.50874596">
        <ele>205.00000</ele>
        <time>2024-03-21T13:34:44Z</time>
      </trkpt>
      <trkpt lat="42.82381125" lon="13.50876457">
        <ele>205.00000</ele>
        <time>2024-03-21T13:34:45Z</time>
      </trkpt>
      <trkpt lat="42.82388702" lon="13.50877739">
        <ele>206.00000</ele>
        <time>2024-03-21T13:34:46Z</time>
      </trkpt>
      <trkpt lat="42.82396120" lon="13.50879097">
        <ele>206.00000</ele>
        <time>2024-03-21T13:34:47Z</time>
      </trkpt>
      <trkpt lat="42.82403287" lon="13.50881192">
        <ele>206.00000</ele>
        <time>2024-03-21T13:34:48Z</time>
      </trkpt>
      <trkpt lat="42.82410311" lon="13.50884352">
        <ele>206.00000</ele>
        <time>2024-03-21T13:34:49Z</time>
      </trkpt>
      <trkpt lat="42.82417369" lon="13.50887546">
        <ele>206.00000</ele>
        <time>2024-03-21T13:34:50Z</time>
      </trkpt>
      <trkpt lat="42.82424694" lon="13.50890429">
        <ele>206.00000</ele>
        <time>2024-03-21T13:34:51Z</time>
      </trkpt>
      <trkpt lat="42.82432012" lon="13.50893220">
        <ele>206.00000</ele>
        <time>2024-03-21T13:34:52Z</time>
      </trkpt>
      <trkpt lat="42.82439304" lon="13.50896070">
        <ele>206.00000</ele>
        <time>2024-03-21T13:34:53Z</time>
      </trkpt>
      <trkpt lat="42.82446789" lon="13.50898920">
        <ele>206.00000</ele>
        <time>2024-03-21T13:34:54Z</time>
      </trkpt>
      <trkpt lat="42.82454584" lon="13.50901711">
        <ele>206.00000</ele>
        <time>2024-03-21T13:34:55Z</time>
      </trkpt>
      <trkpt lat="42.82462698" lon="13.50904310">
        <ele>205.00000</ele>
        <time>2024-03-21T13:34:56Z</time>
      </trkpt>
      <trkpt lat="42.82470845" lon="13.50906690">
        <ele>205.00000</ele>
        <time>2024-03-21T13:34:57Z</time>
      </trkpt>
      <trkpt lat="42.82477316" lon="13.50909037">
        <ele>205.00000</ele>
        <time>2024-03-21T13:34:58Z</time>
      </trkpt>
      <trkpt lat="42.82486813" lon="13.50912432">
        <ele>205.00000</ele>
        <time>2024-03-21T13:34:59Z</time>
      </trkpt>
      <trkpt lat="42.82494700" lon="13.50915055">
        <ele>205.00000</ele>
        <time>2024-03-21T13:35:00Z</time>
      </trkpt>
      <trkpt lat="42.82502713" lon="13.50917310">
        <ele>206.00000</ele>
        <time>2024-03-21T13:35:01Z</time>
      </trkpt>
      <trkpt lat="42.82510835" lon="13.50919858">
        <ele>207.00000</ele>
        <time>2024-03-21T13:35:02Z</time>
      </trkpt>
      <trkpt lat="42.82518764" lon="13.50922364">
        <ele>209.00000</ele>
        <time>2024-03-21T13:35:03Z</time>
      </trkpt>
      <trkpt lat="42.82526887" lon="13.50925005">
        <ele>210.00000</ele>
        <time>2024-03-21T13:35:04Z</time>
      </trkpt>
      <trkpt lat="42.82534992" lon="13.50927720">
        <ele>210.00000</ele>
        <time>2024-03-21T13:35:05Z</time>
      </trkpt>
      <trkpt lat="42.82543005" lon="13.50930503">
        <ele>211.00000</ele>
        <time>2024-03-21T13:35:06Z</time>
      </trkpt>
      <trkpt lat="42.82549501" lon="13.50932716">
        <ele>211.00000</ele>
        <time>2024-03-21T13:35:07Z</time>
      </trkpt>
      <trkpt lat="42.82559056" lon="13.50936085">
        <ele>211.00000</ele>
        <time>2024-03-21T13:35:08Z</time>
      </trkpt>
      <trkpt lat="42.82567229" lon="13.50938709">
        <ele>210.00000</ele>
        <time>2024-03-21T13:35:09Z</time>
      </trkpt>
      <trkpt lat="42.82575418" lon="13.50941450">
        <ele>209.00000</ele>
        <time>2024-03-21T13:35:10Z</time>
      </trkpt>
      <trkpt lat="42.82583607" lon="13.50943998">
        <ele>208.00000</ele>
        <time>2024-03-21T13:35:11Z</time>
      </trkpt>
      <trkpt lat="42.82591779" lon="13.50946638">
        <ele>206.00000</ele>
        <time>2024-03-21T13:35:12Z</time>
      </trkpt>
      <trkpt lat="42.82599952" lon="13.50949346">
        <ele>205.00000</ele>
        <time>2024-03-21T13:35:13Z</time>
      </trkpt>
      <trkpt lat="42.82608191" lon="13.50951936">
        <ele>205.00000</ele>
        <time>2024-03-21T13:35:14Z</time>
      </trkpt>
      <trkpt lat="42.82616280" lon="13.50954584">
        <ele>204.00000</ele>
        <time>2024-03-21T13:35:15Z</time>
      </trkpt>
      <trkpt lat="42.82624410" lon="13.50957199">
        <ele>205.00000</ele>
        <time>2024-03-21T13:35:16Z</time>
      </trkpt>
      <trkpt lat="42.82632348" lon="13.50960016">
        <ele>205.00000</ele>
        <time>2024-03-21T13:35:17Z</time>
      </trkpt>
      <trkpt lat="42.82640218" lon="13.50962849">
        <ele>206.00000</ele>
        <time>2024-03-21T13:35:18Z</time>
      </trkpt>
      <trkpt lat="42.82649681" lon="13.50966294">
        <ele>206.00000</ele>
        <time>2024-03-21T13:35:19Z</time>
      </trkpt>
      <trkpt lat="42.82657535" lon="13.50969177">
        <ele>207.00000</ele>
        <time>2024-03-21T13:35:20Z</time>
      </trkpt>
      <trkpt lat="42.82665758" lon="13.50972086">
        <ele>207.00000</ele>
        <time>2024-03-21T13:35:21Z</time>
      </trkpt>
      <trkpt lat="42.82672313" lon="13.50973980">
        <ele>207.00000</ele>
        <time>2024-03-21T13:35:22Z</time>
      </trkpt>
      <trkpt lat="42.82680502" lon="13.50976444">
        <ele>207.00000</ele>
        <time>2024-03-21T13:35:23Z</time>
      </trkpt>
      <trkpt lat="42.82690183" lon="13.50979235">
        <ele>207.00000</ele>
        <time>2024-03-21T13:35:24Z</time>
      </trkpt>
      <trkpt lat="42.82698288" lon="13.50981767">
        <ele>206.00000</ele>
        <time>2024-03-21T13:35:25Z</time>
      </trkpt>
      <trkpt lat="42.82704843" lon="13.50983519">
        <ele>205.00000</ele>
        <time>2024-03-21T13:35:26Z</time>
      </trkpt>
      <trkpt lat="42.82713023" lon="13.50985907">
        <ele>204.00000</ele>
        <time>2024-03-21T13:35:27Z</time>
      </trkpt>
      <trkpt lat="42.82721296" lon="13.50988053">
        <ele>203.00000</ele>
        <time>2024-03-21T13:35:28Z</time>
      </trkpt>
      <trkpt lat="42.82729033" lon="13.50990501">
        <ele>203.00000</ele>
        <time>2024-03-21T13:35:29Z</time>
      </trkpt>
      <trkpt lat="42.82737021" lon="13.50993610">
        <ele>203.00000</ele>
        <time>2024-03-21T13:35:30Z</time>
      </trkpt>
      <trkpt lat="42.82744791" lon="13.50996326">
        <ele>203.00000</ele>
        <time>2024-03-21T13:35:31Z</time>
      </trkpt>
      <trkpt lat="42.82752670" lon="13.50998958">
        <ele>203.00000</ele>
        <time>2024-03-21T13:35:32Z</time>
      </trkpt>
      <trkpt lat="42.82760574" lon="13.51001766">
        <ele>203.00000</ele>
        <time>2024-03-21T13:35:33Z</time>
      </trkpt>
      <trkpt lat="42.82768428" lon="13.51005312">
        <ele>203.00000</ele>
        <time>2024-03-21T13:35:34Z</time>
      </trkpt>
      <trkpt lat="42.82775737" lon="13.51008832">
        <ele>203.00000</ele>
        <time>2024-03-21T13:35:35Z</time>
      </trkpt>
      <trkpt lat="42.82783138" lon="13.51012394">
        <ele>203.00000</ele>
        <time>2024-03-21T13:35:36Z</time>
      </trkpt>
      <trkpt lat="42.82790791" lon="13.51015688">
        <ele>203.00000</ele>
        <time>2024-03-21T13:35:37Z</time>
      </trkpt>
      <trkpt lat="42.82798184" lon="13.51018765">
        <ele>204.00000</ele>
        <time>2024-03-21T13:35:38Z</time>
      </trkpt>
      <trkpt lat="42.82805610" lon="13.51021614">
        <ele>204.00000</ele>
        <time>2024-03-21T13:35:39Z</time>
      </trkpt>
      <trkpt lat="42.82812969" lon="13.51024121">
        <ele>203.00000</ele>
        <time>2024-03-21T13:35:40Z</time>
      </trkpt>
      <trkpt lat="42.82820245" lon="13.51026669">
        <ele>203.00000</ele>
        <time>2024-03-21T13:35:41Z</time>
      </trkpt>
      <trkpt lat="42.82827629" lon="13.51029342">
        <ele>202.00000</ele>
        <time>2024-03-21T13:35:42Z</time>
      </trkpt>
      <trkpt lat="42.82835257" lon="13.51032293">
        <ele>201.00000</ele>
        <time>2024-03-21T13:35:43Z</time>
      </trkpt>
      <trkpt lat="42.82842742" lon="13.51034598">
        <ele>201.00000</ele>
        <time>2024-03-21T13:35:44Z</time>
      </trkpt>
      <trkpt lat="42.82850411" lon="13.51036886">
        <ele>201.00000</ele>
        <time>2024-03-21T13:35:45Z</time>
      </trkpt>
      <trkpt lat="42.82858039" lon="13.51039258">
        <ele>201.00000</ele>
        <time>2024-03-21T13:35:46Z</time>
      </trkpt>
      <trkpt lat="42.82865406" lon="13.51041572">
        <ele>201.00000</ele>
        <time>2024-03-21T13:35:47Z</time>
      </trkpt>
      <trkpt lat="42.82872791" lon="13.51043717">
        <ele>200.00000</ele>
        <time>2024-03-21T13:35:48Z</time>
      </trkpt>
      <trkpt lat="42.82880259" lon="13.51045654">
        <ele>200.00000</ele>
        <time>2024-03-21T13:35:49Z</time>
      </trkpt>
      <trkpt lat="42.82887468" lon="13.51047766">
        <ele>200.00000</ele>
        <time>2024-03-21T13:35:50Z</time>
      </trkpt>
      <trkpt lat="42.82894701" lon="13.51050247">
        <ele>199.00000</ele>
        <time>2024-03-21T13:35:51Z</time>
      </trkpt>
      <trkpt lat="42.82902010" lon="13.51052787">
        <ele>199.00000</ele>
        <time>2024-03-21T13:35:52Z</time>
      </trkpt>
      <trkpt lat="42.82909118" lon="13.51055326">
        <ele>199.00000</ele>
        <time>2024-03-21T13:35:53Z</time>
      </trkpt>
      <trkpt lat="42.82916092" lon="13.51057891">
        <ele>199.00000</ele>
        <time>2024-03-21T13:35:54Z</time>
      </trkpt>
      <trkpt lat="42.82923133" lon="13.51060607">
        <ele>199.00000</ele>
        <time>2024-03-21T13:35:55Z</time>
      </trkpt>
      <trkpt lat="42.82930450" lon="13.51063314">
        <ele>200.00000</ele>
        <time>2024-03-21T13:35:56Z</time>
      </trkpt>
      <trkpt lat="42.82937969" lon="13.51065971">
        <ele>200.00000</ele>
        <time>2024-03-21T13:35:57Z</time>
      </trkpt>
      <trkpt lat="42.82945537" lon="13.51068427">
        <ele>200.00000</ele>
        <time>2024-03-21T13:35:58Z</time>
      </trkpt>
      <trkpt lat="42.82951698" lon="13.51070648">
        <ele>200.00000</ele>
        <time>2024-03-21T13:35:59Z</time>
      </trkpt>
      <trkpt lat="42.82960910" lon="13.51073834">
        <ele>200.00000</ele>
        <time>2024-03-21T13:36:00Z</time>
      </trkpt>
      <trkpt lat="42.82968487" lon="13.51076851">
        <ele>199.00000</ele>
        <time>2024-03-21T13:36:01Z</time>
      </trkpt>
      <trkpt lat="42.82975880" lon="13.51079910">
        <ele>199.00000</ele>
        <time>2024-03-21T13:36:02Z</time>
      </trkpt>
      <trkpt lat="42.82983851" lon="13.51084085">
        <ele>200.00000</ele>
        <time>2024-03-21T13:36:03Z</time>
      </trkpt>
      <trkpt lat="42.82991814" lon="13.51089893">
        <ele>200.00000</ele>
        <time>2024-03-21T13:36:04Z</time>
      </trkpt>
      <trkpt lat="42.82999173" lon="13.51097060">
        <ele>200.00000</ele>
        <time>2024-03-21T13:36:05Z</time>
      </trkpt>
      <trkpt lat="42.83005108" lon="13.51105676">
        <ele>199.00000</ele>
        <time>2024-03-21T13:36:06Z</time>
      </trkpt>
      <trkpt lat="42.83010036" lon="13.51115223">
        <ele>198.00000</ele>
        <time>2024-03-21T13:36:07Z</time>
      </trkpt>
      <trkpt lat="42.83013775" lon="13.51125885">
        <ele>196.00000</ele>
        <time>2024-03-21T13:36:08Z</time>
      </trkpt>
      <trkpt lat="42.83016121" lon="13.51137318">
        <ele>193.00000</ele>
        <time>2024-03-21T13:36:09Z</time>
      </trkpt>
      <trkpt lat="42.83017287" lon="13.51149070">
        <ele>193.00000</ele>
        <time>2024-03-21T13:36:10Z</time>
      </trkpt>
      <trkpt lat="42.83018007" lon="13.51160821">
        <ele>193.00000</ele>
        <time>2024-03-21T13:36:11Z</time>
      </trkpt>
      <trkpt lat="42.83018921" lon="13.51172497">
        <ele>193.00000</ele>
        <time>2024-03-21T13:36:12Z</time>
      </trkpt>
      <trkpt lat="42.83019868" lon="13.51183930">
        <ele>195.00000</ele>
        <time>2024-03-21T13:36:13Z</time>
      </trkpt>
      <trkpt lat="42.83020899" lon="13.51195304">
        <ele>196.00000</ele>
        <time>2024-03-21T13:36:14Z</time>
      </trkpt>
      <trkpt lat="42.83021586" lon="13.51206444">
        <ele>197.00000</ele>
        <time>2024-03-21T13:36:15Z</time>
      </trkpt>
      <trkpt lat="42.83022550" lon="13.51217147">
        <ele>198.00000</ele>
        <time>2024-03-21T13:36:16Z</time>
      </trkpt>
      <trkpt lat="42.83023539" lon="13.51227885">
        <ele>199.00000</ele>
        <time>2024-03-21T13:36:17Z</time>
      </trkpt>
      <trkpt lat="42.83024528" lon="13.51238245">
        <ele>200.00000</ele>
        <time>2024-03-21T13:36:18Z</time>
      </trkpt>
      <trkpt lat="42.83025677" lon="13.51248496">
        <ele>200.00000</ele>
        <time>2024-03-21T13:36:19Z</time>
      </trkpt>
      <trkpt lat="42.83026901" lon="13.51258990">
        <ele>201.00000</ele>
        <time>2024-03-21T13:36:20Z</time>
      </trkpt>
      <trkpt lat="42.83028091" lon="13.51268839">
        <ele>201.00000</ele>
        <time>2024-03-21T13:36:21Z</time>
      </trkpt>
      <trkpt lat="42.83029315" lon="13.51278218">
        <ele>201.00000</ele>
        <time>2024-03-21T13:36:22Z</time>
      </trkpt>
      <trkpt lat="42.83030429" lon="13.51287337">
        <ele>202.00000</ele>
        <time>2024-03-21T13:36:23Z</time>
      </trkpt>
      <trkpt lat="42.83031871" lon="13.51296247">
        <ele>202.00000</ele>
        <time>2024-03-21T13:36:24Z</time>
      </trkpt>
      <trkpt lat="42.83033313" lon="13.51304931">
        <ele>202.00000</ele>
        <time>2024-03-21T13:36:25Z</time>
      </trkpt>
      <trkpt lat="42.83034696" lon="13.51313715">
        <ele>203.00000</ele>
        <time>2024-03-21T13:36:26Z</time>
      </trkpt>
      <trkpt lat="42.83036020" lon="13.51322273">
        <ele>203.00000</ele>
        <time>2024-03-21T13:36:27Z</time>
      </trkpt>
      <trkpt lat="42.83038049" lon="13.51330563">
        <ele>203.00000</ele>
        <time>2024-03-21T13:36:28Z</time>
      </trkpt>
      <trkpt lat="42.83039993" lon="13.51338861">
        <ele>203.00000</ele>
        <time>2024-03-21T13:36:29Z</time>
      </trkpt>
      <trkpt lat="42.83041703" lon="13.51347126">
        <ele>203.00000</ele>
        <time>2024-03-21T13:36:30Z</time>
      </trkpt>
      <trkpt lat="42.83042885" lon="13.51355281">
        <ele>203.00000</ele>
        <time>2024-03-21T13:36:31Z</time>
      </trkpt>
      <trkpt lat="42.83044720" lon="13.51363093">
        <ele>203.00000</ele>
        <time>2024-03-21T13:36:32Z</time>
      </trkpt>
      <trkpt lat="42.83047000" lon="13.51370444">
        <ele>204.00000</ele>
        <time>2024-03-21T13:36:33Z</time>
      </trkpt>
      <trkpt lat="42.83049540" lon="13.51378113">
        <ele>204.00000</ele>
        <time>2024-03-21T13:36:34Z</time>
      </trkpt>
      <trkpt lat="42.83052063" lon="13.51385707">
        <ele>205.00000</ele>
        <time>2024-03-21T13:36:35Z</time>
      </trkpt>
      <trkpt lat="42.83054469" lon="13.51393285">
        <ele>205.00000</ele>
        <time>2024-03-21T13:36:36Z</time>
      </trkpt>
      <trkpt lat="42.83057017" lon="13.51400770">
        <ele>205.00000</ele>
        <time>2024-03-21T13:36:37Z</time>
      </trkpt>
      <trkpt lat="42.83059297" lon="13.51408305">
        <ele>206.00000</ele>
        <time>2024-03-21T13:36:38Z</time>
      </trkpt>
      <trkpt lat="42.83061568" lon="13.51415765">
        <ele>206.00000</ele>
        <time>2024-03-21T13:36:39Z</time>
      </trkpt>
      <trkpt lat="42.83063789" lon="13.51423200">
        <ele>206.00000</ele>
        <time>2024-03-21T13:36:40Z</time>
      </trkpt>
      <trkpt lat="42.83066228" lon="13.51430567">
        <ele>207.00000</ele>
        <time>2024-03-21T13:36:41Z</time>
      </trkpt>
      <trkpt lat="42.83068668" lon="13.51437659">
        <ele>207.00000</ele>
        <time>2024-03-21T13:36:42Z</time>
      </trkpt>
      <trkpt lat="42.83070973" lon="13.51445001">
        <ele>208.00000</ele>
        <time>2024-03-21T13:36:43Z</time>
      </trkpt>
      <trkpt lat="42.83072791" lon="13.51452184">
        <ele>208.00000</ele>
        <time>2024-03-21T13:36:44Z</time>
      </trkpt>
      <trkpt lat="42.83075147" lon="13.51459175">
        <ele>208.00000</ele>
        <time>2024-03-21T13:36:45Z</time>
      </trkpt>
      <trkpt lat="42.83077393" lon="13.51466408">
        <ele>208.00000</ele>
        <time>2024-03-21T13:36:46Z</time>
      </trkpt>
      <trkpt lat="42.83079606" lon="13.51473298">
        <ele>208.00000</ele>
        <time>2024-03-21T13:36:47Z</time>
      </trkpt>
      <trkpt lat="42.83081668" lon="13.51480247">
        <ele>207.00000</ele>
        <time>2024-03-21T13:36:48Z</time>
      </trkpt>
      <trkpt lat="42.83084157" lon="13.51487187">
        <ele>207.00000</ele>
        <time>2024-03-21T13:36:49Z</time>
      </trkpt>
      <trkpt lat="42.83086379" lon="13.51494178">
        <ele>207.00000</ele>
        <time>2024-03-21T13:36:50Z</time>
      </trkpt>
      <trkpt lat="42.83088181" lon="13.51501118">
        <ele>207.00000</ele>
        <time>2024-03-21T13:36:51Z</time>
      </trkpt>
      <trkpt lat="42.83090285" lon="13.51508008">
        <ele>207.00000</ele>
        <time>2024-03-21T13:36:52Z</time>
      </trkpt>
      <trkpt lat="42.83092699" lon="13.51514873">
        <ele>207.00000</ele>
        <time>2024-03-21T13:36:53Z</time>
      </trkpt>
      <trkpt lat="42.83095180" lon="13.51521880">
        <ele>207.00000</ele>
        <time>2024-03-21T13:36:54Z</time>
      </trkpt>
      <trkpt lat="42.83097560" lon="13.51528904">
        <ele>207.00000</ele>
        <time>2024-03-21T13:36:55Z</time>
      </trkpt>
      <trkpt lat="42.83099823" lon="13.51535785">
        <ele>207.00000</ele>
        <time>2024-03-21T13:36:56Z</time>
      </trkpt>
      <trkpt lat="42.83102447" lon="13.51542701">
        <ele>208.00000</ele>
        <time>2024-03-21T13:36:57Z</time>
      </trkpt>
      <trkpt lat="42.83104844" lon="13.51549347">
        <ele>208.00000</ele>
        <time>2024-03-21T13:36:58Z</time>
      </trkpt>
      <trkpt lat="42.83107576" lon="13.51556145">
        <ele>208.00000</ele>
        <time>2024-03-21T13:36:59Z</time>
      </trkpt>
      <trkpt lat="42.83110963" lon="13.51562708">
        <ele>208.00000</ele>
        <time>2024-03-21T13:37:00Z</time>
      </trkpt>
      <trkpt lat="42.83114718" lon="13.51569120">
        <ele>208.00000</ele>
        <time>2024-03-21T13:37:01Z</time>
      </trkpt>
      <trkpt lat="42.83118850" lon="13.51575164">
        <ele>207.00000</ele>
        <time>2024-03-21T13:37:02Z</time>
      </trkpt>
      <trkpt lat="42.83122932" lon="13.51580855">
        <ele>207.00000</ele>
        <time>2024-03-21T13:37:03Z</time>
      </trkpt>
      <trkpt lat="42.83127215" lon="13.51586236">
        <ele>206.00000</ele>
        <time>2024-03-21T13:37:04Z</time>
      </trkpt>
      <trkpt lat="42.83131758" lon="13.51591366">
        <ele>206.00000</ele>
        <time>2024-03-21T13:37:05Z</time>
      </trkpt>
      <trkpt lat="42.83136519" lon="13.51596144">
        <ele>206.00000</ele>
        <time>2024-03-21T13:37:06Z</time>
      </trkpt>
      <trkpt lat="42.83142395" lon="13.51601324">
        <ele>205.00000</ele>
        <time>2024-03-21T13:37:07Z</time>
      </trkpt>
      <trkpt lat="42.83146225" lon="13.51604894">
        <ele>205.00000</ele>
        <time>2024-03-21T13:37:08Z</time>
      </trkpt>
      <trkpt lat="42.83151037" lon="13.51609194">
        <ele>205.00000</ele>
        <time>2024-03-21T13:37:09Z</time>
      </trkpt>
      <trkpt lat="42.83155722" lon="13.51613301">
        <ele>205.00000</ele>
        <time>2024-03-21T13:37:10Z</time>
      </trkpt>
      <trkpt lat="42.83160491" lon="13.51617727">
        <ele>205.00000</ele>
        <time>2024-03-21T13:37:11Z</time>
      </trkpt>
      <trkpt lat="42.83165227" lon="13.51622253">
        <ele>206.00000</ele>
        <time>2024-03-21T13:37:12Z</time>
      </trkpt>
      <trkpt lat="42.83170131" lon="13.51626855">
        <ele>206.00000</ele>
        <time>2024-03-21T13:37:13Z</time>
      </trkpt>
      <trkpt lat="42.83174942" lon="13.51631582">
        <ele>207.00000</ele>
        <time>2024-03-21T13:37:14Z</time>
      </trkpt>
      <trkpt lat="42.83179535" lon="13.51636502">
        <ele>208.00000</ele>
        <time>2024-03-21T13:37:15Z</time>
      </trkpt>
      <trkpt lat="42.83183692" lon="13.51641414">
        <ele>208.00000</ele>
        <time>2024-03-21T13:37:16Z</time>
      </trkpt>
      <trkpt lat="42.83188965" lon="13.51646846">
        <ele>209.00000</ele>
        <time>2024-03-21T13:37:17Z</time>
      </trkpt>
      <trkpt lat="42.83193038" lon="13.51649679">
        <ele>210.00000</ele>
        <time>2024-03-21T13:37:18Z</time>
      </trkpt>
      <trkpt lat="42.83197866" lon="13.51653417">
        <ele>210.00000</ele>
        <time>2024-03-21T13:37:19Z</time>
      </trkpt>
      <trkpt lat="42.83202409" lon="13.51657558">
        <ele>211.00000</ele>
        <time>2024-03-21T13:37:20Z</time>
      </trkpt>
      <trkpt lat="42.83207489" lon="13.51661648">
        <ele>212.00000</ele>
        <time>2024-03-21T13:37:21Z</time>
      </trkpt>
      <trkpt lat="42.83212744" lon="13.51665110">
        <ele>212.00000</ele>
        <time>2024-03-21T13:37:22Z</time>
      </trkpt>
      <trkpt lat="42.83217522" lon="13.51669158">
        <ele>213.00000</ele>
        <time>2024-03-21T13:37:23Z</time>
      </trkpt>
      <trkpt lat="42.83222308" lon="13.51673433">
        <ele>213.00000</ele>
        <time>2024-03-21T13:37:24Z</time>
      </trkpt>
      <trkpt lat="42.83227195" lon="13.51677767">
        <ele>213.00000</ele>
        <time>2024-03-21T13:37:25Z</time>
      </trkpt>
      <trkpt lat="42.83231771" lon="13.51682033">
        <ele>213.00000</ele>
        <time>2024-03-21T13:37:26Z</time>
      </trkpt>
      <trkpt lat="42.83236473" lon="13.51686643">
        <ele>214.00000</ele>
        <time>2024-03-21T13:37:27Z</time>
      </trkpt>
      <trkpt lat="42.83241787" lon="13.51691639">
        <ele>215.00000</ele>
        <time>2024-03-21T13:37:28Z</time>
      </trkpt>
      <trkpt lat="42.83247135" lon="13.51695997">
        <ele>215.00000</ele>
        <time>2024-03-21T13:37:29Z</time>
      </trkpt>
      <trkpt lat="42.83252399" lon="13.51700322">
        <ele>215.00000</ele>
        <time>2024-03-21T13:37:30Z</time>
      </trkpt>
      <trkpt lat="42.83257763" lon="13.51703985">
        <ele>215.00000</ele>
        <time>2024-03-21T13:37:31Z</time>
      </trkpt>
      <trkpt lat="42.83263052" lon="13.51708159">
        <ele>215.00000</ele>
        <time>2024-03-21T13:37:32Z</time>
      </trkpt>
      <trkpt lat="42.83268358" lon="13.51712166">
        <ele>215.00000</ele>
        <time>2024-03-21T13:37:33Z</time>
      </trkpt>
      <trkpt lat="42.83273823" lon="13.51716432">
        <ele>216.00000</ele>
        <time>2024-03-21T13:37:34Z</time>
      </trkpt>
      <trkpt lat="42.83279238" lon="13.51720598">
        <ele>216.00000</ele>
        <time>2024-03-21T13:37:35Z</time>
      </trkpt>
      <trkpt lat="42.83284611" lon="13.51724781">
        <ele>217.00000</ele>
        <time>2024-03-21T13:37:36Z</time>
      </trkpt>
      <trkpt lat="42.83290101" lon="13.51728460">
        <ele>217.00000</ele>
        <time>2024-03-21T13:37:37Z</time>
      </trkpt>
      <trkpt lat="42.83295742" lon="13.51731847">
        <ele>217.00000</ele>
        <time>2024-03-21T13:37:38Z</time>
      </trkpt>
      <trkpt lat="42.83301249" lon="13.51734981">
        <ele>217.00000</ele>
        <time>2024-03-21T13:37:39Z</time>
      </trkpt>
      <trkpt lat="42.83307150" lon="13.51737747">
        <ele>216.00000</ele>
        <time>2024-03-21T13:37:40Z</time>
      </trkpt>
      <trkpt lat="42.83312891" lon="13.51741083">
        <ele>216.00000</ele>
        <time>2024-03-21T13:37:41Z</time>
      </trkpt>
      <trkpt lat="42.83318725" lon="13.51745316">
        <ele>216.00000</ele>
        <time>2024-03-21T13:37:42Z</time>
      </trkpt>
      <trkpt lat="42.83324718" lon="13.51748912">
        <ele>216.00000</ele>
        <time>2024-03-21T13:37:43Z</time>
      </trkpt>
      <trkpt lat="42.83330468" lon="13.51752307">
        <ele>215.00000</ele>
        <time>2024-03-21T13:37:44Z</time>
      </trkpt>
      <trkpt lat="42.83336184" lon="13.51755207">
        <ele>215.00000</ele>
        <time>2024-03-21T13:37:45Z</time>
      </trkpt>
      <trkpt lat="42.83342001" lon="13.51758057">
        <ele>215.00000</ele>
        <time>2024-03-21T13:37:46Z</time>
      </trkpt>
      <trkpt lat="42.83347693" lon="13.51761032">
        <ele>215.00000</ele>
        <time>2024-03-21T13:37:47Z</time>
      </trkpt>
      <trkpt lat="42.83353401" lon="13.51764033">
        <ele>215.00000</ele>
        <time>2024-03-21T13:37:48Z</time>
      </trkpt>
      <trkpt lat="42.83359335" lon="13.51767201">
        <ele>214.00000</ele>
        <time>2024-03-21T13:37:49Z</time>
      </trkpt>
      <trkpt lat="42.83365094" lon="13.51770638">
        <ele>215.00000</ele>
        <time>2024-03-21T13:37:50Z</time>
      </trkpt>
      <trkpt lat="42.83370986" lon="13.51773362">
        <ele>215.00000</ele>
        <time>2024-03-21T13:37:51Z</time>
      </trkpt>
      <trkpt lat="42.83376610" lon="13.51775826">
        <ele>215.00000</ele>
        <time>2024-03-21T13:37:52Z</time>
      </trkpt>
      <trkpt lat="42.83382151" lon="13.51778919">
        <ele>216.00000</ele>
        <time>2024-03-21T13:37:53Z</time>
      </trkpt>
      <trkpt lat="42.83387591" lon="13.51782230">
        <ele>216.00000</ele>
        <time>2024-03-21T13:37:54Z</time>
      </trkpt>
      <trkpt lat="42.83392804" lon="13.51785256">
        <ele>217.00000</ele>
        <time>2024-03-21T13:37:55Z</time>
      </trkpt>
      <trkpt lat="42.83398068" lon="13.51788617">
        <ele>217.00000</ele>
        <time>2024-03-21T13:37:56Z</time>
      </trkpt>
      <trkpt lat="42.83403558" lon="13.51792205">
        <ele>218.00000</ele>
        <time>2024-03-21T13:37:57Z</time>
      </trkpt>
      <trkpt lat="42.83409325" lon="13.51795298">
        <ele>219.00000</ele>
        <time>2024-03-21T13:37:58Z</time>
      </trkpt>
      <trkpt lat="42.83414966" lon="13.51797846">
        <ele>219.00000</ele>
        <time>2024-03-21T13:37:59Z</time>
      </trkpt>
      <trkpt lat="42.83419383" lon="13.51800754">
        <ele>219.00000</ele>
        <time>2024-03-21T13:38:00Z</time>
      </trkpt>
      <trkpt lat="42.83423515" lon="13.51804132">
        <ele>219.00000</ele>
        <time>2024-03-21T13:38:01Z</time>
      </trkpt>
      <trkpt lat="42.83427539" lon="13.51808918">
        <ele>220.00000</ele>
        <time>2024-03-21T13:38:02Z</time>
      </trkpt>
      <trkpt lat="42.83431244" lon="13.51813050">
        <ele>220.00000</ele>
        <time>2024-03-21T13:38:03Z</time>
      </trkpt>
      <trkpt lat="42.83435569" lon="13.51817166">
        <ele>220.00000</ele>
        <time>2024-03-21T13:38:04Z</time>
      </trkpt>
      <trkpt lat="42.83440573" lon="13.51821927">
        <ele>220.00000</ele>
        <time>2024-03-21T13:38:05Z</time>
      </trkpt>
      <trkpt lat="42.83445845" lon="13.51826545">
        <ele>220.00000</ele>
        <time>2024-03-21T13:38:06Z</time>
      </trkpt>
      <trkpt lat="42.83451377" lon="13.51831658">
        <ele>220.00000</ele>
        <time>2024-03-21T13:38:07Z</time>
      </trkpt>
      <trkpt lat="42.83456875" lon="13.51837467">
        <ele>220.00000</ele>
        <time>2024-03-21T13:38:08Z</time>
      </trkpt>
      <trkpt lat="42.83462332" lon="13.51843493">
        <ele>220.00000</ele>
        <time>2024-03-21T13:38:09Z</time>
      </trkpt>
      <trkpt lat="42.83467655" lon="13.51849922">
        <ele>220.00000</ele>
        <time>2024-03-21T13:38:10Z</time>
      </trkpt>
      <trkpt lat="42.83472348" lon="13.51857248">
        <ele>220.00000</ele>
        <time>2024-03-21T13:38:11Z</time>
      </trkpt>
      <trkpt lat="42.83476958" lon="13.51864792">
        <ele>220.00000</ele>
        <time>2024-03-21T13:38:12Z</time>
      </trkpt>
      <trkpt lat="42.83482130" lon="13.51872470">
        <ele>221.00000</ele>
        <time>2024-03-21T13:38:13Z</time>
      </trkpt>
      <trkpt lat="42.83487126" lon="13.51880365">
        <ele>221.00000</ele>
        <time>2024-03-21T13:38:14Z</time>
      </trkpt>
      <trkpt lat="42.83491308" lon="13.51887834">
        <ele>222.00000</ele>
        <time>2024-03-21T13:38:15Z</time>
      </trkpt>
      <trkpt lat="42.83495189" lon="13.51894003">
        <ele>222.00000</ele>
        <time>2024-03-21T13:38:16Z</time>
      </trkpt>
      <trkpt lat="42.83499858" lon="13.51900273">
        <ele>223.00000</ele>
        <time>2024-03-21T13:38:17Z</time>
      </trkpt>
      <trkpt lat="42.83504359" lon="13.51906165">
        <ele>223.00000</ele>
        <time>2024-03-21T13:38:18Z</time>
      </trkpt>
      <trkpt lat="42.83508843" lon="13.51912225">
        <ele>224.00000</ele>
        <time>2024-03-21T13:38:19Z</time>
      </trkpt>
      <trkpt lat="42.83513311" lon="13.51917531">
        <ele>224.00000</ele>
        <time>2024-03-21T13:38:20Z</time>
      </trkpt>
      <trkpt lat="42.83518088" lon="13.51922485">
        <ele>224.00000</ele>
        <time>2024-03-21T13:38:21Z</time>
      </trkpt>
      <trkpt lat="42.83522900" lon="13.51926675">
        <ele>225.00000</ele>
        <time>2024-03-21T13:38:22Z</time>
      </trkpt>
      <trkpt lat="42.83527661" lon="13.51930749">
        <ele>225.00000</ele>
        <time>2024-03-21T13:38:23Z</time>
      </trkpt>
      <trkpt lat="42.83533419" lon="13.51935678">
        <ele>225.00000</ele>
        <time>2024-03-21T13:38:24Z</time>
      </trkpt>
      <trkpt lat="42.83538255" lon="13.51939735">
        <ele>225.00000</ele>
        <time>2024-03-21T13:38:25Z</time>
      </trkpt>
      <trkpt lat="42.83682625" lon="13.51988065">
        <ele>218.00000</ele>
        <time>2024-03-21T13:38:44Z</time>
      </trkpt>
      <trkpt lat="42.83687436" lon="13.51991484">
        <ele>218.00000</ele>
        <time>2024-03-21T13:38:45Z</time>
      </trkpt>
      <trkpt lat="42.83696807" lon="13.51999741">
        <ele>219.00000</ele>
        <time>2024-03-21T13:38:46Z</time>
      </trkpt>
      <trkpt lat="42.83703379" lon="13.52005247">
        <ele>218.00000</ele>
        <time>2024-03-21T13:38:47Z</time>
      </trkpt>
      <trkpt lat="42.83709288" lon="13.52018114">
        <ele>220.00000</ele>
        <time>2024-03-21T13:38:48Z</time>
      </trkpt>
      <trkpt lat="42.83715935" lon="13.52028281">
        <ele>220.00000</ele>
        <time>2024-03-21T13:38:49Z</time>
      </trkpt>
      <trkpt lat="42.83722850" lon="13.52035565">
        <ele>221.00000</ele>
        <time>2024-03-21T13:38:50Z</time>
      </trkpt>
      <trkpt lat="42.83729924" lon="13.52041868">
        <ele>221.00000</ele>
        <time>2024-03-21T13:38:51Z</time>
      </trkpt>
      <trkpt lat="42.83739547" lon="13.52047962">
        <ele>220.00000</ele>
        <time>2024-03-21T13:38:52Z</time>
      </trkpt>
      <trkpt lat="42.83748641" lon="13.52053536">
        <ele>220.00000</ele>
        <time>2024-03-21T13:38:53Z</time>
      </trkpt>
      <trkpt lat="42.83760778" lon="13.52058707">
        <ele>219.00000</ele>
        <time>2024-03-21T13:38:54Z</time>
      </trkpt>
      <trkpt lat="42.83771415" lon="13.52063116">
        <ele>218.00000</ele>
        <time>2024-03-21T13:38:55Z</time>
      </trkpt>
      <trkpt lat="42.83781398" lon="13.52068690">
        <ele>216.00000</ele>
        <time>2024-03-21T13:38:56Z</time>
      </trkpt>
      <trkpt lat="42.83790836" lon="13.52076376">
        <ele>214.00000</ele>
        <time>2024-03-21T13:38:57Z</time>
      </trkpt>
      <trkpt lat="42.83799159" lon="13.52085680">
        <ele>212.00000</ele>
        <time>2024-03-21T13:38:58Z</time>
      </trkpt>
      <trkpt lat="42.83805395" lon="13.52096979">
        <ele>211.00000</ele>
        <time>2024-03-21T13:38:59Z</time>
      </trkpt>
      <trkpt lat="42.83808848" lon="13.52111438">
        <ele>210.00000</ele>
        <time>2024-03-21T13:39:00Z</time>
      </trkpt>
      <trkpt lat="42.83811723" lon="13.52126743">
        <ele>209.00000</ele>
        <time>2024-03-21T13:39:01Z</time>
      </trkpt>
      <trkpt lat="42.83814565" lon="13.52141386">
        <ele>209.00000</ele>
        <time>2024-03-21T13:39:02Z</time>
      </trkpt>
      <trkpt lat="42.83818211" lon="13.52155652">
        <ele>208.00000</ele>
        <time>2024-03-21T13:39:03Z</time>
      </trkpt>
      <trkpt lat="42.83823098" lon="13.52169516">
        <ele>207.00000</ele>
        <time>2024-03-21T13:39:04Z</time>
      </trkpt>
      <trkpt lat="42.83829065" lon="13.52182977">
        <ele>206.00000</ele>
        <time>2024-03-21T13:39:05Z</time>
      </trkpt>
      <trkpt lat="42.83836131" lon="13.52194913">
        <ele>206.00000</ele>
        <time>2024-03-21T13:39:06Z</time>
      </trkpt>
      <trkpt lat="42.83843943" lon="13.52205927">
        <ele>206.00000</ele>
        <time>2024-03-21T13:39:07Z</time>
      </trkpt>
      <trkpt lat="42.83851655" lon="13.52216941">
        <ele>206.00000</ele>
        <time>2024-03-21T13:39:08Z</time>
      </trkpt>
      <trkpt lat="42.83859584" lon="13.52227703">
        <ele>206.00000</ele>
        <time>2024-03-21T13:39:09Z</time>
      </trkpt>
      <trkpt lat="42.83867631" lon="13.52238055">
        <ele>206.00000</ele>
        <time>2024-03-21T13:39:10Z</time>
      </trkpt>
      <trkpt lat="42.83875652" lon="13.52248859">
        <ele>206.00000</ele>
        <time>2024-03-21T13:39:11Z</time>
      </trkpt>
      <trkpt lat="42.83883313" lon="13.52260183">
        <ele>207.00000</ele>
        <time>2024-03-21T13:39:12Z</time>
      </trkpt>
      <trkpt lat="42.83891268" lon="13.52271247">
        <ele>208.00000</ele>
        <time>2024-03-21T13:39:13Z</time>
      </trkpt>
      <trkpt lat="42.83899457" lon="13.52282001">
        <ele>208.00000</ele>
        <time>2024-03-21T13:39:14Z</time>
      </trkpt>
      <trkpt lat="42.83908057" lon="13.52292093">
        <ele>207.00000</ele>
        <time>2024-03-21T13:39:15Z</time>
      </trkpt>
      <trkpt lat="42.83917293" lon="13.52300793">
        <ele>207.00000</ele>
        <time>2024-03-21T13:39:16Z</time>
      </trkpt>
      <trkpt lat="42.83927435" lon="13.52307214">
        <ele>206.00000</ele>
        <time>2024-03-21T13:39:17Z</time>
      </trkpt>
      <trkpt lat="42.83938818" lon="13.52311028">
        <ele>205.00000</ele>
        <time>2024-03-21T13:39:18Z</time>
      </trkpt>
      <trkpt lat="42.83950326" lon="13.52312553">
        <ele>204.00000</ele>
        <time>2024-03-21T13:39:19Z</time>
      </trkpt>
      <trkpt lat="42.83961919" lon="13.52312562">
        <ele>202.00000</ele>
        <time>2024-03-21T13:39:20Z</time>
      </trkpt>
      <trkpt lat="42.83973603" lon="13.52312268">
        <ele>201.00000</ele>
        <time>2024-03-21T13:39:21Z</time>
      </trkpt>
      <trkpt lat="42.83985187" lon="13.52311606">
        <ele>199.00000</ele>
        <time>2024-03-21T13:39:22Z</time>
      </trkpt>
      <trkpt lat="42.83996435" lon="13.52311933">
        <ele>197.00000</ele>
        <time>2024-03-21T13:39:23Z</time>
      </trkpt>
      <trkpt lat="42.84007491" lon="13.52312369">
        <ele>197.00000</ele>
        <time>2024-03-21T13:39:24Z</time>
      </trkpt>
      <trkpt lat="42.84018379" lon="13.52312587">
        <ele>197.00000</ele>
        <time>2024-03-21T13:39:25Z</time>
      </trkpt>
      <trkpt lat="42.84029326" lon="13.52312763">
        <ele>198.00000</ele>
        <time>2024-03-21T13:39:26Z</time>
      </trkpt>
      <trkpt lat="42.84040239" lon="13.52312662">
        <ele>199.00000</ele>
        <time>2024-03-21T13:39:27Z</time>
      </trkpt>
      <trkpt lat="42.84050390" lon="13.52312369">
        <ele>200.00000</ele>
        <time>2024-03-21T13:39:28Z</time>
      </trkpt>
      <trkpt lat="42.84060398" lon="13.52312293">
        <ele>201.00000</ele>
        <time>2024-03-21T13:39:29Z</time>
      </trkpt>
      <trkpt lat="42.84070213" lon="13.52312805">
        <ele>201.00000</ele>
        <time>2024-03-21T13:39:30Z</time>
      </trkpt>
      <trkpt lat="42.84079919" lon="13.52314012">
        <ele>202.00000</ele>
        <time>2024-03-21T13:39:31Z</time>
      </trkpt>
      <trkpt lat="42.84089257" lon="13.52314942">
        <ele>202.00000</ele>
        <time>2024-03-21T13:39:32Z</time>
      </trkpt>
      <trkpt lat="42.84097990" lon="13.52316342">
        <ele>201.00000</ele>
        <time>2024-03-21T13:39:33Z</time>
      </trkpt>
      <trkpt lat="42.84106456" lon="13.52318873">
        <ele>201.00000</ele>
        <time>2024-03-21T13:39:34Z</time>
      </trkpt>
      <trkpt lat="42.84114897" lon="13.52321530">
        <ele>201.00000</ele>
        <time>2024-03-21T13:39:35Z</time>
      </trkpt>
      <trkpt lat="42.84123430" lon="13.52326115">
        <ele>200.00000</ele>
        <time>2024-03-21T13:39:36Z</time>
      </trkpt>
      <trkpt lat="42.84131032" lon="13.52332636">
        <ele>200.00000</ele>
        <time>2024-03-21T13:39:37Z</time>
      </trkpt>
      <trkpt lat="42.84137989" lon="13.52340373">
        <ele>199.00000</ele>
        <time>2024-03-21T13:39:38Z</time>
      </trkpt>
      <trkpt lat="42.84144259" lon="13.52349090">
        <ele>198.00000</ele>
        <time>2024-03-21T13:39:39Z</time>
      </trkpt>
      <trkpt lat="42.84150436" lon="13.52358486">
        <ele>197.00000</ele>
        <time>2024-03-21T13:39:40Z</time>
      </trkpt>
      <trkpt lat="42.84156815" lon="13.52368528">
        <ele>196.00000</ele>
        <time>2024-03-21T13:39:41Z</time>
      </trkpt>
      <trkpt lat="42.84161198" lon="13.52379390">
        <ele>196.00000</ele>
        <time>2024-03-21T13:39:42Z</time>
      </trkpt>
      <trkpt lat="42.84165113" lon="13.52390807">
        <ele>196.00000</ele>
        <time>2024-03-21T13:39:43Z</time>
      </trkpt>
      <trkpt lat="42.84169019" lon="13.52402323">
        <ele>197.00000</ele>
        <time>2024-03-21T13:39:44Z</time>
      </trkpt>
      <trkpt lat="42.84173729" lon="13.52413840">
        <ele>198.00000</ele>
        <time>2024-03-21T13:39:45Z</time>
      </trkpt>
      <trkpt lat="42.84178658" lon="13.52425105">
        <ele>199.00000</ele>
        <time>2024-03-21T13:39:46Z</time>
      </trkpt>
      <trkpt lat="42.84184115" lon="13.52436010">
        <ele>199.00000</ele>
        <time>2024-03-21T13:39:47Z</time>
      </trkpt>
      <trkpt lat="42.84190644" lon="13.52445951">
        <ele>200.00000</ele>
        <time>2024-03-21T13:39:48Z</time>
      </trkpt>
      <trkpt lat="42.84198389" lon="13.52454761">
        <ele>201.00000</ele>
        <time>2024-03-21T13:39:49Z</time>
      </trkpt>
      <trkpt lat="42.84206880" lon="13.52461994">
        <ele>200.00000</ele>
        <time>2024-03-21T13:39:50Z</time>
      </trkpt>
      <trkpt lat="42.84215949" lon="13.52467669">
        <ele>199.00000</ele>
        <time>2024-03-21T13:39:51Z</time>
      </trkpt>
      <trkpt lat="42.84225437" lon="13.52472262">
        <ele>197.00000</ele>
        <time>2024-03-21T13:39:52Z</time>
      </trkpt>
      <trkpt lat="42.84235068" lon="13.52476847">
        <ele>195.00000</ele>
        <time>2024-03-21T13:39:53Z</time>
      </trkpt>
      <trkpt lat="42.84244758" lon="13.52481440">
        <ele>193.00000</ele>
        <time>2024-03-21T13:39:54Z</time>
      </trkpt>
      <trkpt lat="42.84254455" lon="13.52485966">
        <ele>192.00000</ele>
        <time>2024-03-21T13:39:55Z</time>
      </trkpt>
      <trkpt lat="42.84264002" lon="13.52490736">
        <ele>193.00000</ele>
        <time>2024-03-21T13:39:56Z</time>
      </trkpt>
      <trkpt lat="42.84273290" lon="13.52496561">
        <ele>194.00000</ele>
        <time>2024-03-21T13:39:57Z</time>
      </trkpt>
      <trkpt lat="42.84282141" lon="13.52503443">
        <ele>195.00000</ele>
        <time>2024-03-21T13:39:58Z</time>
      </trkpt>
      <trkpt lat="42.84290749" lon="13.52511129">
        <ele>197.00000</ele>
        <time>2024-03-21T13:39:59Z</time>
      </trkpt>
      <trkpt lat="42.84298955" lon="13.52519636">
        <ele>198.00000</ele>
        <time>2024-03-21T13:40:00Z</time>
      </trkpt>
      <trkpt lat="42.84307052" lon="13.52528337">
        <ele>199.00000</ele>
        <time>2024-03-21T13:40:01Z</time>
      </trkpt>
      <trkpt lat="42.84314881" lon="13.52536727">
        <ele>197.00000</ele>
        <time>2024-03-21T13:40:02Z</time>
      </trkpt>
      <trkpt lat="42.84322810" lon="13.52545109">
        <ele>195.00000</ele>
        <time>2024-03-21T13:40:03Z</time>
      </trkpt>
      <trkpt lat="42.84330865" lon="13.52553231">
        <ele>193.00000</ele>
        <time>2024-03-21T13:40:04Z</time>
      </trkpt>
      <trkpt lat="42.84338828" lon="13.52561487">
        <ele>191.00000</ele>
        <time>2024-03-21T13:40:05Z</time>
      </trkpt>
      <trkpt lat="42.84346656" lon="13.52569718">
        <ele>191.00000</ele>
        <time>2024-03-21T13:40:06Z</time>
      </trkpt>
      <trkpt lat="42.84354611" lon="13.52577606">
        <ele>190.00000</ele>
        <time>2024-03-21T13:40:07Z</time>
      </trkpt>
      <trkpt lat="42.84362758" lon="13.52585183">
        <ele>189.00000</ele>
        <time>2024-03-21T13:40:08Z</time>
      </trkpt>
      <trkpt lat="42.84370930" lon="13.52592148">
        <ele>190.00000</ele>
        <time>2024-03-21T13:40:09Z</time>
      </trkpt>
      <trkpt lat="42.84379061" lon="13.52598971">
        <ele>191.00000</ele>
        <time>2024-03-21T13:40:10Z</time>
      </trkpt>
      <trkpt lat="42.84387384" lon="13.52605417">
        <ele>192.00000</ele>
        <time>2024-03-21T13:40:11Z</time>
      </trkpt>
      <trkpt lat="42.84395263" lon="13.52611829">
        <ele>192.00000</ele>
        <time>2024-03-21T13:40:12Z</time>
      </trkpt>
      <trkpt lat="42.84402664" lon="13.52618174">
        <ele>193.00000</ele>
        <time>2024-03-21T13:40:13Z</time>
      </trkpt>
      <trkpt lat="42.84410216" lon="13.52624259">
        <ele>194.00000</ele>
        <time>2024-03-21T13:40:14Z</time>
      </trkpt>
      <trkpt lat="42.84417483" lon="13.52630378">
        <ele>194.00000</ele>
        <time>2024-03-21T13:40:15Z</time>
      </trkpt>
      <trkpt lat="42.84424717" lon="13.52636413">
        <ele>193.00000</ele>
        <time>2024-03-21T13:40:16Z</time>
      </trkpt>
      <trkpt lat="42.84432185" lon="13.52641912">
        <ele>192.00000</ele>
        <time>2024-03-21T13:40:17Z</time>
      </trkpt>
      <trkpt lat="42.84439788" lon="13.52647192">
        <ele>192.00000</ele>
        <time>2024-03-21T13:40:18Z</time>
      </trkpt>
      <trkpt lat="42.84447130" lon="13.52652892">
        <ele>191.00000</ele>
        <time>2024-03-21T13:40:19Z</time>
      </trkpt>
      <trkpt lat="42.84454531" lon="13.52658600">
        <ele>191.00000</ele>
        <time>2024-03-21T13:40:20Z</time>
      </trkpt>
      <trkpt lat="42.84461966" lon="13.52664291">
        <ele>191.00000</ele>
        <time>2024-03-21T13:40:21Z</time>
      </trkpt>
      <trkpt lat="42.84469225" lon="13.52669714">
        <ele>191.00000</ele>
        <time>2024-03-21T13:40:22Z</time>
      </trkpt>
      <trkpt lat="42.84476400" lon="13.52675347">
        <ele>191.00000</ele>
        <time>2024-03-21T13:40:23Z</time>
      </trkpt>
      <trkpt lat="42.84483851" lon="13.52681315">
        <ele>191.00000</ele>
        <time>2024-03-21T13:40:24Z</time>
      </trkpt>
      <trkpt lat="42.84491529" lon="13.52687451">
        <ele>191.00000</ele>
        <time>2024-03-21T13:40:25Z</time>
      </trkpt>
      <trkpt lat="42.84499215" lon="13.52693796">
        <ele>190.00000</ele>
        <time>2024-03-21T13:40:26Z</time>
      </trkpt>
      <trkpt lat="42.84507170" lon="13.52699805">
        <ele>190.00000</ele>
        <time>2024-03-21T13:40:27Z</time>
      </trkpt>
      <trkpt lat="42.84515242" lon="13.52705438">
        <ele>189.00000</ele>
        <time>2024-03-21T13:40:28Z</time>
      </trkpt>
      <trkpt lat="42.84523473" lon="13.52711146">
        <ele>189.00000</ele>
        <time>2024-03-21T13:40:29Z</time>
      </trkpt>
      <trkpt lat="42.84531586" lon="13.52717542">
        <ele>189.00000</ele>
        <time>2024-03-21T13:40:30Z</time>
      </trkpt>
      <trkpt lat="42.84538988" lon="13.52725328">
        <ele>189.00000</ele>
        <time>2024-03-21T13:40:31Z</time>
      </trkpt>
      <trkpt lat="42.84544536" lon="13.52732419">
        <ele>189.00000</ele>
        <time>2024-03-21T13:40:32Z</time>
      </trkpt>
      <trkpt lat="42.84552357" lon="13.52744146">
        <ele>188.00000</ele>
        <time>2024-03-21T13:40:33Z</time>
      </trkpt>
      <trkpt lat="42.84558031" lon="13.52755042">
        <ele>188.00000</ele>
        <time>2024-03-21T13:40:34Z</time>
      </trkpt>
      <trkpt lat="42.84562792" lon="13.52766442">
        <ele>188.00000</ele>
        <time>2024-03-21T13:40:35Z</time>
      </trkpt>
      <trkpt lat="42.84566329" lon="13.52775637">
        <ele>188.00000</ele>
        <time>2024-03-21T13:40:36Z</time>
      </trkpt>
      <trkpt lat="42.84572138" lon="13.52788712">
        <ele>187.00000</ele>
        <time>2024-03-21T13:40:37Z</time>
      </trkpt>
      <trkpt lat="42.84577662" lon="13.52798578">
        <ele>186.00000</ele>
        <time>2024-03-21T13:40:38Z</time>
      </trkpt>
      <trkpt lat="42.84584325" lon="13.52807379">
        <ele>185.00000</ele>
        <time>2024-03-21T13:40:39Z</time>
      </trkpt>
      <trkpt lat="42.84591827" lon="13.52815266">
        <ele>186.00000</ele>
        <time>2024-03-21T13:40:40Z</time>
      </trkpt>
      <trkpt lat="42.84599631" lon="13.52822215">
        <ele>187.00000</ele>
        <time>2024-03-21T13:40:41Z</time>
      </trkpt>
      <trkpt lat="42.84607686" lon="13.52828602">
        <ele>186.00000</ele>
        <time>2024-03-21T13:40:42Z</time>
      </trkpt>
      <trkpt lat="42.84615472" lon="13.52835198">
        <ele>185.00000</ele>
        <time>2024-03-21T13:40:43Z</time>
      </trkpt>
      <trkpt lat="42.84623226" lon="13.52841426">
        <ele>185.00000</ele>
        <time>2024-03-21T13:40:44Z</time>
      </trkpt>
      <trkpt lat="42.84630811" lon="13.52847436">
        <ele>185.00000</ele>
        <time>2024-03-21T13:40:45Z</time>
      </trkpt>
      <trkpt lat="42.84638414" lon="13.52853236">
        <ele>184.00000</ele>
        <time>2024-03-21T13:40:46Z</time>
      </trkpt>
      <trkpt lat="42.84646058" lon="13.52859036">
        <ele>184.00000</ele>
        <time>2024-03-21T13:40:47Z</time>
      </trkpt>
      <trkpt lat="42.84652227" lon="13.52863412">
        <ele>184.00000</ele>
        <time>2024-03-21T13:40:48Z</time>
      </trkpt>
      <trkpt lat="42.84661531" lon="13.52871484">
        <ele>184.00000</ele>
        <time>2024-03-21T13:40:49Z</time>
      </trkpt>
      <trkpt lat="42.84669050" lon="13.52877745">
        <ele>184.00000</ele>
        <time>2024-03-21T13:40:50Z</time>
      </trkpt>
      <trkpt lat="42.84675110" lon="13.52882799">
        <ele>184.00000</ele>
        <time>2024-03-21T13:40:51Z</time>
      </trkpt>
      <trkpt lat="42.84682863" lon="13.52889153">
        <ele>184.00000</ele>
        <time>2024-03-21T13:40:52Z</time>
      </trkpt>
      <trkpt lat="42.84690591" lon="13.52896068">
        <ele>185.00000</ele>
        <time>2024-03-21T13:40:53Z</time>
      </trkpt>
      <trkpt lat="42.84700037" lon="13.52903670">
        <ele>186.00000</ele>
        <time>2024-03-21T13:40:54Z</time>
      </trkpt>
      <trkpt lat="42.84707740" lon="13.52909931">
        <ele>186.00000</ele>
        <time>2024-03-21T13:40:55Z</time>
      </trkpt>
      <trkpt lat="42.84715007" lon="13.52916285">
        <ele>186.00000</ele>
        <time>2024-03-21T13:40:56Z</time>
      </trkpt>
      <trkpt lat="42.84720665" lon="13.52921239">
        <ele>187.00000</ele>
        <time>2024-03-21T13:40:57Z</time>
      </trkpt>
      <trkpt lat="42.84729600" lon="13.52928464">
        <ele>187.00000</ele>
        <time>2024-03-21T13:40:58Z</time>
      </trkpt>
      <trkpt lat="42.84736976" lon="13.52934390">
        <ele>186.00000</ele>
        <time>2024-03-21T13:40:59Z</time>
      </trkpt>
      <trkpt lat="42.84744084" lon="13.52940299">
        <ele>187.00000</ele>
        <time>2024-03-21T13:41:00Z</time>
      </trkpt>
      <trkpt lat="42.84751075" lon="13.52945907">
        <ele>187.00000</ele>
        <time>2024-03-21T13:41:01Z</time>
      </trkpt>
      <trkpt lat="42.84758149" lon="13.52951120">
        <ele>188.00000</ele>
        <time>2024-03-21T13:41:02Z</time>
      </trkpt>
      <trkpt lat="42.84765291" lon="13.52956174">
        <ele>189.00000</ele>
        <time>2024-03-21T13:41:03Z</time>
      </trkpt>
      <trkpt lat="42.84772457" lon="13.52960793">
        <ele>190.00000</ele>
        <time>2024-03-21T13:41:04Z</time>
      </trkpt>
      <trkpt lat="42.84779406" lon="13.52965696">
        <ele>190.00000</ele>
        <time>2024-03-21T13:41:05Z</time>
      </trkpt>
      <trkpt lat="42.84786036" lon="13.52969870">
        <ele>190.00000</ele>
        <time>2024-03-21T13:41:06Z</time>
      </trkpt>
      <trkpt lat="42.84792456" lon="13.52974430">
        <ele>190.00000</ele>
        <time>2024-03-21T13:41:07Z</time>
      </trkpt>
      <trkpt lat="42.84798986" lon="13.52978018">
        <ele>189.00000</ele>
        <time>2024-03-21T13:41:08Z</time>
      </trkpt>
      <trkpt lat="42.84805381" lon="13.52981689">
        <ele>189.00000</ele>
        <time>2024-03-21T13:41:09Z</time>
      </trkpt>
      <trkpt lat="42.84811802" lon="13.52985293">
        <ele>189.00000</ele>
        <time>2024-03-21T13:41:10Z</time>
      </trkpt>
      <trkpt lat="42.84818004" lon="13.52988864">
        <ele>190.00000</ele>
        <time>2024-03-21T13:41:11Z</time>
      </trkpt>
      <trkpt lat="42.84823947" lon="13.52992577">
        <ele>190.00000</ele>
        <time>2024-03-21T13:41:12Z</time>
      </trkpt>
      <trkpt lat="42.84829798" lon="13.52995703">
        <ele>190.00000</ele>
        <time>2024-03-21T13:41:13Z</time>
      </trkpt>
      <trkpt lat="42.84835665" lon="13.52998176">
        <ele>191.00000</ele>
        <time>2024-03-21T13:41:14Z</time>
      </trkpt>
      <trkpt lat="42.84841666" lon="13.53000883">
        <ele>192.00000</ele>
        <time>2024-03-21T13:41:15Z</time>
      </trkpt>
      <trkpt lat="42.84847693" lon="13.53003817">
        <ele>192.00000</ele>
        <time>2024-03-21T13:41:16Z</time>
      </trkpt>
      <trkpt lat="42.84853820" lon="13.53006198">
        <ele>193.00000</ele>
        <time>2024-03-21T13:41:17Z</time>
      </trkpt>
      <trkpt lat="42.84860123" lon="13.53008804">
        <ele>193.00000</ele>
        <time>2024-03-21T13:41:18Z</time>
      </trkpt>
      <trkpt lat="42.84866385" lon="13.53011000">
        <ele>194.00000</ele>
        <time>2024-03-21T13:41:19Z</time>
      </trkpt>
      <trkpt lat="42.84872713" lon="13.53013532">
        <ele>194.00000</ele>
        <time>2024-03-21T13:41:20Z</time>
      </trkpt>
      <trkpt lat="42.84879117" lon="13.53015996">
        <ele>194.00000</ele>
        <time>2024-03-21T13:41:21Z</time>
      </trkpt>
      <trkpt lat="42.84885428" lon="13.53018494">
        <ele>194.00000</ele>
        <time>2024-03-21T13:41:22Z</time>
      </trkpt>
      <trkpt lat="42.84891463" lon="13.53021059">
        <ele>194.00000</ele>
        <time>2024-03-21T13:41:23Z</time>
      </trkpt>
      <trkpt lat="42.84896844" lon="13.53024135">
        <ele>194.00000</ele>
        <time>2024-03-21T13:41:24Z</time>
      </trkpt>
      <trkpt lat="42.84902343" lon="13.53027756">
        <ele>194.00000</ele>
        <time>2024-03-21T13:41:25Z</time>
      </trkpt>
      <trkpt lat="42.84907640" lon="13.53031989">
        <ele>194.00000</ele>
        <time>2024-03-21T13:41:26Z</time>
      </trkpt>
      <trkpt lat="42.84912678" lon="13.53036959">
        <ele>194.00000</ele>
        <time>2024-03-21T13:41:27Z</time>
      </trkpt>
      <trkpt lat="42.84917363" lon="13.53042441">
        <ele>193.00000</ele>
        <time>2024-03-21T13:41:28Z</time>
      </trkpt>
      <trkpt lat="42.84922191" lon="13.53048333">
        <ele>193.00000</ele>
        <time>2024-03-21T13:41:29Z</time>
      </trkpt>
      <trkpt lat="42.84926868" lon="13.53054184">
        <ele>193.00000</ele>
        <time>2024-03-21T13:41:30Z</time>
      </trkpt>
      <trkpt lat="42.84931411" lon="13.53060311">
        <ele>193.00000</ele>
        <time>2024-03-21T13:41:31Z</time>
      </trkpt>
      <trkpt lat="42.84936047" lon="13.53066480">
        <ele>194.00000</ele>
        <time>2024-03-21T13:41:32Z</time>
      </trkpt>
      <trkpt lat="42.84940707" lon="13.53072959">
        <ele>194.00000</ele>
        <time>2024-03-21T13:41:33Z</time>
      </trkpt>
      <trkpt lat="42.84944705" lon="13.53080143">
        <ele>195.00000</ele>
        <time>2024-03-21T13:41:34Z</time>
      </trkpt>
      <trkpt lat="42.84948175" lon="13.53088416">
        <ele>196.00000</ele>
        <time>2024-03-21T13:41:35Z</time>
      </trkpt>
      <trkpt lat="42.84951419" lon="13.53096848">
        <ele>197.00000</ele>
        <time>2024-03-21T13:41:36Z</time>
      </trkpt>
      <trkpt lat="42.84954571" lon="13.53105397">
        <ele>198.00000</ele>
        <time>2024-03-21T13:41:37Z</time>
      </trkpt>
      <trkpt lat="42.84957613" lon="13.53114190">
        <ele>199.00000</ele>
        <time>2024-03-21T13:41:38Z</time>
      </trkpt>
      <trkpt lat="42.84960765" lon="13.53123259">
        <ele>199.00000</ele>
        <time>2024-03-21T13:41:39Z</time>
      </trkpt>
      <trkpt lat="42.84963958" lon="13.53132085">
        <ele>198.00000</ele>
        <time>2024-03-21T13:41:40Z</time>
      </trkpt>
      <trkpt lat="42.84966984" lon="13.53141549">
        <ele>198.00000</ele>
        <time>2024-03-21T13:41:41Z</time>
      </trkpt>
      <trkpt lat="42.84969449" lon="13.53150743">
        <ele>198.00000</ele>
        <time>2024-03-21T13:41:42Z</time>
      </trkpt>
      <trkpt lat="42.84972181" lon="13.53160240">
        <ele>198.00000</ele>
        <time>2024-03-21T13:41:43Z</time>
      </trkpt>
      <trkpt lat="42.84974151" lon="13.53168396">
        <ele>198.00000</ele>
        <time>2024-03-21T13:41:44Z</time>
      </trkpt>
      <trkpt lat="42.84977135" lon="13.53180675">
        <ele>196.00000</ele>
        <time>2024-03-21T13:41:45Z</time>
      </trkpt>
      <trkpt lat="42.84979767" lon="13.53191069">
        <ele>195.00000</ele>
        <time>2024-03-21T13:41:46Z</time>
      </trkpt>
      <trkpt lat="42.84981703" lon="13.53201622">
        <ele>195.00000</ele>
        <time>2024-03-21T13:41:47Z</time>
      </trkpt>
      <trkpt lat="42.84983715" lon="13.53212451">
        <ele>195.00000</ele>
        <time>2024-03-21T13:41:48Z</time>
      </trkpt>
      <trkpt lat="42.84985818" lon="13.53223239">
        <ele>195.00000</ele>
        <time>2024-03-21T13:41:49Z</time>
      </trkpt>
      <trkpt lat="42.84987713" lon="13.53234127">
        <ele>195.00000</ele>
        <time>2024-03-21T13:41:50Z</time>
      </trkpt>
      <trkpt lat="42.84989498" lon="13.53245107">
        <ele>196.00000</ele>
        <time>2024-03-21T13:41:51Z</time>
      </trkpt>
      <trkpt lat="42.84991946" lon="13.53256699">
        <ele>196.00000</ele>
        <time>2024-03-21T13:41:52Z</time>
      </trkpt>
      <trkpt lat="42.84993798" lon="13.53268065">
        <ele>196.00000</ele>
        <time>2024-03-21T13:41:53Z</time>
      </trkpt>
      <trkpt lat="42.84993211" lon="13.53279414">
        <ele>196.00000</ele>
        <time>2024-03-21T13:41:54Z</time>
      </trkpt>
      <trkpt lat="42.84992440" lon="13.53290470">
        <ele>196.00000</ele>
        <time>2024-03-21T13:41:55Z</time>
      </trkpt>
      <trkpt lat="42.84991702" lon="13.53301802">
        <ele>195.00000</ele>
        <time>2024-03-21T13:41:56Z</time>
      </trkpt>
      <trkpt lat="42.84990646" lon="13.53312456">
        <ele>195.00000</ele>
        <time>2024-03-21T13:41:57Z</time>
      </trkpt>
      <trkpt lat="42.84989892" lon="13.53324081">
        <ele>193.00000</ele>
        <time>2024-03-21T13:41:58Z</time>
      </trkpt>
      <trkpt lat="42.84990185" lon="13.53335682">
        <ele>192.00000</ele>
        <time>2024-03-21T13:41:59Z</time>
      </trkpt>
      <trkpt lat="42.84990462" lon="13.53347157">
        <ele>190.00000</ele>
        <time>2024-03-21T13:42:00Z</time>
      </trkpt>
      <trkpt lat="42.84990772" lon="13.53358950">
        <ele>189.00000</ele>
        <time>2024-03-21T13:42:01Z</time>
      </trkpt>
      <trkpt lat="42.84991074" lon="13.53370768">
        <ele>188.00000</ele>
        <time>2024-03-21T13:42:02Z</time>
      </trkpt>
      <trkpt lat="42.84991107" lon="13.53382520">
        <ele>186.00000</ele>
        <time>2024-03-21T13:42:03Z</time>
      </trkpt>
      <trkpt lat="42.84991350" lon="13.53394514">
        <ele>185.00000</ele>
        <time>2024-03-21T13:42:04Z</time>
      </trkpt>
      <trkpt lat="42.84991309" lon="13.53406475">
        <ele>184.00000</ele>
        <time>2024-03-21T13:42:05Z</time>
      </trkpt>
      <trkpt lat="42.84991183" lon="13.53418327">
        <ele>183.00000</ele>
        <time>2024-03-21T13:42:06Z</time>
      </trkpt>
      <trkpt lat="42.84990638" lon="13.53430221">
        <ele>183.00000</ele>
        <time>2024-03-21T13:42:07Z</time>
      </trkpt>
      <trkpt lat="42.84989900" lon="13.53441839">
        <ele>183.00000</ele>
        <time>2024-03-21T13:42:08Z</time>
      </trkpt>
      <trkpt lat="42.84989431" lon="13.53453406">
        <ele>183.00000</ele>
        <time>2024-03-21T13:42:09Z</time>
      </trkpt>
      <trkpt lat="42.84989213" lon="13.53464864">
        <ele>183.00000</ele>
        <time>2024-03-21T13:42:10Z</time>
      </trkpt>
      <trkpt lat="42.84988903" lon="13.53476288">
        <ele>183.00000</ele>
        <time>2024-03-21T13:42:11Z</time>
      </trkpt>
      <trkpt lat="42.84988584" lon="13.53487453">
        <ele>183.00000</ele>
        <time>2024-03-21T13:42:12Z</time>
      </trkpt>
      <trkpt lat="42.84987914" lon="13.53498509">
        <ele>183.00000</ele>
        <time>2024-03-21T13:42:13Z</time>
      </trkpt>
      <trkpt lat="42.84986992" lon="13.53509430">
        <ele>184.00000</ele>
        <time>2024-03-21T13:42:14Z</time>
      </trkpt>
      <trkpt lat="42.84986397" lon="13.53520167">
        <ele>184.00000</ele>
        <time>2024-03-21T13:42:15Z</time>
      </trkpt>
      <trkpt lat="42.84985953" lon="13.53530729">
        <ele>185.00000</ele>
        <time>2024-03-21T13:42:16Z</time>
      </trkpt>
      <trkpt lat="42.84985207" lon="13.53541072">
        <ele>186.00000</ele>
        <time>2024-03-21T13:42:17Z</time>
      </trkpt>
      <trkpt lat="42.84983966" lon="13.53551558">
        <ele>187.00000</ele>
        <time>2024-03-21T13:42:18Z</time>
      </trkpt>
      <trkpt lat="42.84982415" lon="13.53562111">
        <ele>189.00000</ele>
        <time>2024-03-21T13:42:19Z</time>
      </trkpt>
      <trkpt lat="42.84980856" lon="13.53572454">
        <ele>190.00000</ele>
        <time>2024-03-21T13:42:20Z</time>
      </trkpt>
      <trkpt lat="42.84979448" lon="13.53583032">
        <ele>192.00000</ele>
        <time>2024-03-21T13:42:21Z</time>
      </trkpt>
      <trkpt lat="42.84977973" lon="13.53593442">
        <ele>191.00000</ele>
        <time>2024-03-21T13:42:22Z</time>
      </trkpt>
      <trkpt lat="42.84976523" lon="13.53604062">
        <ele>189.00000</ele>
        <time>2024-03-21T13:42:23Z</time>
      </trkpt>
      <trkpt lat="42.84975341" lon="13.53614732">
        <ele>188.00000</ele>
        <time>2024-03-21T13:42:24Z</time>
      </trkpt>
      <trkpt lat="42.84974310" lon="13.53625419">
        <ele>188.00000</ele>
        <time>2024-03-21T13:42:25Z</time>
      </trkpt>
      <trkpt lat="42.84973187" lon="13.53636165">
        <ele>189.00000</ele>
        <time>2024-03-21T13:42:26Z</time>
      </trkpt>
      <trkpt lat="42.84971888" lon="13.53646885">
        <ele>188.00000</ele>
        <time>2024-03-21T13:42:27Z</time>
      </trkpt>
      <trkpt lat="42.84970102" lon="13.53657488">
        <ele>187.00000</ele>
        <time>2024-03-21T13:42:28Z</time>
      </trkpt>
      <trkpt lat="42.84968770" lon="13.53668100">
        <ele>185.00000</ele>
        <time>2024-03-21T13:42:29Z</time>
      </trkpt>
      <trkpt lat="42.84969826" lon="13.53678803">
        <ele>184.00000</ele>
        <time>2024-03-21T13:42:30Z</time>
      </trkpt>
      <trkpt lat="42.84968510" lon="13.53689373">
        <ele>184.00000</ele>
        <time>2024-03-21T13:42:31Z</time>
      </trkpt>
      <trkpt lat="42.84966079" lon="13.53699842">
        <ele>185.00000</ele>
        <time>2024-03-21T13:42:32Z</time>
      </trkpt>
      <trkpt lat="42.84962978" lon="13.53710361">
        <ele>186.00000</ele>
        <time>2024-03-21T13:42:33Z</time>
      </trkpt>
      <trkpt lat="42.84960480" lon="13.53721023">
        <ele>187.00000</ele>
        <time>2024-03-21T13:42:34Z</time>
      </trkpt>
      <trkpt lat="42.84958544" lon="13.53731827">
        <ele>187.00000</ele>
        <time>2024-03-21T13:42:35Z</time>
      </trkpt>
      <trkpt lat="42.84957027" lon="13.53742405">
        <ele>187.00000</ele>
        <time>2024-03-21T13:42:36Z</time>
      </trkpt>
      <trkpt lat="42.84955560" lon="13.53752665">
        <ele>187.00000</ele>
        <time>2024-03-21T13:42:37Z</time>
      </trkpt>
      <trkpt lat="42.84953355" lon="13.53763067">
        <ele>188.00000</ele>
        <time>2024-03-21T13:42:38Z</time>
      </trkpt>
      <trkpt lat="42.84951754" lon="13.53773594">
        <ele>188.00000</ele>
        <time>2024-03-21T13:42:39Z</time>
      </trkpt>
      <trkpt lat="42.84950061" lon="13.53784139">
        <ele>187.00000</ele>
        <time>2024-03-21T13:42:40Z</time>
      </trkpt>
      <trkpt lat="42.84948117" lon="13.53794725">
        <ele>186.00000</ele>
        <time>2024-03-21T13:42:41Z</time>
      </trkpt>
      <trkpt lat="42.84946541" lon="13.53805529">
        <ele>185.00000</ele>
        <time>2024-03-21T13:42:42Z</time>
      </trkpt>
      <trkpt lat="42.84944772" lon="13.53816350">
        <ele>184.00000</ele>
        <time>2024-03-21T13:42:43Z</time>
      </trkpt>
      <trkpt lat="42.84943205" lon="13.53825076">
        <ele>184.00000</ele>
        <time>2024-03-21T13:42:44Z</time>
      </trkpt>
      <trkpt lat="42.84941336" lon="13.53835838">
        <ele>183.00000</ele>
        <time>2024-03-21T13:42:45Z</time>
      </trkpt>
      <trkpt lat="42.84939106" lon="13.53848805">
        <ele>183.00000</ele>
        <time>2024-03-21T13:42:46Z</time>
      </trkpt>
      <trkpt lat="42.84937354" lon="13.53859609">
        <ele>182.00000</ele>
        <time>2024-03-21T13:42:47Z</time>
      </trkpt>
      <trkpt lat="42.84935753" lon="13.53870246">
        <ele>183.00000</ele>
        <time>2024-03-21T13:42:48Z</time>
      </trkpt>
      <trkpt lat="42.84934219" lon="13.53881067">
        <ele>183.00000</ele>
        <time>2024-03-21T13:42:49Z</time>
      </trkpt>
      <trkpt lat="42.84933289" lon="13.53891930">
        <ele>183.00000</ele>
        <time>2024-03-21T13:42:50Z</time>
      </trkpt>
      <trkpt lat="42.84932392" lon="13.53902952">
        <ele>184.00000</ele>
        <time>2024-03-21T13:42:51Z</time>
      </trkpt>
      <trkpt lat="42.84931965" lon="13.53914201">
        <ele>185.00000</ele>
        <time>2024-03-21T13:42:52Z</time>
      </trkpt>
      <trkpt lat="42.84931554" lon="13.53925441">
        <ele>186.00000</ele>
        <time>2024-03-21T13:42:53Z</time>
      </trkpt>
      <trkpt lat="42.84931403" lon="13.53936639">
        <ele>187.00000</ele>
        <time>2024-03-21T13:42:54Z</time>
      </trkpt>
      <trkpt lat="42.84931370" lon="13.53947804">
        <ele>187.00000</ele>
        <time>2024-03-21T13:42:55Z</time>
      </trkpt>
      <trkpt lat="42.84931713" lon="13.53959270">
        <ele>188.00000</ele>
        <time>2024-03-21T13:42:56Z</time>
      </trkpt>
      <trkpt lat="42.84932032" lon="13.53970611">
        <ele>188.00000</ele>
        <time>2024-03-21T13:42:57Z</time>
      </trkpt>
      <trkpt lat="42.84932258" lon="13.53981776">
        <ele>187.00000</ele>
        <time>2024-03-21T13:42:58Z</time>
      </trkpt>
      <trkpt lat="42.84933105" lon="13.53993133">
        <ele>187.00000</ele>
        <time>2024-03-21T13:42:59Z</time>
      </trkpt>
      <trkpt lat="42.84933138" lon="13.54002160">
        <ele>187.00000</ele>
        <time>2024-03-21T13:43:00Z</time>
      </trkpt>
      <trkpt lat="42.84934496" lon="13.54015605">
        <ele>186.00000</ele>
        <time>2024-03-21T13:43:01Z</time>
      </trkpt>
      <trkpt lat="42.84935795" lon="13.54027155">
        <ele>186.00000</ele>
        <time>2024-03-21T13:43:02Z</time>
      </trkpt>
      <trkpt lat="42.84937061" lon="13.54038865">
        <ele>185.00000</ele>
        <time>2024-03-21T13:43:03Z</time>
      </trkpt>
      <trkpt lat="42.84938352" lon="13.54050683">
        <ele>185.00000</ele>
        <time>2024-03-21T13:43:04Z</time>
      </trkpt>
      <trkpt lat="42.84939148" lon="13.54062426">
        <ele>184.00000</ele>
        <time>2024-03-21T13:43:05Z</time>
      </trkpt>
      <trkpt lat="42.84939324" lon="13.54074077">
        <ele>183.00000</ele>
        <time>2024-03-21T13:43:06Z</time>
      </trkpt>
      <trkpt lat="42.84938938" lon="13.54085854">
        <ele>183.00000</ele>
        <time>2024-03-21T13:43:07Z</time>
      </trkpt>
      <trkpt lat="42.84937690" lon="13.54097379">
        <ele>182.00000</ele>
        <time>2024-03-21T13:43:08Z</time>
      </trkpt>
      <trkpt lat="42.84936055" lon="13.54106389">
        <ele>181.00000</ele>
        <time>2024-03-21T13:43:09Z</time>
      </trkpt>
      <trkpt lat="42.84933264" lon="13.54120429">
        <ele>181.00000</ele>
        <time>2024-03-21T13:43:10Z</time>
      </trkpt>
      <trkpt lat="42.84930414" lon="13.54131468">
        <ele>181.00000</ele>
        <time>2024-03-21T13:43:11Z</time>
      </trkpt>
      <trkpt lat="42.84926567" lon="13.54142432">
        <ele>182.00000</ele>
        <time>2024-03-21T13:43:12Z</time>
      </trkpt>
      <trkpt lat="42.84922376" lon="13.54153269">
        <ele>182.00000</ele>
        <time>2024-03-21T13:43:13Z</time>
      </trkpt>
      <trkpt lat="42.84917875" lon="13.54163822">
        <ele>182.00000</ele>
        <time>2024-03-21T13:43:14Z</time>
      </trkpt>
      <trkpt lat="42.84913583" lon="13.54174744">
        <ele>182.00000</ele>
        <time>2024-03-21T13:43:15Z</time>
      </trkpt>
      <trkpt lat="42.84909652" lon="13.54185883">
        <ele>182.00000</ele>
        <time>2024-03-21T13:43:16Z</time>
      </trkpt>
      <trkpt lat="42.84905319" lon="13.54196688">
        <ele>182.00000</ele>
        <time>2024-03-21T13:43:17Z</time>
      </trkpt>
      <trkpt lat="42.84901245" lon="13.54207391">
        <ele>182.00000</ele>
        <time>2024-03-21T13:43:18Z</time>
      </trkpt>
      <trkpt lat="42.84897440" lon="13.54218447">
        <ele>181.00000</ele>
        <time>2024-03-21T13:43:19Z</time>
      </trkpt>
      <trkpt lat="42.84893827" lon="13.54229855">
        <ele>181.00000</ele>
        <time>2024-03-21T13:43:20Z</time>
      </trkpt>
      <trkpt lat="42.84890374" lon="13.54241405">
        <ele>180.00000</ele>
        <time>2024-03-21T13:43:21Z</time>
      </trkpt>
      <trkpt lat="42.84887976" lon="13.54253240">
        <ele>179.00000</ele>
        <time>2024-03-21T13:43:22Z</time>
      </trkpt>
      <trkpt lat="42.84886518" lon="13.54265294">
        <ele>179.00000</ele>
        <time>2024-03-21T13:43:23Z</time>
      </trkpt>
      <trkpt lat="42.84885562" lon="13.54277548">
        <ele>178.00000</ele>
        <time>2024-03-21T13:43:24Z</time>
      </trkpt>
      <trkpt lat="42.84885085" lon="13.54289903">
        <ele>177.00000</ele>
        <time>2024-03-21T13:43:25Z</time>
      </trkpt>
      <trkpt lat="42.84885512" lon="13.54302207">
        <ele>177.00000</ele>
        <time>2024-03-21T13:43:26Z</time>
      </trkpt>
      <trkpt lat="42.84886702" lon="13.54314579">
        <ele>176.00000</ele>
        <time>2024-03-21T13:43:27Z</time>
      </trkpt>
      <trkpt lat="42.84888303" lon="13.54326683">
        <ele>175.00000</ele>
        <time>2024-03-21T13:43:28Z</time>
      </trkpt>
      <trkpt lat="42.84890525" lon="13.54338618">
        <ele>174.00000</ele>
        <time>2024-03-21T13:43:29Z</time>
      </trkpt>
      <trkpt lat="42.84892670" lon="13.54350848">
        <ele>173.00000</ele>
        <time>2024-03-21T13:43:30Z</time>
      </trkpt>
      <trkpt lat="42.84895009" lon="13.54362892">
        <ele>171.00000</ele>
        <time>2024-03-21T13:43:31Z</time>
      </trkpt>
      <trkpt lat="42.84897875" lon="13.54374971">
        <ele>171.00000</ele>
        <time>2024-03-21T13:43:32Z</time>
      </trkpt>
      <trkpt lat="42.84901010" lon="13.54387125">
        <ele>170.00000</ele>
        <time>2024-03-21T13:43:33Z</time>
      </trkpt>
      <trkpt lat="42.84904304" lon="13.54399060">
        <ele>170.00000</ele>
        <time>2024-03-21T13:43:34Z</time>
      </trkpt>
      <trkpt lat="42.84907490" lon="13.54411172">
        <ele>170.00000</ele>
        <time>2024-03-21T13:43:35Z</time>
      </trkpt>
      <trkpt lat="42.84910482" lon="13.54423074">
        <ele>169.00000</ele>
        <time>2024-03-21T13:43:36Z</time>
      </trkpt>
      <trkpt lat="42.84913558" lon="13.54435002">
        <ele>169.00000</ele>
        <time>2024-03-21T13:43:37Z</time>
      </trkpt>
      <trkpt lat="42.84916944" lon="13.54446904">
        <ele>169.00000</ele>
        <time>2024-03-21T13:43:38Z</time>
      </trkpt>
      <trkpt lat="42.84920431" lon="13.54458999">
        <ele>169.00000</ele>
        <time>2024-03-21T13:43:39Z</time>
      </trkpt>
      <trkpt lat="42.84923843" lon="13.54471212">
        <ele>169.00000</ele>
        <time>2024-03-21T13:43:40Z</time>
      </trkpt>
      <trkpt lat="42.84927413" lon="13.54483349">
        <ele>170.00000</ele>
        <time>2024-03-21T13:43:41Z</time>
      </trkpt>
      <trkpt lat="42.84931336" lon="13.54495134">
        <ele>170.00000</ele>
        <time>2024-03-21T13:43:42Z</time>
      </trkpt>
      <trkpt lat="42.84935468" lon="13.54506935">
        <ele>170.00000</ele>
        <time>2024-03-21T13:43:43Z</time>
      </trkpt>
      <trkpt lat="42.84939508" lon="13.54518553">
        <ele>170.00000</ele>
        <time>2024-03-21T13:43:44Z</time>
      </trkpt>
      <trkpt lat="42.84943490" lon="13.54530396">
        <ele>170.00000</ele>
        <time>2024-03-21T13:43:45Z</time>
      </trkpt>
      <trkpt lat="42.84947413" lon="13.54542391">
        <ele>170.00000</ele>
        <time>2024-03-21T13:43:46Z</time>
      </trkpt>
      <trkpt lat="42.84951821" lon="13.54554570">
        <ele>170.00000</ele>
        <time>2024-03-21T13:43:47Z</time>
      </trkpt>
      <trkpt lat="42.84955694" lon="13.54566933">
        <ele>170.00000</ele>
        <time>2024-03-21T13:43:48Z</time>
      </trkpt>
      <trkpt lat="42.84959105" lon="13.54579581">
        <ele>170.00000</ele>
        <time>2024-03-21T13:43:49Z</time>
      </trkpt>
      <trkpt lat="42.84962056" lon="13.54592322">
        <ele>170.00000</ele>
        <time>2024-03-21T13:43:50Z</time>
      </trkpt>
      <trkpt lat="42.84964369" lon="13.54605012">
        <ele>171.00000</ele>
        <time>2024-03-21T13:43:51Z</time>
      </trkpt>
      <trkpt lat="42.84966171" lon="13.54617333">
        <ele>170.00000</ele>
        <time>2024-03-21T13:43:52Z</time>
      </trkpt>
      <trkpt lat="42.84967940" lon="13.54629261">
        <ele>169.00000</ele>
        <time>2024-03-21T13:43:53Z</time>
      </trkpt>
      <trkpt lat="42.84968971" lon="13.54640451">
        <ele>168.00000</ele>
        <time>2024-03-21T13:43:54Z</time>
      </trkpt>
      <trkpt lat="42.84969809" lon="13.54651356">
        <ele>168.00000</ele>
        <time>2024-03-21T13:43:55Z</time>
      </trkpt>
      <trkpt lat="42.84970362" lon="13.54662135">
        <ele>167.00000</ele>
        <time>2024-03-21T13:43:56Z</time>
      </trkpt>
      <trkpt lat="42.84971242" lon="13.54672713">
        <ele>167.00000</ele>
        <time>2024-03-21T13:43:57Z</time>
      </trkpt>
      <trkpt lat="42.84972181" lon="13.54683450">
        <ele>167.00000</ele>
        <time>2024-03-21T13:43:58Z</time>
      </trkpt>
      <trkpt lat="42.84973095" lon="13.54694137">
        <ele>166.00000</ele>
        <time>2024-03-21T13:43:59Z</time>
      </trkpt>
      <trkpt lat="42.84973732" lon="13.54704581">
        <ele>166.00000</ele>
        <time>2024-03-21T13:44:00Z</time>
      </trkpt>
      <trkpt lat="42.84974763" lon="13.54715494">
        <ele>166.00000</ele>
        <time>2024-03-21T13:44:01Z</time>
      </trkpt>
      <trkpt lat="42.84975500" lon="13.54726290">
        <ele>167.00000</ele>
        <time>2024-03-21T13:44:02Z</time>
      </trkpt>
      <trkpt lat="42.84976171" lon="13.54736734">
        <ele>168.00000</ele>
        <time>2024-03-21T13:44:03Z</time>
      </trkpt>
      <trkpt lat="42.84977051" lon="13.54747119">
        <ele>168.00000</ele>
        <time>2024-03-21T13:44:04Z</time>
      </trkpt>
      <trkpt lat="42.84977554" lon="13.54757538">
        <ele>169.00000</ele>
        <time>2024-03-21T13:44:05Z</time>
      </trkpt>
      <trkpt lat="42.84978585" lon="13.54768007">
        <ele>170.00000</ele>
        <time>2024-03-21T13:44:06Z</time>
      </trkpt>
      <trkpt lat="42.84978887" lon="13.54778459">
        <ele>171.00000</ele>
        <time>2024-03-21T13:44:07Z</time>
      </trkpt>
      <trkpt lat="42.84979113" lon="13.54788785">
        <ele>172.00000</ele>
        <time>2024-03-21T13:44:08Z</time>
      </trkpt>
      <trkpt lat="42.84980471" lon="13.54798936">
        <ele>172.00000</ele>
        <time>2024-03-21T13:44:09Z</time>
      </trkpt>
      <trkpt lat="42.84981753" lon="13.54808667">
        <ele>172.00000</ele>
        <time>2024-03-21T13:44:10Z</time>
      </trkpt>
      <trkpt lat="42.84982977" lon="13.54818466">
        <ele>173.00000</ele>
        <time>2024-03-21T13:44:11Z</time>
      </trkpt>
      <trkpt lat="42.84985349" lon="13.54828448">
        <ele>173.00000</ele>
        <time>2024-03-21T13:44:12Z</time>
      </trkpt>
      <trkpt lat="42.84988048" lon="13.54838104">
        <ele>173.00000</ele>
        <time>2024-03-21T13:44:13Z</time>
      </trkpt>
      <trkpt lat="42.84991811" lon="13.54847283">
        <ele>173.00000</ele>
        <time>2024-03-21T13:44:14Z</time>
      </trkpt>
      <trkpt lat="42.84996321" lon="13.54855522">
        <ele>173.00000</ele>
        <time>2024-03-21T13:44:15Z</time>
      </trkpt>
      <trkpt lat="42.85001350" lon="13.54863108">
        <ele>172.00000</ele>
        <time>2024-03-21T13:44:16Z</time>
      </trkpt>
      <trkpt lat="42.85006773" lon="13.54869696">
        <ele>172.00000</ele>
        <time>2024-03-21T13:44:17Z</time>
      </trkpt>
      <trkpt lat="42.85012691" lon="13.54876200">
        <ele>172.00000</ele>
        <time>2024-03-21T13:44:18Z</time>
      </trkpt>
      <trkpt lat="42.85019472" lon="13.54882470">
        <ele>172.00000</ele>
        <time>2024-03-21T13:44:19Z</time>
      </trkpt>
      <trkpt lat="42.85026529" lon="13.54888907">
        <ele>172.00000</ele>
        <time>2024-03-21T13:44:20Z</time>
      </trkpt>
      <trkpt lat="42.85033553" lon="13.54895847">
        <ele>172.00000</ele>
        <time>2024-03-21T13:44:21Z</time>
      </trkpt>
      <trkpt lat="42.85040535" lon="13.54902385">
        <ele>173.00000</ele>
        <time>2024-03-21T13:44:22Z</time>
      </trkpt>
      <trkpt lat="42.85047233" lon="13.54908973">
        <ele>173.00000</ele>
        <time>2024-03-21T13:44:23Z</time>
      </trkpt>
      <trkpt lat="42.85053586" lon="13.54915528">
        <ele>174.00000</ele>
        <time>2024-03-21T13:44:24Z</time>
      </trkpt>
      <trkpt lat="42.85059520" lon="13.54921840">
        <ele>173.00000</ele>
        <time>2024-03-21T13:44:25Z</time>
      </trkpt>
      <trkpt lat="42.85065790" lon="13.54928922">
        <ele>172.00000</ele>
        <time>2024-03-21T13:44:26Z</time>
      </trkpt>
      <trkpt lat="42.85071540" lon="13.54938696">
        <ele>172.00000</ele>
        <time>2024-03-21T13:44:27Z</time>
      </trkpt>
      <trkpt lat="42.85075270" lon="13.54947203">
        <ele>172.00000</ele>
        <time>2024-03-21T13:44:28Z</time>
      </trkpt>
      <trkpt lat="42.85081473" lon="13.54959944">
        <ele>172.00000</ele>
        <time>2024-03-21T13:44:29Z</time>
      </trkpt>
      <trkpt lat="42.85085270" lon="13.54970069">
        <ele>173.00000</ele>
        <time>2024-03-21T13:44:30Z</time>
      </trkpt>
      <trkpt lat="42.85087893" lon="13.54980647">
        <ele>173.00000</ele>
        <time>2024-03-21T13:44:31Z</time>
      </trkpt>
      <trkpt lat="42.85089997" lon="13.54990856">
        <ele>174.00000</ele>
        <time>2024-03-21T13:44:32Z</time>
      </trkpt>
      <trkpt lat="42.85089754" lon="13.55001040">
        <ele>175.00000</ele>
        <time>2024-03-21T13:44:33Z</time>
      </trkpt>
      <trkpt lat="42.85089385" lon="13.55011132">
        <ele>177.00000</ele>
        <time>2024-03-21T13:44:34Z</time>
      </trkpt>
      <trkpt lat="42.85090793" lon="13.55021031">
        <ele>177.00000</ele>
        <time>2024-03-21T13:44:35Z</time>
      </trkpt>
      <trkpt lat="42.85092520" lon="13.55030746">
        <ele>178.00000</ele>
        <time>2024-03-21T13:44:36Z</time>
      </trkpt>
      <trkpt lat="42.85094196" lon="13.55040871">
        <ele>177.00000</ele>
        <time>2024-03-21T13:44:37Z</time>
      </trkpt>
      <trkpt lat="42.85095923" lon="13.55051189">
        <ele>176.00000</ele>
        <time>2024-03-21T13:44:38Z</time>
      </trkpt>
      <trkpt lat="42.85097876" lon="13.55061491">
        <ele>176.00000</ele>
        <time>2024-03-21T13:44:39Z</time>
      </trkpt>
      <trkpt lat="42.85099812" lon="13.55071331">
        <ele>175.00000</ele>
        <time>2024-03-21T13:44:40Z</time>
      </trkpt>
      <trkpt lat="42.85102000" lon="13.55081046">
        <ele>174.00000</ele>
        <time>2024-03-21T13:44:41Z</time>
      </trkpt>
      <trkpt lat="42.85104464" lon="13.55090760">
        <ele>174.00000</ele>
        <time>2024-03-21T13:44:42Z</time>
      </trkpt>
      <trkpt lat="42.85106610" lon="13.55100600">
        <ele>174.00000</ele>
        <time>2024-03-21T13:44:43Z</time>
      </trkpt>
      <trkpt lat="42.85108689" lon="13.55110491">
        <ele>173.00000</ele>
        <time>2024-03-21T13:44:44Z</time>
      </trkpt>
      <trkpt lat="42.85110675" lon="13.55120256">
        <ele>174.00000</ele>
        <time>2024-03-21T13:44:45Z</time>
      </trkpt>
      <trkpt lat="42.85112729" lon="13.55130113">
        <ele>175.00000</ele>
        <time>2024-03-21T13:44:46Z</time>
      </trkpt>
      <trkpt lat="42.85114657" lon="13.55139652">
        <ele>175.00000</ele>
        <time>2024-03-21T13:44:47Z</time>
      </trkpt>
      <trkpt lat="42.85117121" lon="13.55149417">
        <ele>176.00000</ele>
        <time>2024-03-21T13:44:48Z</time>
      </trkpt>
      <trkpt lat="42.85119568" lon="13.55159316">
        <ele>176.00000</ele>
        <time>2024-03-21T13:44:49Z</time>
      </trkpt>
      <trkpt lat="42.85122049" lon="13.55169190">
        <ele>177.00000</ele>
        <time>2024-03-21T13:44:50Z</time>
      </trkpt>
      <trkpt lat="42.85124338" lon="13.55179047">
        <ele>178.00000</ele>
        <time>2024-03-21T13:44:51Z</time>
      </trkpt>
      <trkpt lat="42.85127439" lon="13.55189239">
        <ele>179.00000</ele>
        <time>2024-03-21T13:44:52Z</time>
      </trkpt>
      <trkpt lat="42.85130641" lon="13.55199155">
        <ele>179.00000</ele>
        <time>2024-03-21T13:44:53Z</time>
      </trkpt>
      <trkpt lat="42.85134186" lon="13.55208274">
        <ele>180.00000</ele>
        <time>2024-03-21T13:44:54Z</time>
      </trkpt>
      <trkpt lat="42.85138512" lon="13.55216740">
        <ele>179.00000</ele>
        <time>2024-03-21T13:44:55Z</time>
      </trkpt>
      <trkpt lat="42.85143868" lon="13.55224502">
        <ele>179.00000</ele>
        <time>2024-03-21T13:44:56Z</time>
      </trkpt>
      <trkpt lat="42.85149752" lon="13.55231635">
        <ele>179.00000</ele>
        <time>2024-03-21T13:44:57Z</time>
      </trkpt>
      <trkpt lat="42.85155938" lon="13.55238717">
        <ele>178.00000</ele>
        <time>2024-03-21T13:44:58Z</time>
      </trkpt>
      <trkpt lat="42.85161939" lon="13.55245951">
        <ele>176.00000</ele>
        <time>2024-03-21T13:44:59Z</time>
      </trkpt>
      <trkpt lat="42.85167278" lon="13.55253662">
        <ele>175.00000</ele>
        <time>2024-03-21T13:45:00Z</time>
      </trkpt>
      <trkpt lat="42.85171503" lon="13.55262665">
        <ele>175.00000</ele>
        <time>2024-03-21T13:45:01Z</time>
      </trkpt>
      <trkpt lat="42.85174772" lon="13.55272689">
        <ele>175.00000</ele>
        <time>2024-03-21T13:45:02Z</time>
      </trkpt>
      <trkpt lat="42.85176984" lon="13.55283653">
        <ele>176.00000</ele>
        <time>2024-03-21T13:45:03Z</time>
      </trkpt>
      <trkpt lat="42.85177890" lon="13.55294767">
        <ele>177.00000</ele>
        <time>2024-03-21T13:45:04Z</time>
      </trkpt>
      <trkpt lat="42.85177806" lon="13.55305882">
        <ele>179.00000</ele>
        <time>2024-03-21T13:45:05Z</time>
      </trkpt>
      <trkpt lat="42.85177102" lon="13.55317239">
        <ele>180.00000</ele>
        <time>2024-03-21T13:45:06Z</time>
      </trkpt>
      <trkpt lat="42.85177052" lon="13.55328672">
        <ele>181.00000</ele>
        <time>2024-03-21T13:45:07Z</time>
      </trkpt>
      <trkpt lat="42.85177261" lon="13.55339627">
        <ele>182.00000</ele>
        <time>2024-03-21T13:45:08Z</time>
      </trkpt>
      <trkpt lat="42.85177152" lon="13.55350750">
        <ele>182.00000</ele>
        <time>2024-03-21T13:45:09Z</time>
      </trkpt>
      <trkpt lat="42.85177244" lon="13.55361705">
        <ele>182.00000</ele>
        <time>2024-03-21T13:45:10Z</time>
      </trkpt>
      <trkpt lat="42.85178585" lon="13.55372468">
        <ele>181.00000</ele>
        <time>2024-03-21T13:45:11Z</time>
      </trkpt>
      <trkpt lat="42.85180505" lon="13.55383062">
        <ele>180.00000</ele>
        <time>2024-03-21T13:45:12Z</time>
      </trkpt>
      <trkpt lat="42.85182785" lon="13.55393531">
        <ele>180.00000</ele>
        <time>2024-03-21T13:45:13Z</time>
      </trkpt>
      <trkpt lat="42.85185500" lon="13.55403590">
        <ele>180.00000</ele>
        <time>2024-03-21T13:45:14Z</time>
      </trkpt>
      <trkpt lat="42.85188786" lon="13.55413078">
        <ele>180.00000</ele>
        <time>2024-03-21T13:45:15Z</time>
      </trkpt>
      <trkpt lat="42.85193723" lon="13.55422533">
        <ele>179.00000</ele>
        <time>2024-03-21T13:45:16Z</time>
      </trkpt>
      <trkpt lat="42.85199054" lon="13.55431895">
        <ele>179.00000</ele>
        <time>2024-03-21T13:45:17Z</time>
      </trkpt>
      <trkpt lat="42.85203094" lon="13.55439431">
        <ele>179.00000</ele>
        <time>2024-03-21T13:45:18Z</time>
      </trkpt>
      <trkpt lat="42.85208450" lon="13.55450570">
        <ele>180.00000</ele>
        <time>2024-03-21T13:45:19Z</time>
      </trkpt>
      <trkpt lat="42.85212708" lon="13.55459564">
        <ele>180.00000</ele>
        <time>2024-03-21T13:45:20Z</time>
      </trkpt>
      <trkpt lat="42.85217679" lon="13.55468055">
        <ele>179.00000</ele>
        <time>2024-03-21T13:45:21Z</time>
      </trkpt>
      <trkpt lat="42.85222448" lon="13.55476822">
        <ele>179.00000</ele>
        <time>2024-03-21T13:45:22Z</time>
      </trkpt>
      <trkpt lat="42.85227385" lon="13.55486067">
        <ele>178.00000</ele>
        <time>2024-03-21T13:45:23Z</time>
      </trkpt>
      <trkpt lat="42.85232733" lon="13.55495707">
        <ele>177.00000</ele>
        <time>2024-03-21T13:45:24Z</time>
      </trkpt>
      <trkpt lat="42.85238466" lon="13.55506008">
        <ele>176.00000</ele>
        <time>2024-03-21T13:45:25Z</time>
      </trkpt>
      <trkpt lat="42.85242740" lon="13.55516318">
        <ele>175.00000</ele>
        <time>2024-03-21T13:45:26Z</time>
      </trkpt>
      <trkpt lat="42.85247141" lon="13.55526502">
        <ele>174.00000</ele>
        <time>2024-03-21T13:45:27Z</time>
      </trkpt>
      <trkpt lat="42.85251676" lon="13.55537063">
        <ele>174.00000</ele>
        <time>2024-03-21T13:45:28Z</time>
      </trkpt>
      <trkpt lat="42.85256210" lon="13.55547633">
        <ele>174.00000</ele>
        <time>2024-03-21T13:45:29Z</time>
      </trkpt>
      <trkpt lat="42.85260166" lon="13.55557808">
        <ele>175.00000</ele>
        <time>2024-03-21T13:45:30Z</time>
      </trkpt>
      <trkpt lat="42.85264827" lon="13.55567833">
        <ele>175.00000</ele>
        <time>2024-03-21T13:45:31Z</time>
      </trkpt>
      <trkpt lat="42.85269889" lon="13.55578025">
        <ele>175.00000</ele>
        <time>2024-03-21T13:45:32Z</time>
      </trkpt>
      <trkpt lat="42.85275044" lon="13.55587824">
        <ele>175.00000</ele>
        <time>2024-03-21T13:45:33Z</time>
      </trkpt>
      <trkpt lat="42.85279872" lon="13.55597413">
        <ele>175.00000</ele>
        <time>2024-03-21T13:45:34Z</time>
      </trkpt>
      <trkpt lat="42.85285052" lon="13.55606976">
        <ele>175.00000</ele>
        <time>2024-03-21T13:45:35Z</time>
      </trkpt>
      <trkpt lat="42.85290107" lon="13.55616481">
        <ele>174.00000</ele>
        <time>2024-03-21T13:45:36Z</time>
      </trkpt>
      <trkpt lat="42.85295764" lon="13.55625618">
        <ele>174.00000</ele>
        <time>2024-03-21T13:45:37Z</time>
      </trkpt>
      <trkpt lat="42.85301330" lon="13.55634930">
        <ele>173.00000</ele>
        <time>2024-03-21T13:45:38Z</time>
      </trkpt>
      <trkpt lat="42.85306669" lon="13.55644569">
        <ele>173.00000</ele>
        <time>2024-03-21T13:45:39Z</time>
      </trkpt>
      <trkpt lat="42.85311841" lon="13.55655047">
        <ele>173.00000</ele>
        <time>2024-03-21T13:45:40Z</time>
      </trkpt>
      <trkpt lat="42.85316644" lon="13.55665717">
        <ele>174.00000</ele>
        <time>2024-03-21T13:45:41Z</time>
      </trkpt>
      <trkpt lat="42.85321229" lon="13.55676680">
        <ele>176.00000</ele>
        <time>2024-03-21T13:45:42Z</time>
      </trkpt>
      <trkpt lat="42.85325554" lon="13.55687770">
        <ele>177.00000</ele>
        <time>2024-03-21T13:45:43Z</time>
      </trkpt>
      <trkpt lat="42.85329812" lon="13.55698691">
        <ele>177.00000</ele>
        <time>2024-03-21T13:45:44Z</time>
      </trkpt>
      <trkpt lat="42.85334271" lon="13.55709571">
        <ele>177.00000</ele>
        <time>2024-03-21T13:45:45Z</time>
      </trkpt>
      <trkpt lat="42.85338931" lon="13.55720258">
        <ele>175.00000</ele>
        <time>2024-03-21T13:45:46Z</time>
      </trkpt>
      <trkpt lat="42.85342720" lon="13.55731925">
        <ele>173.00000</ele>
        <time>2024-03-21T13:45:47Z</time>
      </trkpt>
      <trkpt lat="42.85345913" lon="13.55743777">
        <ele>171.00000</ele>
        <time>2024-03-21T13:45:48Z</time>
      </trkpt>
      <trkpt lat="42.85348487" lon="13.55755797">
        <ele>169.00000</ele>
        <time>2024-03-21T13:45:49Z</time>
      </trkpt>
      <trkpt lat="42.85350834" lon="13.55768177">
        <ele>168.00000</ele>
        <time>2024-03-21T13:45:50Z</time>
      </trkpt>
      <trkpt lat="42.85352636" lon="13.55780465">
        <ele>167.00000</ele>
        <time>2024-03-21T13:45:51Z</time>
      </trkpt>
      <trkpt lat="42.85354765" lon="13.55793055">
        <ele>166.00000</ele>
        <time>2024-03-21T13:45:52Z</time>
      </trkpt>
      <trkpt lat="42.85356466" lon="13.55805611">
        <ele>166.00000</ele>
        <time>2024-03-21T13:45:53Z</time>
      </trkpt>
      <trkpt lat="42.85357732" lon="13.55818586">
        <ele>165.00000</ele>
        <time>2024-03-21T13:45:54Z</time>
      </trkpt>
      <trkpt lat="42.85359484" lon="13.55831704">
        <ele>164.00000</ele>
        <time>2024-03-21T13:45:55Z</time>
      </trkpt>
      <trkpt lat="42.85360531" lon="13.55845240">
        <ele>164.00000</ele>
        <time>2024-03-21T13:45:56Z</time>
      </trkpt>
      <trkpt lat="42.85362116" lon="13.55858517">
        <ele>163.00000</ele>
        <time>2024-03-21T13:45:57Z</time>
      </trkpt>
      <trkpt lat="42.85363934" lon="13.55871300">
        <ele>164.00000</ele>
        <time>2024-03-21T13:45:58Z</time>
      </trkpt>
      <trkpt lat="42.85365946" lon="13.55884166">
        <ele>164.00000</ele>
        <time>2024-03-21T13:45:59Z</time>
      </trkpt>
      <trkpt lat="42.85367949" lon="13.55897225">
        <ele>165.00000</ele>
        <time>2024-03-21T13:46:00Z</time>
      </trkpt>
      <trkpt lat="42.85369073" lon="13.55910586">
        <ele>166.00000</ele>
        <time>2024-03-21T13:46:01Z</time>
      </trkpt>
      <trkpt lat="42.85370388" lon="13.55923008">
        <ele>166.00000</ele>
        <time>2024-03-21T13:46:02Z</time>
      </trkpt>
      <trkpt lat="42.85371948" lon="13.55935405">
        <ele>166.00000</ele>
        <time>2024-03-21T13:46:03Z</time>
      </trkpt>
      <trkpt lat="42.85373138" lon="13.55945496">
        <ele>166.00000</ele>
        <time>2024-03-21T13:46:04Z</time>
      </trkpt>
      <trkpt lat="42.85374864" lon="13.55960232">
        <ele>167.00000</ele>
        <time>2024-03-21T13:46:05Z</time>
      </trkpt>
      <trkpt lat="42.85376708" lon="13.55972805">
        <ele>167.00000</ele>
        <time>2024-03-21T13:46:06Z</time>
      </trkpt>
      <trkpt lat="42.85378318" lon="13.55985185">
        <ele>168.00000</ele>
        <time>2024-03-21T13:46:07Z</time>
      </trkpt>
      <trkpt lat="42.85380086" lon="13.55997271">
        <ele>168.00000</ele>
        <time>2024-03-21T13:46:08Z</time>
      </trkpt>
      <trkpt lat="42.85381888" lon="13.56009216">
        <ele>167.00000</ele>
        <time>2024-03-21T13:46:09Z</time>
      </trkpt>
      <trkpt lat="42.85382308" lon="13.56021420">
        <ele>167.00000</ele>
        <time>2024-03-21T13:46:10Z</time>
      </trkpt>
      <trkpt lat="42.85384051" lon="13.56033833">
        <ele>166.00000</ele>
        <time>2024-03-21T13:46:11Z</time>
      </trkpt>
      <trkpt lat="42.85386071" lon="13.56046071">
        <ele>166.00000</ele>
        <time>2024-03-21T13:46:12Z</time>
      </trkpt>
      <trkpt lat="42.85387990" lon="13.56057923">
        <ele>166.00000</ele>
        <time>2024-03-21T13:46:13Z</time>
      </trkpt>
      <trkpt lat="42.85389357" lon="13.56069138">
        <ele>165.00000</ele>
        <time>2024-03-21T13:46:14Z</time>
      </trkpt>
      <trkpt lat="42.85391016" lon="13.56080068">
        <ele>165.00000</ele>
        <time>2024-03-21T13:46:15Z</time>
      </trkpt>
      <trkpt lat="42.85392441" lon="13.56091266">
        <ele>165.00000</ele>
        <time>2024-03-21T13:46:16Z</time>
      </trkpt>
      <trkpt lat="42.85394134" lon="13.56102498">
        <ele>165.00000</ele>
        <time>2024-03-21T13:46:17Z</time>
      </trkpt>
      <trkpt lat="42.85396029" lon="13.56113855">
        <ele>164.00000</ele>
        <time>2024-03-21T13:46:18Z</time>
      </trkpt>
      <trkpt lat="42.85397554" lon="13.56125288">
        <ele>164.00000</ele>
        <time>2024-03-21T13:46:19Z</time>
      </trkpt>
      <trkpt lat="42.85399038" lon="13.56137081">
        <ele>164.00000</ele>
        <time>2024-03-21T13:46:20Z</time>
      </trkpt>
      <trkpt lat="42.85400563" lon="13.56148774">
        <ele>163.00000</ele>
        <time>2024-03-21T13:46:21Z</time>
      </trkpt>
      <trkpt lat="42.85401930" lon="13.56160341">
        <ele>163.00000</ele>
        <time>2024-03-21T13:46:22Z</time>
      </trkpt>
      <trkpt lat="42.85403229" lon="13.56171841">
        <ele>163.00000</ele>
        <time>2024-03-21T13:46:23Z</time>
      </trkpt>
      <trkpt lat="42.85404402" lon="13.56183358">
        <ele>163.00000</ele>
        <time>2024-03-21T13:46:24Z</time>
      </trkpt>
      <trkpt lat="42.85405475" lon="13.56194648">
        <ele>162.00000</ele>
        <time>2024-03-21T13:46:25Z</time>
      </trkpt>
      <trkpt lat="42.85406582" lon="13.56206308">
        <ele>162.00000</ele>
        <time>2024-03-21T13:46:26Z</time>
      </trkpt>
      <trkpt lat="42.85407914" lon="13.56217791">
        <ele>162.00000</ele>
        <time>2024-03-21T13:46:27Z</time>
      </trkpt>
      <trkpt lat="42.85409549" lon="13.56229299">
        <ele>162.00000</ele>
        <time>2024-03-21T13:46:28Z</time>
      </trkpt>
      <trkpt lat="42.85411376" lon="13.56240606">
        <ele>162.00000</ele>
        <time>2024-03-21T13:46:29Z</time>
      </trkpt>
      <trkpt lat="42.85413111" lon="13.56251830">
        <ele>162.00000</ele>
        <time>2024-03-21T13:46:30Z</time>
      </trkpt>
      <trkpt lat="42.85414905" lon="13.56263154">
        <ele>162.00000</ele>
        <time>2024-03-21T13:46:31Z</time>
      </trkpt>
      <trkpt lat="42.85416606" lon="13.56274654">
        <ele>161.00000</ele>
        <time>2024-03-21T13:46:32Z</time>
      </trkpt>
      <trkpt lat="42.85418375" lon="13.56285802">
        <ele>160.00000</ele>
        <time>2024-03-21T13:46:33Z</time>
      </trkpt>
      <trkpt lat="42.85420169" lon="13.56296572">
        <ele>160.00000</ele>
        <time>2024-03-21T13:46:34Z</time>
      </trkpt>
      <trkpt lat="42.85421820" lon="13.56307117">
        <ele>159.00000</ele>
        <time>2024-03-21T13:46:35Z</time>
      </trkpt>
      <trkpt lat="42.85423597" lon="13.56317846">
        <ele>159.00000</ele>
        <time>2024-03-21T13:46:36Z</time>
      </trkpt>
      <trkpt lat="42.85425240" lon="13.56328256">
        <ele>159.00000</ele>
        <time>2024-03-21T13:46:37Z</time>
      </trkpt>
      <trkpt lat="42.85426623" lon="13.56338373">
        <ele>159.00000</ele>
        <time>2024-03-21T13:46:38Z</time>
      </trkpt>
      <trkpt lat="42.85428098" lon="13.56348264">
        <ele>159.00000</ele>
        <time>2024-03-21T13:46:39Z</time>
      </trkpt>
      <trkpt lat="42.85430034" lon="13.56358070">
        <ele>159.00000</ele>
        <time>2024-03-21T13:46:40Z</time>
      </trkpt>
      <trkpt lat="42.85430663" lon="13.56367676">
        <ele>160.00000</ele>
        <time>2024-03-21T13:46:41Z</time>
      </trkpt>
      <trkpt lat="42.85432180" lon="13.56377081">
        <ele>161.00000</ele>
        <time>2024-03-21T13:46:42Z</time>
      </trkpt>
      <trkpt lat="42.85433454" lon="13.56386049">
        <ele>162.00000</ele>
        <time>2024-03-21T13:46:43Z</time>
      </trkpt>
      <trkpt lat="42.85434996" lon="13.56395085">
        <ele>163.00000</ele>
        <time>2024-03-21T13:46:44Z</time>
      </trkpt>
      <trkpt lat="42.85436597" lon="13.56404590">
        <ele>163.00000</ele>
        <time>2024-03-21T13:46:45Z</time>
      </trkpt>
      <trkpt lat="42.85438039" lon="13.56414162">
        <ele>164.00000</ele>
        <time>2024-03-21T13:46:46Z</time>
      </trkpt>
      <trkpt lat="42.85439548" lon="13.56423692">
        <ele>164.00000</ele>
        <time>2024-03-21T13:46:47Z</time>
      </trkpt>
      <trkpt lat="42.85441107" lon="13.56432971">
        <ele>164.00000</ele>
        <time>2024-03-21T13:46:48Z</time>
      </trkpt>
      <trkpt lat="42.85442691" lon="13.56441663">
        <ele>164.00000</ele>
        <time>2024-03-21T13:46:49Z</time>
      </trkpt>
      <trkpt lat="42.85444191" lon="13.56450355">
        <ele>164.00000</ele>
        <time>2024-03-21T13:46:50Z</time>
      </trkpt>
      <trkpt lat="42.85444946" lon="13.56457681">
        <ele>164.00000</ele>
        <time>2024-03-21T13:46:51Z</time>
      </trkpt>
      <trkpt lat="42.85445918" lon="13.56469374">
        <ele>164.00000</ele>
        <time>2024-03-21T13:46:52Z</time>
      </trkpt>
      <trkpt lat="42.85447108" lon="13.56478778">
        <ele>163.00000</ele>
        <time>2024-03-21T13:46:53Z</time>
      </trkpt>
      <trkpt lat="42.85448692" lon="13.56488711">
        <ele>162.00000</ele>
        <time>2024-03-21T13:46:54Z</time>
      </trkpt>
      <trkpt lat="42.85450377" lon="13.56499020">
        <ele>161.00000</ele>
        <time>2024-03-21T13:46:55Z</time>
      </trkpt>
      <trkpt lat="42.85451215" lon="13.56508509">
        <ele>161.00000</ele>
        <time>2024-03-21T13:46:56Z</time>
      </trkpt>
      <trkpt lat="42.85452196" lon="13.56517578">
        <ele>160.00000</ele>
        <time>2024-03-21T13:46:57Z</time>
      </trkpt>
      <trkpt lat="42.85453168" lon="13.56526974">
        <ele>160.00000</ele>
        <time>2024-03-21T13:46:58Z</time>
      </trkpt>
      <trkpt lat="42.85454627" lon="13.56536739">
        <ele>160.00000</ele>
        <time>2024-03-21T13:46:59Z</time>
      </trkpt>
      <trkpt lat="42.85456295" lon="13.56546345">
        <ele>159.00000</ele>
        <time>2024-03-21T13:47:00Z</time>
      </trkpt>
      <trkpt lat="42.85458088" lon="13.56555841">
        <ele>159.00000</ele>
        <time>2024-03-21T13:47:01Z</time>
      </trkpt>
      <trkpt lat="42.85459605" lon="13.56565154">
        <ele>159.00000</ele>
        <time>2024-03-21T13:47:02Z</time>
      </trkpt>
      <trkpt lat="42.85461131" lon="13.56574499">
        <ele>159.00000</ele>
        <time>2024-03-21T13:47:03Z</time>
      </trkpt>
      <trkpt lat="42.85462380" lon="13.56584357">
        <ele>159.00000</ele>
        <time>2024-03-21T13:47:04Z</time>
      </trkpt>
      <trkpt lat="42.85464366" lon="13.56594272">
        <ele>159.00000</ele>
        <time>2024-03-21T13:47:05Z</time>
      </trkpt>
      <trkpt lat="42.85465942" lon="13.56604280">
        <ele>159.00000</ele>
        <time>2024-03-21T13:47:06Z</time>
      </trkpt>
      <trkpt lat="42.85467174" lon="13.56613903">
        <ele>159.00000</ele>
        <time>2024-03-21T13:47:07Z</time>
      </trkpt>
      <trkpt lat="42.85468524" lon="13.56623274">
        <ele>159.00000</ele>
        <time>2024-03-21T13:47:08Z</time>
      </trkpt>
      <trkpt lat="42.85469991" lon="13.56632988">
        <ele>159.00000</ele>
        <time>2024-03-21T13:47:09Z</time>
      </trkpt>
      <trkpt lat="42.85471240" lon="13.56642728">
        <ele>160.00000</ele>
        <time>2024-03-21T13:47:10Z</time>
      </trkpt>
      <trkpt lat="42.85473545" lon="13.56652166">
        <ele>159.00000</ele>
        <time>2024-03-21T13:47:11Z</time>
      </trkpt>
      <trkpt lat="42.85475707" lon="13.56661881">
        <ele>159.00000</ele>
        <time>2024-03-21T13:47:12Z</time>
      </trkpt>
      <trkpt lat="42.85477694" lon="13.56671880">
        <ele>159.00000</ele>
        <time>2024-03-21T13:47:13Z</time>
      </trkpt>
      <trkpt lat="42.85479730" lon="13.56681670">
        <ele>158.00000</ele>
        <time>2024-03-21T13:47:14Z</time>
      </trkpt>
      <trkpt lat="42.85481180" lon="13.56691092">
        <ele>158.00000</ele>
        <time>2024-03-21T13:47:15Z</time>
      </trkpt>
      <trkpt lat="42.85481239" lon="13.56700471">
        <ele>159.00000</ele>
        <time>2024-03-21T13:47:16Z</time>
      </trkpt>
      <trkpt lat="42.85481214" lon="13.56709448">
        <ele>159.00000</ele>
        <time>2024-03-21T13:47:17Z</time>
      </trkpt>
      <trkpt lat="42.85480996" lon="13.56718224">
        <ele>159.00000</ele>
        <time>2024-03-21T13:47:18Z</time>
      </trkpt>
      <trkpt lat="42.85478649" lon="13.56726036">
        <ele>159.00000</ele>
        <time>2024-03-21T13:47:19Z</time>
      </trkpt>
      <trkpt lat="42.85475204" lon="13.56734904">
        <ele>159.00000</ele>
        <time>2024-03-21T13:47:20Z</time>
      </trkpt>
      <trkpt lat="42.85470846" lon="13.56744392">
        <ele>159.00000</ele>
        <time>2024-03-21T13:47:21Z</time>
      </trkpt>
      <trkpt lat="42.85466680" lon="13.56751928">
        <ele>158.00000</ele>
        <time>2024-03-21T13:47:22Z</time>
      </trkpt>
      <trkpt lat="42.85462724" lon="13.56759111">
        <ele>158.00000</ele>
        <time>2024-03-21T13:47:23Z</time>
      </trkpt>
      <trkpt lat="42.85458918" lon="13.56766026">
        <ele>158.00000</ele>
        <time>2024-03-21T13:47:24Z</time>
      </trkpt>
      <trkpt lat="42.85454400" lon="13.56772664">
        <ele>157.00000</ele>
        <time>2024-03-21T13:47:25Z</time>
      </trkpt>
      <trkpt lat="42.85449748" lon="13.56779462">
        <ele>157.00000</ele>
        <time>2024-03-21T13:47:26Z</time>
      </trkpt>
      <trkpt lat="42.85445163" lon="13.56786553">
        <ele>156.00000</ele>
        <time>2024-03-21T13:47:27Z</time>
      </trkpt>
      <trkpt lat="42.85440528" lon="13.56793720">
        <ele>156.00000</ele>
        <time>2024-03-21T13:47:28Z</time>
      </trkpt>
      <trkpt lat="42.85435759" lon="13.56801096">
        <ele>155.00000</ele>
        <time>2024-03-21T13:47:29Z</time>
      </trkpt>
      <trkpt lat="42.85432222" lon="13.56807709">
        <ele>155.00000</ele>
        <time>2024-03-21T13:47:30Z</time>
      </trkpt>
      <trkpt lat="42.85428701" lon="13.56817181">
        <ele>155.00000</ele>
        <time>2024-03-21T13:47:31Z</time>
      </trkpt>
      <trkpt lat="42.85426396" lon="13.56825387">
        <ele>155.00000</ele>
        <time>2024-03-21T13:47:32Z</time>
      </trkpt>
      <trkpt lat="42.85424544" lon="13.56833802">
        <ele>155.00000</ele>
        <time>2024-03-21T13:47:33Z</time>
      </trkpt>
      <trkpt lat="42.85422055" lon="13.56842159">
        <ele>155.00000</ele>
        <time>2024-03-21T13:47:34Z</time>
      </trkpt>
      <trkpt lat="42.85419548" lon="13.56847984">
        <ele>155.00000</ele>
        <time>2024-03-21T13:47:35Z</time>
      </trkpt>
      <trkpt lat="42.85415626" lon="13.56858420">
        <ele>155.00000</ele>
        <time>2024-03-21T13:47:36Z</time>
      </trkpt>
      <trkpt lat="42.85413664" lon="13.56868805">
        <ele>156.00000</ele>
        <time>2024-03-21T13:47:37Z</time>
      </trkpt>
      <trkpt lat="42.85412373" lon="13.56877153">
        <ele>157.00000</ele>
        <time>2024-03-21T13:47:38Z</time>
      </trkpt>
      <trkpt lat="42.85411334" lon="13.56886398">
        <ele>157.00000</ele>
        <time>2024-03-21T13:47:39Z</time>
      </trkpt>
      <trkpt lat="42.85410739" lon="13.56895761">
        <ele>158.00000</ele>
        <time>2024-03-21T13:47:40Z</time>
      </trkpt>
      <trkpt lat="42.85409624" lon="13.56904327">
        <ele>159.00000</ele>
        <time>2024-03-21T13:47:41Z</time>
      </trkpt>
      <trkpt lat="42.85409088" lon="13.56912843">
        <ele>159.00000</ele>
        <time>2024-03-21T13:47:42Z</time>
      </trkpt>
      <trkpt lat="42.85408501" lon="13.56920915">
        <ele>160.00000</ele>
        <time>2024-03-21T13:47:43Z</time>
      </trkpt>
      <trkpt lat="42.85407847" lon="13.56929222">
        <ele>160.00000</ele>
        <time>2024-03-21T13:47:44Z</time>
      </trkpt>
      <trkpt lat="42.85407596" lon="13.56937411">
        <ele>160.00000</ele>
        <time>2024-03-21T13:47:45Z</time>
      </trkpt>
      <trkpt lat="42.85407277" lon="13.56944954">
        <ele>161.00000</ele>
        <time>2024-03-21T13:47:46Z</time>
      </trkpt>
      <trkpt lat="42.85406992" lon="13.56952783">
        <ele>161.00000</ele>
        <time>2024-03-21T13:47:47Z</time>
      </trkpt>
      <trkpt lat="42.85407562" lon="13.56961467">
        <ele>161.00000</ele>
        <time>2024-03-21T13:47:48Z</time>
      </trkpt>
      <trkpt lat="42.85408006" lon="13.56969924">
        <ele>162.00000</ele>
        <time>2024-03-21T13:47:49Z</time>
      </trkpt>
      <trkpt lat="42.85406439" lon="13.56977677">
        <ele>162.00000</ele>
        <time>2024-03-21T13:47:50Z</time>
      </trkpt>
      <trkpt lat="42.85405827" lon="13.56985037">
        <ele>162.00000</ele>
        <time>2024-03-21T13:47:51Z</time>
      </trkpt>
      <trkpt lat="42.85405509" lon="13.56992430">
        <ele>162.00000</ele>
        <time>2024-03-21T13:47:52Z</time>
      </trkpt>
      <trkpt lat="42.85407260" lon="13.57000711">
        <ele>162.00000</ele>
        <time>2024-03-21T13:47:53Z</time>
      </trkpt>
      <trkpt lat="42.85405475" lon="13.57008481">
        <ele>162.00000</ele>
        <time>2024-03-21T13:47:54Z</time>
      </trkpt>
      <trkpt lat="42.85403899" lon="13.57014927">
        <ele>162.00000</ele>
        <time>2024-03-21T13:47:55Z</time>
      </trkpt>
      <trkpt lat="42.85400949" lon="13.57024993">
        <ele>163.00000</ele>
        <time>2024-03-21T13:47:56Z</time>
      </trkpt>
      <trkpt lat="42.85399465" lon="13.57032990">
        <ele>162.00000</ele>
        <time>2024-03-21T13:47:57Z</time>
      </trkpt>
      <trkpt lat="42.85398124" lon="13.57041003">
        <ele>162.00000</ele>
        <time>2024-03-21T13:47:58Z</time>
      </trkpt>
      <trkpt lat="42.85397102" lon="13.57048915">
        <ele>162.00000</ele>
        <time>2024-03-21T13:47:59Z</time>
      </trkpt>
      <trkpt lat="42.85396389" lon="13.57056685">
        <ele>162.00000</ele>
        <time>2024-03-21T13:48:00Z</time>
      </trkpt>
      <trkpt lat="42.85395593" lon="13.57064397">
        <ele>162.00000</ele>
        <time>2024-03-21T13:48:01Z</time>
      </trkpt>
      <trkpt lat="42.85395056" lon="13.57072787">
        <ele>161.00000</ele>
        <time>2024-03-21T13:48:02Z</time>
      </trkpt>
      <trkpt lat="42.85395266" lon="13.57081471">
        <ele>161.00000</ele>
        <time>2024-03-21T13:48:03Z</time>
      </trkpt>
      <trkpt lat="42.85395073" lon="13.57089928">
        <ele>161.00000</ele>
        <time>2024-03-21T13:48:04Z</time>
      </trkpt>
      <trkpt lat="42.85394495" lon="13.57098402">
        <ele>162.00000</ele>
        <time>2024-03-21T13:48:05Z</time>
      </trkpt>
      <trkpt lat="42.85393799" lon="13.57107195">
        <ele>162.00000</ele>
        <time>2024-03-21T13:48:06Z</time>
      </trkpt>
      <trkpt lat="42.85392525" lon="13.57115937">
        <ele>162.00000</ele>
        <time>2024-03-21T13:48:07Z</time>
      </trkpt>
      <trkpt lat="42.85391167" lon="13.57124000">
        <ele>163.00000</ele>
        <time>2024-03-21T13:48:08Z</time>
      </trkpt>
      <trkpt lat="42.85389767" lon="13.57131510">
        <ele>163.00000</ele>
        <time>2024-03-21T13:48:09Z</time>
      </trkpt>
      <trkpt lat="42.85388602" lon="13.57139054">
        <ele>164.00000</ele>
        <time>2024-03-21T13:48:10Z</time>
      </trkpt>
      <trkpt lat="42.85387680" lon="13.57146950">
        <ele>164.00000</ele>
        <time>2024-03-21T13:48:11Z</time>
      </trkpt>
      <trkpt lat="42.85387077" lon="13.57155290">
        <ele>164.00000</ele>
        <time>2024-03-21T13:48:12Z</time>
      </trkpt>
      <trkpt lat="42.85385954" lon="13.57163756">
        <ele>165.00000</ele>
        <time>2024-03-21T13:48:13Z</time>
      </trkpt>
      <trkpt lat="42.85384965" lon="13.57172582">
        <ele>164.00000</ele>
        <time>2024-03-21T13:48:14Z</time>
      </trkpt>
      <trkpt lat="42.85383196" lon="13.57181634">
        <ele>164.00000</ele>
        <time>2024-03-21T13:48:15Z</time>
      </trkpt>
      <trkpt lat="42.85381402" lon="13.57191022">
        <ele>164.00000</ele>
        <time>2024-03-21T13:48:16Z</time>
      </trkpt>
      <trkpt lat="42.85380380" lon="13.57200477">
        <ele>163.00000</ele>
        <time>2024-03-21T13:48:17Z</time>
      </trkpt>
      <trkpt lat="42.85379466" lon="13.57210200">
        <ele>162.00000</ele>
        <time>2024-03-21T13:48:18Z</time>
      </trkpt>
      <trkpt lat="42.85377538" lon="13.57219998">
        <ele>162.00000</ele>
        <time>2024-03-21T13:48:19Z</time>
      </trkpt>
      <trkpt lat="42.85375200" lon="13.57229545">
        <ele>162.00000</ele>
        <time>2024-03-21T13:48:20Z</time>
      </trkpt>
      <trkpt lat="42.85373398" lon="13.57239059">
        <ele>162.00000</ele>
        <time>2024-03-21T13:48:21Z</time>
      </trkpt>
      <trkpt lat="42.85372031" lon="13.57248337">
        <ele>161.00000</ele>
        <time>2024-03-21T13:48:22Z</time>
      </trkpt>
      <trkpt lat="42.85371210" lon="13.57258027">
        <ele>162.00000</ele>
        <time>2024-03-21T13:48:23Z</time>
      </trkpt>
      <trkpt lat="42.85370799" lon="13.57267641">
        <ele>162.00000</ele>
        <time>2024-03-21T13:48:24Z</time>
      </trkpt>
      <trkpt lat="42.85370196" lon="13.57277045">
        <ele>162.00000</ele>
        <time>2024-03-21T13:48:25Z</time>
      </trkpt>
      <trkpt lat="42.85369441" lon="13.57285964">
        <ele>162.00000</ele>
        <time>2024-03-21T13:48:26Z</time>
      </trkpt>
      <trkpt lat="42.85368511" lon="13.57295284">
        <ele>163.00000</ele>
        <time>2024-03-21T13:48:27Z</time>
      </trkpt>
      <trkpt lat="42.85366684" lon="13.57305100">
        <ele>163.00000</ele>
        <time>2024-03-21T13:48:28Z</time>
      </trkpt>
      <trkpt lat="42.85365812" lon="13.57314454">
        <ele>163.00000</ele>
        <time>2024-03-21T13:48:29Z</time>
      </trkpt>
      <trkpt lat="42.85365066" lon="13.57323976">
        <ele>164.00000</ele>
        <time>2024-03-21T13:48:30Z</time>
      </trkpt>
      <trkpt lat="42.85364789" lon="13.57333498">
        <ele>164.00000</ele>
        <time>2024-03-21T13:48:31Z</time>
      </trkpt>
      <trkpt lat="42.85362635" lon="13.57342349">
        <ele>164.00000</ele>
        <time>2024-03-21T13:48:32Z</time>
      </trkpt>
      <trkpt lat="42.85359140" lon="13.57351879">
        <ele>164.00000</ele>
        <time>2024-03-21T13:48:33Z</time>
      </trkpt>
      <trkpt lat="42.85358176" lon="13.57362139">
        <ele>164.00000</ele>
        <time>2024-03-21T13:48:34Z</time>
      </trkpt>
      <trkpt lat="42.85357665" lon="13.57372842">
        <ele>164.00000</ele>
        <time>2024-03-21T13:48:35Z</time>
      </trkpt>
      <trkpt lat="42.85357405" lon="13.57382775">
        <ele>163.00000</ele>
        <time>2024-03-21T13:48:36Z</time>
      </trkpt>
      <trkpt lat="42.85357187" lon="13.57393193">
        <ele>162.00000</ele>
        <time>2024-03-21T13:48:37Z</time>
      </trkpt>
      <trkpt lat="42.85357019" lon="13.57403336">
        <ele>162.00000</ele>
        <time>2024-03-21T13:48:38Z</time>
      </trkpt>
      <trkpt lat="42.85357413" lon="13.57412966">
        <ele>162.00000</ele>
        <time>2024-03-21T13:48:39Z</time>
      </trkpt>
      <trkpt lat="42.85358176" lon="13.57423393">
        <ele>161.00000</ele>
        <time>2024-03-21T13:48:40Z</time>
      </trkpt>
      <trkpt lat="42.85359299" lon="13.57431759">
        <ele>161.00000</ele>
        <time>2024-03-21T13:48:41Z</time>
      </trkpt>
      <trkpt lat="42.85360381" lon="13.57438213">
        <ele>161.00000</ele>
        <time>2024-03-21T13:48:42Z</time>
      </trkpt>
      <trkpt lat="42.85361797" lon="13.57447257">
        <ele>162.00000</ele>
        <time>2024-03-21T13:48:43Z</time>
      </trkpt>
      <trkpt lat="42.85363582" lon="13.57457323">
        <ele>163.00000</ele>
        <time>2024-03-21T13:48:44Z</time>
      </trkpt>
      <trkpt lat="42.85364479" lon="13.57464758">
        <ele>163.00000</ele>
        <time>2024-03-21T13:48:45Z</time>
      </trkpt>
      <trkpt lat="42.85365477" lon="13.57472587">
        <ele>163.00000</ele>
        <time>2024-03-21T13:48:46Z</time>
      </trkpt>
      <trkpt lat="42.85364974" lon="13.57487037">
        <ele>163.00000</ele>
        <time>2024-03-21T13:48:48Z</time>
      </trkpt>
      <trkpt lat="42.85362971" lon="13.57495721">
        <ele>163.00000</ele>
        <time>2024-03-21T13:48:49Z</time>
      </trkpt>
      <trkpt lat="42.85363951" lon="13.57503248">
        <ele>163.00000</ele>
        <time>2024-03-21T13:48:50Z</time>
      </trkpt>
      <trkpt lat="42.85364462" lon="13.57509132">
        <ele>163.00000</ele>
        <time>2024-03-21T13:48:51Z</time>
      </trkpt>
      <trkpt lat="42.85365141" lon="13.57512820">
        <ele>163.00000</ele>
        <time>2024-03-21T13:48:52Z</time>
      </trkpt>
      <trkpt lat="42.85366382" lon="13.57516399">
        <ele>163.00000</ele>
        <time>2024-03-21T13:48:53Z</time>
      </trkpt>
      <trkpt lat="42.85368377" lon="13.57518587">
        <ele>163.00000</ele>
        <time>2024-03-21T13:48:54Z</time>
      </trkpt>
      <trkpt lat="42.85370129" lon="13.57518469">
        <ele>163.00000</ele>
        <time>2024-03-21T13:48:55Z</time>
      </trkpt>
      <trkpt lat="42.85373180" lon="13.57517531">
        <ele>163.00000</ele>
        <time>2024-03-21T13:48:56Z</time>
      </trkpt>
      <trkpt lat="42.85375501" lon="13.57517103">
        <ele>162.00000</ele>
        <time>2024-03-21T13:48:57Z</time>
      </trkpt>
      <trkpt lat="42.85376315" lon="13.57516475">
        <ele>162.00000</ele>
        <time>2024-03-21T13:48:58Z</time>
      </trkpt>
      <trkpt lat="42.85376641" lon="13.57516651">
        <ele>162.00000</ele>
        <time>2024-03-21T13:48:59Z</time>
      </trkpt>
      <trkpt lat="42.85377656" lon="13.57515871">
        <ele>162.00000</ele>
        <time>2024-03-21T13:49:00Z</time>
      </trkpt>
      <trkpt lat="42.85378066" lon="13.57515477">
        <ele>162.00000</ele>
        <time>2024-03-21T13:49:01Z</time>
      </trkpt>
      <trkpt lat="42.85379106" lon="13.57515703">
        <ele>162.00000</ele>
        <time>2024-03-21T13:49:04Z</time>
      </trkpt>
      <trkpt lat="42.85381872" lon="13.57515871">
        <ele>162.00000</ele>
        <time>2024-03-21T13:49:05Z</time>
      </trkpt>
      <trkpt lat="42.85384445" lon="13.57516039">
        <ele>162.00000</ele>
        <time>2024-03-21T13:49:06Z</time>
      </trkpt>
      <trkpt lat="42.85386239" lon="13.57516206">
        <ele>162.00000</ele>
        <time>2024-03-21T13:49:07Z</time>
      </trkpt>
      <trkpt lat="42.85388485" lon="13.57515796">
        <ele>161.00000</ele>
        <time>2024-03-21T13:49:08Z</time>
      </trkpt>
      <trkpt lat="42.85391100" lon="13.57514304">
        <ele>162.00000</ele>
        <time>2024-03-21T13:49:09Z</time>
      </trkpt>
      <trkpt lat="42.85395501" lon="13.57511999">
        <ele>162.00000</ele>
        <time>2024-03-21T13:49:10Z</time>
      </trkpt>
      <trkpt lat="42.85400262" lon="13.57510917">
        <ele>162.00000</ele>
        <time>2024-03-21T13:49:11Z</time>
      </trkpt>
      <trkpt lat="42.85404914" lon="13.57510557">
        <ele>162.00000</ele>
        <time>2024-03-21T13:49:12Z</time>
      </trkpt>
      <trkpt lat="42.85407981" lon="13.57510951">
        <ele>162.00000</ele>
        <time>2024-03-21T13:49:13Z</time>
      </trkpt>
      <trkpt lat="42.85413078" lon="13.57510616">
        <ele>162.00000</ele>
        <time>2024-03-21T13:49:14Z</time>
      </trkpt>
      <trkpt lat="42.85419599" lon="13.57510842">
        <ele>162.00000</ele>
        <time>2024-03-21T13:49:15Z</time>
      </trkpt>
      <trkpt lat="42.85424544" lon="13.57511244">
        <ele>162.00000</ele>
        <time>2024-03-21T13:49:16Z</time>
      </trkpt>
      <trkpt lat="42.85429271" lon="13.57510230">
        <ele>163.00000</ele>
        <time>2024-03-21T13:49:17Z</time>
      </trkpt>
      <trkpt lat="42.85433722" lon="13.57508445">
        <ele>163.00000</ele>
        <time>2024-03-21T13:49:18Z</time>
      </trkpt>
      <trkpt lat="42.85437829" lon="13.57506793">
        <ele>163.00000</ele>
        <time>2024-03-21T13:49:19Z</time>
      </trkpt>
      <trkpt lat="42.85442490" lon="13.57506014">
        <ele>164.00000</ele>
        <time>2024-03-21T13:49:20Z</time>
      </trkpt>
      <trkpt lat="42.85447142" lon="13.57505201">
        <ele>164.00000</ele>
        <time>2024-03-21T13:49:21Z</time>
      </trkpt>
      <trkpt lat="42.85452087" lon="13.57504941">
        <ele>164.00000</ele>
        <time>2024-03-21T13:49:22Z</time>
      </trkpt>
      <trkpt lat="42.85456689" lon="13.57504949">
        <ele>163.00000</ele>
        <time>2024-03-21T13:49:23Z</time>
      </trkpt>
      <trkpt lat="42.85462656" lon="13.57505385">
        <ele>163.00000</ele>
        <time>2024-03-21T13:49:24Z</time>
      </trkpt>
      <trkpt lat="42.85467283" lon="13.57505410">
        <ele>163.00000</ele>
        <time>2024-03-21T13:49:25Z</time>
      </trkpt>
      <trkpt lat="42.85471600" lon="13.57504731">
        <ele>162.00000</ele>
        <time>2024-03-21T13:49:26Z</time>
      </trkpt>
      <trkpt lat="42.85475271" lon="13.57505125">
        <ele>162.00000</ele>
        <time>2024-03-21T13:49:27Z</time>
      </trkpt>
      <trkpt lat="42.85479999" lon="13.57507036">
        <ele>162.00000</ele>
        <time>2024-03-21T13:49:28Z</time>
      </trkpt>
      <trkpt lat="42.85483251" lon="13.57505804">
        <ele>162.00000</ele>
        <time>2024-03-21T13:49:29Z</time>
      </trkpt>
      <trkpt lat="42.85487400" lon="13.57505159">
        <ele>162.00000</ele>
        <time>2024-03-21T13:49:30Z</time>
      </trkpt>
      <trkpt lat="42.85491624" lon="13.57506475">
        <ele>162.00000</ele>
        <time>2024-03-21T13:49:31Z</time>
      </trkpt>
      <trkpt lat="42.85496947" lon="13.57507414">
        <ele>162.00000</ele>
        <time>2024-03-21T13:49:32Z</time>
      </trkpt>
      <trkpt lat="42.85499730" lon="13.57504363">
        <ele>162.00000</ele>
        <time>2024-03-21T13:49:33Z</time>
      </trkpt>
      <trkpt lat="42.85502823" lon="13.57502829">
        <ele>162.00000</ele>
        <time>2024-03-21T13:49:34Z</time>
      </trkpt>
      <trkpt lat="42.85506016" lon="13.57501354">
        <ele>162.00000</ele>
        <time>2024-03-21T13:49:35Z</time>
      </trkpt>
      <trkpt lat="42.85509369" lon="13.57500415">
        <ele>162.00000</ele>
        <time>2024-03-21T13:49:36Z</time>
      </trkpt>
      <trkpt lat="42.85512202" lon="13.57499334">
        <ele>162.00000</ele>
        <time>2024-03-21T13:49:37Z</time>
      </trkpt>
      <trkpt lat="42.85516845" lon="13.57498831">
        <ele>161.00000</ele>
        <time>2024-03-21T13:49:38Z</time>
      </trkpt>
      <trkpt lat="42.85521757" lon="13.57497800">
        <ele>161.00000</ele>
        <time>2024-03-21T13:49:39Z</time>
      </trkpt>
      <trkpt lat="42.85527256" lon="13.57497280">
        <ele>160.00000</ele>
        <time>2024-03-21T13:49:40Z</time>
      </trkpt>
      <trkpt lat="42.85531296" lon="13.57498076">
        <ele>160.00000</ele>
        <time>2024-03-21T13:49:41Z</time>
      </trkpt>
      <trkpt lat="42.85535110" lon="13.57499677">
        <ele>159.00000</ele>
        <time>2024-03-21T13:49:42Z</time>
      </trkpt>
      <trkpt lat="42.85537901" lon="13.57501144">
        <ele>159.00000</ele>
        <time>2024-03-21T13:49:43Z</time>
      </trkpt>
      <trkpt lat="42.85541170" lon="13.57502728">
        <ele>159.00000</ele>
        <time>2024-03-21T13:49:44Z</time>
      </trkpt>
      <trkpt lat="42.85541287" lon="13.57505855">
        <ele>158.00000</ele>
        <time>2024-03-21T13:49:46Z</time>
      </trkpt>
      <trkpt lat="42.85541723" lon="13.57505620">
        <ele>158.00000</ele>
        <time>2024-03-21T13:49:47Z</time>
      </trkpt>
      <trkpt lat="42.85544405" lon="13.57505285">
        <ele>158.00000</ele>
        <time>2024-03-21T13:49:48Z</time>
      </trkpt>
      <trkpt lat="42.85547607" lon="13.57505016">
        <ele>158.00000</ele>
        <time>2024-03-21T13:49:49Z</time>
      </trkpt>
      <trkpt lat="42.85550373" lon="13.57504522">
        <ele>157.00000</ele>
        <time>2024-03-21T13:49:50Z</time>
      </trkpt>
      <trkpt lat="42.85554178" lon="13.57503172">
        <ele>157.00000</ele>
        <time>2024-03-21T13:49:51Z</time>
      </trkpt>
      <trkpt lat="42.85556777" lon="13.57502728">
        <ele>156.00000</ele>
        <time>2024-03-21T13:49:52Z</time>
      </trkpt>
      <trkpt lat="42.85559467" lon="13.57501429">
        <ele>156.00000</ele>
        <time>2024-03-21T13:49:53Z</time>
      </trkpt>
      <trkpt lat="42.85559811" lon="13.57501354">
        <ele>156.00000</ele>
        <time>2024-03-21T13:49:54Z</time>
      </trkpt>
      <trkpt lat="42.85555989" lon="13.57499032">
        <ele>157.00000</ele>
        <time>2024-03-21T13:54:59Z</time>
      </trkpt>
      <trkpt lat="42.85554380" lon="13.57498395">
        <ele>157.00000</ele>
        <time>2024-03-21T13:55:00Z</time>
      </trkpt>
      <trkpt lat="42.85551991" lon="13.57497833">
        <ele>157.00000</ele>
        <time>2024-03-21T13:55:01Z</time>
      </trkpt>
      <trkpt lat="42.85549786" lon="13.57497272">
        <ele>157.00000</ele>
        <time>2024-03-21T13:55:02Z</time>
      </trkpt>
      <trkpt lat="42.85548294" lon="13.57496241">
        <ele>158.00000</ele>
        <time>2024-03-21T13:55:03Z</time>
      </trkpt>
      <trkpt lat="42.85546987" lon="13.57495436">
        <ele>158.00000</ele>
        <time>2024-03-21T13:55:04Z</time>
      </trkpt>
      <trkpt lat="42.85545118" lon="13.57495184">
        <ele>158.00000</ele>
        <time>2024-03-21T13:55:05Z</time>
      </trkpt>
      <trkpt lat="42.85542142" lon="13.57495369">
        <ele>158.00000</ele>
        <time>2024-03-21T13:55:06Z</time>
      </trkpt>
      <trkpt lat="42.85539334" lon="13.57496073">
        <ele>159.00000</ele>
        <time>2024-03-21T13:55:07Z</time>
      </trkpt>
      <trkpt lat="42.85536224" lon="13.57496852">
        <ele>159.00000</ele>
        <time>2024-03-21T13:55:08Z</time>
      </trkpt>
      <trkpt lat="42.85533618" lon="13.57497640">
        <ele>160.00000</ele>
        <time>2024-03-21T13:55:09Z</time>
      </trkpt>
      <trkpt lat="42.85529762" lon="13.57498655">
        <ele>160.00000</ele>
        <time>2024-03-21T13:55:10Z</time>
      </trkpt>
      <trkpt lat="42.85527382" lon="13.57498755">
        <ele>160.00000</ele>
        <time>2024-03-21T13:55:11Z</time>
      </trkpt>
      <trkpt lat="42.85523987" lon="13.57498856">
        <ele>161.00000</ele>
        <time>2024-03-21T13:55:12Z</time>
      </trkpt>
      <trkpt lat="42.85521397" lon="13.57498814">
        <ele>161.00000</ele>
        <time>2024-03-21T13:55:13Z</time>
      </trkpt>
      <trkpt lat="42.85518857" lon="13.57498789">
        <ele>161.00000</ele>
        <time>2024-03-21T13:55:14Z</time>
      </trkpt>
      <trkpt lat="42.85516343" lon="13.57498998">
        <ele>161.00000</ele>
        <time>2024-03-21T13:55:15Z</time>
      </trkpt>
      <trkpt lat="42.85513778" lon="13.57499049">
        <ele>161.00000</ele>
        <time>2024-03-21T13:55:16Z</time>
      </trkpt>
      <trkpt lat="42.85511456" lon="13.57499308">
        <ele>162.00000</ele>
        <time>2024-03-21T13:55:17Z</time>
      </trkpt>
      <trkpt lat="42.85509134" lon="13.57499325">
        <ele>162.00000</ele>
        <time>2024-03-21T13:55:18Z</time>
      </trkpt>
      <trkpt lat="42.85507081" lon="13.57499015">
        <ele>162.00000</ele>
        <time>2024-03-21T13:55:19Z</time>
      </trkpt>
      <trkpt lat="42.85505337" lon="13.57498319">
        <ele>162.00000</ele>
        <time>2024-03-21T13:55:20Z</time>
      </trkpt>
      <trkpt lat="42.85504030" lon="13.57497850">
        <ele>162.00000</ele>
        <time>2024-03-21T13:55:21Z</time>
      </trkpt>
      <trkpt lat="42.85504926" lon="13.57499510">
        <ele>162.00000</ele>
        <time>2024-03-21T13:55:22Z</time>
      </trkpt>
      <trkpt lat="42.85507910" lon="13.57503298">
        <ele>162.00000</ele>
        <time>2024-03-21T13:55:23Z</time>
      </trkpt>
      <trkpt lat="42.85510593" lon="13.57508721">
        <ele>162.00000</ele>
        <time>2024-03-21T13:55:24Z</time>
      </trkpt>
      <trkpt lat="42.85511372" lon="13.57514027">
        <ele>162.00000</ele>
        <time>2024-03-21T13:55:25Z</time>
      </trkpt>
      <trkpt lat="42.85511909" lon="13.57518813">
        <ele>162.00000</ele>
        <time>2024-03-21T13:55:26Z</time>
      </trkpt>
      <trkpt lat="42.85511850" lon="13.57523742">
        <ele>162.00000</ele>
        <time>2024-03-21T13:55:27Z</time>
      </trkpt>
      <trkpt lat="42.85510517" lon="13.57528754">
        <ele>162.00000</ele>
        <time>2024-03-21T13:55:28Z</time>
      </trkpt>
      <trkpt lat="42.85507475" lon="13.57533263">
        <ele>162.00000</ele>
        <time>2024-03-21T13:55:29Z</time>
      </trkpt>
      <trkpt lat="42.85504583" lon="13.57536071">
        <ele>162.00000</ele>
        <time>2024-03-21T13:55:30Z</time>
      </trkpt>
      <trkpt lat="42.85501339" lon="13.57539718">
        <ele>162.00000</ele>
        <time>2024-03-21T13:55:31Z</time>
      </trkpt>
      <trkpt lat="42.85497676" lon="13.57542509">
        <ele>162.00000</ele>
        <time>2024-03-21T13:55:32Z</time>
      </trkpt>
      <trkpt lat="42.85492437" lon="13.57544596">
        <ele>161.00000</ele>
        <time>2024-03-21T13:55:33Z</time>
      </trkpt>
      <trkpt lat="42.85487869" lon="13.57546214">
        <ele>161.00000</ele>
        <time>2024-03-21T13:55:34Z</time>
      </trkpt>
      <trkpt lat="42.85483863" lon="13.57546398">
        <ele>161.00000</ele>
        <time>2024-03-21T13:55:35Z</time>
      </trkpt>
      <trkpt lat="42.85478356" lon="13.57546532">
        <ele>161.00000</ele>
        <time>2024-03-21T13:55:36Z</time>
      </trkpt>
      <trkpt lat="42.85473142" lon="13.57545903">
        <ele>160.00000</ele>
        <time>2024-03-21T13:55:37Z</time>
      </trkpt>
      <trkpt lat="42.85468893" lon="13.57545308">
        <ele>160.00000</ele>
        <time>2024-03-21T13:55:38Z</time>
      </trkpt>
      <trkpt lat="42.85465875" lon="13.57544613">
        <ele>160.00000</ele>
        <time>2024-03-21T13:55:39Z</time>
      </trkpt>
      <trkpt lat="42.85462690" lon="13.57544864">
        <ele>160.00000</ele>
        <time>2024-03-21T13:55:40Z</time>
      </trkpt>
      <trkpt lat="42.85459958" lon="13.57545576">
        <ele>160.00000</ele>
        <time>2024-03-21T13:55:41Z</time>
      </trkpt>
      <trkpt lat="42.85455825" lon="13.57545945">
        <ele>160.00000</ele>
        <time>2024-03-21T13:55:42Z</time>
      </trkpt>
      <trkpt lat="42.85451014" lon="13.57546197">
        <ele>160.00000</ele>
        <time>2024-03-21T13:55:43Z</time>
      </trkpt>
      <trkpt lat="42.85445231" lon="13.57547781">
        <ele>160.00000</ele>
        <time>2024-03-21T13:55:44Z</time>
      </trkpt>
      <trkpt lat="42.85439397" lon="13.57549667">
        <ele>160.00000</ele>
        <time>2024-03-21T13:55:45Z</time>
      </trkpt>
      <trkpt lat="42.85434770" lon="13.57552072">
        <ele>159.00000</ele>
        <time>2024-03-21T13:55:46Z</time>
      </trkpt>
      <trkpt lat="42.85431476" lon="13.57554361">
        <ele>159.00000</ele>
        <time>2024-03-21T13:55:47Z</time>
      </trkpt>
      <trkpt lat="42.85429581" lon="13.57557160">
        <ele>159.00000</ele>
        <time>2024-03-21T13:55:48Z</time>
      </trkpt>
      <trkpt lat="42.85427779" lon="13.57560597">
        <ele>159.00000</ele>
        <time>2024-03-21T13:55:49Z</time>
      </trkpt>
      <trkpt lat="42.85426354" lon="13.57563866">
        <ele>159.00000</ele>
        <time>2024-03-21T13:55:50Z</time>
      </trkpt>
      <trkpt lat="42.85424997" lon="13.57567411">
        <ele>158.00000</ele>
        <time>2024-03-21T13:55:51Z</time>
      </trkpt>
      <trkpt lat="42.85424251" lon="13.57569758">
        <ele>158.00000</ele>
        <time>2024-03-21T13:55:52Z</time>
      </trkpt>
      <trkpt lat="42.85423563" lon="13.57575693">
        <ele>158.00000</ele>
        <time>2024-03-21T13:55:53Z</time>
      </trkpt>
      <trkpt lat="42.85423396" lon="13.57580169">
        <ele>158.00000</ele>
        <time>2024-03-21T13:55:54Z</time>
      </trkpt>
      <trkpt lat="42.85423060" lon="13.57584829">
        <ele>158.00000</ele>
        <time>2024-03-21T13:55:55Z</time>
      </trkpt>
      <trkpt lat="42.85423077" lon="13.57589749">
        <ele>158.00000</ele>
        <time>2024-03-21T13:55:56Z</time>
      </trkpt>
      <trkpt lat="42.85423865" lon="13.57593311">
        <ele>158.00000</ele>
        <time>2024-03-21T13:55:57Z</time>
      </trkpt>
      <trkpt lat="42.85425223" lon="13.57599330">
        <ele>157.00000</ele>
        <time>2024-03-21T13:55:58Z</time>
      </trkpt>
      <trkpt lat="42.85425432" lon="13.57603630">
        <ele>157.00000</ele>
        <time>2024-03-21T13:55:59Z</time>
      </trkpt>
      <trkpt lat="42.85425240" lon="13.57606479">
        <ele>157.00000</ele>
        <time>2024-03-21T13:56:00Z</time>
      </trkpt>
      <trkpt lat="42.85425500" lon="13.57609916">
        <ele>157.00000</ele>
        <time>2024-03-21T13:56:01Z</time>
      </trkpt>
      <trkpt lat="42.85425835" lon="13.57613788">
        <ele>157.00000</ele>
        <time>2024-03-21T13:56:02Z</time>
      </trkpt>
      <trkpt lat="42.85424829" lon="13.57617820">
        <ele>157.00000</ele>
        <time>2024-03-21T13:56:03Z</time>
      </trkpt>
      <trkpt lat="42.85422616" lon="13.57621793">
        <ele>158.00000</ele>
        <time>2024-03-21T13:56:04Z</time>
      </trkpt>
      <trkpt lat="42.85420127" lon="13.57625515">
        <ele>158.00000</ele>
        <time>2024-03-21T13:56:05Z</time>
      </trkpt>
      <trkpt lat="42.85416288" lon="13.57626521">
        <ele>158.00000</ele>
        <time>2024-03-21T13:56:06Z</time>
      </trkpt>
      <trkpt lat="42.85411854" lon="13.57627149">
        <ele>158.00000</ele>
        <time>2024-03-21T13:56:07Z</time>
      </trkpt>
      <trkpt lat="42.85408048" lon="13.57627325">
        <ele>159.00000</ele>
        <time>2024-03-21T13:56:08Z</time>
      </trkpt>
      <trkpt lat="42.85404536" lon="13.57627417">
        <ele>159.00000</ele>
        <time>2024-03-21T13:56:09Z</time>
      </trkpt>
      <trkpt lat="42.85399876" lon="13.57627241">
        <ele>159.00000</ele>
        <time>2024-03-21T13:56:10Z</time>
      </trkpt>
      <trkpt lat="42.85395895" lon="13.57627099">
        <ele>159.00000</ele>
        <time>2024-03-21T13:56:11Z</time>
      </trkpt>
      <trkpt lat="42.85391368" lon="13.57627292">
        <ele>160.00000</ele>
        <time>2024-03-21T13:56:12Z</time>
      </trkpt>
      <trkpt lat="42.85386348" lon="13.57627501">
        <ele>160.00000</ele>
        <time>2024-03-21T13:56:13Z</time>
      </trkpt>
      <trkpt lat="42.85382584" lon="13.57627241">
        <ele>160.00000</ele>
        <time>2024-03-21T13:56:14Z</time>
      </trkpt>
      <trkpt lat="42.85379022" lon="13.57627610">
        <ele>160.00000</ele>
        <time>2024-03-21T13:56:15Z</time>
      </trkpt>
      <trkpt lat="42.85375795" lon="13.57628239">
        <ele>160.00000</ele>
        <time>2024-03-21T13:56:16Z</time>
      </trkpt>
      <trkpt lat="42.85373029" lon="13.57630024">
        <ele>161.00000</ele>
        <time>2024-03-21T13:56:17Z</time>
      </trkpt>
      <trkpt lat="42.85369995" lon="13.57631223">
        <ele>161.00000</ele>
        <time>2024-03-21T13:56:18Z</time>
      </trkpt>
      <trkpt lat="42.85367363" lon="13.57631097">
        <ele>161.00000</ele>
        <time>2024-03-21T13:56:19Z</time>
      </trkpt>
      <trkpt lat="42.85367078" lon="13.57636503">
        <ele>161.00000</ele>
        <time>2024-03-21T13:56:20Z</time>
      </trkpt>
      <trkpt lat="42.85366650" lon="13.57641449">
        <ele>161.00000</ele>
        <time>2024-03-21T13:56:21Z</time>
      </trkpt>
      <trkpt lat="42.85368226" lon="13.57647115">
        <ele>161.00000</ele>
        <time>2024-03-21T13:56:22Z</time>
      </trkpt>
      <trkpt lat="42.85369768" lon="13.57652907">
        <ele>161.00000</ele>
        <time>2024-03-21T13:56:23Z</time>
      </trkpt>
      <trkpt lat="42.85367145" lon="13.57659361">
        <ele>161.00000</ele>
        <time>2024-03-21T13:56:24Z</time>
      </trkpt>
      <trkpt lat="42.85361889" lon="13.57663803">
        <ele>161.00000</ele>
        <time>2024-03-21T13:56:25Z</time>
      </trkpt>
      <trkpt lat="42.85358696" lon="13.57669344">
        <ele>161.00000</ele>
        <time>2024-03-21T13:56:26Z</time>
      </trkpt>
      <trkpt lat="42.85357816" lon="13.57674557">
        <ele>161.00000</ele>
        <time>2024-03-21T13:56:27Z</time>
      </trkpt>
      <trkpt lat="42.85357631" lon="13.57679301">
        <ele>161.00000</ele>
        <time>2024-03-21T13:56:28Z</time>
      </trkpt>
      <trkpt lat="42.85357246" lon="13.57681933">
        <ele>160.00000</ele>
        <time>2024-03-21T13:56:29Z</time>
      </trkpt>
      <trkpt lat="42.85357170" lon="13.57685999">
        <ele>160.00000</ele>
        <time>2024-03-21T13:56:30Z</time>
      </trkpt>
      <trkpt lat="42.85357715" lon="13.57692193">
        <ele>160.00000</ele>
        <time>2024-03-21T13:56:31Z</time>
      </trkpt>
      <trkpt lat="42.85358411" lon="13.57698094">
        <ele>159.00000</ele>
        <time>2024-03-21T13:56:32Z</time>
      </trkpt>
      <trkpt lat="42.85360146" lon="13.57705000">
        <ele>159.00000</ele>
        <time>2024-03-21T13:56:33Z</time>
      </trkpt>
      <trkpt lat="42.85361277" lon="13.57709610">
        <ele>158.00000</ele>
        <time>2024-03-21T13:56:34Z</time>
      </trkpt>
      <trkpt lat="42.85358863" lon="13.57716291">
        <ele>158.00000</ele>
        <time>2024-03-21T13:56:35Z</time>
      </trkpt>
      <trkpt lat="42.85359224" lon="13.57721177">
        <ele>158.00000</ele>
        <time>2024-03-21T13:56:36Z</time>
      </trkpt>
      <trkpt lat="42.85359995" lon="13.57728503">
        <ele>157.00000</ele>
        <time>2024-03-21T13:56:37Z</time>
      </trkpt>
      <trkpt lat="42.85358922" lon="13.57734865">
        <ele>157.00000</ele>
        <time>2024-03-21T13:56:38Z</time>
      </trkpt>
      <trkpt lat="42.85359609" lon="13.57741218">
        <ele>157.00000</ele>
        <time>2024-03-21T13:56:39Z</time>
      </trkpt>
      <trkpt lat="42.85360263" lon="13.57745837">
        <ele>157.00000</ele>
        <time>2024-03-21T13:56:40Z</time>
      </trkpt>
      <trkpt lat="42.85360204" lon="13.57752718">
        <ele>157.00000</ele>
        <time>2024-03-21T13:56:41Z</time>
      </trkpt>
      <trkpt lat="42.85360171" lon="13.57758745">
        <ele>157.00000</ele>
        <time>2024-03-21T13:56:42Z</time>
      </trkpt>
      <trkpt lat="42.85360263" lon="13.57765174">
        <ele>157.00000</ele>
        <time>2024-03-21T13:56:43Z</time>
      </trkpt>
      <trkpt lat="42.85360045" lon="13.57771812">
        <ele>157.00000</ele>
        <time>2024-03-21T13:56:44Z</time>
      </trkpt>
      <trkpt lat="42.85359911" lon="13.57777236">
        <ele>157.00000</ele>
        <time>2024-03-21T13:56:45Z</time>
      </trkpt>
      <trkpt lat="42.85359978" lon="13.57783715">
        <ele>157.00000</ele>
        <time>2024-03-21T13:56:46Z</time>
      </trkpt>
      <trkpt lat="42.85360959" lon="13.57790077">
        <ele>157.00000</ele>
        <time>2024-03-21T13:56:47Z</time>
      </trkpt>
      <trkpt lat="42.85362501" lon="13.57796304">
        <ele>157.00000</ele>
        <time>2024-03-21T13:56:48Z</time>
      </trkpt>
      <trkpt lat="42.85365150" lon="13.57803085">
        <ele>157.00000</ele>
        <time>2024-03-21T13:56:49Z</time>
      </trkpt>
      <trkpt lat="42.85367597" lon="13.57807285">
        <ele>157.00000</ele>
        <time>2024-03-21T13:56:50Z</time>
      </trkpt>
      <trkpt lat="42.85370263" lon="13.57812071">
        <ele>157.00000</ele>
        <time>2024-03-21T13:56:51Z</time>
      </trkpt>
      <trkpt lat="42.85372409" lon="13.57816865">
        <ele>157.00000</ele>
        <time>2024-03-21T13:56:52Z</time>
      </trkpt>
      <trkpt lat="42.85374370" lon="13.57823152">
        <ele>158.00000</ele>
        <time>2024-03-21T13:56:53Z</time>
      </trkpt>
      <trkpt lat="42.85375032" lon="13.57829614">
        <ele>158.00000</ele>
        <time>2024-03-21T13:56:54Z</time>
      </trkpt>
      <trkpt lat="42.85375040" lon="13.57836546">
        <ele>158.00000</ele>
        <time>2024-03-21T13:56:55Z</time>
      </trkpt>
      <trkpt lat="42.85374940" lon="13.57842371">
        <ele>158.00000</ele>
        <time>2024-03-21T13:56:56Z</time>
      </trkpt>
      <trkpt lat="42.85375401" lon="13.57849462">
        <ele>158.00000</ele>
        <time>2024-03-21T13:56:57Z</time>
      </trkpt>
      <trkpt lat="42.85376776" lon="13.57856310">
        <ele>158.00000</ele>
        <time>2024-03-21T13:56:58Z</time>
      </trkpt>
      <trkpt lat="42.85378796" lon="13.57863594">
        <ele>158.00000</ele>
        <time>2024-03-21T13:56:59Z</time>
      </trkpt>
      <trkpt lat="42.85380153" lon="13.57869344">
        <ele>158.00000</ele>
        <time>2024-03-21T13:57:00Z</time>
      </trkpt>
      <trkpt lat="42.85382341" lon="13.57873267">
        <ele>157.00000</ele>
        <time>2024-03-21T13:57:01Z</time>
      </trkpt>
      <trkpt lat="42.85382484" lon="13.57878196">
        <ele>157.00000</ele>
        <time>2024-03-21T13:57:02Z</time>
      </trkpt>
      <trkpt lat="42.85382383" lon="13.57883887">
        <ele>157.00000</ele>
        <time>2024-03-21T13:57:03Z</time>
      </trkpt>
      <trkpt lat="42.85383255" lon="13.57890131">
        <ele>156.00000</ele>
        <time>2024-03-21T13:57:04Z</time>
      </trkpt>
      <trkpt lat="42.85383607" lon="13.57896946">
        <ele>156.00000</ele>
        <time>2024-03-21T13:57:05Z</time>
      </trkpt>
      <trkpt lat="42.85383900" lon="13.57902419">
        <ele>156.00000</ele>
        <time>2024-03-21T13:57:06Z</time>
      </trkpt>
      <trkpt lat="42.85382928" lon="13.57906945">
        <ele>156.00000</ele>
        <time>2024-03-21T13:57:07Z</time>
      </trkpt>
      <trkpt lat="42.85380313" lon="13.57911522">
        <ele>156.00000</ele>
        <time>2024-03-21T13:57:08Z</time>
      </trkpt>
      <trkpt lat="42.85377664" lon="13.57916685">
        <ele>156.00000</ele>
        <time>2024-03-21T13:57:09Z</time>
      </trkpt>
      <trkpt lat="42.85377480" lon="13.57921698">
        <ele>156.00000</ele>
        <time>2024-03-21T13:57:10Z</time>
      </trkpt>
      <trkpt lat="42.85378024" lon="13.57927590">
        <ele>156.00000</ele>
        <time>2024-03-21T13:57:11Z</time>
      </trkpt>
      <trkpt lat="42.85379449" lon="13.57932602">
        <ele>156.00000</ele>
        <time>2024-03-21T13:57:12Z</time>
      </trkpt>
      <trkpt lat="42.85380313" lon="13.57939518">
        <ele>156.00000</ele>
        <time>2024-03-21T13:57:13Z</time>
      </trkpt>
      <trkpt lat="42.85380195" lon="13.57946307">
        <ele>155.00000</ele>
        <time>2024-03-21T13:57:14Z</time>
      </trkpt>
      <trkpt lat="42.85379835" lon="13.57953373">
        <ele>155.00000</ele>
        <time>2024-03-21T13:57:15Z</time>
      </trkpt>
      <trkpt lat="42.85379818" lon="13.57961210">
        <ele>155.00000</ele>
        <time>2024-03-21T13:57:16Z</time>
      </trkpt>
      <trkpt lat="42.85380204" lon="13.57969265">
        <ele>155.00000</ele>
        <time>2024-03-21T13:57:17Z</time>
      </trkpt>
      <trkpt lat="42.85381251" lon="13.57977110">
        <ele>155.00000</ele>
        <time>2024-03-21T13:57:18Z</time>
      </trkpt>
      <trkpt lat="42.85383045" lon="13.57985920">
        <ele>155.00000</ele>
        <time>2024-03-21T13:57:19Z</time>
      </trkpt>
      <trkpt lat="42.85387773" lon="13.57996447">
        <ele>155.00000</ele>
        <time>2024-03-21T13:57:20Z</time>
      </trkpt>
      <trkpt lat="42.85389089" lon="13.58005022">
        <ele>155.00000</ele>
        <time>2024-03-21T13:57:21Z</time>
      </trkpt>
      <trkpt lat="42.85389617" lon="13.58011887">
        <ele>156.00000</ele>
        <time>2024-03-21T13:57:22Z</time>
      </trkpt>
      <trkpt lat="42.85390161" lon="13.58022113">
        <ele>157.00000</ele>
        <time>2024-03-21T13:57:23Z</time>
      </trkpt>
      <trkpt lat="42.85390807" lon="13.58028173">
        <ele>157.00000</ele>
        <time>2024-03-21T13:57:24Z</time>
      </trkpt>
      <trkpt lat="42.85392114" lon="13.58036329">
        <ele>157.00000</ele>
        <time>2024-03-21T13:57:25Z</time>
      </trkpt>
      <trkpt lat="42.85393632" lon="13.58042950">
        <ele>157.00000</ele>
        <time>2024-03-21T13:57:26Z</time>
      </trkpt>
      <trkpt lat="42.85395719" lon="13.58050108">
        <ele>157.00000</ele>
        <time>2024-03-21T13:57:27Z</time>
      </trkpt>
      <trkpt lat="42.85396381" lon="13.58055632">
        <ele>157.00000</ele>
        <time>2024-03-21T13:57:28Z</time>
      </trkpt>
      <trkpt lat="42.85398619" lon="13.58062782">
        <ele>157.00000</ele>
        <time>2024-03-21T13:57:29Z</time>
      </trkpt>
      <trkpt lat="42.85400605" lon="13.58070476">
        <ele>157.00000</ele>
        <time>2024-03-21T13:57:30Z</time>
      </trkpt>
      <trkpt lat="42.85399834" lon="13.58078397">
        <ele>157.00000</ele>
        <time>2024-03-21T13:57:31Z</time>
      </trkpt>
      <trkpt lat="42.85401452" lon="13.58085329">
        <ele>157.00000</ele>
        <time>2024-03-21T13:57:32Z</time>
      </trkpt>
      <trkpt lat="42.85403765" lon="13.58090786">
        <ele>156.00000</ele>
        <time>2024-03-21T13:57:33Z</time>
      </trkpt>
      <trkpt lat="42.85404469" lon="13.58096494">
        <ele>156.00000</ele>
        <time>2024-03-21T13:57:34Z</time>
      </trkpt>
      <trkpt lat="42.85403950" lon="13.58100475">
        <ele>156.00000</ele>
        <time>2024-03-21T13:57:35Z</time>
      </trkpt>
      <trkpt lat="42.85406003" lon="13.58105664">
        <ele>156.00000</ele>
        <time>2024-03-21T13:57:36Z</time>
      </trkpt>
      <trkpt lat="42.85398677" lon="13.58110249">
        <ele>157.00000</ele>
        <time>2024-03-21T13:57:37Z</time>
      </trkpt>
      <trkpt lat="42.85394269" lon="13.58114624">
        <ele>158.00000</ele>
        <time>2024-03-21T13:57:38Z</time>
      </trkpt>
      <trkpt lat="42.85390681" lon="13.58121229">
        <ele>158.00000</ele>
        <time>2024-03-21T13:57:39Z</time>
      </trkpt>
      <trkpt lat="42.85389700" lon="13.58128873">
        <ele>158.00000</ele>
        <time>2024-03-21T13:57:40Z</time>
      </trkpt>
      <trkpt lat="42.85390396" lon="13.58137448">
        <ele>157.00000</ele>
        <time>2024-03-21T13:57:41Z</time>
      </trkpt>
      <trkpt lat="42.85390220" lon="13.58145461">
        <ele>157.00000</ele>
        <time>2024-03-21T13:57:42Z</time>
      </trkpt>
      <trkpt lat="42.85390773" lon="13.58153684">
        <ele>157.00000</ele>
        <time>2024-03-21T13:57:43Z</time>
      </trkpt>
      <trkpt lat="42.85391511" lon="13.58162283">
        <ele>156.00000</ele>
        <time>2024-03-21T13:57:44Z</time>
      </trkpt>
      <trkpt lat="42.85392642" lon="13.58171386">
        <ele>156.00000</ele>
        <time>2024-03-21T13:57:45Z</time>
      </trkpt>
      <trkpt lat="42.85395601" lon="13.58182149">
        <ele>155.00000</ele>
        <time>2024-03-21T13:57:46Z</time>
      </trkpt>
      <trkpt lat="42.85394285" lon="13.58190656">
        <ele>154.00000</ele>
        <time>2024-03-21T13:57:47Z</time>
      </trkpt>
      <trkpt lat="42.85393648" lon="13.58199440">
        <ele>154.00000</ele>
        <time>2024-03-21T13:57:48Z</time>
      </trkpt>
      <trkpt lat="42.85392391" lon="13.58205987">
        <ele>153.00000</ele>
        <time>2024-03-21T13:57:49Z</time>
      </trkpt>
      <trkpt lat="42.85391855" lon="13.58214461">
        <ele>152.00000</ele>
        <time>2024-03-21T13:57:50Z</time>
      </trkpt>
      <trkpt lat="42.85391419" lon="13.58223379">
        <ele>151.00000</ele>
        <time>2024-03-21T13:57:51Z</time>
      </trkpt>
      <trkpt lat="42.85391050" lon="13.58233789">
        <ele>150.00000</ele>
        <time>2024-03-21T13:57:52Z</time>
      </trkpt>
      <trkpt lat="42.85391394" lon="13.58242590">
        <ele>150.00000</ele>
        <time>2024-03-21T13:57:53Z</time>
      </trkpt>
      <trkpt lat="42.85391477" lon="13.58249564">
        <ele>149.00000</ele>
        <time>2024-03-21T13:57:54Z</time>
      </trkpt>
      <trkpt lat="42.85391435" lon="13.58258298">
        <ele>149.00000</ele>
        <time>2024-03-21T13:57:55Z</time>
      </trkpt>
      <trkpt lat="42.85391167" lon="13.58267099">
        <ele>149.00000</ele>
        <time>2024-03-21T13:57:56Z</time>
      </trkpt>
      <trkpt lat="42.85390949" lon="13.58277945">
        <ele>149.00000</ele>
        <time>2024-03-21T13:57:57Z</time>
      </trkpt>
      <trkpt lat="42.85390916" lon="13.58287048">
        <ele>149.00000</ele>
        <time>2024-03-21T13:57:58Z</time>
      </trkpt>
      <trkpt lat="42.85390882" lon="13.58296142">
        <ele>149.00000</ele>
        <time>2024-03-21T13:57:59Z</time>
      </trkpt>
      <trkpt lat="42.85390874" lon="13.58303426">
        <ele>149.00000</ele>
        <time>2024-03-21T13:58:00Z</time>
      </trkpt>
      <trkpt lat="42.85391050" lon="13.58312504">
        <ele>150.00000</ele>
        <time>2024-03-21T13:58:01Z</time>
      </trkpt>
      <trkpt lat="42.85391419" lon="13.58321473">
        <ele>150.00000</ele>
        <time>2024-03-21T13:58:02Z</time>
      </trkpt>
      <trkpt lat="42.85391729" lon="13.58331782">
        <ele>150.00000</ele>
        <time>2024-03-21T13:58:03Z</time>
      </trkpt>
      <trkpt lat="42.85392173" lon="13.58340516">
        <ele>151.00000</ele>
        <time>2024-03-21T13:58:04Z</time>
      </trkpt>
      <trkpt lat="42.85392299" lon="13.58347498">
        <ele>151.00000</ele>
        <time>2024-03-21T13:58:05Z</time>
      </trkpt>
      <trkpt lat="42.85392508" lon="13.58356048">
        <ele>152.00000</ele>
        <time>2024-03-21T13:58:06Z</time>
      </trkpt>
      <trkpt lat="42.85392609" lon="13.58364002">
        <ele>153.00000</ele>
        <time>2024-03-21T13:58:07Z</time>
      </trkpt>
      <trkpt lat="42.85392978" lon="13.58373943">
        <ele>154.00000</ele>
        <time>2024-03-21T13:58:08Z</time>
      </trkpt>
      <trkpt lat="42.85393481" lon="13.58383415">
        <ele>155.00000</ele>
        <time>2024-03-21T13:58:09Z</time>
      </trkpt>
      <trkpt lat="42.85393917" lon="13.58393825">
        <ele>156.00000</ele>
        <time>2024-03-21T13:58:10Z</time>
      </trkpt>
      <trkpt lat="42.85394210" lon="13.58404789">
        <ele>158.00000</ele>
        <time>2024-03-21T13:58:11Z</time>
      </trkpt>
      <trkpt lat="42.85394746" lon="13.58415618">
        <ele>159.00000</ele>
        <time>2024-03-21T13:58:12Z</time>
      </trkpt>
      <trkpt lat="42.85395417" lon="13.58426154">
        <ele>160.00000</ele>
        <time>2024-03-21T13:58:13Z</time>
      </trkpt>
      <trkpt lat="42.85395861" lon="13.58436422">
        <ele>160.00000</ele>
        <time>2024-03-21T13:58:14Z</time>
      </trkpt>
      <trkpt lat="42.85396113" lon="13.58446304">
        <ele>160.00000</ele>
        <time>2024-03-21T13:58:15Z</time>
      </trkpt>
      <trkpt lat="42.85396406" lon="13.58454267">
        <ele>159.00000</ele>
        <time>2024-03-21T13:58:16Z</time>
      </trkpt>
      <trkpt lat="42.85396783" lon="13.58464367">
        <ele>156.00000</ele>
        <time>2024-03-21T13:58:17Z</time>
      </trkpt>
      <trkpt lat="42.85397429" lon="13.58474493">
        <ele>154.00000</ele>
        <time>2024-03-21T13:58:18Z</time>
      </trkpt>
      <trkpt lat="42.85398258" lon="13.58486361">
        <ele>150.00000</ele>
        <time>2024-03-21T13:58:19Z</time>
      </trkpt>
      <trkpt lat="42.85398619" lon="13.58496487">
        <ele>147.00000</ele>
        <time>2024-03-21T13:58:20Z</time>
      </trkpt>
      <trkpt lat="42.85399122" lon="13.58504667">
        <ele>145.00000</ele>
        <time>2024-03-21T13:58:21Z</time>
      </trkpt>
      <trkpt lat="42.85399918" lon="13.58514986">
        <ele>141.00000</ele>
        <time>2024-03-21T13:58:22Z</time>
      </trkpt>
      <trkpt lat="42.85400387" lon="13.58525278">
        <ele>137.00000</ele>
        <time>2024-03-21T13:58:23Z</time>
      </trkpt>
      <trkpt lat="42.85400731" lon="13.58537164">
        <ele>134.00000</ele>
        <time>2024-03-21T13:58:24Z</time>
      </trkpt>
      <trkpt lat="42.85401008" lon="13.58547080">
        <ele>131.00000</ele>
        <time>2024-03-21T13:58:25Z</time>
      </trkpt>
      <trkpt lat="42.85401351" lon="13.58557113">
        <ele>130.00000</ele>
        <time>2024-03-21T13:58:26Z</time>
      </trkpt>
      <trkpt lat="42.85401821" lon="13.58565168">
        <ele>130.00000</ele>
        <time>2024-03-21T13:58:27Z</time>
      </trkpt>
      <trkpt lat="42.85402223" lon="13.58575151">
        <ele>131.00000</ele>
        <time>2024-03-21T13:58:28Z</time>
      </trkpt>
      <trkpt lat="42.85402718" lon="13.58585075">
        <ele>132.00000</ele>
        <time>2024-03-21T13:58:29Z</time>
      </trkpt>
      <trkpt lat="42.85403179" lon="13.58596818">
        <ele>134.00000</ele>
        <time>2024-03-21T13:58:30Z</time>
      </trkpt>
      <trkpt lat="42.85403564" lon="13.58606424">
        <ele>136.00000</ele>
        <time>2024-03-21T13:58:31Z</time>
      </trkpt>
      <trkpt lat="42.85403908" lon="13.58613590">
        <ele>137.00000</ele>
        <time>2024-03-21T13:58:32Z</time>
      </trkpt>
      <trkpt lat="42.85404159" lon="13.58622341">
        <ele>138.00000</ele>
        <time>2024-03-21T13:58:33Z</time>
      </trkpt>
      <trkpt lat="42.85403656" lon="13.58631058">
        <ele>140.00000</ele>
        <time>2024-03-21T13:58:34Z</time>
      </trkpt>
      <trkpt lat="42.85402726" lon="13.58641519">
        <ele>141.00000</ele>
        <time>2024-03-21T13:58:35Z</time>
      </trkpt>
      <trkpt lat="42.85402282" lon="13.58650479">
        <ele>143.00000</ele>
        <time>2024-03-21T13:58:36Z</time>
      </trkpt>
      <trkpt lat="42.85402265" lon="13.58657687">
        <ele>145.00000</ele>
        <time>2024-03-21T13:58:37Z</time>
      </trkpt>
      <trkpt lat="42.85402139" lon="13.58666857">
        <ele>147.00000</ele>
        <time>2024-03-21T13:58:38Z</time>
      </trkpt>
      <trkpt lat="42.85402500" lon="13.58675734">
        <ele>148.00000</ele>
        <time>2024-03-21T13:58:39Z</time>
      </trkpt>
      <trkpt lat="42.85403078" lon="13.58686404">
        <ele>150.00000</ele>
        <time>2024-03-21T13:58:40Z</time>
      </trkpt>
      <trkpt lat="42.85403732" lon="13.58695163">
        <ele>151.00000</ele>
        <time>2024-03-21T13:58:41Z</time>
      </trkpt>
      <trkpt lat="42.85404369" lon="13.58703905">
        <ele>151.00000</ele>
        <time>2024-03-21T13:58:42Z</time>
      </trkpt>
      <trkpt lat="42.85404570" lon="13.58710778">
        <ele>151.00000</ele>
        <time>2024-03-21T13:58:43Z</time>
      </trkpt>
      <trkpt lat="42.85404704" lon="13.58719026">
        <ele>151.00000</ele>
        <time>2024-03-21T13:58:44Z</time>
      </trkpt>
      <trkpt lat="42.85405023" lon="13.58727224">
        <ele>151.00000</ele>
        <time>2024-03-21T13:58:45Z</time>
      </trkpt>
      <trkpt lat="42.85405450" lon="13.58735245">
        <ele>151.00000</ele>
        <time>2024-03-21T13:58:46Z</time>
      </trkpt>
      <trkpt lat="42.85406137" lon="13.58742998">
        <ele>150.00000</ele>
        <time>2024-03-21T13:58:47Z</time>
      </trkpt>
      <trkpt lat="42.85406665" lon="13.58750718">
        <ele>150.00000</ele>
        <time>2024-03-21T13:58:48Z</time>
      </trkpt>
      <trkpt lat="42.85407143" lon="13.58758522">
        <ele>149.00000</ele>
        <time>2024-03-21T13:58:49Z</time>
      </trkpt>
      <trkpt lat="42.85407545" lon="13.58766082">
        <ele>149.00000</ele>
        <time>2024-03-21T13:58:50Z</time>
      </trkpt>
      <trkpt lat="42.85408317" lon="13.58773433">
        <ele>148.00000</ele>
        <time>2024-03-21T13:58:51Z</time>
      </trkpt>
      <trkpt lat="42.85407646" lon="13.58781421">
        <ele>148.00000</ele>
        <time>2024-03-21T13:58:52Z</time>
      </trkpt>
      <trkpt lat="42.85403681" lon="13.58786903">
        <ele>148.00000</ele>
        <time>2024-03-21T13:58:53Z</time>
      </trkpt>
      <trkpt lat="42.85399457" lon="13.58790339">
        <ele>148.00000</ele>
        <time>2024-03-21T13:58:54Z</time>
      </trkpt>
      <trkpt lat="42.85395643" lon="13.58793952">
        <ele>149.00000</ele>
        <time>2024-03-21T13:58:55Z</time>
      </trkpt>
      <trkpt lat="42.85390757" lon="13.58797338">
        <ele>149.00000</ele>
        <time>2024-03-21T13:58:56Z</time>
      </trkpt>
      <trkpt lat="42.85386440" lon="13.58799140">
        <ele>149.00000</ele>
        <time>2024-03-21T13:58:57Z</time>
      </trkpt>
      <trkpt lat="42.85381947" lon="13.58800255">
        <ele>149.00000</ele>
        <time>2024-03-21T13:58:58Z</time>
      </trkpt>
      <trkpt lat="42.85378234" lon="13.58801596">
        <ele>149.00000</ele>
        <time>2024-03-21T13:58:59Z</time>
      </trkpt>
      <trkpt lat="42.85373641" lon="13.58802652">
        <ele>150.00000</ele>
        <time>2024-03-21T13:59:00Z</time>
      </trkpt>
      <trkpt lat="42.85369173" lon="13.58803231">
        <ele>150.00000</ele>
        <time>2024-03-21T13:59:01Z</time>
      </trkpt>
      <trkpt lat="42.85364328" lon="13.58803340">
        <ele>150.00000</ele>
        <time>2024-03-21T13:59:02Z</time>
      </trkpt>
      <trkpt lat="42.85360397" lon="13.58803533">
        <ele>151.00000</ele>
        <time>2024-03-21T13:59:03Z</time>
      </trkpt>
      <trkpt lat="42.85356810" lon="13.58804455">
        <ele>151.00000</ele>
        <time>2024-03-21T13:59:04Z</time>
      </trkpt>
      <trkpt lat="42.85352518" lon="13.58805779">
        <ele>151.00000</ele>
        <time>2024-03-21T13:59:05Z</time>
      </trkpt>
      <trkpt lat="42.85348302" lon="13.58806860">
        <ele>152.00000</ele>
        <time>2024-03-21T13:59:06Z</time>
      </trkpt>
      <trkpt lat="42.85342745" lon="13.58807036">
        <ele>152.00000</ele>
        <time>2024-03-21T13:59:07Z</time>
      </trkpt>
      <trkpt lat="42.85336073" lon="13.58807774">
        <ele>153.00000</ele>
        <time>2024-03-21T13:59:08Z</time>
      </trkpt>
      <trkpt lat="42.85328513" lon="13.58808235">
        <ele>154.00000</ele>
        <time>2024-03-21T13:59:09Z</time>
      </trkpt>
      <trkpt lat="42.85322645" lon="13.58808830">
        <ele>154.00000</ele>
        <time>2024-03-21T13:59:10Z</time>
      </trkpt>
      <trkpt lat="42.85315529" lon="13.58810121">
        <ele>154.00000</ele>
        <time>2024-03-21T13:59:11Z</time>
      </trkpt>
      <trkpt lat="42.85307507" lon="13.58810389">
        <ele>154.00000</ele>
        <time>2024-03-21T13:59:12Z</time>
      </trkpt>
      <trkpt lat="42.85301280" lon="13.58810850">
        <ele>154.00000</ele>
        <time>2024-03-21T13:59:13Z</time>
      </trkpt>
      <trkpt lat="42.85294608" lon="13.58811043">
        <ele>154.00000</ele>
        <time>2024-03-21T13:59:14Z</time>
      </trkpt>
      <trkpt lat="42.85289235" lon="13.58811110">
        <ele>154.00000</ele>
        <time>2024-03-21T13:59:15Z</time>
      </trkpt>
      <trkpt lat="42.85281993" lon="13.58810741">
        <ele>154.00000</ele>
        <time>2024-03-21T13:59:16Z</time>
      </trkpt>
      <trkpt lat="42.85275212" lon="13.58810766">
        <ele>154.00000</ele>
        <time>2024-03-21T13:59:17Z</time>
      </trkpt>
      <trkpt lat="42.85267040" lon="13.58810330">
        <ele>153.00000</ele>
        <time>2024-03-21T13:59:18Z</time>
      </trkpt>
      <trkpt lat="42.85260074" lon="13.58809576">
        <ele>153.00000</ele>
        <time>2024-03-21T13:59:19Z</time>
      </trkpt>
      <trkpt lat="42.85254810" lon="13.58809526">
        <ele>153.00000</ele>
        <time>2024-03-21T13:59:20Z</time>
      </trkpt>
      <trkpt lat="42.85248046" lon="13.58810640">
        <ele>153.00000</ele>
        <time>2024-03-21T13:59:21Z</time>
      </trkpt>
      <trkpt lat="42.85239614" lon="13.58812568">
        <ele>152.00000</ele>
        <time>2024-03-21T13:59:22Z</time>
      </trkpt>
      <trkpt lat="42.85232917" lon="13.58812157">
        <ele>152.00000</ele>
        <time>2024-03-21T13:59:23Z</time>
      </trkpt>
      <trkpt lat="42.85226890" lon="13.58812040">
        <ele>151.00000</ele>
        <time>2024-03-21T13:59:24Z</time>
      </trkpt>
      <trkpt lat="42.85220495" lon="13.58811428">
        <ele>151.00000</ele>
        <time>2024-03-21T13:59:25Z</time>
      </trkpt>
      <trkpt lat="42.85215281" lon="13.58811847">
        <ele>151.00000</ele>
        <time>2024-03-21T13:59:26Z</time>
      </trkpt>
      <trkpt lat="42.85209054" lon="13.58813691">
        <ele>151.00000</ele>
        <time>2024-03-21T13:59:27Z</time>
      </trkpt>
      <trkpt lat="42.85202038" lon="13.58815602">
        <ele>151.00000</ele>
        <time>2024-03-21T13:59:28Z</time>
      </trkpt>
      <trkpt lat="42.85196824" lon="13.58821369">
        <ele>151.00000</ele>
        <time>2024-03-21T13:59:29Z</time>
      </trkpt>
      <trkpt lat="42.85193958" lon="13.58827890">
        <ele>151.00000</ele>
        <time>2024-03-21T13:59:30Z</time>
      </trkpt>
      <trkpt lat="42.85192374" lon="13.58834772">
        <ele>151.00000</ele>
        <time>2024-03-21T13:59:31Z</time>
      </trkpt>
      <trkpt lat="42.85189809" lon="13.58842886">
        <ele>151.00000</ele>
        <time>2024-03-21T13:59:32Z</time>
      </trkpt>
      <trkpt lat="42.85187219" lon="13.58852860">
        <ele>152.00000</ele>
        <time>2024-03-21T13:59:33Z</time>
      </trkpt>
      <trkpt lat="42.85185291" lon="13.58861586">
        <ele>152.00000</ele>
        <time>2024-03-21T13:59:34Z</time>
      </trkpt>
      <trkpt lat="42.85183304" lon="13.58870630">
        <ele>153.00000</ele>
        <time>2024-03-21T13:59:35Z</time>
      </trkpt>
      <trkpt lat="42.85181410" lon="13.58879925">
        <ele>153.00000</ele>
        <time>2024-03-21T13:59:36Z</time>
      </trkpt>
      <trkpt lat="42.85179885" lon="13.58887243">
        <ele>154.00000</ele>
        <time>2024-03-21T13:59:37Z</time>
      </trkpt>
      <trkpt lat="42.85177798" lon="13.58896312">
        <ele>154.00000</ele>
        <time>2024-03-21T13:59:38Z</time>
      </trkpt>
      <trkpt lat="42.85175761" lon="13.58907317">
        <ele>154.00000</ele>
        <time>2024-03-21T13:59:39Z</time>
      </trkpt>
      <trkpt lat="42.85173757" lon="13.58916722">
        <ele>154.00000</ele>
        <time>2024-03-21T13:59:40Z</time>
      </trkpt>
      <trkpt lat="42.85171947" lon="13.58926545">
        <ele>154.00000</ele>
        <time>2024-03-21T13:59:41Z</time>
      </trkpt>
      <trkpt lat="42.85170480" lon="13.58936679">
        <ele>154.00000</ele>
        <time>2024-03-21T13:59:42Z</time>
      </trkpt>
      <trkpt lat="42.85169701" lon="13.58945002">
        <ele>154.00000</ele>
        <time>2024-03-21T13:59:43Z</time>
      </trkpt>
      <trkpt lat="42.85168460" lon="13.58955656">
        <ele>154.00000</ele>
        <time>2024-03-21T13:59:44Z</time>
      </trkpt>
      <trkpt lat="42.85166784" lon="13.58968002">
        <ele>154.00000</ele>
        <time>2024-03-21T13:59:45Z</time>
      </trkpt>
      <trkpt lat="42.85165443" lon="13.58978530">
        <ele>153.00000</ele>
        <time>2024-03-21T13:59:46Z</time>
      </trkpt>
      <trkpt lat="42.85164454" lon="13.58987046">
        <ele>153.00000</ele>
        <time>2024-03-21T13:59:47Z</time>
      </trkpt>
      <trkpt lat="42.85163213" lon="13.58997741">
        <ele>153.00000</ele>
        <time>2024-03-21T13:59:48Z</time>
      </trkpt>
      <trkpt lat="42.85163121" lon="13.59008596">
        <ele>153.00000</ele>
        <time>2024-03-21T13:59:49Z</time>
      </trkpt>
      <trkpt lat="42.85162551" lon="13.59021596">
        <ele>154.00000</ele>
        <time>2024-03-21T13:59:50Z</time>
      </trkpt>
      <trkpt lat="42.85160958" lon="13.59032493">
        <ele>154.00000</ele>
        <time>2024-03-21T13:59:51Z</time>
      </trkpt>
      <trkpt lat="42.85159156" lon="13.59043490">
        <ele>154.00000</ele>
        <time>2024-03-21T13:59:52Z</time>
      </trkpt>
      <trkpt lat="42.85157714" lon="13.59052450">
        <ele>155.00000</ele>
        <time>2024-03-21T13:59:53Z</time>
      </trkpt>
      <trkpt lat="42.85156382" lon="13.59063355">
        <ele>155.00000</ele>
        <time>2024-03-21T13:59:54Z</time>
      </trkpt>
      <trkpt lat="42.85155208" lon="13.59076707">
        <ele>155.00000</ele>
        <time>2024-03-21T13:59:55Z</time>
      </trkpt>
      <trkpt lat="42.85154529" lon="13.59087796">
        <ele>155.00000</ele>
        <time>2024-03-21T13:59:56Z</time>
      </trkpt>
      <trkpt lat="42.85153515" lon="13.59098299">
        <ele>155.00000</ele>
        <time>2024-03-21T13:59:57Z</time>
      </trkpt>
      <trkpt lat="42.85152459" lon="13.59106346">
        <ele>155.00000</ele>
        <time>2024-03-21T13:59:58Z</time>
      </trkpt>
      <trkpt lat="42.85151218" lon="13.59117435">
        <ele>154.00000</ele>
        <time>2024-03-21T13:59:59Z</time>
      </trkpt>
      <trkpt lat="42.85150540" lon="13.59124383">
        <ele>154.00000</ele>
        <time>2024-03-21T14:00:00Z</time>
      </trkpt>
      <trkpt lat="42.85149869" lon="13.59134006">
        <ele>153.00000</ele>
        <time>2024-03-21T14:00:01Z</time>
      </trkpt>
      <trkpt lat="42.85150020" lon="13.59141357">
        <ele>153.00000</ele>
        <time>2024-03-21T14:00:02Z</time>
      </trkpt>
      <trkpt lat="42.85150741" lon="13.59148817">
        <ele>153.00000</ele>
        <time>2024-03-21T14:00:03Z</time>
      </trkpt>
      <trkpt lat="42.85150498" lon="13.59154642">
        <ele>153.00000</ele>
        <time>2024-03-21T14:00:04Z</time>
      </trkpt>
      <trkpt lat="42.85149877" lon="13.59161465">
        <ele>152.00000</ele>
        <time>2024-03-21T14:00:05Z</time>
      </trkpt>
      <trkpt lat="42.85149165" lon="13.59168715">
        <ele>152.00000</ele>
        <time>2024-03-21T14:00:06Z</time>
      </trkpt>
      <trkpt lat="42.85148654" lon="13.59174138">
        <ele>152.00000</ele>
        <time>2024-03-21T14:00:07Z</time>
      </trkpt>
      <trkpt lat="42.85148369" lon="13.59178765">
        <ele>151.00000</ele>
        <time>2024-03-21T14:00:08Z</time>
      </trkpt>
      <trkpt lat="42.85148167" lon="13.59182302">
        <ele>151.00000</ele>
        <time>2024-03-21T14:00:09Z</time>
      </trkpt>
      <trkpt lat="42.85148285" lon="13.59184674">
        <ele>151.00000</ele>
        <time>2024-03-21T14:00:10Z</time>
      </trkpt>
      <trkpt lat="42.85149048" lon="13.59187524">
        <ele>151.00000</ele>
        <time>2024-03-21T14:00:11Z</time>
      </trkpt>
      <trkpt lat="42.85149760" lon="13.59189301">
        <ele>151.00000</ele>
        <time>2024-03-21T14:00:12Z</time>
      </trkpt>
      <trkpt lat="42.85149492" lon="13.59190735">
        <ele>151.00000</ele>
        <time>2024-03-21T14:00:13Z</time>
      </trkpt>
      <trkpt lat="42.85148411" lon="13.59192159">
        <ele>151.00000</ele>
        <time>2024-03-21T14:00:14Z</time>
      </trkpt>
      <trkpt lat="42.85145921" lon="13.59193635">
        <ele>151.00000</ele>
        <time>2024-03-21T14:00:15Z</time>
      </trkpt>
      <trkpt lat="42.85143784" lon="13.59194959">
        <ele>150.00000</ele>
        <time>2024-03-21T14:00:16Z</time>
      </trkpt>
      <trkpt lat="42.85141663" lon="13.59197046">
        <ele>150.00000</ele>
        <time>2024-03-21T14:00:17Z</time>
      </trkpt>
      <trkpt lat="42.85140783" lon="13.59200759">
        <ele>150.00000</ele>
        <time>2024-03-21T14:00:18Z</time>
      </trkpt>
      <trkpt lat="42.85140682" lon="13.59204757">
        <ele>150.00000</ele>
        <time>2024-03-21T14:00:19Z</time>
      </trkpt>
      <trkpt lat="42.85140481" lon="13.59209879">
        <ele>150.00000</ele>
        <time>2024-03-21T14:00:20Z</time>
      </trkpt>
      <trkpt lat="42.85140724" lon="13.59216635">
        <ele>150.00000</ele>
        <time>2024-03-21T14:00:21Z</time>
      </trkpt>
      <trkpt lat="42.85141009" lon="13.59224363">
        <ele>149.00000</ele>
        <time>2024-03-21T14:00:22Z</time>
      </trkpt>
      <trkpt lat="42.85141554" lon="13.59232451">
        <ele>149.00000</ele>
        <time>2024-03-21T14:00:23Z</time>
      </trkpt>
      <trkpt lat="42.85139945" lon="13.59238620">
        <ele>149.00000</ele>
        <time>2024-03-21T14:00:24Z</time>
      </trkpt>
      <trkpt lat="42.85138478" lon="13.59248637">
        <ele>149.00000</ele>
        <time>2024-03-21T14:00:25Z</time>
      </trkpt>
      <trkpt lat="42.85136391" lon="13.59256256">
        <ele>149.00000</ele>
        <time>2024-03-21T14:00:26Z</time>
      </trkpt>
      <trkpt lat="42.85135645" lon="13.59267395">
        <ele>148.00000</ele>
        <time>2024-03-21T14:00:27Z</time>
      </trkpt>
      <trkpt lat="42.85135176" lon="13.59277227">
        <ele>148.00000</ele>
        <time>2024-03-21T14:00:28Z</time>
      </trkpt>
      <trkpt lat="42.85134790" lon="13.59285417">
        <ele>147.00000</ele>
        <time>2024-03-21T14:00:29Z</time>
      </trkpt>
      <trkpt lat="42.85134203" lon="13.59295332">
        <ele>147.00000</ele>
        <time>2024-03-21T14:00:30Z</time>
      </trkpt>
      <trkpt lat="42.85134362" lon="13.59305818">
        <ele>147.00000</ele>
        <time>2024-03-21T14:00:31Z</time>
      </trkpt>
      <trkpt lat="42.85133399" lon="13.59317905">
        <ele>146.00000</ele>
        <time>2024-03-21T14:00:32Z</time>
      </trkpt>
      <trkpt lat="42.85131806" lon="13.59327695">
        <ele>146.00000</ele>
        <time>2024-03-21T14:00:33Z</time>
      </trkpt>
      <trkpt lat="42.85128981" lon="13.59337485">
        <ele>146.00000</ele>
        <time>2024-03-21T14:00:34Z</time>
      </trkpt>
      <trkpt lat="42.85127732" lon="13.59345456">
        <ele>146.00000</ele>
        <time>2024-03-21T14:00:35Z</time>
      </trkpt>
      <trkpt lat="42.85126794" lon="13.59355766">
        <ele>146.00000</ele>
        <time>2024-03-21T14:00:36Z</time>
      </trkpt>
      <trkpt lat="42.85126081" lon="13.59366293">
        <ele>145.00000</ele>
        <time>2024-03-21T14:00:37Z</time>
      </trkpt>
      <trkpt lat="42.85124891" lon="13.59378866">
        <ele>145.00000</ele>
        <time>2024-03-21T14:00:38Z</time>
      </trkpt>
      <trkpt lat="42.85123969" lon="13.59389595">
        <ele>145.00000</ele>
        <time>2024-03-21T14:00:39Z</time>
      </trkpt>
      <trkpt lat="42.85123852" lon="13.59398270">
        <ele>145.00000</ele>
        <time>2024-03-21T14:00:40Z</time>
      </trkpt>
      <trkpt lat="42.85123106" lon="13.59408698">
        <ele>145.00000</ele>
        <time>2024-03-21T14:00:41Z</time>
      </trkpt>
      <trkpt lat="42.85121924" lon="13.59421631">
        <ele>144.00000</ele>
        <time>2024-03-21T14:00:42Z</time>
      </trkpt>
      <trkpt lat="42.85121161" lon="13.59432527">
        <ele>144.00000</ele>
        <time>2024-03-21T14:00:43Z</time>
      </trkpt>
      <trkpt lat="42.85119920" lon="13.59443650">
        <ele>143.00000</ele>
        <time>2024-03-21T14:00:44Z</time>
      </trkpt>
      <trkpt lat="42.85119107" lon="13.59454463">
        <ele>143.00000</ele>
        <time>2024-03-21T14:00:45Z</time>
      </trkpt>
      <trkpt lat="42.85118982" lon="13.59463054">
        <ele>143.00000</ele>
        <time>2024-03-21T14:00:46Z</time>
      </trkpt>
      <trkpt lat="42.85119141" lon="13.59476113">
        <ele>142.00000</ele>
        <time>2024-03-21T14:00:47Z</time>
      </trkpt>
      <trkpt lat="42.85119937" lon="13.59487244">
        <ele>141.00000</ele>
        <time>2024-03-21T14:00:48Z</time>
      </trkpt>
      <trkpt lat="42.85120080" lon="13.59498124">
        <ele>141.00000</ele>
        <time>2024-03-21T14:00:49Z</time>
      </trkpt>
      <trkpt lat="42.85118948" lon="13.59508786">
        <ele>140.00000</ele>
        <time>2024-03-21T14:00:50Z</time>
      </trkpt>
      <trkpt lat="42.85118320" lon="13.59517344">
        <ele>140.00000</ele>
        <time>2024-03-21T14:00:51Z</time>
      </trkpt>
      <trkpt lat="42.85115730" lon="13.59527821">
        <ele>139.00000</ele>
        <time>2024-03-21T14:00:52Z</time>
      </trkpt>
      <trkpt lat="42.85111547" lon="13.59538584">
        <ele>139.00000</ele>
        <time>2024-03-21T14:00:53Z</time>
      </trkpt>
      <trkpt lat="42.85107088" lon="13.59550938">
        <ele>139.00000</ele>
        <time>2024-03-21T14:00:54Z</time>
      </trkpt>
      <trkpt lat="42.85103282" lon="13.59561491">
        <ele>139.00000</ele>
        <time>2024-03-21T14:00:55Z</time>
      </trkpt>
      <trkpt lat="42.85100910" lon="13.59569949">
        <ele>139.00000</ele>
        <time>2024-03-21T14:00:56Z</time>
      </trkpt>
      <trkpt lat="42.85098337" lon="13.59580703">
        <ele>139.00000</ele>
        <time>2024-03-21T14:00:57Z</time>
      </trkpt>
      <trkpt lat="42.85096124" lon="13.59591415">
        <ele>139.00000</ele>
        <time>2024-03-21T14:00:58Z</time>
      </trkpt>
      <trkpt lat="42.85092889" lon="13.59603904">
        <ele>139.00000</ele>
        <time>2024-03-21T14:00:59Z</time>
      </trkpt>
      <trkpt lat="42.85090383" lon="13.59613962">
        <ele>139.00000</ele>
        <time>2024-03-21T14:01:00Z</time>
      </trkpt>
      <trkpt lat="42.85087021" lon="13.59624406">
        <ele>139.00000</ele>
        <time>2024-03-21T14:01:01Z</time>
      </trkpt>
      <trkpt lat="42.85084675" lon="13.59632989">
        <ele>139.00000</ele>
        <time>2024-03-21T14:01:02Z</time>
      </trkpt>
      <trkpt lat="42.85082688" lon="13.59643818">
        <ele>140.00000</ele>
        <time>2024-03-21T14:01:03Z</time>
      </trkpt>
      <trkpt lat="42.85079746" lon="13.59656869">
        <ele>140.00000</ele>
        <time>2024-03-21T14:01:04Z</time>
      </trkpt>
      <trkpt lat="42.85076175" lon="13.59667522">
        <ele>140.00000</ele>
        <time>2024-03-21T14:01:05Z</time>
      </trkpt>
      <trkpt lat="42.85072965" lon="13.59677899">
        <ele>140.00000</ele>
        <time>2024-03-21T14:01:06Z</time>
      </trkpt>
      <trkpt lat="42.85069621" lon="13.59686197">
        <ele>140.00000</ele>
        <time>2024-03-21T14:01:07Z</time>
      </trkpt>
      <trkpt lat="42.85064508" lon="13.59695895">
        <ele>139.00000</ele>
        <time>2024-03-21T14:01:08Z</time>
      </trkpt>
      <trkpt lat="42.85061012" lon="13.59705802">
        <ele>139.00000</ele>
        <time>2024-03-21T14:01:09Z</time>
      </trkpt>
      <trkpt lat="42.85057274" lon="13.59717654">
        <ele>139.00000</ele>
        <time>2024-03-21T14:01:10Z</time>
      </trkpt>
      <trkpt lat="42.85054173" lon="13.59727688">
        <ele>138.00000</ele>
        <time>2024-03-21T14:01:11Z</time>
      </trkpt>
      <trkpt lat="42.85051692" lon="13.59735625">
        <ele>138.00000</ele>
        <time>2024-03-21T14:01:12Z</time>
      </trkpt>
      <trkpt lat="42.85048716" lon="13.59745734">
        <ele>137.00000</ele>
        <time>2024-03-21T14:01:13Z</time>
      </trkpt>
      <trkpt lat="42.85045615" lon="13.59755650">
        <ele>137.00000</ele>
        <time>2024-03-21T14:01:14Z</time>
      </trkpt>
      <trkpt lat="42.85041742" lon="13.59767435">
        <ele>136.00000</ele>
        <time>2024-03-21T14:01:15Z</time>
      </trkpt>
      <trkpt lat="42.85038591" lon="13.59777376">
        <ele>135.00000</ele>
        <time>2024-03-21T14:01:16Z</time>
      </trkpt>
      <trkpt lat="42.85035481" lon="13.59787224">
        <ele>135.00000</ele>
        <time>2024-03-21T14:01:17Z</time>
      </trkpt>
      <trkpt lat="42.85032950" lon="13.59795019">
        <ele>135.00000</ele>
        <time>2024-03-21T14:01:18Z</time>
      </trkpt>
      <trkpt lat="42.85030058" lon="13.59804441">
        <ele>135.00000</ele>
        <time>2024-03-21T14:01:19Z</time>
      </trkpt>
      <trkpt lat="42.85026412" lon="13.59815354">
        <ele>135.00000</ele>
        <time>2024-03-21T14:01:20Z</time>
      </trkpt>
      <trkpt lat="42.85022883" lon="13.59824080">
        <ele>135.00000</ele>
        <time>2024-03-21T14:01:21Z</time>
      </trkpt>
      <trkpt lat="42.85019078" lon="13.59832067">
        <ele>135.00000</ele>
        <time>2024-03-21T14:01:22Z</time>
      </trkpt>
      <trkpt lat="42.85014526" lon="13.59838312">
        <ele>135.00000</ele>
        <time>2024-03-21T14:01:23Z</time>
      </trkpt>
      <trkpt lat="42.85008944" lon="13.59842712">
        <ele>135.00000</ele>
        <time>2024-03-21T14:01:24Z</time>
      </trkpt>
      <trkpt lat="42.85003194" lon="13.59847222">
        <ele>134.00000</ele>
        <time>2024-03-21T14:01:25Z</time>
      </trkpt>
      <trkpt lat="42.84998978" lon="13.59853701">
        <ele>134.00000</ele>
        <time>2024-03-21T14:01:26Z</time>
      </trkpt>
      <trkpt lat="42.84996011" lon="13.59861781">
        <ele>133.00000</ele>
        <time>2024-03-21T14:01:27Z</time>
      </trkpt>
      <trkpt lat="42.84993723" lon="13.59870750">
        <ele>133.00000</ele>
        <time>2024-03-21T14:01:28Z</time>
      </trkpt>
      <trkpt lat="42.84990873" lon="13.59879794">
        <ele>132.00000</ele>
        <time>2024-03-21T14:01:29Z</time>
      </trkpt>
      <trkpt lat="42.84987629" lon="13.59888645">
        <ele>132.00000</ele>
        <time>2024-03-21T14:01:30Z</time>
      </trkpt>
      <trkpt lat="42.84984041" lon="13.59897371">
        <ele>131.00000</ele>
        <time>2024-03-21T14:01:31Z</time>
      </trkpt>
      <trkpt lat="42.84980571" lon="13.59906549">
        <ele>131.00000</ele>
        <time>2024-03-21T14:01:32Z</time>
      </trkpt>
      <trkpt lat="42.84976984" lon="13.59916021">
        <ele>130.00000</ele>
        <time>2024-03-21T14:01:33Z</time>
      </trkpt>
      <trkpt lat="42.84973388" lon="13.59925660">
        <ele>130.00000</ele>
        <time>2024-03-21T14:01:34Z</time>
      </trkpt>
      <trkpt lat="42.84970345" lon="13.59933354">
        <ele>130.00000</ele>
        <time>2024-03-21T14:01:35Z</time>
      </trkpt>
      <trkpt lat="42.84965953" lon="13.59944871">
        <ele>130.00000</ele>
        <time>2024-03-21T14:01:36Z</time>
      </trkpt>
      <trkpt lat="42.84962257" lon="13.59954418">
        <ele>129.00000</ele>
        <time>2024-03-21T14:01:37Z</time>
      </trkpt>
      <trkpt lat="42.84958770" lon="13.59963890">
        <ele>129.00000</ele>
        <time>2024-03-21T14:01:38Z</time>
      </trkpt>
      <trkpt lat="42.84955468" lon="13.59973638">
        <ele>129.00000</ele>
        <time>2024-03-21T14:01:39Z</time>
      </trkpt>
      <trkpt lat="42.84952383" lon="13.59983612">
        <ele>129.00000</ele>
        <time>2024-03-21T14:01:40Z</time>
      </trkpt>
      <trkpt lat="42.84950153" lon="13.59991692">
        <ele>129.00000</ele>
        <time>2024-03-21T14:01:41Z</time>
      </trkpt>
      <trkpt lat="42.84946968" lon="13.60004173">
        <ele>128.00000</ele>
        <time>2024-03-21T14:01:42Z</time>
      </trkpt>
      <trkpt lat="42.84944311" lon="13.60014894">
        <ele>128.00000</ele>
        <time>2024-03-21T14:01:43Z</time>
      </trkpt>
      <trkpt lat="42.84941788" lon="13.60025756">
        <ele>128.00000</ele>
        <time>2024-03-21T14:01:44Z</time>
      </trkpt>
      <trkpt lat="42.84939366" lon="13.60036821">
        <ele>128.00000</ele>
        <time>2024-03-21T14:01:45Z</time>
      </trkpt>
      <trkpt lat="42.84936692" lon="13.60048027">
        <ele>128.00000</ele>
        <time>2024-03-21T14:01:46Z</time>
      </trkpt>
      <trkpt lat="42.84933817" lon="13.60059167">
        <ele>128.00000</ele>
        <time>2024-03-21T14:01:47Z</time>
      </trkpt>
      <trkpt lat="42.84930758" lon="13.60070407">
        <ele>128.00000</ele>
        <time>2024-03-21T14:01:48Z</time>
      </trkpt>
      <trkpt lat="42.84927883" lon="13.60081572">
        <ele>128.00000</ele>
        <time>2024-03-21T14:01:49Z</time>
      </trkpt>
      <trkpt lat="42.84925150" lon="13.60092753">
        <ele>127.00000</ele>
        <time>2024-03-21T14:01:50Z</time>
      </trkpt>
      <trkpt lat="42.84922376" lon="13.60103976">
        <ele>127.00000</ele>
        <time>2024-03-21T14:01:51Z</time>
      </trkpt>
      <trkpt lat="42.84919492" lon="13.60115175">
        <ele>126.00000</ele>
        <time>2024-03-21T14:01:52Z</time>
      </trkpt>
      <trkpt lat="42.84916626" lon="13.60126205">
        <ele>126.00000</ele>
        <time>2024-03-21T14:01:53Z</time>
      </trkpt>
      <trkpt lat="42.84913893" lon="13.60137236">
        <ele>125.00000</ele>
        <time>2024-03-21T14:01:54Z</time>
      </trkpt>
      <trkpt lat="42.84911060" lon="13.60148468">
        <ele>125.00000</ele>
        <time>2024-03-21T14:01:55Z</time>
      </trkpt>
      <trkpt lat="42.84908361" lon="13.60159641">
        <ele>125.00000</ele>
        <time>2024-03-21T14:01:56Z</time>
      </trkpt>
      <trkpt lat="42.84905981" lon="13.60170420">
        <ele>126.00000</ele>
        <time>2024-03-21T14:01:57Z</time>
      </trkpt>
      <trkpt lat="42.84903869" lon="13.60181073">
        <ele>126.00000</ele>
        <time>2024-03-21T14:01:58Z</time>
      </trkpt>
      <trkpt lat="42.84901815" lon="13.60191752">
        <ele>126.00000</ele>
        <time>2024-03-21T14:01:59Z</time>
      </trkpt>
      <trkpt lat="42.84899954" lon="13.60202355">
        <ele>127.00000</ele>
        <time>2024-03-21T14:02:00Z</time>
      </trkpt>
      <trkpt lat="42.84897959" lon="13.60212656">
        <ele>127.00000</ele>
        <time>2024-03-21T14:02:01Z</time>
      </trkpt>
      <trkpt lat="42.84895302" lon="13.60222295">
        <ele>128.00000</ele>
        <time>2024-03-21T14:02:02Z</time>
      </trkpt>
      <trkpt lat="42.84891723" lon="13.60231013">
        <ele>128.00000</ele>
        <time>2024-03-21T14:02:03Z</time>
      </trkpt>
      <trkpt lat="42.84887189" lon="13.60238154">
        <ele>128.00000</ele>
        <time>2024-03-21T14:02:04Z</time>
      </trkpt>
      <trkpt lat="42.84883048" lon="13.60244625">
        <ele>128.00000</ele>
        <time>2024-03-21T14:02:05Z</time>
      </trkpt>
      <trkpt lat="42.84881941" lon="13.60252294">
        <ele>128.00000</ele>
        <time>2024-03-21T14:02:06Z</time>
      </trkpt>
      <trkpt lat="42.84883157" lon="13.60260274">
        <ele>128.00000</ele>
        <time>2024-03-21T14:02:07Z</time>
      </trkpt>
      <trkpt lat="42.84884850" lon="13.60267373">
        <ele>128.00000</ele>
        <time>2024-03-21T14:02:08Z</time>
      </trkpt>
      <trkpt lat="42.84886267" lon="13.60274389">
        <ele>128.00000</ele>
        <time>2024-03-21T14:02:09Z</time>
      </trkpt>
      <trkpt lat="42.84885613" lon="13.60281354">
        <ele>127.00000</ele>
        <time>2024-03-21T14:02:10Z</time>
      </trkpt>
      <trkpt lat="42.84883283" lon="13.60288554">
        <ele>127.00000</ele>
        <time>2024-03-21T14:02:11Z</time>
      </trkpt>
      <trkpt lat="42.84880902" lon="13.60296341">
        <ele>127.00000</ele>
        <time>2024-03-21T14:02:12Z</time>
      </trkpt>
      <trkpt lat="42.84878656" lon="13.60304832">
        <ele>127.00000</ele>
        <time>2024-03-21T14:02:13Z</time>
      </trkpt>
      <trkpt lat="42.84876812" lon="13.60314161">
        <ele>127.00000</ele>
        <time>2024-03-21T14:02:14Z</time>
      </trkpt>
      <trkpt lat="42.84875320" lon="13.60324546">
        <ele>127.00000</ele>
        <time>2024-03-21T14:02:15Z</time>
      </trkpt>
      <trkpt lat="42.84873191" lon="13.60334764">
        <ele>127.00000</ele>
        <time>2024-03-21T14:02:16Z</time>
      </trkpt>
      <trkpt lat="42.84870894" lon="13.60344436">
        <ele>127.00000</ele>
        <time>2024-03-21T14:02:17Z</time>
      </trkpt>
      <trkpt lat="42.84868765" lon="13.60354335">
        <ele>127.00000</ele>
        <time>2024-03-21T14:02:18Z</time>
      </trkpt>
      <trkpt lat="42.84866678" lon="13.60364511">
        <ele>127.00000</ele>
        <time>2024-03-21T14:02:19Z</time>
      </trkpt>
      <trkpt lat="42.84864842" lon="13.60374460">
        <ele>127.00000</ele>
        <time>2024-03-21T14:02:20Z</time>
      </trkpt>
      <trkpt lat="42.84863015" lon="13.60384167">
        <ele>127.00000</ele>
        <time>2024-03-21T14:02:21Z</time>
      </trkpt>
      <trkpt lat="42.84860911" lon="13.60394074">
        <ele>127.00000</ele>
        <time>2024-03-21T14:02:22Z</time>
      </trkpt>
      <trkpt lat="42.84859344" lon="13.60404216">
        <ele>127.00000</ele>
        <time>2024-03-21T14:02:23Z</time>
      </trkpt>
      <trkpt lat="42.84857559" lon="13.60414048">
        <ele>127.00000</ele>
        <time>2024-03-21T14:02:24Z</time>
      </trkpt>
      <trkpt lat="42.84855631" lon="13.60423587">
        <ele>127.00000</ele>
        <time>2024-03-21T14:02:25Z</time>
      </trkpt>
      <trkpt lat="42.84853619" lon="13.60433427">
        <ele>127.00000</ele>
        <time>2024-03-21T14:02:26Z</time>
      </trkpt>
      <trkpt lat="42.84851666" lon="13.60443117">
        <ele>127.00000</ele>
        <time>2024-03-21T14:02:27Z</time>
      </trkpt>
      <trkpt lat="42.84850149" lon="13.60453049">
        <ele>126.00000</ele>
        <time>2024-03-21T14:02:28Z</time>
      </trkpt>
      <trkpt lat="42.84848581" lon="13.60462512">
        <ele>126.00000</ele>
        <time>2024-03-21T14:02:29Z</time>
      </trkpt>
      <trkpt lat="42.84846629" lon="13.60472059">
        <ele>126.00000</ele>
        <time>2024-03-21T14:02:30Z</time>
      </trkpt>
      <trkpt lat="42.84844575" lon="13.60481682">
        <ele>125.00000</ele>
        <time>2024-03-21T14:02:31Z</time>
      </trkpt>
      <trkpt lat="42.84842655" lon="13.60491472">
        <ele>125.00000</ele>
        <time>2024-03-21T14:02:32Z</time>
      </trkpt>
      <trkpt lat="42.84840677" lon="13.60501212">
        <ele>124.00000</ele>
        <time>2024-03-21T14:02:33Z</time>
      </trkpt>
      <trkpt lat="42.84838750" lon="13.60510968">
        <ele>124.00000</ele>
        <time>2024-03-21T14:02:34Z</time>
      </trkpt>
      <trkpt lat="42.84836168" lon="13.60520415">
        <ele>124.00000</ele>
        <time>2024-03-21T14:02:35Z</time>
      </trkpt>
      <trkpt lat="42.84833092" lon="13.60529400">
        <ele>124.00000</ele>
        <time>2024-03-21T14:02:36Z</time>
      </trkpt>
      <trkpt lat="42.84829856" lon="13.60538310">
        <ele>124.00000</ele>
        <time>2024-03-21T14:02:37Z</time>
      </trkpt>
      <trkpt lat="42.84825724" lon="13.60547253">
        <ele>124.00000</ele>
        <time>2024-03-21T14:02:38Z</time>
      </trkpt>
      <trkpt lat="42.84821734" lon="13.60555719">
        <ele>124.00000</ele>
        <time>2024-03-21T14:02:39Z</time>
      </trkpt>
      <trkpt lat="42.84817887" lon="13.60564327">
        <ele>125.00000</ele>
        <time>2024-03-21T14:02:40Z</time>
      </trkpt>
      <trkpt lat="42.84813847" lon="13.60573028">
        <ele>125.00000</ele>
        <time>2024-03-21T14:02:41Z</time>
      </trkpt>
      <trkpt lat="42.84809723" lon="13.60581552">
        <ele>125.00000</ele>
        <time>2024-03-21T14:02:42Z</time>
      </trkpt>
      <trkpt lat="42.84805851" lon="13.60590646">
        <ele>125.00000</ele>
        <time>2024-03-21T14:02:43Z</time>
      </trkpt>
      <trkpt lat="42.84802339" lon="13.60599598">
        <ele>125.00000</ele>
        <time>2024-03-21T14:02:44Z</time>
      </trkpt>
      <trkpt lat="42.84798634" lon="13.60608173">
        <ele>125.00000</ele>
        <time>2024-03-21T14:02:45Z</time>
      </trkpt>
      <trkpt lat="42.84794753" lon="13.60617049">
        <ele>124.00000</ele>
        <time>2024-03-21T14:02:46Z</time>
      </trkpt>
      <trkpt lat="42.84790847" lon="13.60626244">
        <ele>124.00000</ele>
        <time>2024-03-21T14:02:47Z</time>
      </trkpt>
      <trkpt lat="42.84786882" lon="13.60635381">
        <ele>124.00000</ele>
        <time>2024-03-21T14:02:48Z</time>
      </trkpt>
      <trkpt lat="42.84782943" lon="13.60644609">
        <ele>124.00000</ele>
        <time>2024-03-21T14:02:49Z</time>
      </trkpt>
      <trkpt lat="42.84779950" lon="13.60651910">
        <ele>124.00000</ele>
        <time>2024-03-21T14:02:50Z</time>
      </trkpt>
      <trkpt lat="42.84775542" lon="13.60662840">
        <ele>123.00000</ele>
        <time>2024-03-21T14:02:51Z</time>
      </trkpt>
      <trkpt lat="42.84771535" lon="13.60671968">
        <ele>123.00000</ele>
        <time>2024-03-21T14:02:52Z</time>
      </trkpt>
      <trkpt lat="42.84767327" lon="13.60681246">
        <ele>123.00000</ele>
        <time>2024-03-21T14:02:53Z</time>
      </trkpt>
      <trkpt lat="42.84763270" lon="13.60690609">
        <ele>123.00000</ele>
        <time>2024-03-21T14:02:54Z</time>
      </trkpt>
      <trkpt lat="42.84759691" lon="13.60699796">
        <ele>123.00000</ele>
        <time>2024-03-21T14:02:55Z</time>
      </trkpt>
      <trkpt lat="42.84756381" lon="13.60708605">
        <ele>123.00000</ele>
        <time>2024-03-21T14:02:56Z</time>
      </trkpt>
      <trkpt lat="42.84753120" lon="13.60717708">
        <ele>123.00000</ele>
        <time>2024-03-21T14:02:57Z</time>
      </trkpt>
      <trkpt lat="42.84749683" lon="13.60727255">
        <ele>122.00000</ele>
        <time>2024-03-21T14:02:58Z</time>
      </trkpt>
      <trkpt lat="42.84746230" lon="13.60736986">
        <ele>122.00000</ele>
        <time>2024-03-21T14:02:59Z</time>
      </trkpt>
      <trkpt lat="42.84742919" lon="13.60746558">
        <ele>121.00000</ele>
        <time>2024-03-21T14:03:00Z</time>
      </trkpt>
      <trkpt lat="42.84739986" lon="13.60756189">
        <ele>121.00000</ele>
        <time>2024-03-21T14:03:01Z</time>
      </trkpt>
      <trkpt lat="42.84737278" lon="13.60765954">
        <ele>121.00000</ele>
        <time>2024-03-21T14:03:02Z</time>
      </trkpt>
      <trkpt lat="42.84734562" lon="13.60775836">
        <ele>121.00000</ele>
        <time>2024-03-21T14:03:03Z</time>
      </trkpt>
      <trkpt lat="42.84731679" lon="13.60785962">
        <ele>121.00000</ele>
        <time>2024-03-21T14:03:04Z</time>
      </trkpt>
      <trkpt lat="42.84728863" lon="13.60795819">
        <ele>121.00000</ele>
        <time>2024-03-21T14:03:05Z</time>
      </trkpt>
      <trkpt lat="42.84726256" lon="13.60805827">
        <ele>121.00000</ele>
        <time>2024-03-21T14:03:06Z</time>
      </trkpt>
      <trkpt lat="42.84723364" lon="13.60815893">
        <ele>121.00000</ele>
        <time>2024-03-21T14:03:07Z</time>
      </trkpt>
      <trkpt lat="42.84720766" lon="13.60825709">
        <ele>121.00000</ele>
        <time>2024-03-21T14:03:08Z</time>
      </trkpt>
      <trkpt lat="42.84717941" lon="13.60835524">
        <ele>122.00000</ele>
        <time>2024-03-21T14:03:09Z</time>
      </trkpt>
      <trkpt lat="42.84714681" lon="13.60845515">
        <ele>122.00000</ele>
        <time>2024-03-21T14:03:10Z</time>
      </trkpt>
      <trkpt lat="42.84711730" lon="13.60855691">
        <ele>122.00000</ele>
        <time>2024-03-21T14:03:11Z</time>
      </trkpt>
      <trkpt lat="42.84708864" lon="13.60866378">
        <ele>122.00000</ele>
        <time>2024-03-21T14:03:12Z</time>
      </trkpt>
      <trkpt lat="42.84705905" lon="13.60876788">
        <ele>122.00000</ele>
        <time>2024-03-21T14:03:13Z</time>
      </trkpt>
      <trkpt lat="42.84702929" lon="13.60887290">
        <ele>122.00000</ele>
        <time>2024-03-21T14:03:14Z</time>
      </trkpt>
      <trkpt lat="42.84699778" lon="13.60897952">
        <ele>123.00000</ele>
        <time>2024-03-21T14:03:15Z</time>
      </trkpt>
      <trkpt lat="42.84696794" lon="13.60908790">
        <ele>123.00000</ele>
        <time>2024-03-21T14:03:16Z</time>
      </trkpt>
      <trkpt lat="42.84694178" lon="13.60919821">
        <ele>123.00000</ele>
        <time>2024-03-21T14:03:17Z</time>
      </trkpt>
      <trkpt lat="42.84691815" lon="13.60931002">
        <ele>123.00000</ele>
        <time>2024-03-21T14:03:18Z</time>
      </trkpt>
      <trkpt lat="42.84689367" lon="13.60941848">
        <ele>123.00000</ele>
        <time>2024-03-21T14:03:19Z</time>
      </trkpt>
      <trkpt lat="42.84687238" lon="13.60952652">
        <ele>123.00000</ele>
        <time>2024-03-21T14:03:20Z</time>
      </trkpt>
      <trkpt lat="42.84685176" lon="13.60963650">
        <ele>122.00000</ele>
        <time>2024-03-21T14:03:21Z</time>
      </trkpt>
      <trkpt lat="42.84683081" lon="13.60974630">
        <ele>122.00000</ele>
        <time>2024-03-21T14:03:22Z</time>
      </trkpt>
      <trkpt lat="42.84681354" lon="13.60985694">
        <ele>122.00000</ele>
        <time>2024-03-21T14:03:23Z</time>
      </trkpt>
      <trkpt lat="42.84679636" lon="13.60996733">
        <ele>121.00000</ele>
        <time>2024-03-21T14:03:24Z</time>
      </trkpt>
      <trkpt lat="42.84677775" lon="13.61007764">
        <ele>121.00000</ele>
        <time>2024-03-21T14:03:25Z</time>
      </trkpt>
      <trkpt lat="42.84675755" lon="13.61018819">
        <ele>120.00000</ele>
        <time>2024-03-21T14:03:26Z</time>
      </trkpt>
      <trkpt lat="42.84674146" lon="13.61030219">
        <ele>120.00000</ele>
        <time>2024-03-21T14:03:27Z</time>
      </trkpt>
      <trkpt lat="42.84672402" lon="13.61041668">
        <ele>119.00000</ele>
        <time>2024-03-21T14:03:28Z</time>
      </trkpt>
      <trkpt lat="42.84670743" lon="13.61052925">
        <ele>119.00000</ele>
        <time>2024-03-21T14:03:29Z</time>
      </trkpt>
      <trkpt lat="42.84669267" lon="13.61063998">
        <ele>119.00000</ele>
        <time>2024-03-21T14:03:30Z</time>
      </trkpt>
      <trkpt lat="42.84667951" lon="13.61075112">
        <ele>119.00000</ele>
        <time>2024-03-21T14:03:31Z</time>
      </trkpt>
      <trkpt lat="42.84666476" lon="13.61086495">
        <ele>118.00000</ele>
        <time>2024-03-21T14:03:32Z</time>
      </trkpt>
      <trkpt lat="42.84664766" lon="13.61097550">
        <ele>118.00000</ele>
        <time>2024-03-21T14:03:33Z</time>
      </trkpt>
      <trkpt lat="42.84663065" lon="13.61108858">
        <ele>118.00000</ele>
        <time>2024-03-21T14:03:34Z</time>
      </trkpt>
      <trkpt lat="42.84661430" lon="13.61120031">
        <ele>118.00000</ele>
        <time>2024-03-21T14:03:35Z</time>
      </trkpt>
      <trkpt lat="42.84659603" lon="13.61131296">
        <ele>118.00000</ele>
        <time>2024-03-21T14:03:36Z</time>
      </trkpt>
      <trkpt lat="42.84657868" lon="13.61142628">
        <ele>118.00000</ele>
        <time>2024-03-21T14:03:37Z</time>
      </trkpt>
      <trkpt lat="42.84656175" lon="13.61153692">
        <ele>119.00000</ele>
        <time>2024-03-21T14:03:38Z</time>
      </trkpt>
      <trkpt lat="42.84654214" lon="13.61164849">
        <ele>119.00000</ele>
        <time>2024-03-21T14:03:39Z</time>
      </trkpt>
      <trkpt lat="42.84652319" lon="13.61175904">
        <ele>119.00000</ele>
        <time>2024-03-21T14:03:40Z</time>
      </trkpt>
      <trkpt lat="42.84650509" lon="13.61187002">
        <ele>119.00000</ele>
        <time>2024-03-21T14:03:41Z</time>
      </trkpt>
      <trkpt lat="42.84648640" lon="13.61198150">
        <ele>119.00000</ele>
        <time>2024-03-21T14:03:42Z</time>
      </trkpt>
      <trkpt lat="42.84646762" lon="13.61209373">
        <ele>119.00000</ele>
        <time>2024-03-21T14:03:43Z</time>
      </trkpt>
      <trkpt lat="42.84644859" lon="13.61220463">
        <ele>120.00000</ele>
        <time>2024-03-21T14:03:44Z</time>
      </trkpt>
      <trkpt lat="42.84642990" lon="13.61231342">
        <ele>120.00000</ele>
        <time>2024-03-21T14:03:45Z</time>
      </trkpt>
      <trkpt lat="42.84641087" lon="13.61242230">
        <ele>120.00000</ele>
        <time>2024-03-21T14:03:46Z</time>
      </trkpt>
      <trkpt lat="42.84639344" lon="13.61253177">
        <ele>121.00000</ele>
        <time>2024-03-21T14:03:47Z</time>
      </trkpt>
      <trkpt lat="42.84637626" lon="13.61264258">
        <ele>121.00000</ele>
        <time>2024-03-21T14:03:48Z</time>
      </trkpt>
      <trkpt lat="42.84635765" lon="13.61275255">
        <ele>121.00000</ele>
        <time>2024-03-21T14:03:49Z</time>
      </trkpt>
      <trkpt lat="42.84633896" lon="13.61286143">
        <ele>121.00000</ele>
        <time>2024-03-21T14:03:50Z</time>
      </trkpt>
      <trkpt lat="42.84631993" lon="13.61297140">
        <ele>121.00000</ele>
        <time>2024-03-21T14:03:51Z</time>
      </trkpt>
      <trkpt lat="42.84629839" lon="13.61308355">
        <ele>120.00000</ele>
        <time>2024-03-21T14:03:52Z</time>
      </trkpt>
      <trkpt lat="42.84627936" lon="13.61319654">
        <ele>120.00000</ele>
        <time>2024-03-21T14:03:53Z</time>
      </trkpt>
      <trkpt lat="42.84625799" lon="13.61330693">
        <ele>120.00000</ele>
        <time>2024-03-21T14:03:54Z</time>
      </trkpt>
      <trkpt lat="42.84623662" lon="13.61341648">
        <ele>119.00000</ele>
        <time>2024-03-21T14:03:55Z</time>
      </trkpt>
      <trkpt lat="42.84621683" lon="13.61352813">
        <ele>119.00000</ele>
        <time>2024-03-21T14:03:56Z</time>
      </trkpt>
      <trkpt lat="42.84619353" lon="13.61363718">
        <ele>119.00000</ele>
        <time>2024-03-21T14:03:57Z</time>
      </trkpt>
      <trkpt lat="42.84616822" lon="13.61374522">
        <ele>118.00000</ele>
        <time>2024-03-21T14:03:58Z</time>
      </trkpt>
      <trkpt lat="42.84613821" lon="13.61385108">
        <ele>118.00000</ele>
        <time>2024-03-21T14:03:59Z</time>
      </trkpt>
      <trkpt lat="42.84610779" lon="13.61395812">
        <ele>117.00000</ele>
        <time>2024-03-21T14:04:00Z</time>
      </trkpt>
      <trkpt lat="42.84607602" lon="13.61406457">
        <ele>117.00000</ele>
        <time>2024-03-21T14:04:01Z</time>
      </trkpt>
      <trkpt lat="42.84604383" lon="13.61416700">
        <ele>116.00000</ele>
        <time>2024-03-21T14:04:02Z</time>
      </trkpt>
      <trkpt lat="42.84600838" lon="13.61426708">
        <ele>116.00000</ele>
        <time>2024-03-21T14:04:03Z</time>
      </trkpt>
      <trkpt lat="42.84596873" lon="13.61436632">
        <ele>116.00000</ele>
        <time>2024-03-21T14:04:04Z</time>
      </trkpt>
      <trkpt lat="42.84592632" lon="13.61446464">
        <ele>116.00000</ele>
        <time>2024-03-21T14:04:05Z</time>
      </trkpt>
      <trkpt lat="42.84588256" lon="13.61456137">
        <ele>116.00000</ele>
        <time>2024-03-21T14:04:06Z</time>
      </trkpt>
      <trkpt lat="42.84583822" lon="13.61465876">
        <ele>116.00000</ele>
        <time>2024-03-21T14:04:07Z</time>
      </trkpt>
      <trkpt lat="42.84579464" lon="13.61475549">
        <ele>117.00000</ele>
        <time>2024-03-21T14:04:08Z</time>
      </trkpt>
      <trkpt lat="42.84575122" lon="13.61485314">
        <ele>117.00000</ele>
        <time>2024-03-21T14:04:09Z</time>
      </trkpt>
      <trkpt lat="42.84570705" lon="13.61495079">
        <ele>117.00000</ele>
        <time>2024-03-21T14:04:10Z</time>
      </trkpt>
      <trkpt lat="42.84566069" lon="13.61505104">
        <ele>117.00000</ele>
        <time>2024-03-21T14:04:11Z</time>
      </trkpt>
      <trkpt lat="42.84561644" lon="13.61515154">
        <ele>117.00000</ele>
        <time>2024-03-21T14:04:12Z</time>
      </trkpt>
      <trkpt lat="42.84556916" lon="13.61525002">
        <ele>117.00000</ele>
        <time>2024-03-21T14:04:13Z</time>
      </trkpt>
      <trkpt lat="42.84551803" lon="13.61534725">
        <ele>117.00000</ele>
        <time>2024-03-21T14:04:14Z</time>
      </trkpt>
      <trkpt lat="42.84547084" lon="13.61544691">
        <ele>117.00000</ele>
        <time>2024-03-21T14:04:15Z</time>
      </trkpt>
      <trkpt lat="42.84542298" lon="13.61554666">
        <ele>117.00000</ele>
        <time>2024-03-21T14:04:16Z</time>
      </trkpt>
      <trkpt lat="42.84537563" lon="13.61564339">
        <ele>117.00000</ele>
        <time>2024-03-21T14:04:17Z</time>
      </trkpt>
      <trkpt lat="42.84532902" lon="13.61573860">
        <ele>117.00000</ele>
        <time>2024-03-21T14:04:18Z</time>
      </trkpt>
      <trkpt lat="42.84528259" lon="13.61583676">
        <ele>116.00000</ele>
        <time>2024-03-21T14:04:19Z</time>
      </trkpt>
      <trkpt lat="42.84523632" lon="13.61593374">
        <ele>117.00000</ele>
        <time>2024-03-21T14:04:20Z</time>
      </trkpt>
      <trkpt lat="42.84518888" lon="13.61602904">
        <ele>118.00000</ele>
        <time>2024-03-21T14:04:21Z</time>
      </trkpt>
      <trkpt lat="42.84514253" lon="13.61612300">
        <ele>118.00000</ele>
        <time>2024-03-21T14:04:22Z</time>
      </trkpt>
      <trkpt lat="42.84509534" lon="13.61621864">
        <ele>118.00000</ele>
        <time>2024-03-21T14:04:23Z</time>
      </trkpt>
      <trkpt lat="42.84505200" lon="13.61631478">
        <ele>118.00000</ele>
        <time>2024-03-21T14:04:24Z</time>
      </trkpt>
      <trkpt lat="42.84500967" lon="13.61641050">
        <ele>118.00000</ele>
        <time>2024-03-21T14:04:25Z</time>
      </trkpt>
      <trkpt lat="42.84496558" lon="13.61650580">
        <ele>118.00000</ele>
        <time>2024-03-21T14:04:26Z</time>
      </trkpt>
      <trkpt lat="42.84491764" lon="13.61659901">
        <ele>118.00000</ele>
        <time>2024-03-21T14:04:27Z</time>
      </trkpt>
      <trkpt lat="42.84486944" lon="13.61669339">
        <ele>118.00000</ele>
        <time>2024-03-21T14:04:28Z</time>
      </trkpt>
      <trkpt lat="42.84481823" lon="13.61678483">
        <ele>118.00000</ele>
        <time>2024-03-21T14:04:29Z</time>
      </trkpt>
      <trkpt lat="42.84476366" lon="13.61687276">
        <ele>117.00000</ele>
        <time>2024-03-21T14:04:30Z</time>
      </trkpt>
      <trkpt lat="42.84470390" lon="13.61695256">
        <ele>118.00000</ele>
        <time>2024-03-21T14:04:31Z</time>
      </trkpt>
      <trkpt lat="42.84464129" lon="13.61702380">
        <ele>118.00000</ele>
        <time>2024-03-21T14:04:32Z</time>
      </trkpt>
      <trkpt lat="42.84457624" lon="13.61709262">
        <ele>119.00000</ele>
        <time>2024-03-21T14:04:33Z</time>
      </trkpt>
      <trkpt lat="42.84450919" lon="13.61716026">
        <ele>120.00000</ele>
        <time>2024-03-21T14:04:34Z</time>
      </trkpt>
      <trkpt lat="42.84444800" lon="13.61723444">
        <ele>120.00000</ele>
        <time>2024-03-21T14:04:35Z</time>
      </trkpt>
      <trkpt lat="42.84440383" lon="13.61732522">
        <ele>120.00000</ele>
        <time>2024-03-21T14:04:36Z</time>
      </trkpt>
      <trkpt lat="42.84437893" lon="13.61742697">
        <ele>120.00000</ele>
        <time>2024-03-21T14:04:37Z</time>
      </trkpt>
      <trkpt lat="42.84437458" lon="13.61753585">
        <ele>119.00000</ele>
        <time>2024-03-21T14:04:38Z</time>
      </trkpt>
      <trkpt lat="42.84438178" lon="13.61764783">
        <ele>118.00000</ele>
        <time>2024-03-21T14:04:39Z</time>
      </trkpt>
      <trkpt lat="42.84439268" lon="13.61776200">
        <ele>118.00000</ele>
        <time>2024-03-21T14:04:40Z</time>
      </trkpt>
      <trkpt lat="42.84440391" lon="13.61787842">
        <ele>116.00000</ele>
        <time>2024-03-21T14:04:41Z</time>
      </trkpt>
      <trkpt lat="42.84441095" lon="13.61799778">
        <ele>115.00000</ele>
        <time>2024-03-21T14:04:42Z</time>
      </trkpt>
      <trkpt lat="42.84440659" lon="13.61811714">
        <ele>114.00000</ele>
        <time>2024-03-21T14:04:43Z</time>
      </trkpt>
      <trkpt lat="42.84439486" lon="13.61823608">
        <ele>113.00000</ele>
        <time>2024-03-21T14:04:44Z</time>
      </trkpt>
      <trkpt lat="42.84438237" lon="13.61835636">
        <ele>113.00000</ele>
        <time>2024-03-21T14:04:45Z</time>
      </trkpt>
      <trkpt lat="42.84436888" lon="13.61847672">
        <ele>113.00000</ele>
        <time>2024-03-21T14:04:46Z</time>
      </trkpt>
      <trkpt lat="42.84435270" lon="13.61859885">
        <ele>113.00000</ele>
        <time>2024-03-21T14:04:47Z</time>
      </trkpt>
      <trkpt lat="42.84433308" lon="13.61871670">
        <ele>114.00000</ele>
        <time>2024-03-21T14:04:48Z</time>
      </trkpt>
      <trkpt lat="42.84431490" lon="13.61883345">
        <ele>114.00000</ele>
        <time>2024-03-21T14:04:49Z</time>
      </trkpt>
      <trkpt lat="42.84429931" lon="13.61895206">
        <ele>115.00000</ele>
        <time>2024-03-21T14:04:50Z</time>
      </trkpt>
      <trkpt lat="42.84428422" lon="13.61907133">
        <ele>115.00000</ele>
        <time>2024-03-21T14:04:51Z</time>
      </trkpt>
      <trkpt lat="42.84426813" lon="13.61918684">
        <ele>116.00000</ele>
        <time>2024-03-21T14:04:52Z</time>
      </trkpt>
      <trkpt lat="42.84425396" lon="13.61929982">
        <ele>116.00000</ele>
        <time>2024-03-21T14:04:53Z</time>
      </trkpt>
      <trkpt lat="42.84423694" lon="13.61941038">
        <ele>116.00000</ele>
        <time>2024-03-21T14:04:54Z</time>
      </trkpt>
      <trkpt lat="42.84422077" lon="13.61951842">
        <ele>117.00000</ele>
        <time>2024-03-21T14:04:55Z</time>
      </trkpt>
      <trkpt lat="42.84420400" lon="13.61962412">
        <ele>117.00000</ele>
        <time>2024-03-21T14:04:56Z</time>
      </trkpt>
      <trkpt lat="42.84418665" lon="13.61972386">
        <ele>117.00000</ele>
        <time>2024-03-21T14:04:57Z</time>
      </trkpt>
      <trkpt lat="42.84417148" lon="13.61982109">
        <ele>117.00000</ele>
        <time>2024-03-21T14:04:58Z</time>
      </trkpt>
      <trkpt lat="42.84415245" lon="13.61991564">
        <ele>117.00000</ele>
        <time>2024-03-21T14:04:59Z</time>
      </trkpt>
      <trkpt lat="42.84412940" lon="13.62000944">
        <ele>117.00000</ele>
        <time>2024-03-21T14:05:00Z</time>
      </trkpt>
      <trkpt lat="42.84410853" lon="13.62010356">
        <ele>117.00000</ele>
        <time>2024-03-21T14:05:01Z</time>
      </trkpt>
      <trkpt lat="42.84408632" lon="13.62019543">
        <ele>117.00000</ele>
        <time>2024-03-21T14:05:02Z</time>
      </trkpt>
      <trkpt lat="42.84406193" lon="13.62028889">
        <ele>118.00000</ele>
        <time>2024-03-21T14:05:03Z</time>
      </trkpt>
      <trkpt lat="42.84404240" lon="13.62036215">
        <ele>118.00000</ele>
        <time>2024-03-21T14:05:04Z</time>
      </trkpt>
      <trkpt lat="42.84401206" lon="13.62047220">
        <ele>118.00000</ele>
        <time>2024-03-21T14:05:05Z</time>
      </trkpt>
      <trkpt lat="42.84398574" lon="13.62056516">
        <ele>118.00000</ele>
        <time>2024-03-21T14:05:06Z</time>
      </trkpt>
      <trkpt lat="42.84395841" lon="13.62065727">
        <ele>119.00000</ele>
        <time>2024-03-21T14:05:07Z</time>
      </trkpt>
      <trkpt lat="42.84393050" lon="13.62074688">
        <ele>120.00000</ele>
        <time>2024-03-21T14:05:08Z</time>
      </trkpt>
      <trkpt lat="42.84390393" lon="13.62083547">
        <ele>120.00000</ele>
        <time>2024-03-21T14:05:09Z</time>
      </trkpt>
      <trkpt lat="42.84387594" lon="13.62092516">
        <ele>121.00000</ele>
        <time>2024-03-21T14:05:10Z</time>
      </trkpt>
      <trkpt lat="42.84384501" lon="13.62101141">
        <ele>121.00000</ele>
        <time>2024-03-21T14:05:11Z</time>
      </trkpt>
      <trkpt lat="42.84381492" lon="13.62109900">
        <ele>122.00000</ele>
        <time>2024-03-21T14:05:12Z</time>
      </trkpt>
      <trkpt lat="42.84378591" lon="13.62118885">
        <ele>122.00000</ele>
        <time>2024-03-21T14:05:13Z</time>
      </trkpt>
      <trkpt lat="42.84375549" lon="13.62127603">
        <ele>122.00000</ele>
        <time>2024-03-21T14:05:14Z</time>
      </trkpt>
      <trkpt lat="42.84372917" lon="13.62136194">
        <ele>123.00000</ele>
        <time>2024-03-21T14:05:15Z</time>
      </trkpt>
      <trkpt lat="42.84370612" lon="13.62145213">
        <ele>122.00000</ele>
        <time>2024-03-21T14:05:16Z</time>
      </trkpt>
      <trkpt lat="42.84368081" lon="13.62153922">
        <ele>122.00000</ele>
        <time>2024-03-21T14:05:17Z</time>
      </trkpt>
      <trkpt lat="42.84365432" lon="13.62162480">
        <ele>122.00000</ele>
        <time>2024-03-21T14:05:18Z</time>
      </trkpt>
      <trkpt lat="42.84362901" lon="13.62170744">
        <ele>121.00000</ele>
        <time>2024-03-21T14:05:19Z</time>
      </trkpt>
      <trkpt lat="42.84360260" lon="13.62179537">
        <ele>121.00000</ele>
        <time>2024-03-21T14:05:20Z</time>
      </trkpt>
      <trkpt lat="42.84357494" lon="13.62188346">
        <ele>120.00000</ele>
        <time>2024-03-21T14:05:21Z</time>
      </trkpt>
      <trkpt lat="42.84354753" lon="13.62197231">
        <ele>120.00000</ele>
        <time>2024-03-21T14:05:22Z</time>
      </trkpt>
      <trkpt lat="42.84352440" lon="13.62206174">
        <ele>120.00000</ele>
        <time>2024-03-21T14:05:23Z</time>
      </trkpt>
      <trkpt lat="42.84350319" lon="13.62215135">
        <ele>120.00000</ele>
        <time>2024-03-21T14:05:24Z</time>
      </trkpt>
      <trkpt lat="42.84348643" lon="13.62224246">
        <ele>120.00000</ele>
        <time>2024-03-21T14:05:25Z</time>
      </trkpt>
      <trkpt lat="42.84347855" lon="13.62233097">
        <ele>120.00000</ele>
        <time>2024-03-21T14:05:26Z</time>
      </trkpt>
      <trkpt lat="42.84347528" lon="13.62242175">
        <ele>121.00000</ele>
        <time>2024-03-21T14:05:27Z</time>
      </trkpt>
      <trkpt lat="42.84346899" lon="13.62251445">
        <ele>121.00000</ele>
        <time>2024-03-21T14:05:28Z</time>
      </trkpt>
      <trkpt lat="42.84345215" lon="13.62260632">
        <ele>121.00000</ele>
        <time>2024-03-21T14:05:29Z</time>
      </trkpt>
      <trkpt lat="42.84342407" lon="13.62268871">
        <ele>122.00000</ele>
        <time>2024-03-21T14:05:30Z</time>
      </trkpt>
      <trkpt lat="42.84338694" lon="13.62276398">
        <ele>122.00000</ele>
        <time>2024-03-21T14:05:31Z</time>
      </trkpt>
      <trkpt lat="42.84335098" lon="13.62283816">
        <ele>122.00000</ele>
        <time>2024-03-21T14:05:32Z</time>
      </trkpt>
      <trkpt lat="42.84332893" lon="13.62291703">
        <ele>123.00000</ele>
        <time>2024-03-21T14:05:33Z</time>
      </trkpt>
      <trkpt lat="42.84332701" lon="13.62300270">
        <ele>123.00000</ele>
        <time>2024-03-21T14:05:34Z</time>
      </trkpt>
      <trkpt lat="42.84334695" lon="13.62308233">
        <ele>122.00000</ele>
        <time>2024-03-21T14:05:35Z</time>
      </trkpt>
      <trkpt lat="42.84338953" lon="13.62312801">
        <ele>122.00000</ele>
        <time>2024-03-21T14:05:36Z</time>
      </trkpt>
      <trkpt lat="42.84344804" lon="13.62313874">
        <ele>121.00000</ele>
        <time>2024-03-21T14:05:37Z</time>
      </trkpt>
      <trkpt lat="42.84351292" lon="13.62312105">
        <ele>120.00000</ele>
        <time>2024-03-21T14:05:38Z</time>
      </trkpt>
      <trkpt lat="42.84357444" lon="13.62308844">
        <ele>120.00000</ele>
        <time>2024-03-21T14:05:39Z</time>
      </trkpt>
      <trkpt lat="42.84363747" lon="13.62305668">
        <ele>119.00000</ele>
        <time>2024-03-21T14:05:40Z</time>
      </trkpt>
      <trkpt lat="42.84370461" lon="13.62303581">
        <ele>118.00000</ele>
        <time>2024-03-21T14:05:41Z</time>
      </trkpt>
      <trkpt lat="42.84377058" lon="13.62303413">
        <ele>117.00000</ele>
        <time>2024-03-21T14:05:42Z</time>
      </trkpt>
      <trkpt lat="42.84383319" lon="13.62304746">
        <ele>116.00000</ele>
        <time>2024-03-21T14:05:43Z</time>
      </trkpt>
      <trkpt lat="42.84389345" lon="13.62307109">
        <ele>116.00000</ele>
        <time>2024-03-21T14:05:44Z</time>
      </trkpt>
      <trkpt lat="42.84394660" lon="13.62310462">
        <ele>116.00000</ele>
        <time>2024-03-21T14:05:45Z</time>
      </trkpt>
      <trkpt lat="42.84398046" lon="13.62314871">
        <ele>116.00000</ele>
        <time>2024-03-21T14:05:46Z</time>
      </trkpt>
      <trkpt lat="42.84399999" lon="13.62320705">
        <ele>116.00000</ele>
        <time>2024-03-21T14:05:47Z</time>
      </trkpt>
      <trkpt lat="42.84400879" lon="13.62327201">
        <ele>116.00000</ele>
        <time>2024-03-21T14:05:48Z</time>
      </trkpt>
      <trkpt lat="42.84400728" lon="13.62334577">
        <ele>116.00000</ele>
        <time>2024-03-21T14:05:49Z</time>
      </trkpt>
      <trkpt lat="42.84400359" lon="13.62342121">
        <ele>116.00000</ele>
        <time>2024-03-21T14:05:50Z</time>
      </trkpt>
      <trkpt lat="42.84399940" lon="13.62350670">
        <ele>116.00000</ele>
        <time>2024-03-21T14:05:51Z</time>
      </trkpt>
      <trkpt lat="42.84399596" lon="13.62359530">
        <ele>116.00000</ele>
        <time>2024-03-21T14:05:52Z</time>
      </trkpt>
      <trkpt lat="42.84399211" lon="13.62368616">
        <ele>116.00000</ele>
        <time>2024-03-21T14:05:53Z</time>
      </trkpt>
      <trkpt lat="42.84398398" lon="13.62378347">
        <ele>115.00000</ele>
        <time>2024-03-21T14:05:54Z</time>
      </trkpt>
      <trkpt lat="42.84397149" lon="13.62389311">
        <ele>114.00000</ele>
        <time>2024-03-21T14:05:55Z</time>
      </trkpt>
      <trkpt lat="42.84396529" lon="13.62400475">
        <ele>114.00000</ele>
        <time>2024-03-21T14:05:56Z</time>
      </trkpt>
      <trkpt lat="42.84396093" lon="13.62409695">
        <ele>113.00000</ele>
        <time>2024-03-21T14:05:57Z</time>
      </trkpt>
      <trkpt lat="42.84395699" lon="13.62420860">
        <ele>113.00000</ele>
        <time>2024-03-21T14:05:58Z</time>
      </trkpt>
      <trkpt lat="42.84395288" lon="13.62434841">
        <ele>113.00000</ele>
        <time>2024-03-21T14:05:59Z</time>
      </trkpt>
      <trkpt lat="42.84395020" lon="13.62447188">
        <ele>113.00000</ele>
        <time>2024-03-21T14:06:00Z</time>
      </trkpt>
      <trkpt lat="42.84394945" lon="13.62459124">
        <ele>113.00000</ele>
        <time>2024-03-21T14:06:01Z</time>
      </trkpt>
      <trkpt lat="42.84395179" lon="13.62471772">
        <ele>113.00000</ele>
        <time>2024-03-21T14:06:02Z</time>
      </trkpt>
      <trkpt lat="42.84395732" lon="13.62484521">
        <ele>113.00000</ele>
        <time>2024-03-21T14:06:03Z</time>
      </trkpt>
      <trkpt lat="42.84396369" lon="13.62495149">
        <ele>112.00000</ele>
        <time>2024-03-21T14:06:04Z</time>
      </trkpt>
      <trkpt lat="42.84397157" lon="13.62511083">
        <ele>112.00000</ele>
        <time>2024-03-21T14:06:05Z</time>
      </trkpt>
      <trkpt lat="42.84397937" lon="13.62524536">
        <ele>112.00000</ele>
        <time>2024-03-21T14:06:06Z</time>
      </trkpt>
      <trkpt lat="42.84399228" lon="13.62538400">
        <ele>111.00000</ele>
        <time>2024-03-21T14:06:07Z</time>
      </trkpt>
      <trkpt lat="42.84400200" lon="13.62552171">
        <ele>111.00000</ele>
        <time>2024-03-21T14:06:08Z</time>
      </trkpt>
      <trkpt lat="42.84401013" lon="13.62566186">
        <ele>111.00000</ele>
        <time>2024-03-21T14:06:09Z</time>
      </trkpt>
      <trkpt lat="42.84401818" lon="13.62580250">
        <ele>110.00000</ele>
        <time>2024-03-21T14:06:10Z</time>
      </trkpt>
      <trkpt lat="42.84402547" lon="13.62594382">
        <ele>110.00000</ele>
        <time>2024-03-21T14:06:11Z</time>
      </trkpt>
      <trkpt lat="42.84403293" lon="13.62608422">
        <ele>110.00000</ele>
        <time>2024-03-21T14:06:12Z</time>
      </trkpt>
      <trkpt lat="42.84403980" lon="13.62622168">
        <ele>109.00000</ele>
        <time>2024-03-21T14:06:13Z</time>
      </trkpt>
      <trkpt lat="42.84404676" lon="13.62635973">
        <ele>109.00000</ele>
        <time>2024-03-21T14:06:14Z</time>
      </trkpt>
      <trkpt lat="42.84405548" lon="13.62650005">
        <ele>110.00000</ele>
        <time>2024-03-21T14:06:15Z</time>
      </trkpt>
      <trkpt lat="42.84406478" lon="13.62663986">
        <ele>110.00000</ele>
        <time>2024-03-21T14:06:16Z</time>
      </trkpt>
      <trkpt lat="42.84407165" lon="13.62677833">
        <ele>110.00000</ele>
        <time>2024-03-21T14:06:17Z</time>
      </trkpt>
      <trkpt lat="42.84407660" lon="13.62688922">
        <ele>111.00000</ele>
        <time>2024-03-21T14:06:18Z</time>
      </trkpt>
      <trkpt lat="42.84408565" lon="13.62705543">
        <ele>111.00000</ele>
        <time>2024-03-21T14:06:19Z</time>
      </trkpt>
      <trkpt lat="42.84409613" lon="13.62719164">
        <ele>111.00000</ele>
        <time>2024-03-21T14:06:20Z</time>
      </trkpt>
      <trkpt lat="42.84410627" lon="13.62732692">
        <ele>112.00000</ele>
        <time>2024-03-21T14:06:21Z</time>
      </trkpt>
      <trkpt lat="42.84411423" lon="13.62746195">
        <ele>112.00000</ele>
        <time>2024-03-21T14:06:22Z</time>
      </trkpt>
      <trkpt lat="42.84412211" lon="13.62759556">
        <ele>111.00000</ele>
        <time>2024-03-21T14:06:23Z</time>
      </trkpt>
      <trkpt lat="42.84412949" lon="13.62770318">
        <ele>111.00000</ele>
        <time>2024-03-21T14:06:24Z</time>
      </trkpt>
      <trkpt lat="42.84414189" lon="13.62786294">
        <ele>111.00000</ele>
        <time>2024-03-21T14:06:25Z</time>
      </trkpt>
      <trkpt lat="42.84415229" lon="13.62799521">
        <ele>110.00000</ele>
        <time>2024-03-21T14:06:26Z</time>
      </trkpt>
      <trkpt lat="42.84416268" lon="13.62812689">
        <ele>110.00000</ele>
        <time>2024-03-21T14:06:27Z</time>
      </trkpt>
      <trkpt lat="42.84417341" lon="13.62825798">
        <ele>111.00000</ele>
        <time>2024-03-21T14:06:28Z</time>
      </trkpt>
      <trkpt lat="42.84418540" lon="13.62838807">
        <ele>112.00000</ele>
        <time>2024-03-21T14:06:29Z</time>
      </trkpt>
      <trkpt lat="42.84419554" lon="13.62849259">
        <ele>112.00000</ele>
        <time>2024-03-21T14:06:30Z</time>
      </trkpt>
      <trkpt lat="42.84421180" lon="13.62864833">
        <ele>113.00000</ele>
        <time>2024-03-21T14:06:31Z</time>
      </trkpt>
      <trkpt lat="42.84422479" lon="13.62878043">
        <ele>112.00000</ele>
        <time>2024-03-21T14:06:32Z</time>
      </trkpt>
      <trkpt lat="42.84424256" lon="13.62890842">
        <ele>112.00000</ele>
        <time>2024-03-21T14:06:33Z</time>
      </trkpt>
      <trkpt lat="42.84425974" lon="13.62903675">
        <ele>110.00000</ele>
        <time>2024-03-21T14:06:34Z</time>
      </trkpt>
      <trkpt lat="42.84427458" lon="13.62914051">
        <ele>109.00000</ele>
        <time>2024-03-21T14:06:35Z</time>
      </trkpt>
      <trkpt lat="42.84429335" lon="13.62927010">
        <ele>108.00000</ele>
        <time>2024-03-21T14:06:36Z</time>
      </trkpt>
      <trkpt lat="42.84431716" lon="13.62942659">
        <ele>107.00000</ele>
        <time>2024-03-21T14:06:37Z</time>
      </trkpt>
      <trkpt lat="42.84433811" lon="13.62955517">
        <ele>107.00000</ele>
        <time>2024-03-21T14:06:38Z</time>
      </trkpt>
      <trkpt lat="42.84435966" lon="13.62968517">
        <ele>107.00000</ele>
        <time>2024-03-21T14:06:39Z</time>
      </trkpt>
      <trkpt lat="42.84438044" lon="13.62981341">
        <ele>107.00000</ele>
        <time>2024-03-21T14:06:40Z</time>
      </trkpt>
      <trkpt lat="42.84440031" lon="13.62994107">
        <ele>108.00000</ele>
        <time>2024-03-21T14:06:41Z</time>
      </trkpt>
      <trkpt lat="42.84442369" lon="13.63007166">
        <ele>108.00000</ele>
        <time>2024-03-21T14:06:42Z</time>
      </trkpt>
      <trkpt lat="42.84444658" lon="13.63019814">
        <ele>109.00000</ele>
        <time>2024-03-21T14:06:43Z</time>
      </trkpt>
      <trkpt lat="42.84446896" lon="13.63032328">
        <ele>109.00000</ele>
        <time>2024-03-21T14:06:44Z</time>
      </trkpt>
      <trkpt lat="42.84448673" lon="13.63042445">
        <ele>109.00000</ele>
        <time>2024-03-21T14:06:45Z</time>
      </trkpt>
      <trkpt lat="42.84451237" lon="13.63057726">
        <ele>109.00000</ele>
        <time>2024-03-21T14:06:46Z</time>
      </trkpt>
      <trkpt lat="42.84453274" lon="13.63070265">
        <ele>108.00000</ele>
        <time>2024-03-21T14:06:47Z</time>
      </trkpt>
      <trkpt lat="42.84455386" lon="13.63082678">
        <ele>108.00000</ele>
        <time>2024-03-21T14:06:48Z</time>
      </trkpt>
      <trkpt lat="42.84457675" lon="13.63094815">
        <ele>108.00000</ele>
        <time>2024-03-21T14:06:49Z</time>
      </trkpt>
      <trkpt lat="42.84459871" lon="13.63106994">
        <ele>109.00000</ele>
        <time>2024-03-21T14:06:50Z</time>
      </trkpt>
      <trkpt lat="42.84462276" lon="13.63119190">
        <ele>109.00000</ele>
        <time>2024-03-21T14:06:51Z</time>
      </trkpt>
      <trkpt lat="42.84464632" lon="13.63131436">
        <ele>109.00000</ele>
        <time>2024-03-21T14:06:52Z</time>
      </trkpt>
      <trkpt lat="42.84466727" lon="13.63143548">
        <ele>109.00000</ele>
        <time>2024-03-21T14:06:53Z</time>
      </trkpt>
      <trkpt lat="42.84468613" lon="13.63155668">
        <ele>109.00000</ele>
        <time>2024-03-21T14:06:54Z</time>
      </trkpt>
      <trkpt lat="42.84470407" lon="13.63167830">
        <ele>109.00000</ele>
        <time>2024-03-21T14:06:55Z</time>
      </trkpt>
      <trkpt lat="42.84472309" lon="13.63180043">
        <ele>109.00000</ele>
        <time>2024-03-21T14:06:56Z</time>
      </trkpt>
      <trkpt lat="42.84474371" lon="13.63192289">
        <ele>109.00000</ele>
        <time>2024-03-21T14:06:57Z</time>
      </trkpt>
      <trkpt lat="42.84476492" lon="13.63204526">
        <ele>109.00000</ele>
        <time>2024-03-21T14:06:58Z</time>
      </trkpt>
      <trkpt lat="42.84478688" lon="13.63216663">
        <ele>108.00000</ele>
        <time>2024-03-21T14:06:59Z</time>
      </trkpt>
      <trkpt lat="42.84480943" lon="13.63228742">
        <ele>108.00000</ele>
        <time>2024-03-21T14:07:00Z</time>
      </trkpt>
      <trkpt lat="42.84483131" lon="13.63240652">
        <ele>107.00000</ele>
        <time>2024-03-21T14:07:01Z</time>
      </trkpt>
      <trkpt lat="42.84484975" lon="13.63252697">
        <ele>107.00000</ele>
        <time>2024-03-21T14:07:02Z</time>
      </trkpt>
      <trkpt lat="42.84486928" lon="13.63264700">
        <ele>106.00000</ele>
        <time>2024-03-21T14:07:03Z</time>
      </trkpt>
      <trkpt lat="42.84488872" lon="13.63276904">
        <ele>106.00000</ele>
        <time>2024-03-21T14:07:04Z</time>
      </trkpt>
      <trkpt lat="42.84490909" lon="13.63289217">
        <ele>106.00000</ele>
        <time>2024-03-21T14:07:05Z</time>
      </trkpt>
      <trkpt lat="42.84493071" lon="13.63301354">
        <ele>105.00000</ele>
        <time>2024-03-21T14:07:06Z</time>
      </trkpt>
      <trkpt lat="42.84494832" lon="13.63311102">
        <ele>105.00000</ele>
        <time>2024-03-21T14:07:07Z</time>
      </trkpt>
      <trkpt lat="42.84497346" lon="13.63325578">
        <ele>105.00000</ele>
        <time>2024-03-21T14:07:08Z</time>
      </trkpt>
      <trkpt lat="42.84499400" lon="13.63338008">
        <ele>105.00000</ele>
        <time>2024-03-21T14:07:09Z</time>
      </trkpt>
      <trkpt lat="42.84501395" lon="13.63350137">
        <ele>105.00000</ele>
        <time>2024-03-21T14:07:10Z</time>
      </trkpt>
      <trkpt lat="42.84503465" lon="13.63362232">
        <ele>105.00000</ele>
        <time>2024-03-21T14:07:11Z</time>
      </trkpt>
      <trkpt lat="42.84505502" lon="13.63374394">
        <ele>106.00000</ele>
        <time>2024-03-21T14:07:12Z</time>
      </trkpt>
      <trkpt lat="42.84506826" lon="13.63383966">
        <ele>106.00000</ele>
        <time>2024-03-21T14:07:13Z</time>
      </trkpt>
      <trkpt lat="42.84508947" lon="13.63398425">
        <ele>106.00000</ele>
        <time>2024-03-21T14:07:14Z</time>
      </trkpt>
      <trkpt lat="42.84510414" lon="13.63410579">
        <ele>107.00000</ele>
        <time>2024-03-21T14:07:15Z</time>
      </trkpt>
      <trkpt lat="42.84511579" lon="13.63422791">
        <ele>107.00000</ele>
        <time>2024-03-21T14:07:16Z</time>
      </trkpt>
      <trkpt lat="42.84512509" lon="13.63435087">
        <ele>107.00000</ele>
        <time>2024-03-21T14:07:17Z</time>
      </trkpt>
      <trkpt lat="42.84513247" lon="13.63447207">
        <ele>108.00000</ele>
        <time>2024-03-21T14:07:18Z</time>
      </trkpt>
      <trkpt lat="42.84513423" lon="13.63456386">
        <ele>108.00000</ele>
        <time>2024-03-21T14:07:19Z</time>
      </trkpt>
      <trkpt lat="42.84513993" lon="13.63470090">
        <ele>108.00000</ele>
        <time>2024-03-21T14:07:20Z</time>
      </trkpt>
      <trkpt lat="42.84514563" lon="13.63481917">
        <ele>107.00000</ele>
        <time>2024-03-21T14:07:21Z</time>
      </trkpt>
      <trkpt lat="42.84514730" lon="13.63493870">
        <ele>107.00000</ele>
        <time>2024-03-21T14:07:22Z</time>
      </trkpt>
      <trkpt lat="42.84514764" lon="13.63503517">
        <ele>106.00000</ele>
        <time>2024-03-21T14:07:23Z</time>
      </trkpt>
      <trkpt lat="42.84514822" lon="13.63515553">
        <ele>106.00000</ele>
        <time>2024-03-21T14:07:24Z</time>
      </trkpt>
      <trkpt lat="42.84514613" lon="13.63529761">
        <ele>106.00000</ele>
        <time>2024-03-21T14:07:25Z</time>
      </trkpt>
      <trkpt lat="42.84514236" lon="13.63541336">
        <ele>107.00000</ele>
        <time>2024-03-21T14:07:26Z</time>
      </trkpt>
      <trkpt lat="42.84513833" lon="13.63552803">
        <ele>107.00000</ele>
        <time>2024-03-21T14:07:27Z</time>
      </trkpt>
      <trkpt lat="42.84513406" lon="13.63564412">
        <ele>107.00000</ele>
        <time>2024-03-21T14:07:28Z</time>
      </trkpt>
      <trkpt lat="42.84512719" lon="13.63575702">
        <ele>107.00000</ele>
        <time>2024-03-21T14:07:29Z</time>
      </trkpt>
      <trkpt lat="42.84512082" lon="13.63587143">
        <ele>107.00000</ele>
        <time>2024-03-21T14:07:30Z</time>
      </trkpt>
      <trkpt lat="42.84511797" lon="13.63599012">
        <ele>107.00000</ele>
        <time>2024-03-21T14:07:31Z</time>
      </trkpt>
      <trkpt lat="42.84511394" lon="13.63610336">
        <ele>107.00000</ele>
        <time>2024-03-21T14:07:32Z</time>
      </trkpt>
      <trkpt lat="42.84510866" lon="13.63621828">
        <ele>106.00000</ele>
        <time>2024-03-21T14:07:33Z</time>
      </trkpt>
      <trkpt lat="42.84510229" lon="13.63632934">
        <ele>105.00000</ele>
        <time>2024-03-21T14:07:34Z</time>
      </trkpt>
      <trkpt lat="42.84509710" lon="13.63644082">
        <ele>105.00000</ele>
        <time>2024-03-21T14:07:35Z</time>
      </trkpt>
      <trkpt lat="42.84509114" lon="13.63654928">
        <ele>105.00000</ele>
        <time>2024-03-21T14:07:36Z</time>
      </trkpt>
      <trkpt lat="42.84508469" lon="13.63665891">
        <ele>105.00000</ele>
        <time>2024-03-21T14:07:37Z</time>
      </trkpt>
      <trkpt lat="42.84507907" lon="13.63676813">
        <ele>104.00000</ele>
        <time>2024-03-21T14:07:38Z</time>
      </trkpt>
      <trkpt lat="42.84507254" lon="13.63687634">
        <ele>104.00000</ele>
        <time>2024-03-21T14:07:39Z</time>
      </trkpt>
      <trkpt lat="42.84506667" lon="13.63698111">
        <ele>104.00000</ele>
        <time>2024-03-21T14:07:40Z</time>
      </trkpt>
      <trkpt lat="42.84505963" lon="13.63708572">
        <ele>104.00000</ele>
        <time>2024-03-21T14:07:41Z</time>
      </trkpt>
      <trkpt lat="42.84505250" lon="13.63719125">
        <ele>104.00000</ele>
        <time>2024-03-21T14:07:42Z</time>
      </trkpt>
      <trkpt lat="42.84504429" lon="13.63729644">
        <ele>104.00000</ele>
        <time>2024-03-21T14:07:43Z</time>
      </trkpt>
      <trkpt lat="42.84503851" lon="13.63737875">
        <ele>104.00000</ele>
        <time>2024-03-21T14:07:44Z</time>
      </trkpt>
      <trkpt lat="42.84503264" lon="13.63748009">
        <ele>104.00000</ele>
        <time>2024-03-21T14:07:45Z</time>
      </trkpt>
      <trkpt lat="42.84502778" lon="13.63760171">
        <ele>104.00000</ele>
        <time>2024-03-21T14:07:46Z</time>
      </trkpt>
      <trkpt lat="42.84502275" lon="13.63770212">
        <ele>104.00000</ele>
        <time>2024-03-21T14:07:47Z</time>
      </trkpt>
      <trkpt lat="42.84501822" lon="13.63780522">
        <ele>104.00000</ele>
        <time>2024-03-21T14:07:48Z</time>
      </trkpt>
      <trkpt lat="42.84501512" lon="13.63788711">
        <ele>104.00000</ele>
        <time>2024-03-21T14:07:49Z</time>
      </trkpt>
      <trkpt lat="42.84500808" lon="13.63798753">
        <ele>104.00000</ele>
        <time>2024-03-21T14:07:50Z</time>
      </trkpt>
      <trkpt lat="42.84500221" lon="13.63808719">
        <ele>104.00000</ele>
        <time>2024-03-21T14:07:51Z</time>
      </trkpt>
      <trkpt lat="42.84499769" lon="13.63820638">
        <ele>104.00000</ele>
        <time>2024-03-21T14:07:52Z</time>
      </trkpt>
      <trkpt lat="42.84499484" lon="13.63830529">
        <ele>104.00000</ele>
        <time>2024-03-21T14:07:53Z</time>
      </trkpt>
      <trkpt lat="42.84499073" lon="13.63838433">
        <ele>104.00000</ele>
        <time>2024-03-21T14:07:54Z</time>
      </trkpt>
      <trkpt lat="42.84498394" lon="13.63848349">
        <ele>104.00000</ele>
        <time>2024-03-21T14:07:55Z</time>
      </trkpt>
      <trkpt lat="42.84497589" lon="13.63858273">
        <ele>104.00000</ele>
        <time>2024-03-21T14:07:56Z</time>
      </trkpt>
      <trkpt lat="42.84496751" lon="13.63870309">
        <ele>104.00000</ele>
        <time>2024-03-21T14:07:57Z</time>
      </trkpt>
      <trkpt lat="42.84496089" lon="13.63880460">
        <ele>104.00000</ele>
        <time>2024-03-21T14:07:58Z</time>
      </trkpt>
      <trkpt lat="42.84495360" lon="13.63890451">
        <ele>104.00000</ele>
        <time>2024-03-21T14:07:59Z</time>
      </trkpt>
      <trkpt lat="42.84494857" lon="13.63898363">
        <ele>104.00000</ele>
        <time>2024-03-21T14:08:00Z</time>
      </trkpt>
      <trkpt lat="42.84494488" lon="13.63908237">
        <ele>104.00000</ele>
        <time>2024-03-21T14:08:01Z</time>
      </trkpt>
      <trkpt lat="42.84493985" lon="13.63920022">
        <ele>104.00000</ele>
        <time>2024-03-21T14:08:02Z</time>
      </trkpt>
      <trkpt lat="42.84493549" lon="13.63929670">
        <ele>104.00000</ele>
        <time>2024-03-21T14:08:03Z</time>
      </trkpt>
      <trkpt lat="42.84493122" lon="13.63939510">
        <ele>104.00000</ele>
        <time>2024-03-21T14:08:04Z</time>
      </trkpt>
      <trkpt lat="42.84492761" lon="13.63947330">
        <ele>104.00000</ele>
        <time>2024-03-21T14:08:05Z</time>
      </trkpt>
      <trkpt lat="42.84492418" lon="13.63956970">
        <ele>105.00000</ele>
        <time>2024-03-21T14:08:06Z</time>
      </trkpt>
      <trkpt lat="42.84491823" lon="13.63966525">
        <ele>105.00000</ele>
        <time>2024-03-21T14:08:07Z</time>
      </trkpt>
      <trkpt lat="42.84491035" lon="13.63978050">
        <ele>105.00000</ele>
        <time>2024-03-21T14:08:08Z</time>
      </trkpt>
      <trkpt lat="42.84490515" lon="13.63987714">
        <ele>105.00000</ele>
        <time>2024-03-21T14:08:09Z</time>
      </trkpt>
      <trkpt lat="42.84490079" lon="13.63997773">
        <ele>105.00000</ele>
        <time>2024-03-21T14:08:10Z</time>
      </trkpt>
      <trkpt lat="42.84489719" lon="13.64005669">
        <ele>105.00000</ele>
        <time>2024-03-21T14:08:11Z</time>
      </trkpt>
      <trkpt lat="42.84489526" lon="13.64015542">
        <ele>105.00000</ele>
        <time>2024-03-21T14:08:12Z</time>
      </trkpt>
      <trkpt lat="42.84489450" lon="13.64027026">
        <ele>105.00000</ele>
        <time>2024-03-21T14:08:13Z</time>
      </trkpt>
      <trkpt lat="42.84489409" lon="13.64036313">
        <ele>105.00000</ele>
        <time>2024-03-21T14:08:14Z</time>
      </trkpt>
      <trkpt lat="42.84489752" lon="13.64045265">
        <ele>105.00000</ele>
        <time>2024-03-21T14:08:15Z</time>
      </trkpt>
      <trkpt lat="42.84489635" lon="13.64052163">
        <ele>105.00000</ele>
        <time>2024-03-21T14:08:16Z</time>
      </trkpt>
      <trkpt lat="42.84489467" lon="13.64060503">
        <ele>105.00000</ele>
        <time>2024-03-21T14:08:17Z</time>
      </trkpt>
      <trkpt lat="42.84489844" lon="13.64068583">
        <ele>105.00000</ele>
        <time>2024-03-21T14:08:18Z</time>
      </trkpt>
      <trkpt lat="42.84490481" lon="13.64078071">
        <ele>105.00000</ele>
        <time>2024-03-21T14:08:19Z</time>
      </trkpt>
      <trkpt lat="42.84490850" lon="13.64085632">
        <ele>105.00000</ele>
        <time>2024-03-21T14:08:20Z</time>
      </trkpt>
      <trkpt lat="42.84491144" lon="13.64091767">
        <ele>105.00000</ele>
        <time>2024-03-21T14:08:21Z</time>
      </trkpt>
      <trkpt lat="42.84491487" lon="13.64099529">
        <ele>105.00000</ele>
        <time>2024-03-21T14:08:22Z</time>
      </trkpt>
      <trkpt lat="42.84491747" lon="13.64107291">
        <ele>105.00000</ele>
        <time>2024-03-21T14:08:23Z</time>
      </trkpt>
      <trkpt lat="42.84492409" lon="13.64116896">
        <ele>105.00000</ele>
        <time>2024-03-21T14:08:24Z</time>
      </trkpt>
      <trkpt lat="42.84492979" lon="13.64124348">
        <ele>105.00000</ele>
        <time>2024-03-21T14:08:25Z</time>
      </trkpt>
      <trkpt lat="42.84493868" lon="13.64131649">
        <ele>105.00000</ele>
        <time>2024-03-21T14:08:26Z</time>
      </trkpt>
      <trkpt lat="42.84494647" lon="13.64137214">
        <ele>105.00000</ele>
        <time>2024-03-21T14:08:27Z</time>
      </trkpt>
      <trkpt lat="42.84495569" lon="13.64143953">
        <ele>106.00000</ele>
        <time>2024-03-21T14:08:28Z</time>
      </trkpt>
      <trkpt lat="42.84496500" lon="13.64151304">
        <ele>106.00000</ele>
        <time>2024-03-21T14:08:29Z</time>
      </trkpt>
      <trkpt lat="42.84497078" lon="13.64156526">
        <ele>106.00000</ele>
        <time>2024-03-21T14:08:30Z</time>
      </trkpt>
      <trkpt lat="42.84497505" lon="13.64161245">
        <ele>106.00000</ele>
        <time>2024-03-21T14:08:31Z</time>
      </trkpt>
      <trkpt lat="42.84497933" lon="13.64164824">
        <ele>106.00000</ele>
        <time>2024-03-21T14:08:32Z</time>
      </trkpt>
      <trkpt lat="42.84498712" lon="13.64169510">
        <ele>106.00000</ele>
        <time>2024-03-21T14:08:33Z</time>
      </trkpt>
      <trkpt lat="42.84499584" lon="13.64174002">
        <ele>106.00000</ele>
        <time>2024-03-21T14:08:34Z</time>
      </trkpt>
      <trkpt lat="42.84501043" lon="13.64178788">
        <ele>107.00000</ele>
        <time>2024-03-21T14:08:35Z</time>
      </trkpt>
      <trkpt lat="42.84501554" lon="13.64182250">
        <ele>107.00000</ele>
        <time>2024-03-21T14:08:36Z</time>
      </trkpt>
      <trkpt lat="42.84502107" lon="13.64184924">
        <ele>107.00000</ele>
        <time>2024-03-21T14:08:37Z</time>
      </trkpt>
      <trkpt lat="42.84503440" lon="13.64187740">
        <ele>107.00000</ele>
        <time>2024-03-21T14:08:38Z</time>
      </trkpt>
      <trkpt lat="42.84505728" lon="13.64189526">
        <ele>107.00000</ele>
        <time>2024-03-21T14:08:39Z</time>
      </trkpt>
      <trkpt lat="42.84508637" lon="13.64189408">
        <ele>107.00000</ele>
        <time>2024-03-21T14:08:40Z</time>
      </trkpt>
      <trkpt lat="42.84510472" lon="13.64187053">
        <ele>107.00000</ele>
        <time>2024-03-21T14:08:41Z</time>
      </trkpt>
      <trkpt lat="42.84512526" lon="13.64184312">
        <ele>107.00000</ele>
        <time>2024-03-21T14:08:42Z</time>
      </trkpt>
      <trkpt lat="42.84514588" lon="13.64182602">
        <ele>107.00000</ele>
        <time>2024-03-21T14:08:43Z</time>
      </trkpt>
      <trkpt lat="42.84517111" lon="13.64181311">
        <ele>107.00000</ele>
        <time>2024-03-21T14:08:44Z</time>
      </trkpt>
      <trkpt lat="42.84519542" lon="13.64180515">
        <ele>107.00000</ele>
        <time>2024-03-21T14:08:45Z</time>
      </trkpt>
      <trkpt lat="42.84520220" lon="13.64180339">
        <ele>107.00000</ele>
        <time>2024-03-21T14:08:46Z</time>
      </trkpt>
      <trkpt lat="42.84526096" lon="13.64178495">
        <ele>107.00000</ele>
        <time>2024-03-21T14:09:40Z</time>
      </trkpt>
      <trkpt lat="42.84528443" lon="13.64178076">
        <ele>107.00000</ele>
        <time>2024-03-21T14:09:41Z</time>
      </trkpt>
      <trkpt lat="42.84531125" lon="13.64177699">
        <ele>107.00000</ele>
        <time>2024-03-21T14:09:42Z</time>
      </trkpt>
      <trkpt lat="42.84534243" lon="13.64177154">
        <ele>107.00000</ele>
        <time>2024-03-21T14:09:43Z</time>
      </trkpt>
      <trkpt lat="42.84537093" lon="13.64176550">
        <ele>107.00000</ele>
        <time>2024-03-21T14:09:44Z</time>
      </trkpt>
      <trkpt lat="42.84539960" lon="13.64174698">
        <ele>106.00000</ele>
        <time>2024-03-21T14:09:45Z</time>
      </trkpt>
      <trkpt lat="42.84542793" lon="13.64173986">
        <ele>106.00000</ele>
        <time>2024-03-21T14:09:46Z</time>
      </trkpt>
      <trkpt lat="42.84546431" lon="13.64173457">
        <ele>106.00000</ele>
        <time>2024-03-21T14:09:47Z</time>
      </trkpt>
      <trkpt lat="42.84550161" lon="13.64172468">
        <ele>106.00000</ele>
        <time>2024-03-21T14:09:48Z</time>
      </trkpt>
      <trkpt lat="42.84553145" lon="13.64171722">
        <ele>106.00000</ele>
        <time>2024-03-21T14:09:49Z</time>
      </trkpt>
      <trkpt lat="42.84555994" lon="13.64171278">
        <ele>106.00000</ele>
        <time>2024-03-21T14:09:50Z</time>
      </trkpt>
      <trkpt lat="42.84558316" lon="13.64171002">
        <ele>106.00000</ele>
        <time>2024-03-21T14:09:51Z</time>
      </trkpt>
      <trkpt lat="42.84561191" lon="13.64170465">
        <ele>105.00000</ele>
        <time>2024-03-21T14:09:52Z</time>
      </trkpt>
      <trkpt lat="42.84564804" lon="13.64169384">
        <ele>105.00000</ele>
        <time>2024-03-21T14:09:53Z</time>
      </trkpt>
      <trkpt lat="42.84567821" lon="13.64168378">
        <ele>105.00000</ele>
        <time>2024-03-21T14:09:54Z</time>
      </trkpt>
      <trkpt lat="42.84569984" lon="13.64167867">
        <ele>105.00000</ele>
        <time>2024-03-21T14:09:55Z</time>
      </trkpt>
      <trkpt lat="42.84570839" lon="13.64167934">
        <ele>105.00000</ele>
        <time>2024-03-21T14:09:56Z</time>
      </trkpt>
      <trkpt lat="42.84571199" lon="13.64168026">
        <ele>105.00000</ele>
        <time>2024-03-21T14:09:57Z</time>
      </trkpt>
      <trkpt lat="42.84571434" lon="13.64167825">
        <ele>105.00000</ele>
        <time>2024-03-21T14:09:58Z</time>
      </trkpt>
    </trkseg>
  </trk>
</gpx>

